<?xml version='1.0' encoding='UTF-8'?><gpx version="1.1" creator="JPX - https://github.com/jenetics/jpx" xmlns="http://www.topografix.com/GPX/1/1"><trk><trkseg><trkpt lat="42.033762597136864" lon="3.140775963328342"><ele>3.0</ele><time>2026-04-22T07:21:12.01Z</time></trkpt><trkpt lat="42.03392210122701" lon="3.1405212629345356"><ele>3.0</ele><time>2026-04-22T07:48:45Z</time></trkpt><trkpt lat="42.034311476246735" lon="3.1405104475878507"><ele>3.0</ele><time>2026-04-22T07:48:46Z</time></trkpt><trkpt lat="42.03413798502768" lon="3.140545026906718"><ele>3.0</ele><time>2026-04-22T07:48:47Z</time></trkpt><trkpt lat="42.03398619529522" lon="3.140620178515273"><ele>3.0</ele><time>2026-04-22T07:48:50Z</time></trkpt><trkpt lat="42.03376990281255" lon="3.140848819169347"><ele>2.9999999999999996</ele><time>2026-04-22T07:48:59Z</time></trkpt><trkpt lat="42.03385398819649" lon="3.140875090476905"><ele>3.0</ele><time>2026-04-22T07:50:41Z</time></trkpt><trkpt lat="42.0338680685831" lon="3.1407886248324606"><ele>3.0</ele><time>2026-04-22T07:50:45Z</time></trkpt><trkpt lat="42.033913266615" lon="3.1407201516360184"><ele>3.0</ele><time>2026-04-22T07:50:52Z</time></trkpt><trkpt lat="42.03397240670009" lon="3.1407665130155022"><ele>3.0</ele><time>2026-04-22T07:51:01Z</time></trkpt><trkpt lat="42.03400522357738" lon="3.1408418951402477"><ele>2.9999999999999996</ele><time>2026-04-22T07:51:08Z</time></trkpt><trkpt lat="42.03404513967822" lon="3.14090832134798"><ele>3.0</ele><time>2026-04-22T07:51:15Z</time></trkpt><trkpt lat="42.03403343137944" lon="3.140809888834079"><ele>3.0</ele><time>2026-04-22T07:53:24Z</time></trkpt><trkpt lat="42.03405046526956" lon="3.140719234490266"><ele>3.0</ele><time>2026-04-22T07:53:27Z</time></trkpt><trkpt lat="42.034113737710136" lon="3.140684681530635"><ele>3.0</ele><time>2026-04-22T07:53:30Z</time></trkpt><trkpt lat="42.03419280700807" lon="3.1406836334930786"><ele>3.0</ele><time>2026-04-22T07:53:33Z</time></trkpt><trkpt lat="42.0342682828449" lon="3.1406752955644768"><ele>3.0</ele><time>2026-04-22T07:53:37Z</time></trkpt><trkpt lat="42.0343137323152" lon="3.1405882950399935"><ele>3.0</ele><time>2026-04-22T07:53:46Z</time></trkpt><trkpt lat="42.03428620812608" lon="3.1404846983835046"><ele>3.1666666666666665</ele><time>2026-04-22T07:53:49Z</time></trkpt><trkpt lat="42.0342553605812" lon="3.1404011723181227"><ele>3.333333333333333</ele><time>2026-04-22T07:53:51Z</time></trkpt><trkpt lat="42.0342378316472" lon="3.1403036502387502"><ele>3.5</ele><time>2026-04-22T07:53:54Z</time></trkpt><trkpt lat="42.034282352833834" lon="3.140225981476809"><ele>3.6666666666666665</ele><time>2026-04-22T07:53:57Z</time></trkpt><trkpt lat="42.03435565846484" lon="3.140190744804312"><ele>3.833333333333333</ele><time>2026-04-22T07:54:00Z</time></trkpt><trkpt lat="42.03443268061073" lon="3.1401400093918923"><ele>4.0</ele><time>2026-04-22T07:54:03Z</time></trkpt><trkpt lat="42.034516671947365" lon="3.1400848893754474"><ele>4.0</ele><time>2026-04-22T07:54:06Z</time></trkpt><trkpt lat="42.034579215904316" lon="3.140044980436167"><ele>3.9999999999999996</ele><time>2026-04-22T07:54:09Z</time></trkpt><trkpt lat="42.034642309500825" lon="3.140016288656611"><ele>4.0</ele><time>2026-04-22T07:54:12Z</time></trkpt><trkpt lat="42.0347081244419" lon="3.1399785195834653"><ele>4.0</ele><time>2026-04-22T07:54:15Z</time></trkpt><trkpt lat="42.03477130327637" lon="3.1399627886890955"><ele>3.9999999999999996</ele><time>2026-04-22T07:54:17Z</time></trkpt><trkpt lat="42.0348395809202" lon="3.1399381094767134"><ele>4.0</ele><time>2026-04-22T07:54:19Z</time></trkpt><trkpt lat="42.0349037446322" lon="3.1399174340730758"><ele>4.0</ele><time>2026-04-22T07:54:21Z</time></trkpt><trkpt lat="42.03496745656356" lon="3.1398947340648657"><ele>4.166666666666666</ele><time>2026-04-22T07:54:23Z</time></trkpt><trkpt lat="42.03502884819886" lon="3.139874852749228"><ele>4.333333333333333</ele><time>2026-04-22T07:54:25Z</time></trkpt><trkpt lat="42.03511939431881" lon="3.1398463619729577"><ele>4.5</ele><time>2026-04-22T07:54:28Z</time></trkpt><trkpt lat="42.03518355731756" lon="3.13982682820997"><ele>4.666666666666667</ele><time>2026-04-22T07:54:30Z</time></trkpt><trkpt lat="42.03524614356191" lon="3.1398084021713495"><ele>4.833333333333334</ele><time>2026-04-22T07:54:32Z</time></trkpt><trkpt lat="42.03533493723794" lon="3.139795114054201"><ele>5.0</ele><time>2026-04-22T07:54:35Z</time></trkpt><trkpt lat="42.03542892846934" lon="3.1397892294801966"><ele>5.0</ele><time>2026-04-22T07:54:38Z</time></trkpt><trkpt lat="42.03549395647374" lon="3.1397814500949246"><ele>5.0</ele><time>2026-04-22T07:54:40Z</time></trkpt><trkpt lat="42.03558614088271" lon="3.139764132918321"><ele>5.0</ele><time>2026-04-22T07:54:43Z</time></trkpt><trkpt lat="42.03567625369243" lon="3.139743303990056"><ele>5.0</ele><time>2026-04-22T07:54:46Z</time></trkpt><trkpt lat="42.035759980243604" lon="3.139721787823528"><ele>5.0</ele><time>2026-04-22T07:54:49Z</time></trkpt><trkpt lat="42.03582797732206" lon="3.1397019718536847"><ele>5.0</ele><time>2026-04-22T07:54:51Z</time></trkpt><trkpt lat="42.03591271929809" lon="3.1396825926987124"><ele>5.5</ele><time>2026-04-22T07:54:53Z</time></trkpt><trkpt lat="42.03600150104091" lon="3.1396752550456917"><ele>6.0</ele><time>2026-04-22T07:54:55Z</time></trkpt><trkpt lat="42.036088988791455" lon="3.1396672734465163"><ele>6.5</ele><time>2026-04-22T07:54:57Z</time></trkpt><trkpt lat="42.036172699824796" lon="3.1396677090967238"><ele>7.0</ele><time>2026-04-22T07:54:59Z</time></trkpt><trkpt lat="42.036257409286804" lon="3.139662234405293"><ele>7.499999999999999</ele><time>2026-04-22T07:55:01Z</time></trkpt><trkpt lat="42.03633974548756" lon="3.1396500028414254"><ele>8.0</ele><time>2026-04-22T07:55:03Z</time></trkpt><trkpt lat="42.036423003389075" lon="3.139631179208145"><ele>7.999999999999999</ele><time>2026-04-22T07:55:05Z</time></trkpt><trkpt lat="42.03650137710938" lon="3.139608274913429"><ele>8.0</ele><time>2026-04-22T07:55:07Z</time></trkpt><trkpt lat="42.036572735711005" lon="3.1395829241472675"><ele>8.0</ele><time>2026-04-22T07:55:09Z</time></trkpt><trkpt lat="42.036645744482264" lon="3.139554428470727"><ele>8.0</ele><time>2026-04-22T07:55:11Z</time></trkpt><trkpt lat="42.036716528173706" lon="3.13952552615354"><ele>7.999999999999999</ele><time>2026-04-22T07:55:13Z</time></trkpt><trkpt lat="42.03679018471053" lon="3.1394943182799286"><ele>8.0</ele><time>2026-04-22T07:55:15Z</time></trkpt><trkpt lat="42.036865272994895" lon="3.1394638673835464"><ele>8.666666666666666</ele><time>2026-04-22T07:55:17Z</time></trkpt><trkpt lat="42.03694252615658" lon="3.139436267513131"><ele>9.333333333333332</ele><time>2026-04-22T07:55:19Z</time></trkpt><trkpt lat="42.03702036108934" lon="3.139409385939974"><ele>10.0</ele><time>2026-04-22T07:55:21Z</time></trkpt><trkpt lat="42.037095670879225" lon="3.139374346737673"><ele>10.666666666666666</ele><time>2026-04-22T07:55:23Z</time></trkpt><trkpt lat="42.03717030141911" lon="3.139329424542067"><ele>11.333333333333334</ele><time>2026-04-22T07:55:25Z</time></trkpt><trkpt lat="42.03725253588163" lon="3.139278332360946"><ele>12.0</ele><time>2026-04-22T07:55:27Z</time></trkpt><trkpt lat="42.03733364666089" lon="3.1392221562554044"><ele>12.0</ele><time>2026-04-22T07:55:29Z</time></trkpt><trkpt lat="42.03740863818764" lon="3.139171341542371"><ele>12.0</ele><time>2026-04-22T07:55:31Z</time></trkpt><trkpt lat="42.03747965021508" lon="3.13912548264905"><ele>12.0</ele><time>2026-04-22T07:55:33Z</time></trkpt><trkpt lat="42.03754214463298" lon="3.1390846528372824"><ele>12.0</ele><time>2026-04-22T07:55:35Z</time></trkpt><trkpt lat="42.03762493370423" lon="3.13903164231008"><ele>12.0</ele><time>2026-04-22T07:55:38Z</time></trkpt><trkpt lat="42.03770067242437" lon="3.1389794011553414"><ele>12.0</ele><time>2026-04-22T07:55:44Z</time></trkpt><trkpt lat="42.03770342808117" lon="3.138833864655246"><ele>12.2</ele><time>2026-04-22T07:55:46Z</time></trkpt><trkpt lat="42.037682714771925" lon="3.1386675540195657"><ele>12.399999999999999</ele><time>2026-04-22T07:55:48Z</time></trkpt><trkpt lat="42.03767228855388" lon="3.138551518789958"><ele>12.600000000000001</ele><time>2026-04-22T07:55:49Z</time></trkpt><trkpt lat="42.03766108393986" lon="3.138426371489617"><ele>12.8</ele><time>2026-04-22T07:55:50Z</time></trkpt><trkpt lat="42.037653950219564" lon="3.138303874929908"><ele>13.0</ele><time>2026-04-22T07:55:51Z</time></trkpt><trkpt lat="42.03764418788784" lon="3.138170410570563"><ele>13.0</ele><time>2026-04-22T07:55:52Z</time></trkpt><trkpt lat="42.03763467459172" lon="3.1380257553977255"><ele>13.0</ele><time>2026-04-22T07:55:53Z</time></trkpt><trkpt lat="42.03762989523722" lon="3.1378733010132005"><ele>13.0</ele><time>2026-04-22T07:55:54Z</time></trkpt><trkpt lat="42.037630155311476" lon="3.137722939289851"><ele>13.0</ele><time>2026-04-22T07:55:55Z</time></trkpt><trkpt lat="42.03763360539763" lon="3.1375725180144793"><ele>13.0</ele><time>2026-04-22T07:55:56Z</time></trkpt><trkpt lat="42.03763962821876" lon="3.137423039471961"><ele>12.600000000000001</ele><time>2026-04-22T07:55:57Z</time></trkpt><trkpt lat="42.037643714020604" lon="3.137281211198304"><ele>12.200000000000001</ele><time>2026-04-22T07:55:58Z</time></trkpt><trkpt lat="42.03765078345663" lon="3.1371459320115593"><ele>11.8</ele><time>2026-04-22T07:55:59Z</time></trkpt><trkpt lat="42.03765921401761" lon="3.1370200796319296"><ele>11.4</ele><time>2026-04-22T07:56:00Z</time></trkpt><trkpt lat="42.037667862771166" lon="3.136899264681708"><ele>11.0</ele><time>2026-04-22T07:56:01Z</time></trkpt><trkpt lat="42.03767541932693" lon="3.136786367450686"><ele>11.0</ele><time>2026-04-22T07:56:02Z</time></trkpt><trkpt lat="42.03768217179957" lon="3.136676587930489"><ele>11.0</ele><time>2026-04-22T07:56:03Z</time></trkpt><trkpt lat="42.03769418329744" lon="3.1365776223736987"><ele>11.0</ele><time>2026-04-22T07:56:04Z</time></trkpt><trkpt lat="42.03770811733031" lon="3.1364860311210503"><ele>11.0</ele><time>2026-04-22T07:56:05Z</time></trkpt><trkpt lat="42.037732729133616" lon="3.1363263988244086"><ele>11.0</ele><time>2026-04-22T07:56:07Z</time></trkpt><trkpt lat="42.03774883512297" lon="3.1362036199400665"><ele>11.0</ele><time>2026-04-22T07:56:09Z</time></trkpt><trkpt lat="42.037763594975665" lon="3.136082654483138"><ele>10.8</ele><time>2026-04-22T07:56:14Z</time></trkpt><trkpt lat="42.037778697378535" lon="3.1359575699154636"><ele>10.600000000000001</ele><time>2026-04-22T07:56:16Z</time></trkpt><trkpt lat="42.03780178084361" lon="3.1357766973202694"><ele>10.4</ele><time>2026-04-22T07:56:18Z</time></trkpt><trkpt lat="42.03782350417584" lon="3.135679705503406"><ele>10.2</ele><time>2026-04-22T07:56:19Z</time></trkpt><trkpt lat="42.0378446575346" lon="3.1355820110899586"><ele>10.0</ele><time>2026-04-22T07:56:20Z</time></trkpt><trkpt lat="42.03786392454046" lon="3.1354845919746164"><ele>9.833333333333334</ele><time>2026-04-22T07:56:21Z</time></trkpt><trkpt lat="42.03788942011498" lon="3.13538636505122"><ele>9.666666666666668</ele><time>2026-04-22T07:56:22Z</time></trkpt><trkpt lat="42.03791705101432" lon="3.135286816611956"><ele>9.5</ele><time>2026-04-22T07:56:23Z</time></trkpt><trkpt lat="42.03794874588433" lon="3.1351908064067047"><ele>9.333333333333334</ele><time>2026-04-22T07:56:24Z</time></trkpt><trkpt lat="42.03798350992287" lon="3.135102208823985"><ele>9.166666666666666</ele><time>2026-04-22T07:56:25Z</time></trkpt><trkpt lat="42.038027875618965" lon="3.1350136229674272"><ele>9.0</ele><time>2026-04-22T07:56:26Z</time></trkpt><trkpt lat="42.03806689147112" lon="3.1349420147399805"><ele>9.0</ele><time>2026-04-22T07:56:27Z</time></trkpt><trkpt lat="42.03812383913357" lon="3.1348403628383354"><ele>9.0</ele><time>2026-04-22T07:56:29Z</time></trkpt><trkpt lat="42.03818097814228" lon="3.134728352440037"><ele>9.0</ele><time>2026-04-22T07:56:31Z</time></trkpt><trkpt lat="42.0382546726882" lon="3.1345942818939063"><ele>9.0</ele><time>2026-04-22T07:56:33Z</time></trkpt><trkpt lat="42.0382934628282" lon="3.1345206257653047"><ele>9.0</ele><time>2026-04-22T07:56:34Z</time></trkpt><trkpt lat="42.0383332537836" lon="3.1344470951894388"><ele>9.000000000000002</ele><time>2026-04-22T07:56:35Z</time></trkpt><trkpt lat="42.0383709547894" lon="3.1343719907331096"><ele>9.0</ele><time>2026-04-22T07:56:36Z</time></trkpt><trkpt lat="42.03840734021352" lon="3.1342905823958813"><ele>9.0</ele><time>2026-04-22T07:56:37Z</time></trkpt><trkpt lat="42.03844176530258" lon="3.1342043686721945"><ele>9.0</ele><time>2026-04-22T07:56:38Z</time></trkpt><trkpt lat="42.03847400328626" lon="3.1341124855903684"><ele>9.0</ele><time>2026-04-22T07:56:39Z</time></trkpt><trkpt lat="42.03850590928985" lon="3.1340166057688905"><ele>9.000000000000002</ele><time>2026-04-22T07:56:40Z</time></trkpt><trkpt lat="42.03854055986776" lon="3.133917288860818"><ele>9.0</ele><time>2026-04-22T07:56:41Z</time></trkpt><trkpt lat="42.03858035457033" lon="3.1338195351277607"><ele>8.833333333333334</ele><time>2026-04-22T07:56:42Z</time></trkpt><trkpt lat="42.038617401622524" lon="3.1337255536647777"><ele>8.666666666666666</ele><time>2026-04-22T07:56:43Z</time></trkpt><trkpt lat="42.038650437117894" lon="3.1336296817629004"><ele>8.5</ele><time>2026-04-22T07:56:44Z</time></trkpt><trkpt lat="42.03868350711182" lon="3.1335358075091952"><ele>8.333333333333332</ele><time>2026-04-22T07:56:45Z</time></trkpt><trkpt lat="42.03871470403454" lon="3.133450485442782"><ele>8.166666666666666</ele><time>2026-04-22T07:56:46Z</time></trkpt><trkpt lat="42.03875400898389" lon="3.133309996125921"><ele>8.0</ele><time>2026-04-22T07:56:48Z</time></trkpt><trkpt lat="42.03876903486758" lon="3.1331478831832564"><ele>7.999999999999999</ele><time>2026-04-22T07:56:50Z</time></trkpt><trkpt lat="42.03876421885057" lon="3.1329872471182245"><ele>8.0</ele><time>2026-04-22T07:56:52Z</time></trkpt><trkpt lat="42.038750463053944" lon="3.1328980382520863"><ele>8.0</ele><time>2026-04-22T07:56:53Z</time></trkpt><trkpt lat="42.03873648348611" lon="3.1328063577564254"><ele>8.0</ele><time>2026-04-22T07:56:54Z</time></trkpt><trkpt lat="42.03872541160046" lon="3.132714133223829"><ele>7.999999999999999</ele><time>2026-04-22T07:56:55Z</time></trkpt><trkpt lat="42.038715280630065" lon="3.1326167643213165"><ele>8.0</ele><time>2026-04-22T07:56:56Z</time></trkpt><trkpt lat="42.0387043226604" lon="3.1325179112692045"><ele>7.999999999999999</ele><time>2026-04-22T07:56:57Z</time></trkpt><trkpt lat="42.038690492864994" lon="3.132411931395422"><ele>8.0</ele><time>2026-04-22T07:56:58Z</time></trkpt><trkpt lat="42.03867715307563" lon="3.1323020590059905"><ele>8.0</ele><time>2026-04-22T07:56:59Z</time></trkpt><trkpt lat="42.03866392041097" lon="3.1321908806654783"><ele>8.0</ele><time>2026-04-22T07:57:00Z</time></trkpt><trkpt lat="42.03865133322581" lon="3.132082041274106"><ele>7.999999999999999</ele><time>2026-04-22T07:57:01Z</time></trkpt><trkpt lat="42.03863634488801" lon="3.1319714981237796"><ele>8.0</ele><time>2026-04-22T07:57:02Z</time></trkpt><trkpt lat="42.03862272174987" lon="3.131861657918983"><ele>8.166666666666666</ele><time>2026-04-22T07:57:03Z</time></trkpt><trkpt lat="42.03860735126012" lon="3.1317537295682016"><ele>8.333333333333332</ele><time>2026-04-22T07:57:04Z</time></trkpt><trkpt lat="42.0385938337027" lon="3.1316496059005385"><ele>8.5</ele><time>2026-04-22T07:57:05Z</time></trkpt><trkpt lat="42.0385833877276" lon="3.1315557546609885"><ele>8.666666666666666</ele><time>2026-04-22T07:57:06Z</time></trkpt><trkpt lat="42.038572858522826" lon="3.131471501123537"><ele>8.833333333333334</ele><time>2026-04-22T07:57:07Z</time></trkpt><trkpt lat="42.038580754277255" lon="3.131328660082162"><ele>9.0</ele><time>2026-04-22T07:57:09Z</time></trkpt><trkpt lat="42.03862987764619" lon="3.1312222879353517"><ele>9.4</ele><time>2026-04-22T07:57:11Z</time></trkpt><trkpt lat="42.038703202918825" lon="3.131141943679806"><ele>9.8</ele><time>2026-04-22T07:57:13Z</time></trkpt><trkpt lat="42.0387127300341" lon="3.1310294245076498"><ele>10.200000000000001</ele><time>2026-04-22T07:57:15Z</time></trkpt><trkpt lat="42.03865727407504" lon="3.1309108919799606"><ele>10.600000000000001</ele><time>2026-04-22T07:57:17Z</time></trkpt><trkpt lat="42.03856145387236" lon="3.130833879337102"><ele>11.0</ele><time>2026-04-22T07:57:19Z</time></trkpt><trkpt lat="42.03855291386512" lon="3.1307231980597914"><ele>11.0</ele><time>2026-04-22T07:57:20Z</time></trkpt><trkpt lat="42.03853069326694" lon="3.1305420712499"><ele>11.0</ele><time>2026-04-22T07:57:22Z</time></trkpt><trkpt lat="42.03852778491783" lon="3.1304557732608846"><ele>11.0</ele><time>2026-04-22T07:57:23Z</time></trkpt><trkpt lat="42.03852823115408" lon="3.130366688225726"><ele>11.0</ele><time>2026-04-22T07:57:24Z</time></trkpt><trkpt lat="42.03852737521433" lon="3.130278194728841"><ele>11.0</ele><time>2026-04-22T07:57:25Z</time></trkpt><trkpt lat="42.03852668627508" lon="3.1301921653307554"><ele>11.0</ele><time>2026-04-22T07:57:26Z</time></trkpt><trkpt lat="42.038524634833045" lon="3.1301021954411152"><ele>11.0</ele><time>2026-04-22T07:57:27Z</time></trkpt><trkpt lat="42.03852241557553" lon="3.130011213244809"><ele>11.0</ele><time>2026-04-22T07:57:28Z</time></trkpt><trkpt lat="42.03852122485994" lon="3.1299186171882076"><ele>11.0</ele><time>2026-04-22T07:57:29Z</time></trkpt><trkpt lat="42.038518596373805" lon="3.1298245535999984"><ele>11.0</ele><time>2026-04-22T07:57:30Z</time></trkpt><trkpt lat="42.03851684871786" lon="3.129730926148432"><ele>11.0</ele><time>2026-04-22T07:57:31Z</time></trkpt><trkpt lat="42.038514845184075" lon="3.129637746912251"><ele>11.0</ele><time>2026-04-22T07:57:32Z</time></trkpt><trkpt lat="42.03851306455507" lon="3.12954630329748"><ele>11.0</ele><time>2026-04-22T07:57:33Z</time></trkpt><trkpt lat="42.03851227870847" lon="3.129450954418291"><ele>11.0</ele><time>2026-04-22T07:57:34Z</time></trkpt><trkpt lat="42.038510740583426" lon="3.129357781779719"><ele>11.0</ele><time>2026-04-22T07:57:35Z</time></trkpt><trkpt lat="42.03850858260852" lon="3.1292629076282363"><ele>11.0</ele><time>2026-04-22T07:57:36Z</time></trkpt><trkpt lat="42.03850790466625" lon="3.1291718089757357"><ele>11.0</ele><time>2026-04-22T07:57:37Z</time></trkpt><trkpt lat="42.03850421084176" lon="3.129081035143288"><ele>11.0</ele><time>2026-04-22T07:57:38Z</time></trkpt><trkpt lat="42.0384992489671" lon="3.128990765004277"><ele>11.0</ele><time>2026-04-22T07:57:39Z</time></trkpt><trkpt lat="42.03849462161378" lon="3.128901371713903"><ele>11.0</ele><time>2026-04-22T07:57:40Z</time></trkpt><trkpt lat="42.0384892578674" lon="3.128816354197949"><ele>11.0</ele><time>2026-04-22T07:57:41Z</time></trkpt><trkpt lat="42.03847747326579" lon="3.1286472131085925"><ele>11.0</ele><time>2026-04-22T07:57:43Z</time></trkpt><trkpt lat="42.03846059788703" lon="3.1284885417534087"><ele>11.0</ele><time>2026-04-22T07:57:45Z</time></trkpt><trkpt lat="42.038447928898215" lon="3.1283522376548247"><ele>11.0</ele><time>2026-04-22T07:57:47Z</time></trkpt><trkpt lat="42.038437965143046" lon="3.128227567896434"><ele>11.0</ele><time>2026-04-22T07:57:49Z</time></trkpt><trkpt lat="42.03842987833584" lon="3.128139797176"><ele>11.166666666666666</ele><time>2026-04-22T07:57:51Z</time></trkpt><trkpt lat="42.03842543660392" lon="3.128043559955958"><ele>11.333333333333332</ele><time>2026-04-22T07:58:08Z</time></trkpt><trkpt lat="42.038427561157995" lon="3.127931236288131"><ele>11.5</ele><time>2026-04-22T07:58:11Z</time></trkpt><trkpt lat="42.038467125727394" lon="3.1278104761557874"><ele>11.666666666666666</ele><time>2026-04-22T07:58:14Z</time></trkpt><trkpt lat="42.03847952986863" lon="3.127707354983071"><ele>11.833333333333334</ele><time>2026-04-22T07:58:16Z</time></trkpt><trkpt lat="42.03843078475696" lon="3.1276367892139176"><ele>12.0</ele><time>2026-04-22T07:58:18Z</time></trkpt><trkpt lat="42.03834938595455" lon="3.1276217526081354"><ele>11.5</ele><time>2026-04-22T07:58:21Z</time></trkpt><trkpt lat="42.03828191217959" lon="3.1276515935530367"><ele>11.0</ele><time>2026-04-22T07:58:24Z</time></trkpt><trkpt lat="42.038214224515485" lon="3.12757763948033"><ele>10.5</ele><time>2026-04-22T07:58:25Z</time></trkpt><trkpt lat="42.038141554169634" lon="3.127520962134013"><ele>10.0</ele><time>2026-04-22T07:58:27Z</time></trkpt><trkpt lat="42.03806609622572" lon="3.127459887741933"><ele>9.5</ele><time>2026-04-22T07:58:29Z</time></trkpt><trkpt lat="42.0379737310306" lon="3.127395096542998"><ele>9.0</ele><time>2026-04-22T07:58:31Z</time></trkpt><trkpt lat="42.03790086504771" lon="3.127341215275936"><ele>9.0</ele><time>2026-04-22T07:58:33Z</time></trkpt><trkpt lat="42.03781987375262" lon="3.1272789308817406"><ele>9.0</ele><time>2026-04-22T07:58:35Z</time></trkpt><trkpt lat="42.037718842978826" lon="3.127194856856905"><ele>9.0</ele><time>2026-04-22T07:58:37Z</time></trkpt><trkpt lat="42.037657303604654" lon="3.1271511874612825"><ele>9.0</ele><time>2026-04-22T07:58:38Z</time></trkpt><trkpt lat="42.037587231920575" lon="3.1271020382140544"><ele>9.0</ele><time>2026-04-22T07:58:39Z</time></trkpt><trkpt lat="42.03751607909487" lon="3.1270514684066057"><ele>9.0</ele><time>2026-04-22T07:58:40Z</time></trkpt><trkpt lat="42.03744363843056" lon="3.127004716249759"><ele>9.0</ele><time>2026-04-22T07:58:41Z</time></trkpt><trkpt lat="42.037365550021875" lon="3.1269487126400444"><ele>9.0</ele><time>2026-04-22T07:58:42Z</time></trkpt><trkpt lat="42.03728447381" lon="3.1268896153573538"><ele>9.0</ele><time>2026-04-22T07:58:43Z</time></trkpt><trkpt lat="42.037197969283966" lon="3.1268279151326586"><ele>9.0</ele><time>2026-04-22T07:58:44Z</time></trkpt><trkpt lat="42.037110997634315" lon="3.126768877258555"><ele>9.0</ele><time>2026-04-22T07:58:45Z</time></trkpt><trkpt lat="42.03701861361943" lon="3.1267005242584163"><ele>9.0</ele><time>2026-04-22T07:58:46Z</time></trkpt><trkpt lat="42.03692491871954" lon="3.12663129071452"><ele>9.0</ele><time>2026-04-22T07:58:47Z</time></trkpt><trkpt lat="42.036830357593814" lon="3.1265598214680304"><ele>9.0</ele><time>2026-04-22T07:58:48Z</time></trkpt><trkpt lat="42.03673257045643" lon="3.126489317380514"><ele>9.0</ele><time>2026-04-22T07:58:49Z</time></trkpt><trkpt lat="42.03663149850043" lon="3.1264157676520288"><ele>9.0</ele><time>2026-04-22T07:58:50Z</time></trkpt><trkpt lat="42.036527560018634" lon="3.126340197478505"><ele>8.25</ele><time>2026-04-22T07:58:51Z</time></trkpt><trkpt lat="42.03642314659802" lon="3.1262652446687307"><ele>7.5</ele><time>2026-04-22T07:58:52Z</time></trkpt><trkpt lat="42.03631622591461" lon="3.126187815804418"><ele>6.75</ele><time>2026-04-22T07:58:53Z</time></trkpt><trkpt lat="42.03621285367771" lon="3.126114223956289"><ele>6.0</ele><time>2026-04-22T07:58:54Z</time></trkpt><trkpt lat="42.03610515194372" lon="3.1260365075515337"><ele>6.0</ele><time>2026-04-22T07:58:55Z</time></trkpt><trkpt lat="42.03599699728159" lon="3.125956616104567"><ele>6.0</ele><time>2026-04-22T07:58:56Z</time></trkpt><trkpt lat="42.03589091743515" lon="3.125879127033029"><ele>6.0</ele><time>2026-04-22T07:58:57Z</time></trkpt><trkpt lat="42.035786019882856" lon="3.1257994346069213"><ele>6.0</ele><time>2026-04-22T07:58:58Z</time></trkpt><trkpt lat="42.03568131054345" lon="3.1257215203309623"><ele>5.0</ele><time>2026-04-22T07:58:59Z</time></trkpt><trkpt lat="42.03558160741182" lon="3.125647512212224"><ele>4.0</ele><time>2026-04-22T07:59:00Z</time></trkpt><trkpt lat="42.03548196326382" lon="3.125571762111784"><ele>3.0</ele><time>2026-04-22T07:59:01Z</time></trkpt><trkpt lat="42.035380182773466" lon="3.125494129601121"><ele>2.0</ele><time>2026-04-22T07:59:02Z</time></trkpt><trkpt lat="42.03528063437379" lon="3.1254219640190835"><ele>2.0</ele><time>2026-04-22T07:59:03Z</time></trkpt><trkpt lat="42.035182309365126" lon="3.1253526488614223"><ele>2.0</ele><time>2026-04-22T07:59:04Z</time></trkpt><trkpt lat="42.03508147488345" lon="3.125277141489549"><ele>2.0</ele><time>2026-04-22T07:59:05Z</time></trkpt><trkpt lat="42.03497807823244" lon="3.12520367618833"><ele>2.0</ele><time>2026-04-22T07:59:06Z</time></trkpt><trkpt lat="42.03488261557638" lon="3.1251170895932816"><ele>3.0</ele><time>2026-04-22T07:59:07Z</time></trkpt><trkpt lat="42.03478440820015" lon="3.1250444456057926"><ele>4.0</ele><time>2026-04-22T07:59:08Z</time></trkpt><trkpt lat="42.03469175814036" lon="3.1249780466217896"><ele>4.999999999999999</ele><time>2026-04-22T07:59:09Z</time></trkpt><trkpt lat="42.034603987754586" lon="3.1249131634783587"><ele>6.0</ele><time>2026-04-22T07:59:10Z</time></trkpt><trkpt lat="42.03451812764879" lon="3.1248513967313833"><ele>7.0</ele><time>2026-04-22T07:59:11Z</time></trkpt><trkpt lat="42.03443219724499" lon="3.124796163690702"><ele>7.000000000000001</ele><time>2026-04-22T07:59:12Z</time></trkpt><trkpt lat="42.03434565941283" lon="3.124748865933813"><ele>7.0</ele><time>2026-04-22T07:59:13Z</time></trkpt><trkpt lat="42.03426042366844" lon="3.1247116380022333"><ele>7.0</ele><time>2026-04-22T07:59:14Z</time></trkpt><trkpt lat="42.034185501427054" lon="3.124682083914864"><ele>7.0</ele><time>2026-04-22T07:59:15Z</time></trkpt><trkpt lat="42.03411567722854" lon="3.124653059072814"><ele>7.000000000000001</ele><time>2026-04-22T07:59:16Z</time></trkpt><trkpt lat="42.034053382565475" lon="3.1246223961907686"><ele>7.0</ele><time>2026-04-22T07:59:17Z</time></trkpt><trkpt lat="42.03395458476573" lon="3.1245188677516924"><ele>7.142857142857142</ele><time>2026-04-22T07:59:19Z</time></trkpt><trkpt lat="42.03391500175867" lon="3.124444759941692"><ele>7.285714285714286</ele><time>2026-04-22T07:59:20Z</time></trkpt><trkpt lat="42.033866213263565" lon="3.124373795974169"><ele>7.428571428571429</ele><time>2026-04-22T07:59:21Z</time></trkpt><trkpt lat="42.033806542565536" lon="3.1243221319747057"><ele>7.571428571428571</ele><time>2026-04-22T07:59:22Z</time></trkpt><trkpt lat="42.03373628558039" lon="3.1242972415150314"><ele>7.7142857142857135</ele><time>2026-04-22T07:59:23Z</time></trkpt><trkpt lat="42.03366056061275" lon="3.1242974651560647"><ele>7.857142857142857</ele><time>2026-04-22T07:59:24Z</time></trkpt><trkpt lat="42.033589069935296" lon="3.1243358912490424"><ele>8.0</ele><time>2026-04-22T07:59:25Z</time></trkpt><trkpt lat="42.03352291471591" lon="3.12440139960128"><ele>8.0</ele><time>2026-04-22T07:59:26Z</time></trkpt><trkpt lat="42.03345768986094" lon="3.124473842941823"><ele>8.0</ele><time>2026-04-22T07:59:27Z</time></trkpt><trkpt lat="42.03339660782885" lon="3.124546830539077"><ele>8.0</ele><time>2026-04-22T07:59:28Z</time></trkpt><trkpt lat="42.03329403946116" lon="3.1245645714208483"><ele>8.0</ele><time>2026-04-22T07:59:29Z</time></trkpt><trkpt lat="42.033197467419335" lon="3.1245834581084733"><ele>8.0</ele><time>2026-04-22T07:59:30Z</time></trkpt><trkpt lat="42.03309110314923" lon="3.1246071269360023"><ele>7.75</ele><time>2026-04-22T07:59:31Z</time></trkpt><trkpt lat="42.032971979953075" lon="3.1246419979988214"><ele>7.5</ele><time>2026-04-22T07:59:32Z</time></trkpt><trkpt lat="42.03284485899171" lon="3.124691612759243"><ele>7.25</ele><time>2026-04-22T07:59:33Z</time></trkpt><trkpt lat="42.032723730759905" lon="3.1247497085336797"><ele>7.0</ele><time>2026-04-22T07:59:34Z</time></trkpt><trkpt lat="42.032602091339434" lon="3.1248186264203817"><ele>6.5</ele><time>2026-04-22T07:59:35Z</time></trkpt><trkpt lat="42.03248110418197" lon="3.124899501955403"><ele>6.0</ele><time>2026-04-22T07:59:36Z</time></trkpt><trkpt lat="42.03236047067603" lon="3.124990360390455"><ele>5.5</ele><time>2026-04-22T07:59:37Z</time></trkpt><trkpt lat="42.032240806170094" lon="3.125092699219834"><ele>5.0</ele><time>2026-04-22T07:59:38Z</time></trkpt><trkpt lat="42.032123867503586" lon="3.1252059847157874"><ele>5.0</ele><time>2026-04-22T07:59:39Z</time></trkpt><trkpt lat="42.03201113797984" lon="3.1253287796916105"><ele>5.0</ele><time>2026-04-22T07:59:40Z</time></trkpt><trkpt lat="42.03190049455622" lon="3.1254578151987373"><ele>5.0</ele><time>2026-04-22T07:59:41Z</time></trkpt><trkpt lat="42.03178936055148" lon="3.12559161779898"><ele>5.0</ele><time>2026-04-22T07:59:42Z</time></trkpt><trkpt lat="42.03167921751924" lon="3.1257240808218336"><ele>4.666666666666667</ele><time>2026-04-22T07:59:43Z</time></trkpt><trkpt lat="42.03156762811962" lon="3.1258590805482545"><ele>4.333333333333333</ele><time>2026-04-22T07:59:44Z</time></trkpt><trkpt lat="42.03145398400194" lon="3.125995572059746"><ele>4.0</ele><time>2026-04-22T07:59:45Z</time></trkpt><trkpt lat="42.031338729386924" lon="3.126130143229936"><ele>4.0</ele><time>2026-04-22T07:59:46Z</time></trkpt><trkpt lat="42.03122078267735" lon="3.1262662100626133"><ele>4.0</ele><time>2026-04-22T07:59:47Z</time></trkpt><trkpt lat="42.03110203269771" lon="3.1264014861793137"><ele>4.0</ele><time>2026-04-22T07:59:48Z</time></trkpt><trkpt lat="42.03098413097518" lon="3.1265383026955273"><ele>4.0</ele><time>2026-04-22T07:59:49Z</time></trkpt><trkpt lat="42.03086758885733" lon="3.126674807452805"><ele>4.0</ele><time>2026-04-22T07:59:50Z</time></trkpt><trkpt lat="42.0307551426929" lon="3.1268124314006367"><ele>4.0</ele><time>2026-04-22T07:59:51Z</time></trkpt><trkpt lat="42.03064509076747" lon="3.126949653903006"><ele>4.0</ele><time>2026-04-22T07:59:52Z</time></trkpt><trkpt lat="42.0305373275441" lon="3.1270863920915764"><ele>4.0</ele><time>2026-04-22T07:59:53Z</time></trkpt><trkpt lat="42.03042772857766" lon="3.1272254893444558"><ele>4.0</ele><time>2026-04-22T07:59:54Z</time></trkpt><trkpt lat="42.03031818672008" lon="3.1273645100418097"><ele>4.0</ele><time>2026-04-22T07:59:55Z</time></trkpt><trkpt lat="42.030206165218516" lon="3.1275051022892475"><ele>4.333333333333333</ele><time>2026-04-22T07:59:56Z</time></trkpt><trkpt lat="42.03009509455759" lon="3.1276493828441807"><ele>4.666666666666667</ele><time>2026-04-22T07:59:57Z</time></trkpt><trkpt lat="42.02998525672866" lon="3.1277958279194307"><ele>5.0</ele><time>2026-04-22T07:59:58Z</time></trkpt><trkpt lat="42.02987472061106" lon="3.12794205500052"><ele>5.666666666666667</ele><time>2026-04-22T07:59:59Z</time></trkpt><trkpt lat="42.02976168876087" lon="3.1280864330807736"><ele>6.333333333333334</ele><time>2026-04-22T08:00:00Z</time></trkpt><trkpt lat="42.02964670933696" lon="3.128233983825089"><ele>7.0</ele><time>2026-04-22T08:00:01Z</time></trkpt><trkpt lat="42.02952793809413" lon="3.12838209303216"><ele>7.333333333333334</ele><time>2026-04-22T08:00:02Z</time></trkpt><trkpt lat="42.02940840893288" lon="3.1285285628778663"><ele>7.666666666666666</ele><time>2026-04-22T08:00:03Z</time></trkpt><trkpt lat="42.02928850040947" lon="3.1286814019513893"><ele>8.0</ele><time>2026-04-22T08:00:04Z</time></trkpt><trkpt lat="42.02916490424915" lon="3.1288324014993667"><ele>7.666666666666666</ele><time>2026-04-22T08:00:05Z</time></trkpt><trkpt lat="42.02904447786571" lon="3.128983236948889"><ele>7.333333333333334</ele><time>2026-04-22T08:00:06Z</time></trkpt><trkpt lat="42.028920862992635" lon="3.1291375979575067"><ele>7.0</ele><time>2026-04-22T08:00:07Z</time></trkpt><trkpt lat="42.02879584212583" lon="3.1292931148937213"><ele>7.0</ele><time>2026-04-22T08:00:08Z</time></trkpt><trkpt lat="42.0286663434404" lon="3.1294513648723563"><ele>7.0</ele><time>2026-04-22T08:00:09Z</time></trkpt><trkpt lat="42.0285373313602" lon="3.1296100189827976"><ele>7.0</ele><time>2026-04-22T08:00:10Z</time></trkpt><trkpt lat="42.02840897450997" lon="3.129768939700135"><ele>6.666666666666667</ele><time>2026-04-22T08:00:11Z</time></trkpt><trkpt lat="42.02828068332655" lon="3.1299282242619717"><ele>6.333333333333334</ele><time>2026-04-22T08:00:12Z</time></trkpt><trkpt lat="42.028152255974405" lon="3.130087620206735"><ele>6.0</ele><time>2026-04-22T08:00:13Z</time></trkpt><trkpt lat="42.0280206741445" lon="3.1302419011915026"><ele>6.0</ele><time>2026-04-22T08:00:14Z</time></trkpt><trkpt lat="42.027891237738594" lon="3.1304004993370684"><ele>6.0</ele><time>2026-04-22T08:00:15Z</time></trkpt><trkpt lat="42.02776194238694" lon="3.1305597320334972"><ele>6.0</ele><time>2026-04-22T08:00:16Z</time></trkpt><trkpt lat="42.02763425305132" lon="3.1307207552512586"><ele>5.666666666666667</ele><time>2026-04-22T08:00:17Z</time></trkpt><trkpt lat="42.027503957332286" lon="3.1308818634676614"><ele>5.333333333333334</ele><time>2026-04-22T08:00:18Z</time></trkpt><trkpt lat="42.02737473620216" lon="3.131041502668774"><ele>5.0</ele><time>2026-04-22T08:00:19Z</time></trkpt><trkpt lat="42.027245074092995" lon="3.1312014174632004"><ele>5.0</ele><time>2026-04-22T08:00:20Z</time></trkpt><trkpt lat="42.02711586865639" lon="3.131361427715822"><ele>5.0</ele><time>2026-04-22T08:00:21Z</time></trkpt><trkpt lat="42.02698736095594" lon="3.1315232443236836"><ele>5.0</ele><time>2026-04-22T08:00:22Z</time></trkpt><trkpt lat="42.026858261157116" lon="3.131683821271138"><ele>5.666666666666667</ele><time>2026-04-22T08:00:23Z</time></trkpt><trkpt lat="42.02673050928973" lon="3.131845340240041"><ele>6.333333333333334</ele><time>2026-04-22T08:00:24Z</time></trkpt><trkpt lat="42.02660349612105" lon="3.132006397469932"><ele>7.0</ele><time>2026-04-22T08:00:25Z</time></trkpt><trkpt lat="42.02647338785434" lon="3.1321665024943894"><ele>8.333333333333334</ele><time>2026-04-22T08:00:26Z</time></trkpt><trkpt lat="42.026342883396985" lon="3.1323277226928186"><ele>9.666666666666666</ele><time>2026-04-22T08:00:27Z</time></trkpt><trkpt lat="42.026214193070544" lon="3.1324889479365923"><ele>11.0</ele><time>2026-04-22T08:00:28Z</time></trkpt><trkpt lat="42.02608666452895" lon="3.1326499574627475"><ele>11.0</ele><time>2026-04-22T08:00:29Z</time></trkpt><trkpt lat="42.0259563372743" lon="3.132809844463632"><ele>11.0</ele><time>2026-04-22T08:00:30Z</time></trkpt><trkpt lat="42.02582730221512" lon="3.1329683663319075"><ele>11.0</ele><time>2026-04-22T08:00:31Z</time></trkpt><trkpt lat="42.02569827604901" lon="3.133127385833182"><ele>11.333333333333332</ele><time>2026-04-22T08:00:32Z</time></trkpt><trkpt lat="42.025568182616475" lon="3.133290448833844"><ele>11.666666666666666</ele><time>2026-04-22T08:00:33Z</time></trkpt><trkpt lat="42.025437780987616" lon="3.133449309506527"><ele>12.0</ele><time>2026-04-22T08:00:34Z</time></trkpt><trkpt lat="42.02530682229971" lon="3.133609340015329"><ele>12.0</ele><time>2026-04-22T08:00:35Z</time></trkpt><trkpt lat="42.02517568372165" lon="3.133772076788134"><ele>12.0</ele><time>2026-04-22T08:00:36Z</time></trkpt><trkpt lat="42.025041541827996" lon="3.133937033490591"><ele>12.0</ele><time>2026-04-22T08:00:37Z</time></trkpt><trkpt lat="42.02490855916108" lon="3.134100773502362"><ele>12.333333333333332</ele><time>2026-04-22T08:00:38Z</time></trkpt><trkpt lat="42.02477740876744" lon="3.134269438934597"><ele>12.666666666666666</ele><time>2026-04-22T08:00:39Z</time></trkpt><trkpt lat="42.024645438026404" lon="3.1344380104099168"><ele>13.0</ele><time>2026-04-22T08:00:40Z</time></trkpt><trkpt lat="42.024511409461155" lon="3.134603832274633"><ele>13.0</ele><time>2026-04-22T08:00:41Z</time></trkpt><trkpt lat="42.02437649674417" lon="3.1347712863208854"><ele>13.0</ele><time>2026-04-22T08:00:42Z</time></trkpt><trkpt lat="42.02424055961212" lon="3.134937207144248"><ele>13.0</ele><time>2026-04-22T08:00:43Z</time></trkpt><trkpt lat="42.024101227998734" lon="3.135105678402376"><ele>14.0</ele><time>2026-04-22T08:00:44Z</time></trkpt><trkpt lat="42.02396259411521" lon="3.1352777672714214"><ele>15.0</ele><time>2026-04-22T08:00:45Z</time></trkpt><trkpt lat="42.023827131060166" lon="3.135448802424725"><ele>16.0</ele><time>2026-04-22T08:00:46Z</time></trkpt><trkpt lat="42.02369103762941" lon="3.1356282231939625"><ele>15.0</ele><time>2026-04-22T08:00:47Z</time></trkpt><trkpt lat="42.023549341730444" lon="3.135799100384479"><ele>14.0</ele><time>2026-04-22T08:00:48Z</time></trkpt><trkpt lat="42.02340872358326" lon="3.135969924235106"><ele>13.0</ele><time>2026-04-22T08:00:49Z</time></trkpt><trkpt lat="42.02326555927469" lon="3.1361432916678442"><ele>13.0</ele><time>2026-04-22T08:00:50Z</time></trkpt><trkpt lat="42.023125706193646" lon="3.1363131294384154"><ele>13.0</ele><time>2026-04-22T08:00:51Z</time></trkpt><trkpt lat="42.02298434794214" lon="3.1364849878603698"><ele>13.0</ele><time>2026-04-22T08:00:52Z</time></trkpt><trkpt lat="42.022847719063385" lon="3.1366565752972266"><ele>12.666666666666666</ele><time>2026-04-22T08:00:53Z</time></trkpt><trkpt lat="42.02271497092995" lon="3.136826614212691"><ele>12.333333333333332</ele><time>2026-04-22T08:00:54Z</time></trkpt><trkpt lat="42.02258239899564" lon="3.1369939372101134"><ele>12.0</ele><time>2026-04-22T08:00:55Z</time></trkpt><trkpt lat="42.02244796642694" lon="3.1371583373088465"><ele>12.0</ele><time>2026-04-22T08:00:56Z</time></trkpt><trkpt lat="42.02231702756515" lon="3.137327210075462"><ele>12.0</ele><time>2026-04-22T08:00:57Z</time></trkpt><trkpt lat="42.02218063369558" lon="3.137494942645774"><ele>12.0</ele><time>2026-04-22T08:00:58Z</time></trkpt><trkpt lat="42.022057143678026" lon="3.1376411544662215"><ele>12.0</ele><time>2026-04-22T08:00:59Z</time></trkpt><trkpt lat="42.02192336320906" lon="3.1378362185672537"><ele>12.0</ele><time>2026-04-22T08:01:00Z</time></trkpt><trkpt lat="42.021781837055904" lon="3.138000544905581"><ele>12.0</ele><time>2026-04-22T08:01:01Z</time></trkpt><trkpt lat="42.021645317776006" lon="3.1381682208569686"><ele>12.0</ele><time>2026-04-22T08:01:02Z</time></trkpt><trkpt lat="42.0214994170943" lon="3.1383411100033447"><ele>12.0</ele><time>2026-04-22T08:01:03Z</time></trkpt><trkpt lat="42.02136048250368" lon="3.138511479640547"><ele>12.0</ele><time>2026-04-22T08:01:04Z</time></trkpt><trkpt lat="42.02122169769315" lon="3.1386807871912157"><ele>12.0</ele><time>2026-04-22T08:01:05Z</time></trkpt><trkpt lat="42.021081888411466" lon="3.138855797080771"><ele>12.0</ele><time>2026-04-22T08:01:06Z</time></trkpt><trkpt lat="42.02094255928286" lon="3.139033091145285"><ele>12.0</ele><time>2026-04-22T08:01:07Z</time></trkpt><trkpt lat="42.020801413436146" lon="3.1392006279751414"><ele>12.0</ele><time>2026-04-22T08:01:08Z</time></trkpt><trkpt lat="42.02066000225989" lon="3.1393682000894274"><ele>12.0</ele><time>2026-04-22T08:01:09Z</time></trkpt><trkpt lat="42.02050869902197" lon="3.139541143388272"><ele>12.0</ele><time>2026-04-22T08:01:10Z</time></trkpt><trkpt lat="42.02037816798389" lon="3.1397045461954614"><ele>12.0</ele><time>2026-04-22T08:01:11Z</time></trkpt><trkpt lat="42.020241416196455" lon="3.139866051956873"><ele>12.0</ele><time>2026-04-22T08:01:12Z</time></trkpt><trkpt lat="42.02010412748716" lon="3.1400276214589673"><ele>12.0</ele><time>2026-04-22T08:01:13Z</time></trkpt><trkpt lat="42.01996518397111" lon="3.140187431222854"><ele>10.0</ele><time>2026-04-22T08:01:14Z</time></trkpt><trkpt lat="42.01983355292658" lon="3.1403511187306394"><ele>8.0</ele><time>2026-04-22T08:01:15Z</time></trkpt><trkpt lat="42.01970548478086" lon="3.140504246648487"><ele>6.0</ele><time>2026-04-22T08:01:16Z</time></trkpt><trkpt lat="42.01957974778259" lon="3.1406526461178275"><ele>5.333333333333333</ele><time>2026-04-22T08:01:17Z</time></trkpt><trkpt lat="42.01945718654584" lon="3.140798014631963"><ele>4.666666666666666</ele><time>2026-04-22T08:01:18Z</time></trkpt><trkpt lat="42.01933006914259" lon="3.14093732959601"><ele>4.0</ele><time>2026-04-22T08:01:19Z</time></trkpt><trkpt lat="42.01919669360319" lon="3.1410726848290706"><ele>3.6666666666666665</ele><time>2026-04-22T08:01:20Z</time></trkpt><trkpt lat="42.01905579241359" lon="3.1412002945848383"><ele>3.333333333333333</ele><time>2026-04-22T08:01:21Z</time></trkpt><trkpt lat="42.01890731779039" lon="3.1413180845954085"><ele>3.0</ele><time>2026-04-22T08:01:22Z</time></trkpt><trkpt lat="42.01875270992054" lon="3.141425666248228"><ele>3.0</ele><time>2026-04-22T08:01:23Z</time></trkpt><trkpt lat="42.01859305704949" lon="3.141519782798022"><ele>3.0</ele><time>2026-04-22T08:01:24Z</time></trkpt><trkpt lat="42.018428096471936" lon="3.1416011817293485"><ele>3.0</ele><time>2026-04-22T08:01:25Z</time></trkpt><trkpt lat="42.01825923473256" lon="3.1416734180487027"><ele>3.0</ele><time>2026-04-22T08:01:26Z</time></trkpt><trkpt lat="42.01808954189833" lon="3.1417363380336805"><ele>3.0</ele><time>2026-04-22T08:01:27Z</time></trkpt><trkpt lat="42.01791973149693" lon="3.1417931613722248"><ele>3.0</ele><time>2026-04-22T08:01:28Z</time></trkpt><trkpt lat="42.01774992032693" lon="3.141851612599911"><ele>3.0</ele><time>2026-04-22T08:01:29Z</time></trkpt><trkpt lat="42.0175778809149" lon="3.1419093285080653"><ele>3.0</ele><time>2026-04-22T08:01:30Z</time></trkpt><trkpt lat="42.017405031079136" lon="3.1419665789429985"><ele>3.0</ele><time>2026-04-22T08:01:31Z</time></trkpt><trkpt lat="42.017234356174725" lon="3.1420213671918718"><ele>2.6666666666666665</ele><time>2026-04-22T08:01:32Z</time></trkpt><trkpt lat="42.017060860890304" lon="3.142080643114115"><ele>2.333333333333333</ele><time>2026-04-22T08:01:33Z</time></trkpt><trkpt lat="42.01687831906396" lon="3.1421344437005936"><ele>2.0</ele><time>2026-04-22T08:01:34Z</time></trkpt><trkpt lat="42.01670610334083" lon="3.14219359044169"><ele>1.0</ele><time>2026-04-22T08:01:35Z</time></trkpt><trkpt lat="42.01653304792278" lon="3.1422527825565343"><ele>0.0</ele><time>2026-04-22T08:01:36Z</time></trkpt><trkpt lat="42.01635977718426" lon="3.1423107346802377"><ele>-1.0</ele><time>2026-04-22T08:01:37Z</time></trkpt><trkpt lat="42.01618855205215" lon="3.142370220159443"><ele>-0.3333333333333333</ele><time>2026-04-22T08:01:38Z</time></trkpt><trkpt lat="42.016017519411264" lon="3.142430472877533"><ele>0.3333333333333333</ele><time>2026-04-22T08:01:39Z</time></trkpt><trkpt lat="42.015846865016364" lon="3.142496930562354"><ele>1.0</ele><time>2026-04-22T08:01:40Z</time></trkpt><trkpt lat="42.01567659289493" lon="3.142564189554064"><ele>1.0</ele><time>2026-04-22T08:01:41Z</time></trkpt><trkpt lat="42.01550591305898" lon="3.1426286687123146"><ele>1.0</ele><time>2026-04-22T08:01:42Z</time></trkpt><trkpt lat="42.015335703450006" lon="3.142693814123807"><ele>1.0</ele><time>2026-04-22T08:01:43Z</time></trkpt><trkpt lat="42.0151647853498" lon="3.142757717905171"><ele>1.0</ele><time>2026-04-22T08:01:44Z</time></trkpt><trkpt lat="42.01499415464048" lon="3.1428202581999267"><ele>1.0</ele><time>2026-04-22T08:01:45Z</time></trkpt><trkpt lat="42.014823990756604" lon="3.1428775228229906"><ele>1.0</ele><time>2026-04-22T08:01:46Z</time></trkpt><trkpt lat="42.01465364911501" lon="3.1429335882190204"><ele>1.0</ele><time>2026-04-22T08:01:47Z</time></trkpt><trkpt lat="42.01448368559999" lon="3.1429893814586762"><ele>1.0</ele><time>2026-04-22T08:01:48Z</time></trkpt><trkpt lat="42.0143135822189" lon="3.1430443621900164"><ele>1.0</ele><time>2026-04-22T08:01:49Z</time></trkpt><trkpt lat="42.0141434995593" lon="3.143097808252839"><ele>1.0</ele><time>2026-04-22T08:01:50Z</time></trkpt><trkpt lat="42.013971685264714" lon="3.143152994144881"><ele>1.0</ele><time>2026-04-22T08:01:51Z</time></trkpt><trkpt lat="42.01380228058492" lon="3.143210991598963"><ele>1.0</ele><time>2026-04-22T08:01:52Z</time></trkpt><trkpt lat="42.01363337562882" lon="3.1432673968335036"><ele>1.3333333333333333</ele><time>2026-04-22T08:01:53Z</time></trkpt><trkpt lat="42.0134633224259" lon="3.1433233267430056"><ele>1.6666666666666665</ele><time>2026-04-22T08:01:54Z</time></trkpt><trkpt lat="42.01329063593336" lon="3.1433781005604406"><ele>2.0</ele><time>2026-04-22T08:01:55Z</time></trkpt><trkpt lat="42.01311814465464" lon="3.143433055973535"><ele>2.0</ele><time>2026-04-22T08:01:56Z</time></trkpt><trkpt lat="42.01294801127388" lon="3.143490434090248"><ele>2.0</ele><time>2026-04-22T08:01:57Z</time></trkpt><trkpt lat="42.012776255893314" lon="3.1435535644021053"><ele>2.0</ele><time>2026-04-22T08:01:58Z</time></trkpt><trkpt lat="42.012602449036095" lon="3.1436139175730085"><ele>2.0</ele><time>2026-04-22T08:01:59Z</time></trkpt><trkpt lat="42.01242745934135" lon="3.1436730873021506"><ele>2.0</ele><time>2026-04-22T08:02:00Z</time></trkpt><trkpt lat="42.012252875838335" lon="3.1437323393517507"><ele>2.0</ele><time>2026-04-22T08:02:01Z</time></trkpt><trkpt lat="42.01207598202793" lon="3.143789827118785"><ele>2.0</ele><time>2026-04-22T08:02:02Z</time></trkpt><trkpt lat="42.01190035989822" lon="3.1438504804518375"><ele>2.0</ele><time>2026-04-22T08:02:03Z</time></trkpt><trkpt lat="42.01172181320748" lon="3.1439075977514666"><ele>2.0</ele><time>2026-04-22T08:02:04Z</time></trkpt><trkpt lat="42.01154461898474" lon="3.143964529174726"><ele>1.6666666666666665</ele><time>2026-04-22T08:02:05Z</time></trkpt><trkpt lat="42.011364572879266" lon="3.144022642852367"><ele>1.3333333333333333</ele><time>2026-04-22T08:02:06Z</time></trkpt><trkpt lat="42.01118432309056" lon="3.144082013792791"><ele>1.0</ele><time>2026-04-22T08:02:07Z</time></trkpt><trkpt lat="42.01100342998135" lon="3.144142594961904"><ele>1.0</ele><time>2026-04-22T08:02:08Z</time></trkpt><trkpt lat="42.01081987981646" lon="3.1442062178083847"><ele>1.0</ele><time>2026-04-22T08:02:09Z</time></trkpt><trkpt lat="42.01063604486383" lon="3.144264708086608"><ele>1.0</ele><time>2026-04-22T08:02:10Z</time></trkpt><trkpt lat="42.010454732855635" lon="3.14432584886113"><ele>1.0</ele><time>2026-04-22T08:02:11Z</time></trkpt><trkpt lat="42.01027480976421" lon="3.1443887689049554"><ele>1.0</ele><time>2026-04-22T08:02:12Z</time></trkpt><trkpt lat="42.01008942901377" lon="3.1444516716214554"><ele>1.0</ele><time>2026-04-22T08:02:13Z</time></trkpt><trkpt lat="42.009901685801715" lon="3.1445091467600745"><ele>0.6666666666666666</ele><time>2026-04-22T08:02:14Z</time></trkpt><trkpt lat="42.009717840095334" lon="3.1445746196474222"><ele>0.3333333333333333</ele><time>2026-04-22T08:02:15Z</time></trkpt><trkpt lat="42.00953262687696" lon="3.144636669634774"><ele>0.0</ele><time>2026-04-22T08:02:16Z</time></trkpt><trkpt lat="42.009347585333906" lon="3.1446983733097267"><ele>0.0</ele><time>2026-04-22T08:02:17Z</time></trkpt><trkpt lat="42.00915940073545" lon="3.1447586363295605"><ele>0.0</ele><time>2026-04-22T08:02:18Z</time></trkpt><trkpt lat="42.00897340981314" lon="3.144820059790684"><ele>0.0</ele><time>2026-04-22T08:02:19Z</time></trkpt><trkpt lat="42.00878776006836" lon="3.144882265397237"><ele>0.3333333333333333</ele><time>2026-04-22T08:02:20Z</time></trkpt><trkpt lat="42.0086021791411" lon="3.144944423124118"><ele>0.6666666666666666</ele><time>2026-04-22T08:02:21Z</time></trkpt><trkpt lat="42.008415497727604" lon="3.145007167841739"><ele>1.0</ele><time>2026-04-22T08:02:22Z</time></trkpt><trkpt lat="42.00822882480058" lon="3.1450691770753907"><ele>1.0</ele><time>2026-04-22T08:02:23Z</time></trkpt><trkpt lat="42.00804190538754" lon="3.145132786773995"><ele>1.0</ele><time>2026-04-22T08:02:24Z</time></trkpt><trkpt lat="42.00785681800177" lon="3.1451945208786976"><ele>1.0</ele><time>2026-04-22T08:02:25Z</time></trkpt><trkpt lat="42.0076724105507" lon="3.1452538349244423"><ele>1.0</ele><time>2026-04-22T08:02:26Z</time></trkpt><trkpt lat="42.0074886305979" lon="3.145314759187314"><ele>1.0</ele><time>2026-04-22T08:02:27Z</time></trkpt><trkpt lat="42.00730428742861" lon="3.1453765040997346"><ele>1.0</ele><time>2026-04-22T08:02:28Z</time></trkpt><trkpt lat="42.00712239112118" lon="3.145438489472855"><ele>1.0</ele><time>2026-04-22T08:02:29Z</time></trkpt><trkpt lat="42.00693622812081" lon="3.1454981997382863"><ele>1.0</ele><time>2026-04-22T08:02:30Z</time></trkpt><trkpt lat="42.00675121078999" lon="3.1455606758263137"><ele>1.0</ele><time>2026-04-22T08:02:31Z</time></trkpt><trkpt lat="42.006569420727985" lon="3.1456217911484727"><ele>0.6666666666666666</ele><time>2026-04-22T08:02:32Z</time></trkpt><trkpt lat="42.006388205475396" lon="3.14568341533692"><ele>0.3333333333333333</ele><time>2026-04-22T08:02:33Z</time></trkpt><trkpt lat="42.006204352581996" lon="3.145744369899528"><ele>0.0</ele><time>2026-04-22T08:02:34Z</time></trkpt><trkpt lat="42.00602154436736" lon="3.145805230119932"><ele>0.0</ele><time>2026-04-22T08:02:35Z</time></trkpt><trkpt lat="42.0058389346893" lon="3.1458669317985173"><ele>0.0</ele><time>2026-04-22T08:02:36Z</time></trkpt><trkpt lat="42.00565625686287" lon="3.1459276657723896"><ele>0.0</ele><time>2026-04-22T08:02:37Z</time></trkpt><trkpt lat="42.00547236674468" lon="3.14598988022735"><ele>0.0</ele><time>2026-04-22T08:02:38Z</time></trkpt><trkpt lat="42.00528792259643" lon="3.146051702843069"><ele>0.0</ele><time>2026-04-22T08:02:39Z</time></trkpt><trkpt lat="42.00510518412255" lon="3.146114513299924"><ele>0.0</ele><time>2026-04-22T08:02:40Z</time></trkpt><trkpt lat="42.00492074760566" lon="3.1461781298506715"><ele>0.0</ele><time>2026-04-22T08:02:41Z</time></trkpt><trkpt lat="42.00473673367064" lon="3.146241203695068"><ele>0.0</ele><time>2026-04-22T08:02:42Z</time></trkpt><trkpt lat="42.004552517886495" lon="3.1463036769638113"><ele>0.0</ele><time>2026-04-22T08:02:43Z</time></trkpt><trkpt lat="42.00437098951758" lon="3.146365592926956"><ele>0.0</ele><time>2026-04-22T08:02:44Z</time></trkpt><trkpt lat="42.00418767920528" lon="3.146425907036003"><ele>0.0</ele><time>2026-04-22T08:02:45Z</time></trkpt><trkpt lat="42.004001032541126" lon="3.1464842320104576"><ele>0.0</ele><time>2026-04-22T08:02:46Z</time></trkpt><trkpt lat="42.00381640958914" lon="3.1465428963600424"><ele>0.6666666666666666</ele><time>2026-04-22T08:02:47Z</time></trkpt><trkpt lat="42.0036321840376" lon="3.1466036963959483"><ele>1.3333333333333333</ele><time>2026-04-22T08:02:48Z</time></trkpt><trkpt lat="42.003447402056246" lon="3.146659280477929"><ele>2.0</ele><time>2026-04-22T08:02:49Z</time></trkpt><trkpt lat="42.00326206183516" lon="3.1467151150077"><ele>2.0</ele><time>2026-04-22T08:02:50Z</time></trkpt><trkpt lat="42.003077701393195" lon="3.146771356149984"><ele>2.0</ele><time>2026-04-22T08:02:51Z</time></trkpt><trkpt lat="42.002894045542156" lon="3.146827773524224"><ele>2.0</ele><time>2026-04-22T08:02:52Z</time></trkpt><trkpt lat="42.00271101439724" lon="3.146881412895392"><ele>2.0</ele><time>2026-04-22T08:02:53Z</time></trkpt><trkpt lat="42.00252747581564" lon="3.1469372132484055"><ele>2.0</ele><time>2026-04-22T08:02:54Z</time></trkpt><trkpt lat="42.002345772382014" lon="3.1469955402361074"><ele>2.0</ele><time>2026-04-22T08:02:55Z</time></trkpt><trkpt lat="42.00216446253519" lon="3.147057099591459"><ele>3.0</ele><time>2026-04-22T08:02:56Z</time></trkpt><trkpt lat="42.00198273464392" lon="3.147118769076495"><ele>4.0</ele><time>2026-04-22T08:02:57Z</time></trkpt><trkpt lat="42.00179860389499" lon="3.1471827212713843"><ele>5.0</ele><time>2026-04-22T08:02:58Z</time></trkpt><trkpt lat="42.00161490667895" lon="3.1472454547512014"><ele>5.333333333333334</ele><time>2026-04-22T08:02:59Z</time></trkpt><trkpt lat="42.001430249004244" lon="3.147309337234238"><ele>5.666666666666667</ele><time>2026-04-22T08:03:00Z</time></trkpt><trkpt lat="42.00124612291457" lon="3.147373480360312"><ele>6.0</ele><time>2026-04-22T08:03:01Z</time></trkpt><trkpt lat="42.00106150535626" lon="3.147440446464205"><ele>5.666666666666667</ele><time>2026-04-22T08:03:02Z</time></trkpt><trkpt lat="42.00087644735252" lon="3.1475054020412547"><ele>5.333333333333334</ele><time>2026-04-22T08:03:03Z</time></trkpt><trkpt lat="42.000690402784045" lon="3.147572597703722"><ele>5.0</ele><time>2026-04-22T08:03:04Z</time></trkpt><trkpt lat="42.00050394647989" lon="3.1476402703497715"><ele>5.0</ele><time>2026-04-22T08:03:05Z</time></trkpt><trkpt lat="42.000316476986804" lon="3.1477045760333358"><ele>5.0</ele><time>2026-04-22T08:03:06Z</time></trkpt><trkpt lat="42.00012981778619" lon="3.1477679566344845"><ele>5.0</ele><time>2026-04-22T08:03:07Z</time></trkpt><trkpt lat="41.99994398916645" lon="3.147832869059327"><ele>5.0</ele><time>2026-04-22T08:03:08Z</time></trkpt><trkpt lat="41.999760319940265" lon="3.1478975713522113"><ele>5.0</ele><time>2026-04-22T08:03:09Z</time></trkpt><trkpt lat="41.99957268452642" lon="3.1479615908254264"><ele>5.0</ele><time>2026-04-22T08:03:10Z</time></trkpt><trkpt lat="41.99938462469127" lon="3.148023213339168"><ele>5.0</ele><time>2026-04-22T08:03:11Z</time></trkpt><trkpt lat="41.999200273387416" lon="3.1480865280726924"><ele>5.0</ele><time>2026-04-22T08:03:12Z</time></trkpt><trkpt lat="41.99901600718349" lon="3.1481489758233265"><ele>5.0</ele><time>2026-04-22T08:03:13Z</time></trkpt><trkpt lat="41.998828613445376" lon="3.1482094625252515"><ele>4.666666666666667</ele><time>2026-04-22T08:03:14Z</time></trkpt><trkpt lat="41.99864276169902" lon="3.1482717346792817"><ele>4.333333333333333</ele><time>2026-04-22T08:03:15Z</time></trkpt><trkpt lat="41.998456231863145" lon="3.1483339494918816"><ele>4.0</ele><time>2026-04-22T08:03:16Z</time></trkpt><trkpt lat="41.99826884187597" lon="3.148395042662943"><ele>4.0</ele><time>2026-04-22T08:03:17Z</time></trkpt><trkpt lat="41.998082193178846" lon="3.148457698538876"><ele>4.0</ele><time>2026-04-22T08:03:18Z</time></trkpt><trkpt lat="41.99789504798266" lon="3.148520947840096"><ele>4.0</ele><time>2026-04-22T08:03:19Z</time></trkpt><trkpt lat="41.99770752344593" lon="3.1485833246391937"><ele>4.0</ele><time>2026-04-22T08:03:20Z</time></trkpt><trkpt lat="41.99752001323407" lon="3.148646075391827"><ele>4.0</ele><time>2026-04-22T08:03:21Z</time></trkpt><trkpt lat="41.99733114346097" lon="3.148707928800461"><ele>4.0</ele><time>2026-04-22T08:03:22Z</time></trkpt><trkpt lat="41.99714243618366" lon="3.1487699180940925"><ele>3.6666666666666665</ele><time>2026-04-22T08:03:23Z</time></trkpt><trkpt lat="41.99695338947778" lon="3.148834375175381"><ele>3.333333333333333</ele><time>2026-04-22T08:03:24Z</time></trkpt><trkpt lat="41.996764486183935" lon="3.148895667382096"><ele>3.0</ele><time>2026-04-22T08:03:25Z</time></trkpt><trkpt lat="41.99657666714053" lon="3.148957398892463"><ele>3.0</ele><time>2026-04-22T08:03:26Z</time></trkpt><trkpt lat="41.99638926526718" lon="3.1490211753286252"><ele>3.0</ele><time>2026-04-22T08:03:27Z</time></trkpt><trkpt lat="41.996200061591644" lon="3.1490839063737193"><ele>3.0</ele><time>2026-04-22T08:03:28Z</time></trkpt><trkpt lat="41.99601035928746" lon="3.1491472391492175"><ele>2.6666666666666665</ele><time>2026-04-22T08:03:29Z</time></trkpt><trkpt lat="41.99582034844563" lon="3.149209312762729"><ele>2.333333333333333</ele><time>2026-04-22T08:03:30Z</time></trkpt><trkpt lat="41.995631568075865" lon="3.1492771516737292"><ele>2.0</ele><time>2026-04-22T08:03:31Z</time></trkpt><trkpt lat="41.995444175958184" lon="3.149349059677715"><ele>2.0</ele><time>2026-04-22T08:03:32Z</time></trkpt><trkpt lat="41.99525869734271" lon="3.149429724567938"><ele>2.0</ele><time>2026-04-22T08:03:33Z</time></trkpt><trkpt lat="41.99507651795604" lon="3.149520039033289"><ele>2.0</ele><time>2026-04-22T08:03:34Z</time></trkpt><trkpt lat="41.99489817650924" lon="3.149617552323872"><ele>2.6666666666666665</ele><time>2026-04-22T08:03:35Z</time></trkpt><trkpt lat="41.99471761551312" lon="3.149718505463554"><ele>3.333333333333333</ele><time>2026-04-22T08:03:36Z</time></trkpt><trkpt lat="41.994540058266914" lon="3.149823106577641"><ele>4.0</ele><time>2026-04-22T08:03:37Z</time></trkpt><trkpt lat="41.99436360779907" lon="3.149932148322093"><ele>4.0</ele><time>2026-04-22T08:03:38Z</time></trkpt><trkpt lat="41.99418900127918" lon="3.1500412751414597"><ele>4.0</ele><time>2026-04-22T08:03:39Z</time></trkpt><trkpt lat="41.99401319963533" lon="3.1501507987593866"><ele>4.0</ele><time>2026-04-22T08:03:40Z</time></trkpt><trkpt lat="41.993836650934874" lon="3.1502606611056545"><ele>4.333333333333333</ele><time>2026-04-22T08:03:41Z</time></trkpt><trkpt lat="41.99366114544862" lon="3.15036985743278"><ele>4.666666666666667</ele><time>2026-04-22T08:03:42Z</time></trkpt><trkpt lat="41.99348709022684" lon="3.150480102123509"><ele>5.0</ele><time>2026-04-22T08:03:43Z</time></trkpt><trkpt lat="41.99331173743667" lon="3.150590268693297"><ele>5.666666666666667</ele><time>2026-04-22T08:03:44Z</time></trkpt><trkpt lat="41.993135801446044" lon="3.150701658438533"><ele>6.333333333333334</ele><time>2026-04-22T08:03:45Z</time></trkpt><trkpt lat="41.9929605438851" lon="3.150814663060907"><ele>7.0</ele><time>2026-04-22T08:03:46Z</time></trkpt><trkpt lat="41.992786853238314" lon="3.150927831078977"><ele>5.666666666666667</ele><time>2026-04-22T08:03:47Z</time></trkpt><trkpt lat="41.99261165424748" lon="3.1510402787956955"><ele>4.333333333333334</ele><time>2026-04-22T08:03:48Z</time></trkpt><trkpt lat="41.992435777514736" lon="3.151151923727874"><ele>3.0</ele><time>2026-04-22T08:03:49Z</time></trkpt><trkpt lat="41.992259442414294" lon="3.1512626148880334"><ele>3.0</ele><time>2026-04-22T08:03:50Z</time></trkpt><trkpt lat="41.99208394198384" lon="3.15137522445231"><ele>3.0</ele><time>2026-04-22T08:03:51Z</time></trkpt><trkpt lat="41.991907803241595" lon="3.151486715314284"><ele>3.0</ele><time>2026-04-22T08:03:52Z</time></trkpt><trkpt lat="41.99173327100625" lon="3.151597840249851"><ele>4.0</ele><time>2026-04-22T08:03:53Z</time></trkpt><trkpt lat="41.991557630951355" lon="3.151707801578592"><ele>5.0</ele><time>2026-04-22T08:03:54Z</time></trkpt><trkpt lat="41.991381600888324" lon="3.1518171717111922"><ele>6.0</ele><time>2026-04-22T08:03:55Z</time></trkpt><trkpt lat="41.99120475236883" lon="3.151927080094588"><ele>6.0</ele><time>2026-04-22T08:03:56Z</time></trkpt><trkpt lat="41.99102763857912" lon="3.1520365842896076"><ele>6.0</ele><time>2026-04-22T08:03:57Z</time></trkpt><trkpt lat="41.99085221165042" lon="3.1521462603189567"><ele>6.0</ele><time>2026-04-22T08:03:58Z</time></trkpt><trkpt lat="41.99067488609305" lon="3.1522549720275874"><ele>6.333333333333334</ele><time>2026-04-22T08:03:59Z</time></trkpt><trkpt lat="41.99049719128826" lon="3.152365245829456"><ele>6.666666666666667</ele><time>2026-04-22T08:04:00Z</time></trkpt><trkpt lat="41.990319948041126" lon="3.1524735998070077"><ele>7.0</ele><time>2026-04-22T08:04:01Z</time></trkpt><trkpt lat="41.99014026736305" lon="3.1525829415136615"><ele>6.333333333333334</ele><time>2026-04-22T08:04:02Z</time></trkpt><trkpt lat="41.989962912887705" lon="3.152693469932091"><ele>5.666666666666667</ele><time>2026-04-22T08:04:03Z</time></trkpt><trkpt lat="41.98978465524384" lon="3.1528043677102606"><ele>5.0</ele><time>2026-04-22T08:04:04Z</time></trkpt><trkpt lat="41.98960570135101" lon="3.152916412025289"><ele>5.0</ele><time>2026-04-22T08:04:05Z</time></trkpt><trkpt lat="41.98942805685262" lon="3.153028570786121"><ele>5.0</ele><time>2026-04-22T08:04:06Z</time></trkpt><trkpt lat="41.989250528894594" lon="3.153140823768723"><ele>5.0</ele><time>2026-04-22T08:04:07Z</time></trkpt><trkpt lat="41.989071978371555" lon="3.153252714013192"><ele>4.333333333333334</ele><time>2026-04-22T08:04:08Z</time></trkpt><trkpt lat="41.988894716943335" lon="3.1533626184349237"><ele>3.666666666666667</ele><time>2026-04-22T08:04:09Z</time></trkpt><trkpt lat="41.988717240196664" lon="3.153473793401012"><ele>3.0</ele><time>2026-04-22T08:04:10Z</time></trkpt><trkpt lat="41.988541890091895" lon="3.153585089982415"><ele>3.0</ele><time>2026-04-22T08:04:11Z</time></trkpt><trkpt lat="41.98836553991752" lon="3.153696487635507"><ele>3.0</ele><time>2026-04-22T08:04:12Z</time></trkpt><trkpt lat="41.988188751933784" lon="3.1538073513693154"><ele>3.0</ele><time>2026-04-22T08:04:13Z</time></trkpt><trkpt lat="41.988012981938724" lon="3.153916726309232"><ele>3.0</ele><time>2026-04-22T08:04:14Z</time></trkpt><trkpt lat="41.98783782253411" lon="3.1540257012143256"><ele>3.0</ele><time>2026-04-22T08:04:15Z</time></trkpt><trkpt lat="41.98766187864153" lon="3.1541331948742184"><ele>3.0</ele><time>2026-04-22T08:04:16Z</time></trkpt><trkpt lat="41.98748542958453" lon="3.1542379854761475"><ele>4.0</ele><time>2026-04-22T08:04:17Z</time></trkpt><trkpt lat="41.987307730900994" lon="3.1543382854137256"><ele>5.0</ele><time>2026-04-22T08:04:18Z</time></trkpt><trkpt lat="41.98712550302633" lon="3.154430590926173"><ele>6.0</ele><time>2026-04-22T08:04:19Z</time></trkpt><trkpt lat="41.98694247718838" lon="3.154507671038485"><ele>6.0</ele><time>2026-04-22T08:04:20Z</time></trkpt><trkpt lat="41.986756651180094" lon="3.1545791262433056"><ele>6.0</ele><time>2026-04-22T08:04:21Z</time></trkpt><trkpt lat="41.98656712239195" lon="3.1546354179748817"><ele>6.0</ele><time>2026-04-22T08:04:22Z</time></trkpt><trkpt lat="41.98637480437302" lon="3.1546809731115912"><ele>6.333333333333334</ele><time>2026-04-22T08:04:23Z</time></trkpt><trkpt lat="41.98618301052012" lon="3.1547045881609885"><ele>6.666666666666667</ele><time>2026-04-22T08:04:24Z</time></trkpt><trkpt lat="41.98598875214947" lon="3.1547126247596466"><ele>7.0</ele><time>2026-04-22T08:04:25Z</time></trkpt><trkpt lat="41.98579631278045" lon="3.1547016261164837"><ele>8.0</ele><time>2026-04-22T08:04:26Z</time></trkpt><trkpt lat="41.98560256921321" lon="3.1546794235101236"><ele>9.0</ele><time>2026-04-22T08:04:27Z</time></trkpt><trkpt lat="41.985409746265745" lon="3.154646502464311"><ele>10.0</ele><time>2026-04-22T08:04:28Z</time></trkpt><trkpt lat="41.98522110880858" lon="3.1546007808789067"><ele>10.0</ele><time>2026-04-22T08:04:29Z</time></trkpt><trkpt lat="41.98503214763909" lon="3.154542663266249"><ele>10.0</ele><time>2026-04-22T08:04:30Z</time></trkpt><trkpt lat="41.98484619199685" lon="3.1544786062929897"><ele>10.0</ele><time>2026-04-22T08:04:31Z</time></trkpt><trkpt lat="41.984659953431155" lon="3.1544143479637134"><ele>10.666666666666668</ele><time>2026-04-22T08:04:32Z</time></trkpt><trkpt lat="41.984472744204155" lon="3.154346247427576"><ele>11.333333333333334</ele><time>2026-04-22T08:04:33Z</time></trkpt><trkpt lat="41.984283778578856" lon="3.154275820716395"><ele>12.0</ele><time>2026-04-22T08:04:34Z</time></trkpt><trkpt lat="41.98409635200192" lon="3.154209343048493"><ele>12.0</ele><time>2026-04-22T08:04:35Z</time></trkpt><trkpt lat="41.983908322305226" lon="3.1541416391254673"><ele>12.0</ele><time>2026-04-22T08:04:36Z</time></trkpt><trkpt lat="41.98371990977648" lon="3.1540717859958787"><ele>12.0</ele><time>2026-04-22T08:04:37Z</time></trkpt><trkpt lat="41.98353013420905" lon="3.1540036783183667"><ele>11.666666666666666</ele><time>2026-04-22T08:04:38Z</time></trkpt><trkpt lat="41.983340545848506" lon="3.1539344885700533"><ele>11.333333333333332</ele><time>2026-04-22T08:04:39Z</time></trkpt><trkpt lat="41.98315036707442" lon="3.1538676412309163"><ele>11.0</ele><time>2026-04-22T08:04:40Z</time></trkpt><trkpt lat="41.98295866134978" lon="3.15379966891844"><ele>11.0</ele><time>2026-04-22T08:04:41Z</time></trkpt><trkpt lat="41.982767682090405" lon="3.1537326962330083"><ele>11.0</ele><time>2026-04-22T08:04:42Z</time></trkpt><trkpt lat="41.98257777523068" lon="3.153665041818597"><ele>11.0</ele><time>2026-04-22T08:04:43Z</time></trkpt><trkpt lat="41.98238801942518" lon="3.153595711545378"><ele>9.666666666666666</ele><time>2026-04-22T08:04:44Z</time></trkpt><trkpt lat="41.98219690773521" lon="3.1535279033960033"><ele>8.333333333333334</ele><time>2026-04-22T08:04:45Z</time></trkpt><trkpt lat="41.982005799622684" lon="3.1534606936287854"><ele>7.0</ele><time>2026-04-22T08:04:46Z</time></trkpt><trkpt lat="41.98181377681956" lon="3.153392015705333"><ele>6.666666666666667</ele><time>2026-04-22T08:04:47Z</time></trkpt><trkpt lat="41.981622216799884" lon="3.153324490555111"><ele>6.333333333333334</ele><time>2026-04-22T08:04:48Z</time></trkpt><trkpt lat="41.981433205034634" lon="3.153257264160783"><ele>6.0</ele><time>2026-04-22T08:04:49Z</time></trkpt><trkpt lat="41.98124431601054" lon="3.153188827212612"><ele>6.0</ele><time>2026-04-22T08:04:50Z</time></trkpt><trkpt lat="41.981057848409385" lon="3.1531213405557157"><ele>6.0</ele><time>2026-04-22T08:04:51Z</time></trkpt><trkpt lat="41.980873816914155" lon="3.15305311356007"><ele>6.0</ele><time>2026-04-22T08:04:52Z</time></trkpt><trkpt lat="41.98069138260466" lon="3.1529888493159315"><ele>7.333333333333334</ele><time>2026-04-22T08:04:53Z</time></trkpt><trkpt lat="41.98051028259815" lon="3.15292535599692"><ele>8.666666666666668</ele><time>2026-04-22T08:04:54Z</time></trkpt><trkpt lat="41.980330023357226" lon="3.152863675364808"><ele>10.0</ele><time>2026-04-22T08:04:55Z</time></trkpt><trkpt lat="41.98014937512478" lon="3.1527977893447345"><ele>10.666666666666668</ele><time>2026-04-22T08:04:56Z</time></trkpt><trkpt lat="41.979971524459856" lon="3.1527317639892645"><ele>11.333333333333334</ele><time>2026-04-22T08:04:57Z</time></trkpt><trkpt lat="41.9797922351281" lon="3.152665452825585"><ele>12.0</ele><time>2026-04-22T08:04:58Z</time></trkpt><trkpt lat="41.97961595572188" lon="3.1526049598675696"><ele>12.0</ele><time>2026-04-22T08:04:59Z</time></trkpt><trkpt lat="41.97943816059803" lon="3.152542603623015"><ele>12.0</ele><time>2026-04-22T08:05:00Z</time></trkpt><trkpt lat="41.979262484013496" lon="3.1524822588087043"><ele>12.0</ele><time>2026-04-22T08:05:01Z</time></trkpt><trkpt lat="41.97908746637027" lon="3.1524178497159485"><ele>11.0</ele><time>2026-04-22T08:05:02Z</time></trkpt><trkpt lat="41.97891248744314" lon="3.152353938212825"><ele>10.0</ele><time>2026-04-22T08:05:03Z</time></trkpt><trkpt lat="41.97874159267464" lon="3.1522931237064786"><ele>9.0</ele><time>2026-04-22T08:05:04Z</time></trkpt><trkpt lat="41.97856988099394" lon="3.152231108325664"><ele>9.0</ele><time>2026-04-22T08:05:05Z</time></trkpt><trkpt lat="41.97839674030466" lon="3.1521687953851045"><ele>9.0</ele><time>2026-04-22T08:05:06Z</time></trkpt><trkpt lat="41.97822652804755" lon="3.152108823406705"><ele>9.0</ele><time>2026-04-22T08:05:07Z</time></trkpt><trkpt lat="41.97805934820288" lon="3.1520525008578804"><ele>10.0</ele><time>2026-04-22T08:05:08Z</time></trkpt><trkpt lat="41.977891615042935" lon="3.151991555785328"><ele>11.0</ele><time>2026-04-22T08:05:09Z</time></trkpt><trkpt lat="41.97772694992112" lon="3.151930402959477"><ele>12.0</ele><time>2026-04-22T08:05:10Z</time></trkpt><trkpt lat="41.977566128699266" lon="3.151873724300661"><ele>13.333333333333332</ele><time>2026-04-22T08:05:11Z</time></trkpt><trkpt lat="41.97740829502844" lon="3.151814943218951"><ele>14.666666666666666</ele><time>2026-04-22T08:05:12Z</time></trkpt><trkpt lat="41.97726208393673" lon="3.15176618485299"><ele>16.0</ele><time>2026-04-22T08:05:13Z</time></trkpt><trkpt lat="41.97711736513029" lon="3.1517174341854273"><ele>16.0</ele><time>2026-04-22T08:05:14Z</time></trkpt><trkpt lat="41.97697221206261" lon="3.1516667534197738"><ele>16.0</ele><time>2026-04-22T08:05:15Z</time></trkpt><trkpt lat="41.976823806510296" lon="3.1516146808423176"><ele>16.0</ele><time>2026-04-22T08:05:16Z</time></trkpt><trkpt lat="41.9766736631711" lon="3.151560944384131"><ele>15.666666666666666</ele><time>2026-04-22T08:05:17Z</time></trkpt><trkpt lat="41.97652256964391" lon="3.1515095660945187"><ele>15.333333333333332</ele><time>2026-04-22T08:05:18Z</time></trkpt><trkpt lat="41.97637084883947" lon="3.1514590801155444"><ele>15.0</ele><time>2026-04-22T08:05:19Z</time></trkpt><trkpt lat="41.976220837796056" lon="3.1514091540037112"><ele>15.0</ele><time>2026-04-22T08:05:20Z</time></trkpt><trkpt lat="41.976072981964634" lon="3.151359314915535"><ele>15.0</ele><time>2026-04-22T08:05:21Z</time></trkpt><trkpt lat="41.97593136158658" lon="3.15131216186313"><ele>15.0</ele><time>2026-04-22T08:05:22Z</time></trkpt><trkpt lat="41.97579343222252" lon="3.1512670163741436"><ele>15.0</ele><time>2026-04-22T08:05:23Z</time></trkpt><trkpt lat="41.975654275134865" lon="3.151220299385557"><ele>15.5</ele><time>2026-04-22T08:05:24Z</time></trkpt><trkpt lat="41.97551645230293" lon="3.1511760236996684"><ele>16.0</ele><time>2026-04-22T08:05:25Z</time></trkpt><trkpt lat="41.97538120932464" lon="3.1511294930967675"><ele>16.5</ele><time>2026-04-22T08:05:26Z</time></trkpt><trkpt lat="41.97524792000569" lon="3.151082751023943"><ele>17.0</ele><time>2026-04-22T08:05:27Z</time></trkpt><trkpt lat="41.975121679116484" lon="3.151040276165021"><ele>17.2</ele><time>2026-04-22T08:05:28Z</time></trkpt><trkpt lat="41.97500008762915" lon="3.1509982726627297"><ele>17.4</ele><time>2026-04-22T08:05:29Z</time></trkpt><trkpt lat="41.974889431060255" lon="3.1509618022724366"><ele>17.6</ele><time>2026-04-22T08:05:30Z</time></trkpt><trkpt lat="41.97478664199871" lon="3.150926317721751"><ele>17.8</ele><time>2026-04-22T08:05:31Z</time></trkpt><trkpt lat="41.97469323387461" lon="3.1508943329184502"><ele>18.0</ele><time>2026-04-22T08:05:32Z</time></trkpt><trkpt lat="41.97460178558596" lon="3.150860929800814"><ele>18.0</ele><time>2026-04-22T08:05:33Z</time></trkpt><trkpt lat="41.974515439346355" lon="3.1508269314630906"><ele>18.0</ele><time>2026-04-22T08:05:34Z</time></trkpt><trkpt lat="41.97443254587776" lon="3.1507830179413676"><ele>18.0</ele><time>2026-04-22T08:05:35Z</time></trkpt><trkpt lat="41.974356501748645" lon="3.150730287187506"><ele>18.0</ele><time>2026-04-22T08:05:36Z</time></trkpt><trkpt lat="41.97428681170025" lon="3.1506664385742726"><ele>18.0</ele><time>2026-04-22T08:05:37Z</time></trkpt><trkpt lat="41.97422418688721" lon="3.1505893328145134"><ele>18.0</ele><time>2026-04-22T08:05:38Z</time></trkpt><trkpt lat="41.97415441726502" lon="3.150512058211646"><ele>17.8</ele><time>2026-04-22T08:05:39Z</time></trkpt><trkpt lat="41.9740803509967" lon="3.150443014003769"><ele>17.6</ele><time>2026-04-22T08:05:40Z</time></trkpt><trkpt lat="41.97400234492577" lon="3.1503720322281414"><ele>17.4</ele><time>2026-04-22T08:05:41Z</time></trkpt><trkpt lat="41.973936612566554" lon="3.150289720853848"><ele>17.2</ele><time>2026-04-22T08:05:42Z</time></trkpt><trkpt lat="41.97388439065103" lon="3.150193701359371"><ele>17.0</ele><time>2026-04-22T08:05:43Z</time></trkpt><trkpt lat="41.97381925329447" lon="3.1501126530811545"><ele>17.0</ele><time>2026-04-22T08:05:44Z</time></trkpt><trkpt lat="41.97376694286759" lon="3.1500003335943334"><ele>17.0</ele><time>2026-04-22T08:05:45Z</time></trkpt><trkpt lat="41.973702388487276" lon="3.149912324189227"><ele>17.0</ele><time>2026-04-22T08:05:46Z</time></trkpt><trkpt lat="41.973631820491256" lon="3.149825023458016"><ele>17.0</ele><time>2026-04-22T08:05:47Z</time></trkpt><trkpt lat="41.97355789040968" lon="3.149742143377381"><ele>17.0</ele><time>2026-04-22T08:05:48Z</time></trkpt><trkpt lat="41.97348407750013" lon="3.1496593831565876"><ele>16.8</ele><time>2026-04-22T08:05:49Z</time></trkpt><trkpt lat="41.973409964636645" lon="3.1495790910633574"><ele>16.6</ele><time>2026-04-22T08:05:50Z</time></trkpt><trkpt lat="41.97333605513605" lon="3.1495019093229875"><ele>16.400000000000002</ele><time>2026-04-22T08:05:51Z</time></trkpt><trkpt lat="41.97326045624081" lon="3.149429648795596"><ele>16.2</ele><time>2026-04-22T08:05:52Z</time></trkpt><trkpt lat="41.973180306306986" lon="3.1493634745692205"><ele>16.0</ele><time>2026-04-22T08:05:53Z</time></trkpt><trkpt lat="41.97309952528404" lon="3.149300027746936"><ele>15.8</ele><time>2026-04-22T08:05:54Z</time></trkpt><trkpt lat="41.973012175223445" lon="3.149244378807911"><ele>15.600000000000001</ele><time>2026-04-22T08:05:55Z</time></trkpt><trkpt lat="41.972921531708025" lon="3.1492017488072603"><ele>15.4</ele><time>2026-04-22T08:05:56Z</time></trkpt><trkpt lat="41.972825633537305" lon="3.1491617936726177"><ele>15.2</ele><time>2026-04-22T08:05:57Z</time></trkpt><trkpt lat="41.97273150143379" lon="3.1491297410964956"><ele>15.0</ele><time>2026-04-22T08:05:58Z</time></trkpt><trkpt lat="41.97263582832921" lon="3.1491094864457176"><ele>15.0</ele><time>2026-04-22T08:05:59Z</time></trkpt><trkpt lat="41.97254402961023" lon="3.1490921112657437"><ele>15.0</ele><time>2026-04-22T08:06:00Z</time></trkpt><trkpt lat="41.972452690001596" lon="3.149073563449068"><ele>15.0</ele><time>2026-04-22T08:06:01Z</time></trkpt><trkpt lat="41.97236786872454" lon="3.149057693518042"><ele>15.0</ele><time>2026-04-22T08:06:02Z</time></trkpt><trkpt lat="41.972283240488544" lon="3.1490411823028994"><ele>15.0</ele><time>2026-04-22T08:06:03Z</time></trkpt><trkpt lat="41.97220802741774" lon="3.1490288747039883"><ele>15.0</ele><time>2026-04-22T08:06:04Z</time></trkpt><trkpt lat="41.972142326050204" lon="3.149016055328109"><ele>14.833333333333334</ele><time>2026-04-22T08:06:05Z</time></trkpt><trkpt lat="41.972032773187735" lon="3.148996627386596"><ele>14.666666666666668</ele><time>2026-04-22T08:06:07Z</time></trkpt><trkpt lat="41.97194495574115" lon="3.14898197775522"><ele>14.5</ele><time>2026-04-22T08:06:09Z</time></trkpt><trkpt lat="41.97188159255176" lon="3.1489672689951385"><ele>14.333333333333334</ele><time>2026-04-22T08:06:14Z</time></trkpt><trkpt lat="41.9717890199922" lon="3.148953053855959"><ele>14.166666666666668</ele><time>2026-04-22T08:06:17Z</time></trkpt><trkpt lat="41.971717583395" lon="3.148941999144408"><ele>14.0</ele><time>2026-04-22T08:06:19Z</time></trkpt><trkpt lat="41.97166937570625" lon="3.1488376971632617"><ele>14.000000000000002</ele><time>2026-04-22T08:06:22Z</time></trkpt><trkpt lat="41.97168238406365" lon="3.1487027586636103"><ele>14.0</ele><time>2026-04-22T08:06:24Z</time></trkpt><trkpt lat="41.971690431348065" lon="3.1485311367650786"><ele>14.0</ele><time>2026-04-22T08:06:26Z</time></trkpt><trkpt lat="41.97169603795913" lon="3.1484346449253113"><ele>14.0</ele><time>2026-04-22T08:06:27Z</time></trkpt><trkpt lat="41.97170053872526" lon="3.148340537036865"><ele>14.000000000000002</ele><time>2026-04-22T08:06:28Z</time></trkpt><trkpt lat="41.9717041730715" lon="3.1482525990301657"><ele>14.0</ele><time>2026-04-22T08:06:29Z</time></trkpt><trkpt lat="41.97171255668269" lon="3.1480948197800154"><ele>14.333333333333334</ele><time>2026-04-22T08:06:31Z</time></trkpt><trkpt lat="41.97172334787805" lon="3.1479433381105153"><ele>14.666666666666668</ele><time>2026-04-22T08:06:33Z</time></trkpt><trkpt lat="41.97173587519278" lon="3.1478257580093003"><ele>15.0</ele><time>2026-04-22T08:06:35Z</time></trkpt><trkpt lat="41.97174615717684" lon="3.147736737878493"><ele>15.333333333333332</ele><time>2026-04-22T08:06:38Z</time></trkpt><trkpt lat="41.971755401276546" lon="3.1476436343323675"><ele>15.666666666666666</ele><time>2026-04-22T08:06:40Z</time></trkpt><trkpt lat="41.97169606906531" lon="3.147577968287054"><ele>16.0</ele><time>2026-04-22T08:06:42Z</time></trkpt><trkpt lat="41.971605475012716" lon="3.1475574734083436"><ele>16.8</ele><time>2026-04-22T08:06:44Z</time></trkpt><trkpt lat="41.97148062161886" lon="3.147534217331132"><ele>17.6</ele><time>2026-04-22T08:06:46Z</time></trkpt><trkpt lat="41.971411405293914" lon="3.1475218492072536"><ele>18.4</ele><time>2026-04-22T08:06:47Z</time></trkpt><trkpt lat="41.971344741808515" lon="3.147507735760105"><ele>19.2</ele><time>2026-04-22T08:06:48Z</time></trkpt><trkpt lat="41.97123242515655" lon="3.1474819427093155"><ele>20.0</ele><time>2026-04-22T08:06:50Z</time></trkpt><trkpt lat="41.9711511005095" lon="3.1474664274001514"><ele>20.0</ele><time>2026-04-22T08:06:52Z</time></trkpt><trkpt lat="41.97108953019011" lon="3.1473980581289376"><ele>20.0</ele><time>2026-04-22T08:06:55Z</time></trkpt><trkpt lat="41.971082154963796" lon="3.147282725063722"><ele>20.0</ele><time>2026-04-22T08:06:58Z</time></trkpt><trkpt lat="41.971071456973526" lon="3.147187909469097"><ele>20.0</ele><time>2026-04-22T08:07:00Z</time></trkpt><trkpt lat="41.97106024520041" lon="3.1470928335310946"><ele>20.0</ele><time>2026-04-22T08:07:02Z</time></trkpt><trkpt lat="41.971047392759225" lon="3.147000717122737"><ele>20.0</ele><time>2026-04-22T08:07:04Z</time></trkpt><trkpt lat="41.97103447970214" lon="3.146903262393975"><ele>20.5</ele><time>2026-04-22T08:07:06Z</time></trkpt><trkpt lat="41.971022147869405" lon="3.146813584898924"><ele>21.0</ele><time>2026-04-22T08:07:08Z</time></trkpt><trkpt lat="41.97100812630932" lon="3.1467280877041626"><ele>21.5</ele><time>2026-04-22T08:07:10Z</time></trkpt><trkpt lat="41.971014063359156" lon="3.146632730418208"><ele>22.0</ele><time>2026-04-22T08:07:14Z</time></trkpt><trkpt lat="41.97114350994409" lon="3.1465543979184174"><ele>22.5</ele><time>2026-04-22T08:07:21Z</time></trkpt><trkpt lat="41.97119781749627" lon="3.146486541314293"><ele>23.0</ele><time>2026-04-22T08:07:24Z</time></trkpt><trkpt lat="41.97126132555399" lon="3.1464750206756134"><ele>23.0</ele><time>2026-04-22T08:07:27Z</time></trkpt><trkpt lat="41.97131974289351" lon="3.146414652806645"><ele>23.0</ele><time>2026-04-22T08:07:34Z</time></trkpt><trkpt lat="41.971248691078884" lon="3.1464502804058574"><ele>23.0</ele><time>2026-04-22T08:07:39Z</time></trkpt><trkpt lat="41.971172488677894" lon="3.146485839490446"><ele>23.0</ele><time>2026-04-22T08:07:42Z</time></trkpt><trkpt lat="41.97109609411229" lon="3.146524649069498"><ele>23.0</ele><time>2026-04-22T08:07:45Z</time></trkpt><trkpt lat="41.971034388791566" lon="3.1465535430182947"><ele>23.0</ele><time>2026-04-22T08:07:51Z</time></trkpt><trkpt lat="41.97099521219354" lon="3.1466308993400838"><ele>23.0</ele><time>2026-04-22T08:07:54Z</time></trkpt><trkpt lat="41.97100051580895" lon="3.146746560480672"><ele>23.0</ele><time>2026-04-22T08:07:56Z</time></trkpt><trkpt lat="41.97101727954748" lon="3.1468729539181255"><ele>23.0</ele><time>2026-04-22T08:07:58Z</time></trkpt><trkpt lat="41.97103546893761" lon="3.1470043290417515"><ele>23.0</ele><time>2026-04-22T08:08:00Z</time></trkpt><trkpt lat="41.97105041113496" lon="3.1471153056507086"><ele>23.0</ele><time>2026-04-22T08:08:02Z</time></trkpt><trkpt lat="41.97106584608915" lon="3.1472109927157828"><ele>23.0</ele><time>2026-04-22T08:08:04Z</time></trkpt><trkpt lat="41.9710646160345" lon="3.1473318743580725"><ele>23.0</ele><time>2026-04-22T08:08:07Z</time></trkpt><trkpt lat="41.97108633878854" lon="3.147418386902212"><ele>22.599999999999998</ele><time>2026-04-22T08:08:13Z</time></trkpt><trkpt lat="41.97102276483106" lon="3.147471070651428"><ele>22.2</ele><time>2026-04-22T08:08:16Z</time></trkpt><trkpt lat="41.97093009268709" lon="3.147474999275402"><ele>21.8</ele><time>2026-04-22T08:08:18Z</time></trkpt><trkpt lat="41.97082692810041" lon="3.1474936813303476"><ele>21.4</ele><time>2026-04-22T08:08:20Z</time></trkpt><trkpt lat="41.97072259614623" lon="3.147503970242066"><ele>21.0</ele><time>2026-04-22T08:08:22Z</time></trkpt><trkpt lat="41.970607794240124" lon="3.1475208250734013"><ele>21.0</ele><time>2026-04-22T08:08:24Z</time></trkpt><trkpt lat="41.97053965048951" lon="3.147532740253264"><ele>21.0</ele><time>2026-04-22T08:08:25Z</time></trkpt><trkpt lat="41.970465158745576" lon="3.1475440695706856"><ele>21.0</ele><time>2026-04-22T08:08:26Z</time></trkpt><trkpt lat="41.97038980516705" lon="3.147555025847747"><ele>21.0</ele><time>2026-04-22T08:08:27Z</time></trkpt><trkpt lat="41.97031612505499" lon="3.1475673200415013"><ele>21.0</ele><time>2026-04-22T08:08:28Z</time></trkpt><trkpt lat="41.970246241229134" lon="3.147577463958875"><ele>21.0</ele><time>2026-04-22T08:08:29Z</time></trkpt><trkpt lat="41.9701772245825" lon="3.14758933186247"><ele>21.0</ele><time>2026-04-22T08:08:30Z</time></trkpt><trkpt lat="41.97010847501606" lon="3.147599270055199"><ele>21.0</ele><time>2026-04-22T08:08:31Z</time></trkpt><trkpt lat="41.97004159619348" lon="3.1476086778509997"><ele>21.0</ele><time>2026-04-22T08:08:32Z</time></trkpt><trkpt lat="41.96997616585531" lon="3.147619036217712"><ele>21.0</ele><time>2026-04-22T08:08:33Z</time></trkpt><trkpt lat="41.96990982193178" lon="3.1476278639399236"><ele>21.0</ele><time>2026-04-22T08:08:34Z</time></trkpt><trkpt lat="41.969845731885464" lon="3.1476373066792838"><ele>21.0</ele><time>2026-04-22T08:08:35Z</time></trkpt><trkpt lat="41.96972584075091" lon="3.1476553782833148"><ele>21.0</ele><time>2026-04-22T08:08:37Z</time></trkpt><trkpt lat="41.969611415235974" lon="3.1476707285209633"><ele>21.200000000000003</ele><time>2026-04-22T08:08:39Z</time></trkpt><trkpt lat="41.96949619991771" lon="3.14769157533324"><ele>21.400000000000002</ele><time>2026-04-22T08:08:41Z</time></trkpt><trkpt lat="41.96938411079462" lon="3.1477091653431493"><ele>21.6</ele><time>2026-04-22T08:08:43Z</time></trkpt><trkpt lat="41.969262735430306" lon="3.1477296146541236"><ele>21.8</ele><time>2026-04-22T08:08:45Z</time></trkpt><trkpt lat="41.969199260794404" lon="3.147741403514469"><ele>22.0</ele><time>2026-04-22T08:08:46Z</time></trkpt><trkpt lat="41.96913536332906" lon="3.1477485255901834"><ele>22.6</ele><time>2026-04-22T08:08:47Z</time></trkpt><trkpt lat="41.96907075092655" lon="3.147757766954755"><ele>23.200000000000003</ele><time>2026-04-22T08:08:48Z</time></trkpt><trkpt lat="41.969006384643535" lon="3.1477656823361104"><ele>23.8</ele><time>2026-04-22T08:08:49Z</time></trkpt><trkpt lat="41.96888119447283" lon="3.1477781332792034"><ele>24.4</ele><time>2026-04-22T08:08:51Z</time></trkpt><trkpt lat="41.968760283745134" lon="3.147796130877717"><ele>25.0</ele><time>2026-04-22T08:08:53Z</time></trkpt><trkpt lat="41.968651939513954" lon="3.1478127374748546"><ele>25.000000000000004</ele><time>2026-04-22T08:08:55Z</time></trkpt><trkpt lat="41.96855919211822" lon="3.1478289728808013"><ele>25.0</ele><time>2026-04-22T08:08:57Z</time></trkpt><trkpt lat="41.968486294535545" lon="3.1478407071689376"><ele>25.0</ele><time>2026-04-22T08:09:00Z</time></trkpt><trkpt lat="41.96842905903495" lon="3.147947271365483"><ele>25.0</ele><time>2026-04-22T08:09:06Z</time></trkpt><trkpt lat="41.96843395710568" lon="3.148038715012505"><ele>25.000000000000004</ele><time>2026-04-22T08:09:08Z</time></trkpt><trkpt lat="41.96843939631752" lon="3.148163503249519"><ele>25.0</ele><time>2026-04-22T08:09:10Z</time></trkpt><trkpt lat="41.96844349962915" lon="3.148268476430722"><ele>25.0</ele><time>2026-04-22T08:09:12Z</time></trkpt><trkpt lat="41.968451169649974" lon="3.148358775361064"><ele>25.0</ele><time>2026-04-22T08:09:17Z</time></trkpt><trkpt lat="41.968362050151384" lon="3.148347807389977"><ele>25.0</ele><time>2026-04-22T08:09:20Z</time></trkpt><trkpt lat="41.968268401969276" lon="3.148328740485459"><ele>25.0</ele><time>2026-04-22T08:09:22Z</time></trkpt><trkpt lat="41.968136756277225" lon="3.1483005579631467"><ele>25.0</ele><time>2026-04-22T08:09:24Z</time></trkpt><trkpt lat="41.968069823864624" lon="3.148293187964077"><ele>24.833333333333336</ele><time>2026-04-22T08:09:25Z</time></trkpt><trkpt lat="41.96800091176018" lon="3.1482832506770015"><ele>24.666666666666668</ele><time>2026-04-22T08:09:26Z</time></trkpt><trkpt lat="41.96792930763844" lon="3.148276271950468"><ele>24.5</ele><time>2026-04-22T08:09:27Z</time></trkpt><trkpt lat="41.96784840402422" lon="3.1482790576331054"><ele>24.333333333333336</ele><time>2026-04-22T08:09:28Z</time></trkpt><trkpt lat="41.96776713099249" lon="3.14829303417449"><ele>24.166666666666668</ele><time>2026-04-22T08:09:29Z</time></trkpt><trkpt lat="41.96768232581755" lon="3.1483220979977076"><ele>24.0</ele><time>2026-04-22T08:09:30Z</time></trkpt><trkpt lat="41.96759574364236" lon="3.1483677552942035"><ele>23.799999999999997</ele><time>2026-04-22T08:09:31Z</time></trkpt><trkpt lat="41.96750900296577" lon="3.148423800532626"><ele>23.599999999999998</ele><time>2026-04-22T08:09:32Z</time></trkpt><trkpt lat="41.96741558352237" lon="3.148486469070202"><ele>23.4</ele><time>2026-04-22T08:09:33Z</time></trkpt><trkpt lat="41.96731563714232" lon="3.148560991990364"><ele>23.2</ele><time>2026-04-22T08:09:34Z</time></trkpt><trkpt lat="41.96721832996989" lon="3.1486357324409715"><ele>23.0</ele><time>2026-04-22T08:09:35Z</time></trkpt><trkpt lat="41.9671188160536" lon="3.148712301185627"><ele>23.0</ele><time>2026-04-22T08:09:36Z</time></trkpt><trkpt lat="41.967012371223994" lon="3.148789218314889"><ele>23.0</ele><time>2026-04-22T08:09:37Z</time></trkpt><trkpt lat="41.96690467927297" lon="3.148871868700133"><ele>23.0</ele><time>2026-04-22T08:09:38Z</time></trkpt><trkpt lat="41.96679368384262" lon="3.1489550978246417"><ele>23.0</ele><time>2026-04-22T08:09:39Z</time></trkpt><trkpt lat="41.96668316986136" lon="3.1490380883269062"><ele>23.5</ele><time>2026-04-22T08:09:40Z</time></trkpt><trkpt lat="41.966571920970395" lon="3.149120091483377"><ele>24.0</ele><time>2026-04-22T08:09:41Z</time></trkpt><trkpt lat="41.9664588139745" lon="3.1492027021801867"><ele>24.5</ele><time>2026-04-22T08:09:42Z</time></trkpt><trkpt lat="41.96634404362842" lon="3.1492872056409666"><ele>25.0</ele><time>2026-04-22T08:09:43Z</time></trkpt><trkpt lat="41.96622714172527" lon="3.149371912297639"><ele>25.0</ele><time>2026-04-22T08:09:44Z</time></trkpt><trkpt lat="41.966109171659404" lon="3.1494594370240994"><ele>25.0</ele><time>2026-04-22T08:09:45Z</time></trkpt><trkpt lat="41.9659964770119" lon="3.149542777692143"><ele>25.0</ele><time>2026-04-22T08:09:46Z</time></trkpt><trkpt lat="41.965891174498964" lon="3.149622430220932"><ele>25.0</ele><time>2026-04-22T08:09:47Z</time></trkpt><trkpt lat="41.96579046445758" lon="3.149696801633211"><ele>25.2</ele><time>2026-04-22T08:09:48Z</time></trkpt><trkpt lat="41.96569600655626" lon="3.1497686834307737"><ele>25.4</ele><time>2026-04-22T08:09:49Z</time></trkpt><trkpt lat="41.96560595580894" lon="3.1498375827091833"><ele>25.6</ele><time>2026-04-22T08:09:50Z</time></trkpt><trkpt lat="41.965520686859925" lon="3.1499022133286205"><ele>25.8</ele><time>2026-04-22T08:09:51Z</time></trkpt><trkpt lat="41.96544272324972" lon="3.1499620776429835"><ele>26.0</ele><time>2026-04-22T08:09:52Z</time></trkpt><trkpt lat="41.96537238664132" lon="3.1500151482561805"><ele>25.999999999999996</ele><time>2026-04-22T08:09:53Z</time></trkpt><trkpt lat="41.965304019562716" lon="3.1500638237944836"><ele>26.0</ele><time>2026-04-22T08:09:54Z</time></trkpt><trkpt lat="41.96523169096781" lon="3.150109764440301"><ele>26.0</ele><time>2026-04-22T08:09:55Z</time></trkpt><trkpt lat="41.96516444114352" lon="3.1501470838423375"><ele>26.0</ele><time>2026-04-22T08:09:56Z</time></trkpt><trkpt lat="41.96504770809479" lon="3.1501859036693034"><ele>25.999999999999996</ele><time>2026-04-22T08:09:58Z</time></trkpt><trkpt lat="41.96498180603103" lon="3.150189215526027"><ele>26.0</ele><time>2026-04-22T08:09:59Z</time></trkpt><trkpt lat="41.9649093410282" lon="3.1501782349644345"><ele>25.333333333333332</ele><time>2026-04-22T08:10:00Z</time></trkpt><trkpt lat="41.964829218414515" lon="3.1501682374755506"><ele>24.666666666666664</ele><time>2026-04-22T08:10:01Z</time></trkpt><trkpt lat="41.96474827988439" lon="3.1501796032740668"><ele>24.0</ele><time>2026-04-22T08:10:02Z</time></trkpt><trkpt lat="41.96467833191481" lon="3.1502225631343914"><ele>23.333333333333332</ele><time>2026-04-22T08:10:03Z</time></trkpt><trkpt lat="41.96462232611867" lon="3.150292645461463"><ele>22.666666666666664</ele><time>2026-04-22T08:10:04Z</time></trkpt><trkpt lat="41.964579433919035" lon="3.1503850626490744"><ele>22.0</ele><time>2026-04-22T08:10:05Z</time></trkpt><trkpt lat="41.96454145219768" lon="3.1504922944621585"><ele>22.0</ele><time>2026-04-22T08:10:06Z</time></trkpt><trkpt lat="41.9644917532385" lon="3.150593271956068"><ele>22.0</ele><time>2026-04-22T08:10:07Z</time></trkpt><trkpt lat="41.9644255514163" lon="3.1506891425783907"><ele>22.0</ele><time>2026-04-22T08:10:08Z</time></trkpt><trkpt lat="41.9643437747782" lon="3.1507711561742027"><ele>22.0</ele><time>2026-04-22T08:10:09Z</time></trkpt><trkpt lat="41.96424747417452" lon="3.1508477825555863"><ele>22.0</ele><time>2026-04-22T08:10:10Z</time></trkpt><trkpt lat="41.96414027253572" lon="3.1509288049109534"><ele>22.25</ele><time>2026-04-22T08:10:11Z</time></trkpt><trkpt lat="41.96402309423901" lon="3.151013813086434"><ele>22.5</ele><time>2026-04-22T08:10:12Z</time></trkpt><trkpt lat="41.963902623473544" lon="3.151100404974122"><ele>22.75</ele><time>2026-04-22T08:10:13Z</time></trkpt><trkpt lat="41.96378209678034" lon="3.1511867284966217"><ele>23.0</ele><time>2026-04-22T08:10:14Z</time></trkpt><trkpt lat="41.963656289882756" lon="3.1512773789453488"><ele>23.0</ele><time>2026-04-22T08:10:15Z</time></trkpt><trkpt lat="41.96352483977972" lon="3.1513727640853073"><ele>23.0</ele><time>2026-04-22T08:10:16Z</time></trkpt><trkpt lat="41.96338963103374" lon="3.151473520015757"><ele>23.0</ele><time>2026-04-22T08:10:17Z</time></trkpt><trkpt lat="41.96324991612148" lon="3.1515782595525725"><ele>24.0</ele><time>2026-04-22T08:10:18Z</time></trkpt><trkpt lat="41.96311427775618" lon="3.15167985771443"><ele>25.0</ele><time>2026-04-22T08:10:19Z</time></trkpt><trkpt lat="41.962975007798406" lon="3.1517821201988117"><ele>26.0</ele><time>2026-04-22T08:10:20Z</time></trkpt><trkpt lat="41.962834936013806" lon="3.1518849779664904"><ele>26.0</ele><time>2026-04-22T08:10:21Z</time></trkpt><trkpt lat="41.96269462445377" lon="3.1519864764171306"><ele>26.0</ele><time>2026-04-22T08:10:22Z</time></trkpt><trkpt lat="41.96255470116808" lon="3.15208965673579"><ele>26.0</ele><time>2026-04-22T08:10:23Z</time></trkpt><trkpt lat="41.96241484271642" lon="3.152188814917313"><ele>25.666666666666664</ele><time>2026-04-22T08:10:24Z</time></trkpt><trkpt lat="41.96227470762399" lon="3.152288897733138"><ele>25.333333333333336</ele><time>2026-04-22T08:10:25Z</time></trkpt><trkpt lat="41.96213624118087" lon="3.1523912718633773"><ele>25.0</ele><time>2026-04-22T08:10:26Z</time></trkpt><trkpt lat="41.96199800021823" lon="3.15249306285857"><ele>25.333333333333336</ele><time>2026-04-22T08:10:27Z</time></trkpt><trkpt lat="41.96185939443844" lon="3.1525936214616443"><ele>25.666666666666664</ele><time>2026-04-22T08:10:28Z</time></trkpt><trkpt lat="41.961725078794714" lon="3.1526935128768083"><ele>26.0</ele><time>2026-04-22T08:10:29Z</time></trkpt><trkpt lat="41.96159082488411" lon="3.1527923865667997"><ele>26.0</ele><time>2026-04-22T08:10:30Z</time></trkpt><trkpt lat="41.96145836547933" lon="3.1528905079547895"><ele>26.0</ele><time>2026-04-22T08:10:31Z</time></trkpt><trkpt lat="41.961325513869845" lon="3.15298995122197"><ele>26.0</ele><time>2026-04-22T08:10:32Z</time></trkpt><trkpt lat="41.96119294166982" lon="3.153086492329867"><ele>26.0</ele><time>2026-04-22T08:10:33Z</time></trkpt><trkpt lat="41.96106125854873" lon="3.1531833491794874"><ele>26.0</ele><time>2026-04-22T08:10:34Z</time></trkpt><trkpt lat="41.96092904279193" lon="3.1532796372354706"><ele>26.0</ele><time>2026-04-22T08:10:35Z</time></trkpt><trkpt lat="41.960798235069824" lon="3.153373173655885"><ele>26.0</ele><time>2026-04-22T08:10:36Z</time></trkpt><trkpt lat="41.96066914341808" lon="3.153468770504356"><ele>27.0</ele><time>2026-04-22T08:10:37Z</time></trkpt><trkpt lat="41.960539806069704" lon="3.153562352570358"><ele>28.0</ele><time>2026-04-22T08:10:38Z</time></trkpt><trkpt lat="41.96040925563183" lon="3.153656448518126"><ele>29.0</ele><time>2026-04-22T08:10:39Z</time></trkpt><trkpt lat="41.96028148532846" lon="3.1537479363747565"><ele>30.0</ele><time>2026-04-22T08:10:40Z</time></trkpt><trkpt lat="41.96015371471293" lon="3.153842344041343"><ele>29.5</ele><time>2026-04-22T08:10:41Z</time></trkpt><trkpt lat="41.96002471240089" lon="3.1539376189451516"><ele>29.0</ele><time>2026-04-22T08:10:42Z</time></trkpt><trkpt lat="41.9598939545741" lon="3.1540332898174994"><ele>28.5</ele><time>2026-04-22T08:10:43Z</time></trkpt><trkpt lat="41.9597599987063" lon="3.154132275687045"><ele>28.0</ele><time>2026-04-22T08:10:44Z</time></trkpt><trkpt lat="41.9596237503277" lon="3.1542330817929702"><ele>28.666666666666668</ele><time>2026-04-22T08:10:45Z</time></trkpt><trkpt lat="41.95948288046166" lon="3.154337899912738"><ele>29.333333333333336</ele><time>2026-04-22T08:10:46Z</time></trkpt><trkpt lat="41.95933965429631" lon="3.15444073205561"><ele>30.0</ele><time>2026-04-22T08:10:47Z</time></trkpt><trkpt lat="41.959193537996384" lon="3.154547112912601"><ele>30.0</ele><time>2026-04-22T08:10:48Z</time></trkpt><trkpt lat="41.959044433322084" lon="3.1546555544794836"><ele>30.0</ele><time>2026-04-22T08:10:49Z</time></trkpt><trkpt lat="41.958893648861334" lon="3.154766830865071"><ele>30.0</ele><time>2026-04-22T08:10:50Z</time></trkpt><trkpt lat="41.95874117385141" lon="3.1548811217498756"><ele>31.0</ele><time>2026-04-22T08:10:51Z</time></trkpt><trkpt lat="41.95858595625027" lon="3.154996445540002"><ele>32.0</ele><time>2026-04-22T08:10:52Z</time></trkpt><trkpt lat="41.95842836522788" lon="3.1551106538049893"><ele>33.0</ele><time>2026-04-22T08:10:53Z</time></trkpt><trkpt lat="41.95826841068629" lon="3.155229120196567"><ele>33.0</ele><time>2026-04-22T08:10:54Z</time></trkpt><trkpt lat="41.95810566841393" lon="3.155349596968908"><ele>33.0</ele><time>2026-04-22T08:10:55Z</time></trkpt><trkpt lat="41.95794107499939" lon="3.155470575293074"><ele>33.0</ele><time>2026-04-22T08:10:56Z</time></trkpt><trkpt lat="41.95777406165177" lon="3.1555913740218915"><ele>34.666666666666664</ele><time>2026-04-22T08:10:57Z</time></trkpt><trkpt lat="41.95760615205195" lon="3.1557176922848913"><ele>36.33333333333333</ele><time>2026-04-22T08:10:58Z</time></trkpt><trkpt lat="41.957437091246994" lon="3.155837851738191"><ele>38.0</ele><time>2026-04-22T08:10:59Z</time></trkpt><trkpt lat="41.95726758202122" lon="3.1559630160552574"><ele>38.0</ele><time>2026-04-22T08:11:00Z</time></trkpt><trkpt lat="41.95709821340345" lon="3.156085970335544"><ele>38.0</ele><time>2026-04-22T08:11:01Z</time></trkpt><trkpt lat="41.956927944810545" lon="3.156210941366107"><ele>38.0</ele><time>2026-04-22T08:11:02Z</time></trkpt><trkpt lat="41.956757914029915" lon="3.156336170439543"><ele>38.0</ele><time>2026-04-22T08:11:03Z</time></trkpt><trkpt lat="41.95658760513933" lon="3.156462151439204"><ele>38.0</ele><time>2026-04-22T08:11:04Z</time></trkpt><trkpt lat="41.95641632915409" lon="3.156588023195267"><ele>38.0</ele><time>2026-04-22T08:11:05Z</time></trkpt><trkpt lat="41.956244573023525" lon="3.1567146267203983"><ele>38.0</ele><time>2026-04-22T08:11:06Z</time></trkpt><trkpt lat="41.956072509657396" lon="3.1568421877161925"><ele>38.0</ele><time>2026-04-22T08:11:07Z</time></trkpt><trkpt lat="41.9558978829034" lon="3.156970145203226"><ele>38.0</ele><time>2026-04-22T08:11:08Z</time></trkpt><trkpt lat="41.95572335559919" lon="3.1570909429619456"><ele>37.666666666666664</ele><time>2026-04-22T08:11:09Z</time></trkpt><trkpt lat="41.955545267247984" lon="3.1572083005409186"><ele>37.333333333333336</ele><time>2026-04-22T08:11:10Z</time></trkpt><trkpt lat="41.95536966099051" lon="3.157327391935603"><ele>37.0</ele><time>2026-04-22T08:11:11Z</time></trkpt><trkpt lat="41.9551959378719" lon="3.157450686347013"><ele>37.333333333333336</ele><time>2026-04-22T08:11:12Z</time></trkpt><trkpt lat="41.955023328748794" lon="3.1575794407051547"><ele>37.666666666666664</ele><time>2026-04-22T08:11:13Z</time></trkpt><trkpt lat="41.954852516606" lon="3.157710026069293"><ele>38.0</ele><time>2026-04-22T08:11:14Z</time></trkpt><trkpt lat="41.95468301631331" lon="3.1578444509251375"><ele>38.0</ele><time>2026-04-22T08:11:15Z</time></trkpt><trkpt lat="41.954515060915654" lon="3.15798070455337"><ele>38.0</ele><time>2026-04-22T08:11:16Z</time></trkpt><trkpt lat="41.95434481978604" lon="3.1581136245336094"><ele>38.0</ele><time>2026-04-22T08:11:17Z</time></trkpt><trkpt lat="41.95417413488702" lon="3.158241106624709"><ele>38.33333333333333</ele><time>2026-04-22T08:11:18Z</time></trkpt><trkpt lat="41.954002409845955" lon="3.1583696020231473"><ele>38.666666666666664</ele><time>2026-04-22T08:11:19Z</time></trkpt><trkpt lat="41.95383402055845" lon="3.1584989153458807"><ele>39.0</ele><time>2026-04-22T08:11:20Z</time></trkpt><trkpt lat="41.95366283190872" lon="3.158627284316951"><ele>39.0</ele><time>2026-04-22T08:11:21Z</time></trkpt><trkpt lat="41.95349616474617" lon="3.158760109430764"><ele>39.0</ele><time>2026-04-22T08:11:22Z</time></trkpt><trkpt lat="41.953338391770565" lon="3.1589102478636186"><ele>39.0</ele><time>2026-04-22T08:11:23Z</time></trkpt><trkpt lat="41.95319378682331" lon="3.159081840269943"><ele>39.0</ele><time>2026-04-22T08:11:24Z</time></trkpt><trkpt lat="41.95306627091703" lon="3.159274726053882"><ele>39.0</ele><time>2026-04-22T08:11:25Z</time></trkpt><trkpt lat="41.95295315013188" lon="3.159482562476804"><ele>39.0</ele><time>2026-04-22T08:11:26Z</time></trkpt><trkpt lat="41.952856296533064" lon="3.1597087763099645"><ele>40.0</ele><time>2026-04-22T08:11:27Z</time></trkpt><trkpt lat="41.95277725871171" lon="3.159942328774853"><ele>41.0</ele><time>2026-04-22T08:11:28Z</time></trkpt><trkpt lat="41.95271288887278" lon="3.1601890154744643"><ele>42.0</ele><time>2026-04-22T08:11:29Z</time></trkpt><trkpt lat="41.95266280543749" lon="3.1604386742032164"><ele>42.0</ele><time>2026-04-22T08:11:30Z</time></trkpt><trkpt lat="41.95261529445958" lon="3.1606909350451504"><ele>42.0</ele><time>2026-04-22T08:11:31Z</time></trkpt><trkpt lat="41.95256405004925" lon="3.160941774209796"><ele>42.0</ele><time>2026-04-22T08:11:32Z</time></trkpt><trkpt lat="41.95251223956911" lon="3.1611901417547266"><ele>42.0</ele><time>2026-04-22T08:11:33Z</time></trkpt><trkpt lat="41.95245925548287" lon="3.1614392969057357"><ele>42.0</ele><time>2026-04-22T08:11:34Z</time></trkpt><trkpt lat="41.9524069651995" lon="3.1616822154127613"><ele>42.0</ele><time>2026-04-22T08:11:35Z</time></trkpt><trkpt lat="41.952355610066355" lon="3.16193306867769"><ele>43.333333333333336</ele><time>2026-04-22T08:11:36Z</time></trkpt><trkpt lat="41.95230259854127" lon="3.162184582444349"><ele>44.66666666666667</ele><time>2026-04-22T08:11:37Z</time></trkpt><trkpt lat="41.95224967967941" lon="3.162434523464843"><ele>46.0</ele><time>2026-04-22T08:11:38Z</time></trkpt><trkpt lat="41.952196111995214" lon="3.16268832546319"><ele>46.333333333333336</ele><time>2026-04-22T08:11:39Z</time></trkpt><trkpt lat="41.952144627794794" lon="3.1629395869445527"><ele>46.666666666666664</ele><time>2026-04-22T08:11:40Z</time></trkpt><trkpt lat="41.95208941390082" lon="3.163193189686191"><ele>47.0</ele><time>2026-04-22T08:11:41Z</time></trkpt><trkpt lat="41.95203781066156" lon="3.1634348019720897"><ele>48.0</ele><time>2026-04-22T08:11:42Z</time></trkpt><trkpt lat="41.95198856599813" lon="3.163663674815248"><ele>49.0</ele><time>2026-04-22T08:11:43Z</time></trkpt><trkpt lat="41.951941339947844" lon="3.1638810507658444"><ele>50.0</ele><time>2026-04-22T08:11:44Z</time></trkpt><trkpt lat="41.95189778856472" lon="3.1640885875070874"><ele>50.75</ele><time>2026-04-22T08:11:45Z</time></trkpt><trkpt lat="41.95185580839095" lon="3.164284957746158"><ele>51.5</ele><time>2026-04-22T08:11:46Z</time></trkpt><trkpt lat="41.95181571470333" lon="3.164474444920676"><ele>52.25</ele><time>2026-04-22T08:11:47Z</time></trkpt><trkpt lat="41.95177796150298" lon="3.16465013843323"><ele>53.0</ele><time>2026-04-22T08:11:48Z</time></trkpt><trkpt lat="41.95174225436676" lon="3.164812832073637"><ele>53.599999999999994</ele><time>2026-04-22T08:11:49Z</time></trkpt><trkpt lat="41.951709204874426" lon="3.16496495547597"><ele>54.199999999999996</ele><time>2026-04-22T08:11:50Z</time></trkpt><trkpt lat="41.95167738941961" lon="3.1651061562438167"><ele>54.8</ele><time>2026-04-22T08:11:51Z</time></trkpt><trkpt lat="41.951651170862974" lon="3.165240983042285"><ele>55.4</ele><time>2026-04-22T08:11:52Z</time></trkpt><trkpt lat="41.95162344144698" lon="3.1653704027380365"><ele>56.0</ele><time>2026-04-22T08:11:53Z</time></trkpt><trkpt lat="41.95159763836014" lon="3.1654928327466414"><ele>56.00000000000001</ele><time>2026-04-22T08:11:54Z</time></trkpt><trkpt lat="41.95157245960347" lon="3.1656073691887245"><ele>56.0</ele><time>2026-04-22T08:11:55Z</time></trkpt><trkpt lat="41.95154872982033" lon="3.1657219967241677"><ele>56.0</ele><time>2026-04-22T08:11:56Z</time></trkpt><trkpt lat="41.951523832970686" lon="3.1658347092446877"><ele>56.0</ele><time>2026-04-22T08:11:57Z</time></trkpt><trkpt lat="41.951500024995646" lon="3.165953421831305"><ele>56.00000000000001</ele><time>2026-04-22T08:11:58Z</time></trkpt><trkpt lat="41.95146265909515" lon="3.1660665765646767"><ele>56.0</ele><time>2026-04-22T08:11:59Z</time></trkpt><trkpt lat="41.95143797765467" lon="3.1661829478790757"><ele>56.333333333333336</ele><time>2026-04-22T08:12:00Z</time></trkpt><trkpt lat="41.95141379652296" lon="3.1662983526954394"><ele>56.66666666666667</ele><time>2026-04-22T08:12:01Z</time></trkpt><trkpt lat="41.95139042026422" lon="3.1664102627481108"><ele>57.0</ele><time>2026-04-22T08:12:02Z</time></trkpt><trkpt lat="41.95136894929281" lon="3.1665190866571766"><ele>57.33333333333333</ele><time>2026-04-22T08:12:03Z</time></trkpt><trkpt lat="41.95134561614411" lon="3.166629160962291"><ele>57.666666666666664</ele><time>2026-04-22T08:12:04Z</time></trkpt><trkpt lat="41.95132173067884" lon="3.166739620267823"><ele>58.0</ele><time>2026-04-22T08:12:05Z</time></trkpt><trkpt lat="41.95129808243585" lon="3.1668457475737073"><ele>58.83333333333333</ele><time>2026-04-22T08:12:06Z</time></trkpt><trkpt lat="41.95127286414753" lon="3.166953575433498"><ele>59.666666666666664</ele><time>2026-04-22T08:12:07Z</time></trkpt><trkpt lat="41.95125029637174" lon="3.1670574301159196"><ele>60.5</ele><time>2026-04-22T08:12:08Z</time></trkpt><trkpt lat="41.95122986095765" lon="3.167154553797269"><ele>61.33333333333333</ele><time>2026-04-22T08:12:09Z</time></trkpt><trkpt lat="41.951211939658215" lon="3.167246639682941"><ele>62.166666666666664</ele><time>2026-04-22T08:12:10Z</time></trkpt><trkpt lat="41.95119027594057" lon="3.167330717131268"><ele>63.0</ele><time>2026-04-22T08:12:11Z</time></trkpt><trkpt lat="41.951128840535965" lon="3.167470375844925"><ele>63.0</ele><time>2026-04-22T08:12:13Z</time></trkpt><trkpt lat="41.951077615195075" lon="3.1675197913137887"><ele>63.0</ele><time>2026-04-22T08:12:14Z</time></trkpt><trkpt lat="41.951018284971084" lon="3.1675624447591035"><ele>63.0</ele><time>2026-04-22T08:12:15Z</time></trkpt><trkpt lat="41.950946795948674" lon="3.167593874654539"><ele>63.0</ele><time>2026-04-22T08:12:16Z</time></trkpt><trkpt lat="41.95087026550065" lon="3.167603401390172"><ele>63.0</ele><time>2026-04-22T08:12:17Z</time></trkpt><trkpt lat="41.95079302465961" lon="3.16758539030701"><ele>63.0</ele><time>2026-04-22T08:12:18Z</time></trkpt><trkpt lat="41.95072059926808" lon="3.167533680840159"><ele>63.0</ele><time>2026-04-22T08:12:19Z</time></trkpt><trkpt lat="41.950662043989716" lon="3.1674486789724616"><ele>62.0</ele><time>2026-04-22T08:12:20Z</time></trkpt><trkpt lat="41.95061103498558" lon="3.167341525595369"><ele>61.0</ele><time>2026-04-22T08:12:21Z</time></trkpt><trkpt lat="41.95056691219987" lon="3.167216981791866"><ele>60.0</ele><time>2026-04-22T08:12:22Z</time></trkpt><trkpt lat="41.950522334238855" lon="3.1670833024933147"><ele>59.0</ele><time>2026-04-22T08:12:23Z</time></trkpt><trkpt lat="41.95047028313036" lon="3.166948509658496"><ele>58.0</ele><time>2026-04-22T08:12:24Z</time></trkpt><trkpt lat="41.95040164171962" lon="3.1668185450528803"><ele>58.0</ele><time>2026-04-22T08:12:25Z</time></trkpt><trkpt lat="41.95031977082861" lon="3.1667074421300145"><ele>58.0</ele><time>2026-04-22T08:12:26Z</time></trkpt><trkpt lat="41.95021996140301" lon="3.16662239864627"><ele>58.0</ele><time>2026-04-22T08:12:27Z</time></trkpt><trkpt lat="41.95010469975608" lon="3.1665565016921717"><ele>58.0</ele><time>2026-04-22T08:12:28Z</time></trkpt><trkpt lat="41.949979057172236" lon="3.166502625736704"><ele>56.5</ele><time>2026-04-22T08:12:29Z</time></trkpt><trkpt lat="41.94984604381767" lon="3.1664442490529057"><ele>55.0</ele><time>2026-04-22T08:12:30Z</time></trkpt><trkpt lat="41.94970692015546" lon="3.166381188321644"><ele>53.5</ele><time>2026-04-22T08:12:31Z</time></trkpt><trkpt lat="41.94956844611696" lon="3.166317514495111"><ele>52.0</ele><time>2026-04-22T08:12:32Z</time></trkpt><trkpt lat="41.94942403841041" lon="3.166251931257467"><ele>52.0</ele><time>2026-04-22T08:12:33Z</time></trkpt><trkpt lat="41.949275825035414" lon="3.1661866603918636"><ele>52.0</ele><time>2026-04-22T08:12:34Z</time></trkpt><trkpt lat="41.94912128728545" lon="3.16611867648052"><ele>52.0</ele><time>2026-04-22T08:12:35Z</time></trkpt><trkpt lat="41.948962765268114" lon="3.166048709670662"><ele>51.33333333333333</ele><time>2026-04-22T08:12:36Z</time></trkpt><trkpt lat="41.94879323177829" lon="3.165972261706542"><ele>50.66666666666667</ele><time>2026-04-22T08:12:37Z</time></trkpt><trkpt lat="41.948628528261054" lon="3.1658979785123744"><ele>50.0</ele><time>2026-04-22T08:12:38Z</time></trkpt><trkpt lat="41.94845909180834" lon="3.1658253400787038"><ele>48.66666666666667</ele><time>2026-04-22T08:12:39Z</time></trkpt><trkpt lat="41.94828595730495" lon="3.165746924478931"><ele>47.333333333333336</ele><time>2026-04-22T08:12:40Z</time></trkpt><trkpt lat="41.94811333440722" lon="3.1656699695064168"><ele>46.0</ele><time>2026-04-22T08:12:41Z</time></trkpt><trkpt lat="41.94793563043944" lon="3.1655915148824927"><ele>45.66666666666667</ele><time>2026-04-22T08:12:42Z</time></trkpt><trkpt lat="41.94775661090211" lon="3.1655119132783"><ele>45.333333333333336</ele><time>2026-04-22T08:12:43Z</time></trkpt><trkpt lat="41.94757683207006" lon="3.1654340111802735"><ele>45.0</ele><time>2026-04-22T08:12:44Z</time></trkpt><trkpt lat="41.94739595392" lon="3.1653551858641116"><ele>44.0</ele><time>2026-04-22T08:12:45Z</time></trkpt><trkpt lat="41.94721330315266" lon="3.1652738152440976"><ele>43.0</ele><time>2026-04-22T08:12:46Z</time></trkpt><trkpt lat="41.94703031247987" lon="3.165193727293914"><ele>42.0</ele><time>2026-04-22T08:12:47Z</time></trkpt><trkpt lat="41.94684485024575" lon="3.1651143741232133"><ele>41.666666666666664</ele><time>2026-04-22T08:12:48Z</time></trkpt><trkpt lat="41.94665912897145" lon="3.165031304169445"><ele>41.33333333333333</ele><time>2026-04-22T08:12:49Z</time></trkpt><trkpt lat="41.946474030713894" lon="3.1649490719506583"><ele>41.0</ele><time>2026-04-22T08:12:50Z</time></trkpt><trkpt lat="41.946288973049136" lon="3.164865738475958"><ele>41.0</ele><time>2026-04-22T08:12:51Z</time></trkpt><trkpt lat="41.946100689669194" lon="3.1647806131402993"><ele>41.0</ele><time>2026-04-22T08:12:52Z</time></trkpt><trkpt lat="41.94591662000133" lon="3.1646985447456397"><ele>41.0</ele><time>2026-04-22T08:12:53Z</time></trkpt><trkpt lat="41.94573638150201" lon="3.1646198367199676"><ele>40.0</ele><time>2026-04-22T08:12:54Z</time></trkpt><trkpt lat="41.94555202967559" lon="3.1645356953249757"><ele>39.0</ele><time>2026-04-22T08:12:55Z</time></trkpt><trkpt lat="41.945369860784275" lon="3.1644541518291187"><ele>38.0</ele><time>2026-04-22T08:12:56Z</time></trkpt><trkpt lat="41.945188957467515" lon="3.1643750273798985"><ele>38.666666666666664</ele><time>2026-04-22T08:12:57Z</time></trkpt><trkpt lat="41.94500664739256" lon="3.1642941777503766"><ele>39.333333333333336</ele><time>2026-04-22T08:12:58Z</time></trkpt><trkpt lat="41.94482417028631" lon="3.164214242438211"><ele>40.0</ele><time>2026-04-22T08:12:59Z</time></trkpt><trkpt lat="41.94464267244459" lon="3.164131689391077"><ele>40.0</ele><time>2026-04-22T08:13:00Z</time></trkpt><trkpt lat="41.944460040685485" lon="3.164054174721165"><ele>40.0</ele><time>2026-04-22T08:13:01Z</time></trkpt><trkpt lat="41.94427677661741" lon="3.16397232521004"><ele>40.0</ele><time>2026-04-22T08:13:02Z</time></trkpt><trkpt lat="41.94409253608521" lon="3.163892511347653"><ele>42.66666666666667</ele><time>2026-04-22T08:13:03Z</time></trkpt><trkpt lat="41.9439085474889" lon="3.1638101147062456"><ele>45.333333333333336</ele><time>2026-04-22T08:13:04Z</time></trkpt><trkpt lat="41.943724440626404" lon="3.163730115663682"><ele>48.0</ele><time>2026-04-22T08:13:05Z</time></trkpt><trkpt lat="41.943542415417625" lon="3.1636499735801213"><ele>48.66666666666667</ele><time>2026-04-22T08:13:06Z</time></trkpt><trkpt lat="41.94335697697734" lon="3.163570841126737"><ele>49.333333333333336</ele><time>2026-04-22T08:13:07Z</time></trkpt><trkpt lat="41.943170907230645" lon="3.16348707106361"><ele>50.0</ele><time>2026-04-22T08:13:08Z</time></trkpt><trkpt lat="41.94298308710308" lon="3.1634078089916438"><ele>50.0</ele><time>2026-04-22T08:13:09Z</time></trkpt><trkpt lat="41.942798468815674" lon="3.16332314187834"><ele>50.0</ele><time>2026-04-22T08:13:10Z</time></trkpt><trkpt lat="41.942617749690285" lon="3.1632385595318495"><ele>50.0</ele><time>2026-04-22T08:13:11Z</time></trkpt><trkpt lat="41.94242719124044" lon="3.163154560527606"><ele>48.0</ele><time>2026-04-22T08:13:12Z</time></trkpt><trkpt lat="41.94223823975072" lon="3.163066971436242"><ele>46.0</ele><time>2026-04-22T08:13:13Z</time></trkpt><trkpt lat="41.94205019090307" lon="3.1629808323488975"><ele>44.0</ele><time>2026-04-22T08:13:14Z</time></trkpt><trkpt lat="41.9418631845072" lon="3.162893931434988"><ele>44.0</ele><time>2026-04-22T08:13:15Z</time></trkpt><trkpt lat="41.94167982832152" lon="3.1628143196155816"><ele>44.0</ele><time>2026-04-22T08:13:16Z</time></trkpt><trkpt lat="41.94149065057844" lon="3.162732964256966"><ele>44.0</ele><time>2026-04-22T08:13:17Z</time></trkpt><trkpt lat="41.94130604413306" lon="3.162649113660356"><ele>44.0</ele><time>2026-04-22T08:13:18Z</time></trkpt><trkpt lat="41.941121583957305" lon="3.162566061370927"><ele>44.0</ele><time>2026-04-22T08:13:19Z</time></trkpt><trkpt lat="41.940934389468374" lon="3.162485150961742"><ele>44.0</ele><time>2026-04-22T08:13:20Z</time></trkpt><trkpt lat="41.940748183054296" lon="3.16240292598192"><ele>44.0</ele><time>2026-04-22T08:13:21Z</time></trkpt><trkpt lat="41.94056418436988" lon="3.1623211423557067"><ele>44.0</ele><time>2026-04-22T08:13:22Z</time></trkpt><trkpt lat="41.94038214764864" lon="3.162241141375102"><ele>44.0</ele><time>2026-04-22T08:13:23Z</time></trkpt><trkpt lat="41.94019946751611" lon="3.162157633701867"><ele>46.0</ele><time>2026-04-22T08:13:24Z</time></trkpt><trkpt lat="41.94001498323175" lon="3.1620747152370807"><ele>48.0</ele><time>2026-04-22T08:13:25Z</time></trkpt><trkpt lat="41.939836457708786" lon="3.1619932461945215"><ele>50.0</ele><time>2026-04-22T08:13:26Z</time></trkpt><trkpt lat="41.93965073320462" lon="3.1619086609384337"><ele>50.0</ele><time>2026-04-22T08:13:27Z</time></trkpt><trkpt lat="41.93946533909633" lon="3.1618279560614573"><ele>50.0</ele><time>2026-04-22T08:13:28Z</time></trkpt><trkpt lat="41.93928032989573" lon="3.1617510031860903"><ele>50.0</ele><time>2026-04-22T08:13:29Z</time></trkpt><trkpt lat="41.93909452624685" lon="3.1616643652457572"><ele>50.333333333333336</ele><time>2026-04-22T08:13:30Z</time></trkpt><trkpt lat="41.938911708174764" lon="3.1615779523117924"><ele>50.66666666666667</ele><time>2026-04-22T08:13:31Z</time></trkpt><trkpt lat="41.9387295538817" lon="3.1614913335795465"><ele>51.0</ele><time>2026-04-22T08:13:32Z</time></trkpt><trkpt lat="41.93854469696364" lon="3.161407311647734"><ele>47.333333333333336</ele><time>2026-04-22T08:13:33Z</time></trkpt><trkpt lat="41.93835473175772" lon="3.1613245852928085"><ele>43.66666666666667</ele><time>2026-04-22T08:13:34Z</time></trkpt><trkpt lat="41.93816813810569" lon="3.1612411703279863"><ele>40.0</ele><time>2026-04-22T08:13:35Z</time></trkpt><trkpt lat="41.93798067104059" lon="3.1611579950881077"><ele>40.0</ele><time>2026-04-22T08:13:36Z</time></trkpt><trkpt lat="41.93779263741578" lon="3.1610720231977534"><ele>40.0</ele><time>2026-04-22T08:13:37Z</time></trkpt><trkpt lat="41.937605490715605" lon="3.1609913472076587"><ele>40.0</ele><time>2026-04-22T08:13:38Z</time></trkpt><trkpt lat="41.93741822564029" lon="3.160907727848956"><ele>39.66666666666667</ele><time>2026-04-22T08:13:39Z</time></trkpt><trkpt lat="41.93723194931693" lon="3.160824613542646"><ele>39.333333333333336</ele><time>2026-04-22T08:13:40Z</time></trkpt><trkpt lat="41.93705461050178" lon="3.160743712907915"><ele>39.0</ele><time>2026-04-22T08:13:41Z</time></trkpt><trkpt lat="41.936880180844724" lon="3.16066709821089"><ele>38.0</ele><time>2026-04-22T08:13:42Z</time></trkpt><trkpt lat="41.93671218028353" lon="3.160593089951574"><ele>37.0</ele><time>2026-04-22T08:13:43Z</time></trkpt><trkpt lat="41.93654435063097" lon="3.160517829694574"><ele>36.0</ele><time>2026-04-22T08:13:44Z</time></trkpt><trkpt lat="41.93637369358067" lon="3.1604400140230595"><ele>36.0</ele><time>2026-04-22T08:13:45Z</time></trkpt><trkpt lat="41.93620307642199" lon="3.160362813024378"><ele>36.0</ele><time>2026-04-22T08:13:46Z</time></trkpt><trkpt lat="41.93603021885894" lon="3.160287851676892"><ele>36.0</ele><time>2026-04-22T08:13:47Z</time></trkpt><trkpt lat="41.93585552272736" lon="3.160211084913716"><ele>35.666666666666664</ele><time>2026-04-22T08:13:48Z</time></trkpt><trkpt lat="41.93567827219932" lon="3.1601395785120765"><ele>35.33333333333333</ele><time>2026-04-22T08:13:49Z</time></trkpt><trkpt lat="41.935509291867575" lon="3.160066852158467"><ele>35.0</ele><time>2026-04-22T08:13:50Z</time></trkpt><trkpt lat="41.93533995232774" lon="3.1599933774730826"><ele>35.0</ele><time>2026-04-22T08:13:51Z</time></trkpt><trkpt lat="41.93518049542763" lon="3.1599204248541466"><ele>35.0</ele><time>2026-04-22T08:13:52Z</time></trkpt><trkpt lat="41.93502569983125" lon="3.1598471218011652"><ele>35.0</ele><time>2026-04-22T08:13:53Z</time></trkpt><trkpt lat="41.9348817061653" lon="3.1597824333347453"><ele>35.75</ele><time>2026-04-22T08:13:54Z</time></trkpt><trkpt lat="41.9347389221537" lon="3.1597200482274737"><ele>36.5</ele><time>2026-04-22T08:13:55Z</time></trkpt><trkpt lat="41.93459715183091" lon="3.1596596852928474"><ele>37.25</ele><time>2026-04-22T08:13:56Z</time></trkpt><trkpt lat="41.9344562848665" lon="3.159597426849526"><ele>38.0</ele><time>2026-04-22T08:13:57Z</time></trkpt><trkpt lat="41.93431765980812" lon="3.159536555129175"><ele>38.25</ele><time>2026-04-22T08:13:58Z</time></trkpt><trkpt lat="41.93418192622551" lon="3.159476369383132"><ele>38.5</ele><time>2026-04-22T08:13:59Z</time></trkpt><trkpt lat="41.93404612497121" lon="3.159414598787248"><ele>38.75</ele><time>2026-04-22T08:14:00Z</time></trkpt><trkpt lat="41.93390909552992" lon="3.1593532208635193"><ele>39.0</ele><time>2026-04-22T08:14:01Z</time></trkpt><trkpt lat="41.93377869774422" lon="3.1592936742476065"><ele>39.0</ele><time>2026-04-22T08:14:02Z</time></trkpt><trkpt lat="41.93364978020004" lon="3.1592349584899346"><ele>39.0</ele><time>2026-04-22T08:14:03Z</time></trkpt><trkpt lat="41.933521177102755" lon="3.1591783110460017"><ele>39.0</ele><time>2026-04-22T08:14:04Z</time></trkpt><trkpt lat="41.933397426542356" lon="3.1591252933479312"><ele>39.0</ele><time>2026-04-22T08:14:05Z</time></trkpt><trkpt lat="41.93328024944538" lon="3.159073269083602"><ele>38.8</ele><time>2026-04-22T08:14:06Z</time></trkpt><trkpt lat="41.9331722487878" lon="3.159026246651329"><ele>38.599999999999994</ele><time>2026-04-22T08:14:07Z</time></trkpt><trkpt lat="41.93307202120873" lon="3.158979061781153"><ele>38.4</ele><time>2026-04-22T08:14:08Z</time></trkpt><trkpt lat="41.93298217210679" lon="3.15893819986471"><ele>38.199999999999996</ele><time>2026-04-22T08:14:09Z</time></trkpt><trkpt lat="41.93289791595862" lon="3.158899930949214"><ele>38.0</ele><time>2026-04-22T08:14:10Z</time></trkpt><trkpt lat="41.93282053545347" lon="3.1588654241006493"><ele>38.0</ele><time>2026-04-22T08:14:11Z</time></trkpt><trkpt lat="41.93275435961499" lon="3.158832757089853"><ele>38.0</ele><time>2026-04-22T08:14:12Z</time></trkpt><trkpt lat="41.93264713117898" lon="3.158765693332724"><ele>38.0</ele><time>2026-04-22T08:14:14Z</time></trkpt><trkpt lat="41.93256538121135" lon="3.158651491094662"><ele>38.0</ele><time>2026-04-22T08:14:16Z</time></trkpt><trkpt lat="41.93249686240733" lon="3.158512326102775"><ele>38.0</ele><time>2026-04-22T08:14:18Z</time></trkpt><trkpt lat="41.93238023899639" lon="3.1584533648668645"><ele>38.14285714285714</ele><time>2026-04-22T08:14:20Z</time></trkpt><trkpt lat="41.93231117576817" lon="3.1584579537784476"><ele>38.28571428571429</ele><time>2026-04-22T08:14:21Z</time></trkpt><trkpt lat="41.93224742738067" lon="3.1584822075830306"><ele>38.42857142857143</ele><time>2026-04-22T08:14:22Z</time></trkpt><trkpt lat="41.9321802937343" lon="3.158508940043781"><ele>38.57142857142857</ele><time>2026-04-22T08:14:23Z</time></trkpt><trkpt lat="41.932108857475264" lon="3.1585194763619286"><ele>38.71428571428571</ele><time>2026-04-22T08:14:24Z</time></trkpt><trkpt lat="41.93203216443555" lon="3.1585028150513095"><ele>38.85714285714286</ele><time>2026-04-22T08:14:25Z</time></trkpt><trkpt lat="41.93195354159678" lon="3.1584694845326595"><ele>39.0</ele><time>2026-04-22T08:14:26Z</time></trkpt><trkpt lat="41.93186767063693" lon="3.1584323306543736"><ele>39.0</ele><time>2026-04-22T08:14:27Z</time></trkpt><trkpt lat="41.9317682584622" lon="3.158386663579579"><ele>39.0</ele><time>2026-04-22T08:14:28Z</time></trkpt><trkpt lat="41.93166341965314" lon="3.1583390101670354"><ele>39.0</ele><time>2026-04-22T08:14:29Z</time></trkpt><trkpt lat="41.93155085951163" lon="3.158290969126269"><ele>39.0</ele><time>2026-04-22T08:14:30Z</time></trkpt><trkpt lat="41.93143278607528" lon="3.1582379234328357"><ele>38.5</ele><time>2026-04-22T08:14:31Z</time></trkpt><trkpt lat="41.93131246327638" lon="3.1581833395356265"><ele>38.0</ele><time>2026-04-22T08:14:32Z</time></trkpt><trkpt lat="41.931194254075486" lon="3.158130873731933"><ele>37.5</ele><time>2026-04-22T08:14:33Z</time></trkpt><trkpt lat="41.93107144408143" lon="3.1580769207816455"><ele>37.0</ele><time>2026-04-22T08:14:34Z</time></trkpt><trkpt lat="41.93094987753705" lon="3.1580239583657246"><ele>38.0</ele><time>2026-04-22T08:14:35Z</time></trkpt><trkpt lat="41.93082533796766" lon="3.157968592488962"><ele>39.0</ele><time>2026-04-22T08:14:36Z</time></trkpt><trkpt lat="41.93069927530056" lon="3.1579118296545317"><ele>40.0</ele><time>2026-04-22T08:14:37Z</time></trkpt><trkpt lat="41.930555465238626" lon="3.1578417033310524"><ele>41.0</ele><time>2026-04-22T08:14:38Z</time></trkpt><trkpt lat="41.930438977846954" lon="3.157789260180233"><ele>41.0</ele><time>2026-04-22T08:14:39Z</time></trkpt><trkpt lat="41.93032031786803" lon="3.1577377041810295"><ele>41.0</ele><time>2026-04-22T08:14:40Z</time></trkpt><trkpt lat="41.93019717191212" lon="3.157683928680438"><ele>41.0</ele><time>2026-04-22T08:14:41Z</time></trkpt><trkpt lat="41.93007331348985" lon="3.1576307897714915"><ele>41.0</ele><time>2026-04-22T08:14:42Z</time></trkpt><trkpt lat="41.92995189901421" lon="3.1575756489501794"><ele>40.75</ele><time>2026-04-22T08:14:43Z</time></trkpt><trkpt lat="41.929833655312045" lon="3.157524992301846"><ele>40.5</ele><time>2026-04-22T08:14:44Z</time></trkpt><trkpt lat="41.92972198896828" lon="3.157476283122119"><ele>40.25</ele><time>2026-04-22T08:14:45Z</time></trkpt><trkpt lat="41.92961298320389" lon="3.1574288446515695"><ele>40.0</ele><time>2026-04-22T08:14:46Z</time></trkpt><trkpt lat="41.92951194460621" lon="3.157383337353279"><ele>39.8</ele><time>2026-04-22T08:14:47Z</time></trkpt><trkpt lat="41.929410944208534" lon="3.1573367308656"><ele>39.6</ele><time>2026-04-22T08:14:48Z</time></trkpt><trkpt lat="41.92930909073748" lon="3.1572904719295996"><ele>39.4</ele><time>2026-04-22T08:14:49Z</time></trkpt><trkpt lat="41.92920746112769" lon="3.157243019309055"><ele>39.2</ele><time>2026-04-22T08:14:50Z</time></trkpt><trkpt lat="41.92910594948331" lon="3.1571974629327824"><ele>39.0</ele><time>2026-04-22T08:14:51Z</time></trkpt><trkpt lat="41.929003378686666" lon="3.157151868693227"><ele>39.0</ele><time>2026-04-22T08:14:52Z</time></trkpt><trkpt lat="41.928901674945436" lon="3.157104279798972"><ele>39.0</ele><time>2026-04-22T08:14:53Z</time></trkpt><trkpt lat="41.928801893946215" lon="3.15705801180012"><ele>39.0</ele><time>2026-04-22T08:14:54Z</time></trkpt><trkpt lat="41.9287026673007" lon="3.1570123901422074"><ele>39.0</ele><time>2026-04-22T08:14:55Z</time></trkpt><trkpt lat="41.92860682936789" lon="3.1569664103649253"><ele>39.0</ele><time>2026-04-22T08:14:56Z</time></trkpt><trkpt lat="41.928514038148734" lon="3.156924404310929"><ele>39.0</ele><time>2026-04-22T08:14:57Z</time></trkpt><trkpt lat="41.92842520755323" lon="3.1568836663038624"><ele>39.0</ele><time>2026-04-22T08:14:58Z</time></trkpt><trkpt lat="41.928343856089185" lon="3.156849153719098"><ele>39.0</ele><time>2026-04-22T08:14:59Z</time></trkpt><trkpt lat="41.92827020010358" lon="3.156818417362235"><ele>39.0</ele><time>2026-04-22T08:15:00Z</time></trkpt><trkpt lat="41.92820791066166" lon="3.156783327068191"><ele>39.0</ele><time>2026-04-22T08:15:01Z</time></trkpt><trkpt lat="41.9281143282964" lon="3.1566928340667864"><ele>39.0</ele><time>2026-04-22T08:15:03Z</time></trkpt><trkpt lat="41.92802948949583" lon="3.156579451738588"><ele>39.666666666666664</ele><time>2026-04-22T08:15:05Z</time></trkpt><trkpt lat="41.92790586854263" lon="3.1565605193320074"><ele>40.333333333333336</ele><time>2026-04-22T08:15:07Z</time></trkpt><trkpt lat="41.92784340525887" lon="3.1565762123195173"><ele>41.0</ele><time>2026-04-22T08:15:08Z</time></trkpt><trkpt lat="41.92777153123983" lon="3.156578602589972"><ele>41.66666666666667</ele><time>2026-04-22T08:15:09Z</time></trkpt><trkpt lat="41.927697815022086" lon="3.1565629911175117"><ele>42.333333333333336</ele><time>2026-04-22T08:15:10Z</time></trkpt><trkpt lat="41.92762510104707" lon="3.1565356192939964"><ele>43.0</ele><time>2026-04-22T08:15:11Z</time></trkpt><trkpt lat="41.92754369400173" lon="3.1565012311195537"><ele>44.4</ele><time>2026-04-22T08:15:12Z</time></trkpt><trkpt lat="41.927460466865796" lon="3.1564697269466375"><ele>45.8</ele><time>2026-04-22T08:15:13Z</time></trkpt><trkpt lat="41.92737315604393" lon="3.156437892376902"><ele>47.2</ele><time>2026-04-22T08:15:14Z</time></trkpt><trkpt lat="41.92728235664358" lon="3.1564049542639716"><ele>48.6</ele><time>2026-04-22T08:15:15Z</time></trkpt><trkpt lat="41.92718294615327" lon="3.15636446993518"><ele>50.0</ele><time>2026-04-22T08:15:16Z</time></trkpt><trkpt lat="41.927081946407675" lon="3.1563255683262157"><ele>50.0</ele><time>2026-04-22T08:15:17Z</time></trkpt><trkpt lat="41.92697534268178" lon="3.1562855438274315"><ele>50.0</ele><time>2026-04-22T08:15:18Z</time></trkpt><trkpt lat="41.926864437905614" lon="3.156240602259379"><ele>50.0</ele><time>2026-04-22T08:15:19Z</time></trkpt><trkpt lat="41.92675183030631" lon="3.1561980213650584"><ele>50.0</ele><time>2026-04-22T08:15:20Z</time></trkpt><trkpt lat="41.92663791066379" lon="3.1561543396595795"><ele>50.6</ele><time>2026-04-22T08:15:21Z</time></trkpt><trkpt lat="41.92653112058901" lon="3.1561151699145467"><ele>51.2</ele><time>2026-04-22T08:15:22Z</time></trkpt><trkpt lat="41.92642666667281" lon="3.156081947902832"><ele>51.8</ele><time>2026-04-22T08:15:23Z</time></trkpt><trkpt lat="41.926331135303634" lon="3.156049737872861"><ele>52.4</ele><time>2026-04-22T08:15:24Z</time></trkpt><trkpt lat="41.92623203628441" lon="3.156018395021792"><ele>53.0</ele><time>2026-04-22T08:15:25Z</time></trkpt><trkpt lat="41.92613544940848" lon="3.1559842250802514"><ele>53.0</ele><time>2026-04-22T08:15:26Z</time></trkpt><trkpt lat="41.92603529014076" lon="3.1559507113912146"><ele>53.0</ele><time>2026-04-22T08:15:27Z</time></trkpt><trkpt lat="41.925935508528816" lon="3.1559155987515695"><ele>53.0</ele><time>2026-04-22T08:15:28Z</time></trkpt><trkpt lat="41.9258364221267" lon="3.1558808604841535"><ele>53.0</ele><time>2026-04-22T08:15:29Z</time></trkpt><trkpt lat="41.925736424569614" lon="3.1558453568779172"><ele>53.0</ele><time>2026-04-22T08:15:30Z</time></trkpt><trkpt lat="41.925637257420135" lon="3.1558114360383276"><ele>53.0</ele><time>2026-04-22T08:15:31Z</time></trkpt><trkpt lat="41.92554058163973" lon="3.1557768923132596"><ele>53.0</ele><time>2026-04-22T08:15:32Z</time></trkpt><trkpt lat="41.92544658753182" lon="3.1557407936073174"><ele>53.0</ele><time>2026-04-22T08:15:33Z</time></trkpt><trkpt lat="41.92535325955259" lon="3.155700081072358"><ele>53.0</ele><time>2026-04-22T08:15:34Z</time></trkpt><trkpt lat="41.92526915675116" lon="3.1556531554676526"><ele>53.0</ele><time>2026-04-22T08:15:35Z</time></trkpt><trkpt lat="41.92519446439214" lon="3.1555880220878785"><ele>52.8</ele><time>2026-04-22T08:15:36Z</time></trkpt><trkpt lat="41.92512487044167" lon="3.1555047298785177"><ele>52.599999999999994</ele><time>2026-04-22T08:15:37Z</time></trkpt><trkpt lat="41.925057987200795" lon="3.155409264126491"><ele>52.400000000000006</ele><time>2026-04-22T08:15:38Z</time></trkpt><trkpt lat="41.925000803031004" lon="3.155297046892881"><ele>52.2</ele><time>2026-04-22T08:15:39Z</time></trkpt><trkpt lat="41.92495358722305" lon="3.1551715694626594"><ele>52.0</ele><time>2026-04-22T08:15:40Z</time></trkpt><trkpt lat="41.92491357334625" lon="3.1550361019272075"><ele>52.0</ele><time>2026-04-22T08:15:41Z</time></trkpt><trkpt lat="41.924881372739485" lon="3.1548922214677546"><ele>52.0</ele><time>2026-04-22T08:15:42Z</time></trkpt><trkpt lat="41.92483736722877" lon="3.1547483021777505"><ele>52.0</ele><time>2026-04-22T08:15:43Z</time></trkpt><trkpt lat="41.92479413908576" lon="3.1546026071063547"><ele>52.0</ele><time>2026-04-22T08:15:44Z</time></trkpt><trkpt lat="41.924752887542624" lon="3.154455846482165"><ele>51.0</ele><time>2026-04-22T08:15:45Z</time></trkpt><trkpt lat="41.92471001176421" lon="3.154312812195431"><ele>50.0</ele><time>2026-04-22T08:15:46Z</time></trkpt><trkpt lat="41.924671362278964" lon="3.1541740048837306"><ele>49.0</ele><time>2026-04-22T08:15:47Z</time></trkpt><trkpt lat="41.92463335899044" lon="3.1540379678794337"><ele>48.0</ele><time>2026-04-22T08:15:48Z</time></trkpt><trkpt lat="41.92460352056819" lon="3.1539043968376816"><ele>47.0</ele><time>2026-04-22T08:15:49Z</time></trkpt><trkpt lat="41.924580162544146" lon="3.1537789110000567"><ele>47.0</ele><time>2026-04-22T08:15:50Z</time></trkpt><trkpt lat="41.9245611051748" lon="3.1536662668748843"><ele>47.0</ele><time>2026-04-22T08:15:51Z</time></trkpt><trkpt lat="41.92454858411911" lon="3.1535648603816226"><ele>47.0</ele><time>2026-04-22T08:15:52Z</time></trkpt><trkpt lat="41.924542332073734" lon="3.1534788281115835"><ele>47.0</ele><time>2026-04-22T08:15:53Z</time></trkpt><trkpt lat="41.92454806862566" lon="3.1533276894376256"><ele>47.0</ele><time>2026-04-22T08:15:55Z</time></trkpt><trkpt lat="41.924593708556024" lon="3.1532026234479806"><ele>47.0</ele><time>2026-04-22T08:15:57Z</time></trkpt><trkpt lat="41.92467742589055" lon="3.153094770741271"><ele>47.2</ele><time>2026-04-22T08:15:59Z</time></trkpt><trkpt lat="41.924726224264504" lon="3.1529468040944146"><ele>47.400000000000006</ele><time>2026-04-22T08:16:01Z</time></trkpt><trkpt lat="41.924724592850076" lon="3.1528615219549505"><ele>47.599999999999994</ele><time>2026-04-22T08:16:02Z</time></trkpt><trkpt lat="41.924701932976504" lon="3.152779422233642"><ele>47.8</ele><time>2026-04-22T08:16:03Z</time></trkpt><trkpt lat="41.92460467835861" lon="3.1526865551642254"><ele>48.0</ele><time>2026-04-22T08:16:05Z</time></trkpt><trkpt lat="41.92449019791026" lon="3.152698779429581"><ele>48.0</ele><time>2026-04-22T08:16:07Z</time></trkpt><trkpt lat="41.92439654581437" lon="3.1527915490354683"><ele>48.0</ele><time>2026-04-22T08:16:09Z</time></trkpt><trkpt lat="41.92429479414243" lon="3.1528748007630223"><ele>48.0</ele><time>2026-04-22T08:16:11Z</time></trkpt><trkpt lat="41.92423216049378" lon="3.1529062380057558"><ele>48.0</ele><time>2026-04-22T08:16:12Z</time></trkpt><trkpt lat="41.92417270360775" lon="3.1529440236539727"><ele>48.0</ele><time>2026-04-22T08:16:13Z</time></trkpt><trkpt lat="41.92411548742724" lon="3.1529904203790755"><ele>48.0</ele><time>2026-04-22T08:16:14Z</time></trkpt><trkpt lat="41.924061871179994" lon="3.1530418821057986"><ele>48.599999999999994</ele><time>2026-04-22T08:16:15Z</time></trkpt><trkpt lat="41.92400829686613" lon="3.1530918948089273"><ele>49.199999999999996</ele><time>2026-04-22T08:16:16Z</time></trkpt><trkpt lat="41.92390289046912" lon="3.1531839206566805"><ele>49.8</ele><time>2026-04-22T08:16:18Z</time></trkpt><trkpt lat="41.92379958240074" lon="3.153274214154929"><ele>50.4</ele><time>2026-04-22T08:16:20Z</time></trkpt><trkpt lat="41.92369668503351" lon="3.153368154690238"><ele>51.0</ele><time>2026-04-22T08:16:22Z</time></trkpt><trkpt lat="41.92359177854539" lon="3.1534652139121606"><ele>51.0</ele><time>2026-04-22T08:16:24Z</time></trkpt><trkpt lat="41.923539567464296" lon="3.153514810593941"><ele>51.0</ele><time>2026-04-22T08:16:25Z</time></trkpt><trkpt lat="41.923486255403375" lon="3.153563238597931"><ele>51.0</ele><time>2026-04-22T08:16:26Z</time></trkpt><trkpt lat="41.92343397608348" lon="3.1536123841707453"><ele>51.0</ele><time>2026-04-22T08:16:27Z</time></trkpt><trkpt lat="41.923381793970286" lon="3.153660785042383"><ele>51.0</ele><time>2026-04-22T08:16:28Z</time></trkpt><trkpt lat="41.92332673218001" lon="3.153708823626533"><ele>51.0</ele><time>2026-04-22T08:16:29Z</time></trkpt><trkpt lat="41.92327296741113" lon="3.153756236562084"><ele>51.0</ele><time>2026-04-22T08:16:30Z</time></trkpt><trkpt lat="41.92322020407386" lon="3.1538047665765565"><ele>51.0</ele><time>2026-04-22T08:16:31Z</time></trkpt><trkpt lat="41.923166650570046" lon="3.153851477653042"><ele>51.599999999999994</ele><time>2026-04-22T08:16:32Z</time></trkpt><trkpt lat="41.923063261420104" lon="3.1539453424776416"><ele>52.2</ele><time>2026-04-22T08:16:34Z</time></trkpt><trkpt lat="41.92296390140022" lon="3.1540339910773385"><ele>52.800000000000004</ele><time>2026-04-22T08:16:36Z</time></trkpt><trkpt lat="41.922873950218424" lon="3.154115671484341"><ele>53.400000000000006</ele><time>2026-04-22T08:16:38Z</time></trkpt><trkpt lat="41.9228034136139" lon="3.154184527572685"><ele>54.0</ele><time>2026-04-22T08:16:40Z</time></trkpt><trkpt lat="41.92273950577668" lon="3.154241215161648"><ele>54.0</ele><time>2026-04-22T08:16:42Z</time></trkpt><trkpt lat="41.922663399751265" lon="3.154308449517386"><ele>54.0</ele><time>2026-04-22T08:16:44Z</time></trkpt><trkpt lat="41.9225550442103" lon="3.154395639186191"><ele>54.0</ele><time>2026-04-22T08:16:46Z</time></trkpt><trkpt lat="41.92249169463245" lon="3.154438358352612"><ele>54.0</ele><time>2026-04-22T08:16:47Z</time></trkpt><trkpt lat="41.92242412236164" lon="3.154479192259601"><ele>54.0</ele><time>2026-04-22T08:16:48Z</time></trkpt><trkpt lat="41.922351700396554" lon="3.1545151449616387"><ele>54.0</ele><time>2026-04-22T08:16:49Z</time></trkpt><trkpt lat="41.92227746360991" lon="3.1545454619387265"><ele>55.0</ele><time>2026-04-22T08:16:50Z</time></trkpt><trkpt lat="41.92220243846232" lon="3.1545719028487222"><ele>56.0</ele><time>2026-04-22T08:16:51Z</time></trkpt><trkpt lat="41.92212811517048" lon="3.1545909090732143"><ele>57.0</ele><time>2026-04-22T08:16:52Z</time></trkpt><trkpt lat="41.92205288599682" lon="3.15461309843558"><ele>58.0</ele><time>2026-04-22T08:16:53Z</time></trkpt><trkpt lat="41.921979050398534" lon="3.1546367261070536"><ele>59.0</ele><time>2026-04-22T08:16:54Z</time></trkpt><trkpt lat="41.92190376373781" lon="3.154660987999162"><ele>60.0</ele><time>2026-04-22T08:16:55Z</time></trkpt><trkpt lat="41.92182824411045" lon="3.1546820867456424"><ele>60.0</ele><time>2026-04-22T08:16:56Z</time></trkpt><trkpt lat="41.921751004907264" lon="3.1546987533855426"><ele>60.0</ele><time>2026-04-22T08:16:57Z</time></trkpt><trkpt lat="41.92167304520671" lon="3.1547187851968057"><ele>60.0</ele><time>2026-04-22T08:16:58Z</time></trkpt><trkpt lat="41.92159773831013" lon="3.154757216587571"><ele>60.0</ele><time>2026-04-22T08:16:59Z</time></trkpt><trkpt lat="41.92152032157458" lon="3.1547787619542373"><ele>60.0</ele><time>2026-04-22T08:17:00Z</time></trkpt><trkpt lat="41.921442858222974" lon="3.1548020288693075"><ele>60.0</ele><time>2026-04-22T08:17:01Z</time></trkpt><trkpt lat="41.921365079627925" lon="3.154825584432161"><ele>59.833333333333336</ele><time>2026-04-22T08:17:02Z</time></trkpt><trkpt lat="41.92128400081708" lon="3.154850101771179"><ele>59.66666666666667</ele><time>2026-04-22T08:17:03Z</time></trkpt><trkpt lat="41.921203213457254" lon="3.154873153229644"><ele>59.5</ele><time>2026-04-22T08:17:04Z</time></trkpt><trkpt lat="41.92112436601819" lon="3.154898119360937"><ele>59.333333333333336</ele><time>2026-04-22T08:17:05Z</time></trkpt><trkpt lat="41.92104729098596" lon="3.1549221317292946"><ele>59.16666666666667</ele><time>2026-04-22T08:17:06Z</time></trkpt><trkpt lat="41.92097214193634" lon="3.154944801952866"><ele>59.0</ele><time>2026-04-22T08:17:07Z</time></trkpt><trkpt lat="41.92089885609324" lon="3.1549682086691972"><ele>59.50000000000001</ele><time>2026-04-22T08:17:08Z</time></trkpt><trkpt lat="41.92082500606435" lon="3.154989964521919"><ele>60.0</ele><time>2026-04-22T08:17:09Z</time></trkpt><trkpt lat="41.92075303879115" lon="3.1550109559653663"><ele>60.5</ele><time>2026-04-22T08:17:10Z</time></trkpt><trkpt lat="41.92068036732452" lon="3.1550366915369064"><ele>61.0</ele><time>2026-04-22T08:17:11Z</time></trkpt><trkpt lat="41.92060950234261" lon="3.155069708474034"><ele>61.50000000000001</ele><time>2026-04-22T08:17:12Z</time></trkpt><trkpt lat="41.92053992733689" lon="3.155108579294449"><ele>62.0</ele><time>2026-04-22T08:17:13Z</time></trkpt><trkpt lat="41.92047198659445" lon="3.1551552448631517"><ele>62.00000000000001</ele><time>2026-04-22T08:17:14Z</time></trkpt><trkpt lat="41.92040393842606" lon="3.1552020199275437"><ele>62.0</ele><time>2026-04-22T08:17:15Z</time></trkpt><trkpt lat="41.920340103483056" lon="3.1552491402176854"><ele>62.0</ele><time>2026-04-22T08:17:16Z</time></trkpt><trkpt lat="41.92028027843499" lon="3.15529616632062"><ele>62.0</ele><time>2026-04-22T08:17:17Z</time></trkpt><trkpt lat="41.92021990488655" lon="3.155339438192452"><ele>62.00000000000001</ele><time>2026-04-22T08:17:18Z</time></trkpt><trkpt lat="41.92011597857509" lon="3.1554161285093603"><ele>62.0</ele><time>2026-04-22T08:17:20Z</time></trkpt><trkpt lat="41.920032886280595" lon="3.1554826273025487"><ele>62.333333333333336</ele><time>2026-04-22T08:17:22Z</time></trkpt><trkpt lat="41.919954003850826" lon="3.15554123488377"><ele>62.66666666666667</ele><time>2026-04-22T08:17:24Z</time></trkpt><trkpt lat="41.91984740569408" lon="3.155618445692792"><ele>63.0</ele><time>2026-04-22T08:17:26Z</time></trkpt><trkpt lat="41.919786031623595" lon="3.1556637409870962"><ele>63.33333333333333</ele><time>2026-04-22T08:17:27Z</time></trkpt><trkpt lat="41.91971866589557" lon="3.1557136613724315"><ele>63.666666666666664</ele><time>2026-04-22T08:17:28Z</time></trkpt><trkpt lat="41.91965099470346" lon="3.1557669240080983"><ele>64.0</ele><time>2026-04-22T08:17:29Z</time></trkpt><trkpt lat="41.919582978371515" lon="3.1558177873805473"><ele>63.99999999999999</ele><time>2026-04-22T08:17:30Z</time></trkpt><trkpt lat="41.919515644459246" lon="3.1558698543699655"><ele>64.0</ele><time>2026-04-22T08:17:31Z</time></trkpt><trkpt lat="41.9194498454715" lon="3.15592140726321"><ele>64.0</ele><time>2026-04-22T08:17:32Z</time></trkpt><trkpt lat="41.91938457723415" lon="3.155976800773928"><ele>64.0</ele><time>2026-04-22T08:17:33Z</time></trkpt><trkpt lat="41.91931597867147" lon="3.156029301711019"><ele>63.99999999999999</ele><time>2026-04-22T08:17:34Z</time></trkpt><trkpt lat="41.91924716428722" lon="3.156080705679407"><ele>64.0</ele><time>2026-04-22T08:17:35Z</time></trkpt><trkpt lat="41.91917647280792" lon="3.1561292354361044"><ele>63.99999999999999</ele><time>2026-04-22T08:17:36Z</time></trkpt><trkpt lat="41.919106680160155" lon="3.15618040902315"><ele>64.0</ele><time>2026-04-22T08:17:37Z</time></trkpt><trkpt lat="41.91904076211439" lon="3.1562312497460603"><ele>64.0</ele><time>2026-04-22T08:17:38Z</time></trkpt><trkpt lat="41.91897968913184" lon="3.15627795624155"><ele>64.0</ele><time>2026-04-22T08:17:39Z</time></trkpt><trkpt lat="41.918922749125684" lon="3.156322078127822"><ele>63.99999999999999</ele><time>2026-04-22T08:17:40Z</time></trkpt><trkpt lat="41.91886819773957" lon="3.1563660199319004"><ele>64.0</ele><time>2026-04-22T08:17:41Z</time></trkpt><trkpt lat="41.91877723288319" lon="3.156435437462405"><ele>64.0</ele><time>2026-04-22T08:17:43Z</time></trkpt><trkpt lat="41.91871533721904" lon="3.1564798727813943"><ele>64.0</ele><time>2026-04-22T08:17:49Z</time></trkpt><trkpt lat="41.9186436925171" lon="3.1565344017510357"><ele>64.0</ele><time>2026-04-22T08:17:52Z</time></trkpt><trkpt lat="41.91856301157049" lon="3.156598492064501"><ele>64.0</ele><time>2026-04-22T08:17:54Z</time></trkpt><trkpt lat="41.91846381804523" lon="3.156673758105964"><ele>64.0</ele><time>2026-04-22T08:17:56Z</time></trkpt><trkpt lat="41.91836140242111" lon="3.156753302500365"><ele>64.2</ele><time>2026-04-22T08:17:58Z</time></trkpt><trkpt lat="41.91826408803043" lon="3.156825928541714"><ele>64.4</ele><time>2026-04-22T08:18:00Z</time></trkpt><trkpt lat="41.91818102977806" lon="3.156901602611463"><ele>64.6</ele><time>2026-04-22T08:18:02Z</time></trkpt><trkpt lat="41.918116802727425" lon="3.1569843329646847"><ele>64.8</ele><time>2026-04-22T08:18:04Z</time></trkpt><trkpt lat="41.918068782405676" lon="3.1570596934251856"><ele>65.0</ele><time>2026-04-22T08:18:12Z</time></trkpt><trkpt lat="41.918004631679366" lon="3.1571135812881423"><ele>65.0</ele><time>2026-04-22T08:18:14Z</time></trkpt><trkpt lat="41.917916658372" lon="3.157165574890021"><ele>65.0</ele><time>2026-04-22T08:18:16Z</time></trkpt><trkpt lat="41.91780572103025" lon="3.157228638260763"><ele>65.0</ele><time>2026-04-22T08:18:18Z</time></trkpt><trkpt lat="41.917744525319826" lon="3.1572610423968652"><ele>65.0</ele><time>2026-04-22T08:18:19Z</time></trkpt><trkpt lat="41.917684663022" lon="3.1572933275216"><ele>65.0</ele><time>2026-04-22T08:18:20Z</time></trkpt><trkpt lat="41.917618180318975" lon="3.1573210183387475"><ele>65.0</ele><time>2026-04-22T08:18:21Z</time></trkpt><trkpt lat="41.91755289024322" lon="3.1573430237156885"><ele>65.0</ele><time>2026-04-22T08:18:22Z</time></trkpt><trkpt lat="41.91748277479374" lon="3.1573562925475875"><ele>65.0</ele><time>2026-04-22T08:18:23Z</time></trkpt><trkpt lat="41.91741135726784" lon="3.157362779185783"><ele>65.0</ele><time>2026-04-22T08:18:24Z</time></trkpt><trkpt lat="41.917340227465594" lon="3.1573633816868263"><ele>65.0</ele><time>2026-04-22T08:18:25Z</time></trkpt><trkpt lat="41.91727640818774" lon="3.157357636886084"><ele>65.0</ele><time>2026-04-22T08:18:26Z</time></trkpt><trkpt lat="41.91716426982223" lon="3.157338512315531"><ele>65.0</ele><time>2026-04-22T08:18:28Z</time></trkpt><trkpt lat="41.91706253099105" lon="3.157320840379381"><ele>65.0</ele><time>2026-04-22T08:18:30Z</time></trkpt><trkpt lat="41.916938176335314" lon="3.157296955201079"><ele>65.0</ele><time>2026-04-22T08:18:32Z</time></trkpt><trkpt lat="41.91687047306792" lon="3.157279910286815"><ele>65.0</ele><time>2026-04-22T08:18:33Z</time></trkpt><trkpt lat="41.9167963307289" lon="3.1572634794584116"><ele>65.0</ele><time>2026-04-22T08:18:34Z</time></trkpt><trkpt lat="41.916719909043934" lon="3.1572489694142583"><ele>65.0</ele><time>2026-04-22T08:18:35Z</time></trkpt><trkpt lat="41.9166402590241" lon="3.1572324207610576"><ele>65.0</ele><time>2026-04-22T08:18:36Z</time></trkpt><trkpt lat="41.91656769930996" lon="3.157218446828586"><ele>64.83333333333334</ele><time>2026-04-22T08:18:37Z</time></trkpt><trkpt lat="41.91649996401098" lon="3.157207578238245"><ele>64.66666666666667</ele><time>2026-04-22T08:18:38Z</time></trkpt><trkpt lat="41.916400272654236" lon="3.1571845041244537"><ele>64.5</ele><time>2026-04-22T08:18:40Z</time></trkpt><trkpt lat="41.91632483143765" lon="3.1571587697170873"><ele>64.33333333333333</ele><time>2026-04-22T08:18:47Z</time></trkpt><trkpt lat="41.91627010734525" lon="3.1570855681329286"><ele>64.16666666666666</ele><time>2026-04-22T08:18:49Z</time></trkpt><trkpt lat="41.91620274036618" lon="3.156992046029639"><ele>64.0</ele><time>2026-04-22T08:18:51Z</time></trkpt><trkpt lat="41.91611581764177" lon="3.1569188907434276"><ele>64.0</ele><time>2026-04-22T08:18:53Z</time></trkpt><trkpt lat="41.91600783314023" lon="3.1569340660284535"><ele>64.0</ele><time>2026-04-22T08:18:55Z</time></trkpt><trkpt lat="41.91592486485279" lon="3.1570487513450045"><ele>64.0</ele><time>2026-04-22T08:18:57Z</time></trkpt><trkpt lat="41.91589042170231" lon="3.157192970492463"><ele>64.0</ele><time>2026-04-22T08:18:59Z</time></trkpt><trkpt lat="41.915930897643065" lon="3.157424232423879"><ele>63.2</ele><time>2026-04-22T08:19:01Z</time></trkpt><trkpt lat="41.9157843682801" lon="3.1573486676619473"><ele>62.400000000000006</ele><time>2026-04-22T08:19:02Z</time></trkpt><trkpt lat="41.915668244044085" lon="3.1574230356998707"><ele>61.6</ele><time>2026-04-22T08:19:04Z</time></trkpt><trkpt lat="41.91560262207265" lon="3.1574621942422114"><ele>60.8</ele><time>2026-04-22T08:19:05Z</time></trkpt><trkpt lat="41.915538340141765" lon="3.157499154960558"><ele>60.0</ele><time>2026-04-22T08:19:06Z</time></trkpt><trkpt lat="41.91547193146151" lon="3.1575370108187846"><ele>59.833333333333336</ele><time>2026-04-22T08:19:07Z</time></trkpt><trkpt lat="41.91540581937345" lon="3.1575681524786448"><ele>59.66666666666667</ele><time>2026-04-22T08:19:08Z</time></trkpt><trkpt lat="41.91534321010111" lon="3.1575969582686905"><ele>59.5</ele><time>2026-04-22T08:19:09Z</time></trkpt><trkpt lat="41.91522890956559" lon="3.1576520298776316"><ele>59.333333333333336</ele><time>2026-04-22T08:19:11Z</time></trkpt><trkpt lat="41.91511676816096" lon="3.1576921078254028"><ele>59.16666666666667</ele><time>2026-04-22T08:19:13Z</time></trkpt><trkpt lat="41.91505221582073" lon="3.15770594095212"><ele>59.0</ele><time>2026-04-22T08:19:14Z</time></trkpt><trkpt lat="41.91498289848283" lon="3.1577113553744414"><ele>58.71428571428571</ele><time>2026-04-22T08:19:15Z</time></trkpt><trkpt lat="41.91491438601198" lon="3.157719979019905"><ele>58.42857142857143</ele><time>2026-04-22T08:19:16Z</time></trkpt><trkpt lat="41.914849821182976" lon="3.157727034984363"><ele>58.14285714285714</ele><time>2026-04-22T08:19:17Z</time></trkpt><trkpt lat="41.91478454896498" lon="3.157733163215172"><ele>57.857142857142854</ele><time>2026-04-22T08:19:18Z</time></trkpt><trkpt lat="41.914717891468726" lon="3.1577408750375326"><ele>57.57142857142857</ele><time>2026-04-22T08:19:19Z</time></trkpt><trkpt lat="41.91465167646776" lon="3.157746701689946"><ele>57.285714285714285</ele><time>2026-04-22T08:19:20Z</time></trkpt><trkpt lat="41.9145851534231" lon="3.1577525596141154"><ele>57.0</ele><time>2026-04-22T08:19:21Z</time></trkpt><trkpt lat="41.91451671481878" lon="3.1577594943130882"><ele>57.0</ele><time>2026-04-22T08:19:22Z</time></trkpt><trkpt lat="41.91444774171217" lon="3.157768459684136"><ele>57.0</ele><time>2026-04-22T08:19:23Z</time></trkpt><trkpt lat="41.914380095238194" lon="3.157773142799656"><ele>57.0</ele><time>2026-04-22T08:19:24Z</time></trkpt><trkpt lat="41.914251876867034" lon="3.1577836803730284"><ele>57.0</ele><time>2026-04-22T08:19:26Z</time></trkpt><trkpt lat="41.914186023594304" lon="3.157789093211168"><ele>57.0</ele><time>2026-04-22T08:19:27Z</time></trkpt><trkpt lat="41.91407143202696" lon="3.1577977059942115"><ele>57.0</ele><time>2026-04-22T08:19:29Z</time></trkpt><trkpt lat="41.91399735056901" lon="3.157797388431674"><ele>57.0</ele><time>2026-04-22T08:19:31Z</time></trkpt><trkpt lat="41.91396686896425" lon="3.1579090988500345"><ele>57.0</ele><time>2026-04-22T08:19:34Z</time></trkpt><trkpt lat="41.91398089540247" lon="3.1580472026574715"><ele>57.0</ele><time>2026-04-22T08:19:36Z</time></trkpt><trkpt lat="41.91399236688124" lon="3.158208535903941"><ele>57.0</ele><time>2026-04-22T08:19:38Z</time></trkpt><trkpt lat="41.9140034961563" lon="3.1583547302840156"><ele>57.0</ele><time>2026-04-22T08:19:40Z</time></trkpt><trkpt lat="41.914013258702916" lon="3.158489908740047"><ele>56.666666666666664</ele><time>2026-04-22T08:19:42Z</time></trkpt><trkpt lat="41.91401614527832" lon="3.1586092977055666"><ele>56.33333333333333</ele><time>2026-04-22T08:19:44Z</time></trkpt><trkpt lat="41.91402856101609" lon="3.1587065994072954"><ele>56.0</ele><time>2026-04-22T08:19:49Z</time></trkpt><trkpt lat="41.91409524889528" lon="3.1587388260864553"><ele>55.666666666666664</ele><time>2026-04-22T08:19:52Z</time></trkpt><trkpt lat="41.914178071891584" lon="3.1587272986583046"><ele>55.33333333333333</ele><time>2026-04-22T08:19:54Z</time></trkpt><trkpt lat="41.914275825641965" lon="3.1587206435222255"><ele>55.0</ele><time>2026-04-22T08:19:56Z</time></trkpt><trkpt lat="41.914374917308116" lon="3.1587093304978815"><ele>55.0</ele><time>2026-04-22T08:19:58Z</time></trkpt><trkpt lat="41.91448707841" lon="3.158701249886998"><ele>55.0</ele><time>2026-04-22T08:20:00Z</time></trkpt><trkpt lat="41.91457643409775" lon="3.1586934408262413"><ele>55.0</ele><time>2026-04-22T08:20:02Z</time></trkpt><trkpt lat="41.91465618029352" lon="3.1586882462411796"><ele>55.0</ele><time>2026-04-22T08:20:04Z</time></trkpt><trkpt lat="41.9147066666654" lon="3.158777393534546"><ele>55.0</ele><time>2026-04-22T08:20:07Z</time></trkpt><trkpt lat="41.91472440523582" lon="3.1588951503522273"><ele>55.2</ele><time>2026-04-22T08:20:09Z</time></trkpt><trkpt lat="41.9147439185652" lon="3.1590353019665622"><ele>55.4</ele><time>2026-04-22T08:20:11Z</time></trkpt><trkpt lat="41.91476113613089" lon="3.1591795553238256"><ele>55.599999999999994</ele><time>2026-04-22T08:20:13Z</time></trkpt><trkpt lat="41.91478441972193" lon="3.159276354791199"><ele>55.8</ele><time>2026-04-22T08:20:15Z</time></trkpt><trkpt lat="41.91477420083193" lon="3.1593778369090946"><ele>56.0</ele><time>2026-04-22T08:20:21Z</time></trkpt><trkpt lat="41.91477217322256" lon="3.1594935178630292"><ele>56.0</ele><time>2026-04-22T08:20:23Z</time></trkpt><trkpt lat="41.91477966848943" lon="3.159637285660478"><ele>56.0</ele><time>2026-04-22T08:20:25Z</time></trkpt><trkpt lat="41.9147830421675" lon="3.159788724526848"><ele>56.0</ele><time>2026-04-22T08:20:27Z</time></trkpt><trkpt lat="41.914789433731094" lon="3.1599495357496346"><ele>56.0</ele><time>2026-04-22T08:20:29Z</time></trkpt><trkpt lat="41.91479320499791" lon="3.1601099925192595"><ele>55.8</ele><time>2026-04-22T08:20:31Z</time></trkpt><trkpt lat="41.91479596421697" lon="3.160254565622032"><ele>55.599999999999994</ele><time>2026-04-22T08:20:33Z</time></trkpt><trkpt lat="41.91480834530899" lon="3.160392261853391"><ele>55.4</ele><time>2026-04-22T08:20:35Z</time></trkpt><trkpt lat="41.914798944408645" lon="3.160534297694087"><ele>55.2</ele><time>2026-04-22T08:20:37Z</time></trkpt><trkpt lat="41.9148122755361" lon="3.1606954961409564"><ele>55.0</ele><time>2026-04-22T08:20:39Z</time></trkpt><trkpt lat="41.91480374613958" lon="3.1608273763544337"><ele>54.99999999999999</ele><time>2026-04-22T08:20:41Z</time></trkpt><trkpt lat="41.91478811303524" lon="3.160925258131074"><ele>55.0</ele><time>2026-04-22T08:20:43Z</time></trkpt><trkpt lat="41.9147619140905" lon="3.1610307436028977"><ele>55.0</ele><time>2026-04-22T08:20:45Z</time></trkpt><trkpt lat="41.914755676213524" lon="3.161121215891526"><ele>55.0</ele><time>2026-04-22T08:20:47Z</time></trkpt><trkpt lat="41.91473792448496" lon="3.1612280072386576"><ele>54.99999999999999</ele><time>2026-04-22T08:20:50Z</time></trkpt><trkpt lat="41.91465307184021" lon="3.161268193293692"><ele>55.0</ele><time>2026-04-22T08:20:53Z</time></trkpt><trkpt lat="41.91458100660103" lon="3.161292816168284"><ele>54.99999999999999</ele><time>2026-04-22T08:20:55Z</time></trkpt><trkpt lat="41.91449389688014" lon="3.1613233355618213"><ele>55.0</ele><time>2026-04-22T08:20:57Z</time></trkpt><trkpt lat="41.91440317328763" lon="3.1613589926762167"><ele>55.0</ele><time>2026-04-22T08:20:59Z</time></trkpt><trkpt lat="41.914319428197956" lon="3.1613898669110285"><ele>55.0</ele><time>2026-04-22T08:21:01Z</time></trkpt><trkpt lat="41.914247872523255" lon="3.161417660135986"><ele>54.99999999999999</ele><time>2026-04-22T08:21:03Z</time></trkpt><trkpt lat="41.914172614743336" lon="3.1614373826253512"><ele>55.0</ele><time>2026-04-22T08:21:05Z</time></trkpt><trkpt lat="41.914096046179935" lon="3.161468591999376"><ele>54.666666666666664</ele><time>2026-04-22T08:21:07Z</time></trkpt><trkpt lat="41.91401549966323" lon="3.1614958485244955"><ele>54.33333333333333</ele><time>2026-04-22T08:21:09Z</time></trkpt><trkpt lat="41.91393250142922" lon="3.161528687991125"><ele>54.0</ele><time>2026-04-22T08:21:11Z</time></trkpt><trkpt lat="41.91385394934721" lon="3.161555498716711"><ele>53.66666666666667</ele><time>2026-04-22T08:21:13Z</time></trkpt><trkpt lat="41.91376530171974" lon="3.1615780777800624"><ele>53.333333333333336</ele><time>2026-04-22T08:21:15Z</time></trkpt><trkpt lat="41.91366880588921" lon="3.161608288102023"><ele>53.0</ele><time>2026-04-22T08:21:17Z</time></trkpt><trkpt lat="41.91356963992989" lon="3.161640642138756"><ele>52.8</ele><time>2026-04-22T08:21:19Z</time></trkpt><trkpt lat="41.9134659260037" lon="3.1616638827424426"><ele>52.599999999999994</ele><time>2026-04-22T08:21:21Z</time></trkpt><trkpt lat="41.91335569181984" lon="3.1616941412610347"><ele>52.400000000000006</ele><time>2026-04-22T08:21:23Z</time></trkpt><trkpt lat="41.91324770661663" lon="3.1617322633344433"><ele>52.2</ele><time>2026-04-22T08:21:25Z</time></trkpt><trkpt lat="41.91314214187787" lon="3.1617742216840408"><ele>52.0</ele><time>2026-04-22T08:21:27Z</time></trkpt><trkpt lat="41.91304889658629" lon="3.1618082672856835"><ele>51.33333333333333</ele><time>2026-04-22T08:21:29Z</time></trkpt><trkpt lat="41.9129876322125" lon="3.161834542653181"><ele>50.666666666666664</ele><time>2026-04-22T08:21:31Z</time></trkpt><trkpt lat="41.912915730948846" lon="3.1619059730460024"><ele>50.0</ele><time>2026-04-22T08:21:37Z</time></trkpt><trkpt lat="41.912911882281485" lon="3.1620080657481604"><ele>49.33333333333333</ele><time>2026-04-22T08:21:40Z</time></trkpt><trkpt lat="41.912829342939446" lon="3.16202801870635"><ele>48.666666666666664</ele><time>2026-04-22T08:21:43Z</time></trkpt><trkpt lat="41.912726081423024" lon="3.1620272216086422"><ele>48.0</ele><time>2026-04-22T08:21:45Z</time></trkpt><trkpt lat="41.912603822844524" lon="3.162030407754606"><ele>47.4</ele><time>2026-04-22T08:21:47Z</time></trkpt><trkpt lat="41.912486515587155" lon="3.1620252005666547"><ele>46.8</ele><time>2026-04-22T08:21:49Z</time></trkpt><trkpt lat="41.91237990452525" lon="3.1620294178014974"><ele>46.2</ele><time>2026-04-22T08:21:51Z</time></trkpt><trkpt lat="41.91229217380144" lon="3.1620304511177175"><ele>45.6</ele><time>2026-04-22T08:21:53Z</time></trkpt><trkpt lat="41.91220018589111" lon="3.162006967749988"><ele>45.0</ele><time>2026-04-22T08:21:55Z</time></trkpt><trkpt lat="41.91212859746926" lon="3.161994453600568"><ele>45.0</ele><time>2026-04-22T08:21:57Z</time></trkpt><trkpt lat="41.912060145868196" lon="3.1620733543204054"><ele>45.0</ele><time>2026-04-22T08:22:00Z</time></trkpt><trkpt lat="41.91206129381161" lon="3.1621959409915554"><ele>45.0</ele><time>2026-04-22T08:22:02Z</time></trkpt><trkpt lat="41.912064549135295" lon="3.1623301149681966"><ele>45.0</ele><time>2026-04-22T08:22:04Z</time></trkpt><trkpt lat="41.91206321586606" lon="3.1624524194083437"><ele>45.0</ele><time>2026-04-22T08:22:06Z</time></trkpt><trkpt lat="41.912062509934856" lon="3.162566932734702"><ele>45.0</ele><time>2026-04-22T08:22:08Z</time></trkpt><trkpt lat="41.912060621772845" lon="3.1626568038347145"><ele>45.0</ele><time>2026-04-22T08:22:10Z</time></trkpt><trkpt lat="41.91206811444147" lon="3.1627789553608414"><ele>45.0</ele><time>2026-04-22T08:22:16Z</time></trkpt><trkpt lat="41.9120723001154" lon="3.162897645000676"><ele>45.0</ele><time>2026-04-22T08:22:18Z</time></trkpt><trkpt lat="41.912079263265305" lon="3.16305685887155"><ele>45.0</ele><time>2026-04-22T08:22:20Z</time></trkpt><trkpt lat="41.91208206485284" lon="3.163144427924483"><ele>45.0</ele><time>2026-04-22T08:22:21Z</time></trkpt><trkpt lat="41.91208154031442" lon="3.163234435369265"><ele>44.8</ele><time>2026-04-22T08:22:22Z</time></trkpt><trkpt lat="41.91208426591083" lon="3.1633255522605435"><ele>44.6</ele><time>2026-04-22T08:22:23Z</time></trkpt><trkpt lat="41.91208578113286" lon="3.163484815700181"><ele>44.400000000000006</ele><time>2026-04-22T08:22:25Z</time></trkpt><trkpt lat="41.912086224549746" lon="3.16362952441564"><ele>44.2</ele><time>2026-04-22T08:22:27Z</time></trkpt><trkpt lat="41.91208518350766" lon="3.1637539031067927"><ele>44.0</ele><time>2026-04-22T08:22:29Z</time></trkpt><trkpt lat="41.91208244654958" lon="3.1638817389153693"><ele>44.25</ele><time>2026-04-22T08:22:31Z</time></trkpt><trkpt lat="41.91208127414895" lon="3.164042898404028"><ele>44.5</ele><time>2026-04-22T08:22:33Z</time></trkpt><trkpt lat="41.91207623871125" lon="3.1642015792593647"><ele>44.75</ele><time>2026-04-22T08:22:35Z</time></trkpt><trkpt lat="41.91208065864836" lon="3.1643505017196882"><ele>45.0</ele><time>2026-04-22T08:22:37Z</time></trkpt><trkpt lat="41.91207788718599" lon="3.16449251858807"><ele>45.0</ele><time>2026-04-22T08:22:39Z</time></trkpt><trkpt lat="41.91207779911542" lon="3.1646129652143458"><ele>45.0</ele><time>2026-04-22T08:22:41Z</time></trkpt><trkpt lat="41.91207730979255" lon="3.164735562668201"><ele>45.0</ele><time>2026-04-22T08:22:43Z</time></trkpt><trkpt lat="41.91207979206644" lon="3.164862539422901"><ele>45.0</ele><time>2026-04-22T08:22:45Z</time></trkpt><trkpt lat="41.912080510700356" lon="3.164991623684572"><ele>45.0</ele><time>2026-04-22T08:22:47Z</time></trkpt><trkpt lat="41.91207947282002" lon="3.1651228023691997"><ele>45.2</ele><time>2026-04-22T08:22:49Z</time></trkpt><trkpt lat="41.912069744941846" lon="3.1652298933300256"><ele>45.4</ele><time>2026-04-22T08:22:51Z</time></trkpt><trkpt lat="41.91203997295755" lon="3.1653076409039813"><ele>45.599999999999994</ele><time>2026-04-22T08:22:54Z</time></trkpt><trkpt lat="41.912049412901844" lon="3.165427263488969"><ele>45.8</ele><time>2026-04-22T08:24:26Z</time></trkpt><trkpt lat="41.91205944407445" lon="3.1655501641182013"><ele>46.0</ele><time>2026-04-22T08:24:28Z</time></trkpt><trkpt lat="41.912062298735535" lon="3.1657245382248527"><ele>46.0</ele><time>2026-04-22T08:24:30Z</time></trkpt><trkpt lat="41.91205998167034" lon="3.165809547541744"><ele>46.0</ele><time>2026-04-22T08:24:31Z</time></trkpt><trkpt lat="41.91205877361796" lon="3.165894477244367"><ele>46.0</ele><time>2026-04-22T08:24:32Z</time></trkpt><trkpt lat="41.912058983952825" lon="3.1659792272631324"><ele>46.0</ele><time>2026-04-22T08:24:33Z</time></trkpt><trkpt lat="41.91205780353147" lon="3.1660728576386177"><ele>46.0</ele><time>2026-04-22T08:24:34Z</time></trkpt><trkpt lat="41.91205681557673" lon="3.166158130600847"><ele>46.0</ele><time>2026-04-22T08:24:35Z</time></trkpt><trkpt lat="41.9120591873227" lon="3.1662438763609675"><ele>46.0</ele><time>2026-04-22T08:24:36Z</time></trkpt><trkpt lat="41.912053854658176" lon="3.1664134347335526"><ele>45.8</ele><time>2026-04-22T08:24:38Z</time></trkpt><trkpt lat="41.91205492398902" lon="3.166568883936817"><ele>45.599999999999994</ele><time>2026-04-22T08:24:40Z</time></trkpt><trkpt lat="41.912050982016" lon="3.166721670518002"><ele>45.4</ele><time>2026-04-22T08:24:42Z</time></trkpt><trkpt lat="41.91204477021166" lon="3.166870978382027"><ele>45.2</ele><time>2026-04-22T08:24:44Z</time></trkpt><trkpt lat="41.91203523672558" lon="3.166989675855253"><ele>45.0</ele><time>2026-04-22T08:24:46Z</time></trkpt><trkpt lat="41.91203503667297" lon="3.1670811693489673"><ele>45.0</ele><time>2026-04-22T08:24:48Z</time></trkpt><trkpt lat="41.91201871175891" lon="3.1671814638906977"><ele>45.0</ele><time>2026-04-22T08:24:50Z</time></trkpt><trkpt lat="41.91197246253102" lon="3.167278620185969"><ele>45.0</ele><time>2026-04-22T08:24:52Z</time></trkpt><trkpt lat="41.91189275528903" lon="3.1673647235467843"><ele>45.0</ele><time>2026-04-22T08:24:54Z</time></trkpt><trkpt lat="41.91179813421989" lon="3.167458978700102"><ele>45.0</ele><time>2026-04-22T08:24:56Z</time></trkpt><trkpt lat="41.91176162209386" lon="3.167610480133374"><ele>45.0</ele><time>2026-04-22T08:24:58Z</time></trkpt><trkpt lat="41.91174403043701" lon="3.1676919823704375"><ele>45.0</ele><time>2026-04-22T08:24:59Z</time></trkpt><trkpt lat="41.91168820292528" lon="3.1678220720474"><ele>45.0</ele><time>2026-04-22T08:25:01Z</time></trkpt><trkpt lat="41.91163018734892" lon="3.167912251549174"><ele>45.0</ele><time>2026-04-22T08:25:03Z</time></trkpt><trkpt lat="41.911578465736135" lon="3.1680410848102194"><ele>45.0</ele><time>2026-04-22T08:25:05Z</time></trkpt><trkpt lat="41.91147465455126" lon="3.1681090923324287"><ele>45.0</ele><time>2026-04-22T08:25:07Z</time></trkpt><trkpt lat="41.9113815489619" lon="3.1681658391865444"><ele>45.0</ele><time>2026-04-22T08:25:09Z</time></trkpt><trkpt lat="41.91131520156922" lon="3.1681876716130186"><ele>45.0</ele><time>2026-04-22T08:25:10Z</time></trkpt><trkpt lat="41.91124882133391" lon="3.1682171006820887"><ele>45.0</ele><time>2026-04-22T08:25:11Z</time></trkpt><trkpt lat="41.91118719250174" lon="3.168259460511427"><ele>45.0</ele><time>2026-04-22T08:25:12Z</time></trkpt><trkpt lat="41.911143616042025" lon="3.1683261355215393"><ele>45.0</ele><time>2026-04-22T08:25:13Z</time></trkpt><trkpt lat="41.91111633471911" lon="3.1684110539684065"><ele>45.0</ele><time>2026-04-22T08:25:14Z</time></trkpt><trkpt lat="41.9110977249479" lon="3.1685103214075334"><ele>44.833333333333336</ele><time>2026-04-22T08:25:15Z</time></trkpt><trkpt lat="41.9111185441925" lon="3.1686099198768978"><ele>44.666666666666664</ele><time>2026-04-22T08:25:16Z</time></trkpt><trkpt lat="41.91111854419349" lon="3.1687102827103915"><ele>44.5</ele><time>2026-04-22T08:25:17Z</time></trkpt><trkpt lat="41.911016569982735" lon="3.1688045546901464"><ele>44.33333333333333</ele><time>2026-04-22T08:25:18Z</time></trkpt><trkpt lat="41.910965600008595" lon="3.1688842285753425"><ele>44.166666666666664</ele><time>2026-04-22T08:25:19Z</time></trkpt><trkpt lat="41.91089988538186" lon="3.168977256885154"><ele>44.0</ele><time>2026-04-22T08:25:20Z</time></trkpt><trkpt lat="41.91082268897066" lon="3.169081652416937"><ele>44.0</ele><time>2026-04-22T08:25:21Z</time></trkpt><trkpt lat="41.91074641147761" lon="3.16919284355698"><ele>44.0</ele><time>2026-04-22T08:25:22Z</time></trkpt><trkpt lat="41.91065380062516" lon="3.169311708347438"><ele>44.0</ele><time>2026-04-22T08:25:23Z</time></trkpt><trkpt lat="41.910562366355926" lon="3.1694433504890616"><ele>44.0</ele><time>2026-04-22T08:25:24Z</time></trkpt><trkpt lat="41.910473640046966" lon="3.169576947435179"><ele>44.0</ele><time>2026-04-22T08:25:25Z</time></trkpt><trkpt lat="41.91037872163827" lon="3.1697173887142758"><ele>44.0</ele><time>2026-04-22T08:25:26Z</time></trkpt><trkpt lat="41.91028062676983" lon="3.169859374721406"><ele>44.0</ele><time>2026-04-22T08:25:27Z</time></trkpt><trkpt lat="41.910176156931705" lon="3.170006552334802"><ele>44.0</ele><time>2026-04-22T08:25:28Z</time></trkpt><trkpt lat="41.91007270636977" lon="3.170156854928672"><ele>43.33333333333333</ele><time>2026-04-22T08:25:29Z</time></trkpt><trkpt lat="41.909969011140866" lon="3.1703101887452694"><ele>42.666666666666664</ele><time>2026-04-22T08:25:30Z</time></trkpt><trkpt lat="41.90986659104875" lon="3.1704604291493617"><ele>42.0</ele><time>2026-04-22T08:25:31Z</time></trkpt><trkpt lat="41.909761509465326" lon="3.1706095469794136"><ele>42.666666666666664</ele><time>2026-04-22T08:25:32Z</time></trkpt><trkpt lat="41.9096608527612" lon="3.17076460698033"><ele>43.33333333333333</ele><time>2026-04-22T08:25:33Z</time></trkpt><trkpt lat="41.9095505127723" lon="3.1709137807795154"><ele>44.0</ele><time>2026-04-22T08:25:34Z</time></trkpt><trkpt lat="41.90943783989223" lon="3.1710711539444763"><ele>44.0</ele><time>2026-04-22T08:25:35Z</time></trkpt><trkpt lat="41.909332008659845" lon="3.1712316907329714"><ele>44.0</ele><time>2026-04-22T08:25:36Z</time></trkpt><trkpt lat="41.909221008882525" lon="3.17139681549397"><ele>44.0</ele><time>2026-04-22T08:25:37Z</time></trkpt><trkpt lat="41.90910943912227" lon="3.1715573034146796"><ele>43.666666666666664</ele><time>2026-04-22T08:25:38Z</time></trkpt><trkpt lat="41.908996894960694" lon="3.171720532120313"><ele>43.333333333333336</ele><time>2026-04-22T08:25:39Z</time></trkpt><trkpt lat="41.9088850166393" lon="3.171886433263612"><ele>43.0</ele><time>2026-04-22T08:25:40Z</time></trkpt><trkpt lat="41.90877452707607" lon="3.1720433772103798"><ele>43.0</ele><time>2026-04-22T08:25:41Z</time></trkpt><trkpt lat="41.908664508171036" lon="3.1722048562638583"><ele>43.0</ele><time>2026-04-22T08:25:42Z</time></trkpt><trkpt lat="41.908553407939195" lon="3.1723651596835287"><ele>43.0</ele><time>2026-04-22T08:25:43Z</time></trkpt><trkpt lat="41.908443289738734" lon="3.172525506802412"><ele>43.66666666666667</ele><time>2026-04-22T08:25:44Z</time></trkpt><trkpt lat="41.90832402834389" lon="3.172688011699058"><ele>44.333333333333336</ele><time>2026-04-22T08:25:45Z</time></trkpt><trkpt lat="41.908217388938" lon="3.172852075540846"><ele>45.0</ele><time>2026-04-22T08:25:46Z</time></trkpt><trkpt lat="41.90810354537401" lon="3.1730106660968382"><ele>45.0</ele><time>2026-04-22T08:25:47Z</time></trkpt><trkpt lat="41.90797796962971" lon="3.1731611469334027"><ele>45.0</ele><time>2026-04-22T08:25:48Z</time></trkpt><trkpt lat="41.90785714510939" lon="3.1733016240326304"><ele>45.0</ele><time>2026-04-22T08:25:49Z</time></trkpt><trkpt lat="41.907732248520404" lon="3.1734407342097826"><ele>45.0</ele><time>2026-04-22T08:25:50Z</time></trkpt><trkpt lat="41.90759307566875" lon="3.1735767849019823"><ele>45.0</ele><time>2026-04-22T08:25:51Z</time></trkpt><trkpt lat="41.90746256206533" lon="3.1737143127853944"><ele>45.0</ele><time>2026-04-22T08:25:52Z</time></trkpt><trkpt lat="41.90731883254477" lon="3.17384631216033"><ele>45.0</ele><time>2026-04-22T08:25:53Z</time></trkpt><trkpt lat="41.907178607779926" lon="3.173971425505145"><ele>45.0</ele><time>2026-04-22T08:25:54Z</time></trkpt><trkpt lat="41.90703549701611" lon="3.174094816663729"><ele>45.0</ele><time>2026-04-22T08:25:55Z</time></trkpt><trkpt lat="41.90688295094585" lon="3.1742131185179088"><ele>43.666666666666664</ele><time>2026-04-22T08:25:56Z</time></trkpt><trkpt lat="41.90673711799651" lon="3.1743313675685316"><ele>42.33333333333333</ele><time>2026-04-22T08:25:57Z</time></trkpt><trkpt lat="41.90658432976658" lon="3.174449637982545"><ele>41.0</ele><time>2026-04-22T08:25:58Z</time></trkpt><trkpt lat="41.90643604791391" lon="3.174565732286304"><ele>41.0</ele><time>2026-04-22T08:25:59Z</time></trkpt><trkpt lat="41.906288377310695" lon="3.1746830020429515"><ele>41.0</ele><time>2026-04-22T08:26:00Z</time></trkpt><trkpt lat="41.90613701226449" lon="3.174800471931867"><ele>41.0</ele><time>2026-04-22T08:26:01Z</time></trkpt><trkpt lat="41.90599099196048" lon="3.17491642762661"><ele>40.33333333333333</ele><time>2026-04-22T08:26:02Z</time></trkpt><trkpt lat="41.905846004932194" lon="3.175039395059275"><ele>39.666666666666664</ele><time>2026-04-22T08:26:03Z</time></trkpt><trkpt lat="41.905691242521826" lon="3.1751564788617577"><ele>39.0</ele><time>2026-04-22T08:26:04Z</time></trkpt><trkpt lat="41.90554640192618" lon="3.1752733637788886"><ele>39.0</ele><time>2026-04-22T08:26:05Z</time></trkpt><trkpt lat="41.90539534258068" lon="3.1753932016401034"><ele>39.0</ele><time>2026-04-22T08:26:06Z</time></trkpt><trkpt lat="41.90525330439874" lon="3.175507164105804"><ele>39.0</ele><time>2026-04-22T08:26:07Z</time></trkpt><trkpt lat="41.90510584375154" lon="3.1756240670207054"><ele>40.0</ele><time>2026-04-22T08:26:08Z</time></trkpt><trkpt lat="41.90496100548929" lon="3.175738961879392"><ele>41.0</ele><time>2026-04-22T08:26:09Z</time></trkpt><trkpt lat="41.904818292795504" lon="3.1758518398118154"><ele>42.0</ele><time>2026-04-22T08:26:10Z</time></trkpt><trkpt lat="41.904670617107065" lon="3.175965965700665"><ele>42.0</ele><time>2026-04-22T08:26:11Z</time></trkpt><trkpt lat="41.90452514618157" lon="3.1760810209897565"><ele>42.0</ele><time>2026-04-22T08:26:12Z</time></trkpt><trkpt lat="41.90422970178214" lon="3.176313403509359"><ele>41.0</ele><time>2026-04-22T08:26:14Z</time></trkpt><trkpt lat="41.90408534211876" lon="3.1764313680191645"><ele>40.0</ele><time>2026-04-22T08:26:15Z</time></trkpt><trkpt lat="41.903941284846766" lon="3.176545707081308"><ele>39.0</ele><time>2026-04-22T08:26:16Z</time></trkpt><trkpt lat="41.90380252354518" lon="3.1766584714197794"><ele>40.0</ele><time>2026-04-22T08:26:17Z</time></trkpt><trkpt lat="41.90366387644944" lon="3.1767806291371334"><ele>41.0</ele><time>2026-04-22T08:26:18Z</time></trkpt><trkpt lat="41.90352573875575" lon="3.176904184834801"><ele>42.0</ele><time>2026-04-22T08:26:19Z</time></trkpt><trkpt lat="41.90339005305387" lon="3.177024006771595"><ele>42.0</ele><time>2026-04-22T08:26:20Z</time></trkpt><trkpt lat="41.903269676606094" lon="3.177144767140326"><ele>42.0</ele><time>2026-04-22T08:26:21Z</time></trkpt><trkpt lat="41.90315067705009" lon="3.177264168626172"><ele>42.0</ele><time>2026-04-22T08:26:22Z</time></trkpt><trkpt lat="41.9030421281912" lon="3.1773762856370658"><ele>42.0</ele><time>2026-04-22T08:26:23Z</time></trkpt><trkpt lat="41.90293582308452" lon="3.1774876253037023"><ele>42.5</ele><time>2026-04-22T08:26:24Z</time></trkpt><trkpt lat="41.902835785449945" lon="3.1776005413407518"><ele>43.0</ele><time>2026-04-22T08:26:25Z</time></trkpt><trkpt lat="41.90273809270353" lon="3.1777051074548237"><ele>43.5</ele><time>2026-04-22T08:26:26Z</time></trkpt><trkpt lat="41.90264722252308" lon="3.177810017291412"><ele>44.0</ele><time>2026-04-22T08:26:27Z</time></trkpt><trkpt lat="41.902559226858244" lon="3.177909236508308"><ele>44.0</ele><time>2026-04-22T08:26:28Z</time></trkpt><trkpt lat="41.902478534478234" lon="3.178008720382626"><ele>44.0</ele><time>2026-04-22T08:26:29Z</time></trkpt><trkpt lat="41.90240012248101" lon="3.178102815343157"><ele>44.0</ele><time>2026-04-22T08:26:30Z</time></trkpt><trkpt lat="41.902324801107454" lon="3.178190964968326"><ele>44.0</ele><time>2026-04-22T08:26:31Z</time></trkpt><trkpt lat="41.90225829720236" lon="3.1782759471288076"><ele>44.0</ele><time>2026-04-22T08:26:32Z</time></trkpt><trkpt lat="41.902195180095745" lon="3.1783469588294495"><ele>44.0</ele><time>2026-04-22T08:26:33Z</time></trkpt><trkpt lat="41.90211534364733" lon="3.178409980669548"><ele>44.0</ele><time>2026-04-22T08:26:34Z</time></trkpt><trkpt lat="41.902037766659376" lon="3.17843746611973"><ele>44.0</ele><time>2026-04-22T08:26:35Z</time></trkpt><trkpt lat="41.90195570971515" lon="3.1784511757586764"><ele>44.0</ele><time>2026-04-22T08:26:36Z</time></trkpt><trkpt lat="41.90188012646831" lon="3.1784742622014175"><ele>44.0</ele><time>2026-04-22T08:26:37Z</time></trkpt><trkpt lat="41.90181697284628" lon="3.1785397564964724"><ele>44.0</ele><time>2026-04-22T08:26:38Z</time></trkpt><trkpt lat="41.901774172910706" lon="3.178632936998545"><ele>44.0</ele><time>2026-04-22T08:26:39Z</time></trkpt><trkpt lat="41.90174884159434" lon="3.178739918355161"><ele>44.0</ele><time>2026-04-22T08:26:40Z</time></trkpt><trkpt lat="41.90172156371792" lon="3.178847076992084"><ele>44.0</ele><time>2026-04-22T08:26:41Z</time></trkpt><trkpt lat="41.901674702905524" lon="3.1789493493291996"><ele>44.0</ele><time>2026-04-22T08:26:42Z</time></trkpt><trkpt lat="41.90160841653421" lon="3.1790381259303278"><ele>44.0</ele><time>2026-04-22T08:26:43Z</time></trkpt><trkpt lat="41.901530963554706" lon="3.179120019963929"><ele>44.0</ele><time>2026-04-22T08:26:44Z</time></trkpt><trkpt lat="41.90145157375231" lon="3.1792068315380644"><ele>44.0</ele><time>2026-04-22T08:26:45Z</time></trkpt><trkpt lat="41.90136531857817" lon="3.179306593250902"><ele>44.0</ele><time>2026-04-22T08:26:46Z</time></trkpt><trkpt lat="41.90127764603187" lon="3.1794083268145967"><ele>44.0</ele><time>2026-04-22T08:26:47Z</time></trkpt><trkpt lat="41.90118923627534" lon="3.1795178876302477"><ele>44.0</ele><time>2026-04-22T08:26:48Z</time></trkpt><trkpt lat="41.901087563769586" lon="3.1796287902016407"><ele>44.0</ele><time>2026-04-22T08:26:49Z</time></trkpt><trkpt lat="41.90098835889827" lon="3.1797458958276663"><ele>44.0</ele><time>2026-04-22T08:26:50Z</time></trkpt><trkpt lat="41.90088295322534" lon="3.1798696113629994"><ele>44.0</ele><time>2026-04-22T08:26:51Z</time></trkpt><trkpt lat="41.900782787319876" lon="3.1799930574748285"><ele>44.0</ele><time>2026-04-22T08:26:52Z</time></trkpt><trkpt lat="41.90068031468646" lon="3.180111329069951"><ele>44.5</ele><time>2026-04-22T08:26:53Z</time></trkpt><trkpt lat="41.90057379043286" lon="3.18023210316706"><ele>45.0</ele><time>2026-04-22T08:26:54Z</time></trkpt><trkpt lat="41.900470580863015" lon="3.1803549432803284"><ele>45.5</ele><time>2026-04-22T08:26:55Z</time></trkpt><trkpt lat="41.900365178043224" lon="3.1804748990193583"><ele>46.0</ele><time>2026-04-22T08:26:56Z</time></trkpt><trkpt lat="41.90025744586832" lon="3.180608322444526"><ele>46.25</ele><time>2026-04-22T08:26:57Z</time></trkpt><trkpt lat="41.900150069898075" lon="3.1807324661739553"><ele>46.5</ele><time>2026-04-22T08:26:58Z</time></trkpt><trkpt lat="41.900041908918745" lon="3.180860331525903"><ele>46.75</ele><time>2026-04-22T08:26:59Z</time></trkpt><trkpt lat="41.89993539372637" lon="3.1809832940456797"><ele>47.0</ele><time>2026-04-22T08:27:00Z</time></trkpt><trkpt lat="41.89982847534585" lon="3.181109196896234"><ele>47.0</ele><time>2026-04-22T08:27:01Z</time></trkpt><trkpt lat="41.89972157211157" lon="3.1812357900457204"><ele>47.0</ele><time>2026-04-22T08:27:02Z</time></trkpt><trkpt lat="41.89961883335005" lon="3.181361555916923"><ele>47.0</ele><time>2026-04-22T08:27:03Z</time></trkpt><trkpt lat="41.899512675669875" lon="3.1814845867228234"><ele>47.0</ele><time>2026-04-22T08:27:04Z</time></trkpt><trkpt lat="41.89940586362844" lon="3.1816069729048246"><ele>47.5</ele><time>2026-04-22T08:27:05Z</time></trkpt><trkpt lat="41.899299798436715" lon="3.181730676829414"><ele>48.0</ele><time>2026-04-22T08:27:06Z</time></trkpt><trkpt lat="41.89919415797187" lon="3.1818536839057887"><ele>48.5</ele><time>2026-04-22T08:27:07Z</time></trkpt><trkpt lat="41.89908922580401" lon="3.181978049600647"><ele>49.0</ele><time>2026-04-22T08:27:08Z</time></trkpt><trkpt lat="41.898987185540555" lon="3.1820975769803126"><ele>49.5</ele><time>2026-04-22T08:27:09Z</time></trkpt><trkpt lat="41.89888444230132" lon="3.182216996236479"><ele>50.0</ele><time>2026-04-22T08:27:10Z</time></trkpt><trkpt lat="41.898786956307454" lon="3.182332269031981"><ele>50.5</ele><time>2026-04-22T08:27:11Z</time></trkpt><trkpt lat="41.89869114679749" lon="3.182438627918375"><ele>51.0</ele><time>2026-04-22T08:27:12Z</time></trkpt><trkpt lat="41.8985994239531" lon="3.1825515457632623"><ele>52.25</ele><time>2026-04-22T08:27:13Z</time></trkpt><trkpt lat="41.89850720058147" lon="3.182658029313613"><ele>53.5</ele><time>2026-04-22T08:27:14Z</time></trkpt><trkpt lat="41.89841590600726" lon="3.1827623731451635"><ele>54.75</ele><time>2026-04-22T08:27:15Z</time></trkpt><trkpt lat="41.898327000787184" lon="3.1828677011417645"><ele>56.0</ele><time>2026-04-22T08:27:16Z</time></trkpt><trkpt lat="41.89823742913491" lon="3.18296376929707"><ele>56.50000000000001</ele><time>2026-04-22T08:27:17Z</time></trkpt><trkpt lat="41.89815840089235" lon="3.18305822060321"><ele>57.0</ele><time>2026-04-22T08:27:18Z</time></trkpt><trkpt lat="41.898087335357" lon="3.1831423749237895"><ele>57.5</ele><time>2026-04-22T08:27:19Z</time></trkpt><trkpt lat="41.898025360069866" lon="3.183213589228626"><ele>58.0</ele><time>2026-04-22T08:27:20Z</time></trkpt><trkpt lat="41.89796722825297" lon="3.183283473315003"><ele>58.50000000000001</ele><time>2026-04-22T08:27:21Z</time></trkpt><trkpt lat="41.89790940759269" lon="3.183342877658599"><ele>59.0</ele><time>2026-04-22T08:27:22Z</time></trkpt><trkpt lat="41.89784546863325" lon="3.183375161621181"><ele>59.00000000000001</ele><time>2026-04-22T08:27:23Z</time></trkpt><trkpt lat="41.89778171584886" lon="3.1833896860701296"><ele>59.0</ele><time>2026-04-22T08:27:24Z</time></trkpt><trkpt lat="41.89771392007374" lon="3.1833874137159146"><ele>59.0</ele><time>2026-04-22T08:27:25Z</time></trkpt><trkpt lat="41.8976458757086" lon="3.183403885968186"><ele>59.0</ele><time>2026-04-22T08:27:26Z</time></trkpt><trkpt lat="41.89758491245069" lon="3.1834584071630503"><ele>59.00000000000001</ele><time>2026-04-22T08:27:27Z</time></trkpt><trkpt lat="41.8975162779012" lon="3.1836305715937656"><ele>59.0</ele><time>2026-04-22T08:27:29Z</time></trkpt><trkpt lat="41.897501874381" lon="3.1837339339839588"><ele>58.800000000000004</ele><time>2026-04-22T08:27:30Z</time></trkpt><trkpt lat="41.897470513111514" lon="3.1838365862727023"><ele>58.60000000000001</ele><time>2026-04-22T08:27:31Z</time></trkpt><trkpt lat="41.897415127668076" lon="3.183930415152928"><ele>58.4</ele><time>2026-04-22T08:27:32Z</time></trkpt><trkpt lat="41.897347752726006" lon="3.184020153531332"><ele>58.2</ele><time>2026-04-22T08:27:33Z</time></trkpt><trkpt lat="41.897270966186305" lon="3.1841073138725093"><ele>58.0</ele><time>2026-04-22T08:27:34Z</time></trkpt><trkpt lat="41.897187113604254" lon="3.1841984927314932"><ele>58.0</ele><time>2026-04-22T08:27:35Z</time></trkpt><trkpt lat="41.897096706613546" lon="3.1842931853929235"><ele>58.0</ele><time>2026-04-22T08:27:36Z</time></trkpt><trkpt lat="41.89700184350357" lon="3.1843959922420733"><ele>58.0</ele><time>2026-04-22T08:27:37Z</time></trkpt><trkpt lat="41.896902167615565" lon="3.184503276559245"><ele>58.0</ele><time>2026-04-22T08:27:38Z</time></trkpt><trkpt lat="41.89679738149643" lon="3.1846139224553647"><ele>57.75</ele><time>2026-04-22T08:27:39Z</time></trkpt><trkpt lat="41.896684797280436" lon="3.184729857313496"><ele>57.5</ele><time>2026-04-22T08:27:40Z</time></trkpt><trkpt lat="41.8965731768925" lon="3.184845543710931"><ele>57.25</ele><time>2026-04-22T08:27:41Z</time></trkpt><trkpt lat="41.8964597584518" lon="3.1849635731511627"><ele>57.0</ele><time>2026-04-22T08:27:42Z</time></trkpt><trkpt lat="41.89634226389699" lon="3.185080664822699"><ele>56.75</ele><time>2026-04-22T08:27:43Z</time></trkpt><trkpt lat="41.89622227351967" lon="3.1851978962431162"><ele>56.5</ele><time>2026-04-22T08:27:44Z</time></trkpt><trkpt lat="41.89610489752136" lon="3.1853148174333197"><ele>56.25</ele><time>2026-04-22T08:27:45Z</time></trkpt><trkpt lat="41.89598802786169" lon="3.1854296183855784"><ele>56.0</ele><time>2026-04-22T08:27:46Z</time></trkpt><trkpt lat="41.895868600364246" lon="3.185547871115616"><ele>54.333333333333336</ele><time>2026-04-22T08:27:47Z</time></trkpt><trkpt lat="41.89574770387559" lon="3.1856641494511893"><ele>52.66666666666667</ele><time>2026-04-22T08:27:48Z</time></trkpt><trkpt lat="41.89562680672772" lon="3.1857819034973986"><ele>51.0</ele><time>2026-04-22T08:27:49Z</time></trkpt><trkpt lat="41.89550341253887" lon="3.1859012823151653"><ele>51.0</ele><time>2026-04-22T08:27:50Z</time></trkpt><trkpt lat="41.89537827143921" lon="3.18601939641783"><ele>51.0</ele><time>2026-04-22T08:27:51Z</time></trkpt><trkpt lat="41.895257301190505" lon="3.1861352504527143"><ele>51.0</ele><time>2026-04-22T08:27:52Z</time></trkpt><trkpt lat="41.895139300701395" lon="3.1862512241160497"><ele>51.0</ele><time>2026-04-22T08:27:53Z</time></trkpt><trkpt lat="41.89502407271163" lon="3.1863634058773784"><ele>50.25</ele><time>2026-04-22T08:27:54Z</time></trkpt><trkpt lat="41.89490996431252" lon="3.186478170009119"><ele>49.5</ele><time>2026-04-22T08:27:55Z</time></trkpt><trkpt lat="41.89479610131384" lon="3.1865892837435457"><ele>48.75</ele><time>2026-04-22T08:27:56Z</time></trkpt><trkpt lat="41.894681736502996" lon="3.1867054277901516"><ele>48.0</ele><time>2026-04-22T08:27:57Z</time></trkpt><trkpt lat="41.894567088835295" lon="3.1868168568992035"><ele>47.75</ele><time>2026-04-22T08:27:58Z</time></trkpt><trkpt lat="41.894452429878136" lon="3.1869285028091636"><ele>47.5</ele><time>2026-04-22T08:27:59Z</time></trkpt><trkpt lat="41.89433860598474" lon="3.187038918304449"><ele>47.25</ele><time>2026-04-22T08:28:00Z</time></trkpt><trkpt lat="41.89422615756228" lon="3.187148351285385"><ele>47.0</ele><time>2026-04-22T08:28:01Z</time></trkpt><trkpt lat="41.89411758858341" lon="3.1872543320336035"><ele>45.75</ele><time>2026-04-22T08:28:02Z</time></trkpt><trkpt lat="41.89401610412453" lon="3.187354032552114"><ele>44.5</ele><time>2026-04-22T08:28:03Z</time></trkpt><trkpt lat="41.89392085565659" lon="3.187447661757308"><ele>43.25</ele><time>2026-04-22T08:28:04Z</time></trkpt><trkpt lat="41.8938284663381" lon="3.187534560409853"><ele>42.0</ele><time>2026-04-22T08:28:05Z</time></trkpt><trkpt lat="41.89373902483591" lon="3.187619348045026"><ele>42.0</ele><time>2026-04-22T08:28:06Z</time></trkpt><trkpt lat="41.89365625807455" lon="3.187703600244552"><ele>42.0</ele><time>2026-04-22T08:28:07Z</time></trkpt><trkpt lat="41.89357505288503" lon="3.1877834354236723"><ele>42.0</ele><time>2026-04-22T08:28:08Z</time></trkpt><trkpt lat="41.89349745002199" lon="3.18786072337771"><ele>42.0</ele><time>2026-04-22T08:28:09Z</time></trkpt><trkpt lat="41.893417567824194" lon="3.1879349144452194"><ele>42.0</ele><time>2026-04-22T08:28:10Z</time></trkpt><trkpt lat="41.89334122373564" lon="3.1880096375389075"><ele>41.833333333333336</ele><time>2026-04-22T08:28:11Z</time></trkpt><trkpt lat="41.893272420387575" lon="3.1880768250345675"><ele>41.666666666666664</ele><time>2026-04-22T08:28:12Z</time></trkpt><trkpt lat="41.8932112729357" lon="3.188137765086782"><ele>41.5</ele><time>2026-04-22T08:28:13Z</time></trkpt><trkpt lat="41.893157791604914" lon="3.1881872096502275"><ele>41.33333333333333</ele><time>2026-04-22T08:28:14Z</time></trkpt><trkpt lat="41.893044830095974" lon="3.1882406141545907"><ele>41.166666666666664</ele><time>2026-04-22T08:28:16Z</time></trkpt><trkpt lat="41.89297763948796" lon="3.1882411055059867"><ele>41.0</ele><time>2026-04-22T08:28:17Z</time></trkpt><trkpt lat="41.8929066888944" lon="3.188262553420317"><ele>41.0</ele><time>2026-04-22T08:28:18Z</time></trkpt><trkpt lat="41.892840775013006" lon="3.1882714948676867"><ele>41.0</ele><time>2026-04-22T08:28:19Z</time></trkpt><trkpt lat="41.89277902336534" lon="3.1881182464918667"><ele>41.0</ele><time>2026-04-22T08:28:20Z</time></trkpt><trkpt lat="41.892735976429144" lon="3.1880337919103208"><ele>41.0</ele><time>2026-04-22T08:28:21Z</time></trkpt><trkpt lat="41.89269482678159" lon="3.18794699639195"><ele>41.0</ele><time>2026-04-22T08:28:22Z</time></trkpt><trkpt lat="41.89266936855997" lon="3.1878510681679164"><ele>41.0</ele><time>2026-04-22T08:28:23Z</time></trkpt><trkpt lat="41.89269420437815" lon="3.1877327395503796"><ele>41.0</ele><time>2026-04-22T08:28:24Z</time></trkpt><trkpt lat="41.89268952397089" lon="3.1876259788790557"><ele>41.0</ele><time>2026-04-22T08:28:25Z</time></trkpt><trkpt lat="41.89268170873354" lon="3.187518648969825"><ele>41.0</ele><time>2026-04-22T08:28:26Z</time></trkpt><trkpt lat="41.892673753283454" lon="3.1874064922672094"><ele>41.0</ele><time>2026-04-22T08:28:27Z</time></trkpt><trkpt lat="41.89266342287693" lon="3.1872918781942827"><ele>41.0</ele><time>2026-04-22T08:28:28Z</time></trkpt><trkpt lat="41.89265407028057" lon="3.1871749691473785"><ele>41.0</ele><time>2026-04-22T08:28:29Z</time></trkpt><trkpt lat="41.8926430083128" lon="3.1870618601854224"><ele>40.57142857142857</ele><time>2026-04-22T08:28:30Z</time></trkpt><trkpt lat="41.892630813962775" lon="3.1869541254633247"><ele>40.14285714285714</ele><time>2026-04-22T08:28:31Z</time></trkpt><trkpt lat="41.8926153581618" lon="3.186856715097201"><ele>39.71428571428571</ele><time>2026-04-22T08:28:32Z</time></trkpt><trkpt lat="41.89260069319225" lon="3.1867624115334316"><ele>39.285714285714285</ele><time>2026-04-22T08:28:33Z</time></trkpt><trkpt lat="41.89258379198913" lon="3.1866656619116576"><ele>38.85714285714286</ele><time>2026-04-22T08:28:34Z</time></trkpt><trkpt lat="41.892565999302604" lon="3.186568904585546"><ele>38.42857142857142</ele><time>2026-04-22T08:28:35Z</time></trkpt><trkpt lat="41.89254723715045" lon="3.186476954304471"><ele>38.0</ele><time>2026-04-22T08:28:36Z</time></trkpt><trkpt lat="41.89252701803428" lon="3.1863866323107457"><ele>37.8</ele><time>2026-04-22T08:28:37Z</time></trkpt><trkpt lat="41.89250844439753" lon="3.1863013730000573"><ele>37.599999999999994</ele><time>2026-04-22T08:28:38Z</time></trkpt><trkpt lat="41.89247703682745" lon="3.186158167340305"><ele>37.400000000000006</ele><time>2026-04-22T08:28:40Z</time></trkpt><trkpt lat="41.89249245574251" lon="3.1860109567322175"><ele>37.2</ele><time>2026-04-22T08:28:42Z</time></trkpt><trkpt lat="41.892471489672765" lon="3.1858664683147664"><ele>37.0</ele><time>2026-04-22T08:28:44Z</time></trkpt><trkpt lat="41.8923947513272" lon="3.1857411301424015"><ele>37.333333333333336</ele><time>2026-04-22T08:28:46Z</time></trkpt><trkpt lat="41.89235763601397" lon="3.185665309017609"><ele>37.66666666666667</ele><time>2026-04-22T08:28:47Z</time></trkpt><trkpt lat="41.8923292032212" lon="3.185574644303616"><ele>38.0</ele><time>2026-04-22T08:28:48Z</time></trkpt><trkpt lat="41.89230702687189" lon="3.1854744380454894"><ele>38.333333333333336</ele><time>2026-04-22T08:28:49Z</time></trkpt><trkpt lat="41.89228271277495" lon="3.185368302920519"><ele>38.666666666666664</ele><time>2026-04-22T08:28:50Z</time></trkpt><trkpt lat="41.89225746077006" lon="3.18526088299684"><ele>39.0</ele><time>2026-04-22T08:28:51Z</time></trkpt><trkpt lat="41.8922323244249" lon="3.185152508857351"><ele>39.0</ele><time>2026-04-22T08:28:52Z</time></trkpt><trkpt lat="41.89220691989433" lon="3.185041735498166"><ele>39.0</ele><time>2026-04-22T08:28:53Z</time></trkpt><trkpt lat="41.89218080825251" lon="3.1849303110069638"><ele>39.0</ele><time>2026-04-22T08:28:54Z</time></trkpt><trkpt lat="41.892154349897396" lon="3.184818278635985"><ele>39.0</ele><time>2026-04-22T08:28:55Z</time></trkpt><trkpt lat="41.892127704644686" lon="3.1847075571997405"><ele>39.0</ele><time>2026-04-22T08:28:56Z</time></trkpt><trkpt lat="41.8921003791582" lon="3.184603721335393"><ele>39.0</ele><time>2026-04-22T08:28:57Z</time></trkpt><trkpt lat="41.89207480603353" lon="3.184509160684129"><ele>39.333333333333336</ele><time>2026-04-22T08:28:58Z</time></trkpt><trkpt lat="41.89204726534387" lon="3.184431577425884"><ele>39.666666666666664</ele><time>2026-04-22T08:28:59Z</time></trkpt><trkpt lat="41.891995519559266" lon="3.1842918474272004"><ele>40.0</ele><time>2026-04-22T08:29:01Z</time></trkpt><trkpt lat="41.891940566965054" lon="3.184159015958779"><ele>40.33333333333333</ele><time>2026-04-22T08:29:03Z</time></trkpt><trkpt lat="41.89191006631938" lon="3.1840840563904402"><ele>40.666666666666664</ele><time>2026-04-22T08:29:04Z</time></trkpt><trkpt lat="41.8918746665178" lon="3.183999231686923"><ele>41.0</ele><time>2026-04-22T08:29:05Z</time></trkpt><trkpt lat="41.89183738252857" lon="3.1839085111565493"><ele>40.83333333333333</ele><time>2026-04-22T08:29:06Z</time></trkpt><trkpt lat="41.89179698829228" lon="3.183810309239813"><ele>40.666666666666664</ele><time>2026-04-22T08:29:07Z</time></trkpt><trkpt lat="41.89175318535519" lon="3.18371165255471"><ele>40.5</ele><time>2026-04-22T08:29:08Z</time></trkpt><trkpt lat="41.89170992011891" lon="3.1836161282241053"><ele>40.333333333333336</ele><time>2026-04-22T08:29:09Z</time></trkpt><trkpt lat="41.89167101257906" lon="3.183527689189665"><ele>40.16666666666667</ele><time>2026-04-22T08:29:10Z</time></trkpt><trkpt lat="41.89163336994234" lon="3.1834433521723993"><ele>40.0</ele><time>2026-04-22T08:29:11Z</time></trkpt><trkpt lat="41.891597280049965" lon="3.1833634068782586"><ele>40.0</ele><time>2026-04-22T08:29:12Z</time></trkpt><trkpt lat="41.89156338394881" lon="3.183287086741431"><ele>40.0</ele><time>2026-04-22T08:29:13Z</time></trkpt><trkpt lat="41.89150292842561" lon="3.1831536829296976"><ele>40.0</ele><time>2026-04-22T08:29:15Z</time></trkpt><trkpt lat="41.891460952340765" lon="3.1830650984701436"><ele>40.0</ele><time>2026-04-22T08:29:17Z</time></trkpt><trkpt lat="41.891412418372575" lon="3.182967189253289"><ele>40.0</ele><time>2026-04-22T08:29:20Z</time></trkpt><trkpt lat="41.89135093257229" lon="3.1828434082252253"><ele>40.42857142857143</ele><time>2026-04-22T08:29:22Z</time></trkpt><trkpt lat="41.89131571692999" lon="3.1827727010279534"><ele>40.85714285714286</ele><time>2026-04-22T08:29:23Z</time></trkpt><trkpt lat="41.89127884446315" lon="3.1826953789225705"><ele>41.28571428571429</ele><time>2026-04-22T08:29:24Z</time></trkpt><trkpt lat="41.89124003851816" lon="3.1826157156139736"><ele>41.714285714285715</ele><time>2026-04-22T08:29:25Z</time></trkpt><trkpt lat="41.891201381419535" lon="3.1825322508667098"><ele>42.142857142857146</ele><time>2026-04-22T08:29:26Z</time></trkpt><trkpt lat="41.89116060867036" lon="3.182445930985153"><ele>42.57142857142858</ele><time>2026-04-22T08:29:27Z</time></trkpt><trkpt lat="41.89111820951378" lon="3.182349791037807"><ele>43.0</ele><time>2026-04-22T08:29:28Z</time></trkpt><trkpt lat="41.89107794995237" lon="3.182248623837817"><ele>42.8</ele><time>2026-04-22T08:29:29Z</time></trkpt><trkpt lat="41.89103702803692" lon="3.1821320871876613"><ele>42.599999999999994</ele><time>2026-04-22T08:29:30Z</time></trkpt><trkpt lat="41.891001436745846" lon="3.1820202891183387"><ele>42.400000000000006</ele><time>2026-04-22T08:29:31Z</time></trkpt><trkpt lat="41.8909710619092" lon="3.181906223830479"><ele>42.2</ele><time>2026-04-22T08:29:32Z</time></trkpt><trkpt lat="41.890943336762376" lon="3.1817898194231002"><ele>42.0</ele><time>2026-04-22T08:29:33Z</time></trkpt><trkpt lat="41.89091624048038" lon="3.1816692101997748"><ele>42.0</ele><time>2026-04-22T08:29:34Z</time></trkpt><trkpt lat="41.8908876748141" lon="3.1815487616733944"><ele>42.0</ele><time>2026-04-22T08:29:35Z</time></trkpt><trkpt lat="41.8908620577578" lon="3.1814331075527456"><ele>42.0</ele><time>2026-04-22T08:29:36Z</time></trkpt><trkpt lat="41.89083822241908" lon="3.1813195202870266"><ele>42.0</ele><time>2026-04-22T08:29:37Z</time></trkpt><trkpt lat="41.89081428539267" lon="3.181203708135699"><ele>42.0</ele><time>2026-04-22T08:29:38Z</time></trkpt><trkpt lat="41.890796307481146" lon="3.181086270567001"><ele>42.833333333333336</ele><time>2026-04-22T08:29:39Z</time></trkpt><trkpt lat="41.890776425207356" lon="3.180970464281589"><ele>43.666666666666664</ele><time>2026-04-22T08:29:40Z</time></trkpt><trkpt lat="41.89076404974911" lon="3.1808504222189073"><ele>44.5</ele><time>2026-04-22T08:29:41Z</time></trkpt><trkpt lat="41.89075263946608" lon="3.18072826621044"><ele>45.33333333333333</ele><time>2026-04-22T08:29:42Z</time></trkpt><trkpt lat="41.89074597618607" lon="3.18061287221094"><ele>46.166666666666664</ele><time>2026-04-22T08:29:43Z</time></trkpt><trkpt lat="41.89074085434752" lon="3.180495795270589"><ele>47.0</ele><time>2026-04-22T08:29:44Z</time></trkpt><trkpt lat="41.890734621284054" lon="3.1803771621860206"><ele>47.0</ele><time>2026-04-22T08:29:45Z</time></trkpt><trkpt lat="41.89072899179755" lon="3.1802592002576007"><ele>47.0</ele><time>2026-04-22T08:29:46Z</time></trkpt><trkpt lat="41.89072496400424" lon="3.180145970943751"><ele>47.0</ele><time>2026-04-22T08:29:47Z</time></trkpt><trkpt lat="41.89072143162572" lon="3.18003658176479"><ele>47.0</ele><time>2026-04-22T08:29:48Z</time></trkpt><trkpt lat="41.89071123293386" lon="3.1799302709456883"><ele>47.0</ele><time>2026-04-22T08:29:49Z</time></trkpt><trkpt lat="41.89069159555934" lon="3.1798223165452826"><ele>47.0</ele><time>2026-04-22T08:29:50Z</time></trkpt><trkpt lat="41.890667286130956" lon="3.1797120796443483"><ele>47.0</ele><time>2026-04-22T08:29:51Z</time></trkpt><trkpt lat="41.8906343952926" lon="3.179597068364598"><ele>47.0</ele><time>2026-04-22T08:29:52Z</time></trkpt><trkpt lat="41.89059480740595" lon="3.1794823838160684"><ele>47.0</ele><time>2026-04-22T08:29:53Z</time></trkpt><trkpt lat="41.890547847108515" lon="3.1793690901863747"><ele>47.0</ele><time>2026-04-22T08:29:54Z</time></trkpt><trkpt lat="41.890501131743406" lon="3.1792554757828158"><ele>47.0</ele><time>2026-04-22T08:29:55Z</time></trkpt><trkpt lat="41.89045604466928" lon="3.1791519655625486"><ele>47.0</ele><time>2026-04-22T08:29:56Z</time></trkpt><trkpt lat="41.89039964171333" lon="3.179054282521288"><ele>47.0</ele><time>2026-04-22T08:29:57Z</time></trkpt><trkpt lat="41.890341497933" lon="3.178959667788043"><ele>47.0</ele><time>2026-04-22T08:29:58Z</time></trkpt><trkpt lat="41.89027931518673" lon="3.1788692386340722"><ele>47.0</ele><time>2026-04-22T08:29:59Z</time></trkpt><trkpt lat="41.89020800815333" lon="3.1787946700368166"><ele>47.0</ele><time>2026-04-22T08:30:00Z</time></trkpt><trkpt lat="41.89013549430196" lon="3.1787267295959514"><ele>47.166666666666664</ele><time>2026-04-22T08:30:01Z</time></trkpt><trkpt lat="41.89006474673713" lon="3.1786617031149866"><ele>47.33333333333333</ele><time>2026-04-22T08:30:02Z</time></trkpt><trkpt lat="41.889986513796295" lon="3.1786047541914817"><ele>47.5</ele><time>2026-04-22T08:30:03Z</time></trkpt><trkpt lat="41.88990340835779" lon="3.178554048581362"><ele>47.666666666666664</ele><time>2026-04-22T08:30:04Z</time></trkpt><trkpt lat="41.88981545164596" lon="3.1785140045848403"><ele>47.833333333333336</ele><time>2026-04-22T08:30:05Z</time></trkpt><trkpt lat="41.8897309323467" lon="3.1784890600469224"><ele>48.0</ele><time>2026-04-22T08:30:06Z</time></trkpt><trkpt lat="41.88965254073631" lon="3.178480273683403"><ele>48.0</ele><time>2026-04-22T08:30:07Z</time></trkpt><trkpt lat="41.88958090780772" lon="3.1784849118854726"><ele>48.0</ele><time>2026-04-22T08:30:08Z</time></trkpt><trkpt lat="41.88950169682594" lon="3.1784925733932825"><ele>48.0</ele><time>2026-04-22T08:30:09Z</time></trkpt><trkpt lat="41.88941512944394" lon="3.178505061619888"><ele>48.0</ele><time>2026-04-22T08:30:10Z</time></trkpt><trkpt lat="41.88932332757576" lon="3.1785263854017036"><ele>48.0</ele><time>2026-04-22T08:30:11Z</time></trkpt><trkpt lat="41.8892264531459" lon="3.17855590263453"><ele>48.0</ele><time>2026-04-22T08:30:12Z</time></trkpt><trkpt lat="41.88912884514717" lon="3.178590469235433"><ele>49.0</ele><time>2026-04-22T08:30:13Z</time></trkpt><trkpt lat="41.88903347067214" lon="3.178635621490669"><ele>50.0</ele><time>2026-04-22T08:30:14Z</time></trkpt><trkpt lat="41.888940352258075" lon="3.178687896498381"><ele>51.0</ele><time>2026-04-22T08:30:15Z</time></trkpt><trkpt lat="41.888845125882376" lon="3.178744837897791"><ele>52.0</ele><time>2026-04-22T08:30:16Z</time></trkpt><trkpt lat="41.888753224859286" lon="3.1788098137962084"><ele>53.0</ele><time>2026-04-22T08:30:17Z</time></trkpt><trkpt lat="41.88866275006233" lon="3.178880330086745"><ele>53.0</ele><time>2026-04-22T08:30:18Z</time></trkpt><trkpt lat="41.88857571302503" lon="3.1789552250902497"><ele>53.0</ele><time>2026-04-22T08:30:19Z</time></trkpt><trkpt lat="41.88848792156343" lon="3.1790338006834897"><ele>53.0</ele><time>2026-04-22T08:30:20Z</time></trkpt><trkpt lat="41.88839775039058" lon="3.1791140145575976"><ele>53.0</ele><time>2026-04-22T08:30:21Z</time></trkpt><trkpt lat="41.8883070223197" lon="3.179194150218423"><ele>53.0</ele><time>2026-04-22T08:30:22Z</time></trkpt><trkpt lat="41.88821874296378" lon="3.179271341656113"><ele>51.0</ele><time>2026-04-22T08:30:23Z</time></trkpt><trkpt lat="41.888128897485245" lon="3.17935009799304"><ele>49.0</ele><time>2026-04-22T08:30:24Z</time></trkpt><trkpt lat="41.888038610297905" lon="3.1794299905857035"><ele>47.0</ele><time>2026-04-22T08:30:25Z</time></trkpt><trkpt lat="41.88795055204884" lon="3.1795058477925133"><ele>45.0</ele><time>2026-04-22T08:30:26Z</time></trkpt><trkpt lat="41.88786686873908" lon="3.1795790301663"><ele>43.0</ele><time>2026-04-22T08:30:27Z</time></trkpt><trkpt lat="41.88778050094552" lon="3.179641197232093"><ele>43.0</ele><time>2026-04-22T08:30:28Z</time></trkpt><trkpt lat="41.88769850554552" lon="3.1796960046585716"><ele>43.0</ele><time>2026-04-22T08:30:29Z</time></trkpt><trkpt lat="41.88761100315892" lon="3.179740709205109"><ele>43.0</ele><time>2026-04-22T08:30:30Z</time></trkpt><trkpt lat="41.88752697520781" lon="3.1797752575145473"><ele>43.0</ele><time>2026-04-22T08:30:31Z</time></trkpt><trkpt lat="41.88743546497796" lon="3.1797999893595543"><ele>43.0</ele><time>2026-04-22T08:30:32Z</time></trkpt><trkpt lat="41.88734342099424" lon="3.179809499634123"><ele>44.2</ele><time>2026-04-22T08:30:33Z</time></trkpt><trkpt lat="41.887246439041085" lon="3.1798075440635785"><ele>45.4</ele><time>2026-04-22T08:30:34Z</time></trkpt><trkpt lat="41.887150884940105" lon="3.1798083298224045"><ele>46.6</ele><time>2026-04-22T08:30:35Z</time></trkpt><trkpt lat="41.88705172353142" lon="3.1798139645977654"><ele>47.800000000000004</ele><time>2026-04-22T08:30:36Z</time></trkpt><trkpt lat="41.886955200112496" lon="3.1798158289572194"><ele>49.0</ele><time>2026-04-22T08:30:37Z</time></trkpt><trkpt lat="41.88686447606212" lon="3.179820848559874"><ele>48.99999999999999</ele><time>2026-04-22T08:30:38Z</time></trkpt><trkpt lat="41.886773466103776" lon="3.1798232984521952"><ele>49.0</ele><time>2026-04-22T08:30:39Z</time></trkpt><trkpt lat="41.88668835325519" lon="3.1798290662106043"><ele>49.0</ele><time>2026-04-22T08:30:40Z</time></trkpt><trkpt lat="41.88660539947409" lon="3.179831522318013"><ele>49.0</ele><time>2026-04-22T08:30:41Z</time></trkpt><trkpt lat="41.88652159459222" lon="3.1798151495573004"><ele>48.99999999999999</ele><time>2026-04-22T08:30:42Z</time></trkpt><trkpt lat="41.886439102395876" lon="3.1798148089591"><ele>49.0</ele><time>2026-04-22T08:30:43Z</time></trkpt><trkpt lat="41.88635843183813" lon="3.1798076207192896"><ele>49.0</ele><time>2026-04-22T08:30:44Z</time></trkpt><trkpt lat="41.88627976199501" lon="3.179796211816825"><ele>49.0</ele><time>2026-04-22T08:30:45Z</time></trkpt><trkpt lat="41.886203464002826" lon="3.1797872879849187"><ele>49.0</ele><time>2026-04-22T08:30:46Z</time></trkpt><trkpt lat="41.88612707856289" lon="3.179778254928307"><ele>49.0</ele><time>2026-04-22T08:30:47Z</time></trkpt><trkpt lat="41.88605333650843" lon="3.1797725133602057"><ele>49.0</ele><time>2026-04-22T08:30:48Z</time></trkpt><trkpt lat="41.8859838443941" lon="3.1797716610281066"><ele>49.0</ele><time>2026-04-22T08:30:49Z</time></trkpt><trkpt lat="41.885920664829854" lon="3.1797740694333783"><ele>49.0</ele><time>2026-04-22T08:30:50Z</time></trkpt><trkpt lat="41.885821024475206" lon="3.179778160638053"><ele>50.400000000000006</ele><time>2026-04-22T08:30:52Z</time></trkpt><trkpt lat="41.88573656682698" lon="3.179781137786229"><ele>51.8</ele><time>2026-04-22T08:30:54Z</time></trkpt><trkpt lat="41.885648782154455" lon="3.179794433342029"><ele>53.199999999999996</ele><time>2026-04-22T08:30:56Z</time></trkpt><trkpt lat="41.885546572545884" lon="3.1798086392357194"><ele>54.599999999999994</ele><time>2026-04-22T08:30:58Z</time></trkpt><trkpt lat="41.88542457361605" lon="3.179821555335023"><ele>56.0</ele><time>2026-04-22T08:31:00Z</time></trkpt><trkpt lat="41.88535814644127" lon="3.1798292647531223"><ele>56.0</ele><time>2026-04-22T08:31:01Z</time></trkpt><trkpt lat="41.88529055953679" lon="3.179835342577789"><ele>56.0</ele><time>2026-04-22T08:31:02Z</time></trkpt><trkpt lat="41.88522315940209" lon="3.1798421561217913"><ele>56.0</ele><time>2026-04-22T08:31:03Z</time></trkpt><trkpt lat="41.885155169776965" lon="3.1798473819473316"><ele>56.0</ele><time>2026-04-22T08:31:04Z</time></trkpt><trkpt lat="41.885091563133514" lon="3.1798526323435907"><ele>56.0</ele><time>2026-04-22T08:31:05Z</time></trkpt><trkpt lat="41.885026807058786" lon="3.1798599150601876"><ele>56.0</ele><time>2026-04-22T08:31:06Z</time></trkpt><trkpt lat="41.88496014534995" lon="3.1798621171413672"><ele>56.0</ele><time>2026-04-22T08:31:07Z</time></trkpt><trkpt lat="41.88489143399528" lon="3.1798674498006463"><ele>54.714285714285715</ele><time>2026-04-22T08:31:08Z</time></trkpt><trkpt lat="41.88481938402666" lon="3.179873577680383"><ele>53.42857142857143</ele><time>2026-04-22T08:31:09Z</time></trkpt><trkpt lat="41.88474823424638" lon="3.1798802012018443"><ele>52.14285714285714</ele><time>2026-04-22T08:31:10Z</time></trkpt><trkpt lat="41.88467784353917" lon="3.1798933494641988"><ele>50.85714285714286</ele><time>2026-04-22T08:31:11Z</time></trkpt><trkpt lat="41.88460630545676" lon="3.179906645401865"><ele>49.57142857142857</ele><time>2026-04-22T08:31:12Z</time></trkpt><trkpt lat="41.88453552634633" lon="3.179915348140365"><ele>48.285714285714285</ele><time>2026-04-22T08:31:13Z</time></trkpt><trkpt lat="41.88446724298667" lon="3.179931800275159"><ele>47.0</ele><time>2026-04-22T08:31:14Z</time></trkpt><trkpt lat="41.884397972139205" lon="3.1799518435951186"><ele>47.0</ele><time>2026-04-22T08:31:15Z</time></trkpt><trkpt lat="41.88432531819837" lon="3.1799729481352905"><ele>47.0</ele><time>2026-04-22T08:31:16Z</time></trkpt><trkpt lat="41.884255222771316" lon="3.1799960376053797"><ele>47.0</ele><time>2026-04-22T08:31:17Z</time></trkpt><trkpt lat="41.88418206454436" lon="3.180020821073491"><ele>47.0</ele><time>2026-04-22T08:31:18Z</time></trkpt><trkpt lat="41.884108820080115" lon="3.180046079599396"><ele>47.0</ele><time>2026-04-22T08:31:19Z</time></trkpt><trkpt lat="41.88403886378934" lon="3.1800730820522567"><ele>47.0</ele><time>2026-04-22T08:31:20Z</time></trkpt><trkpt lat="41.88397085561801" lon="3.1801031820539936"><ele>47.0</ele><time>2026-04-22T08:31:21Z</time></trkpt><trkpt lat="41.883903556914234" lon="3.180134773663679"><ele>48.0</ele><time>2026-04-22T08:31:22Z</time></trkpt><trkpt lat="41.883837141298336" lon="3.180163596110306"><ele>49.0</ele><time>2026-04-22T08:31:23Z</time></trkpt><trkpt lat="41.88377026461253" lon="3.180188548760686"><ele>50.0</ele><time>2026-04-22T08:31:24Z</time></trkpt><trkpt lat="41.88370513572944" lon="3.1802064051808796"><ele>51.0</ele><time>2026-04-22T08:31:25Z</time></trkpt><trkpt lat="41.8836397055211" lon="3.1802188817173405"><ele>52.00000000000001</ele><time>2026-04-22T08:31:26Z</time></trkpt><trkpt lat="41.88357614011843" lon="3.180225765985581"><ele>53.0</ele><time>2026-04-22T08:31:27Z</time></trkpt><trkpt lat="41.88345335443153" lon="3.1802077814354837"><ele>53.333333333333336</ele><time>2026-04-22T08:31:29Z</time></trkpt><trkpt lat="41.88338686643424" lon="3.180185960614173"><ele>53.66666666666667</ele><time>2026-04-22T08:31:30Z</time></trkpt><trkpt lat="41.88332052760308" lon="3.180158140429012"><ele>54.0</ele><time>2026-04-22T08:31:31Z</time></trkpt><trkpt lat="41.8832534773468" lon="3.1801223058436476"><ele>54.33333333333333</ele><time>2026-04-22T08:31:32Z</time></trkpt><trkpt lat="41.883186827105135" lon="3.180080917638217"><ele>54.666666666666664</ele><time>2026-04-22T08:31:33Z</time></trkpt><trkpt lat="41.88312466641921" lon="3.1800426103554305"><ele>55.0</ele><time>2026-04-22T08:31:34Z</time></trkpt><trkpt lat="41.88302255169529" lon="3.1799642364361964"><ele>55.0</ele><time>2026-04-22T08:31:36Z</time></trkpt><trkpt lat="41.88293924744458" lon="3.179876138808263"><ele>55.0</ele><time>2026-04-22T08:31:38Z</time></trkpt><trkpt lat="41.882863242459614" lon="3.1797619718355477"><ele>55.0</ele><time>2026-04-22T08:31:40Z</time></trkpt><trkpt lat="41.88283487468844" lon="3.179685148743567"><ele>55.0</ele><time>2026-04-22T08:31:41Z</time></trkpt><trkpt lat="41.88280572034307" lon="3.179603517111413"><ele>55.0</ele><time>2026-04-22T08:31:42Z</time></trkpt><trkpt lat="41.88276430063725" lon="3.179452897636712"><ele>55.8</ele><time>2026-04-22T08:31:44Z</time></trkpt><trkpt lat="41.88274316822565" lon="3.179295431664593"><ele>56.6</ele><time>2026-04-22T08:31:46Z</time></trkpt><trkpt lat="41.88274759783289" lon="3.1791280986704815"><ele>57.400000000000006</ele><time>2026-04-22T08:31:48Z</time></trkpt><trkpt lat="41.88278735744484" lon="3.1789644663766907"><ele>58.2</ele><time>2026-04-22T08:31:50Z</time></trkpt><trkpt lat="41.882816549220166" lon="3.178885476567291"><ele>59.0</ele><time>2026-04-22T08:31:51Z</time></trkpt><trkpt lat="41.88284925874617" lon="3.178806786317287"><ele>59.0</ele><time>2026-04-22T08:31:52Z</time></trkpt><trkpt lat="41.88288385699592" lon="3.178732652899827"><ele>59.00000000000001</ele><time>2026-04-22T08:31:53Z</time></trkpt><trkpt lat="41.882944399640174" lon="3.1785961348267793"><ele>59.00000000000001</ele><time>2026-04-22T08:31:55Z</time></trkpt><trkpt lat="41.882992789915676" lon="3.1784708959909698"><ele>59.0</ele><time>2026-04-22T08:31:57Z</time></trkpt><trkpt lat="41.8830226422403" lon="3.1783555377245927"><ele>59.0</ele><time>2026-04-22T08:31:59Z</time></trkpt><trkpt lat="41.88301558866975" lon="3.1782503089150342"><ele>59.0</ele><time>2026-04-22T08:32:01Z</time></trkpt><trkpt lat="41.88292873736626" lon="3.1781692489873477"><ele>59.00000000000001</ele><time>2026-04-22T08:32:03Z</time></trkpt><trkpt lat="41.882849225441994" lon="3.1781245622964835"><ele>59.00000000000001</ele><time>2026-04-22T08:32:05Z</time></trkpt><trkpt lat="41.8827613893364" lon="3.1780843791647237"><ele>59.0</ele><time>2026-04-22T08:32:07Z</time></trkpt><trkpt lat="41.882660766029616" lon="3.1780405857046006"><ele>59.0</ele><time>2026-04-22T08:32:09Z</time></trkpt><trkpt lat="41.88255365175471" lon="3.17799580168368"><ele>59.00000000000001</ele><time>2026-04-22T08:32:11Z</time></trkpt><trkpt lat="41.88244924436741" lon="3.177947766660414"><ele>59.0</ele><time>2026-04-22T08:32:13Z</time></trkpt><trkpt lat="41.882337304184105" lon="3.1779103363570305"><ele>59.0</ele><time>2026-04-22T08:32:15Z</time></trkpt><trkpt lat="41.88229542516114" lon="3.177816799826967"><ele>59.0</ele><time>2026-04-22T08:32:16Z</time></trkpt><trkpt lat="41.88224706290508" lon="3.177759039970822"><ele>59.00000000000001</ele><time>2026-04-22T08:32:17Z</time></trkpt><trkpt lat="41.88219625879046" lon="3.177698974716528"><ele>59.0</ele><time>2026-04-22T08:32:18Z</time></trkpt><trkpt lat="41.88214571172245" lon="3.177645514352259"><ele>59.00000000000001</ele><time>2026-04-22T08:32:19Z</time></trkpt><trkpt lat="41.88209201381943" lon="3.1775964284939335"><ele>59.0</ele><time>2026-04-22T08:32:20Z</time></trkpt><trkpt lat="41.881977613228884" lon="3.1775281533529456"><ele>59.0</ele><time>2026-04-22T08:32:22Z</time></trkpt><trkpt lat="41.88191328019862" lon="3.1775048691172945"><ele>59.0</ele><time>2026-04-22T08:32:23Z</time></trkpt><trkpt lat="41.881848704639765" lon="3.177485012890408"><ele>59.00000000000001</ele><time>2026-04-22T08:32:24Z</time></trkpt><trkpt lat="41.881785354030505" lon="3.177466226177909"><ele>59.0</ele><time>2026-04-22T08:32:25Z</time></trkpt><trkpt lat="41.8817197737003" lon="3.1774496380978206"><ele>58.42857142857142</ele><time>2026-04-22T08:32:26Z</time></trkpt><trkpt lat="41.88165739848083" lon="3.1774351778965406"><ele>57.85714285714286</ele><time>2026-04-22T08:32:27Z</time></trkpt><trkpt lat="41.8815914018199" lon="3.1774200176689407"><ele>57.285714285714285</ele><time>2026-04-22T08:32:28Z</time></trkpt><trkpt lat="41.881526576479025" lon="3.1774047039847657"><ele>56.71428571428571</ele><time>2026-04-22T08:32:29Z</time></trkpt><trkpt lat="41.88146143488307" lon="3.177390814060054"><ele>56.14285714285714</ele><time>2026-04-22T08:32:30Z</time></trkpt><trkpt lat="41.88139694099686" lon="3.177373087083045"><ele>55.57142857142857</ele><time>2026-04-22T08:32:31Z</time></trkpt><trkpt lat="41.88133082437741" lon="3.1773571041128426"><ele>55.0</ele><time>2026-04-22T08:32:32Z</time></trkpt><trkpt lat="41.881266942317566" lon="3.1773439234327516"><ele>58.0</ele><time>2026-04-22T08:32:33Z</time></trkpt><trkpt lat="41.88120084954788" lon="3.1773246974901252"><ele>61.0</ele><time>2026-04-22T08:32:34Z</time></trkpt><trkpt lat="41.881138165542495" lon="3.1773046328883456"><ele>64.0</ele><time>2026-04-22T08:32:35Z</time></trkpt><trkpt lat="41.88101989507163" lon="3.1772546742727403"><ele>67.0</ele><time>2026-04-22T08:32:37Z</time></trkpt><trkpt lat="41.88091064876401" lon="3.1772021669158588"><ele>70.0</ele><time>2026-04-22T08:32:39Z</time></trkpt><trkpt lat="41.88080704973294" lon="3.1771439774695973"><ele>70.0</ele><time>2026-04-22T08:32:41Z</time></trkpt><trkpt lat="41.88071071099006" lon="3.1770906303709485"><ele>70.0</ele><time>2026-04-22T08:32:43Z</time></trkpt><trkpt lat="41.88061405786537" lon="3.1770344316216166"><ele>70.0</ele><time>2026-04-22T08:32:45Z</time></trkpt><trkpt lat="41.88051183306037" lon="3.1769709738215504"><ele>70.0</ele><time>2026-04-22T08:32:47Z</time></trkpt><trkpt lat="41.880423107020434" lon="3.176878189415466"><ele>70.0</ele><time>2026-04-22T08:32:49Z</time></trkpt><trkpt lat="41.88036581803372" lon="3.1767509891633736"><ele>70.0</ele><time>2026-04-22T08:32:51Z</time></trkpt><trkpt lat="41.88035407354293" lon="3.176619670639861"><ele>70.0</ele><time>2026-04-22T08:32:53Z</time></trkpt><trkpt lat="41.8803739083589" lon="3.176496758685992"><ele>70.0</ele><time>2026-04-22T08:32:55Z</time></trkpt><trkpt lat="41.88039770232004" lon="3.176375025903881"><ele>70.0</ele><time>2026-04-22T08:32:57Z</time></trkpt><trkpt lat="41.8804250355909" lon="3.1762527930742395"><ele>70.0</ele><time>2026-04-22T08:32:59Z</time></trkpt><trkpt lat="41.8804517408652" lon="3.1761266139840636"><ele>71.83333333333333</ele><time>2026-04-22T08:33:01Z</time></trkpt><trkpt lat="41.8804746191901" lon="3.176003514130912"><ele>73.66666666666666</ele><time>2026-04-22T08:33:03Z</time></trkpt><trkpt lat="41.88048693062179" lon="3.175889915984716"><ele>75.5</ele><time>2026-04-22T08:33:05Z</time></trkpt><trkpt lat="41.880484566997985" lon="3.1757439375051275"><ele>77.33333333333333</ele><time>2026-04-22T08:33:07Z</time></trkpt><trkpt lat="41.88047348038867" lon="3.175654891737477"><ele>79.16666666666667</ele><time>2026-04-22T08:33:08Z</time></trkpt><trkpt lat="41.88045046074933" lon="3.17556336440567"><ele>81.0</ele><time>2026-04-22T08:33:09Z</time></trkpt><trkpt lat="41.88041749743341" lon="3.175474669390119"><ele>81.16666666666667</ele><time>2026-04-22T08:33:10Z</time></trkpt><trkpt lat="41.880377680382" lon="3.1753955015422983"><ele>81.33333333333333</ele><time>2026-04-22T08:33:11Z</time></trkpt><trkpt lat="41.880334491970764" lon="3.175327004098631"><ele>81.5</ele><time>2026-04-22T08:33:12Z</time></trkpt><trkpt lat="41.880248142641946" lon="3.1752253353487667"><ele>81.66666666666666</ele><time>2026-04-22T08:33:14Z</time></trkpt><trkpt lat="41.88017979803816" lon="3.1751439178829264"><ele>81.83333333333333</ele><time>2026-04-22T08:33:16Z</time></trkpt><trkpt lat="41.88011448844699" lon="3.1750837930704714"><ele>82.0</ele><time>2026-04-22T08:33:18Z</time></trkpt><trkpt lat="41.88004065771347" lon="3.1750529014417634"><ele>80.39999999999999</ele><time>2026-04-22T08:33:20Z</time></trkpt><trkpt lat="41.87996572691414" lon="3.1750552053835333"><ele>78.8</ele><time>2026-04-22T08:33:22Z</time></trkpt><trkpt lat="41.879870801383625" lon="3.175104599208825"><ele>77.2</ele><time>2026-04-22T08:33:24Z</time></trkpt><trkpt lat="41.87976768440342" lon="3.175180444378715"><ele>75.6</ele><time>2026-04-22T08:33:26Z</time></trkpt><trkpt lat="41.879665384925985" lon="3.1752599227971205"><ele>74.0</ele><time>2026-04-22T08:33:28Z</time></trkpt><trkpt lat="41.879571123573996" lon="3.1753458985485232"><ele>74.0</ele><time>2026-04-22T08:33:30Z</time></trkpt><trkpt lat="41.879485723654206" lon="3.175442880713043"><ele>74.0</ele><time>2026-04-22T08:33:32Z</time></trkpt><trkpt lat="41.87940700475894" lon="3.175532660015081"><ele>74.0</ele><time>2026-04-22T08:33:34Z</time></trkpt><trkpt lat="41.87932376685122" lon="3.175623112150075"><ele>74.0</ele><time>2026-04-22T08:33:36Z</time></trkpt><trkpt lat="41.87924381512205" lon="3.1757059790611133"><ele>74.0</ele><time>2026-04-22T08:33:38Z</time></trkpt><trkpt lat="41.87915616687238" lon="3.175771037321629"><ele>74.2</ele><time>2026-04-22T08:33:40Z</time></trkpt><trkpt lat="41.879062279438465" lon="3.1758061067941625"><ele>74.4</ele><time>2026-04-22T08:33:42Z</time></trkpt><trkpt lat="41.8789591440634" lon="3.175815855111053"><ele>74.6</ele><time>2026-04-22T08:33:44Z</time></trkpt><trkpt lat="41.87885274637953" lon="3.175805230400977"><ele>74.8</ele><time>2026-04-22T08:33:46Z</time></trkpt><trkpt lat="41.87874410244405" lon="3.1757984093263625"><ele>75.0</ele><time>2026-04-22T08:33:48Z</time></trkpt><trkpt lat="41.878637878297724" lon="3.175797828370555"><ele>75.0</ele><time>2026-04-22T08:33:50Z</time></trkpt><trkpt lat="41.87852872940786" lon="3.1758136250980837"><ele>75.0</ele><time>2026-04-22T08:33:52Z</time></trkpt><trkpt lat="41.87841957417399" lon="3.1758450759053627"><ele>75.0</ele><time>2026-04-22T08:33:54Z</time></trkpt><trkpt lat="41.87831546869102" lon="3.175869274060716"><ele>75.0</ele><time>2026-04-22T08:33:56Z</time></trkpt><trkpt lat="41.87821550970341" lon="3.1758940237528965"><ele>75.0</ele><time>2026-04-22T08:33:58Z</time></trkpt><trkpt lat="41.87811559998516" lon="3.175917826954938"><ele>77.0</ele><time>2026-04-22T08:34:00Z</time></trkpt><trkpt lat="41.87801647655549" lon="3.175943925876813"><ele>79.0</ele><time>2026-04-22T08:34:02Z</time></trkpt><trkpt lat="41.877924064750225" lon="3.1759531558249763"><ele>81.0</ele><time>2026-04-22T08:34:04Z</time></trkpt><trkpt lat="41.87783315174826" lon="3.175942766552011"><ele>83.0</ele><time>2026-04-22T08:34:06Z</time></trkpt><trkpt lat="41.877742404108105" lon="3.175931099767948"><ele>85.0</ele><time>2026-04-22T08:34:08Z</time></trkpt><trkpt lat="41.87764965394547" lon="3.175915537954014"><ele>86.5</ele><time>2026-04-22T08:34:10Z</time></trkpt><trkpt lat="41.87755815621068" lon="3.175887310499841"><ele>88.0</ele><time>2026-04-22T08:34:12Z</time></trkpt><trkpt lat="41.87747187106254" lon="3.175828812735719"><ele>89.5</ele><time>2026-04-22T08:34:14Z</time></trkpt><trkpt lat="41.87740515027913" lon="3.1757562580185286"><ele>91.0</ele><time>2026-04-22T08:34:16Z</time></trkpt><trkpt lat="41.87734112218425" lon="3.175677239728729"><ele>92.5</ele><time>2026-04-22T08:34:18Z</time></trkpt><trkpt lat="41.87729158176115" lon="3.1755868026740597"><ele>94.0</ele><time>2026-04-22T08:34:20Z</time></trkpt><trkpt lat="41.87724963851018" lon="3.175480540128371"><ele>94.0</ele><time>2026-04-22T08:34:22Z</time></trkpt><trkpt lat="41.877224049838134" lon="3.1753714114497664"><ele>94.0</ele><time>2026-04-22T08:34:24Z</time></trkpt><trkpt lat="41.87720613772488" lon="3.175271928905667"><ele>94.0</ele><time>2026-04-22T08:34:26Z</time></trkpt><trkpt lat="41.87718597468115" lon="3.1751793827067667"><ele>94.0</ele><time>2026-04-22T08:34:28Z</time></trkpt><trkpt lat="41.87715295370408" lon="3.1750860859913703"><ele>94.0</ele><time>2026-04-22T08:34:30Z</time></trkpt><trkpt lat="41.8770907862392" lon="3.17502428576136"><ele>94.0</ele><time>2026-04-22T08:34:32Z</time></trkpt><trkpt lat="41.87702877573569" lon="3.1749847324428817"><ele>94.0</ele><time>2026-04-22T08:34:36Z</time></trkpt><trkpt lat="41.87694737044147" lon="3.174957563814624"><ele>94.0</ele><time>2026-04-22T08:35:08Z</time></trkpt><trkpt lat="41.876872861879335" lon="3.1749377674091934"><ele>94.0</ele><time>2026-04-22T08:35:10Z</time></trkpt><trkpt lat="41.87678744384326" lon="3.17492993461594"><ele>94.0</ele><time>2026-04-22T08:35:12Z</time></trkpt><trkpt lat="41.8766939381813" lon="3.1749681231239415"><ele>94.0</ele><time>2026-04-22T08:35:14Z</time></trkpt><trkpt lat="41.876613217802024" lon="3.175011908321705"><ele>94.0</ele><time>2026-04-22T08:35:16Z</time></trkpt><trkpt lat="41.876549203752816" lon="3.175089625612932"><ele>94.0</ele><time>2026-04-22T08:35:19Z</time></trkpt><trkpt lat="41.876596853637786" lon="3.1751633848992267"><ele>94.0</ele><time>2026-04-22T08:35:21Z</time></trkpt><trkpt lat="41.87669469556754" lon="3.1751262631194486"><ele>94.0</ele><time>2026-04-22T08:35:24Z</time></trkpt><trkpt lat="41.876780042469186" lon="3.1751601524412623"><ele>94.0</ele><time>2026-04-22T08:35:26Z</time></trkpt><trkpt lat="41.876845382918006" lon="3.175222284861171"><ele>94.0</ele><time>2026-04-22T08:35:28Z</time></trkpt><trkpt lat="41.876909086766084" lon="3.175301022954698"><ele>94.0</ele><time>2026-04-22T08:35:30Z</time></trkpt><trkpt lat="41.87700656209403" lon="3.175352798357563"><ele>94.0</ele><time>2026-04-22T08:35:32Z</time></trkpt><trkpt lat="41.87710422425276" lon="3.1754123275288246"><ele>94.0</ele><time>2026-04-22T08:35:34Z</time></trkpt><trkpt lat="41.877192576855" lon="3.1754705616929795"><ele>94.0</ele><time>2026-04-22T08:35:36Z</time></trkpt><trkpt lat="41.877267510949565" lon="3.1755899920714135"><ele>94.0</ele><time>2026-04-22T08:35:38Z</time></trkpt><trkpt lat="41.877336120869074" lon="3.175722697123376"><ele>94.0</ele><time>2026-04-22T08:35:40Z</time></trkpt><trkpt lat="41.87736318445064" lon="3.175803369503176"><ele>94.14285714285714</ele><time>2026-04-22T08:35:41Z</time></trkpt><trkpt lat="41.87742557027055" lon="3.1758432751815673"><ele>94.28571428571428</ele><time>2026-04-22T08:35:42Z</time></trkpt><trkpt lat="41.87747810493056" lon="3.1758914650158956"><ele>94.42857142857143</ele><time>2026-04-22T08:35:43Z</time></trkpt><trkpt lat="41.877538458427104" lon="3.175931217537878"><ele>94.57142857142857</ele><time>2026-04-22T08:35:44Z</time></trkpt><trkpt lat="41.87760188826577" lon="3.1759630710949023"><ele>94.71428571428572</ele><time>2026-04-22T08:35:45Z</time></trkpt><trkpt lat="41.877667375533726" lon="3.1759793914057894"><ele>94.85714285714286</ele><time>2026-04-22T08:35:46Z</time></trkpt><trkpt lat="41.87778163628592" lon="3.175998400707116"><ele>95.0</ele><time>2026-04-22T08:35:48Z</time></trkpt><trkpt lat="41.87788268602461" lon="3.176006954471486"><ele>93.33333333333334</ele><time>2026-04-22T08:35:50Z</time></trkpt><trkpt lat="41.87795110185455" lon="3.1759975122434376"><ele>91.66666666666667</ele><time>2026-04-22T08:35:52Z</time></trkpt><trkpt lat="41.87803149305426" lon="3.1759901787805935"><ele>90.0</ele><time>2026-04-22T08:35:55Z</time></trkpt><trkpt lat="41.878108875090376" lon="3.175982919235991"><ele>88.33333333333333</ele><time>2026-04-22T08:35:58Z</time></trkpt><trkpt lat="41.878191449992414" lon="3.1759605393249704"><ele>86.66666666666666</ele><time>2026-04-22T08:36:23Z</time></trkpt><trkpt lat="41.878272044570906" lon="3.1759349092539813"><ele>85.0</ele><time>2026-04-22T08:36:25Z</time></trkpt><trkpt lat="41.8783763534534" lon="3.1759081175728077"><ele>83.33333333333333</ele><time>2026-04-22T08:36:27Z</time></trkpt><trkpt lat="41.87844285570573" lon="3.1758917223261673"><ele>81.66666666666666</ele><time>2026-04-22T08:36:28Z</time></trkpt><trkpt lat="41.87851784285126" lon="3.1758737940689024"><ele>80.0</ele><time>2026-04-22T08:36:29Z</time></trkpt><trkpt lat="41.87859695604905" lon="3.175858274716332"><ele>78.33333333333333</ele><time>2026-04-22T08:36:30Z</time></trkpt><trkpt lat="41.87867959819685" lon="3.1758516106155668"><ele>76.66666666666667</ele><time>2026-04-22T08:36:31Z</time></trkpt><trkpt lat="41.878764130222734" lon="3.1758508237842693"><ele>75.0</ele><time>2026-04-22T08:36:32Z</time></trkpt><trkpt lat="41.878851289905384" lon="3.17585714073562"><ele>75.0</ele><time>2026-04-22T08:36:33Z</time></trkpt><trkpt lat="41.87893677431745" lon="3.1758666163400737"><ele>75.0</ele><time>2026-04-22T08:36:34Z</time></trkpt><trkpt lat="41.87901786317869" lon="3.175872722241127"><ele>75.0</ele><time>2026-04-22T08:36:35Z</time></trkpt><trkpt lat="41.87909433545703" lon="3.175864172605369"><ele>75.0</ele><time>2026-04-22T08:36:36Z</time></trkpt><trkpt lat="41.87916738879406" lon="3.1758317005203893"><ele>75.0</ele><time>2026-04-22T08:36:37Z</time></trkpt><trkpt lat="41.879240349620545" lon="3.1757835874401485"><ele>75.0</ele><time>2026-04-22T08:36:38Z</time></trkpt><trkpt lat="41.879315263338135" lon="3.1757243228257015"><ele>74.8</ele><time>2026-04-22T08:36:39Z</time></trkpt><trkpt lat="41.87938277009013" lon="3.1756472238338493"><ele>74.6</ele><time>2026-04-22T08:36:40Z</time></trkpt><trkpt lat="41.87945249611541" lon="3.1755702458773003"><ele>74.4</ele><time>2026-04-22T08:36:41Z</time></trkpt><trkpt lat="41.87952268809608" lon="3.175477449028325"><ele>74.2</ele><time>2026-04-22T08:36:42Z</time></trkpt><trkpt lat="41.879590898537565" lon="3.175397316694247"><ele>74.0</ele><time>2026-04-22T08:36:43Z</time></trkpt><trkpt lat="41.879661326864905" lon="3.175330824135284"><ele>74.0</ele><time>2026-04-22T08:36:44Z</time></trkpt><trkpt lat="41.87973247959342" lon="3.1752807016163422"><ele>74.0</ele><time>2026-04-22T08:36:45Z</time></trkpt><trkpt lat="41.87979505873582" lon="3.1752384105421223"><ele>74.0</ele><time>2026-04-22T08:36:46Z</time></trkpt><trkpt lat="41.87985634350648" lon="3.1752025490006455"><ele>74.0</ele><time>2026-04-22T08:36:47Z</time></trkpt><trkpt lat="41.87995689577363" lon="3.1751553068086382"><ele>74.0</ele><time>2026-04-22T08:36:49Z</time></trkpt><trkpt lat="41.88001994434243" lon="3.1751513407247267"><ele>74.0</ele><time>2026-04-22T08:36:50Z</time></trkpt><trkpt lat="41.88012314154437" lon="3.1751921173076836"><ele>75.33333333333334</ele><time>2026-04-22T08:36:52Z</time></trkpt><trkpt lat="41.88018370283227" lon="3.175240000559984"><ele>76.66666666666667</ele><time>2026-04-22T08:36:53Z</time></trkpt><trkpt lat="41.88024739286379" lon="3.1753016316425"><ele>78.0</ele><time>2026-04-22T08:36:54Z</time></trkpt><trkpt lat="41.88030587381992" lon="3.1753778485465225"><ele>79.33333333333333</ele><time>2026-04-22T08:36:55Z</time></trkpt><trkpt lat="41.88035796270231" lon="3.1754614540509216"><ele>80.66666666666666</ele><time>2026-04-22T08:36:56Z</time></trkpt><trkpt lat="41.88040142820131" lon="3.1755564039446695"><ele>82.0</ele><time>2026-04-22T08:36:57Z</time></trkpt><trkpt lat="41.88043431193265" lon="3.1756632316960003"><ele>81.83333333333333</ele><time>2026-04-22T08:36:58Z</time></trkpt><trkpt lat="41.880449457256496" lon="3.175778715658994"><ele>81.66666666666666</ele><time>2026-04-22T08:36:59Z</time></trkpt><trkpt lat="41.88043814240155" lon="3.175896651821311"><ele>81.5</ele><time>2026-04-22T08:37:00Z</time></trkpt><trkpt lat="41.880421151340464" lon="3.176007396068296"><ele>81.33333333333333</ele><time>2026-04-22T08:37:01Z</time></trkpt><trkpt lat="41.88040104788829" lon="3.176121020101943"><ele>81.16666666666667</ele><time>2026-04-22T08:37:02Z</time></trkpt><trkpt lat="41.88037775096179" lon="3.1762406788007524"><ele>81.0</ele><time>2026-04-22T08:37:03Z</time></trkpt><trkpt lat="41.880353063486616" lon="3.1763568212164115"><ele>81.0</ele><time>2026-04-22T08:37:04Z</time></trkpt><trkpt lat="41.880341025179305" lon="3.176467740974646"><ele>81.0</ele><time>2026-04-22T08:37:05Z</time></trkpt><trkpt lat="41.880321713437766" lon="3.176559998966706"><ele>81.0</ele><time>2026-04-22T08:37:06Z</time></trkpt><trkpt lat="41.88030653252379" lon="3.1766460145313884"><ele>81.0</ele><time>2026-04-22T08:37:07Z</time></trkpt><trkpt lat="41.880314600404645" lon="3.1767371273298783"><ele>81.0</ele><time>2026-04-22T08:37:08Z</time></trkpt><trkpt lat="41.88033651339274" lon="3.176829037822482"><ele>81.0</ele><time>2026-04-22T08:37:09Z</time></trkpt><trkpt lat="41.88037753385949" lon="3.1769139405800604"><ele>81.0</ele><time>2026-04-22T08:37:10Z</time></trkpt><trkpt lat="41.880429618472085" lon="3.176981581500063"><ele>79.16666666666667</ele><time>2026-04-22T08:37:11Z</time></trkpt><trkpt lat="41.880495232049206" lon="3.177030862605761"><ele>77.33333333333333</ele><time>2026-04-22T08:37:12Z</time></trkpt><trkpt lat="41.88056392757392" lon="3.177088250536649"><ele>75.5</ele><time>2026-04-22T08:37:13Z</time></trkpt><trkpt lat="41.88064024663083" lon="3.17712799554752"><ele>73.66666666666666</ele><time>2026-04-22T08:37:14Z</time></trkpt><trkpt lat="41.88072091779824" lon="3.1771547848286055"><ele>71.83333333333333</ele><time>2026-04-22T08:37:15Z</time></trkpt><trkpt lat="41.88079572014774" lon="3.1771928857674414"><ele>70.0</ele><time>2026-04-22T08:37:16Z</time></trkpt><trkpt lat="41.88085973110537" lon="3.1772548414022985"><ele>70.0</ele><time>2026-04-22T08:37:17Z</time></trkpt><trkpt lat="41.88093226376699" lon="3.1772909581672963"><ele>70.0</ele><time>2026-04-22T08:37:18Z</time></trkpt><trkpt lat="41.88101074478126" lon="3.1773251696808162"><ele>70.0</ele><time>2026-04-22T08:37:19Z</time></trkpt><trkpt lat="41.88109471779444" lon="3.1773412697052574"><ele>70.0</ele><time>2026-04-22T08:37:20Z</time></trkpt><trkpt lat="41.88117532768833" lon="3.1773821903597774"><ele>70.0</ele><time>2026-04-22T08:37:21Z</time></trkpt><trkpt lat="41.88126030811301" lon="3.1774113667269988"><ele>70.0</ele><time>2026-04-22T08:37:22Z</time></trkpt><trkpt lat="41.88134616312731" lon="3.1774346813133576"><ele>67.8</ele><time>2026-04-22T08:37:23Z</time></trkpt><trkpt lat="41.88143374286516" lon="3.17745585226835"><ele>65.6</ele><time>2026-04-22T08:37:24Z</time></trkpt><trkpt lat="41.88152303243992" lon="3.1774785272545456"><ele>63.400000000000006</ele><time>2026-04-22T08:37:25Z</time></trkpt><trkpt lat="41.881612401765594" lon="3.1775008816148302"><ele>61.2</ele><time>2026-04-22T08:37:26Z</time></trkpt><trkpt lat="41.8817009708515" lon="3.1775235250704434"><ele>59.0</ele><time>2026-04-22T08:37:27Z</time></trkpt><trkpt lat="41.881791892677505" lon="3.1775461903228477"><ele>59.00000000000001</ele><time>2026-04-22T08:37:28Z</time></trkpt><trkpt lat="41.88187919074204" lon="3.177566917495927"><ele>59.0</ele><time>2026-04-22T08:37:29Z</time></trkpt><trkpt lat="41.88196420259463" lon="3.1775946767424563"><ele>59.0</ele><time>2026-04-22T08:37:30Z</time></trkpt><trkpt lat="41.88204227575737" lon="3.177639460634998"><ele>59.0</ele><time>2026-04-22T08:37:31Z</time></trkpt><trkpt lat="41.88211547081736" lon="3.1777000008036502"><ele>59.00000000000001</ele><time>2026-04-22T08:37:32Z</time></trkpt><trkpt lat="41.8821832295052" lon="3.1777704226835146"><ele>59.0</ele><time>2026-04-22T08:37:33Z</time></trkpt><trkpt lat="41.88224890321341" lon="3.17784374093476"><ele>59.00000000000001</ele><time>2026-04-22T08:37:34Z</time></trkpt><trkpt lat="41.88231314735643" lon="3.1779162909345318"><ele>59.0</ele><time>2026-04-22T08:37:35Z</time></trkpt><trkpt lat="41.88237927121598" lon="3.1779788796609902"><ele>59.0</ele><time>2026-04-22T08:37:36Z</time></trkpt><trkpt lat="41.88245345334699" lon="3.178015948654944"><ele>59.0</ele><time>2026-04-22T08:37:37Z</time></trkpt><trkpt lat="41.882526001574774" lon="3.1780490264046066"><ele>59.00000000000001</ele><time>2026-04-22T08:37:38Z</time></trkpt><trkpt lat="41.88259636286673" lon="3.1780787768489627"><ele>59.0</ele><time>2026-04-22T08:37:39Z</time></trkpt><trkpt lat="41.88266414185586" lon="3.1781040896798434"><ele>59.0</ele><time>2026-04-22T08:37:40Z</time></trkpt><trkpt lat="41.88272825480404" lon="3.1781296926501157"><ele>59.00000000000001</ele><time>2026-04-22T08:37:41Z</time></trkpt><trkpt lat="41.882790845121676" lon="3.1781597305791602"><ele>59.00000000000001</ele><time>2026-04-22T08:37:42Z</time></trkpt><trkpt lat="41.882900619821" lon="3.1782151956946936"><ele>59.0</ele><time>2026-04-22T08:37:44Z</time></trkpt><trkpt lat="41.882989950400415" lon="3.1782704305896945"><ele>59.0</ele><time>2026-04-22T08:37:46Z</time></trkpt><trkpt lat="41.882944220525374" lon="3.1784685119992915"><ele>59.0</ele><time>2026-04-22T08:37:48Z</time></trkpt><trkpt lat="41.88291500474788" lon="3.17854497745008"><ele>59.0</ele><time>2026-04-22T08:37:49Z</time></trkpt><trkpt lat="41.88287761361739" lon="3.1786264191005915"><ele>59.0</ele><time>2026-04-22T08:37:50Z</time></trkpt><trkpt lat="41.88283794315434" lon="3.178710614577426"><ele>59.0</ele><time>2026-04-22T08:37:51Z</time></trkpt><trkpt lat="41.88281132270559" lon="3.1788099425750267"><ele>59.0</ele><time>2026-04-22T08:37:52Z</time></trkpt><trkpt lat="41.882768323770094" lon="3.1788965242970764"><ele>59.0</ele><time>2026-04-22T08:37:53Z</time></trkpt><trkpt lat="41.88273930393469" lon="3.1789901078172638"><ele>59.0</ele><time>2026-04-22T08:37:54Z</time></trkpt><trkpt lat="41.88271665146379" lon="3.1790813657521375"><ele>59.50000000000001</ele><time>2026-04-22T08:37:55Z</time></trkpt><trkpt lat="41.88270397373072" lon="3.1791821201734805"><ele>60.0</ele><time>2026-04-22T08:37:56Z</time></trkpt><trkpt lat="41.882701375660965" lon="3.179284412592358"><ele>60.5</ele><time>2026-04-22T08:37:57Z</time></trkpt><trkpt lat="41.882712637760804" lon="3.179388442856551"><ele>61.0</ele><time>2026-04-22T08:37:58Z</time></trkpt><trkpt lat="41.88271436178175" lon="3.179497835416027"><ele>61.50000000000001</ele><time>2026-04-22T08:37:59Z</time></trkpt><trkpt lat="41.88273860570963" lon="3.1795966442798504"><ele>62.0</ele><time>2026-04-22T08:38:00Z</time></trkpt><trkpt lat="41.88278873084508" lon="3.179682008508163"><ele>62.00000000000001</ele><time>2026-04-22T08:38:01Z</time></trkpt><trkpt lat="41.88282375662107" lon="3.1797718891916777"><ele>62.0</ele><time>2026-04-22T08:38:02Z</time></trkpt><trkpt lat="41.88286889052412" lon="3.1798528782978064"><ele>62.0</ele><time>2026-04-22T08:38:03Z</time></trkpt><trkpt lat="41.88292187915732" lon="3.1799258380312727"><ele>62.0</ele><time>2026-04-22T08:38:04Z</time></trkpt><trkpt lat="41.882965990804664" lon="3.1800091716445604"><ele>62.00000000000001</ele><time>2026-04-22T08:38:05Z</time></trkpt><trkpt lat="41.88303710520736" lon="3.1800616886627195"><ele>62.0</ele><time>2026-04-22T08:38:06Z</time></trkpt><trkpt lat="41.88311339609009" lon="3.1800923509355856"><ele>60.833333333333336</ele><time>2026-04-22T08:38:07Z</time></trkpt><trkpt lat="41.883182787071625" lon="3.180131132458669"><ele>59.66666666666667</ele><time>2026-04-22T08:38:08Z</time></trkpt><trkpt lat="41.88325719735857" lon="3.1801705764461166"><ele>58.5</ele><time>2026-04-22T08:38:09Z</time></trkpt><trkpt lat="41.88332991646964" lon="3.1802101100511835"><ele>57.33333333333333</ele><time>2026-04-22T08:38:10Z</time></trkpt><trkpt lat="41.88340413989943" lon="3.180240041642003"><ele>56.166666666666664</ele><time>2026-04-22T08:38:11Z</time></trkpt><trkpt lat="41.88347961338669" lon="3.1802648934340323"><ele>55.0</ele><time>2026-04-22T08:38:12Z</time></trkpt><trkpt lat="41.88355424313083" lon="3.180275787176193"><ele>54.666666666666664</ele><time>2026-04-22T08:38:13Z</time></trkpt><trkpt lat="41.883629835974936" lon="3.180271019268721"><ele>54.33333333333333</ele><time>2026-04-22T08:38:14Z</time></trkpt><trkpt lat="41.8837046453787" lon="3.1802561042077873"><ele>54.0</ele><time>2026-04-22T08:38:15Z</time></trkpt><trkpt lat="41.88378000001334" lon="3.1802358427640023"><ele>53.66666666666667</ele><time>2026-04-22T08:38:16Z</time></trkpt><trkpt lat="41.88385560125254" lon="3.1802074599164722"><ele>53.333333333333336</ele><time>2026-04-22T08:38:17Z</time></trkpt><trkpt lat="41.883928917650465" lon="3.1801734909409376"><ele>53.0</ele><time>2026-04-22T08:38:18Z</time></trkpt><trkpt lat="41.88400729720394" lon="3.180144808314698"><ele>53.00000000000001</ele><time>2026-04-22T08:38:19Z</time></trkpt><trkpt lat="41.88408368879178" lon="3.1801150088634755"><ele>53.0</ele><time>2026-04-22T08:38:20Z</time></trkpt><trkpt lat="41.884163196243975" lon="3.180087289257842"><ele>53.0</ele><time>2026-04-22T08:38:21Z</time></trkpt><trkpt lat="41.88424252020261" lon="3.1800585184031096"><ele>53.0</ele><time>2026-04-22T08:38:22Z</time></trkpt><trkpt lat="41.88432705273905" lon="3.180033153276734"><ele>53.00000000000001</ele><time>2026-04-22T08:38:23Z</time></trkpt><trkpt lat="41.88441344622253" lon="3.18001000691727"><ele>53.0</ele><time>2026-04-22T08:38:24Z</time></trkpt><trkpt lat="41.884502393481434" lon="3.1799900381239334"><ele>51.8</ele><time>2026-04-22T08:38:25Z</time></trkpt><trkpt lat="41.884593725250866" lon="3.179964774889578"><ele>50.599999999999994</ele><time>2026-04-22T08:38:26Z</time></trkpt><trkpt lat="41.884688706213616" lon="3.179950783364384"><ele>49.400000000000006</ele><time>2026-04-22T08:38:27Z</time></trkpt><trkpt lat="41.884781979091656" lon="3.1799395087214446"><ele>48.2</ele><time>2026-04-22T08:38:28Z</time></trkpt><trkpt lat="41.88487135359427" lon="3.1799303091897553"><ele>47.0</ele><time>2026-04-22T08:38:29Z</time></trkpt><trkpt lat="41.88496325981363" lon="3.179922521091706"><ele>47.0</ele><time>2026-04-22T08:38:30Z</time></trkpt><trkpt lat="41.88505219071731" lon="3.1799146800861426"><ele>47.0</ele><time>2026-04-22T08:38:31Z</time></trkpt><trkpt lat="41.88513978622623" lon="3.1799047278452304"><ele>47.0</ele><time>2026-04-22T08:38:32Z</time></trkpt><trkpt lat="41.88522520602636" lon="3.1798970351887808"><ele>47.0</ele><time>2026-04-22T08:38:33Z</time></trkpt><trkpt lat="41.88531048475537" lon="3.1798891539321725"><ele>47.0</ele><time>2026-04-22T08:38:34Z</time></trkpt><trkpt lat="41.88539087549152" lon="3.1798806053219617"><ele>47.0</ele><time>2026-04-22T08:38:35Z</time></trkpt><trkpt lat="41.885467435806035" lon="3.1798735144376256"><ele>46.0</ele><time>2026-04-22T08:38:36Z</time></trkpt><trkpt lat="41.88553672125855" lon="3.1798692069304453"><ele>45.0</ele><time>2026-04-22T08:38:37Z</time></trkpt><trkpt lat="41.88564321666358" lon="3.1798631529707646"><ele>44.0</ele><time>2026-04-22T08:38:39Z</time></trkpt><trkpt lat="41.88576876571986" lon="3.1798548657109613"><ele>43.0</ele><time>2026-04-22T08:38:41Z</time></trkpt><trkpt lat="41.8858429935466" lon="3.1798514440430075"><ele>42.0</ele><time>2026-04-22T08:38:42Z</time></trkpt><trkpt lat="41.885927088386346" lon="3.1798482929384604"><ele>41.0</ele><time>2026-04-22T08:38:43Z</time></trkpt><trkpt lat="41.88601659727544" lon="3.179845807518256"><ele>40.0</ele><time>2026-04-22T08:38:44Z</time></trkpt><trkpt lat="41.8861103059893" lon="3.179850390596508"><ele>39.0</ele><time>2026-04-22T08:38:45Z</time></trkpt><trkpt lat="41.886203157295014" lon="3.1798507827537543"><ele>38.0</ele><time>2026-04-22T08:38:46Z</time></trkpt><trkpt lat="41.88629988469708" lon="3.1798481150633426"><ele>37.0</ele><time>2026-04-22T08:38:47Z</time></trkpt><trkpt lat="41.88639480090669" lon="3.1798480082962732"><ele>36.4</ele><time>2026-04-22T08:38:48Z</time></trkpt><trkpt lat="41.88648838970024" lon="3.1798477235887344"><ele>35.800000000000004</ele><time>2026-04-22T08:38:49Z</time></trkpt><trkpt lat="41.88658555363305" lon="3.1798477158861775"><ele>35.2</ele><time>2026-04-22T08:38:50Z</time></trkpt><trkpt lat="41.88668106234839" lon="3.179849304433409"><ele>34.6</ele><time>2026-04-22T08:38:51Z</time></trkpt><trkpt lat="41.8867770556255" lon="3.1798513183435855"><ele>34.0</ele><time>2026-04-22T08:38:52Z</time></trkpt><trkpt lat="41.886874825508045" lon="3.179851848550997"><ele>34.0</ele><time>2026-04-22T08:38:53Z</time></trkpt><trkpt lat="41.88696920242254" lon="3.179852346409558"><ele>34.0</ele><time>2026-04-22T08:38:54Z</time></trkpt><trkpt lat="41.88706370843083" lon="3.179854136500672"><ele>34.0</ele><time>2026-04-22T08:38:55Z</time></trkpt><trkpt lat="41.88715474967088" lon="3.1798548247528156"><ele>34.0</ele><time>2026-04-22T08:38:56Z</time></trkpt><trkpt lat="41.887238032642315" lon="3.17985788763155"><ele>34.0</ele><time>2026-04-22T08:38:57Z</time></trkpt><trkpt lat="41.8873209460927" lon="3.1798579922119896"><ele>34.0</ele><time>2026-04-22T08:38:58Z</time></trkpt><trkpt lat="41.88740440061858" lon="3.179852111047922"><ele>35.5</ele><time>2026-04-22T08:38:59Z</time></trkpt><trkpt lat="41.88748721029233" lon="3.179838297944434"><ele>37.0</ele><time>2026-04-22T08:39:00Z</time></trkpt><trkpt lat="41.88757100328572" lon="3.1798168366303563"><ele>38.5</ele><time>2026-04-22T08:39:01Z</time></trkpt><trkpt lat="41.887652339705674" lon="3.179783811485337"><ele>40.0</ele><time>2026-04-22T08:39:02Z</time></trkpt><trkpt lat="41.887732647462514" lon="3.1797430341643818"><ele>41.5</ele><time>2026-04-22T08:39:03Z</time></trkpt><trkpt lat="41.887810802641745" lon="3.1796915689618284"><ele>43.0</ele><time>2026-04-22T08:39:04Z</time></trkpt><trkpt lat="41.88788709056472" lon="3.179634173589007"><ele>43.0</ele><time>2026-04-22T08:39:05Z</time></trkpt><trkpt lat="41.88796051531956" lon="3.1795702601503644"><ele>43.0</ele><time>2026-04-22T08:39:06Z</time></trkpt><trkpt lat="41.888036350142144" lon="3.1795058440068233"><ele>43.0</ele><time>2026-04-22T08:39:07Z</time></trkpt><trkpt lat="41.888108866610615" lon="3.1794335466862975"><ele>43.0</ele><time>2026-04-22T08:39:08Z</time></trkpt><trkpt lat="41.88818180264045" lon="3.17936259481954"><ele>43.0</ele><time>2026-04-22T08:39:09Z</time></trkpt><trkpt lat="41.88825788406952" lon="3.179292675103466"><ele>43.0</ele><time>2026-04-22T08:39:10Z</time></trkpt><trkpt lat="41.888330512737184" lon="3.1792235959364272"><ele>43.0</ele><time>2026-04-22T08:39:11Z</time></trkpt><trkpt lat="41.88840513085216" lon="3.179154166015121"><ele>43.0</ele><time>2026-04-22T08:39:12Z</time></trkpt><trkpt lat="41.88847809759807" lon="3.1790843950667114"><ele>43.0</ele><time>2026-04-22T08:39:13Z</time></trkpt><trkpt lat="41.888555861618144" lon="3.179019429436102"><ele>43.0</ele><time>2026-04-22T08:39:14Z</time></trkpt><trkpt lat="41.888638572131065" lon="3.1789551211351355"><ele>45.0</ele><time>2026-04-22T08:39:15Z</time></trkpt><trkpt lat="41.88872478042058" lon="3.17889105335288"><ele>47.0</ele><time>2026-04-22T08:39:16Z</time></trkpt><trkpt lat="41.88881013171893" lon="3.178827614318584"><ele>49.0</ele><time>2026-04-22T08:39:17Z</time></trkpt><trkpt lat="41.88889758235626" lon="3.1787701660837677"><ele>51.0</ele><time>2026-04-22T08:39:18Z</time></trkpt><trkpt lat="41.88898967607698" lon="3.1787180547520553"><ele>53.0</ele><time>2026-04-22T08:39:19Z</time></trkpt><trkpt lat="41.88907914127825" lon="3.1786742441822504"><ele>53.00000000000001</ele><time>2026-04-22T08:39:20Z</time></trkpt><trkpt lat="41.88916542438813" lon="3.1786379035921186"><ele>53.0</ele><time>2026-04-22T08:39:21Z</time></trkpt><trkpt lat="41.889251179913614" lon="3.1786033644461296"><ele>53.0</ele><time>2026-04-22T08:39:22Z</time></trkpt><trkpt lat="41.88933485751953" lon="3.178576147279793"><ele>53.0</ele><time>2026-04-22T08:39:23Z</time></trkpt><trkpt lat="41.88941497950937" lon="3.1785548603610008"><ele>53.00000000000001</ele><time>2026-04-22T08:39:24Z</time></trkpt><trkpt lat="41.88949005109801" lon="3.1785399234041027"><ele>53.0</ele><time>2026-04-22T08:39:25Z</time></trkpt><trkpt lat="41.889562369017156" lon="3.1785258126105904"><ele>52.285714285714285</ele><time>2026-04-22T08:39:26Z</time></trkpt><trkpt lat="41.88963029817476" lon="3.1785214715056114"><ele>51.57142857142857</ele><time>2026-04-22T08:39:27Z</time></trkpt><trkpt lat="41.88969815674258" lon="3.1785249966247147"><ele>50.857142857142854</ele><time>2026-04-22T08:39:28Z</time></trkpt><trkpt lat="41.8897663256876" lon="3.178536027735833"><ele>50.14285714285714</ele><time>2026-04-22T08:39:29Z</time></trkpt><trkpt lat="41.88983235064049" lon="3.1785636574189082"><ele>49.42857142857143</ele><time>2026-04-22T08:39:30Z</time></trkpt><trkpt lat="41.88988972957244" lon="3.178619520508609"><ele>48.71428571428571</ele><time>2026-04-22T08:39:31Z</time></trkpt><trkpt lat="41.88995406292257" lon="3.1786590004542012"><ele>48.0</ele><time>2026-04-22T08:39:32Z</time></trkpt><trkpt lat="41.8900245062087" lon="3.1786824874311628"><ele>47.99999999999999</ele><time>2026-04-22T08:39:33Z</time></trkpt><trkpt lat="41.89008904680383" lon="3.178730379362055"><ele>48.0</ele><time>2026-04-22T08:39:34Z</time></trkpt><trkpt lat="41.89014323104317" lon="3.1788041595817935"><ele>48.0</ele><time>2026-04-22T08:39:35Z</time></trkpt><trkpt lat="41.89020138541201" lon="3.1788661602926607"><ele>48.0</ele><time>2026-04-22T08:39:36Z</time></trkpt><trkpt lat="41.890251659071794" lon="3.17893072001877"><ele>48.0</ele><time>2026-04-22T08:39:37Z</time></trkpt><trkpt lat="41.89030090229628" lon="3.1790013685346334"><ele>47.99999999999999</ele><time>2026-04-22T08:39:38Z</time></trkpt><trkpt lat="41.890349853951925" lon="3.179073406616448"><ele>48.0</ele><time>2026-04-22T08:39:39Z</time></trkpt><trkpt lat="41.89039644417524" lon="3.179149910406806"><ele>47.833333333333336</ele><time>2026-04-22T08:39:40Z</time></trkpt><trkpt lat="41.89044434260488" lon="3.1792337970811317"><ele>47.666666666666664</ele><time>2026-04-22T08:39:41Z</time></trkpt><trkpt lat="41.890490080525936" lon="3.179327226318836"><ele>47.5</ele><time>2026-04-22T08:39:42Z</time></trkpt><trkpt lat="41.89052870920103" lon="3.1794252528553995"><ele>47.33333333333333</ele><time>2026-04-22T08:39:43Z</time></trkpt><trkpt lat="41.89056448990903" lon="3.1795292171250953"><ele>47.166666666666664</ele><time>2026-04-22T08:39:44Z</time></trkpt><trkpt lat="41.89059678236345" lon="3.1796336622172254"><ele>47.0</ele><time>2026-04-22T08:39:45Z</time></trkpt><trkpt lat="41.890624969741964" lon="3.1797403610886423"><ele>47.0</ele><time>2026-04-22T08:39:46Z</time></trkpt><trkpt lat="41.890648109357926" lon="3.179849083826392"><ele>47.0</ele><time>2026-04-22T08:39:47Z</time></trkpt><trkpt lat="41.89066686567059" lon="3.1799565275475583"><ele>47.0</ele><time>2026-04-22T08:39:48Z</time></trkpt><trkpt lat="41.890680609715105" lon="3.1800663979137793"><ele>47.0</ele><time>2026-04-22T08:39:49Z</time></trkpt><trkpt lat="41.890688337021366" lon="3.180180670517411"><ele>47.0</ele><time>2026-04-22T08:39:50Z</time></trkpt><trkpt lat="41.89069313075362" lon="3.1802962586648094"><ele>47.0</ele><time>2026-04-22T08:39:51Z</time></trkpt><trkpt lat="41.890698706631035" lon="3.180418906824314"><ele>47.0</ele><time>2026-04-22T08:39:52Z</time></trkpt><trkpt lat="41.89070501125952" lon="3.1805415318435077"><ele>47.0</ele><time>2026-04-22T08:39:53Z</time></trkpt><trkpt lat="41.89071111495819" lon="3.180660248770691"><ele>47.0</ele><time>2026-04-22T08:39:54Z</time></trkpt><trkpt lat="41.89071855285606" lon="3.1807805715765967"><ele>47.0</ele><time>2026-04-22T08:39:55Z</time></trkpt><trkpt lat="41.89072738830865" lon="3.180903016663332"><ele>47.0</ele><time>2026-04-22T08:39:56Z</time></trkpt><trkpt lat="41.89074275910836" lon="3.1810249080911444"><ele>47.2</ele><time>2026-04-22T08:39:57Z</time></trkpt><trkpt lat="41.89075880346546" lon="3.181140370918361"><ele>47.400000000000006</ele><time>2026-04-22T08:39:58Z</time></trkpt><trkpt lat="41.89077801482645" lon="3.181256453412954"><ele>47.599999999999994</ele><time>2026-04-22T08:39:59Z</time></trkpt><trkpt lat="41.89080120348605" lon="3.181378255367083"><ele>47.8</ele><time>2026-04-22T08:40:00Z</time></trkpt><trkpt lat="41.89082895650799" lon="3.181506383798321"><ele>48.0</ele><time>2026-04-22T08:40:01Z</time></trkpt><trkpt lat="41.89085838854178" lon="3.1816309073397933"><ele>47.666666666666664</ele><time>2026-04-22T08:40:02Z</time></trkpt><trkpt lat="41.89090216180332" lon="3.181745658416321"><ele>47.333333333333336</ele><time>2026-04-22T08:40:03Z</time></trkpt><trkpt lat="41.89091461633977" lon="3.181869860987037"><ele>47.0</ele><time>2026-04-22T08:40:04Z</time></trkpt><trkpt lat="41.8909413493443" lon="3.1819834712124253"><ele>46.66666666666667</ele><time>2026-04-22T08:40:05Z</time></trkpt><trkpt lat="41.8909896576863" lon="3.182084088398682"><ele>46.333333333333336</ele><time>2026-04-22T08:40:06Z</time></trkpt><trkpt lat="41.89102233866148" lon="3.182185701933706"><ele>46.0</ele><time>2026-04-22T08:40:07Z</time></trkpt><trkpt lat="41.89105811142171" lon="3.182278836876178"><ele>45.5</ele><time>2026-04-22T08:40:08Z</time></trkpt><trkpt lat="41.89109690606952" lon="3.182368935443798"><ele>45.0</ele><time>2026-04-22T08:40:09Z</time></trkpt><trkpt lat="41.89113591707507" lon="3.1824610565993967"><ele>44.5</ele><time>2026-04-22T08:40:10Z</time></trkpt><trkpt lat="41.89117399345152" lon="3.1825427960209343"><ele>44.0</ele><time>2026-04-22T08:40:11Z</time></trkpt><trkpt lat="41.89120915519793" lon="3.1826182119839537"><ele>43.5</ele><time>2026-04-22T08:40:12Z</time></trkpt><trkpt lat="41.891273145332995" lon="3.182752027546186"><ele>43.0</ele><time>2026-04-22T08:40:14Z</time></trkpt><trkpt lat="41.89132552765314" lon="3.1828629688560803"><ele>43.0</ele><time>2026-04-22T08:40:16Z</time></trkpt><trkpt lat="41.89135736117143" lon="3.1829419780525283"><ele>43.0</ele><time>2026-04-22T08:40:18Z</time></trkpt><trkpt lat="41.89129341475388" lon="3.1830692801806766"><ele>43.0</ele><time>2026-04-22T08:40:24Z</time></trkpt><trkpt lat="41.8912226246448" lon="3.183108496805076"><ele>43.0</ele><time>2026-04-22T08:40:26Z</time></trkpt><trkpt lat="41.89113679501628" lon="3.1831585564114047"><ele>43.0</ele><time>2026-04-22T08:40:28Z</time></trkpt><trkpt lat="41.89104416594815" lon="3.1832187278949866"><ele>42.25</ele><time>2026-04-22T08:40:30Z</time></trkpt><trkpt lat="41.890944522078854" lon="3.1832860917167944"><ele>41.5</ele><time>2026-04-22T08:40:32Z</time></trkpt><trkpt lat="41.89083808573956" lon="3.1833560038935533"><ele>40.75</ele><time>2026-04-22T08:40:34Z</time></trkpt><trkpt lat="41.89072838345789" lon="3.183424771326874"><ele>40.0</ele><time>2026-04-22T08:40:36Z</time></trkpt><trkpt lat="41.89061887498153" lon="3.183497873188737"><ele>38.25</ele><time>2026-04-22T08:40:38Z</time></trkpt><trkpt lat="41.89050969414146" lon="3.1835690220051642"><ele>36.5</ele><time>2026-04-22T08:40:40Z</time></trkpt><trkpt lat="41.89040128638549" lon="3.1836391813500393"><ele>34.75</ele><time>2026-04-22T08:40:42Z</time></trkpt><trkpt lat="41.890294207285955" lon="3.1837077973024535"><ele>33.0</ele><time>2026-04-22T08:40:44Z</time></trkpt><trkpt lat="41.890195670517066" lon="3.1837763475605763"><ele>33.0</ele><time>2026-04-22T08:40:46Z</time></trkpt><trkpt lat="41.890096173323485" lon="3.183843903434499"><ele>33.0</ele><time>2026-04-22T08:40:48Z</time></trkpt><trkpt lat="41.890005034621225" lon="3.183911102460885"><ele>33.0</ele><time>2026-04-22T08:40:50Z</time></trkpt><trkpt lat="41.889909947146" lon="3.183964731151303"><ele>33.0</ele><time>2026-04-22T08:40:52Z</time></trkpt><trkpt lat="41.889826830825044" lon="3.184020365891945"><ele>33.0</ele><time>2026-04-22T08:40:54Z</time></trkpt><trkpt lat="41.88974473521137" lon="3.184076487527382"><ele>31.166666666666668</ele><time>2026-04-22T08:40:56Z</time></trkpt><trkpt lat="41.88968079684211" lon="3.1841219325925767"><ele>29.333333333333332</ele><time>2026-04-22T08:40:58Z</time></trkpt><trkpt lat="41.88961701980908" lon="3.1841651069958115"><ele>27.5</ele><time>2026-04-22T08:41:03Z</time></trkpt><trkpt lat="41.88957097421765" lon="3.1842320059874822"><ele>25.666666666666664</ele><time>2026-04-22T08:41:06Z</time></trkpt><trkpt lat="41.88949462708422" lon="3.1842859883809447"><ele>23.833333333333332</ele><time>2026-04-22T08:41:09Z</time></trkpt><trkpt lat="41.88942638656243" lon="3.1843546791422934"><ele>22.0</ele><time>2026-04-22T08:41:12Z</time></trkpt><trkpt lat="41.8893616521946" lon="3.1844289559460535"><ele>22.0</ele><time>2026-04-22T08:41:15Z</time></trkpt><trkpt lat="41.88929924640435" lon="3.1845053279437487"><ele>22.0</ele><time>2026-04-22T08:41:18Z</time></trkpt><trkpt lat="41.889236679251596" lon="3.1845746018508057"><ele>22.0</ele><time>2026-04-22T08:41:21Z</time></trkpt><trkpt lat="41.889183113294536" lon="3.18464235100787"><ele>22.0</ele><time>2026-04-22T08:41:24Z</time></trkpt><trkpt lat="41.88913933129922" lon="3.184712451014926"><ele>22.0</ele><time>2026-04-22T08:41:29Z</time></trkpt><trkpt lat="41.88912354397566" lon="3.184794731766039"><ele>22.0</ele><time>2026-04-22T08:41:39Z</time></trkpt><trkpt lat="41.889105888986315" lon="3.1848944534150836"><ele>22.0</ele><time>2026-04-22T08:41:43Z</time></trkpt><trkpt lat="41.88908569858958" lon="3.1849791547354016"><ele>22.200000000000003</ele><time>2026-04-22T08:41:46Z</time></trkpt><trkpt lat="41.889082954219454" lon="3.185066832156341"><ele>22.4</ele><time>2026-04-22T08:41:54Z</time></trkpt><trkpt lat="41.889213382120815" lon="3.185109003117808"><ele>22.6</ele><time>2026-04-22T08:41:58Z</time></trkpt><trkpt lat="41.88929700292983" lon="3.185133858477143"><ele>22.799999999999997</ele><time>2026-04-22T08:42:01Z</time></trkpt><trkpt lat="41.88937694100791" lon="3.185154405850289"><ele>23.0</ele><time>2026-04-22T08:42:04Z</time></trkpt><trkpt lat="41.889464747552985" lon="3.1851831770221146"><ele>23.0</ele><time>2026-04-22T08:42:07Z</time></trkpt><trkpt lat="41.889545540528225" lon="3.185220026246258"><ele>23.0</ele><time>2026-04-22T08:42:10Z</time></trkpt><trkpt lat="41.88960928681017" lon="3.185249255115872"><ele>23.0</ele><time>2026-04-22T08:42:12Z</time></trkpt><trkpt lat="41.88968183056505" lon="3.1852498362114274"><ele>23.0</ele><time>2026-04-22T08:42:14Z</time></trkpt><trkpt lat="41.88974579674094" lon="3.1852703258111394"><ele>23.0</ele><time>2026-04-22T08:42:16Z</time></trkpt><trkpt lat="41.88982245450713" lon="3.185296480184935"><ele>23.0</ele><time>2026-04-22T08:42:19Z</time></trkpt><trkpt lat="41.88989979624271" lon="3.1853156073291826"><ele>23.0</ele><time>2026-04-22T08:42:22Z</time></trkpt><trkpt lat="41.889964983366966" lon="3.1853374476214897"><ele>23.0</ele><time>2026-04-22T08:42:24Z</time></trkpt><trkpt lat="41.890038246370985" lon="3.1853643203702244"><ele>23.0</ele><time>2026-04-22T08:42:26Z</time></trkpt><trkpt lat="41.89010380884562" lon="3.1853819579896063"><ele>23.0</ele><time>2026-04-22T08:42:28Z</time></trkpt><trkpt lat="41.890181931714224" lon="3.185395818983819"><ele>23.0</ele><time>2026-04-22T08:42:30Z</time></trkpt><trkpt lat="41.89025151750535" lon="3.1854087169919776"><ele>23.0</ele><time>2026-04-22T08:42:32Z</time></trkpt><trkpt lat="41.89031647693184" lon="3.185427198870049"><ele>23.0</ele><time>2026-04-22T08:42:34Z</time></trkpt><trkpt lat="41.890379574031364" lon="3.1854428810299242"><ele>23.0</ele><time>2026-04-22T08:42:36Z</time></trkpt><trkpt lat="41.890441976793944" lon="3.1854594903471534"><ele>24.166666666666668</ele><time>2026-04-22T08:42:38Z</time></trkpt><trkpt lat="41.89053507941794" lon="3.18549043476569"><ele>25.333333333333336</ele><time>2026-04-22T08:42:41Z</time></trkpt><trkpt lat="41.890600011302524" lon="3.185508321975625"><ele>26.5</ele><time>2026-04-22T08:42:43Z</time></trkpt><trkpt lat="41.890688879203445" lon="3.1855365826696453"><ele>27.666666666666668</ele><time>2026-04-22T08:42:46Z</time></trkpt><trkpt lat="41.89076322513922" lon="3.185527410977316"><ele>28.833333333333332</ele><time>2026-04-22T08:42:49Z</time></trkpt><trkpt lat="41.89083434509723" lon="3.185508957882506"><ele>30.0</ele><time>2026-04-22T08:42:52Z</time></trkpt><trkpt lat="41.890907274551694" lon="3.1854647687216806"><ele>31.0</ele><time>2026-04-22T08:45:13Z</time></trkpt><trkpt lat="41.890986901619605" lon="3.1854334790772016"><ele>32.0</ele><time>2026-04-22T08:45:15Z</time></trkpt><trkpt lat="41.891051267460526" lon="3.1854050109272216"><ele>33.0</ele><time>2026-04-22T08:45:17Z</time></trkpt><trkpt lat="41.89112625339227" lon="3.185370907127278"><ele>34.0</ele><time>2026-04-22T08:45:19Z</time></trkpt><trkpt lat="41.89120348413252" lon="3.1853391985393125"><ele>35.0</ele><time>2026-04-22T08:45:21Z</time></trkpt><trkpt lat="41.891292683530644" lon="3.185307323557841"><ele>36.0</ele><time>2026-04-22T08:45:23Z</time></trkpt><trkpt lat="41.891397337077734" lon="3.185267656367869"><ele>36.0</ele><time>2026-04-22T08:45:25Z</time></trkpt><trkpt lat="41.89151334998085" lon="3.1852199414935716"><ele>36.0</ele><time>2026-04-22T08:45:27Z</time></trkpt><trkpt lat="41.891622349258725" lon="3.1851745842136863"><ele>36.0</ele><time>2026-04-22T08:45:29Z</time></trkpt><trkpt lat="41.8917317965767" lon="3.1851272463142175"><ele>36.0</ele><time>2026-04-22T08:45:31Z</time></trkpt><trkpt lat="41.891841614184735" lon="3.1850867349125513"><ele>36.5</ele><time>2026-04-22T08:45:33Z</time></trkpt><trkpt lat="41.89194118294782" lon="3.1850567246815"><ele>37.0</ele><time>2026-04-22T08:45:35Z</time></trkpt><trkpt lat="41.89202724164786" lon="3.185015761392878"><ele>37.5</ele><time>2026-04-22T08:45:37Z</time></trkpt><trkpt lat="41.8920965248338" lon="3.18500650537969"><ele>38.0</ele><time>2026-04-22T08:45:39Z</time></trkpt><trkpt lat="41.89216774335273" lon="3.184989697308388"><ele>38.5</ele><time>2026-04-22T08:45:51Z</time></trkpt><trkpt lat="41.89217725392163" lon="3.185094962540225"><ele>39.0</ele><time>2026-04-22T08:45:52Z</time></trkpt><trkpt lat="41.892209251599034" lon="3.185232855201371"><ele>39.0</ele><time>2026-04-22T08:45:54Z</time></trkpt><trkpt lat="41.89222853784896" lon="3.185315968539997"><ele>39.0</ele><time>2026-04-22T08:45:55Z</time></trkpt><trkpt lat="41.89226292567003" lon="3.185390754295663"><ele>39.0</ele><time>2026-04-22T08:45:56Z</time></trkpt><trkpt lat="41.89229117791736" lon="3.185540427852408"><ele>39.0</ele><time>2026-04-22T08:45:58Z</time></trkpt><trkpt lat="41.8923203735908" lon="3.1856845509907266"><ele>39.0</ele><time>2026-04-22T08:46:00Z</time></trkpt><trkpt lat="41.89232176307506" lon="3.1858141450632984"><ele>38.6</ele><time>2026-04-22T08:46:02Z</time></trkpt><trkpt lat="41.89230193992298" lon="3.1859364809417983"><ele>38.2</ele><time>2026-04-22T08:46:04Z</time></trkpt><trkpt lat="41.89235065158965" lon="3.1860433185362247"><ele>37.800000000000004</ele><time>2026-04-22T08:46:06Z</time></trkpt><trkpt lat="41.89242647919253" lon="3.1861584268935657"><ele>37.4</ele><time>2026-04-22T08:46:08Z</time></trkpt><trkpt lat="41.892469546063474" lon="3.1863101047254134"><ele>37.0</ele><time>2026-04-22T08:46:10Z</time></trkpt><trkpt lat="41.89248861495352" lon="3.1863938823236744"><ele>37.0</ele><time>2026-04-22T08:46:11Z</time></trkpt><trkpt lat="41.89250531061935" lon="3.186476781558979"><ele>37.0</ele><time>2026-04-22T08:46:12Z</time></trkpt><trkpt lat="41.89252724747247" lon="3.1865752891873065"><ele>37.0</ele><time>2026-04-22T08:46:13Z</time></trkpt><trkpt lat="41.892547180334674" lon="3.1866847085237153"><ele>37.0</ele><time>2026-04-22T08:46:14Z</time></trkpt><trkpt lat="41.89256643578062" lon="3.1867983757353815"><ele>37.0</ele><time>2026-04-22T08:46:15Z</time></trkpt><trkpt lat="41.89258403964076" lon="3.1869127890250213"><ele>37.0</ele><time>2026-04-22T08:46:16Z</time></trkpt><trkpt lat="41.892599891341" lon="3.1870306412497484"><ele>37.8</ele><time>2026-04-22T08:46:17Z</time></trkpt><trkpt lat="41.89261278307239" lon="3.187157286235986"><ele>38.6</ele><time>2026-04-22T08:46:18Z</time></trkpt><trkpt lat="41.89262550924678" lon="3.1872852461715597"><ele>39.4</ele><time>2026-04-22T08:46:19Z</time></trkpt><trkpt lat="41.892632850872104" lon="3.187414820902715"><ele>40.199999999999996</ele><time>2026-04-22T08:46:20Z</time></trkpt><trkpt lat="41.89263861053257" lon="3.18753044147518"><ele>41.0</ele><time>2026-04-22T08:46:21Z</time></trkpt><trkpt lat="41.89264023645504" lon="3.187649556796986"><ele>41.0</ele><time>2026-04-22T08:46:22Z</time></trkpt><trkpt lat="41.892644214423065" lon="3.1877661852524835"><ele>41.0</ele><time>2026-04-22T08:46:23Z</time></trkpt><trkpt lat="41.89264589918965" lon="3.1878745095036254"><ele>41.0</ele><time>2026-04-22T08:46:24Z</time></trkpt><trkpt lat="41.89264599330185" lon="3.1879731918926644"><ele>41.0</ele><time>2026-04-22T08:46:25Z</time></trkpt><trkpt lat="41.89262223150795" lon="3.1881258726728654"><ele>41.0</ele><time>2026-04-22T08:46:27Z</time></trkpt><trkpt lat="41.89264348276475" lon="3.188253742427061"><ele>40.5</ele><time>2026-04-22T08:46:29Z</time></trkpt><trkpt lat="41.89265722821194" lon="3.188336566620608"><ele>40.0</ele><time>2026-04-22T08:46:31Z</time></trkpt><trkpt lat="41.89269114806753" lon="3.188463472029052"><ele>39.5</ele><time>2026-04-22T08:46:34Z</time></trkpt><trkpt lat="41.89274005767982" lon="3.1885902058321958"><ele>39.0</ele><time>2026-04-22T08:46:36Z</time></trkpt><trkpt lat="41.89278876194952" lon="3.188649402711108"><ele>38.5</ele><time>2026-04-22T08:46:37Z</time></trkpt><trkpt lat="41.89285304603108" lon="3.1886889002875143"><ele>38.0</ele><time>2026-04-22T08:46:38Z</time></trkpt><trkpt lat="41.892923804161235" lon="3.1887135975115317"><ele>38.0</ele><time>2026-04-22T08:46:39Z</time></trkpt><trkpt lat="41.89300296563305" lon="3.188732206077853"><ele>38.0</ele><time>2026-04-22T08:46:40Z</time></trkpt><trkpt lat="41.89308199586657" lon="3.1887455446249535"><ele>38.0</ele><time>2026-04-22T08:46:41Z</time></trkpt><trkpt lat="41.89315797859482" lon="3.188763339888815"><ele>38.0</ele><time>2026-04-22T08:46:42Z</time></trkpt><trkpt lat="41.893225734186466" lon="3.1887854998085436"><ele>38.0</ele><time>2026-04-22T08:46:43Z</time></trkpt><trkpt lat="41.89329541364262" lon="3.1888213690351037"><ele>38.0</ele><time>2026-04-22T08:46:44Z</time></trkpt><trkpt lat="41.893351535651355" lon="3.1888758515350863"><ele>38.33333333333333</ele><time>2026-04-22T08:46:45Z</time></trkpt><trkpt lat="41.89342796596094" lon="3.1889696227001343"><ele>38.666666666666664</ele><time>2026-04-22T08:46:47Z</time></trkpt><trkpt lat="41.89346278781138" lon="3.1890704658188787"><ele>39.0</ele><time>2026-04-22T08:46:49Z</time></trkpt><trkpt lat="41.89349879644846" lon="3.189154398727999"><ele>39.333333333333336</ele><time>2026-04-22T08:46:52Z</time></trkpt><trkpt lat="41.8935592154504" lon="3.1891071410212755"><ele>39.66666666666667</ele><time>2026-04-22T08:46:54Z</time></trkpt><trkpt lat="41.89354702641178" lon="3.1890076902866706"><ele>40.0</ele><time>2026-04-22T08:46:56Z</time></trkpt><trkpt lat="41.89347402636313" lon="3.1889246243420644"><ele>39.66666666666667</ele><time>2026-04-22T08:46:58Z</time></trkpt><trkpt lat="41.89340738564341" lon="3.1887940635767262"><ele>39.333333333333336</ele><time>2026-04-22T08:47:00Z</time></trkpt><trkpt lat="41.89338475816325" lon="3.1887106616700764"><ele>39.0</ele><time>2026-04-22T08:47:01Z</time></trkpt><trkpt lat="41.89336339020817" lon="3.188625114842783"><ele>38.666666666666664</ele><time>2026-04-22T08:47:02Z</time></trkpt><trkpt lat="41.893347979604215" lon="3.1885430775178483"><ele>38.33333333333333</ele><time>2026-04-22T08:47:03Z</time></trkpt><trkpt lat="41.89334051922191" lon="3.188458895249569"><ele>38.0</ele><time>2026-04-22T08:47:04Z</time></trkpt><trkpt lat="41.89334636711956" lon="3.1882907232922717"><ele>38.0</ele><time>2026-04-22T08:47:06Z</time></trkpt><trkpt lat="41.89336468601978" lon="3.1882005540555167"><ele>38.0</ele><time>2026-04-22T08:47:07Z</time></trkpt><trkpt lat="41.89339844317082" lon="3.1881178703001396"><ele>38.0</ele><time>2026-04-22T08:47:08Z</time></trkpt><trkpt lat="41.89345161154065" lon="3.188048667435287"><ele>38.0</ele><time>2026-04-22T08:47:09Z</time></trkpt><trkpt lat="41.89351582615499" lon="3.187977995774518"><ele>38.0</ele><time>2026-04-22T08:47:10Z</time></trkpt><trkpt lat="41.893587500418015" lon="3.1879238088489625"><ele>38.0</ele><time>2026-04-22T08:47:11Z</time></trkpt><trkpt lat="41.89365996658747" lon="3.187867700314716"><ele>38.8</ele><time>2026-04-22T08:47:12Z</time></trkpt><trkpt lat="41.89373396657982" lon="3.1877955552911406"><ele>39.599999999999994</ele><time>2026-04-22T08:47:13Z</time></trkpt><trkpt lat="41.893809790007175" lon="3.1877257519528635"><ele>40.400000000000006</ele><time>2026-04-22T08:47:14Z</time></trkpt><trkpt lat="41.89388827554584" lon="3.187653122266242"><ele>41.2</ele><time>2026-04-22T08:47:15Z</time></trkpt><trkpt lat="41.89396744189987" lon="3.1875735868422055"><ele>42.0</ele><time>2026-04-22T08:47:16Z</time></trkpt><trkpt lat="41.894047109226754" lon="3.1874986530409086"><ele>42.0</ele><time>2026-04-22T08:47:17Z</time></trkpt><trkpt lat="41.89411241962888" lon="3.1874059514061197"><ele>42.0</ele><time>2026-04-22T08:47:18Z</time></trkpt><trkpt lat="41.894189830772696" lon="3.1873323332710206"><ele>42.0</ele><time>2026-04-22T08:47:19Z</time></trkpt><trkpt lat="41.89427102422785" lon="3.187258296821481"><ele>42.0</ele><time>2026-04-22T08:47:20Z</time></trkpt><trkpt lat="41.89435091891856" lon="3.187177125861693"><ele>42.0</ele><time>2026-04-22T08:47:21Z</time></trkpt><trkpt lat="41.89443422377204" lon="3.1870949310958134"><ele>43.0</ele><time>2026-04-22T08:47:22Z</time></trkpt><trkpt lat="41.89451751300925" lon="3.1870200829498367"><ele>44.0</ele><time>2026-04-22T08:47:23Z</time></trkpt><trkpt lat="41.894602579447" lon="3.186939978729935"><ele>45.0</ele><time>2026-04-22T08:47:24Z</time></trkpt><trkpt lat="41.894688011160355" lon="3.186859055196095"><ele>46.0</ele><time>2026-04-22T08:47:25Z</time></trkpt><trkpt lat="41.89477884996984" lon="3.1867780341403504"><ele>47.0</ele><time>2026-04-22T08:47:26Z</time></trkpt><trkpt lat="41.89487092467808" lon="3.1866915337681827"><ele>47.0</ele><time>2026-04-22T08:47:27Z</time></trkpt><trkpt lat="41.89496477286951" lon="3.186599168725758"><ele>47.0</ele><time>2026-04-22T08:47:28Z</time></trkpt><trkpt lat="41.89506381980347" lon="3.186507338534225"><ele>47.0</ele><time>2026-04-22T08:47:29Z</time></trkpt><trkpt lat="41.89516407056027" lon="3.186410094959603"><ele>47.0</ele><time>2026-04-22T08:47:30Z</time></trkpt><trkpt lat="41.89526924042273" lon="3.186310175460794"><ele>48.0</ele><time>2026-04-22T08:47:31Z</time></trkpt><trkpt lat="41.895376805013704" lon="3.186202172736649"><ele>49.0</ele><time>2026-04-22T08:47:32Z</time></trkpt><trkpt lat="41.89548660877145" lon="3.1860990725283993"><ele>50.0</ele><time>2026-04-22T08:47:33Z</time></trkpt><trkpt lat="41.895595438376276" lon="3.1859910452312836"><ele>51.0</ele><time>2026-04-22T08:47:34Z</time></trkpt><trkpt lat="41.895700593261914" lon="3.185889159953747"><ele>51.0</ele><time>2026-04-22T08:47:35Z</time></trkpt><trkpt lat="41.89580469073885" lon="3.1857942806099486"><ele>51.0</ele><time>2026-04-22T08:47:36Z</time></trkpt><trkpt lat="41.89590755292114" lon="3.1856967197400308"><ele>51.0</ele><time>2026-04-22T08:47:37Z</time></trkpt><trkpt lat="41.896000982105974" lon="3.185578976958313"><ele>51.0</ele><time>2026-04-22T08:47:38Z</time></trkpt><trkpt lat="41.89610769378944" lon="3.1854799003156065"><ele>52.25</ele><time>2026-04-22T08:47:39Z</time></trkpt><trkpt lat="41.89621606245052" lon="3.1853830539542485"><ele>53.5</ele><time>2026-04-22T08:47:40Z</time></trkpt><trkpt lat="41.896320724110986" lon="3.185277809797485"><ele>54.75</ele><time>2026-04-22T08:47:41Z</time></trkpt><trkpt lat="41.896424061334045" lon="3.185180198374875"><ele>56.0</ele><time>2026-04-22T08:47:42Z</time></trkpt><trkpt lat="41.89651410709547" lon="3.185097758538258"><ele>56.0</ele><time>2026-04-22T08:47:43Z</time></trkpt><trkpt lat="41.89661978535926" lon="3.1849849284678733"><ele>56.0</ele><time>2026-04-22T08:47:44Z</time></trkpt><trkpt lat="41.8967134542781" lon="3.1849039408198108"><ele>56.0</ele><time>2026-04-22T08:47:45Z</time></trkpt><trkpt lat="41.89680511047461" lon="3.184803139928591"><ele>56.0</ele><time>2026-04-22T08:47:46Z</time></trkpt><trkpt lat="41.89689155209078" lon="3.1847042784622235"><ele>56.4</ele><time>2026-04-22T08:47:47Z</time></trkpt><trkpt lat="41.896970935326806" lon="3.1846120640312026"><ele>56.8</ele><time>2026-04-22T08:47:48Z</time></trkpt><trkpt lat="41.897055044352726" lon="3.1845214154638417"><ele>57.199999999999996</ele><time>2026-04-22T08:47:49Z</time></trkpt><trkpt lat="41.897133070026435" lon="3.1844283166977747"><ele>57.599999999999994</ele><time>2026-04-22T08:47:50Z</time></trkpt><trkpt lat="41.89720863147929" lon="3.1843523001700276"><ele>58.0</ele><time>2026-04-22T08:47:51Z</time></trkpt><trkpt lat="41.8972806164896" lon="3.18427663269894"><ele>57.99999999999999</ele><time>2026-04-22T08:47:52Z</time></trkpt><trkpt lat="41.89734773838005" lon="3.184206645609694"><ele>58.0</ele><time>2026-04-22T08:47:53Z</time></trkpt><trkpt lat="41.89740925253995" lon="3.1841381862931057"><ele>58.0</ele><time>2026-04-22T08:47:54Z</time></trkpt><trkpt lat="41.89745980604761" lon="3.184081440989344"><ele>58.0</ele><time>2026-04-22T08:47:55Z</time></trkpt><trkpt lat="41.897550852934515" lon="3.1839856122436045"><ele>57.99999999999999</ele><time>2026-04-22T08:47:57Z</time></trkpt><trkpt lat="41.897606002238334" lon="3.183930076173695"><ele>58.0</ele><time>2026-04-22T08:47:58Z</time></trkpt><trkpt lat="41.89769587768968" lon="3.1839765627181937"><ele>58.166666666666664</ele><time>2026-04-22T08:47:59Z</time></trkpt><trkpt lat="41.897766931526306" lon="3.183961726238829"><ele>58.33333333333333</ele><time>2026-04-22T08:48:00Z</time></trkpt><trkpt lat="41.89783057932998" lon="3.1839119850592725"><ele>58.5</ele><time>2026-04-22T08:48:01Z</time></trkpt><trkpt lat="41.89788004883403" lon="3.1838346595202047"><ele>58.66666666666667</ele><time>2026-04-22T08:48:02Z</time></trkpt><trkpt lat="41.89790915029037" lon="3.1837442575802553"><ele>58.833333333333336</ele><time>2026-04-22T08:48:03Z</time></trkpt><trkpt lat="41.89792183689382" lon="3.1836432625060063"><ele>59.0</ele><time>2026-04-22T08:48:04Z</time></trkpt><trkpt lat="41.897941458260725" lon="3.183540584144057"><ele>59.0</ele><time>2026-04-22T08:48:05Z</time></trkpt><trkpt lat="41.897990471789086" lon="3.1834461015168403"><ele>59.00000000000001</ele><time>2026-04-22T08:48:06Z</time></trkpt><trkpt lat="41.89805126812619" lon="3.1833638109436393"><ele>59.00000000000001</ele><time>2026-04-22T08:48:07Z</time></trkpt><trkpt lat="41.89812416444752" lon="3.183281826633012"><ele>59.0</ele><time>2026-04-22T08:48:08Z</time></trkpt><trkpt lat="41.89819827064802" lon="3.183192858701775"><ele>59.0</ele><time>2026-04-22T08:48:09Z</time></trkpt><trkpt lat="41.898277577043665" lon="3.183100731494035"><ele>59.0</ele><time>2026-04-22T08:48:10Z</time></trkpt><trkpt lat="41.898365854593585" lon="3.1830060142525856"><ele>59.0</ele><time>2026-04-22T08:48:11Z</time></trkpt><trkpt lat="41.89845719979509" lon="3.1829048656097734"><ele>59.0</ele><time>2026-04-22T08:48:12Z</time></trkpt><trkpt lat="41.898555153887074" lon="3.182792692275185"><ele>59.0</ele><time>2026-04-22T08:48:13Z</time></trkpt><trkpt lat="41.898656913733035" lon="3.182679827204094"><ele>58.25</ele><time>2026-04-22T08:48:14Z</time></trkpt><trkpt lat="41.898758103783386" lon="3.1825604811067096"><ele>57.5</ele><time>2026-04-22T08:48:15Z</time></trkpt><trkpt lat="41.89885125989645" lon="3.182423497894033"><ele>56.75</ele><time>2026-04-22T08:48:16Z</time></trkpt><trkpt lat="41.89895888145169" lon="3.182299548190414"><ele>56.0</ele><time>2026-04-22T08:48:17Z</time></trkpt><trkpt lat="41.89906622222735" lon="3.182174677201169"><ele>54.75</ele><time>2026-04-22T08:48:18Z</time></trkpt><trkpt lat="41.899174251528976" lon="3.182049336794869"><ele>53.5</ele><time>2026-04-22T08:48:19Z</time></trkpt><trkpt lat="41.899282989147274" lon="3.181923656351098"><ele>52.25</ele><time>2026-04-22T08:48:20Z</time></trkpt><trkpt lat="41.89939430275486" lon="3.1818009197106756"><ele>51.0</ele><time>2026-04-22T08:48:21Z</time></trkpt><trkpt lat="41.8995010833585" lon="3.1816747954284677"><ele>50.5</ele><time>2026-04-22T08:48:22Z</time></trkpt><trkpt lat="41.89960996433707" lon="3.181548293979378"><ele>50.0</ele><time>2026-04-22T08:48:23Z</time></trkpt><trkpt lat="41.89971763451739" lon="3.1814262852879382"><ele>49.5</ele><time>2026-04-22T08:48:24Z</time></trkpt><trkpt lat="41.89982283145849" lon="3.181295412615021"><ele>49.0</ele><time>2026-04-22T08:48:25Z</time></trkpt><trkpt lat="41.89993142308147" lon="3.1811722342235433"><ele>48.5</ele><time>2026-04-22T08:48:26Z</time></trkpt><trkpt lat="41.900042147977" lon="3.181051121735682"><ele>48.0</ele><time>2026-04-22T08:48:27Z</time></trkpt><trkpt lat="41.90015317112762" lon="3.1809198002778194"><ele>47.5</ele><time>2026-04-22T08:48:28Z</time></trkpt><trkpt lat="41.90026946708605" lon="3.1807836042508155"><ele>47.0</ele><time>2026-04-22T08:48:29Z</time></trkpt><trkpt lat="41.900379781817456" lon="3.1806570369708314"><ele>46.75</ele><time>2026-04-22T08:48:30Z</time></trkpt><trkpt lat="41.90048482122335" lon="3.1805370476237496"><ele>46.5</ele><time>2026-04-22T08:48:31Z</time></trkpt><trkpt lat="41.90058719694949" lon="3.1804167865034203"><ele>46.25</ele><time>2026-04-22T08:48:32Z</time></trkpt><trkpt lat="41.900688799908345" lon="3.1803001941796447"><ele>46.0</ele><time>2026-04-22T08:48:33Z</time></trkpt><trkpt lat="41.90077835028958" lon="3.1801688974186844"><ele>46.0</ele><time>2026-04-22T08:48:34Z</time></trkpt><trkpt lat="41.9008761094847" lon="3.1800500729147756"><ele>46.0</ele><time>2026-04-22T08:48:35Z</time></trkpt><trkpt lat="41.900975249089534" lon="3.179934122170001"><ele>46.0</ele><time>2026-04-22T08:48:36Z</time></trkpt><trkpt lat="41.901073707675415" lon="3.179822891932599"><ele>46.0</ele><time>2026-04-22T08:48:37Z</time></trkpt><trkpt lat="41.901166530838466" lon="3.1797135181873135"><ele>45.599999999999994</ele><time>2026-04-22T08:48:38Z</time></trkpt><trkpt lat="41.90125763105723" lon="3.1796097615085905"><ele>45.2</ele><time>2026-04-22T08:48:39Z</time></trkpt><trkpt lat="41.901346953742504" lon="3.1795117668518307"><ele>44.8</ele><time>2026-04-22T08:48:40Z</time></trkpt><trkpt lat="41.90143095702575" lon="3.179415499906907"><ele>44.400000000000006</ele><time>2026-04-22T08:48:41Z</time></trkpt><trkpt lat="41.90150534763394" lon="3.1793289018422466"><ele>44.0</ele><time>2026-04-22T08:48:42Z</time></trkpt><trkpt lat="41.90157675831555" lon="3.1792470603958933"><ele>44.0</ele><time>2026-04-22T08:48:43Z</time></trkpt><trkpt lat="41.90163938548493" lon="3.1791644506209282"><ele>44.0</ele><time>2026-04-22T08:48:44Z</time></trkpt><trkpt lat="41.90169824049605" lon="3.179096624079563"><ele>44.0</ele><time>2026-04-22T08:48:45Z</time></trkpt><trkpt lat="41.90175733012088" lon="3.17903978439856"><ele>44.0</ele><time>2026-04-22T08:48:46Z</time></trkpt><trkpt lat="41.90182689246585" lon="3.1790058305870716"><ele>44.0</ele><time>2026-04-22T08:48:47Z</time></trkpt><trkpt lat="41.90189045183621" lon="3.178986928323732"><ele>44.0</ele><time>2026-04-22T08:48:48Z</time></trkpt><trkpt lat="41.90196147449012" lon="3.178982432015288"><ele>44.0</ele><time>2026-04-22T08:48:49Z</time></trkpt><trkpt lat="41.90202852967091" lon="3.1789582809357912"><ele>44.0</ele><time>2026-04-22T08:48:50Z</time></trkpt><trkpt lat="41.90208188583636" lon="3.178904578072429"><ele>44.0</ele><time>2026-04-22T08:48:51Z</time></trkpt><trkpt lat="41.90212138787784" lon="3.178829375345135"><ele>44.0</ele><time>2026-04-22T08:48:52Z</time></trkpt><trkpt lat="41.902144782584244" lon="3.1787428641107454"><ele>44.0</ele><time>2026-04-22T08:48:53Z</time></trkpt><trkpt lat="41.90216439110403" lon="3.1786449485433312"><ele>44.0</ele><time>2026-04-22T08:48:54Z</time></trkpt><trkpt lat="41.902193111933585" lon="3.178546907253898"><ele>44.0</ele><time>2026-04-22T08:48:55Z</time></trkpt><trkpt lat="41.90224829128551" lon="3.178459085799606"><ele>44.0</ele><time>2026-04-22T08:48:56Z</time></trkpt><trkpt lat="41.90231468272588" lon="3.1783782989343115"><ele>44.0</ele><time>2026-04-22T08:48:57Z</time></trkpt><trkpt lat="41.90238703224347" lon="3.1782897588548096"><ele>44.0</ele><time>2026-04-22T08:48:58Z</time></trkpt><trkpt lat="41.902466441958396" lon="3.1781965775799987"><ele>44.0</ele><time>2026-04-22T08:48:59Z</time></trkpt><trkpt lat="41.90255225017448" lon="3.1781005144326357"><ele>44.0</ele><time>2026-04-22T08:49:00Z</time></trkpt><trkpt lat="41.90263803233124" lon="3.178001178408578"><ele>44.0</ele><time>2026-04-22T08:49:01Z</time></trkpt><trkpt lat="41.90272770764391" lon="3.177910063229084"><ele>45.25</ele><time>2026-04-22T08:49:02Z</time></trkpt><trkpt lat="41.90282203759286" lon="3.177808698804366"><ele>46.5</ele><time>2026-04-22T08:49:03Z</time></trkpt><trkpt lat="41.9029058138702" lon="3.1776882249342933"><ele>47.75</ele><time>2026-04-22T08:49:04Z</time></trkpt><trkpt lat="41.90300782160217" lon="3.177581445113105"><ele>49.0</ele><time>2026-04-22T08:49:05Z</time></trkpt><trkpt lat="41.90310854544427" lon="3.1774764497969485"><ele>49.0</ele><time>2026-04-22T08:49:06Z</time></trkpt><trkpt lat="41.90320899871393" lon="3.1773758031012505"><ele>49.0</ele><time>2026-04-22T08:49:07Z</time></trkpt><trkpt lat="41.903310163617654" lon="3.1772776359625428"><ele>49.0</ele><time>2026-04-22T08:49:08Z</time></trkpt><trkpt lat="41.9034021347037" lon="3.177169068520616"><ele>49.0</ele><time>2026-04-22T08:49:09Z</time></trkpt><trkpt lat="41.90350327109947" lon="3.1770730680006847"><ele>48.25</ele><time>2026-04-22T08:49:10Z</time></trkpt><trkpt lat="41.903606278106174" lon="3.17697984665582"><ele>47.5</ele><time>2026-04-22T08:49:11Z</time></trkpt><trkpt lat="41.903711625379174" lon="3.176886427885285"><ele>46.75</ele><time>2026-04-22T08:49:12Z</time></trkpt><trkpt lat="41.90381731133662" lon="3.1768007629063164"><ele>46.0</ele><time>2026-04-22T08:49:13Z</time></trkpt><trkpt lat="41.903925935773835" lon="3.176717163107784"><ele>46.0</ele><time>2026-04-22T08:49:14Z</time></trkpt><trkpt lat="41.90403532491401" lon="3.1766331692771144"><ele>46.0</ele><time>2026-04-22T08:49:15Z</time></trkpt><trkpt lat="41.90414390104376" lon="3.1765454338256"><ele>46.0</ele><time>2026-04-22T08:49:16Z</time></trkpt><trkpt lat="41.90425179020007" lon="3.1764608582122964"><ele>46.0</ele><time>2026-04-22T08:49:17Z</time></trkpt><trkpt lat="41.90436164317962" lon="3.1763759198984003"><ele>45.0</ele><time>2026-04-22T08:49:18Z</time></trkpt><trkpt lat="41.90447242098763" lon="3.1762904373920477"><ele>44.0</ele><time>2026-04-22T08:49:19Z</time></trkpt><trkpt lat="41.90458527927462" lon="3.1762081674516653"><ele>43.0</ele><time>2026-04-22T08:49:20Z</time></trkpt><trkpt lat="41.90468885653895" lon="3.176101807703536"><ele>42.0</ele><time>2026-04-22T08:49:21Z</time></trkpt><trkpt lat="41.90479885044732" lon="3.1760167375771178"><ele>42.0</ele><time>2026-04-22T08:49:22Z</time></trkpt><trkpt lat="41.90490785692624" lon="3.1759309140799057"><ele>42.0</ele><time>2026-04-22T08:49:23Z</time></trkpt><trkpt lat="41.90501881146429" lon="3.1758495921360654"><ele>42.0</ele><time>2026-04-22T08:49:24Z</time></trkpt><trkpt lat="41.90513020046626" lon="3.175766524374334"><ele>42.0</ele><time>2026-04-22T08:49:25Z</time></trkpt><trkpt lat="41.905240476860314" lon="3.1756736515273194"><ele>41.25</ele><time>2026-04-22T08:49:26Z</time></trkpt><trkpt lat="41.90535151434455" lon="3.175587725698557"><ele>40.5</ele><time>2026-04-22T08:49:27Z</time></trkpt><trkpt lat="41.90546658985295" lon="3.1755075643519195"><ele>39.75</ele><time>2026-04-22T08:49:28Z</time></trkpt><trkpt lat="41.9055791200016" lon="3.1754209844474883"><ele>39.0</ele><time>2026-04-22T08:49:29Z</time></trkpt><trkpt lat="41.90569128943967" lon="3.175333009964087"><ele>39.0</ele><time>2026-04-22T08:49:30Z</time></trkpt><trkpt lat="41.90580567753527" lon="3.175244586996958"><ele>39.0</ele><time>2026-04-22T08:49:31Z</time></trkpt><trkpt lat="41.90592188869218" lon="3.1751548065297075"><ele>39.0</ele><time>2026-04-22T08:49:32Z</time></trkpt><trkpt lat="41.90603693239259" lon="3.17506610871206"><ele>39.0</ele><time>2026-04-22T08:49:33Z</time></trkpt><trkpt lat="41.906153573998196" lon="3.1749774319389505"><ele>39.5</ele><time>2026-04-22T08:49:34Z</time></trkpt><trkpt lat="41.906268960272676" lon="3.1748849299135955"><ele>40.0</ele><time>2026-04-22T08:49:35Z</time></trkpt><trkpt lat="41.90638711586352" lon="3.1747943585522527"><ele>40.5</ele><time>2026-04-22T08:49:36Z</time></trkpt><trkpt lat="41.90650447698725" lon="3.174702475930458"><ele>41.0</ele><time>2026-04-22T08:49:37Z</time></trkpt><trkpt lat="41.90662158384132" lon="3.174607754386038"><ele>41.0</ele><time>2026-04-22T08:49:38Z</time></trkpt><trkpt lat="41.906728880506144" lon="3.1744901577576305"><ele>41.0</ele><time>2026-04-22T08:49:39Z</time></trkpt><trkpt lat="41.90684900420723" lon="3.174392994912627"><ele>41.0</ele><time>2026-04-22T08:49:40Z</time></trkpt><trkpt lat="41.906965597428744" lon="3.174304557752795"><ele>41.0</ele><time>2026-04-22T08:49:41Z</time></trkpt><trkpt lat="41.90708147026271" lon="3.1742126304460703"><ele>41.25</ele><time>2026-04-22T08:49:42Z</time></trkpt><trkpt lat="41.907195255881305" lon="3.1741216938734023"><ele>41.5</ele><time>2026-04-22T08:49:43Z</time></trkpt><trkpt lat="41.90731178935068" lon="3.174029556148829"><ele>41.75</ele><time>2026-04-22T08:49:44Z</time></trkpt><trkpt lat="41.907426416285894" lon="3.1739397651331402"><ele>42.0</ele><time>2026-04-22T08:49:45Z</time></trkpt><trkpt lat="41.90753591951114" lon="3.1738387254596487"><ele>42.25</ele><time>2026-04-22T08:49:46Z</time></trkpt><trkpt lat="41.90764707030264" lon="3.173731532493086"><ele>42.5</ele><time>2026-04-22T08:49:47Z</time></trkpt><trkpt lat="41.907744722926246" lon="3.1736003103370103"><ele>42.75</ele><time>2026-04-22T08:49:48Z</time></trkpt><trkpt lat="41.90784962373961" lon="3.1734876214616454"><ele>43.0</ele><time>2026-04-22T08:49:49Z</time></trkpt><trkpt lat="41.90795333416545" lon="3.1733671319417533"><ele>43.0</ele><time>2026-04-22T08:49:50Z</time></trkpt><trkpt lat="41.908058735687504" lon="3.173245558733851"><ele>43.0</ele><time>2026-04-22T08:49:51Z</time></trkpt><trkpt lat="41.90816149335895" lon="3.1731224050926503"><ele>43.0</ele><time>2026-04-22T08:49:52Z</time></trkpt><trkpt lat="41.90826413730792" lon="3.1729926898855734"><ele>43.0</ele><time>2026-04-22T08:49:53Z</time></trkpt><trkpt lat="41.90836115121453" lon="3.1728596570611987"><ele>43.0</ele><time>2026-04-22T08:49:54Z</time></trkpt><trkpt lat="41.90845769307676" lon="3.1727226515497784"><ele>43.0</ele><time>2026-04-22T08:49:55Z</time></trkpt><trkpt lat="41.9085528037225" lon="3.172586594341701"><ele>43.0</ele><time>2026-04-22T08:49:56Z</time></trkpt><trkpt lat="41.90864806296319" lon="3.1724440486601684"><ele>43.0</ele><time>2026-04-22T08:49:57Z</time></trkpt><trkpt lat="41.90874692384266" lon="3.172308258392677"><ele>43.0</ele><time>2026-04-22T08:49:58Z</time></trkpt><trkpt lat="41.908846583575546" lon="3.172164835093285"><ele>43.0</ele><time>2026-04-22T08:49:59Z</time></trkpt><trkpt lat="41.9089477115109" lon="3.172017937573449"><ele>43.0</ele><time>2026-04-22T08:50:00Z</time></trkpt><trkpt lat="41.90905131108942" lon="3.171874103628976"><ele>43.0</ele><time>2026-04-22T08:50:01Z</time></trkpt><trkpt lat="41.909155316839424" lon="3.1717292739642864"><ele>43.25</ele><time>2026-04-22T08:50:02Z</time></trkpt><trkpt lat="41.90925969314235" lon="3.1715855210055546"><ele>43.5</ele><time>2026-04-22T08:50:03Z</time></trkpt><trkpt lat="41.90936279103608" lon="3.1714377911017637"><ele>43.75</ele><time>2026-04-22T08:50:04Z</time></trkpt><trkpt lat="41.909462996928305" lon="3.171290401684883"><ele>44.0</ele><time>2026-04-22T08:50:05Z</time></trkpt><trkpt lat="41.909562813640505" lon="3.171145958336698"><ele>44.0</ele><time>2026-04-22T08:50:06Z</time></trkpt><trkpt lat="41.90966232952208" lon="3.1710040820421943"><ele>44.0</ele><time>2026-04-22T08:50:07Z</time></trkpt><trkpt lat="41.909747440313076" lon="3.170846868296487"><ele>44.0</ele><time>2026-04-22T08:50:08Z</time></trkpt><trkpt lat="41.90984435740235" lon="3.1707040883827995"><ele>44.0</ele><time>2026-04-22T08:50:09Z</time></trkpt><trkpt lat="41.90994255799868" lon="3.1705598827243744"><ele>43.75</ele><time>2026-04-22T08:50:10Z</time></trkpt><trkpt lat="41.910041311175" lon="3.1704167723721874"><ele>43.5</ele><time>2026-04-22T08:50:11Z</time></trkpt><trkpt lat="41.91013879707511" lon="3.1702774179361217"><ele>43.25</ele><time>2026-04-22T08:50:12Z</time></trkpt><trkpt lat="41.910232378179465" lon="3.1701443552846853"><ele>43.0</ele><time>2026-04-22T08:50:13Z</time></trkpt><trkpt lat="41.91032319570893" lon="3.1700152524843057"><ele>43.0</ele><time>2026-04-22T08:50:14Z</time></trkpt><trkpt lat="41.91041296592254" lon="3.169891093277043"><ele>43.0</ele><time>2026-04-22T08:50:15Z</time></trkpt><trkpt lat="41.910497746547556" lon="3.1697698587105467"><ele>43.0</ele><time>2026-04-22T08:50:16Z</time></trkpt><trkpt lat="41.91058249967612" lon="3.1696484651447507"><ele>43.0</ele><time>2026-04-22T08:50:17Z</time></trkpt><trkpt lat="41.91066610998621" lon="3.1695270187113587"><ele>43.0</ele><time>2026-04-22T08:50:18Z</time></trkpt><trkpt lat="41.91074647083286" lon="3.1694134498910804"><ele>43.0</ele><time>2026-04-22T08:50:19Z</time></trkpt><trkpt lat="41.91082135958826" lon="3.16930371489798"><ele>43.0</ele><time>2026-04-22T08:50:20Z</time></trkpt><trkpt lat="41.91089234973223" lon="3.1692021856782024"><ele>43.0</ele><time>2026-04-22T08:50:21Z</time></trkpt><trkpt lat="41.91095847484574" lon="3.169111482357222"><ele>43.0</ele><time>2026-04-22T08:50:22Z</time></trkpt><trkpt lat="41.911016290069234" lon="3.1690276366953696"><ele>43.16666666666667</ele><time>2026-04-22T08:50:23Z</time></trkpt><trkpt lat="41.91106752362871" lon="3.16895455430475"><ele>43.333333333333336</ele><time>2026-04-22T08:50:24Z</time></trkpt><trkpt lat="41.91111304471465" lon="3.1688903614707997"><ele>43.5</ele><time>2026-04-22T08:50:25Z</time></trkpt><trkpt lat="41.91118073205074" lon="3.1687969835816183"><ele>43.666666666666664</ele><time>2026-04-22T08:50:27Z</time></trkpt><trkpt lat="41.91123486155656" lon="3.1687393104418695"><ele>43.83333333333333</ele><time>2026-04-22T08:50:29Z</time></trkpt><trkpt lat="41.91133896803251" lon="3.1687410297336016"><ele>44.0</ele><time>2026-04-22T08:50:31Z</time></trkpt><trkpt lat="41.91145187042984" lon="3.168680249388608"><ele>44.0</ele><time>2026-04-22T08:50:33Z</time></trkpt><trkpt lat="41.91149215416582" lon="3.168614414475146"><ele>44.0</ele><time>2026-04-22T08:50:34Z</time></trkpt><trkpt lat="41.91151934498092" lon="3.1685326694923"><ele>44.0</ele><time>2026-04-22T08:50:35Z</time></trkpt><trkpt lat="41.91152641132977" lon="3.1684410916433268"><ele>44.0</ele><time>2026-04-22T08:50:36Z</time></trkpt><trkpt lat="41.91151296068974" lon="3.1683473513225056"><ele>44.0</ele><time>2026-04-22T08:50:37Z</time></trkpt><trkpt lat="41.911477904981474" lon="3.1682703215759322"><ele>44.0</ele><time>2026-04-22T08:50:38Z</time></trkpt><trkpt lat="41.911418933002714" lon="3.16821535400208"><ele>44.0</ele><time>2026-04-22T08:50:39Z</time></trkpt><trkpt lat="41.91134921650243" lon="3.16819236091188"><ele>44.166666666666664</ele><time>2026-04-22T08:50:40Z</time></trkpt><trkpt lat="41.911273502704155" lon="3.1681725610156146"><ele>44.33333333333333</ele><time>2026-04-22T08:50:41Z</time></trkpt><trkpt lat="41.91119474860851" lon="3.1681233125419315"><ele>44.5</ele><time>2026-04-22T08:50:42Z</time></trkpt><trkpt lat="41.91112628046063" lon="3.168054289556918"><ele>44.666666666666664</ele><time>2026-04-22T08:50:43Z</time></trkpt><trkpt lat="41.91106122502784" lon="3.1679559828267196"><ele>44.833333333333336</ele><time>2026-04-22T08:50:44Z</time></trkpt><trkpt lat="41.91099850002935" lon="3.167853537798072"><ele>45.0</ele><time>2026-04-22T08:50:45Z</time></trkpt><trkpt lat="41.91093233250958" lon="3.1677499158183515"><ele>44.6</ele><time>2026-04-22T08:50:46Z</time></trkpt><trkpt lat="41.91087015628309" lon="3.167647456865453"><ele>44.2</ele><time>2026-04-22T08:50:47Z</time></trkpt><trkpt lat="41.91080651267342" lon="3.1675448480003228"><ele>43.8</ele><time>2026-04-22T08:50:48Z</time></trkpt><trkpt lat="41.91074707556284" lon="3.1674405478771055"><ele>43.4</ele><time>2026-04-22T08:50:49Z</time></trkpt><trkpt lat="41.91068493877082" lon="3.167340786129453"><ele>43.0</ele><time>2026-04-22T08:50:50Z</time></trkpt><trkpt lat="41.91062600016014" lon="3.167240724428093"><ele>43.0</ele><time>2026-04-22T08:50:51Z</time></trkpt><trkpt lat="41.91056440381126" lon="3.1671458327325954"><ele>43.0</ele><time>2026-04-22T08:50:52Z</time></trkpt><trkpt lat="41.91050435373723" lon="3.167046099234884"><ele>43.0</ele><time>2026-04-22T08:50:53Z</time></trkpt><trkpt lat="41.91044382467866" lon="3.1669429190735787"><ele>43.0</ele><time>2026-04-22T08:50:54Z</time></trkpt><trkpt lat="41.91037920873472" lon="3.1668410545846974"><ele>43.0</ele><time>2026-04-22T08:50:55Z</time></trkpt><trkpt lat="41.910314372018576" lon="3.166739826109554"><ele>43.0</ele><time>2026-04-22T08:50:56Z</time></trkpt><trkpt lat="41.91024916739095" lon="3.166638361280751"><ele>43.0</ele><time>2026-04-22T08:50:57Z</time></trkpt><trkpt lat="41.91018480687339" lon="3.166536955352902"><ele>43.0</ele><time>2026-04-22T08:50:58Z</time></trkpt><trkpt lat="41.910121328830115" lon="3.1664326131944227"><ele>43.0</ele><time>2026-04-22T08:50:59Z</time></trkpt><trkpt lat="41.910056704581876" lon="3.1663275255757397"><ele>43.0</ele><time>2026-04-22T08:51:00Z</time></trkpt><trkpt lat="41.909989796714726" lon="3.166219116240819"><ele>42.4</ele><time>2026-04-22T08:51:01Z</time></trkpt><trkpt lat="41.90992464519164" lon="3.166114602292602"><ele>41.8</ele><time>2026-04-22T08:51:02Z</time></trkpt><trkpt lat="41.909862063492476" lon="3.1660142444302135"><ele>41.2</ele><time>2026-04-22T08:51:03Z</time></trkpt><trkpt lat="41.90980409522191" lon="3.1659135795296507"><ele>40.6</ele><time>2026-04-22T08:51:04Z</time></trkpt><trkpt lat="41.909743543892105" lon="3.16581394750008"><ele>40.0</ele><time>2026-04-22T08:51:05Z</time></trkpt><trkpt lat="41.909683378322256" lon="3.1657170198473734"><ele>39.8</ele><time>2026-04-22T08:51:06Z</time></trkpt><trkpt lat="41.90962791764391" lon="3.1656149009065553"><ele>39.6</ele><time>2026-04-22T08:51:07Z</time></trkpt><trkpt lat="41.909573030482015" lon="3.165511498349794"><ele>39.4</ele><time>2026-04-22T08:51:08Z</time></trkpt><trkpt lat="41.90952498558669" lon="3.16540065436581"><ele>39.2</ele><time>2026-04-22T08:51:09Z</time></trkpt><trkpt lat="41.90948123032793" lon="3.1652899778496875"><ele>39.0</ele><time>2026-04-22T08:51:10Z</time></trkpt><trkpt lat="41.90944694371147" lon="3.165172944781334"><ele>39.0</ele><time>2026-04-22T08:51:11Z</time></trkpt><trkpt lat="41.9094157725125" lon="3.165056526754954"><ele>39.0</ele><time>2026-04-22T08:51:12Z</time></trkpt><trkpt lat="41.90939315786178" lon="3.164937703226643"><ele>39.0</ele><time>2026-04-22T08:51:13Z</time></trkpt><trkpt lat="41.90937367550392" lon="3.164818109559362"><ele>39.0</ele><time>2026-04-22T08:51:14Z</time></trkpt><trkpt lat="41.909360921286854" lon="3.1646935605531277"><ele>39.0</ele><time>2026-04-22T08:51:15Z</time></trkpt><trkpt lat="41.90935682755708" lon="3.1645699586488907"><ele>39.0</ele><time>2026-04-22T08:51:16Z</time></trkpt><trkpt lat="41.90935905499659" lon="3.1644432554332806"><ele>39.0</ele><time>2026-04-22T08:51:17Z</time></trkpt><trkpt lat="41.90936909724242" lon="3.164320344277527"><ele>39.0</ele><time>2026-04-22T08:51:18Z</time></trkpt><trkpt lat="41.90938481806121" lon="3.164197491417858"><ele>39.0</ele><time>2026-04-22T08:51:19Z</time></trkpt><trkpt lat="41.909405507014384" lon="3.1640788669768027"><ele>39.0</ele><time>2026-04-22T08:51:20Z</time></trkpt><trkpt lat="41.90943117191517" lon="3.163964668847498"><ele>39.333333333333336</ele><time>2026-04-22T08:51:21Z</time></trkpt><trkpt lat="41.90945815282771" lon="3.163849369481421"><ele>39.666666666666664</ele><time>2026-04-22T08:51:22Z</time></trkpt><trkpt lat="41.90948400829547" lon="3.16373374627695"><ele>40.0</ele><time>2026-04-22T08:51:23Z</time></trkpt><trkpt lat="41.909510048777406" lon="3.1636169140671844"><ele>40.33333333333333</ele><time>2026-04-22T08:51:24Z</time></trkpt><trkpt lat="41.90953589174234" lon="3.1635032373221543"><ele>40.666666666666664</ele><time>2026-04-22T08:51:25Z</time></trkpt><trkpt lat="41.909562201654055" lon="3.1633898644118603"><ele>41.0</ele><time>2026-04-22T08:51:26Z</time></trkpt><trkpt lat="41.90958874828316" lon="3.163275660745374"><ele>41.0</ele><time>2026-04-22T08:51:27Z</time></trkpt><trkpt lat="41.909611049268875" lon="3.1631644657943174"><ele>41.0</ele><time>2026-04-22T08:51:28Z</time></trkpt><trkpt lat="41.909626363687906" lon="3.1630611640685093"><ele>41.0</ele><time>2026-04-22T08:51:29Z</time></trkpt><trkpt lat="41.90963680454619" lon="3.1629653277010097"><ele>41.0</ele><time>2026-04-22T08:51:30Z</time></trkpt><trkpt lat="41.909650157049285" lon="3.1628619763988715"><ele>41.0</ele><time>2026-04-22T08:51:31Z</time></trkpt><trkpt lat="41.90967431786843" lon="3.162768576128602"><ele>41.0</ele><time>2026-04-22T08:51:32Z</time></trkpt><trkpt lat="41.90969270706393" lon="3.1626707970025665"><ele>40.99999999999999</ele><time>2026-04-22T08:51:33Z</time></trkpt><trkpt lat="41.90973720991718" lon="3.1625880430180233"><ele>41.0</ele><time>2026-04-22T08:51:34Z</time></trkpt><trkpt lat="41.909758530839525" lon="3.1624972608963913"><ele>41.0</ele><time>2026-04-22T08:51:35Z</time></trkpt><trkpt lat="41.90977815513602" lon="3.1624022048174227"><ele>41.0</ele><time>2026-04-22T08:51:36Z</time></trkpt><trkpt lat="41.90980167441632" lon="3.16231038909946"><ele>41.0</ele><time>2026-04-22T08:51:37Z</time></trkpt><trkpt lat="41.90982357145872" lon="3.1622102142690274"><ele>40.99999999999999</ele><time>2026-04-22T08:51:38Z</time></trkpt><trkpt lat="41.909844363266544" lon="3.1621119508544413"><ele>41.0</ele><time>2026-04-22T08:51:39Z</time></trkpt><trkpt lat="41.909867923896705" lon="3.1620093275467456"><ele>40.83333333333333</ele><time>2026-04-22T08:51:40Z</time></trkpt><trkpt lat="41.90988943981946" lon="3.1619073388378216"><ele>40.666666666666664</ele><time>2026-04-22T08:51:41Z</time></trkpt><trkpt lat="41.90990654287488" lon="3.161803811738793"><ele>40.5</ele><time>2026-04-22T08:51:42Z</time></trkpt><trkpt lat="41.90992290366704" lon="3.161697289720173"><ele>40.333333333333336</ele><time>2026-04-22T08:51:43Z</time></trkpt><trkpt lat="41.909941590311" lon="3.161596098815571"><ele>40.16666666666667</ele><time>2026-04-22T08:51:44Z</time></trkpt><trkpt lat="41.90995688960578" lon="3.161493951721045"><ele>40.0</ele><time>2026-04-22T08:51:45Z</time></trkpt><trkpt lat="41.90996653844034" lon="3.161386406644764"><ele>39.66666666666667</ele><time>2026-04-22T08:51:46Z</time></trkpt><trkpt lat="41.909974023649056" lon="3.161286995413749"><ele>39.333333333333336</ele><time>2026-04-22T08:51:47Z</time></trkpt><trkpt lat="41.909977260474676" lon="3.1611794839089935"><ele>39.0</ele><time>2026-04-22T08:51:48Z</time></trkpt><trkpt lat="41.909992708170044" lon="3.161080066955723"><ele>38.666666666666664</ele><time>2026-04-22T08:51:49Z</time></trkpt><trkpt lat="41.910014851123705" lon="3.160978530468976"><ele>38.33333333333333</ele><time>2026-04-22T08:51:50Z</time></trkpt><trkpt lat="41.91003892696826" lon="3.160883650588483"><ele>38.0</ele><time>2026-04-22T08:51:51Z</time></trkpt><trkpt lat="41.91005870444494" lon="3.1607855208953772"><ele>38.33333333333333</ele><time>2026-04-22T08:51:52Z</time></trkpt><trkpt lat="41.910076253968874" lon="3.1606881835020935"><ele>38.666666666666664</ele><time>2026-04-22T08:51:53Z</time></trkpt><trkpt lat="41.910091053052525" lon="3.160585501112426"><ele>39.0</ele><time>2026-04-22T08:51:54Z</time></trkpt><trkpt lat="41.91010576757281" lon="3.1604842483692033"><ele>39.333333333333336</ele><time>2026-04-22T08:51:55Z</time></trkpt><trkpt lat="41.91011998244906" lon="3.1603862460601513"><ele>39.66666666666667</ele><time>2026-04-22T08:51:56Z</time></trkpt><trkpt lat="41.91013166351422" lon="3.16028114193034"><ele>40.0</ele><time>2026-04-22T08:51:57Z</time></trkpt><trkpt lat="41.91014909722587" lon="3.160177911575832"><ele>40.0</ele><time>2026-04-22T08:51:58Z</time></trkpt><trkpt lat="41.910162078120166" lon="3.1600740197186825"><ele>40.0</ele><time>2026-04-22T08:51:59Z</time></trkpt><trkpt lat="41.91017557155402" lon="3.159972272796045"><ele>40.0</ele><time>2026-04-22T08:52:00Z</time></trkpt><trkpt lat="41.910186669457936" lon="3.159863651620997"><ele>40.0</ele><time>2026-04-22T08:52:01Z</time></trkpt><trkpt lat="41.91020168746447" lon="3.1597592737405913"><ele>40.0</ele><time>2026-04-22T08:52:02Z</time></trkpt><trkpt lat="41.91021722867624" lon="3.159653937035038"><ele>40.0</ele><time>2026-04-22T08:52:03Z</time></trkpt><trkpt lat="41.91023457294529" lon="3.1595480975533787"><ele>40.16666666666667</ele><time>2026-04-22T08:52:04Z</time></trkpt><trkpt lat="41.91025202172985" lon="3.159439681019073"><ele>40.333333333333336</ele><time>2026-04-22T08:52:05Z</time></trkpt><trkpt lat="41.91026659093486" lon="3.1593304365540145"><ele>40.5</ele><time>2026-04-22T08:52:06Z</time></trkpt><trkpt lat="41.91028250705276" lon="3.159224483115024"><ele>40.666666666666664</ele><time>2026-04-22T08:52:07Z</time></trkpt><trkpt lat="41.91029439616805" lon="3.159116415665622"><ele>40.83333333333333</ele><time>2026-04-22T08:52:08Z</time></trkpt><trkpt lat="41.91030709762222" lon="3.15900841980901"><ele>41.0</ele><time>2026-04-22T08:52:09Z</time></trkpt><trkpt lat="41.91032357217026" lon="3.158905082314607"><ele>41.0</ele><time>2026-04-22T08:52:10Z</time></trkpt><trkpt lat="41.91033888387979" lon="3.1588039409643165"><ele>41.0</ele><time>2026-04-22T08:52:11Z</time></trkpt><trkpt lat="41.91035168207209" lon="3.1587004200269506"><ele>41.0</ele><time>2026-04-22T08:52:12Z</time></trkpt><trkpt lat="41.91036482498528" lon="3.1585990913407063"><ele>41.0</ele><time>2026-04-22T08:52:13Z</time></trkpt><trkpt lat="41.910378996720226" lon="3.1585015305837336"><ele>41.0</ele><time>2026-04-22T08:52:14Z</time></trkpt><trkpt lat="41.91039314976398" lon="3.1584078358663965"><ele>41.0</ele><time>2026-04-22T08:52:15Z</time></trkpt><trkpt lat="41.910387787007835" lon="3.158301114395221"><ele>40.99999999999999</ele><time>2026-04-22T08:52:16Z</time></trkpt><trkpt lat="41.91040282229064" lon="3.1582062789671275"><ele>41.0</ele><time>2026-04-22T08:52:17Z</time></trkpt><trkpt lat="41.91041727489042" lon="3.1581086685247914"><ele>41.0</ele><time>2026-04-22T08:52:18Z</time></trkpt><trkpt lat="41.91043083425056" lon="3.1580097924395076"><ele>41.0</ele><time>2026-04-22T08:52:19Z</time></trkpt><trkpt lat="41.9104452586529" lon="3.157914103572811"><ele>41.0</ele><time>2026-04-22T08:52:20Z</time></trkpt><trkpt lat="41.91045768392724" lon="3.1578164979218246"><ele>40.99999999999999</ele><time>2026-04-22T08:52:21Z</time></trkpt><trkpt lat="41.91047000209536" lon="3.157716756296353"><ele>41.0</ele><time>2026-04-22T08:52:22Z</time></trkpt><trkpt lat="41.91048260292481" lon="3.157612790731339"><ele>41.166666666666664</ele><time>2026-04-22T08:52:23Z</time></trkpt><trkpt lat="41.910494257626134" lon="3.1575138602372324"><ele>41.33333333333333</ele><time>2026-04-22T08:52:24Z</time></trkpt><trkpt lat="41.91049078595518" lon="3.1574031586294744"><ele>41.5</ele><time>2026-04-22T08:52:25Z</time></trkpt><trkpt lat="41.91050424080784" lon="3.1573020252934523"><ele>41.666666666666664</ele><time>2026-04-22T08:52:26Z</time></trkpt><trkpt lat="41.9105171476172" lon="3.157200212519183"><ele>41.833333333333336</ele><time>2026-04-22T08:52:27Z</time></trkpt><trkpt lat="41.910529470044025" lon="3.1570934103628265"><ele>42.0</ele><time>2026-04-22T08:52:28Z</time></trkpt><trkpt lat="41.9105413227821" lon="3.156995988751705"><ele>42.333333333333336</ele><time>2026-04-22T08:52:29Z</time></trkpt><trkpt lat="41.910553887797754" lon="3.156900585161381"><ele>42.666666666666664</ele><time>2026-04-22T08:52:30Z</time></trkpt><trkpt lat="41.9105658848277" lon="3.156805604837418"><ele>43.0</ele><time>2026-04-22T08:52:31Z</time></trkpt><trkpt lat="41.91057797394696" lon="3.156712004039132"><ele>43.33333333333333</ele><time>2026-04-22T08:52:32Z</time></trkpt><trkpt lat="41.910589933881226" lon="3.1566169693833612"><ele>43.666666666666664</ele><time>2026-04-22T08:52:33Z</time></trkpt><trkpt lat="41.91059983087348" lon="3.156527373743961"><ele>44.0</ele><time>2026-04-22T08:52:34Z</time></trkpt><trkpt lat="41.91061732677489" lon="3.156369699520241"><ele>44.2</ele><time>2026-04-22T08:52:36Z</time></trkpt><trkpt lat="41.91063165551811" lon="3.1562236148305596"><ele>44.400000000000006</ele><time>2026-04-22T08:52:38Z</time></trkpt><trkpt lat="41.9106585798568" lon="3.156101581516947"><ele>44.6</ele><time>2026-04-22T08:52:40Z</time></trkpt><trkpt lat="41.91074628352739" lon="3.155993288852951"><ele>44.8</ele><time>2026-04-22T08:52:42Z</time></trkpt><trkpt lat="41.91080041621153" lon="3.155857656522741"><ele>45.0</ele><time>2026-04-22T08:52:44Z</time></trkpt><trkpt lat="41.91084703772773" lon="3.1557020659643906"><ele>45.666666666666664</ele><time>2026-04-22T08:52:46Z</time></trkpt><trkpt lat="41.91089508242995" lon="3.1556300006396527"><ele>46.33333333333333</ele><time>2026-04-22T08:52:47Z</time></trkpt><trkpt lat="41.91095238630987" lon="3.155559152383633"><ele>47.0</ele><time>2026-04-22T08:52:48Z</time></trkpt><trkpt lat="41.91101366684752" lon="3.155487530845708"><ele>47.666666666666664</ele><time>2026-04-22T08:52:49Z</time></trkpt><trkpt lat="41.911075447353824" lon="3.155416802390652"><ele>48.33333333333333</ele><time>2026-04-22T08:52:50Z</time></trkpt><trkpt lat="41.91114313257823" lon="3.1553451017756875"><ele>49.0</ele><time>2026-04-22T08:52:51Z</time></trkpt><trkpt lat="41.91121068204336" lon="3.155275342393411"><ele>49.57142857142857</ele><time>2026-04-22T08:52:52Z</time></trkpt><trkpt lat="41.91127598877889" lon="3.1552077598350117"><ele>50.14285714285714</ele><time>2026-04-22T08:52:53Z</time></trkpt><trkpt lat="41.911337087237555" lon="3.1551418278400183"><ele>50.714285714285715</ele><time>2026-04-22T08:52:54Z</time></trkpt><trkpt lat="41.911397373162096" lon="3.155079947408735"><ele>51.285714285714285</ele><time>2026-04-22T08:52:55Z</time></trkpt><trkpt lat="41.91145318307722" lon="3.1550219014688574"><ele>51.857142857142854</ele><time>2026-04-22T08:52:56Z</time></trkpt><trkpt lat="41.91150433483409" lon="3.154968091323737"><ele>52.42857142857143</ele><time>2026-04-22T08:52:57Z</time></trkpt><trkpt lat="41.91155559477294" lon="3.1549156863537298"><ele>53.0</ele><time>2026-04-22T08:52:58Z</time></trkpt><trkpt lat="41.911641605472624" lon="3.154827416653678"><ele>53.833333333333336</ele><time>2026-04-22T08:53:00Z</time></trkpt><trkpt lat="41.91169548060323" lon="3.154766835308577"><ele>54.66666666666667</ele><time>2026-04-22T08:53:02Z</time></trkpt><trkpt lat="41.91174518477159" lon="3.1547092986812473"><ele>55.5</ele><time>2026-04-22T08:53:06Z</time></trkpt><trkpt lat="41.91181530724142" lon="3.154638264941828"><ele>56.33333333333333</ele><time>2026-04-22T08:53:11Z</time></trkpt><trkpt lat="41.91188345692876" lon="3.154560554298918"><ele>57.166666666666664</ele><time>2026-04-22T08:53:13Z</time></trkpt><trkpt lat="41.91197621180612" lon="3.1544607792425117"><ele>58.0</ele><time>2026-04-22T08:53:15Z</time></trkpt><trkpt lat="41.912030518101076" lon="3.154399283673752"><ele>58.166666666666664</ele><time>2026-04-22T08:53:16Z</time></trkpt><trkpt lat="41.912089612566135" lon="3.1543317636905597"><ele>58.33333333333333</ele><time>2026-04-22T08:53:17Z</time></trkpt><trkpt lat="41.91215418829597" lon="3.1542637340679622"><ele>58.5</ele><time>2026-04-22T08:53:18Z</time></trkpt><trkpt lat="41.91221598326194" lon="3.154196437736401"><ele>58.66666666666667</ele><time>2026-04-22T08:53:19Z</time></trkpt><trkpt lat="41.912282389485235" lon="3.154130828738451"><ele>58.833333333333336</ele><time>2026-04-22T08:53:20Z</time></trkpt><trkpt lat="41.91235039121827" lon="3.154063111006522"><ele>59.0</ele><time>2026-04-22T08:53:21Z</time></trkpt><trkpt lat="41.91241181980314" lon="3.1539947065087515"><ele>59.16666666666667</ele><time>2026-04-22T08:53:22Z</time></trkpt><trkpt lat="41.91246988094708" lon="3.153931545618697"><ele>59.333333333333336</ele><time>2026-04-22T08:53:23Z</time></trkpt><trkpt lat="41.91252628627231" lon="3.153872433559448"><ele>59.5</ele><time>2026-04-22T08:53:24Z</time></trkpt><trkpt lat="41.91257900593792" lon="3.1538163603094582"><ele>59.66666666666667</ele><time>2026-04-22T08:53:25Z</time></trkpt><trkpt lat="41.912630699416866" lon="3.1537636786975916"><ele>59.833333333333336</ele><time>2026-04-22T08:53:26Z</time></trkpt><trkpt lat="41.91272336481501" lon="3.153664779316094"><ele>60.0</ele><time>2026-04-22T08:53:28Z</time></trkpt><trkpt lat="41.91279672009468" lon="3.1535875248869845"><ele>60.4</ele><time>2026-04-22T08:53:30Z</time></trkpt><trkpt lat="41.912877129162226" lon="3.15354379508821"><ele>60.8</ele><time>2026-04-22T08:53:32Z</time></trkpt><trkpt lat="41.91297793058119" lon="3.1535426608929136"><ele>61.2</ele><time>2026-04-22T08:53:34Z</time></trkpt><trkpt lat="41.91310095277125" lon="3.1535574695260347"><ele>61.6</ele><time>2026-04-22T08:53:36Z</time></trkpt><trkpt lat="41.913190252742645" lon="3.1534747954616824"><ele>62.0</ele><time>2026-04-22T08:53:38Z</time></trkpt><trkpt lat="41.91321429924883" lon="3.153330066397662"><ele>61.833333333333336</ele><time>2026-04-22T08:53:40Z</time></trkpt><trkpt lat="41.91316244813867" lon="3.1531744296733075"><ele>61.66666666666667</ele><time>2026-04-22T08:53:42Z</time></trkpt><trkpt lat="41.91311521135588" lon="3.153105060131995"><ele>61.5</ele><time>2026-04-22T08:53:43Z</time></trkpt><trkpt lat="41.91306756998689" lon="3.1530308949354167"><ele>61.33333333333333</ele><time>2026-04-22T08:53:44Z</time></trkpt><trkpt lat="41.91302453660785" lon="3.152934714312824"><ele>61.166666666666664</ele><time>2026-04-22T08:53:45Z</time></trkpt><trkpt lat="41.91298444474691" lon="3.1528220302060985"><ele>61.0</ele><time>2026-04-22T08:53:46Z</time></trkpt><trkpt lat="41.91294641542149" lon="3.1527094973492362"><ele>61.0</ele><time>2026-04-22T08:53:47Z</time></trkpt><trkpt lat="41.91290904098354" lon="3.1525966698779513"><ele>60.99999999999999</ele><time>2026-04-22T08:53:48Z</time></trkpt><trkpt lat="41.91287578439549" lon="3.1524779290446734"><ele>60.99999999999999</ele><time>2026-04-22T08:53:49Z</time></trkpt><trkpt lat="41.91284561987068" lon="3.152354026774498"><ele>61.0</ele><time>2026-04-22T08:53:50Z</time></trkpt><trkpt lat="41.912816672948026" lon="3.1522271154673414"><ele>61.0</ele><time>2026-04-22T08:53:51Z</time></trkpt><trkpt lat="41.91279062493171" lon="3.1521016728483984"><ele>60.83333333333333</ele><time>2026-04-22T08:53:52Z</time></trkpt><trkpt lat="41.91276936370634" lon="3.151984990497798"><ele>60.666666666666664</ele><time>2026-04-22T08:53:53Z</time></trkpt><trkpt lat="41.91275069038367" lon="3.151868764204291"><ele>60.5</ele><time>2026-04-22T08:53:54Z</time></trkpt><trkpt lat="41.912733162665646" lon="3.151750051844539"><ele>60.33333333333333</ele><time>2026-04-22T08:53:55Z</time></trkpt><trkpt lat="41.91271777982386" lon="3.151627460647814"><ele>60.166666666666664</ele><time>2026-04-22T08:53:56Z</time></trkpt><trkpt lat="41.912708084877785" lon="3.1515161078998415"><ele>60.0</ele><time>2026-04-22T08:53:57Z</time></trkpt><trkpt lat="41.91269729075997" lon="3.151405806432928"><ele>59.833333333333336</ele><time>2026-04-22T08:53:58Z</time></trkpt><trkpt lat="41.91268630346839" lon="3.151294945307708"><ele>59.66666666666667</ele><time>2026-04-22T08:53:59Z</time></trkpt><trkpt lat="41.91267435264003" lon="3.151181179478219"><ele>59.5</ele><time>2026-04-22T08:54:00Z</time></trkpt><trkpt lat="41.9126658402391" lon="3.1510661849149586"><ele>59.333333333333336</ele><time>2026-04-22T08:54:01Z</time></trkpt><trkpt lat="41.91265552972162" lon="3.150951152602451"><ele>59.16666666666667</ele><time>2026-04-22T08:54:02Z</time></trkpt><trkpt lat="41.912643795568606" lon="3.150836172922115"><ele>59.0</ele><time>2026-04-22T08:54:03Z</time></trkpt><trkpt lat="41.912633660888794" lon="3.1507199865147006"><ele>59.333333333333336</ele><time>2026-04-22T08:54:04Z</time></trkpt><trkpt lat="41.91262506881265" lon="3.150603537967891"><ele>59.66666666666667</ele><time>2026-04-22T08:54:05Z</time></trkpt><trkpt lat="41.91261502087357" lon="3.1504943085276875"><ele>60.0</ele><time>2026-04-22T08:54:06Z</time></trkpt><trkpt lat="41.91260234449455" lon="3.1503891887783637"><ele>60.33333333333333</ele><time>2026-04-22T08:54:07Z</time></trkpt><trkpt lat="41.91259072816895" lon="3.1502846693769424"><ele>60.666666666666664</ele><time>2026-04-22T08:54:08Z</time></trkpt><trkpt lat="41.91258046631976" lon="3.1501863298569956"><ele>61.0</ele><time>2026-04-22T08:54:09Z</time></trkpt><trkpt lat="41.91256715811062" lon="3.1500792704863345"><ele>60.83333333333333</ele><time>2026-04-22T08:54:10Z</time></trkpt><trkpt lat="41.91255412072894" lon="3.149969840828861"><ele>60.666666666666664</ele><time>2026-04-22T08:54:11Z</time></trkpt><trkpt lat="41.91254382919923" lon="3.1498607648192434"><ele>60.5</ele><time>2026-04-22T08:54:12Z</time></trkpt><trkpt lat="41.91252897748531" lon="3.1497470291437404"><ele>60.33333333333333</ele><time>2026-04-22T08:54:13Z</time></trkpt><trkpt lat="41.91251648250771" lon="3.1496388512667273"><ele>60.166666666666664</ele><time>2026-04-22T08:54:14Z</time></trkpt><trkpt lat="41.912505286519945" lon="3.149527718458462"><ele>60.0</ele><time>2026-04-22T08:54:15Z</time></trkpt><trkpt lat="41.91249013850708" lon="3.1494122281279227"><ele>60.0</ele><time>2026-04-22T08:54:16Z</time></trkpt><trkpt lat="41.91247799446205" lon="3.1492918198852"><ele>60.0</ele><time>2026-04-22T08:54:17Z</time></trkpt><trkpt lat="41.912463695055145" lon="3.14916722881208"><ele>60.0</ele><time>2026-04-22T08:54:18Z</time></trkpt><trkpt lat="41.912449921953765" lon="3.149052033731754"><ele>60.0</ele><time>2026-04-22T08:54:19Z</time></trkpt><trkpt lat="41.91243618375228" lon="3.1489309703508703"><ele>60.0</ele><time>2026-04-22T08:54:20Z</time></trkpt><trkpt lat="41.91242192291187" lon="3.148807465931512"><ele>60.333333333333336</ele><time>2026-04-22T08:54:21Z</time></trkpt><trkpt lat="41.91240970843307" lon="3.1486862666646362"><ele>60.66666666666667</ele><time>2026-04-22T08:54:22Z</time></trkpt><trkpt lat="41.91239494698514" lon="3.1485677391387856"><ele>61.0</ele><time>2026-04-22T08:54:23Z</time></trkpt><trkpt lat="41.912382136615484" lon="3.1484518318464523"><ele>61.333333333333336</ele><time>2026-04-22T08:54:24Z</time></trkpt><trkpt lat="41.912367427479545" lon="3.148336472937155"><ele>61.66666666666667</ele><time>2026-04-22T08:54:25Z</time></trkpt><trkpt lat="41.912353531435926" lon="3.148223892039159"><ele>62.0</ele><time>2026-04-22T08:54:26Z</time></trkpt><trkpt lat="41.912340455988684" lon="3.1481232694211756"><ele>62.333333333333336</ele><time>2026-04-22T08:54:27Z</time></trkpt><trkpt lat="41.912328424919195" lon="3.1480320114999105"><ele>62.66666666666667</ele><time>2026-04-22T08:54:28Z</time></trkpt><trkpt lat="41.912318694112315" lon="3.1479474236535743"><ele>63.0</ele><time>2026-04-22T08:54:29Z</time></trkpt><trkpt lat="41.912309510198405" lon="3.147804756009273"><ele>63.33333333333333</ele><time>2026-04-22T08:54:31Z</time></trkpt><trkpt lat="41.912358584489915" lon="3.1476706267045436"><ele>63.666666666666664</ele><time>2026-04-22T08:54:33Z</time></trkpt><trkpt lat="41.912409810561385" lon="3.1476183185027446"><ele>64.0</ele><time>2026-04-22T08:54:34Z</time></trkpt><trkpt lat="41.912473295269805" lon="3.1475840462648055"><ele>63.99999999999999</ele><time>2026-04-22T08:54:35Z</time></trkpt><trkpt lat="41.912548076215145" lon="3.147561695882667"><ele>64.0</ele><time>2026-04-22T08:54:36Z</time></trkpt><trkpt lat="41.91262851850682" lon="3.147554679651164"><ele>64.0</ele><time>2026-04-22T08:54:37Z</time></trkpt><trkpt lat="41.912715241559674" lon="3.1475571052218374"><ele>64.0</ele><time>2026-04-22T08:54:38Z</time></trkpt><trkpt lat="41.91280416507186" lon="3.1475674053825498"><ele>63.99999999999999</ele><time>2026-04-22T08:54:39Z</time></trkpt><trkpt lat="41.91289470490269" lon="3.1475771368674774"><ele>64.0</ele><time>2026-04-22T08:54:40Z</time></trkpt><trkpt lat="41.9129917131708" lon="3.1475862464802575"><ele>64.60000000000001</ele><time>2026-04-22T08:54:41Z</time></trkpt><trkpt lat="41.913091649215815" lon="3.147590959290422"><ele>65.2</ele><time>2026-04-22T08:54:42Z</time></trkpt><trkpt lat="41.913192513133566" lon="3.147591470154535"><ele>65.80000000000001</ele><time>2026-04-22T08:54:43Z</time></trkpt><trkpt lat="41.913292786678404" lon="3.1475845710668167"><ele>66.4</ele><time>2026-04-22T08:54:44Z</time></trkpt><trkpt lat="41.913389107042725" lon="3.1475716375070286"><ele>67.0</ele><time>2026-04-22T08:54:45Z</time></trkpt><trkpt lat="41.91348632317165" lon="3.147554689667863"><ele>68.25</ele><time>2026-04-22T08:54:46Z</time></trkpt><trkpt lat="41.91358603535512" lon="3.1475337243373445"><ele>69.5</ele><time>2026-04-22T08:54:47Z</time></trkpt><trkpt lat="41.91369171583761" lon="3.147506045224099"><ele>70.75</ele><time>2026-04-22T08:54:48Z</time></trkpt><trkpt lat="41.9138068726049" lon="3.1474744037166067"><ele>72.0</ele><time>2026-04-22T08:54:49Z</time></trkpt><trkpt lat="41.913934629292406" lon="3.147436784240139"><ele>72.0</ele><time>2026-04-22T08:54:50Z</time></trkpt><trkpt lat="41.914072708289005" lon="3.147394733952417"><ele>72.0</ele><time>2026-04-22T08:54:51Z</time></trkpt><trkpt lat="41.91421308141089" lon="3.1473522393165956"><ele>72.0</ele><time>2026-04-22T08:54:52Z</time></trkpt><trkpt lat="41.914361127113274" lon="3.147328116035839"><ele>72.0</ele><time>2026-04-22T08:54:53Z</time></trkpt><trkpt lat="41.91450941170233" lon="3.147278746200561"><ele>73.33333333333333</ele><time>2026-04-22T08:54:54Z</time></trkpt><trkpt lat="41.914661695899866" lon="3.1472249865848836"><ele>74.66666666666666</ele><time>2026-04-22T08:54:55Z</time></trkpt><trkpt lat="41.91481679170219" lon="3.1471692455028903"><ele>76.0</ele><time>2026-04-22T08:54:56Z</time></trkpt><trkpt lat="41.91497441618177" lon="3.1471128541761155"><ele>77.66666666666666</ele><time>2026-04-22T08:54:57Z</time></trkpt><trkpt lat="41.9151332531811" lon="3.1470571609278633"><ele>79.33333333333333</ele><time>2026-04-22T08:54:58Z</time></trkpt><trkpt lat="41.915298306194984" lon="3.1470271979106546"><ele>81.0</ele><time>2026-04-22T08:54:59Z</time></trkpt><trkpt lat="41.91545557178876" lon="3.1469517416795627"><ele>81.0</ele><time>2026-04-22T08:55:00Z</time></trkpt><trkpt lat="41.91561221012046" lon="3.1469050364198647"><ele>81.0</ele><time>2026-04-22T08:55:01Z</time></trkpt><trkpt lat="41.91576513173719" lon="3.1468594816009965"><ele>81.0</ele><time>2026-04-22T08:55:02Z</time></trkpt><trkpt lat="41.91591427666737" lon="3.1468172871711264"><ele>81.66666666666667</ele><time>2026-04-22T08:55:03Z</time></trkpt><trkpt lat="41.91606434618694" lon="3.14677560474288"><ele>82.33333333333334</ele><time>2026-04-22T08:55:04Z</time></trkpt><trkpt lat="41.91621762124144" lon="3.1467318597871032"><ele>83.0</ele><time>2026-04-22T08:55:05Z</time></trkpt><trkpt lat="41.91637353652038" lon="3.146686042690145"><ele>83.0</ele><time>2026-04-22T08:55:06Z</time></trkpt><trkpt lat="41.91652980287371" lon="3.1466368023140103"><ele>83.0</ele><time>2026-04-22T08:55:07Z</time></trkpt><trkpt lat="41.91668859266006" lon="3.1465869133709328"><ele>83.0</ele><time>2026-04-22T08:55:08Z</time></trkpt><trkpt lat="41.916847365716364" lon="3.1465381530642955"><ele>84.0</ele><time>2026-04-22T08:55:09Z</time></trkpt><trkpt lat="41.917007270448515" lon="3.1464923477616757"><ele>85.0</ele><time>2026-04-22T08:55:10Z</time></trkpt><trkpt lat="41.917173273793914" lon="3.1464528704552523"><ele>86.0</ele><time>2026-04-22T08:55:11Z</time></trkpt><trkpt lat="41.91733794224621" lon="3.146410108386471"><ele>86.0</ele><time>2026-04-22T08:55:12Z</time></trkpt><trkpt lat="41.917505198706976" lon="3.14636618428492"><ele>86.0</ele><time>2026-04-22T08:55:13Z</time></trkpt><trkpt lat="41.917671981686986" lon="3.1463198298597908"><ele>86.0</ele><time>2026-04-22T08:55:14Z</time></trkpt><trkpt lat="41.917840842036505" lon="3.146274341113167"><ele>86.33333333333334</ele><time>2026-04-22T08:55:15Z</time></trkpt><trkpt lat="41.91801057603091" lon="3.1462276707291426"><ele>86.66666666666667</ele><time>2026-04-22T08:55:16Z</time></trkpt><trkpt lat="41.91818551775094" lon="3.146179590796083"><ele>87.0</ele><time>2026-04-22T08:55:17Z</time></trkpt><trkpt lat="41.91836993987635" lon="3.1461278795954235"><ele>86.0</ele><time>2026-04-22T08:55:18Z</time></trkpt><trkpt lat="41.91855304847867" lon="3.1460742466621276"><ele>85.0</ele><time>2026-04-22T08:55:19Z</time></trkpt><trkpt lat="41.91873785726337" lon="3.1460160580894967"><ele>84.0</ele><time>2026-04-22T08:55:20Z</time></trkpt><trkpt lat="41.91892781552212" lon="3.1459581796803104"><ele>84.0</ele><time>2026-04-22T08:55:21Z</time></trkpt><trkpt lat="41.91911808542098" lon="3.1458985697237223"><ele>84.0</ele><time>2026-04-22T08:55:22Z</time></trkpt><trkpt lat="41.91930962778273" lon="3.1458384630188148"><ele>84.0</ele><time>2026-04-22T08:55:23Z</time></trkpt><trkpt lat="41.91950303619458" lon="3.1457774011011157"><ele>84.0</ele><time>2026-04-22T08:55:24Z</time></trkpt><trkpt lat="41.919694822103715" lon="3.145715309185207"><ele>84.0</ele><time>2026-04-22T08:55:25Z</time></trkpt><trkpt lat="41.91988386722916" lon="3.1456516824112333"><ele>84.0</ele><time>2026-04-22T08:55:26Z</time></trkpt><trkpt lat="41.920072098769474" lon="3.145590384961833"><ele>83.66666666666667</ele><time>2026-04-22T08:55:27Z</time></trkpt><trkpt lat="41.92025626654252" lon="3.1455286085198937"><ele>83.33333333333334</ele><time>2026-04-22T08:55:28Z</time></trkpt><trkpt lat="41.92043588551927" lon="3.1454617564333147"><ele>83.0</ele><time>2026-04-22T08:55:29Z</time></trkpt><trkpt lat="41.92061287528559" lon="3.145397924033253"><ele>83.0</ele><time>2026-04-22T08:55:30Z</time></trkpt><trkpt lat="41.9207888745004" lon="3.145332917325675"><ele>83.0</ele><time>2026-04-22T08:55:31Z</time></trkpt><trkpt lat="41.9209616333971" lon="3.1452716835753507"><ele>83.0</ele><time>2026-04-22T08:55:32Z</time></trkpt><trkpt lat="41.92113406657854" lon="3.145212081693212"><ele>80.66666666666667</ele><time>2026-04-22T08:55:33Z</time></trkpt><trkpt lat="41.921303017426446" lon="3.145151882710612"><ele>78.33333333333333</ele><time>2026-04-22T08:55:34Z</time></trkpt><trkpt lat="41.92146885953022" lon="3.1450927028468896"><ele>76.0</ele><time>2026-04-22T08:55:35Z</time></trkpt><trkpt lat="41.92162959663809" lon="3.145034275258832"><ele>76.0</ele><time>2026-04-22T08:55:36Z</time></trkpt><trkpt lat="41.92178956233764" lon="3.1449757688392426"><ele>76.0</ele><time>2026-04-22T08:55:37Z</time></trkpt><trkpt lat="41.92195065654244" lon="3.144918775560521"><ele>76.0</ele><time>2026-04-22T08:55:38Z</time></trkpt><trkpt lat="41.92211479509989" lon="3.144859088348317"><ele>76.0</ele><time>2026-04-22T08:55:39Z</time></trkpt><trkpt lat="41.922282443454236" lon="3.144799097148816"><ele>76.0</ele><time>2026-04-22T08:55:40Z</time></trkpt><trkpt lat="41.922451513917096" lon="3.144737571540608"><ele>76.0</ele><time>2026-04-22T08:55:41Z</time></trkpt><trkpt lat="41.922620957332" lon="3.1446773864924906"><ele>75.33333333333333</ele><time>2026-04-22T08:55:42Z</time></trkpt><trkpt lat="41.92278928439717" lon="3.1446166899732835"><ele>74.66666666666667</ele><time>2026-04-22T08:55:43Z</time></trkpt><trkpt lat="41.922953627995824" lon="3.1445583039423632"><ele>74.0</ele><time>2026-04-22T08:55:44Z</time></trkpt><trkpt lat="41.92311472085675" lon="3.1444980915789307"><ele>74.0</ele><time>2026-04-22T08:55:45Z</time></trkpt><trkpt lat="41.92327333815843" lon="3.1444404187836446"><ele>74.0</ele><time>2026-04-22T08:55:46Z</time></trkpt><trkpt lat="41.923429645688486" lon="3.144384536626075"><ele>74.0</ele><time>2026-04-22T08:55:47Z</time></trkpt><trkpt lat="41.92358250659148" lon="3.144329883752181"><ele>73.33333333333334</ele><time>2026-04-22T08:55:48Z</time></trkpt><trkpt lat="41.92373469234127" lon="3.1442731763584915"><ele>72.66666666666667</ele><time>2026-04-22T08:55:49Z</time></trkpt><trkpt lat="41.92388908218607" lon="3.1442201713855824"><ele>72.0</ele><time>2026-04-22T08:55:50Z</time></trkpt><trkpt lat="41.92404265414745" lon="3.1441655886736957"><ele>72.0</ele><time>2026-04-22T08:55:51Z</time></trkpt><trkpt lat="41.92419578139913" lon="3.144111070504965"><ele>72.0</ele><time>2026-04-22T08:55:52Z</time></trkpt><trkpt lat="41.92434545627405" lon="3.1440590296490734"><ele>72.0</ele><time>2026-04-22T08:55:53Z</time></trkpt><trkpt lat="41.92449394713741" lon="3.1440058780261197"><ele>73.33333333333333</ele><time>2026-04-22T08:55:54Z</time></trkpt><trkpt lat="41.924643488452936" lon="3.143954048156403"><ele>74.66666666666666</ele><time>2026-04-22T08:55:55Z</time></trkpt><trkpt lat="41.92479496264593" lon="3.143900976174559"><ele>76.0</ele><time>2026-04-22T08:55:56Z</time></trkpt><trkpt lat="41.92494610266635" lon="3.1438461063743683"><ele>74.25</ele><time>2026-04-22T08:55:57Z</time></trkpt><trkpt lat="41.92509539890141" lon="3.143791993932675"><ele>72.5</ele><time>2026-04-22T08:55:58Z</time></trkpt><trkpt lat="41.92523557055883" lon="3.143740687694248"><ele>70.75</ele><time>2026-04-22T08:55:59Z</time></trkpt><trkpt lat="41.925372556142406" lon="3.1436912855449592"><ele>69.0</ele><time>2026-04-22T08:56:00Z</time></trkpt><trkpt lat="41.9255038627728" lon="3.1436418913856414"><ele>69.0</ele><time>2026-04-22T08:56:01Z</time></trkpt><trkpt lat="41.92563364068652" lon="3.143592008660829"><ele>69.0</ele><time>2026-04-22T08:56:02Z</time></trkpt><trkpt lat="41.92576525098391" lon="3.1435442562774156"><ele>69.0</ele><time>2026-04-22T08:56:03Z</time></trkpt><trkpt lat="41.92589202425018" lon="3.1434954792765955"><ele>69.0</ele><time>2026-04-22T08:56:04Z</time></trkpt><trkpt lat="41.92601819706611" lon="3.143447260935394"><ele>66.75</ele><time>2026-04-22T08:56:05Z</time></trkpt><trkpt lat="41.92614404819693" lon="3.1433990804743313"><ele>64.5</ele><time>2026-04-22T08:56:06Z</time></trkpt><trkpt lat="41.92626995997113" lon="3.143353632425426"><ele>62.25</ele><time>2026-04-22T08:56:07Z</time></trkpt><trkpt lat="41.926394226650764" lon="3.1433084786972656"><ele>60.0</ele><time>2026-04-22T08:56:08Z</time></trkpt><trkpt lat="41.926518514052624" lon="3.143261656620373"><ele>60.25</ele><time>2026-04-22T08:56:09Z</time></trkpt><trkpt lat="41.92664102453496" lon="3.1432139272368516"><ele>60.5</ele><time>2026-04-22T08:56:10Z</time></trkpt><trkpt lat="41.92676332093292" lon="3.1431677219328265"><ele>60.75</ele><time>2026-04-22T08:56:11Z</time></trkpt><trkpt lat="41.9268866517705" lon="3.1431197405274385"><ele>61.0</ele><time>2026-04-22T08:56:12Z</time></trkpt><trkpt lat="41.927008164671335" lon="3.1430724499671974"><ele>61.0</ele><time>2026-04-22T08:56:13Z</time></trkpt><trkpt lat="41.92712852140187" lon="3.1430232986274462"><ele>61.0</ele><time>2026-04-22T08:56:14Z</time></trkpt><trkpt lat="41.927244308048344" lon="3.142973785217248"><ele>61.0</ele><time>2026-04-22T08:56:15Z</time></trkpt><trkpt lat="41.92735677811725" lon="3.1429280728234095"><ele>61.0</ele><time>2026-04-22T08:56:16Z</time></trkpt><trkpt lat="41.92746602858938" lon="3.142883822706884"><ele>60.49999999999999</ele><time>2026-04-22T08:56:17Z</time></trkpt><trkpt lat="41.92756920983311" lon="3.142841038230862"><ele>60.0</ele><time>2026-04-22T08:56:18Z</time></trkpt><trkpt lat="41.92766297292304" lon="3.1427974156909895"><ele>59.5</ele><time>2026-04-22T08:56:19Z</time></trkpt><trkpt lat="41.92774535519291" lon="3.142760313981805"><ele>59.0</ele><time>2026-04-22T08:56:20Z</time></trkpt><trkpt lat="41.92782100746439" lon="3.14272625209691"><ele>58.49999999999999</ele><time>2026-04-22T08:56:21Z</time></trkpt><trkpt lat="41.927884821430254" lon="3.1426944754074575"><ele>58.0</ele><time>2026-04-22T08:56:22Z</time></trkpt><trkpt lat="41.92798855387072" lon="3.142635357623848"><ele>58.0</ele><time>2026-04-22T08:56:24Z</time></trkpt><trkpt lat="41.92808328809071" lon="3.142610367480715"><ele>58.0</ele><time>2026-04-22T08:56:26Z</time></trkpt><trkpt lat="41.92816349188557" lon="3.1425857205024235"><ele>58.0</ele><time>2026-04-22T08:56:28Z</time></trkpt><trkpt lat="41.92824882727703" lon="3.142594048920298"><ele>58.0</ele><time>2026-04-22T08:56:30Z</time></trkpt><trkpt lat="41.92832969966007" lon="3.142664541950036"><ele>58.0</ele><time>2026-04-22T08:56:32Z</time></trkpt><trkpt lat="41.928416860865106" lon="3.1427167524152115"><ele>57.599999999999994</ele><time>2026-04-22T08:56:34Z</time></trkpt><trkpt lat="41.928514538705144" lon="3.1426874161505194"><ele>57.199999999999996</ele><time>2026-04-22T08:56:36Z</time></trkpt><trkpt lat="41.928570052363206" lon="3.1425735735787708"><ele>56.8</ele><time>2026-04-22T08:56:38Z</time></trkpt><trkpt lat="41.928558137177404" lon="3.1424263928448823"><ele>56.4</ele><time>2026-04-22T08:56:40Z</time></trkpt><trkpt lat="41.92857512756272" lon="3.1422632756938307"><ele>56.0</ele><time>2026-04-22T08:56:42Z</time></trkpt><trkpt lat="41.92865661402664" lon="3.1421397941123743"><ele>56.00000000000001</ele><time>2026-04-22T08:56:44Z</time></trkpt><trkpt lat="41.92871670624108" lon="3.1420803288424413"><ele>56.0</ele><time>2026-04-22T08:56:45Z</time></trkpt><trkpt lat="41.92877706373711" lon="3.142008679447473"><ele>56.0</ele><time>2026-04-22T08:56:46Z</time></trkpt><trkpt lat="41.92883353005057" lon="3.1419351552821926"><ele>56.0</ele><time>2026-04-22T08:56:47Z</time></trkpt><trkpt lat="41.92889413369067" lon="3.1418545662399247"><ele>56.00000000000001</ele><time>2026-04-22T08:56:48Z</time></trkpt><trkpt lat="41.928954990129256" lon="3.1417754044455983"><ele>56.0</ele><time>2026-04-22T08:56:49Z</time></trkpt><trkpt lat="41.92901708872773" lon="3.1416922474003957"><ele>56.0</ele><time>2026-04-22T08:56:50Z</time></trkpt><trkpt lat="41.92907707137324" lon="3.1416083504139998"><ele>55.99999999999999</ele><time>2026-04-22T08:56:51Z</time></trkpt><trkpt lat="41.92913937597744" lon="3.141524589910711"><ele>55.99999999999999</ele><time>2026-04-22T08:56:52Z</time></trkpt><trkpt lat="41.92920250190034" lon="3.141441992247256"><ele>56.0</ele><time>2026-04-22T08:56:53Z</time></trkpt><trkpt lat="41.929266412168325" lon="3.1413601086356873"><ele>56.0</ele><time>2026-04-22T08:56:54Z</time></trkpt><trkpt lat="41.92933853316548" lon="3.14126633378514"><ele>55.8</ele><time>2026-04-22T08:56:55Z</time></trkpt><trkpt lat="41.92939765326971" lon="3.141174247480234"><ele>55.599999999999994</ele><time>2026-04-22T08:56:56Z</time></trkpt><trkpt lat="41.929467218479054" lon="3.1411024531626794"><ele>55.4</ele><time>2026-04-22T08:56:57Z</time></trkpt><trkpt lat="41.92953294278446" lon="3.1410175106107334"><ele>55.2</ele><time>2026-04-22T08:56:58Z</time></trkpt><trkpt lat="41.92960062850855" lon="3.1409340490036803"><ele>55.0</ele><time>2026-04-22T08:56:59Z</time></trkpt><trkpt lat="41.92974560964861" lon="3.140758223829649"><ele>55.0</ele><time>2026-04-22T08:57:01Z</time></trkpt><trkpt lat="41.92981735821127" lon="3.1406740612606674"><ele>55.0</ele><time>2026-04-22T08:57:02Z</time></trkpt><trkpt lat="41.92988717133439" lon="3.14059475188977"><ele>55.0</ele><time>2026-04-22T08:57:03Z</time></trkpt><trkpt lat="41.929957118973334" lon="3.140511100228801"><ele>55.0</ele><time>2026-04-22T08:57:04Z</time></trkpt><trkpt lat="41.93002947029225" lon="3.1404223089515955"><ele>55.0</ele><time>2026-04-22T08:57:05Z</time></trkpt><trkpt lat="41.930108743728546" lon="3.140326305264496"><ele>55.25</ele><time>2026-04-22T08:57:06Z</time></trkpt><trkpt lat="41.930185351241924" lon="3.1402429528091047"><ele>55.5</ele><time>2026-04-22T08:57:07Z</time></trkpt><trkpt lat="41.93027622786321" lon="3.140136943769409"><ele>55.75</ele><time>2026-04-22T08:57:08Z</time></trkpt><trkpt lat="41.93037254301521" lon="3.140026300643506"><ele>56.0</ele><time>2026-04-22T08:57:09Z</time></trkpt><trkpt lat="41.930462619175856" lon="3.1399191815571528"><ele>56.0</ele><time>2026-04-22T08:57:10Z</time></trkpt><trkpt lat="41.930552658518614" lon="3.1398116936453353"><ele>56.0</ele><time>2026-04-22T08:57:11Z</time></trkpt><trkpt lat="41.930646835671574" lon="3.139702288606124"><ele>56.0</ele><time>2026-04-22T08:57:12Z</time></trkpt><trkpt lat="41.930737825179854" lon="3.1395980014017493"><ele>56.0</ele><time>2026-04-22T08:57:13Z</time></trkpt><trkpt lat="41.93082206147957" lon="3.1394995421494425"><ele>55.8</ele><time>2026-04-22T08:57:14Z</time></trkpt><trkpt lat="41.93090652450591" lon="3.139403692125171"><ele>55.599999999999994</ele><time>2026-04-22T08:57:15Z</time></trkpt><trkpt lat="41.93098554419584" lon="3.139309856614325"><ele>55.4</ele><time>2026-04-22T08:57:16Z</time></trkpt><trkpt lat="41.931070817418615" lon="3.1392125923934344"><ele>55.2</ele><time>2026-04-22T08:57:17Z</time></trkpt><trkpt lat="41.931157267380534" lon="3.1391164421904345"><ele>55.0</ele><time>2026-04-22T08:57:18Z</time></trkpt><trkpt lat="41.93124748319323" lon="3.1390114082225855"><ele>55.4</ele><time>2026-04-22T08:57:19Z</time></trkpt><trkpt lat="41.93133796127056" lon="3.1389084333965327"><ele>55.8</ele><time>2026-04-22T08:57:20Z</time></trkpt><trkpt lat="41.931422275633416" lon="3.13880866564673"><ele>56.2</ele><time>2026-04-22T08:57:21Z</time></trkpt><trkpt lat="41.93150416887043" lon="3.1387142937519195"><ele>56.6</ele><time>2026-04-22T08:57:22Z</time></trkpt><trkpt lat="41.931584195129176" lon="3.138622493630067"><ele>57.0</ele><time>2026-04-22T08:57:23Z</time></trkpt><trkpt lat="41.931664373073446" lon="3.138528811641399"><ele>57.2</ele><time>2026-04-22T08:57:24Z</time></trkpt><trkpt lat="41.93174014129133" lon="3.1384396052758863"><ele>57.400000000000006</ele><time>2026-04-22T08:57:25Z</time></trkpt><trkpt lat="41.93181938528296" lon="3.1383517347618968"><ele>57.599999999999994</ele><time>2026-04-22T08:57:26Z</time></trkpt><trkpt lat="41.93189386383112" lon="3.138266447224805"><ele>57.8</ele><time>2026-04-22T08:57:27Z</time></trkpt><trkpt lat="41.93197041452778" lon="3.1381849733338676"><ele>58.0</ele><time>2026-04-22T08:57:28Z</time></trkpt><trkpt lat="41.93204397606598" lon="3.1381067177367847"><ele>58.166666666666664</ele><time>2026-04-22T08:57:29Z</time></trkpt><trkpt lat="41.93211836650106" lon="3.1380316826472043"><ele>58.33333333333333</ele><time>2026-04-22T08:57:30Z</time></trkpt><trkpt lat="41.932186638229524" lon="3.137958952857958"><ele>58.5</ele><time>2026-04-22T08:57:31Z</time></trkpt><trkpt lat="41.93225267735866" lon="3.1378942338324367"><ele>58.66666666666667</ele><time>2026-04-22T08:57:32Z</time></trkpt><trkpt lat="41.93232294894864" lon="3.1378425858919545"><ele>58.833333333333336</ele><time>2026-04-22T08:57:33Z</time></trkpt><trkpt lat="41.93239810964409" lon="3.137829409376791"><ele>59.0</ele><time>2026-04-22T08:57:34Z</time></trkpt><trkpt lat="41.93247478563077" lon="3.137815746718674"><ele>59.00000000000001</ele><time>2026-04-22T08:57:35Z</time></trkpt><trkpt lat="41.93254273927188" lon="3.137765069019047"><ele>59.0</ele><time>2026-04-22T08:57:36Z</time></trkpt><trkpt lat="41.93258818904537" lon="3.1376764320452524"><ele>59.0</ele><time>2026-04-22T08:57:37Z</time></trkpt><trkpt lat="41.93261275790898" lon="3.137566745462405"><ele>59.0</ele><time>2026-04-22T08:57:38Z</time></trkpt><trkpt lat="41.93264115099383" lon="3.1374598462041874"><ele>59.00000000000001</ele><time>2026-04-22T08:57:39Z</time></trkpt><trkpt lat="41.93268818522962" lon="3.137355963281306"><ele>59.0</ele><time>2026-04-22T08:57:40Z</time></trkpt><trkpt lat="41.93275544776844" lon="3.1372590510778635"><ele>59.0</ele><time>2026-04-22T08:57:41Z</time></trkpt><trkpt lat="41.93283968057447" lon="3.137167145690911"><ele>59.00000000000001</ele><time>2026-04-22T08:57:42Z</time></trkpt><trkpt lat="41.932924396893455" lon="3.1370680888092544"><ele>59.00000000000001</ele><time>2026-04-22T08:57:43Z</time></trkpt><trkpt lat="41.933010513826474" lon="3.1369728800179892"><ele>59.0</ele><time>2026-04-22T08:57:44Z</time></trkpt><trkpt lat="41.93309369618604" lon="3.1368762161030537"><ele>59.0</ele><time>2026-04-22T08:57:45Z</time></trkpt><trkpt lat="41.93317856758032" lon="3.136779939813499"><ele>59.0</ele><time>2026-04-22T08:57:46Z</time></trkpt><trkpt lat="41.93326217771154" lon="3.136683578997911"><ele>59.00000000000001</ele><time>2026-04-22T08:57:47Z</time></trkpt><trkpt lat="41.93334689800669" lon="3.13658710826229"><ele>59.00000000000001</ele><time>2026-04-22T08:57:48Z</time></trkpt><trkpt lat="41.93342798707105" lon="3.136491078723775"><ele>59.0</ele><time>2026-04-22T08:57:49Z</time></trkpt><trkpt lat="41.933511488003454" lon="3.1363974162994075"><ele>59.0</ele><time>2026-04-22T08:57:50Z</time></trkpt><trkpt lat="41.93359223332587" lon="3.1363022644436773"><ele>58.6</ele><time>2026-04-22T08:57:51Z</time></trkpt><trkpt lat="41.933669034226924" lon="3.1362097656059027"><ele>58.2</ele><time>2026-04-22T08:57:52Z</time></trkpt><trkpt lat="41.933750310725095" lon="3.1361172179688253"><ele>57.800000000000004</ele><time>2026-04-22T08:57:53Z</time></trkpt><trkpt lat="41.93382892103066" lon="3.1360240725866086"><ele>57.400000000000006</ele><time>2026-04-22T08:57:54Z</time></trkpt><trkpt lat="41.9339113575042" lon="3.1359296139796875"><ele>57.0</ele><time>2026-04-22T08:57:55Z</time></trkpt><trkpt lat="41.93399363552292" lon="3.1358368897977655"><ele>57.0</ele><time>2026-04-22T08:57:56Z</time></trkpt><trkpt lat="41.934074054450825" lon="3.1357443577319426"><ele>57.0</ele><time>2026-04-22T08:57:57Z</time></trkpt><trkpt lat="41.934150597367825" lon="3.1356514227908603"><ele>57.0</ele><time>2026-04-22T08:57:58Z</time></trkpt><trkpt lat="41.93422875681459" lon="3.1355577784574975"><ele>57.0</ele><time>2026-04-22T08:57:59Z</time></trkpt><trkpt lat="41.93431134322383" lon="3.1354622008615025"><ele>57.0</ele><time>2026-04-22T08:58:00Z</time></trkpt><trkpt lat="41.93439591959967" lon="3.1353662880351627"><ele>56.75</ele><time>2026-04-22T08:58:01Z</time></trkpt><trkpt lat="41.93447914189075" lon="3.135267135670705"><ele>56.5</ele><time>2026-04-22T08:58:02Z</time></trkpt><trkpt lat="41.93456595743668" lon="3.1351659457730614"><ele>56.25</ele><time>2026-04-22T08:58:03Z</time></trkpt><trkpt lat="41.93465291734263" lon="3.1350630771606407"><ele>56.0</ele><time>2026-04-22T08:58:04Z</time></trkpt><trkpt lat="41.9347402649357" lon="3.1349615332807055"><ele>56.25</ele><time>2026-04-22T08:58:05Z</time></trkpt><trkpt lat="41.934825760737056" lon="3.1348592550257766"><ele>56.5</ele><time>2026-04-22T08:58:06Z</time></trkpt><trkpt lat="41.93491350112754" lon="3.134757637155929"><ele>56.75</ele><time>2026-04-22T08:58:07Z</time></trkpt><trkpt lat="41.9349974750995" lon="3.1346594337080775"><ele>57.0</ele><time>2026-04-22T08:58:08Z</time></trkpt><trkpt lat="41.935079350532845" lon="3.1345645702084375"><ele>56.6</ele><time>2026-04-22T08:58:09Z</time></trkpt><trkpt lat="41.93516106532732" lon="3.1344694932891657"><ele>56.2</ele><time>2026-04-22T08:58:10Z</time></trkpt><trkpt lat="41.935242499896724" lon="3.134375143071929"><ele>55.8</ele><time>2026-04-22T08:58:11Z</time></trkpt><trkpt lat="41.93532272855086" lon="3.134281650174844"><ele>55.4</ele><time>2026-04-22T08:58:12Z</time></trkpt><trkpt lat="41.935402558821714" lon="3.1341908730448655"><ele>55.0</ele><time>2026-04-22T08:58:13Z</time></trkpt><trkpt lat="41.93547988656151" lon="3.1341015343006524"><ele>55.6</ele><time>2026-04-22T08:58:14Z</time></trkpt><trkpt lat="41.93555765076034" lon="3.1340133840822495"><ele>56.2</ele><time>2026-04-22T08:58:15Z</time></trkpt><trkpt lat="41.935633663396615" lon="3.1339253085907686"><ele>56.8</ele><time>2026-04-22T08:58:16Z</time></trkpt><trkpt lat="41.935708519677185" lon="3.1338366801279673"><ele>57.4</ele><time>2026-04-22T08:58:17Z</time></trkpt><trkpt lat="41.935788369837596" lon="3.1337443603015847"><ele>58.0</ele><time>2026-04-22T08:58:18Z</time></trkpt><trkpt lat="41.93586599181338" lon="3.133657374140217"><ele>58.0</ele><time>2026-04-22T08:58:19Z</time></trkpt><trkpt lat="41.935941098495846" lon="3.1335728636838542"><ele>58.0</ele><time>2026-04-22T08:58:20Z</time></trkpt><trkpt lat="41.9360171432169" lon="3.1334855700456017"><ele>58.0</ele><time>2026-04-22T08:58:21Z</time></trkpt><trkpt lat="41.93609293429525" lon="3.133399212513751"><ele>58.0</ele><time>2026-04-22T08:58:22Z</time></trkpt><trkpt lat="41.936166995977004" lon="3.1333142431843917"><ele>58.0</ele><time>2026-04-22T08:58:23Z</time></trkpt><trkpt lat="41.93624085503961" lon="3.1332294759892583"><ele>58.8</ele><time>2026-04-22T08:58:24Z</time></trkpt><trkpt lat="41.93631765043989" lon="3.1331388186813856"><ele>59.599999999999994</ele><time>2026-04-22T08:58:25Z</time></trkpt><trkpt lat="41.93638780695658" lon="3.1330540485118723"><ele>60.400000000000006</ele><time>2026-04-22T08:58:26Z</time></trkpt><trkpt lat="41.93645752817793" lon="3.132973623743499"><ele>61.2</ele><time>2026-04-22T08:58:27Z</time></trkpt><trkpt lat="41.93652616715054" lon="3.1328931951152748"><ele>62.0</ele><time>2026-04-22T08:58:28Z</time></trkpt><trkpt lat="41.93659480261104" lon="3.132811152596666"><ele>62.0</ele><time>2026-04-22T08:58:29Z</time></trkpt><trkpt lat="41.93666175785036" lon="3.132729466779738"><ele>62.0</ele><time>2026-04-22T08:58:30Z</time></trkpt><trkpt lat="41.936728942999416" lon="3.1326509465870456"><ele>62.0</ele><time>2026-04-22T08:58:31Z</time></trkpt><trkpt lat="41.93679800426687" lon="3.132568604165898"><ele>62.0</ele><time>2026-04-22T08:58:32Z</time></trkpt><trkpt lat="41.936869091037686" lon="3.1324881039405605"><ele>62.0</ele><time>2026-04-22T08:58:33Z</time></trkpt><trkpt lat="41.936942053648835" lon="3.132406916432378"><ele>62.400000000000006</ele><time>2026-04-22T08:58:34Z</time></trkpt><trkpt lat="41.937015663107566" lon="3.1323245288943484"><ele>62.800000000000004</ele><time>2026-04-22T08:58:35Z</time></trkpt><trkpt lat="41.93709022263418" lon="3.132240372277225"><ele>63.2</ele><time>2026-04-22T08:58:36Z</time></trkpt><trkpt lat="41.93716287315562" lon="3.1321543981882347"><ele>63.6</ele><time>2026-04-22T08:58:37Z</time></trkpt><trkpt lat="41.93723849794048" lon="3.132068408337066"><ele>64.0</ele><time>2026-04-22T08:58:38Z</time></trkpt><trkpt lat="41.93731301579497" lon="3.1319818751496364"><ele>64.0</ele><time>2026-04-22T08:58:39Z</time></trkpt><trkpt lat="41.93739055390739" lon="3.1318929145224788"><ele>64.0</ele><time>2026-04-22T08:58:40Z</time></trkpt><trkpt lat="41.937463179689225" lon="3.1318033633756612"><ele>64.0</ele><time>2026-04-22T08:58:41Z</time></trkpt><trkpt lat="41.93753482365681" lon="3.1317212207554346"><ele>64.0</ele><time>2026-04-22T08:58:42Z</time></trkpt><trkpt lat="41.93760991207407" lon="3.131636049213988"><ele>64.0</ele><time>2026-04-22T08:58:43Z</time></trkpt><trkpt lat="41.93768318714984" lon="3.131551398191989"><ele>64.0</ele><time>2026-04-22T08:58:44Z</time></trkpt><trkpt lat="41.93775629156436" lon="3.1314671997116372"><ele>64.0</ele><time>2026-04-22T08:58:45Z</time></trkpt><trkpt lat="41.93782818609881" lon="3.131383553461078"><ele>64.0</ele><time>2026-04-22T08:58:46Z</time></trkpt><trkpt lat="41.93790062300249" lon="3.131297199143156"><ele>64.0</ele><time>2026-04-22T08:58:47Z</time></trkpt><trkpt lat="41.93797390772214" lon="3.1312177267480044"><ele>64.0</ele><time>2026-04-22T08:58:48Z</time></trkpt><trkpt lat="41.93804592153609" lon="3.1311332537422727"><ele>64.0</ele><time>2026-04-22T08:58:49Z</time></trkpt><trkpt lat="41.938119492455655" lon="3.1310497831481907"><ele>64.0</ele><time>2026-04-22T08:58:50Z</time></trkpt><trkpt lat="41.93819341165405" lon="3.130965589532164"><ele>64.0</ele><time>2026-04-22T08:58:51Z</time></trkpt><trkpt lat="41.93826808977939" lon="3.1308842677011763"><ele>64.0</ele><time>2026-04-22T08:58:52Z</time></trkpt><trkpt lat="41.938342224559925" lon="3.130801660146791"><ele>64.0</ele><time>2026-04-22T08:58:53Z</time></trkpt><trkpt lat="41.93841688566913" lon="3.13071630168229"><ele>64.60000000000001</ele><time>2026-04-22T08:58:54Z</time></trkpt><trkpt lat="41.938491962561415" lon="3.130628943500848"><ele>65.2</ele><time>2026-04-22T08:58:55Z</time></trkpt><trkpt lat="41.938569345998474" lon="3.130539198321602"><ele>65.80000000000001</ele><time>2026-04-22T08:58:56Z</time></trkpt><trkpt lat="41.93864500664099" lon="3.130447579243679"><ele>66.4</ele><time>2026-04-22T08:58:57Z</time></trkpt><trkpt lat="41.938724211737565" lon="3.130351862654738"><ele>67.0</ele><time>2026-04-22T08:58:58Z</time></trkpt><trkpt lat="41.93880376463617" lon="3.1302522184843204"><ele>67.0</ele><time>2026-04-22T08:58:59Z</time></trkpt><trkpt lat="41.93889383247041" lon="3.130145079351123"><ele>67.0</ele><time>2026-04-22T08:59:00Z</time></trkpt><trkpt lat="41.93898902213763" lon="3.130034977344637"><ele>67.0</ele><time>2026-04-22T08:59:01Z</time></trkpt><trkpt lat="41.93909087885547" lon="3.129917891578281"><ele>67.0</ele><time>2026-04-22T08:59:02Z</time></trkpt><trkpt lat="41.9391976879066" lon="3.12979231027116"><ele>67.25</ele><time>2026-04-22T08:59:03Z</time></trkpt><trkpt lat="41.939306234841794" lon="3.129666301916032"><ele>67.5</ele><time>2026-04-22T08:59:04Z</time></trkpt><trkpt lat="41.93941441376475" lon="3.129538218321761"><ele>67.75</ele><time>2026-04-22T08:59:05Z</time></trkpt><trkpt lat="41.93952751590058" lon="3.1294090163536987"><ele>68.0</ele><time>2026-04-22T08:59:06Z</time></trkpt><trkpt lat="41.93964515023168" lon="3.129271794682057"><ele>68.0</ele><time>2026-04-22T08:59:07Z</time></trkpt><trkpt lat="41.93976751868684" lon="3.1291297359975427"><ele>68.0</ele><time>2026-04-22T08:59:08Z</time></trkpt><trkpt lat="41.93989243542213" lon="3.1289849563019136"><ele>68.0</ele><time>2026-04-22T08:59:09Z</time></trkpt><trkpt lat="41.940018413379185" lon="3.1288349722162474"><ele>66.66666666666667</ele><time>2026-04-22T08:59:10Z</time></trkpt><trkpt lat="41.940148672024115" lon="3.1286853781495862"><ele>65.33333333333333</ele><time>2026-04-22T08:59:11Z</time></trkpt><trkpt lat="41.94028096449646" lon="3.128531261458863"><ele>64.0</ele><time>2026-04-22T08:59:12Z</time></trkpt><trkpt lat="41.940412394033395" lon="3.1283761321921437"><ele>65.0</ele><time>2026-04-22T08:59:13Z</time></trkpt><trkpt lat="41.94054663983582" lon="3.128220745539478"><ele>66.0</ele><time>2026-04-22T08:59:14Z</time></trkpt><trkpt lat="41.94068160012801" lon="3.128063726514682"><ele>67.0</ele><time>2026-04-22T08:59:15Z</time></trkpt><trkpt lat="41.940816417587" lon="3.1279071307949278"><ele>65.33333333333333</ele><time>2026-04-22T08:59:16Z</time></trkpt><trkpt lat="41.94095242897426" lon="3.127752750406738"><ele>63.66666666666667</ele><time>2026-04-22T08:59:17Z</time></trkpt><trkpt lat="41.94108634602875" lon="3.1275975800239735"><ele>62.0</ele><time>2026-04-22T08:59:18Z</time></trkpt><trkpt lat="41.94121945418185" lon="3.1274412054941765"><ele>65.0</ele><time>2026-04-22T08:59:19Z</time></trkpt><trkpt lat="41.941350983592535" lon="3.1272856089931094"><ele>68.0</ele><time>2026-04-22T08:59:20Z</time></trkpt><trkpt lat="41.94148397515653" lon="3.127130621687298"><ele>71.0</ele><time>2026-04-22T08:59:21Z</time></trkpt><trkpt lat="41.9416147890971" lon="3.1269728504473466"><ele>70.0</ele><time>2026-04-22T08:59:22Z</time></trkpt><trkpt lat="41.94173922210712" lon="3.12682362094038"><ele>69.0</ele><time>2026-04-22T08:59:23Z</time></trkpt><trkpt lat="41.941864472492966" lon="3.126673582364804"><ele>68.0</ele><time>2026-04-22T08:59:24Z</time></trkpt><trkpt lat="41.9419878334186" lon="3.12652645425803"><ele>68.0</ele><time>2026-04-22T08:59:25Z</time></trkpt><trkpt lat="41.94211355512938" lon="3.126381077245205"><ele>68.0</ele><time>2026-04-22T08:59:26Z</time></trkpt><trkpt lat="41.94223950549537" lon="3.1262406856552265"><ele>68.0</ele><time>2026-04-22T08:59:27Z</time></trkpt><trkpt lat="41.94236126346337" lon="3.126101345137627"><ele>68.0</ele><time>2026-04-22T08:59:28Z</time></trkpt><trkpt lat="41.94248152873826" lon="3.125962565371873"><ele>68.0</ele><time>2026-04-22T08:59:29Z</time></trkpt><trkpt lat="41.94260008196801" lon="3.1258244513672713"><ele>68.0</ele><time>2026-04-22T08:59:30Z</time></trkpt><trkpt lat="41.94271705721919" lon="3.1256873575924833"><ele>68.0</ele><time>2026-04-22T08:59:31Z</time></trkpt><trkpt lat="41.942830303545506" lon="3.125547829649299"><ele>68.0</ele><time>2026-04-22T08:59:32Z</time></trkpt><trkpt lat="41.94294283964951" lon="3.12541428879586"><ele>68.0</ele><time>2026-04-22T08:59:33Z</time></trkpt><trkpt lat="41.94305354601034" lon="3.1252833699774705"><ele>68.0</ele><time>2026-04-22T08:59:34Z</time></trkpt><trkpt lat="41.94316263204442" lon="3.12515444898672"><ele>68.0</ele><time>2026-04-22T08:59:35Z</time></trkpt><trkpt lat="41.94326957734224" lon="3.1250257794334897"><ele>68.0</ele><time>2026-04-22T08:59:36Z</time></trkpt><trkpt lat="41.943375204157384" lon="3.124902479277142"><ele>68.0</ele><time>2026-04-22T08:59:37Z</time></trkpt><trkpt lat="41.94347857588032" lon="3.1247812155078205"><ele>68.0</ele><time>2026-04-22T08:59:38Z</time></trkpt><trkpt lat="41.9435814081768" lon="3.1246638123312263"><ele>68.0</ele><time>2026-04-22T08:59:39Z</time></trkpt><trkpt lat="41.94367803666611" lon="3.124550157418601"><ele>68.0</ele><time>2026-04-22T08:59:40Z</time></trkpt><trkpt lat="41.9437727994738" lon="3.124439163231788"><ele>68.0</ele><time>2026-04-22T08:59:41Z</time></trkpt><trkpt lat="41.94386380232052" lon="3.1243351865954714"><ele>68.0</ele><time>2026-04-22T08:59:42Z</time></trkpt><trkpt lat="41.943954215061055" lon="3.1242378995382247"><ele>68.0</ele><time>2026-04-22T08:59:43Z</time></trkpt><trkpt lat="41.94403743658374" lon="3.1241449878316323"><ele>68.0</ele><time>2026-04-22T08:59:44Z</time></trkpt><trkpt lat="41.94411037255149" lon="3.1240610687736057"><ele>68.0</ele><time>2026-04-22T08:59:45Z</time></trkpt><trkpt lat="41.94418259913851" lon="3.123988936322933"><ele>68.0</ele><time>2026-04-22T08:59:46Z</time></trkpt><trkpt lat="41.94426093150208" lon="3.1239533910541333"><ele>68.83333333333334</ele><time>2026-04-22T08:59:47Z</time></trkpt><trkpt lat="41.944345821805626" lon="3.12394943067598"><ele>69.66666666666667</ele><time>2026-04-22T08:59:48Z</time></trkpt><trkpt lat="41.94443231356212" lon="3.1239370403463473"><ele>70.5</ele><time>2026-04-22T08:59:49Z</time></trkpt><trkpt lat="41.944508000717015" lon="3.123886638597332"><ele>71.33333333333333</ele><time>2026-04-22T08:59:50Z</time></trkpt><trkpt lat="41.94457316228725" lon="3.123807536347221"><ele>72.16666666666666</ele><time>2026-04-22T08:59:51Z</time></trkpt><trkpt lat="41.94461247161648" lon="3.1236941264115425"><ele>73.0</ele><time>2026-04-22T08:59:52Z</time></trkpt><trkpt lat="41.94463541755761" lon="3.123566116879423"><ele>73.0</ele><time>2026-04-22T08:59:53Z</time></trkpt><trkpt lat="41.94467859505824" lon="3.1234380430972544"><ele>73.0</ele><time>2026-04-22T08:59:54Z</time></trkpt><trkpt lat="41.94474340858675" lon="3.1233092554994673"><ele>73.0</ele><time>2026-04-22T08:59:55Z</time></trkpt><trkpt lat="41.94483649463212" lon="3.1231938096114935"><ele>73.0</ele><time>2026-04-22T08:59:56Z</time></trkpt><trkpt lat="41.94493748966688" lon="3.1230809017447774"><ele>76.75</ele><time>2026-04-22T08:59:57Z</time></trkpt><trkpt lat="41.94504249634508" lon="3.122957124942787"><ele>80.5</ele><time>2026-04-22T08:59:58Z</time></trkpt><trkpt lat="41.94515327828985" lon="3.1228273486941585"><ele>84.25</ele><time>2026-04-22T08:59:59Z</time></trkpt><trkpt lat="41.945268962605645" lon="3.122690943016507"><ele>88.0</ele><time>2026-04-22T09:00:00Z</time></trkpt><trkpt lat="41.9453914607817" lon="3.1225517896333335"><ele>88.33333333333333</ele><time>2026-04-22T09:00:01Z</time></trkpt><trkpt lat="41.94550598484989" lon="3.122419710249926"><ele>88.66666666666667</ele><time>2026-04-22T09:00:02Z</time></trkpt><trkpt lat="41.945623760839986" lon="3.1222782966565874"><ele>89.0</ele><time>2026-04-22T09:00:03Z</time></trkpt><trkpt lat="41.94574481547272" lon="3.122136088375493"><ele>89.0</ele><time>2026-04-22T09:00:04Z</time></trkpt><trkpt lat="41.94586834104917" lon="3.121991710037664"><ele>89.0</ele><time>2026-04-22T09:00:05Z</time></trkpt><trkpt lat="41.94599574892274" lon="3.1218452011266815"><ele>89.0</ele><time>2026-04-22T09:00:06Z</time></trkpt><trkpt lat="41.94612703325608" lon="3.121696965313396"><ele>90.33333333333334</ele><time>2026-04-22T09:00:07Z</time></trkpt><trkpt lat="41.94625694800363" lon="3.121544652312214"><ele>91.66666666666667</ele><time>2026-04-22T09:00:08Z</time></trkpt><trkpt lat="41.94638787865741" lon="3.1213891546050703"><ele>93.0</ele><time>2026-04-22T09:00:09Z</time></trkpt><trkpt lat="41.946521314185844" lon="3.1212344350961314"><ele>93.0</ele><time>2026-04-22T09:00:10Z</time></trkpt><trkpt lat="41.946655546402155" lon="3.121077919132489"><ele>93.0</ele><time>2026-04-22T09:00:11Z</time></trkpt><trkpt lat="41.94677885277185" lon="3.1209308278439294"><ele>93.0</ele><time>2026-04-22T09:00:12Z</time></trkpt><trkpt lat="41.94690843123495" lon="3.1207821312288306"><ele>95.0</ele><time>2026-04-22T09:00:13Z</time></trkpt><trkpt lat="41.947039175438476" lon="3.1206351755588697"><ele>97.0</ele><time>2026-04-22T09:00:14Z</time></trkpt><trkpt lat="41.94716959448196" lon="3.120486318124474"><ele>99.0</ele><time>2026-04-22T09:00:15Z</time></trkpt><trkpt lat="41.94729760062677" lon="3.1203421165017375"><ele>99.0</ele><time>2026-04-22T09:00:16Z</time></trkpt><trkpt lat="41.947422226366754" lon="3.1201963224363376"><ele>99.0</ele><time>2026-04-22T09:00:17Z</time></trkpt><trkpt lat="41.947543927349855" lon="3.1200516618762397"><ele>99.0</ele><time>2026-04-22T09:00:18Z</time></trkpt><trkpt lat="41.94766050157763" lon="3.119898484307823"><ele>96.33333333333333</ele><time>2026-04-22T09:00:19Z</time></trkpt><trkpt lat="41.94776783425488" lon="3.1197421852250535"><ele>93.66666666666666</ele><time>2026-04-22T09:00:20Z</time></trkpt><trkpt lat="41.94786995941661" lon="3.119575030457312"><ele>91.0</ele><time>2026-04-22T09:00:21Z</time></trkpt><trkpt lat="41.94795923094324" lon="3.1193952923700907"><ele>91.0</ele><time>2026-04-22T09:00:22Z</time></trkpt><trkpt lat="41.948032907027795" lon="3.1192033584551364"><ele>91.0</ele><time>2026-04-22T09:00:23Z</time></trkpt><trkpt lat="41.94809533980108" lon="3.1190046774404006"><ele>91.0</ele><time>2026-04-22T09:00:24Z</time></trkpt><trkpt lat="41.94814361111198" lon="3.118802756515149"><ele>91.33333333333333</ele><time>2026-04-22T09:00:25Z</time></trkpt><trkpt lat="41.948181903543784" lon="3.118598961116552"><ele>91.66666666666667</ele><time>2026-04-22T09:00:26Z</time></trkpt><trkpt lat="41.94820323104539" lon="3.118391264723509"><ele>92.0</ele><time>2026-04-22T09:00:27Z</time></trkpt><trkpt lat="41.94820787495038" lon="3.1181788907579557"><ele>92.0</ele><time>2026-04-22T09:00:28Z</time></trkpt><trkpt lat="41.94819488801149" lon="3.117965995597609"><ele>92.0</ele><time>2026-04-22T09:00:29Z</time></trkpt><trkpt lat="41.94816394960846" lon="3.117748138052969"><ele>92.0</ele><time>2026-04-22T09:00:30Z</time></trkpt><trkpt lat="41.94811702297121" lon="3.1175352565738215"><ele>91.33333333333334</ele><time>2026-04-22T09:00:31Z</time></trkpt><trkpt lat="41.94805984761917" lon="3.1173250829266217"><ele>90.66666666666667</ele><time>2026-04-22T09:00:32Z</time></trkpt><trkpt lat="41.947995314029235" lon="3.117114773861028"><ele>90.0</ele><time>2026-04-22T09:00:33Z</time></trkpt><trkpt lat="41.9479179357175" lon="3.116908994107196"><ele>90.0</ele><time>2026-04-22T09:00:34Z</time></trkpt><trkpt lat="41.94783836330877" lon="3.1167026470814085"><ele>90.0</ele><time>2026-04-22T09:00:35Z</time></trkpt><trkpt lat="41.947758478112746" lon="3.1164927838673"><ele>90.0</ele><time>2026-04-22T09:00:36Z</time></trkpt><trkpt lat="41.94768263206552" lon="3.1162835097384014"><ele>90.66666666666667</ele><time>2026-04-22T09:00:37Z</time></trkpt><trkpt lat="41.947612170850846" lon="3.1160696700828763"><ele>91.33333333333334</ele><time>2026-04-22T09:00:38Z</time></trkpt><trkpt lat="41.947553860668336" lon="3.115849451051197"><ele>92.0</ele><time>2026-04-22T09:00:39Z</time></trkpt><trkpt lat="41.947510123260045" lon="3.1156213620139126"><ele>95.33333333333334</ele><time>2026-04-22T09:00:40Z</time></trkpt><trkpt lat="41.947483115048826" lon="3.115386362365179"><ele>98.66666666666667</ele><time>2026-04-22T09:00:41Z</time></trkpt><trkpt lat="41.94747836140433" lon="3.1151543097140504"><ele>102.0</ele><time>2026-04-22T09:00:42Z</time></trkpt><trkpt lat="41.94748543947073" lon="3.114917956495022"><ele>103.66666666666666</ele><time>2026-04-22T09:00:43Z</time></trkpt><trkpt lat="41.94750645177393" lon="3.11467786228139"><ele>105.33333333333333</ele><time>2026-04-22T09:00:44Z</time></trkpt><trkpt lat="41.947546355481784" lon="3.1144427047338237"><ele>107.0</ele><time>2026-04-22T09:00:45Z</time></trkpt><trkpt lat="41.94760281922679" lon="3.1142075344241924"><ele>107.66666666666666</ele><time>2026-04-22T09:00:46Z</time></trkpt><trkpt lat="41.94765877933683" lon="3.113970148766178"><ele>108.33333333333334</ele><time>2026-04-22T09:00:47Z</time></trkpt><trkpt lat="41.94770699121337" lon="3.1137301859200965"><ele>109.0</ele><time>2026-04-22T09:00:48Z</time></trkpt><trkpt lat="41.9477573025236" lon="3.113487242752878"><ele>109.0</ele><time>2026-04-22T09:00:49Z</time></trkpt><trkpt lat="41.94780444711855" lon="3.1132442271777694"><ele>109.0</ele><time>2026-04-22T09:00:50Z</time></trkpt><trkpt lat="41.94784956637361" lon="3.1130047200972006"><ele>109.0</ele><time>2026-04-22T09:00:51Z</time></trkpt><trkpt lat="41.94789123182788" lon="3.1127652935640686"><ele>108.66666666666667</ele><time>2026-04-22T09:00:52Z</time></trkpt><trkpt lat="41.947931256558775" lon="3.1125300077613582"><ele>108.33333333333334</ele><time>2026-04-22T09:00:53Z</time></trkpt><trkpt lat="41.94797110635075" lon="3.1123016322156154"><ele>108.0</ele><time>2026-04-22T09:00:54Z</time></trkpt><trkpt lat="41.948007516284015" lon="3.112077418607504"><ele>109.33333333333334</ele><time>2026-04-22T09:00:55Z</time></trkpt><trkpt lat="41.94804230162498" lon="3.111857288422438"><ele>110.66666666666667</ele><time>2026-04-22T09:00:56Z</time></trkpt><trkpt lat="41.948077836786034" lon="3.111634144167008"><ele>112.0</ele><time>2026-04-22T09:00:57Z</time></trkpt><trkpt lat="41.94811349813067" lon="3.1114078710769286"><ele>112.33333333333334</ele><time>2026-04-22T09:00:58Z</time></trkpt><trkpt lat="41.94814850713016" lon="3.111177755342877"><ele>112.66666666666666</ele><time>2026-04-22T09:00:59Z</time></trkpt><trkpt lat="41.94818500260542" lon="3.1109489951557663"><ele>113.0</ele><time>2026-04-22T09:01:00Z</time></trkpt><trkpt lat="41.94821930692158" lon="3.110719542739709"><ele>113.0</ele><time>2026-04-22T09:01:01Z</time></trkpt><trkpt lat="41.94825983913978" lon="3.110489583603399"><ele>113.0</ele><time>2026-04-22T09:01:02Z</time></trkpt><trkpt lat="41.948295772256394" lon="3.110260402102209"><ele>113.0</ele><time>2026-04-22T09:01:03Z</time></trkpt><trkpt lat="41.948333790532956" lon="3.110034166542343"><ele>112.66666666666666</ele><time>2026-04-22T09:01:04Z</time></trkpt><trkpt lat="41.94837262207985" lon="3.1098047142503074"><ele>112.33333333333334</ele><time>2026-04-22T09:01:05Z</time></trkpt><trkpt lat="41.948409532782264" lon="3.1095731463076426"><ele>112.0</ele><time>2026-04-22T09:01:06Z</time></trkpt><trkpt lat="41.948446496670556" lon="3.109346739351092"><ele>111.0</ele><time>2026-04-22T09:01:07Z</time></trkpt><trkpt lat="41.948482851535886" lon="3.1091216857118407"><ele>110.0</ele><time>2026-04-22T09:01:08Z</time></trkpt><trkpt lat="41.94851475514692" lon="3.1088937582251117"><ele>109.0</ele><time>2026-04-22T09:01:09Z</time></trkpt><trkpt lat="41.948554825403285" lon="3.1086734240361844"><ele>108.66666666666667</ele><time>2026-04-22T09:01:10Z</time></trkpt><trkpt lat="41.94859187904521" lon="3.1084535669760767"><ele>108.33333333333334</ele><time>2026-04-22T09:01:11Z</time></trkpt><trkpt lat="41.948628446739924" lon="3.1082371674935847"><ele>108.0</ele><time>2026-04-22T09:01:12Z</time></trkpt><trkpt lat="41.9486665049078" lon="3.1080225188920085"><ele>108.0</ele><time>2026-04-22T09:01:13Z</time></trkpt><trkpt lat="41.94870092697677" lon="3.107808946835979"><ele>108.0</ele><time>2026-04-22T09:01:14Z</time></trkpt><trkpt lat="41.94873659447062" lon="3.1075958928661063"><ele>108.0</ele><time>2026-04-22T09:01:15Z</time></trkpt><trkpt lat="41.94877039220749" lon="3.1073838016549775"><ele>106.33333333333334</ele><time>2026-04-22T09:01:16Z</time></trkpt><trkpt lat="41.94880426499361" lon="3.1071749931713666"><ele>104.66666666666667</ele><time>2026-04-22T09:01:17Z</time></trkpt><trkpt lat="41.94884030392451" lon="3.10695963640493"><ele>103.0</ele><time>2026-04-22T09:01:18Z</time></trkpt><trkpt lat="41.948874807599836" lon="3.106742862884834"><ele>101.0</ele><time>2026-04-22T09:01:19Z</time></trkpt><trkpt lat="41.94890918529776" lon="3.1065263501050993"><ele>99.0</ele><time>2026-04-22T09:01:20Z</time></trkpt><trkpt lat="41.948946461020675" lon="3.106311708660516"><ele>97.0</ele><time>2026-04-22T09:01:21Z</time></trkpt><trkpt lat="41.94898023629244" lon="3.1060970356123754"><ele>97.0</ele><time>2026-04-22T09:01:22Z</time></trkpt><trkpt lat="41.94901793979671" lon="3.1058823738549255"><ele>97.0</ele><time>2026-04-22T09:01:23Z</time></trkpt><trkpt lat="41.94905673195349" lon="3.1056607159920793"><ele>97.0</ele><time>2026-04-22T09:01:24Z</time></trkpt><trkpt lat="41.94909532787076" lon="3.105435755624158"><ele>95.33333333333334</ele><time>2026-04-22T09:01:25Z</time></trkpt><trkpt lat="41.94913545815079" lon="3.1052071927765805"><ele>93.66666666666667</ele><time>2026-04-22T09:01:26Z</time></trkpt><trkpt lat="41.94917564708462" lon="3.104977279488524"><ele>92.0</ele><time>2026-04-22T09:01:27Z</time></trkpt><trkpt lat="41.94921636597832" lon="3.1047463848024046"><ele>91.0</ele><time>2026-04-22T09:01:28Z</time></trkpt><trkpt lat="41.94925719890593" lon="3.1045136379907934"><ele>90.0</ele><time>2026-04-22T09:01:29Z</time></trkpt><trkpt lat="41.94929429973901" lon="3.1042768032191486"><ele>89.0</ele><time>2026-04-22T09:01:30Z</time></trkpt><trkpt lat="41.94933527293226" lon="3.1040400138708395"><ele>89.0</ele><time>2026-04-22T09:01:31Z</time></trkpt><trkpt lat="41.94937529829825" lon="3.103801010937956"><ele>89.0</ele><time>2026-04-22T09:01:32Z</time></trkpt><trkpt lat="41.949413888220995" lon="3.103557841732457"><ele>89.0</ele><time>2026-04-22T09:01:33Z</time></trkpt><trkpt lat="41.94945348796996" lon="3.103317000572974"><ele>88.33333333333334</ele><time>2026-04-22T09:01:34Z</time></trkpt><trkpt lat="41.94949195521268" lon="3.1030764698258477"><ele>87.66666666666667</ele><time>2026-04-22T09:01:35Z</time></trkpt><trkpt lat="41.94953186127904" lon="3.1028353245044595"><ele>87.0</ele><time>2026-04-22T09:01:36Z</time></trkpt><trkpt lat="41.94957120920149" lon="3.1025928144108943"><ele>85.66666666666667</ele><time>2026-04-22T09:01:37Z</time></trkpt><trkpt lat="41.949610626641416" lon="3.102348125800617"><ele>84.33333333333334</ele><time>2026-04-22T09:01:38Z</time></trkpt><trkpt lat="41.94965019740056" lon="3.102107317437969"><ele>83.0</ele><time>2026-04-22T09:01:39Z</time></trkpt><trkpt lat="41.949689674433486" lon="3.1018653483619008"><ele>83.0</ele><time>2026-04-22T09:01:40Z</time></trkpt><trkpt lat="41.94972922501198" lon="3.1016234625044468"><ele>83.0</ele><time>2026-04-22T09:01:41Z</time></trkpt><trkpt lat="41.94977038689723" lon="3.1013781932834115"><ele>83.0</ele><time>2026-04-22T09:01:42Z</time></trkpt><trkpt lat="41.949812747165396" lon="3.1011271768954574"><ele>82.66666666666667</ele><time>2026-04-22T09:01:43Z</time></trkpt><trkpt lat="41.94985530263854" lon="3.1008747036748012"><ele>82.33333333333333</ele><time>2026-04-22T09:01:44Z</time></trkpt><trkpt lat="41.94989967352621" lon="3.1006201352689007"><ele>82.0</ele><time>2026-04-22T09:01:45Z</time></trkpt><trkpt lat="41.94994259814593" lon="3.1003630563485585"><ele>81.0</ele><time>2026-04-22T09:01:46Z</time></trkpt><trkpt lat="41.94998497721398" lon="3.1001053060042016"><ele>80.0</ele><time>2026-04-22T09:01:47Z</time></trkpt><trkpt lat="41.95002688225368" lon="3.0998462001289044"><ele>79.0</ele><time>2026-04-22T09:01:48Z</time></trkpt><trkpt lat="41.95006811638519" lon="3.0995887998495553"><ele>79.0</ele><time>2026-04-22T09:01:49Z</time></trkpt><trkpt lat="41.95010828217002" lon="3.099329918538182"><ele>79.0</ele><time>2026-04-22T09:01:50Z</time></trkpt><trkpt lat="41.95015171004286" lon="3.0990726210621324"><ele>79.0</ele><time>2026-04-22T09:01:51Z</time></trkpt><trkpt lat="41.9501947230536" lon="3.0988150745160614"><ele>79.0</ele><time>2026-04-22T09:01:52Z</time></trkpt><trkpt lat="41.95023937375027" lon="3.098555141458988"><ele>79.0</ele><time>2026-04-22T09:01:53Z</time></trkpt><trkpt lat="41.950282320176576" lon="3.0982957298567966"><ele>79.0</ele><time>2026-04-22T09:01:54Z</time></trkpt><trkpt lat="41.95032546184897" lon="3.0980381859002835"><ele>76.66666666666666</ele><time>2026-04-22T09:01:55Z</time></trkpt><trkpt lat="41.95036909941692" lon="3.0977780210107206"><ele>74.33333333333333</ele><time>2026-04-22T09:01:56Z</time></trkpt><trkpt lat="41.950414908031014" lon="3.097517795447152"><ele>72.0</ele><time>2026-04-22T09:01:57Z</time></trkpt><trkpt lat="41.950459250460995" lon="3.0972581467605353"><ele>70.66666666666667</ele><time>2026-04-22T09:01:58Z</time></trkpt><trkpt lat="41.95049768550058" lon="3.0969954783735436"><ele>69.33333333333334</ele><time>2026-04-22T09:01:59Z</time></trkpt><trkpt lat="41.95054197785099" lon="3.096733040582664"><ele>68.0</ele><time>2026-04-22T09:02:00Z</time></trkpt><trkpt lat="41.95058666280582" lon="3.0964717007875273"><ele>67.66666666666667</ele><time>2026-04-22T09:02:01Z</time></trkpt><trkpt lat="41.95063176671508" lon="3.096211379453834"><ele>67.33333333333333</ele><time>2026-04-22T09:02:02Z</time></trkpt><trkpt lat="41.950673634409554" lon="3.095952443195063"><ele>67.0</ele><time>2026-04-22T09:02:03Z</time></trkpt><trkpt lat="41.950714488077914" lon="3.0956946308963014"><ele>66.66666666666666</ele><time>2026-04-22T09:02:04Z</time></trkpt><trkpt lat="41.95075610365482" lon="3.0954378374922413"><ele>66.33333333333333</ele><time>2026-04-22T09:02:05Z</time></trkpt><trkpt lat="41.95079811361992" lon="3.0951811238817406"><ele>66.0</ele><time>2026-04-22T09:02:06Z</time></trkpt><trkpt lat="41.950840082857766" lon="3.094924585774879"><ele>67.0</ele><time>2026-04-22T09:02:07Z</time></trkpt><trkpt lat="41.950881979164315" lon="3.094669158889218"><ele>68.0</ele><time>2026-04-22T09:02:08Z</time></trkpt><trkpt lat="41.950923272038935" lon="3.094412854180193"><ele>69.0</ele><time>2026-04-22T09:02:09Z</time></trkpt><trkpt lat="41.9509646014717" lon="3.0941595835112863"><ele>70.33333333333333</ele><time>2026-04-22T09:02:10Z</time></trkpt><trkpt lat="41.95100689910919" lon="3.0939074765115078"><ele>71.66666666666666</ele><time>2026-04-22T09:02:11Z</time></trkpt><trkpt lat="41.95105131585922" lon="3.0936544183459334"><ele>73.0</ele><time>2026-04-22T09:02:12Z</time></trkpt><trkpt lat="41.951094775486446" lon="3.0934000787242484"><ele>74.0</ele><time>2026-04-22T09:02:13Z</time></trkpt><trkpt lat="41.951136248671766" lon="3.0931446343077833"><ele>75.0</ele><time>2026-04-22T09:02:14Z</time></trkpt><trkpt lat="41.951178614918014" lon="3.092891886452924"><ele>76.0</ele><time>2026-04-22T09:02:15Z</time></trkpt><trkpt lat="41.95122144691219" lon="3.0926380721430333"><ele>76.0</ele><time>2026-04-22T09:02:16Z</time></trkpt><trkpt lat="41.95126610399862" lon="3.0923833967628807"><ele>76.0</ele><time>2026-04-22T09:02:17Z</time></trkpt><trkpt lat="41.95130677029199" lon="3.0921314103675472"><ele>76.0</ele><time>2026-04-22T09:02:18Z</time></trkpt><trkpt lat="41.951344577373405" lon="3.091890157599569"><ele>76.0</ele><time>2026-04-22T09:02:19Z</time></trkpt><trkpt lat="41.95138085412083" lon="3.0916562838728967"><ele>76.0</ele><time>2026-04-22T09:02:20Z</time></trkpt><trkpt lat="41.951417745095064" lon="3.0914259988221104"><ele>76.0</ele><time>2026-04-22T09:02:21Z</time></trkpt><trkpt lat="41.951455297867874" lon="3.0911983170377435"><ele>74.0</ele><time>2026-04-22T09:02:22Z</time></trkpt><trkpt lat="41.951494800818175" lon="3.0909766091007684"><ele>72.0</ele><time>2026-04-22T09:02:23Z</time></trkpt><trkpt lat="41.95153084820475" lon="3.0907569659906473"><ele>70.0</ele><time>2026-04-22T09:02:24Z</time></trkpt><trkpt lat="41.95156733192585" lon="3.0905400808203214"><ele>69.0</ele><time>2026-04-22T09:02:25Z</time></trkpt><trkpt lat="41.95160393743119" lon="3.090327351434639"><ele>68.0</ele><time>2026-04-22T09:02:26Z</time></trkpt><trkpt lat="41.951639796139304" lon="3.0901174072169226"><ele>67.0</ele><time>2026-04-22T09:02:27Z</time></trkpt><trkpt lat="41.951672466770724" lon="3.0899106584321836"><ele>67.0</ele><time>2026-04-22T09:02:28Z</time></trkpt><trkpt lat="41.951707233028884" lon="3.0897093050310445"><ele>67.0</ele><time>2026-04-22T09:02:29Z</time></trkpt><trkpt lat="41.951739704370134" lon="3.0895117507528225"><ele>67.0</ele><time>2026-04-22T09:02:30Z</time></trkpt><trkpt lat="41.95177262910909" lon="3.089315416553363"><ele>67.0</ele><time>2026-04-22T09:02:31Z</time></trkpt><trkpt lat="41.951804794204094" lon="3.0891215605585867"><ele>67.0</ele><time>2026-04-22T09:02:32Z</time></trkpt><trkpt lat="41.951836755449804" lon="3.0889327337160055"><ele>67.0</ele><time>2026-04-22T09:02:33Z</time></trkpt><trkpt lat="41.951866394764544" lon="3.0887446436363746"><ele>67.0</ele><time>2026-04-22T09:02:34Z</time></trkpt><trkpt lat="41.95189530642192" lon="3.0885608713555914"><ele>66.25</ele><time>2026-04-22T09:02:35Z</time></trkpt><trkpt lat="41.95192731155646" lon="3.08838211960133"><ele>65.5</ele><time>2026-04-22T09:02:36Z</time></trkpt><trkpt lat="41.95195790040994" lon="3.088198329409715"><ele>64.75</ele><time>2026-04-22T09:02:37Z</time></trkpt><trkpt lat="41.9519871145293" lon="3.088012703340261"><ele>64.0</ele><time>2026-04-22T09:02:38Z</time></trkpt><trkpt lat="41.95201841082164" lon="3.0878246991676583"><ele>64.0</ele><time>2026-04-22T09:02:39Z</time></trkpt><trkpt lat="41.952051760277904" lon="3.0876347857469395"><ele>64.0</ele><time>2026-04-22T09:02:40Z</time></trkpt><trkpt lat="41.95208358923169" lon="3.087442109046779"><ele>64.0</ele><time>2026-04-22T09:02:41Z</time></trkpt><trkpt lat="41.95211436094847" lon="3.0872486546472704"><ele>64.0</ele><time>2026-04-22T09:02:42Z</time></trkpt><trkpt lat="41.95214646421278" lon="3.087054327325474"><ele>64.25</ele><time>2026-04-22T09:02:43Z</time></trkpt><trkpt lat="41.95217780795472" lon="3.0868616332986707"><ele>64.5</ele><time>2026-04-22T09:02:44Z</time></trkpt><trkpt lat="41.95220621476852" lon="3.0866706591587962"><ele>64.75</ele><time>2026-04-22T09:02:45Z</time></trkpt><trkpt lat="41.95223734040768" lon="3.086481577768749"><ele>65.0</ele><time>2026-04-22T09:02:46Z</time></trkpt><trkpt lat="41.95226957844237" lon="3.086288770785289"><ele>65.0</ele><time>2026-04-22T09:02:47Z</time></trkpt><trkpt lat="41.952302719877245" lon="3.0860962816009745"><ele>65.0</ele><time>2026-04-22T09:02:48Z</time></trkpt><trkpt lat="41.952335713465764" lon="3.08590063517182"><ele>65.0</ele><time>2026-04-22T09:02:49Z</time></trkpt><trkpt lat="41.95236850471681" lon="3.0857027015418215"><ele>65.0</ele><time>2026-04-22T09:02:50Z</time></trkpt><trkpt lat="41.952401141409275" lon="3.0855013960411375"><ele>65.0</ele><time>2026-04-22T09:02:51Z</time></trkpt><trkpt lat="41.95243512195157" lon="3.08529905341573"><ele>65.0</ele><time>2026-04-22T09:02:52Z</time></trkpt><trkpt lat="41.95247000586442" lon="3.0850920581365315"><ele>65.0</ele><time>2026-04-22T09:02:53Z</time></trkpt><trkpt lat="41.95250522505136" lon="3.0848835610515706"><ele>64.66666666666667</ele><time>2026-04-22T09:02:54Z</time></trkpt><trkpt lat="41.952540672977285" lon="3.0846705418294413"><ele>64.33333333333333</ele><time>2026-04-22T09:02:55Z</time></trkpt><trkpt lat="41.95257670580441" lon="3.0844544317821296"><ele>64.0</ele><time>2026-04-22T09:02:56Z</time></trkpt><trkpt lat="41.95261433932129" lon="3.0842367930853554"><ele>64.33333333333333</ele><time>2026-04-22T09:02:57Z</time></trkpt><trkpt lat="41.95265941827349" lon="3.084015385920879"><ele>64.66666666666667</ele><time>2026-04-22T09:02:58Z</time></trkpt><trkpt lat="41.952708928964256" lon="3.083793197577471"><ele>65.0</ele><time>2026-04-22T09:02:59Z</time></trkpt><trkpt lat="41.95276623107217" lon="3.0835685805165194"><ele>65.0</ele><time>2026-04-22T09:03:00Z</time></trkpt><trkpt lat="41.95282192812942" lon="3.083337761097705"><ele>65.0</ele><time>2026-04-22T09:03:01Z</time></trkpt><trkpt lat="41.952877433716935" lon="3.083099478919995"><ele>65.0</ele><time>2026-04-22T09:03:02Z</time></trkpt><trkpt lat="41.95293030072909" lon="3.08285563290543"><ele>66.0</ele><time>2026-04-22T09:03:03Z</time></trkpt><trkpt lat="41.95298690260638" lon="3.0826080578677977"><ele>67.0</ele><time>2026-04-22T09:03:04Z</time></trkpt><trkpt lat="41.953044747383466" lon="3.0823628283798845"><ele>68.0</ele><time>2026-04-22T09:03:05Z</time></trkpt><trkpt lat="41.953101633055745" lon="3.082115289331346"><ele>68.0</ele><time>2026-04-22T09:03:06Z</time></trkpt><trkpt lat="41.95315661774409" lon="3.081867207340587"><ele>68.0</ele><time>2026-04-22T09:03:07Z</time></trkpt><trkpt lat="41.95321330971082" lon="3.081618706882339"><ele>68.0</ele><time>2026-04-22T09:03:08Z</time></trkpt><trkpt lat="41.95327224776576" lon="3.0813698347911957"><ele>68.0</ele><time>2026-04-22T09:03:09Z</time></trkpt><trkpt lat="41.95333183078555" lon="3.081118827869816"><ele>68.0</ele><time>2026-04-22T09:03:10Z</time></trkpt><trkpt lat="41.95339013783971" lon="3.0808675980897466"><ele>68.0</ele><time>2026-04-22T09:03:11Z</time></trkpt><trkpt lat="41.95345008581527" lon="3.0806147856064054"><ele>67.66666666666667</ele><time>2026-04-22T09:03:12Z</time></trkpt><trkpt lat="41.953508627073575" lon="3.0803610164709796"><ele>67.33333333333333</ele><time>2026-04-22T09:03:13Z</time></trkpt><trkpt lat="41.95356957120693" lon="3.080109272324052"><ele>67.0</ele><time>2026-04-22T09:03:14Z</time></trkpt><trkpt lat="41.95362788621956" lon="3.0798544598571054"><ele>67.0</ele><time>2026-04-22T09:03:15Z</time></trkpt><trkpt lat="41.95368877701382" lon="3.079600633025172"><ele>67.0</ele><time>2026-04-22T09:03:16Z</time></trkpt><trkpt lat="41.95374803785093" lon="3.0793457683917036"><ele>67.0</ele><time>2026-04-22T09:03:17Z</time></trkpt><trkpt lat="41.953807265536255" lon="3.079093455357236"><ele>67.0</ele><time>2026-04-22T09:03:18Z</time></trkpt><trkpt lat="41.95386774141775" lon="3.0788372448131645"><ele>67.0</ele><time>2026-04-22T09:03:19Z</time></trkpt><trkpt lat="41.95392763733631" lon="3.078583222837547"><ele>67.0</ele><time>2026-04-22T09:03:20Z</time></trkpt><trkpt lat="41.95398503953908" lon="3.0783263340723384"><ele>67.66666666666666</ele><time>2026-04-22T09:03:21Z</time></trkpt><trkpt lat="41.95404458328922" lon="3.078068675117926"><ele>68.33333333333333</ele><time>2026-04-22T09:03:22Z</time></trkpt><trkpt lat="41.95410453338581" lon="3.0778133105942165"><ele>69.0</ele><time>2026-04-22T09:03:23Z</time></trkpt><trkpt lat="41.95416614713101" lon="3.0775586206893517"><ele>66.66666666666667</ele><time>2026-04-22T09:03:24Z</time></trkpt><trkpt lat="41.954228811681425" lon="3.0773037170288107"><ele>64.33333333333334</ele><time>2026-04-22T09:03:25Z</time></trkpt><trkpt lat="41.9542888080905" lon="3.0770489552021036"><ele>62.0</ele><time>2026-04-22T09:03:26Z</time></trkpt><trkpt lat="41.95434736272705" lon="3.076792055920225"><ele>62.0</ele><time>2026-04-22T09:03:27Z</time></trkpt><trkpt lat="41.9544051263397" lon="3.076537652819283"><ele>62.0</ele><time>2026-04-22T09:03:28Z</time></trkpt><trkpt lat="41.95446485721584" lon="3.0762847031999705"><ele>62.0</ele><time>2026-04-22T09:03:29Z</time></trkpt><trkpt lat="41.95452735916771" lon="3.0760296406610053"><ele>62.0</ele><time>2026-04-22T09:03:30Z</time></trkpt><trkpt lat="41.95458698267355" lon="3.0757750064262583"><ele>62.0</ele><time>2026-04-22T09:03:31Z</time></trkpt><trkpt lat="41.954647447969045" lon="3.0755196850986044"><ele>62.0</ele><time>2026-04-22T09:03:32Z</time></trkpt><trkpt lat="41.954709287649045" lon="3.0752667840841057"><ele>62.0</ele><time>2026-04-22T09:03:33Z</time></trkpt><trkpt lat="41.9547691262147" lon="3.0750138561348384"><ele>62.0</ele><time>2026-04-22T09:03:34Z</time></trkpt><trkpt lat="41.95483007407667" lon="3.074760064778869"><ele>62.0</ele><time>2026-04-22T09:03:35Z</time></trkpt><trkpt lat="41.954892530322226" lon="3.0745052854405897"><ele>62.0</ele><time>2026-04-22T09:03:36Z</time></trkpt><trkpt lat="41.954952710505765" lon="3.074250264249594"><ele>62.0</ele><time>2026-04-22T09:03:37Z</time></trkpt><trkpt lat="41.955014100283044" lon="3.0740043567978304"><ele>62.0</ele><time>2026-04-22T09:03:38Z</time></trkpt><trkpt lat="41.95507373813539" lon="3.0737726482261754"><ele>60.333333333333336</ele><time>2026-04-22T09:03:39Z</time></trkpt><trkpt lat="41.955128573910685" lon="3.0735429100767355"><ele>58.66666666666667</ele><time>2026-04-22T09:03:40Z</time></trkpt><trkpt lat="41.955181376639516" lon="3.0733167229258638"><ele>57.0</ele><time>2026-04-22T09:03:41Z</time></trkpt><trkpt lat="41.955233994602814" lon="3.07309688249883"><ele>57.0</ele><time>2026-04-22T09:03:42Z</time></trkpt><trkpt lat="41.955283572902935" lon="3.0728809358990694"><ele>57.0</ele><time>2026-04-22T09:03:43Z</time></trkpt><trkpt lat="41.955331474063485" lon="3.0726713971009447"><ele>57.0</ele><time>2026-04-22T09:03:44Z</time></trkpt><trkpt lat="41.95537624392165" lon="3.0724692609300486"><ele>57.25</ele><time>2026-04-22T09:03:45Z</time></trkpt><trkpt lat="41.95541978843793" lon="3.0722835169656544"><ele>57.5</ele><time>2026-04-22T09:03:46Z</time></trkpt><trkpt lat="41.95546245046473" lon="3.0721045187312668"><ele>57.75</ele><time>2026-04-22T09:03:47Z</time></trkpt><trkpt lat="41.955504286774755" lon="3.071934248893646"><ele>58.0</ele><time>2026-04-22T09:03:48Z</time></trkpt><trkpt lat="41.955541864759645" lon="3.0717647608643075"><ele>57.75</ele><time>2026-04-22T09:03:49Z</time></trkpt><trkpt lat="41.9555786710594" lon="3.071602546164229"><ele>57.5</ele><time>2026-04-22T09:03:50Z</time></trkpt><trkpt lat="41.955614460006046" lon="3.071444966070032"><ele>57.25</ele><time>2026-04-22T09:03:51Z</time></trkpt><trkpt lat="41.955651739383235" lon="3.0712909652598"><ele>57.0</ele><time>2026-04-22T09:03:52Z</time></trkpt><trkpt lat="41.95568708149951" lon="3.0711414204745076"><ele>57.0</ele><time>2026-04-22T09:03:53Z</time></trkpt><trkpt lat="41.95572064142003" lon="3.0709958132037682"><ele>57.0</ele><time>2026-04-22T09:03:54Z</time></trkpt><trkpt lat="41.95575416981803" lon="3.070851945206921"><ele>57.0</ele><time>2026-04-22T09:03:55Z</time></trkpt><trkpt lat="41.95578862032012" lon="3.07071218480668"><ele>57.0</ele><time>2026-04-22T09:03:56Z</time></trkpt><trkpt lat="41.95582113115051" lon="3.0705739143893913"><ele>57.0</ele><time>2026-04-22T09:03:57Z</time></trkpt><trkpt lat="41.95585160105558" lon="3.0704370721537453"><ele>56.666666666666664</ele><time>2026-04-22T09:03:58Z</time></trkpt><trkpt lat="41.955884151819255" lon="3.0703032777258836"><ele>56.33333333333333</ele><time>2026-04-22T09:03:59Z</time></trkpt><trkpt lat="41.95591363022042" lon="3.0701820628258156"><ele>56.0</ele><time>2026-04-22T09:04:00Z</time></trkpt><trkpt lat="41.95594054630646" lon="3.070071842422955"><ele>55.666666666666664</ele><time>2026-04-22T09:04:01Z</time></trkpt><trkpt lat="41.955965295494316" lon="3.069968029327888"><ele>55.33333333333333</ele><time>2026-04-22T09:04:02Z</time></trkpt><trkpt lat="41.955992356791214" lon="3.0698719688847453"><ele>55.0</ele><time>2026-04-22T09:04:03Z</time></trkpt><trkpt lat="41.95602937210729" lon="3.0697910278107567"><ele>54.857142857142854</ele><time>2026-04-22T09:04:04Z</time></trkpt><trkpt lat="41.95608129436963" lon="3.0697252744476593"><ele>54.714285714285715</ele><time>2026-04-22T09:04:05Z</time></trkpt><trkpt lat="41.956146052935054" lon="3.0696857651550324"><ele>54.57142857142857</ele><time>2026-04-22T09:04:06Z</time></trkpt><trkpt lat="41.956214302785924" lon="3.0696404898126124"><ele>54.42857142857143</ele><time>2026-04-22T09:04:07Z</time></trkpt><trkpt lat="41.95626537435051" lon="3.0695685929924443"><ele>54.285714285714285</ele><time>2026-04-22T09:04:08Z</time></trkpt><trkpt lat="41.95629815357064" lon="3.069480065564156"><ele>54.14285714285714</ele><time>2026-04-22T09:04:09Z</time></trkpt><trkpt lat="41.95630684468712" lon="3.069378826878576"><ele>54.0</ele><time>2026-04-22T09:04:10Z</time></trkpt><trkpt lat="41.9562892696987" lon="3.0692746402854185"><ele>54.0</ele><time>2026-04-22T09:04:11Z</time></trkpt><trkpt lat="41.95625266456235" lon="3.0691750655474723"><ele>54.0</ele><time>2026-04-22T09:04:12Z</time></trkpt><trkpt lat="41.95621814853351" lon="3.0690735275342984"><ele>54.0</ele><time>2026-04-22T09:04:13Z</time></trkpt><trkpt lat="41.95620829720663" lon="3.0689611500798595"><ele>54.0</ele><time>2026-04-22T09:04:14Z</time></trkpt><trkpt lat="41.95622111134862" lon="3.068849290918039"><ele>54.0</ele><time>2026-04-22T09:04:15Z</time></trkpt><trkpt lat="41.95624691265823" lon="3.0687366688002076"><ele>54.0</ele><time>2026-04-22T09:04:16Z</time></trkpt><trkpt lat="41.95627184850838" lon="3.0686155556440085"><ele>53.800000000000004</ele><time>2026-04-22T09:04:17Z</time></trkpt><trkpt lat="41.95629623547734" lon="3.0684835169876052"><ele>53.60000000000001</ele><time>2026-04-22T09:04:18Z</time></trkpt><trkpt lat="41.956325726701714" lon="3.0683418626119856"><ele>53.4</ele><time>2026-04-22T09:04:19Z</time></trkpt><trkpt lat="41.9563570492028" lon="3.068197218562671"><ele>53.2</ele><time>2026-04-22T09:04:20Z</time></trkpt><trkpt lat="41.9563916751302" lon="3.0680505627850496"><ele>53.0</ele><time>2026-04-22T09:04:21Z</time></trkpt><trkpt lat="41.95643022027969" lon="3.0678964632743235"><ele>53.0</ele><time>2026-04-22T09:04:22Z</time></trkpt><trkpt lat="41.95646894670398" lon="3.0677392934099306"><ele>53.0</ele><time>2026-04-22T09:04:23Z</time></trkpt><trkpt lat="41.95651095873087" lon="3.0675784657215344"><ele>53.0</ele><time>2026-04-22T09:04:24Z</time></trkpt><trkpt lat="41.956552466248056" lon="3.067416031029905"><ele>53.0</ele><time>2026-04-22T09:04:25Z</time></trkpt><trkpt lat="41.9565921413861" lon="3.0672530634742476"><ele>53.25</ele><time>2026-04-22T09:04:26Z</time></trkpt><trkpt lat="41.95663093158441" lon="3.0670892103733554"><ele>53.5</ele><time>2026-04-22T09:04:27Z</time></trkpt><trkpt lat="41.95666900333217" lon="3.0669225933786897"><ele>53.75</ele><time>2026-04-22T09:04:28Z</time></trkpt><trkpt lat="41.956704318587406" lon="3.06676077271646"><ele>54.0</ele><time>2026-04-22T09:04:29Z</time></trkpt><trkpt lat="41.956742876057604" lon="3.0665967653655732"><ele>54.0</ele><time>2026-04-22T09:04:30Z</time></trkpt><trkpt lat="41.956780817470275" lon="3.06643702130269"><ele>54.0</ele><time>2026-04-22T09:04:31Z</time></trkpt><trkpt lat="41.956820473238885" lon="3.0662772088346806"><ele>54.0</ele><time>2026-04-22T09:04:32Z</time></trkpt><trkpt lat="41.956861403771825" lon="3.066120913786874"><ele>54.0</ele><time>2026-04-22T09:04:33Z</time></trkpt><trkpt lat="41.95689903071862" lon="3.0659619383388668"><ele>54.0</ele><time>2026-04-22T09:04:34Z</time></trkpt><trkpt lat="41.956937356530425" lon="3.06580140730091"><ele>54.0</ele><time>2026-04-22T09:04:35Z</time></trkpt><trkpt lat="41.95697382357767" lon="3.065644888218149"><ele>54.0</ele><time>2026-04-22T09:04:36Z</time></trkpt><trkpt lat="41.957009244252504" lon="3.0654873242927616"><ele>54.0</ele><time>2026-04-22T09:04:37Z</time></trkpt><trkpt lat="41.95704473401723" lon="3.0653308444852807"><ele>53.75</ele><time>2026-04-22T09:04:38Z</time></trkpt><trkpt lat="41.957080937528225" lon="3.0651732590478793"><ele>53.5</ele><time>2026-04-22T09:04:39Z</time></trkpt><trkpt lat="41.957116639965854" lon="3.0650244251376235"><ele>53.25</ele><time>2026-04-22T09:04:40Z</time></trkpt><trkpt lat="41.95715024068632" lon="3.064876371304013"><ele>53.0</ele><time>2026-04-22T09:04:41Z</time></trkpt><trkpt lat="41.95718007997533" lon="3.0647302961099543"><ele>53.0</ele><time>2026-04-22T09:04:42Z</time></trkpt><trkpt lat="41.95721368541425" lon="3.0645940035339443"><ele>53.0</ele><time>2026-04-22T09:04:43Z</time></trkpt><trkpt lat="41.95724581567043" lon="3.0644586115229497"><ele>53.0</ele><time>2026-04-22T09:04:44Z</time></trkpt><trkpt lat="41.95727621210635" lon="3.064328332736612"><ele>53.0</ele><time>2026-04-22T09:04:45Z</time></trkpt><trkpt lat="41.95730644930436" lon="3.064200873763376"><ele>53.0</ele><time>2026-04-22T09:04:46Z</time></trkpt><trkpt lat="41.95733592468522" lon="3.064075506401258"><ele>53.00000000000001</ele><time>2026-04-22T09:04:47Z</time></trkpt><trkpt lat="41.957365372047455" lon="3.0639579224775453"><ele>53.0</ele><time>2026-04-22T09:04:48Z</time></trkpt><trkpt lat="41.957392343134266" lon="3.0638493439523318"><ele>53.0</ele><time>2026-04-22T09:04:49Z</time></trkpt><trkpt lat="41.95742095478109" lon="3.063748240217062"><ele>53.0</ele><time>2026-04-22T09:04:50Z</time></trkpt><trkpt lat="41.957464162153734" lon="3.063661063687702"><ele>53.00000000000001</ele><time>2026-04-22T09:04:51Z</time></trkpt><trkpt lat="41.95752563530979" lon="3.0635907919562357"><ele>53.0</ele><time>2026-04-22T09:04:52Z</time></trkpt><trkpt lat="41.957592370646665" lon="3.0635442278693112"><ele>52.66666666666667</ele><time>2026-04-22T09:04:53Z</time></trkpt><trkpt lat="41.957657465977846" lon="3.0634909645321633"><ele>52.333333333333336</ele><time>2026-04-22T09:04:54Z</time></trkpt><trkpt lat="41.95770759501719" lon="3.0634161495933276"><ele>52.0</ele><time>2026-04-22T09:04:55Z</time></trkpt><trkpt lat="41.95773906401441" lon="3.0633252863380873"><ele>51.66666666666667</ele><time>2026-04-22T09:04:56Z</time></trkpt><trkpt lat="41.95774342639698" lon="3.0632256121529213"><ele>51.333333333333336</ele><time>2026-04-22T09:04:57Z</time></trkpt><trkpt lat="41.957721554723754" lon="3.0631209581463654"><ele>51.0</ele><time>2026-04-22T09:04:58Z</time></trkpt><trkpt lat="41.95768261678675" lon="3.0630207103824736"><ele>51.0</ele><time>2026-04-22T09:04:59Z</time></trkpt><trkpt lat="41.95765248513357" lon="3.062916517748761"><ele>51.0</ele><time>2026-04-22T09:05:00Z</time></trkpt><trkpt lat="41.957650964791476" lon="3.0628001243393497"><ele>51.0</ele><time>2026-04-22T09:05:01Z</time></trkpt><trkpt lat="41.95767308119631" lon="3.062679735616099"><ele>51.0</ele><time>2026-04-22T09:05:02Z</time></trkpt><trkpt lat="41.957702987992015" lon="3.062556373206621"><ele>51.0</ele><time>2026-04-22T09:05:03Z</time></trkpt><trkpt lat="41.9577335336102" lon="3.0624181013303664"><ele>50.75</ele><time>2026-04-22T09:05:04Z</time></trkpt><trkpt lat="41.95776654132143" lon="3.062266629221285"><ele>50.5</ele><time>2026-04-22T09:05:05Z</time></trkpt><trkpt lat="41.95780264353343" lon="3.062103395543653"><ele>50.25</ele><time>2026-04-22T09:05:06Z</time></trkpt><trkpt lat="41.95783846006038" lon="3.0619276881070427"><ele>50.0</ele><time>2026-04-22T09:05:07Z</time></trkpt><trkpt lat="41.957874465609684" lon="3.061749629551149"><ele>50.25</ele><time>2026-04-22T09:05:08Z</time></trkpt><trkpt lat="41.95791061049597" lon="3.0615720745664423"><ele>50.5</ele><time>2026-04-22T09:05:09Z</time></trkpt><trkpt lat="41.95794624624438" lon="3.061382777601747"><ele>50.75</ele><time>2026-04-22T09:05:10Z</time></trkpt><trkpt lat="41.957975689228775" lon="3.061188010799989"><ele>51.0</ele><time>2026-04-22T09:05:11Z</time></trkpt><trkpt lat="41.9579990200864" lon="3.060986512811987"><ele>51.0</ele><time>2026-04-22T09:05:12Z</time></trkpt><trkpt lat="41.9580141951885" lon="3.060787309758129"><ele>51.0</ele><time>2026-04-22T09:05:13Z</time></trkpt><trkpt lat="41.95802390139228" lon="3.060596955530352"><ele>51.0</ele><time>2026-04-22T09:05:14Z</time></trkpt><trkpt lat="41.958030472633595" lon="3.0604114518805603"><ele>51.0</ele><time>2026-04-22T09:05:15Z</time></trkpt><trkpt lat="41.958033739718786" lon="3.0602319310550974"><ele>51.5</ele><time>2026-04-22T09:05:16Z</time></trkpt><trkpt lat="41.95803512074053" lon="3.060057677634064"><ele>52.0</ele><time>2026-04-22T09:05:17Z</time></trkpt><trkpt lat="41.95803414156013" lon="3.059891840152899"><ele>52.5</ele><time>2026-04-22T09:05:18Z</time></trkpt><trkpt lat="41.95803260871764" lon="3.059722505304052"><ele>53.0</ele><time>2026-04-22T09:05:19Z</time></trkpt><trkpt lat="41.95802977093707" lon="3.059555502741796"><ele>52.0</ele><time>2026-04-22T09:05:20Z</time></trkpt><trkpt lat="41.95802896029579" lon="3.0593881509647787"><ele>51.0</ele><time>2026-04-22T09:05:21Z</time></trkpt><trkpt lat="41.95802734214754" lon="3.0592202005931814"><ele>50.0</ele><time>2026-04-22T09:05:22Z</time></trkpt><trkpt lat="41.95802640554613" lon="3.059056903749241"><ele>49.0</ele><time>2026-04-22T09:05:23Z</time></trkpt><trkpt lat="41.95802528556749" lon="3.0588984093108507"><ele>49.0</ele><time>2026-04-22T09:05:24Z</time></trkpt><trkpt lat="41.958023373556294" lon="3.0587448771135857"><ele>49.0</ele><time>2026-04-22T09:05:25Z</time></trkpt><trkpt lat="41.95802306798656" lon="3.058596502365098"><ele>49.0</ele><time>2026-04-22T09:05:26Z</time></trkpt><trkpt lat="41.95802793245304" lon="3.0584457229103013"><ele>49.0</ele><time>2026-04-22T09:05:27Z</time></trkpt><trkpt lat="41.9580409432029" lon="3.0582957755241065"><ele>49.0</ele><time>2026-04-22T09:05:28Z</time></trkpt><trkpt lat="41.958059301485136" lon="3.0581452171060315"><ele>49.400000000000006</ele><time>2026-04-22T09:05:29Z</time></trkpt><trkpt lat="41.95808311367037" lon="3.0580029411630996"><ele>49.8</ele><time>2026-04-22T09:05:30Z</time></trkpt><trkpt lat="41.95810813646468" lon="3.057868527812033"><ele>50.2</ele><time>2026-04-22T09:05:31Z</time></trkpt><trkpt lat="41.958130733178855" lon="3.057747276933181"><ele>50.599999999999994</ele><time>2026-04-22T09:05:32Z</time></trkpt><trkpt lat="41.958151953366595" lon="3.0576368067920803"><ele>51.0</ele><time>2026-04-22T09:05:33Z</time></trkpt><trkpt lat="41.95817583093795" lon="3.0575361763335365"><ele>51.0</ele><time>2026-04-22T09:05:34Z</time></trkpt><trkpt lat="41.95821572717938" lon="3.0574461001950266"><ele>51.0</ele><time>2026-04-22T09:05:35Z</time></trkpt><trkpt lat="41.958275048578926" lon="3.057373054491185"><ele>51.0</ele><time>2026-04-22T09:05:36Z</time></trkpt><trkpt lat="41.95835200336896" lon="3.0573175486006545"><ele>51.0</ele><time>2026-04-22T09:05:37Z</time></trkpt><trkpt lat="41.958442575976335" lon="3.057286874453144"><ele>51.0</ele><time>2026-04-22T09:05:38Z</time></trkpt><trkpt lat="41.958541442836065" lon="3.0572879876218173"><ele>51.0</ele><time>2026-04-22T09:05:39Z</time></trkpt><trkpt lat="41.95864069982746" lon="3.0573226463613605"><ele>51.0</ele><time>2026-04-22T09:05:40Z</time></trkpt><trkpt lat="41.95874916328228" lon="3.0573689923131324"><ele>51.0</ele><time>2026-04-22T09:05:41Z</time></trkpt><trkpt lat="41.95886390062436" lon="3.0574207412153624"><ele>51.0</ele><time>2026-04-22T09:05:42Z</time></trkpt><trkpt lat="41.95898402838852" lon="3.0574738817352096"><ele>51.0</ele><time>2026-04-22T09:05:43Z</time></trkpt><trkpt lat="41.959102525060686" lon="3.0575369351035544"><ele>50.75</ele><time>2026-04-22T09:05:44Z</time></trkpt><trkpt lat="41.959213920824176" lon="3.057615576543366"><ele>50.5</ele><time>2026-04-22T09:05:45Z</time></trkpt><trkpt lat="41.95932251522427" lon="3.0576984455638763"><ele>50.25</ele><time>2026-04-22T09:05:46Z</time></trkpt><trkpt lat="41.959430008455705" lon="3.057783125033093"><ele>50.0</ele><time>2026-04-22T09:05:47Z</time></trkpt><trkpt lat="41.95953956932086" lon="3.0578657065170574"><ele>50.0</ele><time>2026-04-22T09:05:48Z</time></trkpt><trkpt lat="41.95964901925374" lon="3.0579485146622654"><ele>50.0</ele><time>2026-04-22T09:05:49Z</time></trkpt><trkpt lat="41.95975759363418" lon="3.058028451781325"><ele>50.0</ele><time>2026-04-22T09:05:50Z</time></trkpt><trkpt lat="41.95986064343549" lon="3.058110056562382"><ele>50.0</ele><time>2026-04-22T09:05:51Z</time></trkpt><trkpt lat="41.95996374568456" lon="3.0581899307749962"><ele>49.25</ele><time>2026-04-22T09:05:52Z</time></trkpt><trkpt lat="41.960065951587815" lon="3.058267035994568"><ele>48.5</ele><time>2026-04-22T09:05:53Z</time></trkpt><trkpt lat="41.96016659955239" lon="3.0583417623663327"><ele>47.75</ele><time>2026-04-22T09:05:54Z</time></trkpt><trkpt lat="41.960264442503885" lon="3.0584176631941893"><ele>47.0</ele><time>2026-04-22T09:05:55Z</time></trkpt><trkpt lat="41.96036040833381" lon="3.058494491514375"><ele>47.0</ele><time>2026-04-22T09:05:56Z</time></trkpt><trkpt lat="41.96045983970875" lon="3.0585775262882593"><ele>47.0</ele><time>2026-04-22T09:05:57Z</time></trkpt><trkpt lat="41.96056639865435" lon="3.0586596924690723"><ele>47.0</ele><time>2026-04-22T09:05:58Z</time></trkpt><trkpt lat="41.96067818541292" lon="3.058747008972289"><ele>47.0</ele><time>2026-04-22T09:05:59Z</time></trkpt><trkpt lat="41.96079752940326" lon="3.058840425134231"><ele>47.0</ele><time>2026-04-22T09:06:00Z</time></trkpt><trkpt lat="41.96092273890578" lon="3.058940085732267"><ele>47.0</ele><time>2026-04-22T09:06:01Z</time></trkpt><trkpt lat="41.96105587863747" lon="3.0590373710936065"><ele>47.0</ele><time>2026-04-22T09:06:02Z</time></trkpt><trkpt lat="41.9611847228033" lon="3.059136216464557"><ele>47.0</ele><time>2026-04-22T09:06:03Z</time></trkpt><trkpt lat="41.96131824993931" lon="3.0592404796559167"><ele>47.0</ele><time>2026-04-22T09:06:04Z</time></trkpt><trkpt lat="41.961453654308116" lon="3.05934696140348"><ele>47.0</ele><time>2026-04-22T09:06:05Z</time></trkpt><trkpt lat="41.96159752661201" lon="3.0594585356383726"><ele>47.0</ele><time>2026-04-22T09:06:06Z</time></trkpt><trkpt lat="41.96174603296228" lon="3.0595770460814298"><ele>48.0</ele><time>2026-04-22T09:06:07Z</time></trkpt><trkpt lat="41.96189920752568" lon="3.059695149429095"><ele>49.0</ele><time>2026-04-22T09:06:08Z</time></trkpt><trkpt lat="41.96205913554222" lon="3.0598198996825237"><ele>50.0</ele><time>2026-04-22T09:06:09Z</time></trkpt><trkpt lat="41.9622183409174" lon="3.0599434666096177"><ele>49.333333333333336</ele><time>2026-04-22T09:06:10Z</time></trkpt><trkpt lat="41.96238200731975" lon="3.060069315839782"><ele>48.66666666666667</ele><time>2026-04-22T09:06:11Z</time></trkpt><trkpt lat="41.96254299742106" lon="3.060192817913686"><ele>48.0</ele><time>2026-04-22T09:06:12Z</time></trkpt><trkpt lat="41.96270369866424" lon="3.0603185752034996"><ele>47.0</ele><time>2026-04-22T09:06:13Z</time></trkpt><trkpt lat="41.96286741770414" lon="3.060445917807724"><ele>46.0</ele><time>2026-04-22T09:06:14Z</time></trkpt><trkpt lat="41.96303516118446" lon="3.060576168753857"><ele>45.0</ele><time>2026-04-22T09:06:15Z</time></trkpt><trkpt lat="41.963203206014995" lon="3.0607046163956033"><ele>46.0</ele><time>2026-04-22T09:06:16Z</time></trkpt><trkpt lat="41.963373875334284" lon="3.060837216400919"><ele>47.0</ele><time>2026-04-22T09:06:17Z</time></trkpt><trkpt lat="41.96354499053001" lon="3.0609703405809405"><ele>48.0</ele><time>2026-04-22T09:06:18Z</time></trkpt><trkpt lat="41.96371760275673" lon="3.0611008679856284"><ele>48.0</ele><time>2026-04-22T09:06:19Z</time></trkpt><trkpt lat="41.96388856815836" lon="3.061232487190711"><ele>48.0</ele><time>2026-04-22T09:06:20Z</time></trkpt><trkpt lat="41.96406035282757" lon="3.061365725170434"><ele>48.0</ele><time>2026-04-22T09:06:21Z</time></trkpt><trkpt lat="41.964232997164224" lon="3.06149778642183"><ele>47.0</ele><time>2026-04-22T09:06:22Z</time></trkpt><trkpt lat="41.964406284527975" lon="3.0616291275975325"><ele>46.0</ele><time>2026-04-22T09:06:23Z</time></trkpt><trkpt lat="41.96457974291183" lon="3.0617633443862955"><ele>45.0</ele><time>2026-04-22T09:06:24Z</time></trkpt><trkpt lat="41.964757427014376" lon="3.061896588575666"><ele>45.0</ele><time>2026-04-22T09:06:25Z</time></trkpt><trkpt lat="41.9649305363037" lon="3.0620303249054457"><ele>45.0</ele><time>2026-04-22T09:06:26Z</time></trkpt><trkpt lat="41.965104766325645" lon="3.062164118861077"><ele>45.0</ele><time>2026-04-22T09:06:27Z</time></trkpt><trkpt lat="41.96527856254852" lon="3.0622957951822034"><ele>45.0</ele><time>2026-04-22T09:06:28Z</time></trkpt><trkpt lat="41.96545403896632" lon="3.062428327564186"><ele>45.0</ele><time>2026-04-22T09:06:29Z</time></trkpt><trkpt lat="41.96562875398122" lon="3.062558904450683"><ele>45.0</ele><time>2026-04-22T09:06:30Z</time></trkpt><trkpt lat="41.96580245240615" lon="3.0626932344954807"><ele>45.333333333333336</ele><time>2026-04-22T09:06:31Z</time></trkpt><trkpt lat="41.9659797320046" lon="3.0628284773771184"><ele>45.66666666666667</ele><time>2026-04-22T09:06:32Z</time></trkpt><trkpt lat="41.966152720192575" lon="3.062961184244012"><ele>46.0</ele><time>2026-04-22T09:06:33Z</time></trkpt><trkpt lat="41.96632602907145" lon="3.0630951363866963"><ele>46.0</ele><time>2026-04-22T09:06:34Z</time></trkpt><trkpt lat="41.966498285319076" lon="3.0632305913532094"><ele>46.0</ele><time>2026-04-22T09:06:35Z</time></trkpt><trkpt lat="41.96667258050513" lon="3.0633694583534856"><ele>46.0</ele><time>2026-04-22T09:06:36Z</time></trkpt><trkpt lat="41.96684657983489" lon="3.0635013643633036"><ele>45.0</ele><time>2026-04-22T09:06:37Z</time></trkpt><trkpt lat="41.96702121873475" lon="3.063636865934861"><ele>44.0</ele><time>2026-04-22T09:06:38Z</time></trkpt><trkpt lat="41.967191946796596" lon="3.063770957698781"><ele>43.0</ele><time>2026-04-22T09:06:39Z</time></trkpt><trkpt lat="41.96736306436615" lon="3.0639025119829943"><ele>43.333333333333336</ele><time>2026-04-22T09:06:40Z</time></trkpt><trkpt lat="41.96753752554652" lon="3.064035040277373"><ele>43.666666666666664</ele><time>2026-04-22T09:06:41Z</time></trkpt><trkpt lat="41.967709381904506" lon="3.064169394756468"><ele>44.0</ele><time>2026-04-22T09:06:42Z</time></trkpt><trkpt lat="41.96788076291095" lon="3.0643006954151613"><ele>43.33333333333333</ele><time>2026-04-22T09:06:43Z</time></trkpt><trkpt lat="41.96805247247775" lon="3.064430380195155"><ele>42.666666666666664</ele><time>2026-04-22T09:06:44Z</time></trkpt><trkpt lat="41.968222151162344" lon="3.064560292126743"><ele>42.0</ele><time>2026-04-22T09:06:45Z</time></trkpt><trkpt lat="41.96839131588901" lon="3.064690803788324"><ele>42.0</ele><time>2026-04-22T09:06:46Z</time></trkpt><trkpt lat="41.968558848604225" lon="3.0648250169427507"><ele>42.0</ele><time>2026-04-22T09:06:47Z</time></trkpt><trkpt lat="41.968728627780244" lon="3.0649577368747294"><ele>42.0</ele><time>2026-04-22T09:06:48Z</time></trkpt><trkpt lat="41.96889649430798" lon="3.065085490547294"><ele>42.0</ele><time>2026-04-22T09:06:49Z</time></trkpt><trkpt lat="41.969064326654795" lon="3.065216922360558"><ele>42.0</ele><time>2026-04-22T09:06:50Z</time></trkpt><trkpt lat="41.969234159935034" lon="3.065351282231186"><ele>42.0</ele><time>2026-04-22T09:06:51Z</time></trkpt><trkpt lat="41.96940493649745" lon="3.06548151362726"><ele>42.666666666666664</ele><time>2026-04-22T09:06:52Z</time></trkpt><trkpt lat="41.96957532797336" lon="3.0656116641469238"><ele>43.33333333333333</ele><time>2026-04-22T09:06:53Z</time></trkpt><trkpt lat="41.96974488074671" lon="3.065741968811035"><ele>44.0</ele><time>2026-04-22T09:06:54Z</time></trkpt><trkpt lat="41.96991454452155" lon="3.065872508017166"><ele>43.666666666666664</ele><time>2026-04-22T09:06:55Z</time></trkpt><trkpt lat="41.97008477935662" lon="3.066001603314757"><ele>43.333333333333336</ele><time>2026-04-22T09:06:56Z</time></trkpt><trkpt lat="41.97025501872063" lon="3.066134305965616"><ele>43.0</ele><time>2026-04-22T09:06:57Z</time></trkpt><trkpt lat="41.97042266702424" lon="3.0662642186154625"><ele>43.0</ele><time>2026-04-22T09:06:58Z</time></trkpt><trkpt lat="41.97059328362685" lon="3.0663961049187196"><ele>43.0</ele><time>2026-04-22T09:06:59Z</time></trkpt><trkpt lat="41.97076226851932" lon="3.066527851376192"><ele>43.0</ele><time>2026-04-22T09:07:00Z</time></trkpt><trkpt lat="41.97093128388635" lon="3.066656974641927"><ele>43.0</ele><time>2026-04-22T09:07:01Z</time></trkpt><trkpt lat="41.97110496534512" lon="3.0667880408517667"><ele>43.0</ele><time>2026-04-22T09:07:02Z</time></trkpt><trkpt lat="41.971276652166516" lon="3.0669188261926736"><ele>43.0</ele><time>2026-04-22T09:07:03Z</time></trkpt><trkpt lat="41.971446550515324" lon="3.067049356003293"><ele>43.0</ele><time>2026-04-22T09:07:04Z</time></trkpt><trkpt lat="41.97161593307733" lon="3.0671793427768494"><ele>43.0</ele><time>2026-04-22T09:07:05Z</time></trkpt><trkpt lat="41.97178603643671" lon="3.067310811149669"><ele>43.0</ele><time>2026-04-22T09:07:06Z</time></trkpt><trkpt lat="41.97195844997536" lon="3.067441416223158"><ele>42.66666666666667</ele><time>2026-04-22T09:07:07Z</time></trkpt><trkpt lat="41.97213195275226" lon="3.0675729557517357"><ele>42.333333333333336</ele><time>2026-04-22T09:07:08Z</time></trkpt><trkpt lat="41.97230451436018" lon="3.067706539262892"><ele>42.0</ele><time>2026-04-22T09:07:09Z</time></trkpt><trkpt lat="41.972473778867645" lon="3.06783817072916"><ele>41.666666666666664</ele><time>2026-04-22T09:07:10Z</time></trkpt><trkpt lat="41.9726447550741" lon="3.067968563496045"><ele>41.33333333333333</ele><time>2026-04-22T09:07:11Z</time></trkpt><trkpt lat="41.97281609271833" lon="3.0680998774717345"><ele>41.0</ele><time>2026-04-22T09:07:12Z</time></trkpt><trkpt lat="41.97298638683161" lon="3.0682314507030597"><ele>41.33333333333333</ele><time>2026-04-22T09:07:13Z</time></trkpt><trkpt lat="41.97315850274201" lon="3.068363956395405"><ele>41.666666666666664</ele><time>2026-04-22T09:07:14Z</time></trkpt><trkpt lat="41.973330576726056" lon="3.0684984916099505"><ele>42.0</ele><time>2026-04-22T09:07:15Z</time></trkpt><trkpt lat="41.97350225411012" lon="3.0686317935174934"><ele>41.333333333333336</ele><time>2026-04-22T09:07:16Z</time></trkpt><trkpt lat="41.9736761449199" lon="3.0687677012728334"><ele>40.66666666666667</ele><time>2026-04-22T09:07:17Z</time></trkpt><trkpt lat="41.97384931074368" lon="3.0689017185308862"><ele>40.0</ele><time>2026-04-22T09:07:18Z</time></trkpt><trkpt lat="41.974020662681255" lon="3.069034968824765"><ele>40.333333333333336</ele><time>2026-04-22T09:07:19Z</time></trkpt><trkpt lat="41.97419016367958" lon="3.0691670640186137"><ele>40.666666666666664</ele><time>2026-04-22T09:07:20Z</time></trkpt><trkpt lat="41.974355179786464" lon="3.0692940493134286"><ele>41.0</ele><time>2026-04-22T09:07:21Z</time></trkpt><trkpt lat="41.97451207365946" lon="3.0694142047475808"><ele>41.0</ele><time>2026-04-22T09:07:22Z</time></trkpt><trkpt lat="41.97465908776765" lon="3.069524163279739"><ele>41.0</ele><time>2026-04-22T09:07:23Z</time></trkpt><trkpt lat="41.97479703718777" lon="3.0696293838018365"><ele>41.0</ele><time>2026-04-22T09:07:24Z</time></trkpt><trkpt lat="41.9749252639712" lon="3.069726077390527"><ele>40.75</ele><time>2026-04-22T09:07:25Z</time></trkpt><trkpt lat="41.97504983084835" lon="3.0698237695307338"><ele>40.5</ele><time>2026-04-22T09:07:26Z</time></trkpt><trkpt lat="41.97516729629276" lon="3.069917169617382"><ele>40.25</ele><time>2026-04-22T09:07:27Z</time></trkpt><trkpt lat="41.97528139307265" lon="3.0700047497424547"><ele>40.0</ele><time>2026-04-22T09:07:28Z</time></trkpt><trkpt lat="41.975386061458565" lon="3.0700850967014373"><ele>40.0</ele><time>2026-04-22T09:07:29Z</time></trkpt><trkpt lat="41.975487453330764" lon="3.0701649692982413"><ele>40.0</ele><time>2026-04-22T09:07:30Z</time></trkpt><trkpt lat="41.975576723867995" lon="3.0702320343121334"><ele>40.0</ele><time>2026-04-22T09:07:31Z</time></trkpt><trkpt lat="41.97566003015596" lon="3.070295058942142"><ele>40.0</ele><time>2026-04-22T09:07:32Z</time></trkpt><trkpt lat="41.975738459116755" lon="3.070355205204683"><ele>40.0</ele><time>2026-04-22T09:07:33Z</time></trkpt><trkpt lat="41.975811404468516" lon="3.0704115841022452"><ele>40.14285714285714</ele><time>2026-04-22T09:07:34Z</time></trkpt><trkpt lat="41.975878969548084" lon="3.070466005944001"><ele>40.285714285714285</ele><time>2026-04-22T09:07:35Z</time></trkpt><trkpt lat="41.97594356072699" lon="3.0705167808961833"><ele>40.42857142857143</ele><time>2026-04-22T09:07:36Z</time></trkpt><trkpt lat="41.97599615001952" lon="3.07058349999907"><ele>40.57142857142857</ele><time>2026-04-22T09:07:37Z</time></trkpt><trkpt lat="41.97603469304418" lon="3.070669369112492"><ele>40.714285714285715</ele><time>2026-04-22T09:07:38Z</time></trkpt><trkpt lat="41.976067500246366" lon="3.07075565032864"><ele>40.857142857142854</ele><time>2026-04-22T09:07:39Z</time></trkpt><trkpt lat="41.976120054948034" lon="3.0708226360894133"><ele>41.0</ele><time>2026-04-22T09:07:40Z</time></trkpt><trkpt lat="41.97618530182477" lon="3.070857710434453"><ele>41.0</ele><time>2026-04-22T09:07:41Z</time></trkpt><trkpt lat="41.976255646833344" lon="3.070860605718181"><ele>41.0</ele><time>2026-04-22T09:07:42Z</time></trkpt><trkpt lat="41.9763264248094" lon="3.0708407629873644"><ele>41.0</ele><time>2026-04-22T09:07:43Z</time></trkpt><trkpt lat="41.97638267956412" lon="3.070763616752325"><ele>41.0</ele><time>2026-04-22T09:07:44Z</time></trkpt><trkpt lat="41.97643873983306" lon="3.0706820995038524"><ele>41.0</ele><time>2026-04-22T09:07:45Z</time></trkpt><trkpt lat="41.97650764368408" lon="3.070613968532265"><ele>41.0</ele><time>2026-04-22T09:07:46Z</time></trkpt><trkpt lat="41.97659703121792" lon="3.070570656177177"><ele>40.5</ele><time>2026-04-22T09:07:47Z</time></trkpt><trkpt lat="41.976701143933546" lon="3.070549937151257"><ele>40.0</ele><time>2026-04-22T09:07:48Z</time></trkpt><trkpt lat="41.97681417933551" lon="3.070542791706858"><ele>39.5</ele><time>2026-04-22T09:07:49Z</time></trkpt><trkpt lat="41.9769404603732" lon="3.070550575684035"><ele>39.0</ele><time>2026-04-22T09:07:50Z</time></trkpt><trkpt lat="41.97707718547352" lon="3.0705572432452537"><ele>39.0</ele><time>2026-04-22T09:07:51Z</time></trkpt><trkpt lat="41.97722447051968" lon="3.0705553482909833"><ele>39.0</ele><time>2026-04-22T09:07:52Z</time></trkpt><trkpt lat="41.97737841378618" lon="3.0705578777234352"><ele>39.0</ele><time>2026-04-22T09:07:53Z</time></trkpt><trkpt lat="41.977530971912195" lon="3.0705602246411865"><ele>38.333333333333336</ele><time>2026-04-22T09:07:54Z</time></trkpt><trkpt lat="41.97768839771819" lon="3.070563927875222"><ele>37.66666666666667</ele><time>2026-04-22T09:07:55Z</time></trkpt><trkpt lat="41.97784997255751" lon="3.070568974637097"><ele>37.0</ele><time>2026-04-22T09:07:56Z</time></trkpt><trkpt lat="41.97801779083712" lon="3.0705705395020986"><ele>37.0</ele><time>2026-04-22T09:07:57Z</time></trkpt><trkpt lat="41.97819397282823" lon="3.070567606136057"><ele>37.0</ele><time>2026-04-22T09:07:58Z</time></trkpt><trkpt lat="41.978365387008324" lon="3.0705670170141897"><ele>37.0</ele><time>2026-04-22T09:07:59Z</time></trkpt><trkpt lat="41.978534194513585" lon="3.070572797195969"><ele>37.66666666666667</ele><time>2026-04-22T09:08:00Z</time></trkpt><trkpt lat="41.97870933513778" lon="3.0705772633293646"><ele>38.333333333333336</ele><time>2026-04-22T09:08:01Z</time></trkpt><trkpt lat="41.97888409637689" lon="3.0705801519662006"><ele>39.0</ele><time>2026-04-22T09:08:02Z</time></trkpt><trkpt lat="41.97906452244675" lon="3.0705813165480222"><ele>39.333333333333336</ele><time>2026-04-22T09:08:03Z</time></trkpt><trkpt lat="41.97924650557426" lon="3.0705844398617534"><ele>39.66666666666667</ele><time>2026-04-22T09:08:04Z</time></trkpt><trkpt lat="41.97943484266986" lon="3.0705886115737604"><ele>40.0</ele><time>2026-04-22T09:08:05Z</time></trkpt><trkpt lat="41.97962145794902" lon="3.0705879616274108"><ele>40.0</ele><time>2026-04-22T09:08:06Z</time></trkpt><trkpt lat="41.97981201733332" lon="3.070591969943539"><ele>40.0</ele><time>2026-04-22T09:08:07Z</time></trkpt><trkpt lat="41.9800034387738" lon="3.0705940311889894"><ele>40.0</ele><time>2026-04-22T09:08:08Z</time></trkpt><trkpt lat="41.9801962391246" lon="3.0705983891592665"><ele>40.66666666666667</ele><time>2026-04-22T09:08:09Z</time></trkpt><trkpt lat="41.98038886669254" lon="3.0706025303501088"><ele>41.333333333333336</ele><time>2026-04-22T09:08:10Z</time></trkpt><trkpt lat="41.98058084934517" lon="3.070609061791543"><ele>42.0</ele><time>2026-04-22T09:08:11Z</time></trkpt><trkpt lat="41.98077423747799" lon="3.070612106993199"><ele>43.666666666666664</ele><time>2026-04-22T09:08:12Z</time></trkpt><trkpt lat="41.98096514765233" lon="3.07061364113662"><ele>45.33333333333333</ele><time>2026-04-22T09:08:13Z</time></trkpt><trkpt lat="41.98116243547161" lon="3.070615232807699"><ele>47.0</ele><time>2026-04-22T09:08:14Z</time></trkpt><trkpt lat="41.98135724455995" lon="3.0706152088004703"><ele>47.0</ele><time>2026-04-22T09:08:15Z</time></trkpt><trkpt lat="41.98155132279743" lon="3.070617488813745"><ele>47.0</ele><time>2026-04-22T09:08:16Z</time></trkpt><trkpt lat="41.98174802523669" lon="3.0706208439526033"><ele>47.0</ele><time>2026-04-22T09:08:17Z</time></trkpt><trkpt lat="41.981945507450305" lon="3.0706257270759107"><ele>48.0</ele><time>2026-04-22T09:08:18Z</time></trkpt><trkpt lat="41.98214483256433" lon="3.070628584404577"><ele>49.0</ele><time>2026-04-22T09:08:19Z</time></trkpt><trkpt lat="41.98234103636623" lon="3.070628584248995"><ele>50.0</ele><time>2026-04-22T09:08:20Z</time></trkpt><trkpt lat="41.982536981854146" lon="3.070633277023496"><ele>51.333333333333336</ele><time>2026-04-22T09:08:21Z</time></trkpt><trkpt lat="41.98273341796413" lon="3.0706360672436195"><ele>52.66666666666667</ele><time>2026-04-22T09:08:22Z</time></trkpt><trkpt lat="41.982930432941515" lon="3.0706388441663077"><ele>54.0</ele><time>2026-04-22T09:08:23Z</time></trkpt><trkpt lat="41.98312706351441" lon="3.0706419353552783"><ele>54.0</ele><time>2026-04-22T09:08:24Z</time></trkpt><trkpt lat="41.983325803506716" lon="3.070646983053141"><ele>54.0</ele><time>2026-04-22T09:08:25Z</time></trkpt><trkpt lat="41.98352310507409" lon="3.070649182234526"><ele>54.0</ele><time>2026-04-22T09:08:26Z</time></trkpt><trkpt lat="41.98371912568482" lon="3.070652415679123"><ele>54.0</ele><time>2026-04-22T09:08:27Z</time></trkpt><trkpt lat="41.983920225256895" lon="3.0706546479489725"><ele>54.0</ele><time>2026-04-22T09:08:28Z</time></trkpt><trkpt lat="41.98411622013614" lon="3.0706590245767726"><ele>54.0</ele><time>2026-04-22T09:08:29Z</time></trkpt><trkpt lat="41.98431766691561" lon="3.0706569832158004"><ele>54.66666666666667</ele><time>2026-04-22T09:08:30Z</time></trkpt><trkpt lat="41.9845161629538" lon="3.0706610761273145"><ele>55.333333333333336</ele><time>2026-04-22T09:08:31Z</time></trkpt><trkpt lat="41.98471518416698" lon="3.0706654150603883"><ele>56.0</ele><time>2026-04-22T09:08:32Z</time></trkpt><trkpt lat="41.984915111238756" lon="3.0706679459046975"><ele>55.66666666666667</ele><time>2026-04-22T09:08:33Z</time></trkpt><trkpt lat="41.985114773357665" lon="3.070671572740871"><ele>55.33333333333333</ele><time>2026-04-22T09:08:34Z</time></trkpt><trkpt lat="41.98531395349263" lon="3.070670799849064"><ele>55.0</ele><time>2026-04-22T09:08:35Z</time></trkpt><trkpt lat="41.98551278387764" lon="3.0706741048843207"><ele>55.0</ele><time>2026-04-22T09:08:36Z</time></trkpt><trkpt lat="41.985712810577" lon="3.0706793795429213"><ele>55.0</ele><time>2026-04-22T09:08:37Z</time></trkpt><trkpt lat="41.985909429360625" lon="3.0706789095362006"><ele>55.0</ele><time>2026-04-22T09:08:38Z</time></trkpt><trkpt lat="41.98610971643146" lon="3.070681112321139"><ele>55.0</ele><time>2026-04-22T09:08:39Z</time></trkpt><trkpt lat="41.986305887022404" lon="3.0706712275769537"><ele>55.0</ele><time>2026-04-22T09:08:40Z</time></trkpt><trkpt lat="41.98649973981566" lon="3.0706506026471105"><ele>55.0</ele><time>2026-04-22T09:08:41Z</time></trkpt><trkpt lat="41.986690884776586" lon="3.0706183790370525"><ele>55.0</ele><time>2026-04-22T09:08:42Z</time></trkpt><trkpt lat="41.9868863960199" lon="3.07059087782425"><ele>55.0</ele><time>2026-04-22T09:08:43Z</time></trkpt><trkpt lat="41.987083759803234" lon="3.070565391209802"><ele>55.0</ele><time>2026-04-22T09:08:44Z</time></trkpt><trkpt lat="41.987280190850235" lon="3.070537266633489"><ele>55.0</ele><time>2026-04-22T09:08:45Z</time></trkpt><trkpt lat="41.98747837335269" lon="3.0705096917402246"><ele>55.0</ele><time>2026-04-22T09:08:46Z</time></trkpt><trkpt lat="41.98767625496044" lon="3.070481616221853"><ele>55.0</ele><time>2026-04-22T09:08:47Z</time></trkpt><trkpt lat="41.98787341673293" lon="3.070452363765149"><ele>54.33333333333333</ele><time>2026-04-22T09:08:48Z</time></trkpt><trkpt lat="41.98807160920737" lon="3.0704239850103385"><ele>53.66666666666667</ele><time>2026-04-22T09:08:49Z</time></trkpt><trkpt lat="41.9882710483363" lon="3.070397345176692"><ele>53.0</ele><time>2026-04-22T09:08:50Z</time></trkpt><trkpt lat="41.98846756813383" lon="3.0703665559163866"><ele>52.66666666666667</ele><time>2026-04-22T09:08:51Z</time></trkpt><trkpt lat="41.988666870788784" lon="3.0703382256932525"><ele>52.33333333333333</ele><time>2026-04-22T09:08:52Z</time></trkpt><trkpt lat="41.988864909587264" lon="3.070308648862536"><ele>52.0</ele><time>2026-04-22T09:08:53Z</time></trkpt><trkpt lat="41.98906425541053" lon="3.0702826282568294"><ele>53.0</ele><time>2026-04-22T09:08:54Z</time></trkpt><trkpt lat="41.98926222790656" lon="3.070255304074434"><ele>54.0</ele><time>2026-04-22T09:08:55Z</time></trkpt><trkpt lat="41.98945993237224" lon="3.0702260702348005"><ele>55.0</ele><time>2026-04-22T09:08:56Z</time></trkpt><trkpt lat="41.98965901118419" lon="3.0701980999665963"><ele>55.0</ele><time>2026-04-22T09:08:57Z</time></trkpt><trkpt lat="41.989857790264644" lon="3.0701716825242094"><ele>55.0</ele><time>2026-04-22T09:08:58Z</time></trkpt><trkpt lat="41.99005551363415" lon="3.0701429113400165"><ele>55.0</ele><time>2026-04-22T09:08:59Z</time></trkpt><trkpt lat="41.99024908285209" lon="3.0701180840000353"><ele>55.0</ele><time>2026-04-22T09:09:00Z</time></trkpt><trkpt lat="41.99044513086504" lon="3.0700928078225904"><ele>55.0</ele><time>2026-04-22T09:09:01Z</time></trkpt><trkpt lat="41.99064083734247" lon="3.0700645041072723"><ele>55.0</ele><time>2026-04-22T09:09:02Z</time></trkpt><trkpt lat="41.99083728583129" lon="3.0700365991806966"><ele>55.33333333333333</ele><time>2026-04-22T09:09:03Z</time></trkpt><trkpt lat="41.991034060299825" lon="3.0700063668361364"><ele>55.66666666666667</ele><time>2026-04-22T09:09:04Z</time></trkpt><trkpt lat="41.991228007837066" lon="3.0699779936349976"><ele>56.0</ele><time>2026-04-22T09:09:05Z</time></trkpt><trkpt lat="41.99142019738167" lon="3.0699502905930136"><ele>54.0</ele><time>2026-04-22T09:09:06Z</time></trkpt><trkpt lat="41.99161555007644" lon="3.0699219316110073"><ele>52.0</ele><time>2026-04-22T09:09:07Z</time></trkpt><trkpt lat="41.99181066640332" lon="3.0698937591966042"><ele>50.0</ele><time>2026-04-22T09:09:08Z</time></trkpt><trkpt lat="41.992007265840144" lon="3.0698675599591394"><ele>50.0</ele><time>2026-04-22T09:09:09Z</time></trkpt><trkpt lat="41.99220609743212" lon="3.0698400678718833"><ele>50.0</ele><time>2026-04-22T09:09:10Z</time></trkpt><trkpt lat="41.99240549988591" lon="3.0698116062695653"><ele>50.0</ele><time>2026-04-22T09:09:11Z</time></trkpt><trkpt lat="41.99260694095891" lon="3.0697820773127127"><ele>49.333333333333336</ele><time>2026-04-22T09:09:12Z</time></trkpt><trkpt lat="41.992806897239504" lon="3.0697528351454912"><ele>48.66666666666667</ele><time>2026-04-22T09:09:13Z</time></trkpt><trkpt lat="41.993005630350986" lon="3.0697234788604404"><ele>48.0</ele><time>2026-04-22T09:09:14Z</time></trkpt><trkpt lat="41.99320278541773" lon="3.0696943837148836"><ele>48.66666666666667</ele><time>2026-04-22T09:09:15Z</time></trkpt><trkpt lat="41.99340034856971" lon="3.0696668112962646"><ele>49.333333333333336</ele><time>2026-04-22T09:09:16Z</time></trkpt><trkpt lat="41.99359909801922" lon="3.069637667919112"><ele>50.0</ele><time>2026-04-22T09:09:17Z</time></trkpt><trkpt lat="41.993796302040174" lon="3.069610871377939"><ele>50.0</ele><time>2026-04-22T09:09:18Z</time></trkpt><trkpt lat="41.9939915942548" lon="3.069586299158778"><ele>50.0</ele><time>2026-04-22T09:09:19Z</time></trkpt><trkpt lat="41.99418708005606" lon="3.069570863457339"><ele>50.0</ele><time>2026-04-22T09:09:20Z</time></trkpt><trkpt lat="41.99438303633139" lon="3.069568939113297"><ele>49.66666666666667</ele><time>2026-04-22T09:09:21Z</time></trkpt><trkpt lat="41.99457743537111" lon="3.0695767103480294"><ele>49.33333333333333</ele><time>2026-04-22T09:09:22Z</time></trkpt><trkpt lat="41.99477302705549" lon="3.0695864923751053"><ele>49.0</ele><time>2026-04-22T09:09:23Z</time></trkpt><trkpt lat="41.99497013356426" lon="3.0695968694448674"><ele>48.666666666666664</ele><time>2026-04-22T09:09:24Z</time></trkpt><trkpt lat="41.995168124481594" lon="3.069607729642005"><ele>48.33333333333333</ele><time>2026-04-22T09:09:25Z</time></trkpt><trkpt lat="41.9953638893446" lon="3.0696184587977813"><ele>48.0</ele><time>2026-04-22T09:09:26Z</time></trkpt><trkpt lat="41.995559290765804" lon="3.0696318536996867"><ele>48.0</ele><time>2026-04-22T09:09:27Z</time></trkpt><trkpt lat="41.99575490499134" lon="3.069644055870352"><ele>48.0</ele><time>2026-04-22T09:09:28Z</time></trkpt><trkpt lat="41.99594249460456" lon="3.069656005985419"><ele>48.0</ele><time>2026-04-22T09:09:29Z</time></trkpt><trkpt lat="41.99612753738666" lon="3.0696649472810464"><ele>47.333333333333336</ele><time>2026-04-22T09:09:30Z</time></trkpt><trkpt lat="41.996304565396535" lon="3.0696766468777104"><ele>46.66666666666667</ele><time>2026-04-22T09:09:31Z</time></trkpt><trkpt lat="41.996480213905016" lon="3.0696843142282595"><ele>46.0</ele><time>2026-04-22T09:09:32Z</time></trkpt><trkpt lat="41.99665222421715" lon="3.069694665776639"><ele>45.333333333333336</ele><time>2026-04-22T09:09:33Z</time></trkpt><trkpt lat="41.99682081466165" lon="3.0697037615816445"><ele>44.666666666666664</ele><time>2026-04-22T09:09:34Z</time></trkpt><trkpt lat="41.99697795013352" lon="3.06971244660879"><ele>44.0</ele><time>2026-04-22T09:09:35Z</time></trkpt><trkpt lat="41.997127225322906" lon="3.0697240549571583"><ele>44.0</ele><time>2026-04-22T09:09:36Z</time></trkpt><trkpt lat="41.99727155447943" lon="3.069729859307781"><ele>44.0</ele><time>2026-04-22T09:09:37Z</time></trkpt><trkpt lat="41.99740826472961" lon="3.0697384028123498"><ele>44.0</ele><time>2026-04-22T09:09:38Z</time></trkpt><trkpt lat="41.99753885259126" lon="3.06974618633893"><ele>44.0</ele><time>2026-04-22T09:09:39Z</time></trkpt><trkpt lat="41.997660980710336" lon="3.06975332080654"><ele>44.25</ele><time>2026-04-22T09:09:40Z</time></trkpt><trkpt lat="41.99777965684047" lon="3.0697595868449543"><ele>44.5</ele><time>2026-04-22T09:09:41Z</time></trkpt><trkpt lat="41.99789721173374" lon="3.0697689934941774"><ele>44.75</ele><time>2026-04-22T09:09:42Z</time></trkpt><trkpt lat="41.99800580642261" lon="3.069775327711631"><ele>45.0</ele><time>2026-04-22T09:09:43Z</time></trkpt><trkpt lat="41.998112533706646" lon="3.0697786675245124"><ele>45.0</ele><time>2026-04-22T09:09:44Z</time></trkpt><trkpt lat="41.99822366518313" lon="3.069782753627566"><ele>45.0</ele><time>2026-04-22T09:09:45Z</time></trkpt><trkpt lat="41.99833434162573" lon="3.069787828870382"><ele>45.0</ele><time>2026-04-22T09:09:46Z</time></trkpt><trkpt lat="41.998448365407654" lon="3.069793131026561"><ele>45.0</ele><time>2026-04-22T09:09:47Z</time></trkpt><trkpt lat="41.99855943835766" lon="3.069800291962871"><ele>45.0</ele><time>2026-04-22T09:09:48Z</time></trkpt><trkpt lat="41.99867085932237" lon="3.069807603486108"><ele>45.4</ele><time>2026-04-22T09:09:49Z</time></trkpt><trkpt lat="41.998781418708575" lon="3.0698139317541284"><ele>45.8</ele><time>2026-04-22T09:09:50Z</time></trkpt><trkpt lat="41.99889248563444" lon="3.069815535711451"><ele>46.2</ele><time>2026-04-22T09:09:51Z</time></trkpt><trkpt lat="41.99900475368551" lon="3.0698221059565505"><ele>46.6</ele><time>2026-04-22T09:09:52Z</time></trkpt><trkpt lat="41.999112717084074" lon="3.0698277301540116"><ele>47.0</ele><time>2026-04-22T09:09:53Z</time></trkpt><trkpt lat="41.999223515370765" lon="3.0698320313324023"><ele>47.8</ele><time>2026-04-22T09:09:54Z</time></trkpt><trkpt lat="41.999330074804085" lon="3.069833203842324"><ele>48.6</ele><time>2026-04-22T09:09:55Z</time></trkpt><trkpt lat="41.99944194819693" lon="3.069842590421538"><ele>49.4</ele><time>2026-04-22T09:09:56Z</time></trkpt><trkpt lat="41.999551746565864" lon="3.0698481746398416"><ele>50.199999999999996</ele><time>2026-04-22T09:09:57Z</time></trkpt><trkpt lat="41.999655595276224" lon="3.06985411017224"><ele>51.0</ele><time>2026-04-22T09:09:58Z</time></trkpt><trkpt lat="41.999754310712284" lon="3.069856191397496"><ele>51.0</ele><time>2026-04-22T09:09:59Z</time></trkpt><trkpt lat="41.99984873038263" lon="3.0698621738909204"><ele>51.0</ele><time>2026-04-22T09:10:00Z</time></trkpt><trkpt lat="41.999939312421134" lon="3.0698666362441576"><ele>51.0</ele><time>2026-04-22T09:10:01Z</time></trkpt><trkpt lat="42.00002657015823" lon="3.06987362736588"><ele>51.0</ele><time>2026-04-22T09:10:02Z</time></trkpt><trkpt lat="42.00010891171369" lon="3.0698827235367956"><ele>51.0</ele><time>2026-04-22T09:10:03Z</time></trkpt><trkpt lat="42.000184655797504" lon="3.069899070336259"><ele>51.0</ele><time>2026-04-22T09:10:04Z</time></trkpt><trkpt lat="42.0003128189291" lon="3.0699293784591117"><ele>50.0</ele><time>2026-04-22T09:10:06Z</time></trkpt><trkpt lat="42.00038104985433" lon="3.069961631856998"><ele>49.0</ele><time>2026-04-22T09:10:07Z</time></trkpt><trkpt lat="42.00044015760749" lon="3.0700035256389273"><ele>48.0</ele><time>2026-04-22T09:10:08Z</time></trkpt><trkpt lat="42.000498578905194" lon="3.070058164878331"><ele>47.0</ele><time>2026-04-22T09:10:09Z</time></trkpt><trkpt lat="42.000561190552105" lon="3.070091283011619"><ele>46.0</ele><time>2026-04-22T09:10:10Z</time></trkpt><trkpt lat="42.00062664847197" lon="3.070082024626792"><ele>45.0</ele><time>2026-04-22T09:10:11Z</time></trkpt><trkpt lat="42.00068362596202" lon="3.0700374077789467"><ele>44.0</ele><time>2026-04-22T09:10:12Z</time></trkpt><trkpt lat="42.00073932111977" lon="3.069988883483149"><ele>44.0</ele><time>2026-04-22T09:10:13Z</time></trkpt><trkpt lat="42.00080232287131" lon="3.0699526077549173"><ele>44.0</ele><time>2026-04-22T09:10:14Z</time></trkpt><trkpt lat="42.000867694385576" lon="3.069925162266129"><ele>44.0</ele><time>2026-04-22T09:10:15Z</time></trkpt><trkpt lat="42.00093989138653" lon="3.0699117462836893"><ele>44.0</ele><time>2026-04-22T09:10:16Z</time></trkpt><trkpt lat="42.00101799550736" lon="3.0699121791047865"><ele>44.0</ele><time>2026-04-22T09:10:17Z</time></trkpt><trkpt lat="42.00109979753856" lon="3.0699218412147933"><ele>44.0</ele><time>2026-04-22T09:10:18Z</time></trkpt><trkpt lat="42.001192752718" lon="3.069928162521622"><ele>43.6</ele><time>2026-04-22T09:10:19Z</time></trkpt><trkpt lat="42.00129040712172" lon="3.0699340720020643"><ele>43.2</ele><time>2026-04-22T09:10:20Z</time></trkpt><trkpt lat="42.00139166186353" lon="3.0699394872171366"><ele>42.800000000000004</ele><time>2026-04-22T09:10:21Z</time></trkpt><trkpt lat="42.001497149419485" lon="3.069944973639998"><ele>42.400000000000006</ele><time>2026-04-22T09:10:22Z</time></trkpt><trkpt lat="42.001602011315505" lon="3.0699537557493914"><ele>42.0</ele><time>2026-04-22T09:10:23Z</time></trkpt><trkpt lat="42.001707356428355" lon="3.0699608932761815"><ele>41.8</ele><time>2026-04-22T09:10:24Z</time></trkpt><trkpt lat="42.0018108003335" lon="3.0699682984654304"><ele>41.6</ele><time>2026-04-22T09:10:25Z</time></trkpt><trkpt lat="42.00191776660647" lon="3.0699739189847848"><ele>41.4</ele><time>2026-04-22T09:10:26Z</time></trkpt><trkpt lat="42.00203184162172" lon="3.069981242391832"><ele>41.199999999999996</ele><time>2026-04-22T09:10:27Z</time></trkpt><trkpt lat="42.00215368527405" lon="3.0699893968202425"><ele>41.0</ele><time>2026-04-22T09:10:28Z</time></trkpt><trkpt lat="42.00228508573697" lon="3.069998448511584"><ele>41.0</ele><time>2026-04-22T09:10:29Z</time></trkpt><trkpt lat="42.00242061243295" lon="3.0700053240650265"><ele>41.0</ele><time>2026-04-22T09:10:30Z</time></trkpt><trkpt lat="42.00256421615494" lon="3.070013924499703"><ele>41.0</ele><time>2026-04-22T09:10:31Z</time></trkpt><trkpt lat="42.002711904612696" lon="3.0700210761942217"><ele>41.0</ele><time>2026-04-22T09:10:32Z</time></trkpt><trkpt lat="42.00286760639835" lon="3.0700294145370823"><ele>40.33333333333333</ele><time>2026-04-22T09:10:33Z</time></trkpt><trkpt lat="42.003026763209476" lon="3.0700362909679555"><ele>39.666666666666664</ele><time>2026-04-22T09:10:34Z</time></trkpt><trkpt lat="42.003189792443884" lon="3.0700449185159995"><ele>39.0</ele><time>2026-04-22T09:10:35Z</time></trkpt><trkpt lat="42.00336094548938" lon="3.0700558522960937"><ele>37.666666666666664</ele><time>2026-04-22T09:10:36Z</time></trkpt><trkpt lat="42.003534339693395" lon="3.0700658390803675"><ele>36.33333333333333</ele><time>2026-04-22T09:10:37Z</time></trkpt><trkpt lat="42.003711765357885" lon="3.070077806122738"><ele>35.0</ele><time>2026-04-22T09:10:38Z</time></trkpt><trkpt lat="42.003894798364755" lon="3.070090362491373"><ele>35.0</ele><time>2026-04-22T09:10:39Z</time></trkpt><trkpt lat="42.004077593609274" lon="3.0701020486798942"><ele>35.0</ele><time>2026-04-22T09:10:40Z</time></trkpt><trkpt lat="42.00426689190811" lon="3.07011428354689"><ele>35.0</ele><time>2026-04-22T09:10:41Z</time></trkpt><trkpt lat="42.00445677334546" lon="3.070124401470505"><ele>34.33333333333333</ele><time>2026-04-22T09:10:42Z</time></trkpt><trkpt lat="42.00464928067849" lon="3.07013629847425"><ele>33.666666666666664</ele><time>2026-04-22T09:10:43Z</time></trkpt><trkpt lat="42.00484502673503" lon="3.0701481374427497"><ele>33.0</ele><time>2026-04-22T09:10:44Z</time></trkpt><trkpt lat="42.00504276670283" lon="3.070163531147355"><ele>33.0</ele><time>2026-04-22T09:10:45Z</time></trkpt><trkpt lat="42.005237922553015" lon="3.070175501440143"><ele>33.0</ele><time>2026-04-22T09:10:46Z</time></trkpt><trkpt lat="42.005435598447356" lon="3.0701891961605647"><ele>33.0</ele><time>2026-04-22T09:10:47Z</time></trkpt><trkpt lat="42.00562939513759" lon="3.070200429088136"><ele>33.0</ele><time>2026-04-22T09:10:48Z</time></trkpt><trkpt lat="42.00582348298371" lon="3.070211708276424"><ele>33.0</ele><time>2026-04-22T09:10:49Z</time></trkpt><trkpt lat="42.006018255021885" lon="3.0702249043965337"><ele>33.0</ele><time>2026-04-22T09:10:50Z</time></trkpt><trkpt lat="42.0062135434497" lon="3.0702347521788322"><ele>32.0</ele><time>2026-04-22T09:10:51Z</time></trkpt><trkpt lat="42.00640871724749" lon="3.070244474454673"><ele>31.0</ele><time>2026-04-22T09:10:52Z</time></trkpt><trkpt lat="42.00660397212206" lon="3.0702563171797546"><ele>30.0</ele><time>2026-04-22T09:10:53Z</time></trkpt><trkpt lat="42.006802465931266" lon="3.070271140963432"><ele>29.0</ele><time>2026-04-22T09:10:54Z</time></trkpt><trkpt lat="42.006995980705625" lon="3.070281877511519"><ele>28.0</ele><time>2026-04-22T09:10:55Z</time></trkpt><trkpt lat="42.00719300767265" lon="3.070290979053607"><ele>27.0</ele><time>2026-04-22T09:10:56Z</time></trkpt><trkpt lat="42.00739069770294" lon="3.0703028856654906"><ele>27.333333333333336</ele><time>2026-04-22T09:10:57Z</time></trkpt><trkpt lat="42.00758775576466" lon="3.070314355094547"><ele>27.666666666666668</ele><time>2026-04-22T09:10:58Z</time></trkpt><trkpt lat="42.007787066482045" lon="3.070328287370053"><ele>28.0</ele><time>2026-04-22T09:10:59Z</time></trkpt><trkpt lat="42.00798559010332" lon="3.0703392399147673"><ele>28.0</ele><time>2026-04-22T09:11:00Z</time></trkpt><trkpt lat="42.00818413525629" lon="3.070352175187407"><ele>28.0</ele><time>2026-04-22T09:11:01Z</time></trkpt><trkpt lat="42.00838140904294" lon="3.0703653426502857"><ele>28.0</ele><time>2026-04-22T09:11:02Z</time></trkpt><trkpt lat="42.00857999834541" lon="3.070377300960416"><ele>27.333333333333336</ele><time>2026-04-22T09:11:03Z</time></trkpt><trkpt lat="42.00877699649013" lon="3.0703864628233117"><ele>26.666666666666664</ele><time>2026-04-22T09:11:04Z</time></trkpt><trkpt lat="42.008974641568265" lon="3.070400563217368"><ele>26.0</ele><time>2026-04-22T09:11:05Z</time></trkpt><trkpt lat="42.00917426799247" lon="3.0704146979515783"><ele>26.0</ele><time>2026-04-22T09:11:06Z</time></trkpt><trkpt lat="42.00937108044626" lon="3.070425887392319"><ele>26.0</ele><time>2026-04-22T09:11:07Z</time></trkpt><trkpt lat="42.00957173503033" lon="3.070437044368094"><ele>26.0</ele><time>2026-04-22T09:11:08Z</time></trkpt><trkpt lat="42.00976941956613" lon="3.070448644786275"><ele>26.0</ele><time>2026-04-22T09:11:09Z</time></trkpt><trkpt lat="42.009969987437245" lon="3.0704606431043024"><ele>26.0</ele><time>2026-04-22T09:11:10Z</time></trkpt><trkpt lat="42.010168764444884" lon="3.0704703711339847"><ele>26.0</ele><time>2026-04-22T09:11:11Z</time></trkpt><trkpt lat="42.010367097912564" lon="3.07048259352199"><ele>25.333333333333332</ele><time>2026-04-22T09:11:12Z</time></trkpt><trkpt lat="42.0105658339121" lon="3.070492639368132"><ele>24.666666666666664</ele><time>2026-04-22T09:11:13Z</time></trkpt><trkpt lat="42.010765153220525" lon="3.0705041021101067"><ele>24.0</ele><time>2026-04-22T09:11:14Z</time></trkpt><trkpt lat="42.01096335847517" lon="3.0705151106197506"><ele>23.333333333333332</ele><time>2026-04-22T09:11:15Z</time></trkpt><trkpt lat="42.01116200516605" lon="3.070526861127484"><ele>22.666666666666664</ele><time>2026-04-22T09:11:16Z</time></trkpt><trkpt lat="42.01136159068634" lon="3.070540680365854"><ele>22.0</ele><time>2026-04-22T09:11:17Z</time></trkpt><trkpt lat="42.011557584345255" lon="3.070551524018766"><ele>20.333333333333332</ele><time>2026-04-22T09:11:18Z</time></trkpt><trkpt lat="42.01175431158864" lon="3.070559963660144"><ele>18.666666666666668</ele><time>2026-04-22T09:11:19Z</time></trkpt><trkpt lat="42.01195099409379" lon="3.07057040214395"><ele>17.0</ele><time>2026-04-22T09:11:20Z</time></trkpt><trkpt lat="42.01214520978696" lon="3.070579573939968"><ele>17.0</ele><time>2026-04-22T09:11:21Z</time></trkpt><trkpt lat="42.012342856221686" lon="3.0705935839003806"><ele>17.0</ele><time>2026-04-22T09:11:22Z</time></trkpt><trkpt lat="42.012541460759515" lon="3.0706062728045915"><ele>17.0</ele><time>2026-04-22T09:11:23Z</time></trkpt><trkpt lat="42.01274205547008" lon="3.0706192191443877"><ele>16.666666666666668</ele><time>2026-04-22T09:11:24Z</time></trkpt><trkpt lat="42.0129422541196" lon="3.0706329353693214"><ele>16.333333333333332</ele><time>2026-04-22T09:11:25Z</time></trkpt><trkpt lat="42.01313853761083" lon="3.0706464796247803"><ele>16.0</ele><time>2026-04-22T09:11:26Z</time></trkpt><trkpt lat="42.01333320755224" lon="3.070657734548377"><ele>15.333333333333332</ele><time>2026-04-22T09:11:27Z</time></trkpt><trkpt lat="42.013529286563156" lon="3.070668885281198"><ele>14.666666666666668</ele><time>2026-04-22T09:11:28Z</time></trkpt><trkpt lat="42.0137226133172" lon="3.0706789801342733"><ele>14.0</ele><time>2026-04-22T09:11:29Z</time></trkpt><trkpt lat="42.013916753952905" lon="3.0706890348121276"><ele>14.0</ele><time>2026-04-22T09:11:30Z</time></trkpt><trkpt lat="42.01411030608674" lon="3.070701798250856"><ele>14.0</ele><time>2026-04-22T09:11:31Z</time></trkpt><trkpt lat="42.014304537781136" lon="3.0707110069662513"><ele>14.0</ele><time>2026-04-22T09:11:32Z</time></trkpt><trkpt lat="42.01449935033864" lon="3.0707236339908537"><ele>13.666666666666668</ele><time>2026-04-22T09:11:33Z</time></trkpt><trkpt lat="42.01469480061558" lon="3.0707348445096976"><ele>13.333333333333332</ele><time>2026-04-22T09:11:34Z</time></trkpt><trkpt lat="42.01488818155852" lon="3.070744901091222"><ele>13.0</ele><time>2026-04-22T09:11:35Z</time></trkpt><trkpt lat="42.01508529079465" lon="3.0707573759913367"><ele>12.666666666666666</ele><time>2026-04-22T09:11:36Z</time></trkpt><trkpt lat="42.01528177766308" lon="3.070771320578087"><ele>12.333333333333332</ele><time>2026-04-22T09:11:37Z</time></trkpt><trkpt lat="42.01547769175274" lon="3.070782973296552"><ele>12.0</ele><time>2026-04-22T09:11:38Z</time></trkpt><trkpt lat="42.01567228301638" lon="3.07079447580521"><ele>12.333333333333332</ele><time>2026-04-22T09:11:39Z</time></trkpt><trkpt lat="42.01586746777163" lon="3.0708071563415706"><ele>12.666666666666666</ele><time>2026-04-22T09:11:40Z</time></trkpt><trkpt lat="42.01606418743625" lon="3.0708190213063924"><ele>13.0</ele><time>2026-04-22T09:11:41Z</time></trkpt><trkpt lat="42.016259727570706" lon="3.0708317159461873"><ele>13.0</ele><time>2026-04-22T09:11:42Z</time></trkpt><trkpt lat="42.01645387406228" lon="3.0708415401469087"><ele>13.0</ele><time>2026-04-22T09:11:43Z</time></trkpt><trkpt lat="42.01665075597055" lon="3.070852235327898"><ele>13.0</ele><time>2026-04-22T09:11:44Z</time></trkpt><trkpt lat="42.0168481564793" lon="3.0708661884980404"><ele>12.666666666666666</ele><time>2026-04-22T09:11:45Z</time></trkpt><trkpt lat="42.01704493042136" lon="3.0708805077227757"><ele>12.333333333333332</ele><time>2026-04-22T09:11:46Z</time></trkpt><trkpt lat="42.01724486423756" lon="3.070891863312735"><ele>12.0</ele><time>2026-04-22T09:11:47Z</time></trkpt><trkpt lat="42.017441226138544" lon="3.0709040025669787"><ele>11.666666666666666</ele><time>2026-04-22T09:11:48Z</time></trkpt><trkpt lat="42.01763862825347" lon="3.070917999324042"><ele>11.333333333333332</ele><time>2026-04-22T09:11:49Z</time></trkpt><trkpt lat="42.01783459296027" lon="3.0709293507717925"><ele>11.0</ele><time>2026-04-22T09:11:50Z</time></trkpt><trkpt lat="42.01803327849973" lon="3.070943878975797"><ele>11.0</ele><time>2026-04-22T09:11:51Z</time></trkpt><trkpt lat="42.01822872703044" lon="3.070956455405361"><ele>11.0</ele><time>2026-04-22T09:11:52Z</time></trkpt><trkpt lat="42.018428724704386" lon="3.0709698420274267"><ele>11.0</ele><time>2026-04-22T09:11:53Z</time></trkpt><trkpt lat="42.01862581725982" lon="3.070982070230832"><ele>11.0</ele><time>2026-04-22T09:11:54Z</time></trkpt><trkpt lat="42.018822739939054" lon="3.0709934807292316"><ele>11.0</ele><time>2026-04-22T09:11:55Z</time></trkpt><trkpt lat="42.019022063088485" lon="3.071005429407506"><ele>11.0</ele><time>2026-04-22T09:11:56Z</time></trkpt><trkpt lat="42.01921825960966" lon="3.071012719245469"><ele>11.0</ele><time>2026-04-22T09:11:57Z</time></trkpt><trkpt lat="42.019415412441916" lon="3.071019741059284"><ele>11.0</ele><time>2026-04-22T09:11:58Z</time></trkpt><trkpt lat="42.01961155963895" lon="3.071030935710196"><ele>11.0</ele><time>2026-04-22T09:11:59Z</time></trkpt><trkpt lat="42.01980766209399" lon="3.0710433922483933"><ele>11.333333333333332</ele><time>2026-04-22T09:12:00Z</time></trkpt><trkpt lat="42.02000354926716" lon="3.0710562486617303"><ele>11.666666666666666</ele><time>2026-04-22T09:12:01Z</time></trkpt><trkpt lat="42.020200071235436" lon="3.071062431897531"><ele>12.0</ele><time>2026-04-22T09:12:02Z</time></trkpt><trkpt lat="42.02039847128005" lon="3.071074698523864"><ele>12.0</ele><time>2026-04-22T09:12:03Z</time></trkpt><trkpt lat="42.02059493168839" lon="3.071086373138507"><ele>12.0</ele><time>2026-04-22T09:12:04Z</time></trkpt><trkpt lat="42.02079334469724" lon="3.0710976980281854"><ele>12.0</ele><time>2026-04-22T09:12:05Z</time></trkpt><trkpt lat="42.02098899576867" lon="3.0711093770302904"><ele>12.666666666666668</ele><time>2026-04-22T09:12:06Z</time></trkpt><trkpt lat="42.02118503137398" lon="3.0711218737321873"><ele>13.333333333333334</ele><time>2026-04-22T09:12:07Z</time></trkpt><trkpt lat="42.021383602668244" lon="3.0711365684672662"><ele>14.0</ele><time>2026-04-22T09:12:08Z</time></trkpt><trkpt lat="42.02157951580239" lon="3.071150338612278"><ele>14.0</ele><time>2026-04-22T09:12:09Z</time></trkpt><trkpt lat="42.021775880958586" lon="3.0711638198619684"><ele>14.0</ele><time>2026-04-22T09:12:10Z</time></trkpt><trkpt lat="42.02197232039568" lon="3.0711770617789664"><ele>14.0</ele><time>2026-04-22T09:12:11Z</time></trkpt><trkpt lat="42.022169297049295" lon="3.071192246601942"><ele>14.0</ele><time>2026-04-22T09:12:12Z</time></trkpt><trkpt lat="42.02236550185102" lon="3.0712027530376176"><ele>14.0</ele><time>2026-04-22T09:12:13Z</time></trkpt><trkpt lat="42.022554456087" lon="3.071214528137822"><ele>14.0</ele><time>2026-04-22T09:12:14Z</time></trkpt><trkpt lat="42.02273492693767" lon="3.0712248667818542"><ele>13.333333333333334</ele><time>2026-04-22T09:12:15Z</time></trkpt><trkpt lat="42.0229073162772" lon="3.0712335119271077"><ele>12.666666666666668</ele><time>2026-04-22T09:12:16Z</time></trkpt><trkpt lat="42.02307149840305" lon="3.071242977307842"><ele>12.0</ele><time>2026-04-22T09:12:17Z</time></trkpt><trkpt lat="42.02322538979453" lon="3.071253062002789"><ele>12.0</ele><time>2026-04-22T09:12:18Z</time></trkpt><trkpt lat="42.02337515463377" lon="3.071261867098154"><ele>12.0</ele><time>2026-04-22T09:12:19Z</time></trkpt><trkpt lat="42.02351920647103" lon="3.071272452729076"><ele>12.0</ele><time>2026-04-22T09:12:20Z</time></trkpt><trkpt lat="42.0236553402098" lon="3.071281461416072"><ele>12.0</ele><time>2026-04-22T09:12:21Z</time></trkpt><trkpt lat="42.023782261326865" lon="3.0712874616835752"><ele>12.0</ele><time>2026-04-22T09:12:22Z</time></trkpt><trkpt lat="42.023902671303176" lon="3.0712945888964067"><ele>12.0</ele><time>2026-04-22T09:12:23Z</time></trkpt><trkpt lat="42.02400933566206" lon="3.07130008950405"><ele>12.0</ele><time>2026-04-22T09:12:24Z</time></trkpt><trkpt lat="42.02409594720649" lon="3.071305851430192"><ele>12.0</ele><time>2026-04-22T09:12:25Z</time></trkpt><trkpt lat="42.02416622158345" lon="3.071320444919251"><ele>12.0</ele><time>2026-04-22T09:12:26Z</time></trkpt><trkpt lat="42.02422866104503" lon="3.071350908175364"><ele>12.333333333333334</ele><time>2026-04-22T09:12:27Z</time></trkpt><trkpt lat="42.02429263915377" lon="3.0714014997954497"><ele>12.666666666666668</ele><time>2026-04-22T09:12:28Z</time></trkpt><trkpt lat="42.02435308390272" lon="3.0714533480664974"><ele>13.0</ele><time>2026-04-22T09:12:29Z</time></trkpt><trkpt lat="42.02442630443008" lon="3.0714659524920735"><ele>13.333333333333334</ele><time>2026-04-22T09:12:30Z</time></trkpt><trkpt lat="42.02449785859093" lon="3.0714400567080475"><ele>13.666666666666668</ele><time>2026-04-22T09:12:31Z</time></trkpt><trkpt lat="42.02456185390988" lon="3.0713902751358955"><ele>14.0</ele><time>2026-04-22T09:12:32Z</time></trkpt><trkpt lat="42.0246393983088" lon="3.071352330359623"><ele>14.0</ele><time>2026-04-22T09:12:33Z</time></trkpt><trkpt lat="42.02472752818011" lon="3.0713371464301047"><ele>13.999999999999998</ele><time>2026-04-22T09:12:34Z</time></trkpt><trkpt lat="42.02482189151842" lon="3.071334088376347"><ele>13.999999999999998</ele><time>2026-04-22T09:12:35Z</time></trkpt><trkpt lat="42.02492680128178" lon="3.071340446121388"><ele>14.0</ele><time>2026-04-22T09:12:36Z</time></trkpt><trkpt lat="42.02503134100297" lon="3.0713442509204687"><ele>14.0</ele><time>2026-04-22T09:12:37Z</time></trkpt><trkpt lat="42.02513790222436" lon="3.071352774098908"><ele>13.6</ele><time>2026-04-22T09:12:38Z</time></trkpt><trkpt lat="42.0252408403614" lon="3.0713600024945658"><ele>13.2</ele><time>2026-04-22T09:12:39Z</time></trkpt><trkpt lat="42.025340474849735" lon="3.0713698227516044"><ele>12.799999999999999</ele><time>2026-04-22T09:12:40Z</time></trkpt><trkpt lat="42.0254446952882" lon="3.0713793286097393"><ele>12.399999999999999</ele><time>2026-04-22T09:12:41Z</time></trkpt><trkpt lat="42.025545821321664" lon="3.0713863153573664"><ele>12.0</ele><time>2026-04-22T09:12:42Z</time></trkpt><trkpt lat="42.02565001821553" lon="3.0713931770219625"><ele>12.0</ele><time>2026-04-22T09:12:43Z</time></trkpt><trkpt lat="42.02575394492548" lon="3.071402101100729"><ele>12.0</ele><time>2026-04-22T09:12:44Z</time></trkpt><trkpt lat="42.02585212176462" lon="3.0714077077383566"><ele>12.0</ele><time>2026-04-22T09:12:45Z</time></trkpt><trkpt lat="42.02594855093864" lon="3.071414181558326"><ele>12.0</ele><time>2026-04-22T09:12:46Z</time></trkpt><trkpt lat="42.02604322336453" lon="3.0714170003069694"><ele>12.0</ele><time>2026-04-22T09:12:47Z</time></trkpt><trkpt lat="42.026141816172526" lon="3.07142275770674"><ele>12.0</ele><time>2026-04-22T09:12:48Z</time></trkpt><trkpt lat="42.02624044883885" lon="3.0714282477851516"><ele>12.0</ele><time>2026-04-22T09:12:49Z</time></trkpt><trkpt lat="42.02633868814478" lon="3.0714355758487613"><ele>12.0</ele><time>2026-04-22T09:12:50Z</time></trkpt><trkpt lat="42.0264400100219" lon="3.0714440199620783"><ele>12.0</ele><time>2026-04-22T09:12:51Z</time></trkpt><trkpt lat="42.026540074689954" lon="3.071449239726246"><ele>12.0</ele><time>2026-04-22T09:12:52Z</time></trkpt><trkpt lat="42.02664071128885" lon="3.0714555039974085"><ele>12.0</ele><time>2026-04-22T09:12:53Z</time></trkpt><trkpt lat="42.026741716598" lon="3.071458442679838"><ele>12.0</ele><time>2026-04-22T09:12:54Z</time></trkpt><trkpt lat="42.02684049574604" lon="3.071463433624291"><ele>12.0</ele><time>2026-04-22T09:12:55Z</time></trkpt><trkpt lat="42.02694257939463" lon="3.071469331098272"><ele>12.0</ele><time>2026-04-22T09:12:56Z</time></trkpt><trkpt lat="42.02704283832842" lon="3.071475950103264"><ele>12.0</ele><time>2026-04-22T09:12:57Z</time></trkpt><trkpt lat="42.02714398151049" lon="3.0714813780125723"><ele>12.0</ele><time>2026-04-22T09:12:58Z</time></trkpt><trkpt lat="42.027241633791775" lon="3.07148626269878"><ele>12.0</ele><time>2026-04-22T09:12:59Z</time></trkpt><trkpt lat="42.02734453596324" lon="3.0714940070370154"><ele>12.0</ele><time>2026-04-22T09:13:00Z</time></trkpt><trkpt lat="42.0274494608766" lon="3.071500647437872"><ele>12.0</ele><time>2026-04-22T09:13:01Z</time></trkpt><trkpt lat="42.02755179590108" lon="3.0715061657990503"><ele>12.0</ele><time>2026-04-22T09:13:02Z</time></trkpt><trkpt lat="42.02765592273516" lon="3.07151441440826"><ele>11.8</ele><time>2026-04-22T09:13:03Z</time></trkpt><trkpt lat="42.02775991667529" lon="3.0715195309034775"><ele>11.6</ele><time>2026-04-22T09:13:04Z</time></trkpt><trkpt lat="42.02786503387171" lon="3.071525728633214"><ele>11.4</ele><time>2026-04-22T09:13:05Z</time></trkpt><trkpt lat="42.027968432872875" lon="3.071533516126162"><ele>11.200000000000001</ele><time>2026-04-22T09:13:06Z</time></trkpt><trkpt lat="42.0280783399363" lon="3.071544956203846"><ele>11.0</ele><time>2026-04-22T09:13:07Z</time></trkpt><trkpt lat="42.02818736377698" lon="3.071554927922758"><ele>11.0</ele><time>2026-04-22T09:13:08Z</time></trkpt><trkpt lat="42.028293264859464" lon="3.07156001853382"><ele>11.0</ele><time>2026-04-22T09:13:09Z</time></trkpt><trkpt lat="42.02839596214003" lon="3.071563567388008"><ele>11.0</ele><time>2026-04-22T09:13:10Z</time></trkpt><trkpt lat="42.02849319190227" lon="3.0715688417267297"><ele>11.0</ele><time>2026-04-22T09:13:11Z</time></trkpt><trkpt lat="42.02859383169533" lon="3.071576088305424"><ele>11.0</ele><time>2026-04-22T09:13:12Z</time></trkpt><trkpt lat="42.02869016251284" lon="3.0715768003115183"><ele>11.166666666666666</ele><time>2026-04-22T09:13:13Z</time></trkpt><trkpt lat="42.02878444564922" lon="3.071579476390041"><ele>11.333333333333332</ele><time>2026-04-22T09:13:14Z</time></trkpt><trkpt lat="42.02887622582267" lon="3.071586735099886"><ele>11.5</ele><time>2026-04-22T09:13:15Z</time></trkpt><trkpt lat="42.02896609551071" lon="3.07159180687887"><ele>11.666666666666666</ele><time>2026-04-22T09:13:16Z</time></trkpt><trkpt lat="42.029054626093526" lon="3.071597587503407"><ele>11.833333333333334</ele><time>2026-04-22T09:13:17Z</time></trkpt><trkpt lat="42.02913749289426" lon="3.071599950554513"><ele>12.0</ele><time>2026-04-22T09:13:18Z</time></trkpt><trkpt lat="42.029214854175834" lon="3.071600595286169"><ele>11.666666666666666</ele><time>2026-04-22T09:13:19Z</time></trkpt><trkpt lat="42.029288024327315" lon="3.071590985414219"><ele>11.333333333333334</ele><time>2026-04-22T09:13:20Z</time></trkpt><trkpt lat="42.029352488571625" lon="3.071551446453352"><ele>11.0</ele><time>2026-04-22T09:13:21Z</time></trkpt><trkpt lat="42.029405117440014" lon="3.0714870208035387"><ele>10.666666666666668</ele><time>2026-04-22T09:13:22Z</time></trkpt><trkpt lat="42.0294456910162" lon="3.071410827532577"><ele>10.333333333333334</ele><time>2026-04-22T09:13:23Z</time></trkpt><trkpt lat="42.029509477942256" lon="3.0712667679153283"><ele>10.0</ele><time>2026-04-22T09:13:25Z</time></trkpt><trkpt lat="42.02961594734333" lon="3.071177278861072"><ele>10.0</ele><time>2026-04-22T09:13:27Z</time></trkpt><trkpt lat="42.02967237764291" lon="3.071123572203302"><ele>10.0</ele><time>2026-04-22T09:13:28Z</time></trkpt><trkpt lat="42.029711378989546" lon="3.0710475596458653"><ele>10.0</ele><time>2026-04-22T09:13:29Z</time></trkpt><trkpt lat="42.029723916378636" lon="3.07095786462801"><ele>10.0</ele><time>2026-04-22T09:13:30Z</time></trkpt><trkpt lat="42.02971122885843" lon="3.070870135720301"><ele>10.0</ele><time>2026-04-22T09:13:31Z</time></trkpt><trkpt lat="42.0296641352169" lon="3.0707930807786"><ele>10.0</ele><time>2026-04-22T09:13:32Z</time></trkpt><trkpt lat="42.029607452341956" lon="3.07072633353373"><ele>10.0</ele><time>2026-04-22T09:13:33Z</time></trkpt><trkpt lat="42.02956526489541" lon="3.070647509719825"><ele>10.2</ele><time>2026-04-22T09:13:34Z</time></trkpt><trkpt lat="42.029535315701374" lon="3.0705491468836565"><ele>10.4</ele><time>2026-04-22T09:13:35Z</time></trkpt><trkpt lat="42.029518911450126" lon="3.0704326256270305"><ele>10.600000000000001</ele><time>2026-04-22T09:13:36Z</time></trkpt><trkpt lat="42.029503933191066" lon="3.0703105423700108"><ele>10.8</ele><time>2026-04-22T09:13:37Z</time></trkpt><trkpt lat="42.02948403653645" lon="3.0701844744481805"><ele>11.0</ele><time>2026-04-22T09:13:38Z</time></trkpt><trkpt lat="42.02946273619878" lon="3.070048080191564"><ele>11.0</ele><time>2026-04-22T09:13:39Z</time></trkpt><trkpt lat="42.02943928695501" lon="3.0699043728816533"><ele>11.0</ele><time>2026-04-22T09:13:40Z</time></trkpt><trkpt lat="42.02941668384759" lon="3.069748935521482"><ele>11.0</ele><time>2026-04-22T09:13:41Z</time></trkpt><trkpt lat="42.029390572561546" lon="3.069584305497469"><ele>11.0</ele><time>2026-04-22T09:13:42Z</time></trkpt><trkpt lat="42.02936348155579" lon="3.069413314930756"><ele>11.0</ele><time>2026-04-22T09:13:43Z</time></trkpt><trkpt lat="42.02933472641848" lon="3.069227685125075"><ele>11.0</ele><time>2026-04-22T09:13:44Z</time></trkpt><trkpt lat="42.029307946454054" lon="3.069040831642268"><ele>11.0</ele><time>2026-04-22T09:13:45Z</time></trkpt><trkpt lat="42.02927852126518" lon="3.068858328949801"><ele>11.0</ele><time>2026-04-22T09:13:46Z</time></trkpt><trkpt lat="42.02924955317974" lon="3.068667729895016"><ele>11.333333333333332</ele><time>2026-04-22T09:13:47Z</time></trkpt><trkpt lat="42.02922094951344" lon="3.0684698446012972"><ele>11.666666666666666</ele><time>2026-04-22T09:13:48Z</time></trkpt><trkpt lat="42.029188070052136" lon="3.068263928104218"><ele>12.0</ele><time>2026-04-22T09:13:49Z</time></trkpt><trkpt lat="42.02915588034656" lon="3.068051392998028"><ele>12.333333333333332</ele><time>2026-04-22T09:13:50Z</time></trkpt><trkpt lat="42.029120592605565" lon="3.0678312651238455"><ele>12.666666666666666</ele><time>2026-04-22T09:13:51Z</time></trkpt><trkpt lat="42.02908777723307" lon="3.067605619263411"><ele>13.0</ele><time>2026-04-22T09:13:52Z</time></trkpt><trkpt lat="42.02905276716059" lon="3.0673746302732816"><ele>13.333333333333332</ele><time>2026-04-22T09:13:53Z</time></trkpt><trkpt lat="42.02901686595345" lon="3.067136886894845"><ele>13.666666666666668</ele><time>2026-04-22T09:13:54Z</time></trkpt><trkpt lat="42.02897757652806" lon="3.0668910039704436"><ele>14.0</ele><time>2026-04-22T09:13:55Z</time></trkpt><trkpt lat="42.02894042410032" lon="3.066647049393744"><ele>14.0</ele><time>2026-04-22T09:13:56Z</time></trkpt><trkpt lat="42.02890544222453" lon="3.0664003464678617"><ele>14.0</ele><time>2026-04-22T09:13:57Z</time></trkpt><trkpt lat="42.02886875184119" lon="3.0661494180730107"><ele>14.0</ele><time>2026-04-22T09:13:58Z</time></trkpt><trkpt lat="42.02882940822903" lon="3.0658962202687348"><ele>13.666666666666668</ele><time>2026-04-22T09:13:59Z</time></trkpt><trkpt lat="42.028788375511475" lon="3.0656475356733544"><ele>13.333333333333332</ele><time>2026-04-22T09:14:00Z</time></trkpt><trkpt lat="42.02875092880637" lon="3.0653907617211966"><ele>13.0</ele><time>2026-04-22T09:14:01Z</time></trkpt><trkpt lat="42.02871362125088" lon="3.0651319795703285"><ele>12.666666666666666</ele><time>2026-04-22T09:14:02Z</time></trkpt><trkpt lat="42.028675935313146" lon="3.06487238000527"><ele>12.333333333333332</ele><time>2026-04-22T09:14:03Z</time></trkpt><trkpt lat="42.028635930936225" lon="3.064613540963644"><ele>12.0</ele><time>2026-04-22T09:14:04Z</time></trkpt><trkpt lat="42.028596609195425" lon="3.064354165921051"><ele>12.0</ele><time>2026-04-22T09:14:05Z</time></trkpt><trkpt lat="42.02855757261771" lon="3.0640927796810464"><ele>12.0</ele><time>2026-04-22T09:14:06Z</time></trkpt><trkpt lat="42.02851730318628" lon="3.063832870464689"><ele>12.0</ele><time>2026-04-22T09:14:07Z</time></trkpt><trkpt lat="42.02847781055147" lon="3.06357094757113"><ele>12.0</ele><time>2026-04-22T09:14:08Z</time></trkpt><trkpt lat="42.028438022059184" lon="3.063311022209971"><ele>12.0</ele><time>2026-04-22T09:14:09Z</time></trkpt><trkpt lat="42.028397418472004" lon="3.0630507049062317"><ele>12.0</ele><time>2026-04-22T09:14:10Z</time></trkpt><trkpt lat="42.0283580450076" lon="3.062789771582843"><ele>12.333333333333332</ele><time>2026-04-22T09:14:11Z</time></trkpt><trkpt lat="42.0283180325555" lon="3.0625247509512334"><ele>12.666666666666666</ele><time>2026-04-22T09:14:12Z</time></trkpt><trkpt lat="42.02827803004868" lon="3.0622607867663616"><ele>13.0</ele><time>2026-04-22T09:14:13Z</time></trkpt><trkpt lat="42.02823825393535" lon="3.061995935685167"><ele>13.0</ele><time>2026-04-22T09:14:14Z</time></trkpt><trkpt lat="42.02819976073668" lon="3.061733554017645"><ele>13.0</ele><time>2026-04-22T09:14:15Z</time></trkpt><trkpt lat="42.02816126323693" lon="3.0614699350865893"><ele>13.0</ele><time>2026-04-22T09:14:16Z</time></trkpt><trkpt lat="42.02812033594693" lon="3.0612041048657685"><ele>13.333333333333332</ele><time>2026-04-22T09:14:17Z</time></trkpt><trkpt lat="42.028078839512894" lon="3.0609396009878664"><ele>13.666666666666668</ele><time>2026-04-22T09:14:18Z</time></trkpt><trkpt lat="42.02803832360838" lon="3.060677371636917"><ele>14.0</ele><time>2026-04-22T09:14:19Z</time></trkpt><trkpt lat="42.027998177488975" lon="3.0604166670091977"><ele>14.0</ele><time>2026-04-22T09:14:20Z</time></trkpt><trkpt lat="42.02795817595609" lon="3.0601546694537345"><ele>14.0</ele><time>2026-04-22T09:14:21Z</time></trkpt><trkpt lat="42.02792009466843" lon="3.059894953334398"><ele>14.0</ele><time>2026-04-22T09:14:22Z</time></trkpt><trkpt lat="42.02788135563841" lon="3.0596357124394307"><ele>14.0</ele><time>2026-04-22T09:14:23Z</time></trkpt><trkpt lat="42.02784203905569" lon="3.0593782352292633"><ele>14.0</ele><time>2026-04-22T09:14:24Z</time></trkpt><trkpt lat="42.02780248915326" lon="3.0591171730416904"><ele>14.0</ele><time>2026-04-22T09:14:25Z</time></trkpt><trkpt lat="42.02776367889597" lon="3.0588580856359417"><ele>14.0</ele><time>2026-04-22T09:14:26Z</time></trkpt><trkpt lat="42.02772552469001" lon="3.0585927469239427"><ele>14.0</ele><time>2026-04-22T09:14:27Z</time></trkpt><trkpt lat="42.02768623955007" lon="3.0583324751265186"><ele>14.0</ele><time>2026-04-22T09:14:28Z</time></trkpt><trkpt lat="42.027647377141" lon="3.0580699563712885"><ele>14.0</ele><time>2026-04-22T09:14:29Z</time></trkpt><trkpt lat="42.02760702109913" lon="3.057807172401619"><ele>14.0</ele><time>2026-04-22T09:14:30Z</time></trkpt><trkpt lat="42.02756845594315" lon="3.0575464704752733"><ele>14.0</ele><time>2026-04-22T09:14:31Z</time></trkpt><trkpt lat="42.02753138081778" lon="3.057286298480522"><ele>14.333333333333334</ele><time>2026-04-22T09:14:32Z</time></trkpt><trkpt lat="42.027491592765855" lon="3.0570273846482676"><ele>14.666666666666668</ele><time>2026-04-22T09:14:33Z</time></trkpt><trkpt lat="42.02745244686423" lon="3.0567660657434628"><ele>15.0</ele><time>2026-04-22T09:14:34Z</time></trkpt><trkpt lat="42.02741260404007" lon="3.0565054476407103"><ele>14.333333333333332</ele><time>2026-04-22T09:14:35Z</time></trkpt><trkpt lat="42.027372871053714" lon="3.05624350556708"><ele>13.666666666666666</ele><time>2026-04-22T09:14:36Z</time></trkpt><trkpt lat="42.02733450094247" lon="3.0559799442200193"><ele>13.0</ele><time>2026-04-22T09:14:37Z</time></trkpt><trkpt lat="42.02729434382416" lon="3.055720053708906"><ele>13.0</ele><time>2026-04-22T09:14:38Z</time></trkpt><trkpt lat="42.02725503759854" lon="3.0554578985326857"><ele>13.0</ele><time>2026-04-22T09:14:39Z</time></trkpt><trkpt lat="42.0272153426741" lon="3.0551948469818058"><ele>13.0</ele><time>2026-04-22T09:14:40Z</time></trkpt><trkpt lat="42.027175825550025" lon="3.054934723072051"><ele>13.333333333333332</ele><time>2026-04-22T09:14:41Z</time></trkpt><trkpt lat="42.027137461824154" lon="3.054675802437325"><ele>13.666666666666668</ele><time>2026-04-22T09:14:42Z</time></trkpt><trkpt lat="42.02709697581641" lon="3.054416643608254"><ele>14.0</ele><time>2026-04-22T09:14:43Z</time></trkpt><trkpt lat="42.02705472872642" lon="3.0541593542719263"><ele>13.666666666666668</ele><time>2026-04-22T09:14:44Z</time></trkpt><trkpt lat="42.027015725813214" lon="3.0539021269064506"><ele>13.333333333333332</ele><time>2026-04-22T09:14:45Z</time></trkpt><trkpt lat="42.02697755276995" lon="3.0536447586332622"><ele>13.0</ele><time>2026-04-22T09:14:46Z</time></trkpt><trkpt lat="42.0269394938327" lon="3.053389224247972"><ele>12.666666666666666</ele><time>2026-04-22T09:14:47Z</time></trkpt><trkpt lat="42.02690028001385" lon="3.0531333983737996"><ele>12.333333333333332</ele><time>2026-04-22T09:14:48Z</time></trkpt><trkpt lat="42.02686169203965" lon="3.0528773417547064"><ele>12.0</ele><time>2026-04-22T09:14:49Z</time></trkpt><trkpt lat="42.026820717401776" lon="3.052621953752985"><ele>12.333333333333332</ele><time>2026-04-22T09:14:50Z</time></trkpt><trkpt lat="42.02678104391242" lon="3.0523635146271597"><ele>12.666666666666666</ele><time>2026-04-22T09:14:51Z</time></trkpt><trkpt lat="42.02674344955888" lon="3.0521061215964926"><ele>13.0</ele><time>2026-04-22T09:14:52Z</time></trkpt><trkpt lat="42.02670662761268" lon="3.0518506265558423"><ele>13.333333333333332</ele><time>2026-04-22T09:14:53Z</time></trkpt><trkpt lat="42.026668251194515" lon="3.0515937463155467"><ele>13.666666666666668</ele><time>2026-04-22T09:14:54Z</time></trkpt><trkpt lat="42.02663005848711" lon="3.051336487391039"><ele>14.0</ele><time>2026-04-22T09:14:55Z</time></trkpt><trkpt lat="42.02659200559759" lon="3.05107871617849"><ele>14.0</ele><time>2026-04-22T09:14:56Z</time></trkpt><trkpt lat="42.02655501224517" lon="3.050821442550446"><ele>14.0</ele><time>2026-04-22T09:14:57Z</time></trkpt><trkpt lat="42.02651713463048" lon="3.050564590337314"><ele>14.0</ele><time>2026-04-22T09:14:58Z</time></trkpt><trkpt lat="42.0264794446135" lon="3.0503042108533864"><ele>14.0</ele><time>2026-04-22T09:14:59Z</time></trkpt><trkpt lat="42.0264412475942" lon="3.050046037722047"><ele>14.0</ele><time>2026-04-22T09:15:00Z</time></trkpt><trkpt lat="42.02640148695427" lon="3.049786290374847"><ele>14.0</ele><time>2026-04-22T09:15:01Z</time></trkpt><trkpt lat="42.02636148421964" lon="3.049524527765281"><ele>14.333333333333334</ele><time>2026-04-22T09:15:02Z</time></trkpt><trkpt lat="42.02632274409605" lon="3.049263648120328"><ele>14.666666666666668</ele><time>2026-04-22T09:15:03Z</time></trkpt><trkpt lat="42.02628226760282" lon="3.0490009653620778"><ele>15.0</ele><time>2026-04-22T09:15:04Z</time></trkpt><trkpt lat="42.02624205298442" lon="3.0487383480693415"><ele>15.0</ele><time>2026-04-22T09:15:05Z</time></trkpt><trkpt lat="42.02620165239119" lon="3.0484777227364765"><ele>15.0</ele><time>2026-04-22T09:15:06Z</time></trkpt><trkpt lat="42.02616247692295" lon="3.048215973939738"><ele>15.0</ele><time>2026-04-22T09:15:07Z</time></trkpt><trkpt lat="42.026120882728975" lon="3.047954529868707"><ele>15.0</ele><time>2026-04-22T09:15:08Z</time></trkpt><trkpt lat="42.02608307550402" lon="3.047693226110983"><ele>15.0</ele><time>2026-04-22T09:15:09Z</time></trkpt><trkpt lat="42.02604359862643" lon="3.047432065705917"><ele>15.0</ele><time>2026-04-22T09:15:10Z</time></trkpt><trkpt lat="42.02600386713426" lon="3.047170290614395"><ele>14.666666666666668</ele><time>2026-04-22T09:15:11Z</time></trkpt><trkpt lat="42.025966643905896" lon="3.0469096604538226"><ele>14.333333333333334</ele><time>2026-04-22T09:15:12Z</time></trkpt><trkpt lat="42.02592713657117" lon="3.0466488828427005"><ele>14.0</ele><time>2026-04-22T09:15:13Z</time></trkpt><trkpt lat="42.025886858883254" lon="3.0463878594397555"><ele>13.333333333333334</ele><time>2026-04-22T09:15:14Z</time></trkpt><trkpt lat="42.02584858859693" lon="3.0461270120785686"><ele>12.666666666666668</ele><time>2026-04-22T09:15:15Z</time></trkpt><trkpt lat="42.02581006422669" lon="3.0458665612995612"><ele>12.0</ele><time>2026-04-22T09:15:16Z</time></trkpt><trkpt lat="42.02577138375258" lon="3.0456051025350854"><ele>12.0</ele><time>2026-04-22T09:15:17Z</time></trkpt><trkpt lat="42.02573235756796" lon="3.0453444958755407"><ele>12.0</ele><time>2026-04-22T09:15:18Z</time></trkpt><trkpt lat="42.02569368554543" lon="3.0450840592949953"><ele>12.0</ele><time>2026-04-22T09:15:19Z</time></trkpt><trkpt lat="42.02565343517306" lon="3.044822873096602"><ele>12.333333333333332</ele><time>2026-04-22T09:15:20Z</time></trkpt><trkpt lat="42.02561621794776" lon="3.0445630157789085"><ele>12.666666666666666</ele><time>2026-04-22T09:15:21Z</time></trkpt><trkpt lat="42.02557694574895" lon="3.044302953579067"><ele>13.0</ele><time>2026-04-22T09:15:22Z</time></trkpt><trkpt lat="42.025538612169434" lon="3.0440424982616174"><ele>13.0</ele><time>2026-04-22T09:15:23Z</time></trkpt><trkpt lat="42.025496963300164" lon="3.043783563891885"><ele>13.0</ele><time>2026-04-22T09:15:24Z</time></trkpt><trkpt lat="42.02545692541724" lon="3.0435234344270454"><ele>13.0</ele><time>2026-04-22T09:15:25Z</time></trkpt><trkpt lat="42.02541812683202" lon="3.0432649353820853"><ele>12.666666666666666</ele><time>2026-04-22T09:15:26Z</time></trkpt><trkpt lat="42.0253769364029" lon="3.04300524137433"><ele>12.333333333333332</ele><time>2026-04-22T09:15:27Z</time></trkpt><trkpt lat="42.02533823944879" lon="3.042746689676671"><ele>12.0</ele><time>2026-04-22T09:15:28Z</time></trkpt><trkpt lat="42.025300205865925" lon="3.042489643371116"><ele>12.333333333333332</ele><time>2026-04-22T09:15:29Z</time></trkpt><trkpt lat="42.02526167099351" lon="3.0422302973043682"><ele>12.666666666666666</ele><time>2026-04-22T09:15:30Z</time></trkpt><trkpt lat="42.02522263934833" lon="3.04197136427809"><ele>13.0</ele><time>2026-04-22T09:15:31Z</time></trkpt><trkpt lat="42.025184499090116" lon="3.041713018387286"><ele>13.333333333333332</ele><time>2026-04-22T09:15:32Z</time></trkpt><trkpt lat="42.02514473344813" lon="3.041454009605467"><ele>13.666666666666668</ele><time>2026-04-22T09:15:33Z</time></trkpt><trkpt lat="42.02510700563134" lon="3.041195496649024"><ele>14.0</ele><time>2026-04-22T09:15:34Z</time></trkpt><trkpt lat="42.02506845127558" lon="3.040937908391606"><ele>14.0</ele><time>2026-04-22T09:15:35Z</time></trkpt><trkpt lat="42.02503006221331" lon="3.040677950530483"><ele>14.0</ele><time>2026-04-22T09:15:36Z</time></trkpt><trkpt lat="42.024992101902015" lon="3.0404182281088783"><ele>14.0</ele><time>2026-04-22T09:15:37Z</time></trkpt><trkpt lat="42.0249514794009" lon="3.0401586101177447"><ele>13.666666666666668</ele><time>2026-04-22T09:15:38Z</time></trkpt><trkpt lat="42.02491082572517" lon="3.039899360971355"><ele>13.333333333333332</ele><time>2026-04-22T09:15:39Z</time></trkpt><trkpt lat="42.0248719804101" lon="3.039635550908222"><ele>13.0</ele><time>2026-04-22T09:15:40Z</time></trkpt><trkpt lat="42.02483159700249" lon="3.0393728286035944"><ele>13.0</ele><time>2026-04-22T09:15:41Z</time></trkpt><trkpt lat="42.02479275534213" lon="3.0391095594419304"><ele>13.0</ele><time>2026-04-22T09:15:42Z</time></trkpt><trkpt lat="42.02475313280281" lon="3.03884757866147"><ele>13.0</ele><time>2026-04-22T09:15:43Z</time></trkpt><trkpt lat="42.024711060735974" lon="3.0385839933711987"><ele>13.0</ele><time>2026-04-22T09:15:44Z</time></trkpt><trkpt lat="42.02466998630339" lon="3.038320169196434"><ele>13.0</ele><time>2026-04-22T09:15:45Z</time></trkpt><trkpt lat="42.0246316137145" lon="3.0380610004762154"><ele>13.0</ele><time>2026-04-22T09:15:46Z</time></trkpt><trkpt lat="42.02459269480549" lon="3.0378022445011275"><ele>13.0</ele><time>2026-04-22T09:15:47Z</time></trkpt><trkpt lat="42.02455271436372" lon="3.037545146599842"><ele>13.0</ele><time>2026-04-22T09:15:48Z</time></trkpt><trkpt lat="42.02451128417745" lon="3.037286974532703"><ele>13.0</ele><time>2026-04-22T09:15:49Z</time></trkpt><trkpt lat="42.024471773388726" lon="3.0370271926627264"><ele>13.333333333333332</ele><time>2026-04-22T09:15:50Z</time></trkpt><trkpt lat="42.024434643238436" lon="3.0367680144307903"><ele>13.666666666666668</ele><time>2026-04-22T09:15:51Z</time></trkpt><trkpt lat="42.02439734258891" lon="3.0365099021855597"><ele>14.0</ele><time>2026-04-22T09:15:52Z</time></trkpt><trkpt lat="42.024360938259406" lon="3.0362508438353157"><ele>14.333333333333334</ele><time>2026-04-22T09:15:53Z</time></trkpt><trkpt lat="42.02432659599873" lon="3.036001696058274"><ele>14.666666666666668</ele><time>2026-04-22T09:15:54Z</time></trkpt><trkpt lat="42.024296010875744" lon="3.035758916399327"><ele>15.0</ele><time>2026-04-22T09:15:55Z</time></trkpt><trkpt lat="42.02426987759021" lon="3.0355245777897526"><ele>15.0</ele><time>2026-04-22T09:15:56Z</time></trkpt><trkpt lat="42.02424168325803" lon="3.0353004572262905"><ele>15.0</ele><time>2026-04-22T09:15:57Z</time></trkpt><trkpt lat="42.024211797800426" lon="3.0350839160024123"><ele>15.0</ele><time>2026-04-22T09:15:58Z</time></trkpt><trkpt lat="42.02417733185771" lon="3.0348687033009614"><ele>16.0</ele><time>2026-04-22T09:15:59Z</time></trkpt><trkpt lat="42.02414428799121" lon="3.0346589888034314"><ele>17.0</ele><time>2026-04-22T09:16:00Z</time></trkpt><trkpt lat="42.024112307543525" lon="3.034460165462206"><ele>18.0</ele><time>2026-04-22T09:16:01Z</time></trkpt><trkpt lat="42.02408242047381" lon="3.034270297206807"><ele>19.0</ele><time>2026-04-22T09:16:02Z</time></trkpt><trkpt lat="42.024055587459465" lon="3.0340908825545805"><ele>20.0</ele><time>2026-04-22T09:16:03Z</time></trkpt><trkpt lat="42.024030465033704" lon="3.033922924224259"><ele>21.0</ele><time>2026-04-22T09:16:04Z</time></trkpt><trkpt lat="42.024007276656086" lon="3.0337652190624436"><ele>22.0</ele><time>2026-04-22T09:16:05Z</time></trkpt><trkpt lat="42.0239855301752" lon="3.033617383399746"><ele>22.0</ele><time>2026-04-22T09:16:06Z</time></trkpt><trkpt lat="42.023963369936155" lon="3.033474368081684"><ele>22.0</ele><time>2026-04-22T09:16:07Z</time></trkpt><trkpt lat="42.02394020358314" lon="3.0333374593370457"><ele>22.0</ele><time>2026-04-22T09:16:08Z</time></trkpt><trkpt lat="42.02392087206993" lon="3.0332047689090724"><ele>22.0</ele><time>2026-04-22T09:16:09Z</time></trkpt><trkpt lat="42.023901982250635" lon="3.033081169710088"><ele>22.0</ele><time>2026-04-22T09:16:10Z</time></trkpt><trkpt lat="42.02388052476459" lon="3.0329644309313006"><ele>22.285714285714285</ele><time>2026-04-22T09:16:11Z</time></trkpt><trkpt lat="42.02385219003622" lon="3.0328561098741735"><ele>22.57142857142857</ele><time>2026-04-22T09:16:12Z</time></trkpt><trkpt lat="42.023820951754374" lon="3.032759699778627"><ele>22.857142857142854</ele><time>2026-04-22T09:16:13Z</time></trkpt><trkpt lat="42.02378782720471" lon="3.032671763070751"><ele>23.142857142857142</ele><time>2026-04-22T09:16:14Z</time></trkpt><trkpt lat="42.0237588632996" lon="3.032584232586503"><ele>23.428571428571427</ele><time>2026-04-22T09:16:15Z</time></trkpt><trkpt lat="42.023751855763706" lon="3.0324950708666467"><ele>23.71428571428571</ele><time>2026-04-22T09:16:16Z</time></trkpt><trkpt lat="42.023775684576904" lon="3.0324107066212385"><ele>24.0</ele><time>2026-04-22T09:16:17Z</time></trkpt><trkpt lat="42.023867657539235" lon="3.03230776619909"><ele>24.333333333333332</ele><time>2026-04-22T09:16:19Z</time></trkpt><trkpt lat="42.02393354223508" lon="3.032287617868783"><ele>24.666666666666664</ele><time>2026-04-22T09:16:20Z</time></trkpt><trkpt lat="42.02400375309474" lon="3.0322797513191952"><ele>25.0</ele><time>2026-04-22T09:16:21Z</time></trkpt><trkpt lat="42.02408029449578" lon="3.0323003309191496"><ele>25.333333333333332</ele><time>2026-04-22T09:16:22Z</time></trkpt><trkpt lat="42.02415616210105" lon="3.0323284355244073"><ele>25.666666666666664</ele><time>2026-04-22T09:16:23Z</time></trkpt><trkpt lat="42.024242557079766" lon="3.032355327913695"><ele>26.0</ele><time>2026-04-22T09:16:24Z</time></trkpt><trkpt lat="42.0243316848158" lon="3.0323891814847626"><ele>26.0</ele><time>2026-04-22T09:16:25Z</time></trkpt><trkpt lat="42.02442077786827" lon="3.032429754314155"><ele>26.0</ele><time>2026-04-22T09:16:26Z</time></trkpt><trkpt lat="42.02451308444937" lon="3.032465186206863"><ele>26.0</ele><time>2026-04-22T09:16:27Z</time></trkpt><trkpt lat="42.02461131512922" lon="3.0325024044430973"><ele>26.0</ele><time>2026-04-22T09:16:28Z</time></trkpt><trkpt lat="42.024710091362564" lon="3.03253399936514"><ele>26.0</ele><time>2026-04-22T09:16:29Z</time></trkpt><trkpt lat="42.02481724144551" lon="3.032569067332087"><ele>26.0</ele><time>2026-04-22T09:16:30Z</time></trkpt><trkpt lat="42.02492212105602" lon="3.032606058325899"><ele>26.0</ele><time>2026-04-22T09:16:31Z</time></trkpt><trkpt lat="42.025030363205616" lon="3.032646207867204"><ele>26.0</ele><time>2026-04-22T09:16:32Z</time></trkpt><trkpt lat="42.02514877729367" lon="3.0326899835711085"><ele>26.0</ele><time>2026-04-22T09:16:33Z</time></trkpt><trkpt lat="42.02526439868981" lon="3.032732965844571"><ele>26.0</ele><time>2026-04-22T09:16:34Z</time></trkpt><trkpt lat="42.02538232312113" lon="3.032774779865374"><ele>26.0</ele><time>2026-04-22T09:16:35Z</time></trkpt><trkpt lat="42.02549804027396" lon="3.032813495831321"><ele>26.0</ele><time>2026-04-22T09:16:36Z</time></trkpt><trkpt lat="42.025616803576455" lon="3.032855757394374"><ele>26.0</ele><time>2026-04-22T09:16:37Z</time></trkpt><trkpt lat="42.02573906829945" lon="3.0328994549901007"><ele>25.75</ele><time>2026-04-22T09:16:38Z</time></trkpt><trkpt lat="42.02586215661276" lon="3.032942810091601"><ele>25.5</ele><time>2026-04-22T09:16:39Z</time></trkpt><trkpt lat="42.025990626157444" lon="3.0329863124722483"><ele>25.25</ele><time>2026-04-22T09:16:40Z</time></trkpt><trkpt lat="42.02612417309755" lon="3.0330310606902073"><ele>25.0</ele><time>2026-04-22T09:16:41Z</time></trkpt><trkpt lat="42.02625986651817" lon="3.0330808527522546"><ele>25.0</ele><time>2026-04-22T09:16:42Z</time></trkpt><trkpt lat="42.026398850053035" lon="3.0331318483587983"><ele>25.0</ele><time>2026-04-22T09:16:43Z</time></trkpt><trkpt lat="42.02654853445284" lon="3.0331850375297726"><ele>25.0</ele><time>2026-04-22T09:16:44Z</time></trkpt><trkpt lat="42.02669341934571" lon="3.0332391371753267"><ele>25.0</ele><time>2026-04-22T09:16:45Z</time></trkpt><trkpt lat="42.02684519653987" lon="3.0332969395656275"><ele>23.666666666666668</ele><time>2026-04-22T09:16:46Z</time></trkpt><trkpt lat="42.02699786693515" lon="3.0333612223114743"><ele>22.333333333333336</ele><time>2026-04-22T09:16:47Z</time></trkpt><trkpt lat="42.02715190351702" lon="3.0334346122833895"><ele>21.0</ele><time>2026-04-22T09:16:48Z</time></trkpt><trkpt lat="42.02730981039653" lon="3.0335119848866214"><ele>21.666666666666668</ele><time>2026-04-22T09:16:49Z</time></trkpt><trkpt lat="42.0274789813726" lon="3.0335950188694425"><ele>22.333333333333336</ele><time>2026-04-22T09:16:50Z</time></trkpt><trkpt lat="42.02764614771817" lon="3.0336861802611876"><ele>23.0</ele><time>2026-04-22T09:16:51Z</time></trkpt><trkpt lat="42.02781423351672" lon="3.033783370181981"><ele>23.0</ele><time>2026-04-22T09:16:52Z</time></trkpt><trkpt lat="42.027983589452894" lon="3.0338850179920107"><ele>23.0</ele><time>2026-04-22T09:16:53Z</time></trkpt><trkpt lat="42.0281563955067" lon="3.0339883932108407"><ele>23.0</ele><time>2026-04-22T09:16:54Z</time></trkpt><trkpt lat="42.02833085612165" lon="3.034090121140673"><ele>23.0</ele><time>2026-04-22T09:16:55Z</time></trkpt><trkpt lat="42.028505466294" lon="3.0341918473556753"><ele>23.0</ele><time>2026-04-22T09:16:56Z</time></trkpt><trkpt lat="42.028681435429135" lon="3.034289458229684"><ele>23.0</ele><time>2026-04-22T09:16:57Z</time></trkpt><trkpt lat="42.02886380641209" lon="3.034373509107837"><ele>23.0</ele><time>2026-04-22T09:16:58Z</time></trkpt><trkpt lat="42.029051064534514" lon="3.0344420060122452"><ele>23.0</ele><time>2026-04-22T09:16:59Z</time></trkpt><trkpt lat="42.02924219729985" lon="3.0344933684351574"><ele>23.0</ele><time>2026-04-22T09:17:00Z</time></trkpt><trkpt lat="42.02943406024362" lon="3.0345292169164786"><ele>23.333333333333336</ele><time>2026-04-22T09:17:01Z</time></trkpt><trkpt lat="42.0296309192143" lon="3.0345547728567097"><ele>23.666666666666668</ele><time>2026-04-22T09:17:02Z</time></trkpt><trkpt lat="42.02982269904348" lon="3.0345716261613975"><ele>24.0</ele><time>2026-04-22T09:17:03Z</time></trkpt><trkpt lat="42.030016427592855" lon="3.0345887206857136"><ele>25.0</ele><time>2026-04-22T09:17:04Z</time></trkpt><trkpt lat="42.0302116713017" lon="3.0346114277006246"><ele>26.0</ele><time>2026-04-22T09:17:05Z</time></trkpt><trkpt lat="42.03040712860476" lon="3.0346328430665626"><ele>27.0</ele><time>2026-04-22T09:17:06Z</time></trkpt><trkpt lat="42.03060516988846" lon="3.0346546680696336"><ele>27.0</ele><time>2026-04-22T09:17:07Z</time></trkpt><trkpt lat="42.030804261575824" lon="3.0346759731610335"><ele>27.0</ele><time>2026-04-22T09:17:08Z</time></trkpt><trkpt lat="42.03100197328135" lon="3.0347004186641864"><ele>27.0</ele><time>2026-04-22T09:17:09Z</time></trkpt><trkpt lat="42.031199286635726" lon="3.034723573661494"><ele>28.333333333333336</ele><time>2026-04-22T09:17:10Z</time></trkpt><trkpt lat="42.03139852449414" lon="3.034747060659741"><ele>29.666666666666668</ele><time>2026-04-22T09:17:11Z</time></trkpt><trkpt lat="42.031597425560896" lon="3.034769269900659"><ele>31.0</ele><time>2026-04-22T09:17:12Z</time></trkpt><trkpt lat="42.031798697563204" lon="3.034792087951797"><ele>31.0</ele><time>2026-04-22T09:17:13Z</time></trkpt><trkpt lat="42.03199851967135" lon="3.034815262148403"><ele>31.0</ele><time>2026-04-22T09:17:14Z</time></trkpt><trkpt lat="42.032199865683225" lon="3.034839063219379"><ele>31.0</ele><time>2026-04-22T09:17:15Z</time></trkpt><trkpt lat="42.03240221098574" lon="3.0348684156428933"><ele>29.666666666666668</ele><time>2026-04-22T09:17:16Z</time></trkpt><trkpt lat="42.03260376494784" lon="3.0348991959228004"><ele>28.333333333333336</ele><time>2026-04-22T09:17:17Z</time></trkpt><trkpt lat="42.032803171163756" lon="3.0349333650325994"><ele>27.0</ele><time>2026-04-22T09:17:18Z</time></trkpt><trkpt lat="42.0330051563576" lon="3.034975499043977"><ele>26.333333333333336</ele><time>2026-04-22T09:17:19Z</time></trkpt><trkpt lat="42.03320389549107" lon="3.035022564993325"><ele>25.666666666666668</ele><time>2026-04-22T09:17:20Z</time></trkpt><trkpt lat="42.033401492524014" lon="3.035074601916424"><ele>25.0</ele><time>2026-04-22T09:17:21Z</time></trkpt><trkpt lat="42.03359852901517" lon="3.035134225539535"><ele>24.666666666666668</ele><time>2026-04-22T09:17:22Z</time></trkpt><trkpt lat="42.03379331326324" lon="3.0351952562574476"><ele>24.333333333333336</ele><time>2026-04-22T09:17:23Z</time></trkpt><trkpt lat="42.033990779771045" lon="3.03526265715787"><ele>24.0</ele><time>2026-04-22T09:17:24Z</time></trkpt><trkpt lat="42.03418495037087" lon="3.0353369549397917"><ele>25.0</ele><time>2026-04-22T09:17:25Z</time></trkpt><trkpt lat="42.03437939138328" lon="3.0354131523229118"><ele>26.0</ele><time>2026-04-22T09:17:26Z</time></trkpt><trkpt lat="42.03457335624137" lon="3.0354909027236574"><ele>27.0</ele><time>2026-04-22T09:17:27Z</time></trkpt><trkpt lat="42.03476305067178" lon="3.0355757194604003"><ele>27.0</ele><time>2026-04-22T09:17:28Z</time></trkpt><trkpt lat="42.034952092781396" lon="3.0356637003789038"><ele>27.0</ele><time>2026-04-22T09:17:29Z</time></trkpt><trkpt lat="42.035142486081746" lon="3.035750617176629"><ele>27.0</ele><time>2026-04-22T09:17:30Z</time></trkpt><trkpt lat="42.03533289669359" lon="3.035838948636649"><ele>24.0</ele><time>2026-04-22T09:17:31Z</time></trkpt><trkpt lat="42.03552183969797" lon="3.035927822801653"><ele>21.0</ele><time>2026-04-22T09:17:32Z</time></trkpt><trkpt lat="42.035709221947776" lon="3.036016596979797"><ele>18.0</ele><time>2026-04-22T09:17:33Z</time></trkpt><trkpt lat="42.035891538578795" lon="3.036104830318098"><ele>18.0</ele><time>2026-04-22T09:17:34Z</time></trkpt><trkpt lat="42.036076685630434" lon="3.036193105922267"><ele>18.0</ele><time>2026-04-22T09:17:35Z</time></trkpt><trkpt lat="42.03626004776001" lon="3.036281714809967"><ele>18.0</ele><time>2026-04-22T09:17:36Z</time></trkpt><trkpt lat="42.03643910831331" lon="3.036368352064058"><ele>18.0</ele><time>2026-04-22T09:17:37Z</time></trkpt><trkpt lat="42.0366276247094" lon="3.0364561972816198"><ele>18.0</ele><time>2026-04-22T09:17:38Z</time></trkpt><trkpt lat="42.03681101048443" lon="3.0365414901087715"><ele>18.0</ele><time>2026-04-22T09:17:39Z</time></trkpt><trkpt lat="42.03699618706764" lon="3.0366305051865137"><ele>16.666666666666668</ele><time>2026-04-22T09:17:40Z</time></trkpt><trkpt lat="42.03718125999" lon="3.0367184864947308"><ele>15.333333333333334</ele><time>2026-04-22T09:17:41Z</time></trkpt><trkpt lat="42.03736483913526" lon="3.0368089235946294"><ele>14.0</ele><time>2026-04-22T09:17:42Z</time></trkpt><trkpt lat="42.03754890636504" lon="3.036897128001061"><ele>13.666666666666668</ele><time>2026-04-22T09:17:43Z</time></trkpt><trkpt lat="42.0377333486104" lon="3.0369846558875873"><ele>13.333333333333332</ele><time>2026-04-22T09:17:44Z</time></trkpt><trkpt lat="42.03791647163666" lon="3.0370686444537425"><ele>13.0</ele><time>2026-04-22T09:17:45Z</time></trkpt><trkpt lat="42.03810169902668" lon="3.037152510557513"><ele>13.0</ele><time>2026-04-22T09:17:46Z</time></trkpt><trkpt lat="42.03828390699415" lon="3.0372354112441045"><ele>13.0</ele><time>2026-04-22T09:17:47Z</time></trkpt><trkpt lat="42.038470496684226" lon="3.0373189538037897"><ele>13.0</ele><time>2026-04-22T09:17:48Z</time></trkpt><trkpt lat="42.03865572092133" lon="3.037400168556791"><ele>13.0</ele><time>2026-04-22T09:17:49Z</time></trkpt><trkpt lat="42.038840357500575" lon="3.0374786826451516"><ele>13.0</ele><time>2026-04-22T09:17:50Z</time></trkpt><trkpt lat="42.039027840447005" lon="3.037556207245931"><ele>13.0</ele><time>2026-04-22T09:17:51Z</time></trkpt><trkpt lat="42.03921341184132" lon="3.037640784972704"><ele>13.333333333333332</ele><time>2026-04-22T09:17:52Z</time></trkpt><trkpt lat="42.039400192683196" lon="3.037728422381496"><ele>13.666666666666668</ele><time>2026-04-22T09:17:53Z</time></trkpt><trkpt lat="42.03958674862824" lon="3.0378151733467975"><ele>14.0</ele><time>2026-04-22T09:17:54Z</time></trkpt><trkpt lat="42.039771898819076" lon="3.0379015974559076"><ele>14.0</ele><time>2026-04-22T09:17:55Z</time></trkpt><trkpt lat="42.03995870224958" lon="3.0379920829228926"><ele>14.0</ele><time>2026-04-22T09:17:56Z</time></trkpt><trkpt lat="42.04014549045684" lon="3.038082426075097"><ele>14.0</ele><time>2026-04-22T09:17:57Z</time></trkpt><trkpt lat="42.040329599830905" lon="3.038171266803874"><ele>14.333333333333334</ele><time>2026-04-22T09:17:58Z</time></trkpt><trkpt lat="42.04051076899412" lon="3.0382592636632193"><ele>14.666666666666668</ele><time>2026-04-22T09:17:59Z</time></trkpt><trkpt lat="42.04069272113418" lon="3.038349238124942"><ele>15.0</ele><time>2026-04-22T09:18:00Z</time></trkpt><trkpt lat="42.04087477381377" lon="3.038438301183553"><ele>15.333333333333332</ele><time>2026-04-22T09:18:01Z</time></trkpt><trkpt lat="42.04105445960634" lon="3.0385331323965863"><ele>15.666666666666666</ele><time>2026-04-22T09:18:02Z</time></trkpt><trkpt lat="42.04124041967585" lon="3.0386254899425147"><ele>16.0</ele><time>2026-04-22T09:18:03Z</time></trkpt><trkpt lat="42.04142655064119" lon="3.038716849349908"><ele>16.0</ele><time>2026-04-22T09:18:04Z</time></trkpt><trkpt lat="42.04161566596637" lon="3.0388075948511895"><ele>16.0</ele><time>2026-04-22T09:18:05Z</time></trkpt><trkpt lat="42.04180466063327" lon="3.038898478688235"><ele>16.0</ele><time>2026-04-22T09:18:06Z</time></trkpt><trkpt lat="42.04199524876931" lon="3.0389913075355843"><ele>15.333333333333332</ele><time>2026-04-22T09:18:07Z</time></trkpt><trkpt lat="42.04218389314855" lon="3.0390809208815224"><ele>14.666666666666668</ele><time>2026-04-22T09:18:08Z</time></trkpt><trkpt lat="42.04237150233442" lon="3.039172324248209"><ele>14.0</ele><time>2026-04-22T09:18:09Z</time></trkpt><trkpt lat="42.0425631944011" lon="3.0392651190535824"><ele>13.666666666666668</ele><time>2026-04-22T09:18:10Z</time></trkpt><trkpt lat="42.0427554281062" lon="3.0393601021173597"><ele>13.333333333333332</ele><time>2026-04-22T09:18:11Z</time></trkpt><trkpt lat="42.042946024031" lon="3.039454207130416"><ele>13.0</ele><time>2026-04-22T09:18:12Z</time></trkpt><trkpt lat="42.04313330725711" lon="3.0395501071798456"><ele>13.666666666666666</ele><time>2026-04-22T09:18:13Z</time></trkpt><trkpt lat="42.04332655748025" lon="3.03964538041636"><ele>14.333333333333332</ele><time>2026-04-22T09:18:14Z</time></trkpt><trkpt lat="42.04351622963542" lon="3.039742550405182"><ele>15.0</ele><time>2026-04-22T09:18:15Z</time></trkpt><trkpt lat="42.04370756306429" lon="3.039841517252512"><ele>15.0</ele><time>2026-04-22T09:18:16Z</time></trkpt><trkpt lat="42.043897343255146" lon="3.0399382641093404"><ele>15.0</ele><time>2026-04-22T09:18:17Z</time></trkpt><trkpt lat="42.04409043630468" lon="3.040034707815432"><ele>15.0</ele><time>2026-04-22T09:18:18Z</time></trkpt><trkpt lat="42.04428431816837" lon="3.0401304032245458"><ele>14.666666666666668</ele><time>2026-04-22T09:18:19Z</time></trkpt><trkpt lat="42.044479537708696" lon="3.0402253232947216"><ele>14.333333333333334</ele><time>2026-04-22T09:18:20Z</time></trkpt><trkpt lat="42.04467364493626" lon="3.040318207918407"><ele>14.0</ele><time>2026-04-22T09:18:21Z</time></trkpt><trkpt lat="42.0448679336489" lon="3.04040683733378"><ele>13.666666666666668</ele><time>2026-04-22T09:18:22Z</time></trkpt><trkpt lat="42.04506346803595" lon="3.040499720188664"><ele>13.333333333333332</ele><time>2026-04-22T09:18:23Z</time></trkpt><trkpt lat="42.04525726413902" lon="3.0405934668458565"><ele>13.0</ele><time>2026-04-22T09:18:24Z</time></trkpt><trkpt lat="42.0454535384612" lon="3.040686202264242"><ele>13.0</ele><time>2026-04-22T09:18:25Z</time></trkpt><trkpt lat="42.04564619089454" lon="3.0407775478787498"><ele>13.0</ele><time>2026-04-22T09:18:26Z</time></trkpt><trkpt lat="42.04583957012454" lon="3.040867558609064"><ele>13.0</ele><time>2026-04-22T09:18:27Z</time></trkpt><trkpt lat="42.04603182943591" lon="3.040956988242884"><ele>14.0</ele><time>2026-04-22T09:18:28Z</time></trkpt><trkpt lat="42.046223324705736" lon="3.0410504875187216"><ele>15.0</ele><time>2026-04-22T09:18:29Z</time></trkpt><trkpt lat="42.046418830479155" lon="3.041146158185792"><ele>16.0</ele><time>2026-04-22T09:18:30Z</time></trkpt><trkpt lat="42.04661308607317" lon="3.0412415331738796"><ele>15.333333333333332</ele><time>2026-04-22T09:18:31Z</time></trkpt><trkpt lat="42.04680771516179" lon="3.0413343970457265"><ele>14.666666666666668</ele><time>2026-04-22T09:18:32Z</time></trkpt><trkpt lat="42.0470017328442" lon="3.041425323244026"><ele>14.0</ele><time>2026-04-22T09:18:33Z</time></trkpt><trkpt lat="42.047192982358204" lon="3.0415184031784155"><ele>14.0</ele><time>2026-04-22T09:18:34Z</time></trkpt><trkpt lat="42.047385204803106" lon="3.041608284912864"><ele>14.0</ele><time>2026-04-22T09:18:35Z</time></trkpt><trkpt lat="42.04757729085394" lon="3.041698246845021"><ele>14.0</ele><time>2026-04-22T09:18:36Z</time></trkpt><trkpt lat="42.04776217549802" lon="3.04178721916378"><ele>14.0</ele><time>2026-04-22T09:18:37Z</time></trkpt><trkpt lat="42.04794663950459" lon="3.0418702383182135"><ele>14.0</ele><time>2026-04-22T09:18:38Z</time></trkpt><trkpt lat="42.04812092617373" lon="3.0419528613380074"><ele>14.0</ele><time>2026-04-22T09:18:39Z</time></trkpt><trkpt lat="42.048289389767305" lon="3.042031095986386"><ele>14.333333333333334</ele><time>2026-04-22T09:18:40Z</time></trkpt><trkpt lat="42.04845750676398" lon="3.0421069833197407"><ele>14.666666666666668</ele><time>2026-04-22T09:18:41Z</time></trkpt><trkpt lat="42.048621973124476" lon="3.0421839575923575"><ele>15.0</ele><time>2026-04-22T09:18:42Z</time></trkpt><trkpt lat="42.04878345383368" lon="3.0422602724157493"><ele>15.0</ele><time>2026-04-22T09:18:43Z</time></trkpt><trkpt lat="42.04894296095228" lon="3.0423376928197703"><ele>15.0</ele><time>2026-04-22T09:18:44Z</time></trkpt><trkpt lat="42.049102218478254" lon="3.0424165795175346"><ele>15.0</ele><time>2026-04-22T09:18:45Z</time></trkpt><trkpt lat="42.04926410646583" lon="3.0424940681506443"><ele>14.666666666666668</ele><time>2026-04-22T09:18:46Z</time></trkpt><trkpt lat="42.04942494417647" lon="3.0425659694945124"><ele>14.333333333333334</ele><time>2026-04-22T09:18:47Z</time></trkpt><trkpt lat="42.0495912292073" lon="3.042637841116437"><ele>14.0</ele><time>2026-04-22T09:18:48Z</time></trkpt><trkpt lat="42.04975522151879" lon="3.042714200226218"><ele>14.0</ele><time>2026-04-22T09:18:49Z</time></trkpt><trkpt lat="42.04991420455672" lon="3.0427867993549174"><ele>14.0</ele><time>2026-04-22T09:18:50Z</time></trkpt><trkpt lat="42.050068224021864" lon="3.042857494830484"><ele>14.0</ele><time>2026-04-22T09:18:51Z</time></trkpt><trkpt lat="42.050208550839024" lon="3.042923006230861"><ele>13.5</ele><time>2026-04-22T09:18:52Z</time></trkpt><trkpt lat="42.05033752618421" lon="3.0429847461508093"><ele>13.0</ele><time>2026-04-22T09:18:53Z</time></trkpt><trkpt lat="42.050455427738804" lon="3.043043869608157"><ele>12.5</ele><time>2026-04-22T09:18:54Z</time></trkpt><trkpt lat="42.05056951144349" lon="3.043100261920005"><ele>12.0</ele><time>2026-04-22T09:18:55Z</time></trkpt><trkpt lat="42.05067534288142" lon="3.0431531334195863"><ele>12.0</ele><time>2026-04-22T09:18:56Z</time></trkpt><trkpt lat="42.050781119434475" lon="3.0432063427109317"><ele>12.0</ele><time>2026-04-22T09:18:57Z</time></trkpt><trkpt lat="42.05088772662739" lon="3.043259319873799"><ele>12.0</ele><time>2026-04-22T09:18:58.001Z</time></trkpt><trkpt lat="42.05099313982122" lon="3.0433135141046126"><ele>12.0</ele><time>2026-04-22T09:18:59.001Z</time></trkpt><trkpt lat="42.05109680348883" lon="3.0433665801722434"><ele>12.0</ele><time>2026-04-22T09:19:00.001Z</time></trkpt><trkpt lat="42.051200599048876" lon="3.043417747295932"><ele>12.0</ele><time>2026-04-22T09:19:01.001Z</time></trkpt><trkpt lat="42.05130519226383" lon="3.0434675652195855"><ele>12.0</ele><time>2026-04-22T09:19:02.001Z</time></trkpt><trkpt lat="42.05140641150958" lon="3.0435153331633433"><ele>12.0</ele><time>2026-04-22T09:19:03Z</time></trkpt><trkpt lat="42.05151548092689" lon="3.0435666987577137"><ele>12.0</ele><time>2026-04-22T09:19:04Z</time></trkpt><trkpt lat="42.051621306679806" lon="3.043616558297599"><ele>12.25</ele><time>2026-04-22T09:19:05Z</time></trkpt><trkpt lat="42.051726311906194" lon="3.04366372228365"><ele>12.5</ele><time>2026-04-22T09:19:06Z</time></trkpt><trkpt lat="42.05183366318947" lon="3.04371391152057"><ele>12.75</ele><time>2026-04-22T09:19:07Z</time></trkpt><trkpt lat="42.05194185338648" lon="3.043766385224617"><ele>13.0</ele><time>2026-04-22T09:19:08Z</time></trkpt><trkpt lat="42.05204775738342" lon="3.0438173003850313"><ele>13.0</ele><time>2026-04-22T09:19:09Z</time></trkpt><trkpt lat="42.05215200664893" lon="3.043869542787205"><ele>13.0</ele><time>2026-04-22T09:19:10Z</time></trkpt><trkpt lat="42.05226306617034" lon="3.0439221039849977"><ele>13.0</ele><time>2026-04-22T09:19:11Z</time></trkpt><trkpt lat="42.05238151746491" lon="3.0439737420385926"><ele>13.0</ele><time>2026-04-22T09:19:12Z</time></trkpt><trkpt lat="42.05250073376455" lon="3.0440275271577093"><ele>13.25</ele><time>2026-04-22T09:19:13Z</time></trkpt><trkpt lat="42.05262400370807" lon="3.0440882477589515"><ele>13.5</ele><time>2026-04-22T09:19:14Z</time></trkpt><trkpt lat="42.05275290769434" lon="3.0441485280211302"><ele>13.75</ele><time>2026-04-22T09:19:15Z</time></trkpt><trkpt lat="42.05287681694043" lon="3.044209238463424"><ele>14.0</ele><time>2026-04-22T09:19:16Z</time></trkpt><trkpt lat="42.05300366968553" lon="3.044270721958594"><ele>14.25</ele><time>2026-04-22T09:19:17Z</time></trkpt><trkpt lat="42.05313136096952" lon="3.0443321610931267"><ele>14.5</ele><time>2026-04-22T09:19:18Z</time></trkpt><trkpt lat="42.05325570318912" lon="3.0443926452412304"><ele>14.75</ele><time>2026-04-22T09:19:19Z</time></trkpt><trkpt lat="42.05337402874972" lon="3.0444523638645173"><ele>15.0</ele><time>2026-04-22T09:19:20Z</time></trkpt><trkpt lat="42.05348883706704" lon="3.0445077911701386"><ele>14.25</ele><time>2026-04-22T09:19:21Z</time></trkpt><trkpt lat="42.053603059957396" lon="3.0445629284868843"><ele>13.5</ele><time>2026-04-22T09:19:22Z</time></trkpt><trkpt lat="42.05371736621112" lon="3.0446193199668015"><ele>12.75</ele><time>2026-04-22T09:19:23Z</time></trkpt><trkpt lat="42.05382912148882" lon="3.044672341561738"><ele>12.0</ele><time>2026-04-22T09:19:24Z</time></trkpt><trkpt lat="42.053941128934945" lon="3.044724791597828"><ele>12.0</ele><time>2026-04-22T09:19:25Z</time></trkpt><trkpt lat="42.05405057232027" lon="3.044778026561392"><ele>12.0</ele><time>2026-04-22T09:19:26.001Z</time></trkpt><trkpt lat="42.054160833097605" lon="3.0448317751367515"><ele>12.0</ele><time>2026-04-22T09:19:27Z</time></trkpt><trkpt lat="42.05426842473963" lon="3.044883705479564"><ele>12.0</ele><time>2026-04-22T09:19:28Z</time></trkpt><trkpt lat="42.05437809006113" lon="3.044935873211703"><ele>12.5</ele><time>2026-04-22T09:19:29Z</time></trkpt><trkpt lat="42.05448785096258" lon="3.04498916339542"><ele>13.0</ele><time>2026-04-22T09:19:30Z</time></trkpt><trkpt lat="42.05459358124562" lon="3.0450431564780422"><ele>13.5</ele><time>2026-04-22T09:19:31Z</time></trkpt><trkpt lat="42.054698719452375" lon="3.0450944089418384"><ele>14.0</ele><time>2026-04-22T09:19:32Z</time></trkpt><trkpt lat="42.05480473130397" lon="3.045144904998242"><ele>14.0</ele><time>2026-04-22T09:19:33Z</time></trkpt><trkpt lat="42.05491018312859" lon="3.045194206577095"><ele>13.999999999999998</ele><time>2026-04-22T09:19:34Z</time></trkpt><trkpt lat="42.05501472476356" lon="3.0452457726793853"><ele>13.999999999999998</ele><time>2026-04-22T09:19:35Z</time></trkpt><trkpt lat="42.055119912499336" lon="3.0452924933965684"><ele>14.0</ele><time>2026-04-22T09:19:36Z</time></trkpt><trkpt lat="42.05522516154189" lon="3.045341817296549"><ele>14.0</ele><time>2026-04-22T09:19:37.001Z</time></trkpt><trkpt lat="42.0553360013472" lon="3.0453952305162026"><ele>15.0</ele><time>2026-04-22T09:19:38.001Z</time></trkpt><trkpt lat="42.05544412921755" lon="3.0454465772112043"><ele>16.0</ele><time>2026-04-22T09:19:39.001Z</time></trkpt><trkpt lat="42.055550427709655" lon="3.0454985112918016"><ele>17.0</ele><time>2026-04-22T09:19:40.001Z</time></trkpt><trkpt lat="42.055658346763664" lon="3.045552101529122"><ele>18.0</ele><time>2026-04-22T09:19:41.001Z</time></trkpt><trkpt lat="42.05577243754022" lon="3.045607647387677"><ele>18.25</ele><time>2026-04-22T09:19:42.001Z</time></trkpt><trkpt lat="42.05588372538935" lon="3.0456618529632804"><ele>18.5</ele><time>2026-04-22T09:19:43.001Z</time></trkpt><trkpt lat="42.05599418278389" lon="3.0457111852180185"><ele>18.75</ele><time>2026-04-22T09:19:44.001Z</time></trkpt><trkpt lat="42.056105575146276" lon="3.0457653405388734"><ele>19.0</ele><time>2026-04-22T09:19:45.001Z</time></trkpt><trkpt lat="42.05621387389486" lon="3.0458192131559505"><ele>18.25</ele><time>2026-04-22T09:19:46.001Z</time></trkpt><trkpt lat="42.05632262593346" lon="3.0458776654158553"><ele>17.5</ele><time>2026-04-22T09:19:47.001Z</time></trkpt><trkpt lat="42.056429156020236" lon="3.0459303714669503"><ele>16.75</ele><time>2026-04-22T09:19:48.001Z</time></trkpt><trkpt lat="42.05653299172133" lon="3.0459830170858484"><ele>16.0</ele><time>2026-04-22T09:19:49.001Z</time></trkpt><trkpt lat="42.05663623644335" lon="3.0460356775314095"><ele>15.75</ele><time>2026-04-22T09:19:50.001Z</time></trkpt><trkpt lat="42.05674350619933" lon="3.046091761622215"><ele>15.5</ele><time>2026-04-22T09:19:51.001Z</time></trkpt><trkpt lat="42.05685368551705" lon="3.0461470412262868"><ele>15.25</ele><time>2026-04-22T09:19:52.001Z</time></trkpt><trkpt lat="42.05696537269155" lon="3.04620275352089"><ele>15.0</ele><time>2026-04-22T09:19:53.001Z</time></trkpt><trkpt lat="42.057072948213126" lon="3.0462589186536855"><ele>15.0</ele><time>2026-04-22T09:19:54.001Z</time></trkpt><trkpt lat="42.05717775848738" lon="3.046311601220611"><ele>15.0</ele><time>2026-04-22T09:19:55.001Z</time></trkpt><trkpt lat="42.057285361007494" lon="3.046365383570654"><ele>15.0</ele><time>2026-04-22T09:19:56.001Z</time></trkpt><trkpt lat="42.05739291504931" lon="3.046419804959527"><ele>15.0</ele><time>2026-04-22T09:19:57.001Z</time></trkpt><trkpt lat="42.0575015339581" lon="3.046473912408333"><ele>15.0</ele><time>2026-04-22T09:19:58.001Z</time></trkpt><trkpt lat="42.05761132144954" lon="3.0465314494921363"><ele>15.0</ele><time>2026-04-22T09:19:59.001Z</time></trkpt><trkpt lat="42.05772114293137" lon="3.046588480039183"><ele>15.0</ele><time>2026-04-22T09:20:00.001Z</time></trkpt><trkpt lat="42.05783087408485" lon="3.0466514563790597"><ele>15.0</ele><time>2026-04-22T09:20:01.001Z</time></trkpt><trkpt lat="42.05794246694311" lon="3.0467121836915414"><ele>14.75</ele><time>2026-04-22T09:20:02.001Z</time></trkpt><trkpt lat="42.05805370989699" lon="3.0467746574876995"><ele>14.5</ele><time>2026-04-22T09:20:03.001Z</time></trkpt><trkpt lat="42.05816094773453" lon="3.0468347109818046"><ele>14.25</ele><time>2026-04-22T09:20:04.001Z</time></trkpt><trkpt lat="42.05826839330566" lon="3.046895199462137"><ele>14.0</ele><time>2026-04-22T09:20:05.001Z</time></trkpt><trkpt lat="42.05837368792641" lon="3.046956583942691"><ele>13.799999999999999</ele><time>2026-04-22T09:20:06.001Z</time></trkpt><trkpt lat="42.05847613781189" lon="3.0470134495769794"><ele>13.599999999999998</ele><time>2026-04-22T09:20:07.001Z</time></trkpt><trkpt lat="42.0585726946879" lon="3.047070392177015"><ele>13.4</ele><time>2026-04-22T09:20:08.001Z</time></trkpt><trkpt lat="42.05866743157882" lon="3.0471240961941635"><ele>13.2</ele><time>2026-04-22T09:20:09.001Z</time></trkpt><trkpt lat="42.058760120556734" lon="3.047178040386619"><ele>13.0</ele><time>2026-04-22T09:20:10.001Z</time></trkpt><trkpt lat="42.05885738082184" lon="3.047234544946132"><ele>13.0</ele><time>2026-04-22T09:20:11.001Z</time></trkpt><trkpt lat="42.05895179531334" lon="3.0472907977699557"><ele>13.0</ele><time>2026-04-22T09:20:12.001Z</time></trkpt><trkpt lat="42.059040185923884" lon="3.0473419302429314"><ele>13.0</ele><time>2026-04-22T09:20:13.001Z</time></trkpt><trkpt lat="42.05912479804735" lon="3.0473920865282578"><ele>13.0</ele><time>2026-04-22T09:20:14.001Z</time></trkpt><trkpt lat="42.059210140018756" lon="3.047441560967241"><ele>13.0</ele><time>2026-04-22T09:20:15.001Z</time></trkpt><trkpt lat="42.0592980752126" lon="3.0474859786351365"><ele>13.4</ele><time>2026-04-22T09:20:16.001Z</time></trkpt><trkpt lat="42.05938902225612" lon="3.04752636082748"><ele>13.8</ele><time>2026-04-22T09:20:17.001Z</time></trkpt><trkpt lat="42.05948334771723" lon="3.047559956416299"><ele>14.2</ele><time>2026-04-22T09:20:18.001Z</time></trkpt><trkpt lat="42.05957821540859" lon="3.0475817637977514"><ele>14.6</ele><time>2026-04-22T09:20:19.001Z</time></trkpt><trkpt lat="42.05967431222949" lon="3.047595090831142"><ele>15.0</ele><time>2026-04-22T09:20:20.001Z</time></trkpt><trkpt lat="42.05977027515264" lon="3.0476007951330266"><ele>15.0</ele><time>2026-04-22T09:20:21.001Z</time></trkpt><trkpt lat="42.05986709199455" lon="3.047603845241759"><ele>15.0</ele><time>2026-04-22T09:20:22.001Z</time></trkpt><trkpt lat="42.059962404828234" lon="3.047607200755126"><ele>15.0</ele><time>2026-04-22T09:20:23.001Z</time></trkpt><trkpt lat="42.060059458987034" lon="3.047609087979755"><ele>15.0</ele><time>2026-04-22T09:20:24.001Z</time></trkpt><trkpt lat="42.060157226011874" lon="3.0476091899973192"><ele>15.0</ele><time>2026-04-22T09:20:25.001Z</time></trkpt><trkpt lat="42.06025154717303" lon="3.0476102584627016"><ele>15.2</ele><time>2026-04-22T09:20:26.001Z</time></trkpt><trkpt lat="42.06034619659047" lon="3.0476109496414745"><ele>15.4</ele><time>2026-04-22T09:20:27.001Z</time></trkpt><trkpt lat="42.060441181882" lon="3.0476152944487156"><ele>15.600000000000001</ele><time>2026-04-22T09:20:28.001Z</time></trkpt><trkpt lat="42.060538719097984" lon="3.0476199212166843"><ele>15.8</ele><time>2026-04-22T09:20:29.001Z</time></trkpt><trkpt lat="42.060634060154825" lon="3.0476237316109223"><ele>16.0</ele><time>2026-04-22T09:20:30.001Z</time></trkpt><trkpt lat="42.060728421028195" lon="3.047627082921836"><ele>16.0</ele><time>2026-04-22T09:20:31.001Z</time></trkpt><trkpt lat="42.06082230451923" lon="3.0476300639116105"><ele>16.0</ele><time>2026-04-22T09:20:32.001Z</time></trkpt><trkpt lat="42.060918277399864" lon="3.0476358870491036"><ele>16.0</ele><time>2026-04-22T09:20:33.001Z</time></trkpt><trkpt lat="42.06100993398038" lon="3.0476394025986053"><ele>16.0</ele><time>2026-04-22T09:20:34.001Z</time></trkpt><trkpt lat="42.061102432859556" lon="3.047647092602169"><ele>16.0</ele><time>2026-04-22T09:20:35.001Z</time></trkpt><trkpt lat="42.06119834095654" lon="3.047657410560324"><ele>16.0</ele><time>2026-04-22T09:20:36.001Z</time></trkpt><trkpt lat="42.06129089558077" lon="3.0476686880865547"><ele>16.0</ele><time>2026-04-22T09:20:37.001Z</time></trkpt><trkpt lat="42.06138234573892" lon="3.0476791937854255"><ele>16.0</ele><time>2026-04-22T09:20:38.001Z</time></trkpt><trkpt lat="42.06147660246369" lon="3.0476973350691323"><ele>16.0</ele><time>2026-04-22T09:20:39.001Z</time></trkpt><trkpt lat="42.06157144317446" lon="3.047719228449125"><ele>16.0</ele><time>2026-04-22T09:20:40.001Z</time></trkpt><trkpt lat="42.06166128916731" lon="3.0477428752041513"><ele>15.666666666666666</ele><time>2026-04-22T09:20:41.001Z</time></trkpt><trkpt lat="42.06174463166534" lon="3.0477665410103456"><ele>15.333333333333332</ele><time>2026-04-22T09:20:42.001Z</time></trkpt><trkpt lat="42.06182750565299" lon="3.047786236481246"><ele>15.0</ele><time>2026-04-22T09:20:43.001Z</time></trkpt><trkpt lat="42.061910272748705" lon="3.047812622695678"><ele>14.666666666666668</ele><time>2026-04-22T09:20:44.001Z</time></trkpt><trkpt lat="42.06198769580646" lon="3.047837730775129"><ele>14.333333333333334</ele><time>2026-04-22T09:20:45.001Z</time></trkpt><trkpt lat="42.06206432891825" lon="3.0478650082946084"><ele>14.0</ele><time>2026-04-22T09:20:46.001Z</time></trkpt><trkpt lat="42.06213138622777" lon="3.047896112813811"><ele>14.0</ele><time>2026-04-22T09:20:47.001Z</time></trkpt><trkpt lat="42.062193351220756" lon="3.047928621854715"><ele>13.999999999999998</ele><time>2026-04-22T09:20:48.001Z</time></trkpt><trkpt lat="42.06230128530127" lon="3.048011102331267"><ele>13.999999999999998</ele><time>2026-04-22T09:20:50.001Z</time></trkpt><trkpt lat="42.062356282502435" lon="3.0480543971315908"><ele>14.0</ele><time>2026-04-22T09:20:51.001Z</time></trkpt><trkpt lat="42.06248572617791" lon="3.048098315748655"><ele>14.0</ele><time>2026-04-22T09:20:53.001Z</time></trkpt><trkpt lat="42.06256195751363" lon="3.0481330507006823"><ele>14.0</ele><time>2026-04-22T09:20:54.001Z</time></trkpt><trkpt lat="42.06264254708489" lon="3.048181080629852"><ele>13.999999999999998</ele><time>2026-04-22T09:20:55.001Z</time></trkpt><trkpt lat="42.06272650934593" lon="3.0482268381452795"><ele>13.999999999999998</ele><time>2026-04-22T09:20:56.001Z</time></trkpt><trkpt lat="42.06281321339329" lon="3.0482777778803016"><ele>14.0</ele><time>2026-04-22T09:20:57.001Z</time></trkpt><trkpt lat="42.062911501365164" lon="3.048328792208082"><ele>14.0</ele><time>2026-04-22T09:20:58.001Z</time></trkpt><trkpt lat="42.06300595445399" lon="3.0483828307695275"><ele>14.0</ele><time>2026-04-22T09:20:59.001Z</time></trkpt><trkpt lat="42.06310387519309" lon="3.048435413497819"><ele>13.999999999999998</ele><time>2026-04-22T09:21:00.001Z</time></trkpt><trkpt lat="42.06320246715871" lon="3.048484031316145"><ele>13.999999999999998</ele><time>2026-04-22T09:21:01.001Z</time></trkpt><trkpt lat="42.06330154810224" lon="3.048528773708346"><ele>14.0</ele><time>2026-04-22T09:21:02.001Z</time></trkpt><trkpt lat="42.063400265050525" lon="3.0485771369727215"><ele>14.0</ele><time>2026-04-22T09:21:03.001Z</time></trkpt><trkpt lat="42.06349931397957" lon="3.0486270338940638"><ele>13.6</ele><time>2026-04-22T09:21:04.001Z</time></trkpt><trkpt lat="42.06359837030648" lon="3.0486776206856407"><ele>13.2</ele><time>2026-04-22T09:21:05.001Z</time></trkpt><trkpt lat="42.06370136211839" lon="3.0487270053568185"><ele>12.799999999999999</ele><time>2026-04-22T09:21:06.001Z</time></trkpt><trkpt lat="42.06380751511496" lon="3.0487808750215697"><ele>12.399999999999999</ele><time>2026-04-22T09:21:07.001Z</time></trkpt><trkpt lat="42.063917278901776" lon="3.0488338890696376"><ele>12.0</ele><time>2026-04-22T09:21:08.001Z</time></trkpt><trkpt lat="42.064030343475295" lon="3.0488878911001613"><ele>12.25</ele><time>2026-04-22T09:21:09.001Z</time></trkpt><trkpt lat="42.06414425232173" lon="3.0489423423351365"><ele>12.5</ele><time>2026-04-22T09:21:10.001Z</time></trkpt><trkpt lat="42.0642571995733" lon="3.048995905553278"><ele>12.75</ele><time>2026-04-22T09:21:11.001Z</time></trkpt><trkpt lat="42.06437283951582" lon="3.0490529122422223"><ele>13.0</ele><time>2026-04-22T09:21:12.001Z</time></trkpt><trkpt lat="42.06449278042294" lon="3.0491094543006843"><ele>12.75</ele><time>2026-04-22T09:21:13.001Z</time></trkpt><trkpt lat="42.06461114948525" lon="3.0491685198503466"><ele>12.5</ele><time>2026-04-22T09:21:14.001Z</time></trkpt><trkpt lat="42.06473352250313" lon="3.049229411038731"><ele>12.25</ele><time>2026-04-22T09:21:15.001Z</time></trkpt><trkpt lat="42.064859496667005" lon="3.049292222964663"><ele>12.0</ele><time>2026-04-22T09:21:16.001Z</time></trkpt><trkpt lat="42.064986430420205" lon="3.049355966152919"><ele>12.0</ele><time>2026-04-22T09:21:17.001Z</time></trkpt><trkpt lat="42.06511550541143" lon="3.0494200283565425"><ele>12.0</ele><time>2026-04-22T09:21:18.001Z</time></trkpt><trkpt lat="42.06524710014705" lon="3.0494824925161894"><ele>12.0</ele><time>2026-04-22T09:21:19.001Z</time></trkpt><trkpt lat="42.065382074540906" lon="3.0495459331214203"><ele>12.0</ele><time>2026-04-22T09:21:20.001Z</time></trkpt><trkpt lat="42.06551570666973" lon="3.0496124632814348"><ele>12.0</ele><time>2026-04-22T09:21:21.001Z</time></trkpt><trkpt lat="42.06565233958108" lon="3.0496778352923437"><ele>12.0</ele><time>2026-04-22T09:21:22.001Z</time></trkpt><trkpt lat="42.06578986844976" lon="3.0497432234695196"><ele>12.0</ele><time>2026-04-22T09:21:23.001Z</time></trkpt><trkpt lat="42.06592893019618" lon="3.0498065803759484"><ele>12.0</ele><time>2026-04-22T09:21:24.001Z</time></trkpt><trkpt lat="42.06606821679961" lon="3.049873943135436"><ele>12.0</ele><time>2026-04-22T09:21:25.001Z</time></trkpt><trkpt lat="42.06620773242738" lon="3.0499452983600337"><ele>12.0</ele><time>2026-04-22T09:21:26.001Z</time></trkpt><trkpt lat="42.06634931663986" lon="3.050017106106546"><ele>12.0</ele><time>2026-04-22T09:21:27.001Z</time></trkpt><trkpt lat="42.06663280198444" lon="3.0501582729302847"><ele>11.333333333333334</ele><time>2026-04-22T09:21:29Z</time></trkpt><trkpt lat="42.06678025053017" lon="3.0502301706018575"><ele>10.666666666666668</ele><time>2026-04-22T09:21:30Z</time></trkpt><trkpt lat="42.066928499554855" lon="3.050304576148115"><ele>10.0</ele><time>2026-04-22T09:21:31Z</time></trkpt><trkpt lat="42.067077771032075" lon="3.0503789426721584"><ele>10.0</ele><time>2026-04-22T09:21:32Z</time></trkpt><trkpt lat="42.067234049750006" lon="3.050456543571048"><ele>10.0</ele><time>2026-04-22T09:21:33Z</time></trkpt><trkpt lat="42.067391867536436" lon="3.0505336590074537"><ele>10.0</ele><time>2026-04-22T09:21:34Z</time></trkpt><trkpt lat="42.067547263078" lon="3.0506123801439617"><ele>10.666666666666668</ele><time>2026-04-22T09:21:35Z</time></trkpt><trkpt lat="42.067704879644225" lon="3.0506853562327336"><ele>11.333333333333334</ele><time>2026-04-22T09:21:36Z</time></trkpt><trkpt lat="42.06785947794623" lon="3.0507593647805815"><ele>12.0</ele><time>2026-04-22T09:21:37Z</time></trkpt><trkpt lat="42.0680114811271" lon="3.050831469931005"><ele>12.0</ele><time>2026-04-22T09:21:38Z</time></trkpt><trkpt lat="42.06816820390946" lon="3.0509073342528845"><ele>12.0</ele><time>2026-04-22T09:21:39Z</time></trkpt><trkpt lat="42.068325006478645" lon="3.0509805085635167"><ele>12.0</ele><time>2026-04-22T09:21:40Z</time></trkpt><trkpt lat="42.068481046937464" lon="3.0510547234510073"><ele>12.333333333333332</ele><time>2026-04-22T09:21:41Z</time></trkpt><trkpt lat="42.068635977476106" lon="3.051127652521024"><ele>12.666666666666666</ele><time>2026-04-22T09:21:42Z</time></trkpt><trkpt lat="42.068789935322286" lon="3.051201582453686"><ele>13.0</ele><time>2026-04-22T09:21:43Z</time></trkpt><trkpt lat="42.06894381868007" lon="3.051278430675124"><ele>13.0</ele><time>2026-04-22T09:21:44Z</time></trkpt><trkpt lat="42.06910003035494" lon="3.0513547756344717"><ele>13.0</ele><time>2026-04-22T09:21:45Z</time></trkpt><trkpt lat="42.06925502134197" lon="3.0514304479517755"><ele>13.0</ele><time>2026-04-22T09:21:46Z</time></trkpt><trkpt lat="42.06941134431097" lon="3.0515089083667895"><ele>12.333333333333332</ele><time>2026-04-22T09:21:47Z</time></trkpt><trkpt lat="42.06956682103627" lon="3.0515880105571003"><ele>11.666666666666666</ele><time>2026-04-22T09:21:48Z</time></trkpt><trkpt lat="42.06972415883372" lon="3.0516662830188213"><ele>11.0</ele><time>2026-04-22T09:21:49Z</time></trkpt><trkpt lat="42.069882435540464" lon="3.051743161416104"><ele>10.666666666666666</ele><time>2026-04-22T09:21:50Z</time></trkpt><trkpt lat="42.07003986773191" lon="3.05181850169115"><ele>10.333333333333334</ele><time>2026-04-22T09:21:51Z</time></trkpt><trkpt lat="42.07019997011163" lon="3.051896238846503"><ele>10.0</ele><time>2026-04-22T09:21:52Z</time></trkpt><trkpt lat="42.070364350016675" lon="3.0519761697252306"><ele>10.0</ele><time>2026-04-22T09:21:53Z</time></trkpt><trkpt lat="42.070527146901725" lon="3.0520571444459286"><ele>10.0</ele><time>2026-04-22T09:21:54Z</time></trkpt><trkpt lat="42.070694071869276" lon="3.0521402368381514"><ele>10.0</ele><time>2026-04-22T09:21:55Z</time></trkpt><trkpt lat="42.07086517466607" lon="3.0522255758699037"><ele>10.0</ele><time>2026-04-22T09:21:56Z</time></trkpt><trkpt lat="42.07104128025734" lon="3.052311042192894"><ele>10.0</ele><time>2026-04-22T09:21:57Z</time></trkpt><trkpt lat="42.071221118616435" lon="3.052400522933857"><ele>10.0</ele><time>2026-04-22T09:21:58Z</time></trkpt><trkpt lat="42.07140140428282" lon="3.0524879367393267"><ele>10.0</ele><time>2026-04-22T09:21:59Z</time></trkpt><trkpt lat="42.071584414566054" lon="3.05257694018025"><ele>10.0</ele><time>2026-04-22T09:22:00Z</time></trkpt><trkpt lat="42.07176795444945" lon="3.052663776647188"><ele>10.0</ele><time>2026-04-22T09:22:01Z</time></trkpt><trkpt lat="42.071948692187746" lon="3.052753806199676"><ele>10.0</ele><time>2026-04-22T09:22:02Z</time></trkpt><trkpt lat="42.07212769345396" lon="3.052843821002362"><ele>10.0</ele><time>2026-04-22T09:22:03Z</time></trkpt><trkpt lat="42.072306367449826" lon="3.052936707085116"><ele>10.0</ele><time>2026-04-22T09:22:04Z</time></trkpt><trkpt lat="42.07248441926766" lon="3.053037505457248"><ele>10.0</ele><time>2026-04-22T09:22:05Z</time></trkpt><trkpt lat="42.07266255850683" lon="3.05314630475192"><ele>10.0</ele><time>2026-04-22T09:22:06Z</time></trkpt><trkpt lat="42.072844433754604" lon="3.0532603491231356"><ele>10.0</ele><time>2026-04-22T09:22:07Z</time></trkpt><trkpt lat="42.073027493935584" lon="3.053376371717385"><ele>10.0</ele><time>2026-04-22T09:22:08Z</time></trkpt><trkpt lat="42.07321085579084" lon="3.053503596979919"><ele>10.0</ele><time>2026-04-22T09:22:09Z</time></trkpt><trkpt lat="42.07339583758439" lon="3.053635776875571"><ele>10.0</ele><time>2026-04-22T09:22:10Z</time></trkpt><trkpt lat="42.07357837333804" lon="3.053777628467767"><ele>10.0</ele><time>2026-04-22T09:22:11Z</time></trkpt><trkpt lat="42.07375938395489" lon="3.0539304000631313"><ele>10.0</ele><time>2026-04-22T09:22:12Z</time></trkpt><trkpt lat="42.073938175831934" lon="3.054088072404276"><ele>10.0</ele><time>2026-04-22T09:22:13Z</time></trkpt><trkpt lat="42.07411619953534" lon="3.0542549921479707"><ele>9.666666666666668</ele><time>2026-04-22T09:22:14Z</time></trkpt><trkpt lat="42.0742923234963" lon="3.054423474530094"><ele>9.333333333333334</ele><time>2026-04-22T09:22:15Z</time></trkpt><trkpt lat="42.074466462381395" lon="3.054597518312173"><ele>9.0</ele><time>2026-04-22T09:22:16Z</time></trkpt><trkpt lat="42.074637176557644" lon="3.0547769213136133"><ele>9.333333333333334</ele><time>2026-04-22T09:22:17Z</time></trkpt><trkpt lat="42.07480100185093" lon="3.0549565982527374"><ele>9.666666666666668</ele><time>2026-04-22T09:22:18Z</time></trkpt><trkpt lat="42.074963113888536" lon="3.055142026927959"><ele>10.0</ele><time>2026-04-22T09:22:19Z</time></trkpt><trkpt lat="42.07512776393471" lon="3.0553355006763505"><ele>10.0</ele><time>2026-04-22T09:22:20Z</time></trkpt><trkpt lat="42.075295403303016" lon="3.0555309315886783"><ele>10.0</ele><time>2026-04-22T09:22:21Z</time></trkpt><trkpt lat="42.0754654150769" lon="3.0557309063812963"><ele>10.0</ele><time>2026-04-22T09:22:22Z</time></trkpt><trkpt lat="42.075638082257576" lon="3.0559344683821528"><ele>10.0</ele><time>2026-04-22T09:22:23Z</time></trkpt><trkpt lat="42.07581151873727" lon="3.0561385269385117"><ele>10.0</ele><time>2026-04-22T09:22:24Z</time></trkpt><trkpt lat="42.07598412427588" lon="3.0563371631540073"><ele>10.0</ele><time>2026-04-22T09:22:25Z</time></trkpt><trkpt lat="42.07615469084503" lon="3.0565287205928975"><ele>10.0</ele><time>2026-04-22T09:22:26Z</time></trkpt><trkpt lat="42.07631911543824" lon="3.056714566902543"><ele>10.0</ele><time>2026-04-22T09:22:27Z</time></trkpt><trkpt lat="42.076482247851004" lon="3.056905510109615"><ele>10.0</ele><time>2026-04-22T09:22:28Z</time></trkpt><trkpt lat="42.076645156669535" lon="3.0570952355961385"><ele>10.0</ele><time>2026-04-22T09:22:29Z</time></trkpt><trkpt lat="42.07680556509457" lon="3.0572822420246575"><ele>10.0</ele><time>2026-04-22T09:22:30Z</time></trkpt><trkpt lat="42.07696897440833" lon="3.0574689190528983"><ele>10.0</ele><time>2026-04-22T09:22:31Z</time></trkpt><trkpt lat="42.07713389852782" lon="3.057649018961266"><ele>10.0</ele><time>2026-04-22T09:22:32Z</time></trkpt><trkpt lat="42.07730084460523" lon="3.057825944282093"><ele>10.0</ele><time>2026-04-22T09:22:33Z</time></trkpt><trkpt lat="42.07747176007733" lon="3.0579936114513946"><ele>10.333333333333334</ele><time>2026-04-22T09:22:34Z</time></trkpt><trkpt lat="42.0776431598022" lon="3.0581594353886303"><ele>10.666666666666666</ele><time>2026-04-22T09:22:35Z</time></trkpt><trkpt lat="42.07781702360585" lon="3.0583232357673906"><ele>11.0</ele><time>2026-04-22T09:22:36Z</time></trkpt><trkpt lat="42.07799167529049" lon="3.0584781369855243"><ele>11.333333333333332</ele><time>2026-04-22T09:22:37Z</time></trkpt><trkpt lat="42.07817012345086" lon="3.0586301729338294"><ele>11.666666666666666</ele><time>2026-04-22T09:22:38Z</time></trkpt><trkpt lat="42.07834677620008" lon="3.058776180213283"><ele>12.0</ele><time>2026-04-22T09:22:39Z</time></trkpt><trkpt lat="42.07852832899736" lon="3.0589150549997566"><ele>12.0</ele><time>2026-04-22T09:22:40Z</time></trkpt><trkpt lat="42.07870735777642" lon="3.0590474602350284"><ele>12.0</ele><time>2026-04-22T09:22:41Z</time></trkpt><trkpt lat="42.07888881486869" lon="3.0591760642765324"><ele>12.0</ele><time>2026-04-22T09:22:42Z</time></trkpt><trkpt lat="42.0790774231572" lon="3.0593054864018767"><ele>11.333333333333334</ele><time>2026-04-22T09:22:43Z</time></trkpt><trkpt lat="42.07926451504722" lon="3.0594322887865313"><ele>10.666666666666668</ele><time>2026-04-22T09:22:44Z</time></trkpt><trkpt lat="42.079451710880896" lon="3.059558134033145"><ele>10.0</ele><time>2026-04-22T09:22:45Z</time></trkpt><trkpt lat="42.07963465924513" lon="3.059684910029803"><ele>10.0</ele><time>2026-04-22T09:22:46Z</time></trkpt><trkpt lat="42.07981993912517" lon="3.059820857465679"><ele>10.0</ele><time>2026-04-22T09:22:47Z</time></trkpt><trkpt lat="42.079998205099024" lon="3.059966502093903"><ele>10.0</ele><time>2026-04-22T09:22:48Z</time></trkpt><trkpt lat="42.08017338075511" lon="3.060119364851744"><ele>9.666666666666668</ele><time>2026-04-22T09:22:49Z</time></trkpt><trkpt lat="42.080345165992796" lon="3.0602821167965852"><ele>9.333333333333334</ele><time>2026-04-22T09:22:50Z</time></trkpt><trkpt lat="42.08051354467137" lon="3.0604470325343685"><ele>9.0</ele><time>2026-04-22T09:22:51Z</time></trkpt><trkpt lat="42.0806791561443" lon="3.0606214335215496"><ele>9.333333333333334</ele><time>2026-04-22T09:22:52Z</time></trkpt><trkpt lat="42.08084105706003" lon="3.060802690760939"><ele>9.666666666666668</ele><time>2026-04-22T09:22:53Z</time></trkpt><trkpt lat="42.08100274725791" lon="3.0609928301059317"><ele>10.0</ele><time>2026-04-22T09:22:54Z</time></trkpt><trkpt lat="42.08115710004659" lon="3.0611915651425354"><ele>10.0</ele><time>2026-04-22T09:22:55Z</time></trkpt><trkpt lat="42.081308059999834" lon="3.061395340693253"><ele>10.0</ele><time>2026-04-22T09:22:56Z</time></trkpt><trkpt lat="42.08145195953525" lon="3.06160242505196"><ele>10.0</ele><time>2026-04-22T09:22:57.001Z</time></trkpt><trkpt lat="42.08158842848833" lon="3.0618135982621397"><ele>10.333333333333334</ele><time>2026-04-22T09:22:58.001Z</time></trkpt><trkpt lat="42.081723122285396" lon="3.062034795799857"><ele>10.666666666666666</ele><time>2026-04-22T09:22:59.001Z</time></trkpt><trkpt lat="42.08183302142431" lon="3.0622788599091946"><ele>11.0</ele><time>2026-04-22T09:23:00Z</time></trkpt><trkpt lat="42.08195053992991" lon="3.062510907594024"><ele>10.0</ele><time>2026-04-22T09:23:01Z</time></trkpt><trkpt lat="42.08208260550886" lon="3.062736227654855"><ele>9.0</ele><time>2026-04-22T09:23:02Z</time></trkpt><trkpt lat="42.08219070698303" lon="3.062982860786102"><ele>8.0</ele><time>2026-04-22T09:23:03Z</time></trkpt><trkpt lat="42.082297294214094" lon="3.0632282096531354"><ele>8.333333333333332</ele><time>2026-04-22T09:23:04Z</time></trkpt><trkpt lat="42.082403718031074" lon="3.0634786305794504"><ele>8.666666666666666</ele><time>2026-04-22T09:23:05Z</time></trkpt><trkpt lat="42.08251476220749" lon="3.0637264840965797"><ele>9.0</ele><time>2026-04-22T09:23:06.001Z</time></trkpt><trkpt lat="42.08263006847985" lon="3.0639690870865515"><ele>9.666666666666666</ele><time>2026-04-22T09:23:07Z</time></trkpt><trkpt lat="42.082750704738075" lon="3.064210267021126"><ele>10.333333333333332</ele><time>2026-04-22T09:23:08Z</time></trkpt><trkpt lat="42.08287789497656" lon="3.0644468076408296"><ele>11.0</ele><time>2026-04-22T09:23:09Z</time></trkpt><trkpt lat="42.08301214881191" lon="3.064677845286009"><ele>11.0</ele><time>2026-04-22T09:23:10Z</time></trkpt><trkpt lat="42.08315312888927" lon="3.0648997252723955"><ele>11.0</ele><time>2026-04-22T09:23:11Z</time></trkpt><trkpt lat="42.08329875551425" lon="3.0651149337700048"><ele>11.0</ele><time>2026-04-22T09:23:12Z</time></trkpt><trkpt lat="42.08344958810466" lon="3.0653249184792086"><ele>10.0</ele><time>2026-04-22T09:23:13Z</time></trkpt><trkpt lat="42.08360564217581" lon="3.0655329975966574"><ele>9.0</ele><time>2026-04-22T09:23:14Z</time></trkpt><trkpt lat="42.08376723963086" lon="3.0657407558636045"><ele>8.0</ele><time>2026-04-22T09:23:15Z</time></trkpt><trkpt lat="42.0839284393215" lon="3.0659484004240465"><ele>7.666666666666666</ele><time>2026-04-22T09:23:16Z</time></trkpt><trkpt lat="42.08408887012798" lon="3.0661547857847626"><ele>7.333333333333334</ele><time>2026-04-22T09:23:17Z</time></trkpt><trkpt lat="42.084247742940605" lon="3.066358768357306"><ele>7.0</ele><time>2026-04-22T09:23:18Z</time></trkpt><trkpt lat="42.084404528212396" lon="3.066560976994265"><ele>7.333333333333334</ele><time>2026-04-22T09:23:19Z</time></trkpt><trkpt lat="42.084567710878964" lon="3.0667658625432104"><ele>7.666666666666666</ele><time>2026-04-22T09:23:20Z</time></trkpt><trkpt lat="42.08472560087902" lon="3.066969246000674"><ele>8.0</ele><time>2026-04-22T09:23:21Z</time></trkpt><trkpt lat="42.08488986643363" lon="3.0671717391461555"><ele>7.666666666666666</ele><time>2026-04-22T09:23:22Z</time></trkpt><trkpt lat="42.08504957561741" lon="3.067375879321195"><ele>7.333333333333334</ele><time>2026-04-22T09:23:23Z</time></trkpt><trkpt lat="42.08521142361545" lon="3.067580148593769"><ele>7.0</ele><time>2026-04-22T09:23:24Z</time></trkpt><trkpt lat="42.08537439711281" lon="3.0677863578019555"><ele>7.0</ele><time>2026-04-22T09:23:25Z</time></trkpt><trkpt lat="42.08553594403401" lon="3.0679902551778704"><ele>7.0</ele><time>2026-04-22T09:23:26Z</time></trkpt><trkpt lat="42.08569817981201" lon="3.068195015207757"><ele>7.0</ele><time>2026-04-22T09:23:27Z</time></trkpt><trkpt lat="42.08585973488808" lon="3.0684001813939195"><ele>6.666666666666667</ele><time>2026-04-22T09:23:28Z</time></trkpt><trkpt lat="42.08602316171838" lon="3.068608109001648"><ele>6.333333333333334</ele><time>2026-04-22T09:23:29Z</time></trkpt><trkpt lat="42.086183507400456" lon="3.068813692812455"><ele>6.0</ele><time>2026-04-22T09:23:30Z</time></trkpt><trkpt lat="42.086341261116914" lon="3.06901816254708"><ele>6.0</ele><time>2026-04-22T09:23:31Z</time></trkpt><trkpt lat="42.08649778416582" lon="3.0692251055981505"><ele>6.0</ele><time>2026-04-22T09:23:32Z</time></trkpt><trkpt lat="42.08666191234242" lon="3.0694287077062445"><ele>6.0</ele><time>2026-04-22T09:23:33Z</time></trkpt><trkpt lat="42.08683137679259" lon="3.0696239079187104"><ele>6.333333333333334</ele><time>2026-04-22T09:23:34Z</time></trkpt><trkpt lat="42.087006925752576" lon="3.0698096773773615"><ele>6.666666666666667</ele><time>2026-04-22T09:23:35Z</time></trkpt><trkpt lat="42.08718455480185" lon="3.069985586668593"><ele>7.0</ele><time>2026-04-22T09:23:36Z</time></trkpt><trkpt lat="42.08736779597124" lon="3.070158429728278"><ele>7.666666666666667</ele><time>2026-04-22T09:23:37Z</time></trkpt><trkpt lat="42.08755193400675" lon="3.0703226396047056"><ele>8.333333333333334</ele><time>2026-04-22T09:23:38Z</time></trkpt><trkpt lat="42.08773831870301" lon="3.070477067754468"><ele>9.0</ele><time>2026-04-22T09:23:39Z</time></trkpt><trkpt lat="42.08792706894801" lon="3.0706335231531523"><ele>9.0</ele><time>2026-04-22T09:23:40Z</time></trkpt><trkpt lat="42.08811747038019" lon="3.0707797188667243"><ele>9.0</ele><time>2026-04-22T09:23:41Z</time></trkpt><trkpt lat="42.088303574431826" lon="3.0709252474532036"><ele>9.0</ele><time>2026-04-22T09:23:42Z</time></trkpt><trkpt lat="42.08848675635234" lon="3.0710704796996695"><ele>8.666666666666666</ele><time>2026-04-22T09:23:43Z</time></trkpt><trkpt lat="42.08867601106794" lon="3.071217493958778"><ele>8.333333333333332</ele><time>2026-04-22T09:23:44Z</time></trkpt><trkpt lat="42.08886567977022" lon="3.071360910188196"><ele>8.0</ele><time>2026-04-22T09:23:45Z</time></trkpt><trkpt lat="42.089051551002186" lon="3.071505019169844"><ele>7.666666666666666</ele><time>2026-04-22T09:23:46Z</time></trkpt><trkpt lat="42.08923965910662" lon="3.071649891946034"><ele>7.333333333333334</ele><time>2026-04-22T09:23:47Z</time></trkpt><trkpt lat="42.08942727846286" lon="3.07179681853047"><ele>7.0</ele><time>2026-04-22T09:23:48Z</time></trkpt><trkpt lat="42.08961801190447" lon="3.0719373336267237"><ele>7.0</ele><time>2026-04-22T09:23:49Z</time></trkpt><trkpt lat="42.089802237194185" lon="3.072081184051974"><ele>7.0</ele><time>2026-04-22T09:23:50Z</time></trkpt><trkpt lat="42.0899917041866" lon="3.072228922932299"><ele>7.0</ele><time>2026-04-22T09:23:51Z</time></trkpt><trkpt lat="42.090179894250845" lon="3.072373839208283"><ele>7.666666666666667</ele><time>2026-04-22T09:23:52Z</time></trkpt><trkpt lat="42.09036605037578" lon="3.0725204045058527"><ele>8.333333333333334</ele><time>2026-04-22T09:23:53Z</time></trkpt><trkpt lat="42.090555213455126" lon="3.072665975981284"><ele>9.0</ele><time>2026-04-22T09:23:54Z</time></trkpt><trkpt lat="42.090742415876576" lon="3.072809275740999"><ele>8.333333333333334</ele><time>2026-04-22T09:23:55Z</time></trkpt><trkpt lat="42.09093039504333" lon="3.072954200913615"><ele>7.666666666666667</ele><time>2026-04-22T09:23:56Z</time></trkpt><trkpt lat="42.091118856985084" lon="3.0730969012702913"><ele>7.0</ele><time>2026-04-22T09:23:57Z</time></trkpt><trkpt lat="42.09130553158312" lon="3.0732399849022936"><ele>7.0</ele><time>2026-04-22T09:23:58Z</time></trkpt><trkpt lat="42.09149368259873" lon="3.0733803792855774"><ele>7.0</ele><time>2026-04-22T09:23:59Z</time></trkpt><trkpt lat="42.09168446014013" lon="3.0735165128027466"><ele>7.0</ele><time>2026-04-22T09:24:00Z</time></trkpt><trkpt lat="42.09187826158155" lon="3.073635844381435"><ele>7.666666666666667</ele><time>2026-04-22T09:24:01Z</time></trkpt><trkpt lat="42.092078798261625" lon="3.0737363634177237"><ele>8.333333333333334</ele><time>2026-04-22T09:24:02Z</time></trkpt><trkpt lat="42.09228391862516" lon="3.073824533265461"><ele>9.0</ele><time>2026-04-22T09:24:03Z</time></trkpt><trkpt lat="42.09249535712016" lon="3.0738936808610346"><ele>10.333333333333332</ele><time>2026-04-22T09:24:04Z</time></trkpt><trkpt lat="42.092708460956665" lon="3.0739414772941873"><ele>11.666666666666666</ele><time>2026-04-22T09:24:05Z</time></trkpt><trkpt lat="42.092924748614614" lon="3.0739666387922577"><ele>13.0</ele><time>2026-04-22T09:24:06Z</time></trkpt><trkpt lat="42.09314118383298" lon="3.073971337978773"><ele>13.0</ele><time>2026-04-22T09:24:07Z</time></trkpt><trkpt lat="42.093360351733985" lon="3.073958800854989"><ele>13.0</ele><time>2026-04-22T09:24:08Z</time></trkpt><trkpt lat="42.093577964294674" lon="3.0739269044372146"><ele>13.0</ele><time>2026-04-22T09:24:09Z</time></trkpt><trkpt lat="42.093790917728896" lon="3.0738749969231023"><ele>13.0</ele><time>2026-04-22T09:24:10Z</time></trkpt><trkpt lat="42.09400159494051" lon="3.0738035631121594"><ele>13.0</ele><time>2026-04-22T09:24:11Z</time></trkpt><trkpt lat="42.094209451220344" lon="3.073713853408742"><ele>13.0</ele><time>2026-04-22T09:24:12Z</time></trkpt><trkpt lat="42.094411165731195" lon="3.073606301961752"><ele>12.0</ele><time>2026-04-22T09:24:13Z</time></trkpt><trkpt lat="42.09460700079239" lon="3.0734804712347996"><ele>11.0</ele><time>2026-04-22T09:24:14Z</time></trkpt><trkpt lat="42.094794305008264" lon="3.07333135551468"><ele>10.0</ele><time>2026-04-22T09:24:15Z</time></trkpt><trkpt lat="42.09497668124127" lon="3.07316875946304"><ele>9.333333333333334</ele><time>2026-04-22T09:24:16Z</time></trkpt><trkpt lat="42.09515229849389" lon="3.072990817949748"><ele>8.666666666666666</ele><time>2026-04-22T09:24:17Z</time></trkpt><trkpt lat="42.09531967992582" lon="3.072795909636374"><ele>8.0</ele><time>2026-04-22T09:24:18Z</time></trkpt><trkpt lat="42.09547377603867" lon="3.072583733504343"><ele>7.666666666666666</ele><time>2026-04-22T09:24:19Z</time></trkpt><trkpt lat="42.09562041149435" lon="3.072359501139231"><ele>7.333333333333334</ele><time>2026-04-22T09:24:20Z</time></trkpt><trkpt lat="42.095761551443026" lon="3.0721275093424136"><ele>7.0</ele><time>2026-04-22T09:24:21Z</time></trkpt><trkpt lat="42.09590257963949" lon="3.071891090871746"><ele>7.0</ele><time>2026-04-22T09:24:22Z</time></trkpt><trkpt lat="42.09604623407206" lon="3.0716640846813457"><ele>7.0</ele><time>2026-04-22T09:24:23Z</time></trkpt><trkpt lat="42.09619786019944" lon="3.071448804476751"><ele>7.0</ele><time>2026-04-22T09:24:24Z</time></trkpt><trkpt lat="42.0963605883645" lon="3.071241794383905"><ele>7.0</ele><time>2026-04-22T09:24:25Z</time></trkpt><trkpt lat="42.096530310506594" lon="3.071053558598384"><ele>7.0</ele><time>2026-04-22T09:24:26Z</time></trkpt><trkpt lat="42.096707409208804" lon="3.070877641561808"><ele>7.0</ele><time>2026-04-22T09:24:27Z</time></trkpt><trkpt lat="42.09696595413779" lon="3.0708756777141555"><ele>7.0</ele><time>2026-04-22T09:24:28Z</time></trkpt><trkpt lat="42.097149128249484" lon="3.0707274243427936"><ele>7.0</ele><time>2026-04-22T09:24:29Z</time></trkpt><trkpt lat="42.09733470593278" lon="3.070615919493679"><ele>7.0</ele><time>2026-04-22T09:24:30Z</time></trkpt><trkpt lat="42.09753516172469" lon="3.070505917991305"><ele>7.0</ele><time>2026-04-22T09:24:31Z</time></trkpt><trkpt lat="42.09772804156657" lon="3.0704214149785938"><ele>7.0</ele><time>2026-04-22T09:24:32Z</time></trkpt><trkpt lat="42.09792869061416" lon="3.0703505012335928"><ele>7.0</ele><time>2026-04-22T09:24:33Z</time></trkpt><trkpt lat="42.098137161051056" lon="3.070298281377281"><ele>6.666666666666667</ele><time>2026-04-22T09:24:34Z</time></trkpt><trkpt lat="42.09835301058995" lon="3.0702540680565584"><ele>6.333333333333334</ele><time>2026-04-22T09:24:35Z</time></trkpt><trkpt lat="42.098573630074256" lon="3.070208877762591"><ele>6.0</ele><time>2026-04-22T09:24:36Z</time></trkpt><trkpt lat="42.09878890254553" lon="3.070164782715596"><ele>6.0</ele><time>2026-04-22T09:24:37Z</time></trkpt><trkpt lat="42.09900467914627" lon="3.070119445000862"><ele>6.0</ele><time>2026-04-22T09:24:38Z</time></trkpt><trkpt lat="42.09921781900699" lon="3.070140086225133"><ele>6.0</ele><time>2026-04-22T09:24:39Z</time></trkpt><trkpt lat="42.09943169225727" lon="3.0701980662127406"><ele>6.333333333333334</ele><time>2026-04-22T09:24:40Z</time></trkpt><trkpt lat="42.09964381265295" lon="3.0702697380616235"><ele>6.666666666666667</ele><time>2026-04-22T09:24:41Z</time></trkpt><trkpt lat="42.099854577561366" lon="3.0703440685181302"><ele>7.0</ele><time>2026-04-22T09:24:42Z</time></trkpt><trkpt lat="42.1000665351217" lon="3.0704181265280472"><ele>7.333333333333334</ele><time>2026-04-22T09:24:43Z</time></trkpt><trkpt lat="42.10027801451688" lon="3.0704927978766876"><ele>7.666666666666666</ele><time>2026-04-22T09:24:44Z</time></trkpt><trkpt lat="42.100486520590785" lon="3.070565969907779"><ele>8.0</ele><time>2026-04-22T09:24:45Z</time></trkpt><trkpt lat="42.10069826620229" lon="3.070636039343029"><ele>7.666666666666666</ele><time>2026-04-22T09:24:46Z</time></trkpt><trkpt lat="42.10090859958135" lon="3.070706701265869"><ele>7.333333333333334</ele><time>2026-04-22T09:24:47Z</time></trkpt><trkpt lat="42.10111716269569" lon="3.0707782152682297"><ele>7.0</ele><time>2026-04-22T09:24:48Z</time></trkpt><trkpt lat="42.10132906819252" lon="3.0708498858245483"><ele>7.0</ele><time>2026-04-22T09:24:49Z</time></trkpt><trkpt lat="42.10154149803292" lon="3.0709211284772886"><ele>7.0</ele><time>2026-04-22T09:24:50Z</time></trkpt><trkpt lat="42.10175272984566" lon="3.0709944763578427"><ele>7.0</ele><time>2026-04-22T09:24:51Z</time></trkpt><trkpt lat="42.1019630713878" lon="3.071067118074069"><ele>7.0</ele><time>2026-04-22T09:24:52Z</time></trkpt><trkpt lat="42.1021730658279" lon="3.0711405705505217"><ele>7.0</ele><time>2026-04-22T09:24:53Z</time></trkpt><trkpt lat="42.10238184922626" lon="3.071212398060361"><ele>7.0</ele><time>2026-04-22T09:24:54Z</time></trkpt><trkpt lat="42.10259199361312" lon="3.071286383702276"><ele>7.0</ele><time>2026-04-22T09:24:55Z</time></trkpt><trkpt lat="42.10280519109468" lon="3.0713593966597683"><ele>7.0</ele><time>2026-04-22T09:24:56Z</time></trkpt><trkpt lat="42.103017607470576" lon="3.071431076540537"><ele>7.0</ele><time>2026-04-22T09:24:57Z</time></trkpt><trkpt lat="42.10323085452884" lon="3.0715022264170533"><ele>7.333333333333334</ele><time>2026-04-22T09:24:58Z</time></trkpt><trkpt lat="42.103444045900595" lon="3.0715718939378718"><ele>7.666666666666666</ele><time>2026-04-22T09:24:59Z</time></trkpt><trkpt lat="42.10365566870455" lon="3.0716435410717984"><ele>8.0</ele><time>2026-04-22T09:25:00Z</time></trkpt><trkpt lat="42.103868611683424" lon="3.0717146543829434"><ele>8.0</ele><time>2026-04-22T09:25:01Z</time></trkpt><trkpt lat="42.10408059324181" lon="3.071787191942376"><ele>8.0</ele><time>2026-04-22T09:25:02Z</time></trkpt><trkpt lat="42.10429129879618" lon="3.071858716475638"><ele>8.0</ele><time>2026-04-22T09:25:03Z</time></trkpt><trkpt lat="42.104503001564744" lon="3.0719301372716945"><ele>8.0</ele><time>2026-04-22T09:25:04Z</time></trkpt><trkpt lat="42.10471233291971" lon="3.072000830325076"><ele>8.0</ele><time>2026-04-22T09:25:05Z</time></trkpt><trkpt lat="42.104921657257016" lon="3.0720713534465007"><ele>8.0</ele><time>2026-04-22T09:25:06Z</time></trkpt><trkpt lat="42.10513264649645" lon="3.072142183006985"><ele>8.333333333333332</ele><time>2026-04-22T09:25:07Z</time></trkpt><trkpt lat="42.105344873035286" lon="3.0722118008663677"><ele>8.666666666666666</ele><time>2026-04-22T09:25:08Z</time></trkpt><trkpt lat="42.105552466031945" lon="3.072280643547567"><ele>9.0</ele><time>2026-04-22T09:25:09Z</time></trkpt><trkpt lat="42.10576110501173" lon="3.072350099041342"><ele>9.0</ele><time>2026-04-22T09:25:10Z</time></trkpt><trkpt lat="42.1059708188304" lon="3.072418118582838"><ele>9.0</ele><time>2026-04-22T09:25:11Z</time></trkpt><trkpt lat="42.10617925406566" lon="3.0724859682747625"><ele>9.0</ele><time>2026-04-22T09:25:12Z</time></trkpt><trkpt lat="42.10639008016717" lon="3.0725552837552725"><ele>9.333333333333334</ele><time>2026-04-22T09:25:13Z</time></trkpt><trkpt lat="42.10660134403994" lon="3.0726276686054774"><ele>9.666666666666668</ele><time>2026-04-22T09:25:14Z</time></trkpt><trkpt lat="42.10680894993796" lon="3.0726979382273734"><ele>10.0</ele><time>2026-04-22T09:25:15Z</time></trkpt><trkpt lat="42.107020045478556" lon="3.0727700419303794"><ele>10.0</ele><time>2026-04-22T09:25:16Z</time></trkpt><trkpt lat="42.107231233982056" lon="3.0728398335412686"><ele>10.0</ele><time>2026-04-22T09:25:17Z</time></trkpt><trkpt lat="42.107440300643475" lon="3.072910554110979"><ele>10.0</ele><time>2026-04-22T09:25:18Z</time></trkpt><trkpt lat="42.107652260620604" lon="3.0729819947529244"><ele>10.0</ele><time>2026-04-22T09:25:19Z</time></trkpt><trkpt lat="42.10786516812543" lon="3.073054168849104"><ele>10.0</ele><time>2026-04-22T09:25:20Z</time></trkpt><trkpt lat="42.10807771977605" lon="3.07312514166373"><ele>10.0</ele><time>2026-04-22T09:25:21Z</time></trkpt><trkpt lat="42.10829231811998" lon="3.0731988119300597"><ele>10.0</ele><time>2026-04-22T09:25:22Z</time></trkpt><trkpt lat="42.10850563756954" lon="3.073268588268637"><ele>10.0</ele><time>2026-04-22T09:25:23Z</time></trkpt><trkpt lat="42.108720073019164" lon="3.073342632061693"><ele>10.0</ele><time>2026-04-22T09:25:24Z</time></trkpt><trkpt lat="42.108935825511715" lon="3.073414222865995"><ele>9.333333333333334</ele><time>2026-04-22T09:25:25Z</time></trkpt><trkpt lat="42.10915118784338" lon="3.073487142145488"><ele>8.666666666666666</ele><time>2026-04-22T09:25:26Z</time></trkpt><trkpt lat="42.10936736499613" lon="3.073559678587339"><ele>8.0</ele><time>2026-04-22T09:25:27Z</time></trkpt><trkpt lat="42.1095821228384" lon="3.0736308577316165"><ele>8.0</ele><time>2026-04-22T09:25:28Z</time></trkpt><trkpt lat="42.109793076468684" lon="3.073701823501645"><ele>8.0</ele><time>2026-04-22T09:25:29Z</time></trkpt><trkpt lat="42.11000787449307" lon="3.0737728091574774"><ele>8.0</ele><time>2026-04-22T09:25:30Z</time></trkpt><trkpt lat="42.110221475158184" lon="3.0738412923692686"><ele>8.666666666666666</ele><time>2026-04-22T09:25:31Z</time></trkpt><trkpt lat="42.110438474392595" lon="3.0739094753432066"><ele>9.333333333333334</ele><time>2026-04-22T09:25:32Z</time></trkpt><trkpt lat="42.110655009484496" lon="3.073973506372627"><ele>10.0</ele><time>2026-04-22T09:25:33Z</time></trkpt><trkpt lat="42.11087009261045" lon="3.0740308184721936"><ele>10.333333333333334</ele><time>2026-04-22T09:25:34Z</time></trkpt><trkpt lat="42.111086768397314" lon="3.0740790991967937"><ele>10.666666666666666</ele><time>2026-04-22T09:25:35Z</time></trkpt><trkpt lat="42.11130217609239" lon="3.0741294734076634"><ele>11.0</ele><time>2026-04-22T09:25:36Z</time></trkpt><trkpt lat="42.111519639769746" lon="3.0741747728866264"><ele>9.666666666666666</ele><time>2026-04-22T09:25:37Z</time></trkpt><trkpt lat="42.11173476734608" lon="3.0742166636563653"><ele>8.333333333333334</ele><time>2026-04-22T09:25:38Z</time></trkpt><trkpt lat="42.111949975299375" lon="3.0742551238812883"><ele>7.0</ele><time>2026-04-22T09:25:39Z</time></trkpt><trkpt lat="42.11216696451899" lon="3.0742937114684534"><ele>7.0</ele><time>2026-04-22T09:25:40Z</time></trkpt><trkpt lat="42.112380928498" lon="3.074326858584848"><ele>7.0</ele><time>2026-04-22T09:25:41Z</time></trkpt><trkpt lat="42.112596262541665" lon="3.07435787099451"><ele>7.0</ele><time>2026-04-22T09:25:42Z</time></trkpt><trkpt lat="42.11281446851373" lon="3.074384281658028"><ele>7.0</ele><time>2026-04-22T09:25:43Z</time></trkpt><trkpt lat="42.11303333199791" lon="3.074409048021918"><ele>7.0</ele><time>2026-04-22T09:25:44Z</time></trkpt><trkpt lat="42.11325076456781" lon="3.074427122799512"><ele>7.0</ele><time>2026-04-22T09:25:45Z</time></trkpt><trkpt lat="42.113470542832886" lon="3.074444278707827"><ele>7.0</ele><time>2026-04-22T09:25:46Z</time></trkpt><trkpt lat="42.11369165783673" lon="3.0744566129451"><ele>7.0</ele><time>2026-04-22T09:25:47Z</time></trkpt><trkpt lat="42.11391556867886" lon="3.0744668076210293"><ele>7.0</ele><time>2026-04-22T09:25:48Z</time></trkpt><trkpt lat="42.11413722336737" lon="3.074472446760216"><ele>6.666666666666667</ele><time>2026-04-22T09:25:49Z</time></trkpt><trkpt lat="42.1143605884083" lon="3.0744749017582045"><ele>6.333333333333334</ele><time>2026-04-22T09:25:50Z</time></trkpt><trkpt lat="42.11458234671673" lon="3.074473991141304"><ele>6.0</ele><time>2026-04-22T09:25:51Z</time></trkpt><trkpt lat="42.114802192558294" lon="3.074468709754945"><ele>6.0</ele><time>2026-04-22T09:25:52Z</time></trkpt><trkpt lat="42.11502268445477" lon="3.074480587406131"><ele>6.0</ele><time>2026-04-22T09:25:53Z</time></trkpt><trkpt lat="42.11524319207024" lon="3.0744438172926554"><ele>6.0</ele><time>2026-04-22T09:25:54Z</time></trkpt><trkpt lat="42.11545975310509" lon="3.074422524553352"><ele>6.0</ele><time>2026-04-22T09:25:55Z</time></trkpt><trkpt lat="42.11568049333907" lon="3.0743970012228328"><ele>6.0</ele><time>2026-04-22T09:25:56Z</time></trkpt><trkpt lat="42.115895807832146" lon="3.074362969759193"><ele>6.0</ele><time>2026-04-22T09:25:57Z</time></trkpt><trkpt lat="42.11611030148865" lon="3.074324045128207"><ele>6.333333333333334</ele><time>2026-04-22T09:25:58Z</time></trkpt><trkpt lat="42.11632097851484" lon="3.074277551294029"><ele>6.666666666666667</ele><time>2026-04-22T09:25:59Z</time></trkpt><trkpt lat="42.116527005902384" lon="3.0742250639778304"><ele>7.0</ele><time>2026-04-22T09:26:00Z</time></trkpt><trkpt lat="42.11672900186256" lon="3.074165935227837"><ele>7.666666666666667</ele><time>2026-04-22T09:26:01Z</time></trkpt><trkpt lat="42.11693089560162" lon="3.074100510354443"><ele>8.333333333333334</ele><time>2026-04-22T09:26:02Z</time></trkpt><trkpt lat="42.11713171368153" lon="3.074029503231225"><ele>9.0</ele><time>2026-04-22T09:26:03Z</time></trkpt><trkpt lat="42.11733087780244" lon="3.0739518508832355"><ele>10.0</ele><time>2026-04-22T09:26:04Z</time></trkpt><trkpt lat="42.11752750428527" lon="3.073865520905635"><ele>11.0</ele><time>2026-04-22T09:26:05Z</time></trkpt><trkpt lat="42.11772152443805" lon="3.073769098734677"><ele>12.0</ele><time>2026-04-22T09:26:06Z</time></trkpt><trkpt lat="42.11791347948343" lon="3.0736665378268047"><ele>12.0</ele><time>2026-04-22T09:26:07Z</time></trkpt><trkpt lat="42.11810121333242" lon="3.0735524369772618"><ele>12.0</ele><time>2026-04-22T09:26:08Z</time></trkpt><trkpt lat="42.11828981121987" lon="3.0734311739615685"><ele>12.0</ele><time>2026-04-22T09:26:09Z</time></trkpt><trkpt lat="42.118476651492365" lon="3.073304022845966"><ele>13.666666666666668</ele><time>2026-04-22T09:26:10Z</time></trkpt><trkpt lat="42.118660522435555" lon="3.0731668884882257"><ele>15.333333333333334</ele><time>2026-04-22T09:26:11Z</time></trkpt><trkpt lat="42.11884058660962" lon="3.0730209416245726"><ele>17.0</ele><time>2026-04-22T09:26:12Z</time></trkpt><trkpt lat="42.119017134012616" lon="3.07286702048079"><ele>16.666666666666668</ele><time>2026-04-22T09:26:13Z</time></trkpt><trkpt lat="42.119195809333846" lon="3.072713144331646"><ele>16.333333333333332</ele><time>2026-04-22T09:26:14Z</time></trkpt><trkpt lat="42.11937085343606" lon="3.072560677848786"><ele>16.0</ele><time>2026-04-22T09:26:15Z</time></trkpt><trkpt lat="42.11954854983253" lon="3.072405578281888"><ele>16.333333333333332</ele><time>2026-04-22T09:26:16Z</time></trkpt><trkpt lat="42.11972844379053" lon="3.072249697928752"><ele>16.666666666666668</ele><time>2026-04-22T09:26:17Z</time></trkpt><trkpt lat="42.1199066040876" lon="3.0720880263331822"><ele>17.0</ele><time>2026-04-22T09:26:18Z</time></trkpt><trkpt lat="42.12008703075424" lon="3.071925980961696"><ele>17.0</ele><time>2026-04-22T09:26:19Z</time></trkpt><trkpt lat="42.12026671316098" lon="3.0717656853734594"><ele>17.0</ele><time>2026-04-22T09:26:20Z</time></trkpt><trkpt lat="42.12044911594615" lon="3.071604972001905"><ele>17.0</ele><time>2026-04-22T09:26:21Z</time></trkpt><trkpt lat="42.12062785300575" lon="3.0714469761412686"><ele>16.333333333333336</ele><time>2026-04-22T09:26:22Z</time></trkpt><trkpt lat="42.12080630109846" lon="3.0712906399830207"><ele>15.666666666666668</ele><time>2026-04-22T09:26:23Z</time></trkpt><trkpt lat="42.12098542129425" lon="3.0711333475289333"><ele>15.0</ele><time>2026-04-22T09:26:24Z</time></trkpt><trkpt lat="42.12116398076027" lon="3.070973425007438"><ele>15.0</ele><time>2026-04-22T09:26:25Z</time></trkpt><trkpt lat="42.121344368097304" lon="3.070816456059547"><ele>15.0</ele><time>2026-04-22T09:26:26Z</time></trkpt><trkpt lat="42.121520405104455" lon="3.070663225158572"><ele>15.0</ele><time>2026-04-22T09:26:27Z</time></trkpt><trkpt lat="42.121695326622124" lon="3.07050742701225"><ele>15.0</ele><time>2026-04-22T09:26:28Z</time></trkpt><trkpt lat="42.12187298638254" lon="3.0703498341358864"><ele>15.0</ele><time>2026-04-22T09:26:29Z</time></trkpt><trkpt lat="42.12204894432016" lon="3.0701923952949257"><ele>15.0</ele><time>2026-04-22T09:26:30Z</time></trkpt><trkpt lat="42.122227110009426" lon="3.0700363655702505"><ele>15.333333333333332</ele><time>2026-04-22T09:26:31Z</time></trkpt><trkpt lat="42.122408183777324" lon="3.0698803651524185"><ele>15.666666666666666</ele><time>2026-04-22T09:26:32Z</time></trkpt><trkpt lat="42.122585269806436" lon="3.069722923496936"><ele>16.0</ele><time>2026-04-22T09:26:33Z</time></trkpt><trkpt lat="42.12276397263727" lon="3.0695667140110214"><ele>16.0</ele><time>2026-04-22T09:26:34Z</time></trkpt><trkpt lat="42.12294463857187" lon="3.0694072771264826"><ele>16.0</ele><time>2026-04-22T09:26:35Z</time></trkpt><trkpt lat="42.123124534802464" lon="3.0692489620915024"><ele>16.0</ele><time>2026-04-22T09:26:36Z</time></trkpt><trkpt lat="42.12330299114699" lon="3.06909127132054"><ele>16.666666666666664</ele><time>2026-04-22T09:26:37Z</time></trkpt><trkpt lat="42.12348226944105" lon="3.068936123920259"><ele>17.333333333333332</ele><time>2026-04-22T09:26:38Z</time></trkpt><trkpt lat="42.12366119354172" lon="3.068779917158699"><ele>18.0</ele><time>2026-04-22T09:26:39Z</time></trkpt><trkpt lat="42.12383962425921" lon="3.06862276019066"><ele>18.0</ele><time>2026-04-22T09:26:40Z</time></trkpt><trkpt lat="42.12401909964587" lon="3.068464255610721"><ele>18.0</ele><time>2026-04-22T09:26:41Z</time></trkpt><trkpt lat="42.124201287960986" lon="3.0683100679581448"><ele>18.0</ele><time>2026-04-22T09:26:42Z</time></trkpt><trkpt lat="42.124384613894364" lon="3.068158756547724"><ele>18.0</ele><time>2026-04-22T09:26:43Z</time></trkpt><trkpt lat="42.12457026033348" lon="3.068006830805608"><ele>18.0</ele><time>2026-04-22T09:26:44Z</time></trkpt><trkpt lat="42.12475835733514" lon="3.0678605891896646"><ele>18.0</ele><time>2026-04-22T09:26:45Z</time></trkpt><trkpt lat="42.124947366909055" lon="3.0677164756707396"><ele>18.0</ele><time>2026-04-22T09:26:46Z</time></trkpt><trkpt lat="42.125145014115176" lon="3.0675768143018582"><ele>18.0</ele><time>2026-04-22T09:26:47Z</time></trkpt><trkpt lat="42.12533864492335" lon="3.067436695873897"><ele>18.0</ele><time>2026-04-22T09:26:48Z</time></trkpt><trkpt lat="42.125537817399895" lon="3.067305181149126"><ele>18.0</ele><time>2026-04-22T09:26:49Z</time></trkpt><trkpt lat="42.12573458987757" lon="3.06717771421253"><ele>18.0</ele><time>2026-04-22T09:26:50Z</time></trkpt><trkpt lat="42.12593151573304" lon="3.0670570918086297"><ele>18.0</ele><time>2026-04-22T09:26:51Z</time></trkpt><trkpt lat="42.1261259412021" lon="3.066938210867931"><ele>18.0</ele><time>2026-04-22T09:26:52Z</time></trkpt><trkpt lat="42.12632508058108" lon="3.0668187895885985"><ele>18.0</ele><time>2026-04-22T09:26:53Z</time></trkpt><trkpt lat="42.12652166561353" lon="3.066708930734418"><ele>18.0</ele><time>2026-04-22T09:26:54Z</time></trkpt><trkpt lat="42.126714606944134" lon="3.066605423246324"><ele>18.0</ele><time>2026-04-22T09:26:55Z</time></trkpt><trkpt lat="42.12690849563482" lon="3.0665061686775372"><ele>18.0</ele><time>2026-04-22T09:26:56Z</time></trkpt><trkpt lat="42.12710555552634" lon="3.0664013787723383"><ele>18.0</ele><time>2026-04-22T09:26:57Z</time></trkpt><trkpt lat="42.12729701499469" lon="3.0662980164668476"><ele>17.666666666666668</ele><time>2026-04-22T09:26:58Z</time></trkpt><trkpt lat="42.12749411100603" lon="3.0662067972009868"><ele>17.333333333333336</ele><time>2026-04-22T09:26:59Z</time></trkpt><trkpt lat="42.127685659773356" lon="3.0661255442205504"><ele>17.0</ele><time>2026-04-22T09:27:00Z</time></trkpt><trkpt lat="42.12787800846617" lon="3.0660391183227573"><ele>17.0</ele><time>2026-04-22T09:27:01Z</time></trkpt><trkpt lat="42.12806661792088" lon="3.0659601375850634"><ele>17.0</ele><time>2026-04-22T09:27:02Z</time></trkpt><trkpt lat="42.128248746926545" lon="3.065883374500881"><ele>17.0</ele><time>2026-04-22T09:27:03Z</time></trkpt><trkpt lat="42.12843209129877" lon="3.065817653461407"><ele>16.666666666666668</ele><time>2026-04-22T09:27:04Z</time></trkpt><trkpt lat="42.1286186703685" lon="3.0657515797747728"><ele>16.333333333333332</ele><time>2026-04-22T09:27:05Z</time></trkpt><trkpt lat="42.12880649152841" lon="3.065683607676439"><ele>16.0</ele><time>2026-04-22T09:27:06Z</time></trkpt><trkpt lat="42.128990307730454" lon="3.065618805820152"><ele>15.666666666666666</ele><time>2026-04-22T09:27:07Z</time></trkpt><trkpt lat="42.129170192756995" lon="3.0655576777399074"><ele>15.333333333333332</ele><time>2026-04-22T09:27:08Z</time></trkpt><trkpt lat="42.12935188221156" lon="3.065492269601505"><ele>15.0</ele><time>2026-04-22T09:27:09Z</time></trkpt><trkpt lat="42.12954031211265" lon="3.0654268092869215"><ele>15.0</ele><time>2026-04-22T09:27:10Z</time></trkpt><trkpt lat="42.129731539418536" lon="3.065356519464515"><ele>15.0</ele><time>2026-04-22T09:27:11Z</time></trkpt><trkpt lat="42.129922583898534" lon="3.0652938574652024"><ele>15.0</ele><time>2026-04-22T09:27:12Z</time></trkpt><trkpt lat="42.13011359807588" lon="3.0652289649130062"><ele>14.666666666666668</ele><time>2026-04-22T09:27:13Z</time></trkpt><trkpt lat="42.13030820300487" lon="3.065155384549565"><ele>14.333333333333334</ele><time>2026-04-22T09:27:14Z</time></trkpt><trkpt lat="42.13050661421662" lon="3.065077929401481"><ele>14.0</ele><time>2026-04-22T09:27:15Z</time></trkpt><trkpt lat="42.13070044440726" lon="3.0650099471676646"><ele>13.666666666666668</ele><time>2026-04-22T09:27:16Z</time></trkpt><trkpt lat="42.13089264568071" lon="3.0649402038792046"><ele>13.333333333333332</ele><time>2026-04-22T09:27:17Z</time></trkpt><trkpt lat="42.13108907610066" lon="3.0648645696099073"><ele>13.0</ele><time>2026-04-22T09:27:18Z</time></trkpt><trkpt lat="42.13128678438391" lon="3.064793766224584"><ele>13.0</ele><time>2026-04-22T09:27:19Z</time></trkpt><trkpt lat="42.13148067269724" lon="3.0647275124906432"><ele>13.0</ele><time>2026-04-22T09:27:20Z</time></trkpt><trkpt lat="42.13167453116869" lon="3.064653872950946"><ele>13.0</ele><time>2026-04-22T09:27:21Z</time></trkpt><trkpt lat="42.13186890409951" lon="3.0645832653309353"><ele>13.333333333333332</ele><time>2026-04-22T09:27:22Z</time></trkpt><trkpt lat="42.13206274489741" lon="3.064511212894264"><ele>13.666666666666668</ele><time>2026-04-22T09:27:23Z</time></trkpt><trkpt lat="42.13225101772797" lon="3.0644458696024657"><ele>14.0</ele><time>2026-04-22T09:27:24Z</time></trkpt><trkpt lat="42.13243809643137" lon="3.0643807748874683"><ele>14.333333333333334</ele><time>2026-04-22T09:27:25Z</time></trkpt><trkpt lat="42.132630586579815" lon="3.0643156993500034"><ele>14.666666666666668</ele><time>2026-04-22T09:27:26Z</time></trkpt><trkpt lat="42.13282359945379" lon="3.064249555740296"><ele>15.0</ele><time>2026-04-22T09:27:27Z</time></trkpt><trkpt lat="42.13301164221829" lon="3.06418372091367"><ele>15.333333333333332</ele><time>2026-04-22T09:27:28Z</time></trkpt><trkpt lat="42.13319864413395" lon="3.064111038174083"><ele>15.666666666666666</ele><time>2026-04-22T09:27:29Z</time></trkpt><trkpt lat="42.13338619517732" lon="3.064043405367766"><ele>16.0</ele><time>2026-04-22T09:27:30Z</time></trkpt><trkpt lat="42.13357204611438" lon="3.0639787167043586"><ele>16.0</ele><time>2026-04-22T09:27:31Z</time></trkpt><trkpt lat="42.13376265141702" lon="3.0639147395897726"><ele>16.0</ele><time>2026-04-22T09:27:32Z</time></trkpt><trkpt lat="42.13395398200478" lon="3.0638434336007645"><ele>16.0</ele><time>2026-04-22T09:27:33Z</time></trkpt><trkpt lat="42.134145939535365" lon="3.06377433943446"><ele>16.0</ele><time>2026-04-22T09:27:34Z</time></trkpt><trkpt lat="42.13433876109981" lon="3.0637014675672365"><ele>16.0</ele><time>2026-04-22T09:27:35Z</time></trkpt><trkpt lat="42.13453329950884" lon="3.0636283745070774"><ele>16.0</ele><time>2026-04-22T09:27:36Z</time></trkpt><trkpt lat="42.134727835630336" lon="3.063557179337701"><ele>15.666666666666666</ele><time>2026-04-22T09:27:37Z</time></trkpt><trkpt lat="42.13492580909791" lon="3.063485025379733"><ele>15.333333333333332</ele><time>2026-04-22T09:27:38Z</time></trkpt><trkpt lat="42.13512756858565" lon="3.063413017231501"><ele>15.0</ele><time>2026-04-22T09:27:39Z</time></trkpt><trkpt lat="42.135326040966184" lon="3.063339243004584"><ele>15.0</ele><time>2026-04-22T09:27:40Z</time></trkpt><trkpt lat="42.135527247684145" lon="3.063262921214298"><ele>15.0</ele><time>2026-04-22T09:27:41Z</time></trkpt><trkpt lat="42.135729034031655" lon="3.063188103402814"><ele>15.0</ele><time>2026-04-22T09:27:42Z</time></trkpt><trkpt lat="42.13593322324368" lon="3.0631104071639235"><ele>15.666666666666668</ele><time>2026-04-22T09:27:43Z</time></trkpt><trkpt lat="42.1361373848349" lon="3.063033362662389"><ele>16.333333333333336</ele><time>2026-04-22T09:27:44Z</time></trkpt><trkpt lat="42.13634530282192" lon="3.0629591597944446"><ele>17.0</ele><time>2026-04-22T09:27:45Z</time></trkpt><trkpt lat="42.136549845672086" lon="3.062883337468122"><ele>16.333333333333336</ele><time>2026-04-22T09:27:46Z</time></trkpt><trkpt lat="42.136756924108106" lon="3.0628048369846925"><ele>15.666666666666668</ele><time>2026-04-22T09:27:47Z</time></trkpt><trkpt lat="42.136963512301286" lon="3.0627288576586644"><ele>15.0</ele><time>2026-04-22T09:27:48Z</time></trkpt><trkpt lat="42.1371668688102" lon="3.0626486423552546"><ele>15.0</ele><time>2026-04-22T09:27:49Z</time></trkpt><trkpt lat="42.137371122527604" lon="3.062572955826014"><ele>15.0</ele><time>2026-04-22T09:27:50Z</time></trkpt><trkpt lat="42.13757183392542" lon="3.0624954450228894"><ele>15.0</ele><time>2026-04-22T09:27:51Z</time></trkpt><trkpt lat="42.13776882927945" lon="3.0624241180177236"><ele>14.666666666666668</ele><time>2026-04-22T09:27:52Z</time></trkpt><trkpt lat="42.137965411091955" lon="3.062351597404871"><ele>14.333333333333334</ele><time>2026-04-22T09:27:53Z</time></trkpt><trkpt lat="42.138164879498845" lon="3.0622790980895647"><ele>14.0</ele><time>2026-04-22T09:27:54Z</time></trkpt><trkpt lat="42.13836391737831" lon="3.062208226181935"><ele>14.0</ele><time>2026-04-22T09:27:55Z</time></trkpt><trkpt lat="42.13856749381896" lon="3.062137684542709"><ele>14.0</ele><time>2026-04-22T09:27:56Z</time></trkpt><trkpt lat="42.13877048046764" lon="3.0620630475693194"><ele>14.0</ele><time>2026-04-22T09:27:57Z</time></trkpt><trkpt lat="42.13897538077422" lon="3.0619927948527703"><ele>14.0</ele><time>2026-04-22T09:27:58Z</time></trkpt><trkpt lat="42.13917863145623" lon="3.0619168516134807"><ele>14.0</ele><time>2026-04-22T09:27:59Z</time></trkpt><trkpt lat="42.139381495043935" lon="3.061838575899488"><ele>14.0</ele><time>2026-04-22T09:28:00Z</time></trkpt><trkpt lat="42.139586344442804" lon="3.061766383776081"><ele>14.0</ele><time>2026-04-22T09:28:01Z</time></trkpt><trkpt lat="42.13979158938462" lon="3.061691604650847"><ele>14.0</ele><time>2026-04-22T09:28:02Z</time></trkpt><trkpt lat="42.13999665147162" lon="3.06161267472707"><ele>14.0</ele><time>2026-04-22T09:28:03Z</time></trkpt><trkpt lat="42.140202395312464" lon="3.061524335230129"><ele>13.666666666666668</ele><time>2026-04-22T09:28:04Z</time></trkpt><trkpt lat="42.1404078755583" lon="3.061434490588028"><ele>13.333333333333332</ele><time>2026-04-22T09:28:05Z</time></trkpt><trkpt lat="42.1406133771563" lon="3.0613443541693597"><ele>13.0</ele><time>2026-04-22T09:28:06Z</time></trkpt><trkpt lat="42.140815147455264" lon="3.061258376196718"><ele>13.0</ele><time>2026-04-22T09:28:07Z</time></trkpt><trkpt lat="42.14101873984213" lon="3.061174873314289"><ele>13.0</ele><time>2026-04-22T09:28:08Z</time></trkpt><trkpt lat="42.14121392182441" lon="3.061089945682833"><ele>13.0</ele><time>2026-04-22T09:28:09Z</time></trkpt><trkpt lat="42.141413622228775" lon="3.061009247743126"><ele>13.0</ele><time>2026-04-22T09:28:10Z</time></trkpt><trkpt lat="42.14160656075761" lon="3.0609237971240324"><ele>13.0</ele><time>2026-04-22T09:28:11Z</time></trkpt><trkpt lat="42.14180351644809" lon="3.060838183851207"><ele>13.0</ele><time>2026-04-22T09:28:12Z</time></trkpt><trkpt lat="42.14199370475691" lon="3.0607503658126847"><ele>13.0</ele><time>2026-04-22T09:28:13Z</time></trkpt><trkpt lat="42.14218698741907" lon="3.060655486771578"><ele>13.0</ele><time>2026-04-22T09:28:14Z</time></trkpt><trkpt lat="42.14237706390136" lon="3.0605659184642806"><ele>13.0</ele><time>2026-04-22T09:28:15Z</time></trkpt><trkpt lat="42.14257019177011" lon="3.060474106157964"><ele>13.0</ele><time>2026-04-22T09:28:16Z</time></trkpt><trkpt lat="42.142765384477" lon="3.0603867207091264"><ele>13.0</ele><time>2026-04-22T09:28:17Z</time></trkpt><trkpt lat="42.14296177131498" lon="3.0602907494095093"><ele>13.0</ele><time>2026-04-22T09:28:18Z</time></trkpt><trkpt lat="42.1431627058457" lon="3.060192075236936"><ele>12.333333333333332</ele><time>2026-04-22T09:28:19Z</time></trkpt><trkpt lat="42.1433617449999" lon="3.0600914998181867"><ele>11.666666666666666</ele><time>2026-04-22T09:28:20Z</time></trkpt><trkpt lat="42.14356080435624" lon="3.0599910441659977"><ele>11.0</ele><time>2026-04-22T09:28:21Z</time></trkpt><trkpt lat="42.14376114417117" lon="3.0598854834704805"><ele>11.0</ele><time>2026-04-22T09:28:22Z</time></trkpt><trkpt lat="42.14396070959181" lon="3.0597819743526573"><ele>11.0</ele><time>2026-04-22T09:28:23Z</time></trkpt><trkpt lat="42.14415484050901" lon="3.0596789658103596"><ele>11.0</ele><time>2026-04-22T09:28:24Z</time></trkpt><trkpt lat="42.14435308586708" lon="3.059577023127725"><ele>9.666666666666666</ele><time>2026-04-22T09:28:25Z</time></trkpt><trkpt lat="42.14454886817" lon="3.0594696151311287"><ele>8.333333333333334</ele><time>2026-04-22T09:28:26Z</time></trkpt><trkpt lat="42.14474418313803" lon="3.0593658078384225"><ele>7.0</ele><time>2026-04-22T09:28:27Z</time></trkpt><trkpt lat="42.14494008472702" lon="3.059261381705804"><ele>7.0</ele><time>2026-04-22T09:28:28Z</time></trkpt><trkpt lat="42.14513314229348" lon="3.0591572371407865"><ele>7.0</ele><time>2026-04-22T09:28:29Z</time></trkpt><trkpt lat="42.14532787087375" lon="3.0590568721069555"><ele>7.0</ele><time>2026-04-22T09:28:30Z</time></trkpt><trkpt lat="42.14552044491852" lon="3.0589539167913684"><ele>7.0</ele><time>2026-04-22T09:28:31Z</time></trkpt><trkpt lat="42.14571743835703" lon="3.058853475647398"><ele>7.0</ele><time>2026-04-22T09:28:32Z</time></trkpt><trkpt lat="42.14591186718143" lon="3.05875139828824"><ele>7.0</ele><time>2026-04-22T09:28:33Z</time></trkpt><trkpt lat="42.14610864701154" lon="3.058655626112445"><ele>7.0</ele><time>2026-04-22T09:28:34Z</time></trkpt><trkpt lat="42.1463008075016" lon="3.0585522610242952"><ele>7.0</ele><time>2026-04-22T09:28:35Z</time></trkpt><trkpt lat="42.14649514912315" lon="3.0584526817662105"><ele>7.0</ele><time>2026-04-22T09:28:36Z</time></trkpt><trkpt lat="42.14668338025263" lon="3.0583460086355756"><ele>6.666666666666667</ele><time>2026-04-22T09:28:37Z</time></trkpt><trkpt lat="42.146871602292926" lon="3.058243487110589"><ele>6.333333333333334</ele><time>2026-04-22T09:28:38Z</time></trkpt><trkpt lat="42.14705674543099" lon="3.0581450603611664"><ele>6.0</ele><time>2026-04-22T09:28:39Z</time></trkpt><trkpt lat="42.14723775341666" lon="3.0580504171681087"><ele>5.666666666666667</ele><time>2026-04-22T09:28:40Z</time></trkpt><trkpt lat="42.14741558132402" lon="3.057958876107922"><ele>5.333333333333334</ele><time>2026-04-22T09:28:41Z</time></trkpt><trkpt lat="42.147590252304056" lon="3.0578689976250133"><ele>5.0</ele><time>2026-04-22T09:28:42Z</time></trkpt><trkpt lat="42.14776164668556" lon="3.0577782227067933"><ele>5.0</ele><time>2026-04-22T09:28:43Z</time></trkpt><trkpt lat="42.147935284886515" lon="3.0576897679334216"><ele>5.0</ele><time>2026-04-22T09:28:44Z</time></trkpt><trkpt lat="42.14811117135987" lon="3.0575945535359663"><ele>5.0</ele><time>2026-04-22T09:28:45Z</time></trkpt><trkpt lat="42.148289785285456" lon="3.057497649531841"><ele>5.0</ele><time>2026-04-22T09:28:46Z</time></trkpt><trkpt lat="42.14846802657626" lon="3.0573924251607103"><ele>5.0</ele><time>2026-04-22T09:28:47Z</time></trkpt><trkpt lat="42.14864527892931" lon="3.0572765849548267"><ele>5.0</ele><time>2026-04-22T09:28:48Z</time></trkpt><trkpt lat="42.14882290744465" lon="3.0571575682084102"><ele>5.0</ele><time>2026-04-22T09:28:49Z</time></trkpt><trkpt lat="42.14900104318608" lon="3.0570306064851978"><ele>5.0</ele><time>2026-04-22T09:28:50Z</time></trkpt><trkpt lat="42.14917989963941" lon="3.056902682996372"><ele>5.0</ele><time>2026-04-22T09:28:51Z</time></trkpt><trkpt lat="42.14935913498562" lon="3.0567689031131398"><ele>5.0</ele><time>2026-04-22T09:28:52Z</time></trkpt><trkpt lat="42.149535880091726" lon="3.0566272588344328"><ele>5.0</ele><time>2026-04-22T09:28:53Z</time></trkpt><trkpt lat="42.14971301987943" lon="3.0564795419349657"><ele>5.0</ele><time>2026-04-22T09:28:54Z</time></trkpt><trkpt lat="42.14988049936638" lon="3.0563226879191836"><ele>4.666666666666667</ele><time>2026-04-22T09:28:55Z</time></trkpt><trkpt lat="42.15005240865765" lon="3.0561620084556953"><ele>4.333333333333333</ele><time>2026-04-22T09:28:56Z</time></trkpt><trkpt lat="42.15022052630395" lon="3.0559979473472114"><ele>4.0</ele><time>2026-04-22T09:28:57Z</time></trkpt><trkpt lat="42.15038987659979" lon="3.0558328312970584"><ele>4.0</ele><time>2026-04-22T09:28:58Z</time></trkpt><trkpt lat="42.150561255533255" lon="3.0556611131122557"><ele>4.0</ele><time>2026-04-22T09:28:59Z</time></trkpt><trkpt lat="42.15073280938062" lon="3.0554887878016097"><ele>4.0</ele><time>2026-04-22T09:29:00Z</time></trkpt><trkpt lat="42.150901528630925" lon="3.0553158046793913"><ele>4.0</ele><time>2026-04-22T09:29:01Z</time></trkpt><trkpt lat="42.15107230431669" lon="3.055139822082309"><ele>4.0</ele><time>2026-04-22T09:29:02Z</time></trkpt><trkpt lat="42.15123848516178" lon="3.054966266411843"><ele>4.0</ele><time>2026-04-22T09:29:03Z</time></trkpt><trkpt lat="42.151405629575045" lon="3.0547900850147314"><ele>4.333333333333333</ele><time>2026-04-22T09:29:04Z</time></trkpt><trkpt lat="42.15156985381683" lon="3.05462212616861"><ele>4.666666666666667</ele><time>2026-04-22T09:29:05Z</time></trkpt><trkpt lat="42.1517327680836" lon="3.0544523240679893"><ele>5.0</ele><time>2026-04-22T09:29:06Z</time></trkpt><trkpt lat="42.15189230652318" lon="3.0542844622773178"><ele>5.0</ele><time>2026-04-22T09:29:07Z</time></trkpt><trkpt lat="42.15205147001075" lon="3.054129154828243"><ele>5.0</ele><time>2026-04-22T09:29:08Z</time></trkpt><trkpt lat="42.15221082130287" lon="3.0539738214227987"><ele>5.0</ele><time>2026-04-22T09:29:09Z</time></trkpt><trkpt lat="42.152366319260295" lon="3.0538171061969006"><ele>5.0</ele><time>2026-04-22T09:29:10Z</time></trkpt><trkpt lat="42.15252048959435" lon="3.0536585938281537"><ele>5.0</ele><time>2026-04-22T09:29:11Z</time></trkpt><trkpt lat="42.152674114788624" lon="3.0535064299981864"><ele>5.0</ele><time>2026-04-22T09:29:12Z</time></trkpt><trkpt lat="42.15282718773959" lon="3.053352536073761"><ele>5.0</ele><time>2026-04-22T09:29:13Z</time></trkpt><trkpt lat="42.15297963956697" lon="3.0531952002134637"><ele>5.0</ele><time>2026-04-22T09:29:14Z</time></trkpt><trkpt lat="42.15312935952855" lon="3.053042152934869"><ele>5.0</ele><time>2026-04-22T09:29:15Z</time></trkpt><trkpt lat="42.15328635286029" lon="3.0528849873773147"><ele>5.0</ele><time>2026-04-22T09:29:16Z</time></trkpt><trkpt lat="42.15344241174265" lon="3.052728956540584"><ele>5.0</ele><time>2026-04-22T09:29:17Z</time></trkpt><trkpt lat="42.15360016767804" lon="3.052565097160703"><ele>5.0</ele><time>2026-04-22T09:29:18Z</time></trkpt><trkpt lat="42.15375611317239" lon="3.0524043153757807"><ele>5.0</ele><time>2026-04-22T09:29:19Z</time></trkpt><trkpt lat="42.153911295547914" lon="3.052242624082007"><ele>5.0</ele><time>2026-04-22T09:29:20Z</time></trkpt><trkpt lat="42.15406603704863" lon="3.052073753014831"><ele>5.0</ele><time>2026-04-22T09:29:21Z</time></trkpt><trkpt lat="42.15422044557717" lon="3.051899394978428"><ele>5.0</ele><time>2026-04-22T09:29:22Z</time></trkpt><trkpt lat="42.154374431330424" lon="3.051717598285583"><ele>5.0</ele><time>2026-04-22T09:29:23Z</time></trkpt><trkpt lat="42.154525366361696" lon="3.0515301187938206"><ele>5.0</ele><time>2026-04-22T09:29:24Z</time></trkpt><trkpt lat="42.15467361635711" lon="3.051339301872182"><ele>5.333333333333334</ele><time>2026-04-22T09:29:25Z</time></trkpt><trkpt lat="42.15481682318834" lon="3.051142259997159"><ele>5.666666666666667</ele><time>2026-04-22T09:29:26Z</time></trkpt><trkpt lat="42.15495533223546" lon="3.0509408157432514"><ele>6.0</ele><time>2026-04-22T09:29:27Z</time></trkpt><trkpt lat="42.155091301222946" lon="3.050738246998787"><ele>6.666666666666666</ele><time>2026-04-22T09:29:28Z</time></trkpt><trkpt lat="42.155222484472915" lon="3.050533422277603"><ele>7.333333333333333</ele><time>2026-04-22T09:29:29Z</time></trkpt><trkpt lat="42.15534763215791" lon="3.0503271545779627"><ele>8.0</ele><time>2026-04-22T09:29:30Z</time></trkpt><trkpt lat="42.15546623149513" lon="3.0501210489357744"><ele>8.0</ele><time>2026-04-22T09:29:31Z</time></trkpt><trkpt lat="42.155581245107385" lon="3.0499129884418665"><ele>8.0</ele><time>2026-04-22T09:29:32Z</time></trkpt><trkpt lat="42.15568802771503" lon="3.04970724766519"><ele>8.0</ele><time>2026-04-22T09:29:33Z</time></trkpt><trkpt lat="42.15578929345442" lon="3.049505943935945"><ele>8.0</ele><time>2026-04-22T09:29:34Z</time></trkpt><trkpt lat="42.1558828763876" lon="3.049310718750548"><ele>8.0</ele><time>2026-04-22T09:29:35Z</time></trkpt><trkpt lat="42.155971087226135" lon="3.0491244747825315"><ele>8.0</ele><time>2026-04-22T09:29:36Z</time></trkpt><trkpt lat="42.15605266465166" lon="3.048943151845765"><ele>8.0</ele><time>2026-04-22T09:29:37Z</time></trkpt><trkpt lat="42.15613057088888" lon="3.0487675761049577"><ele>8.0</ele><time>2026-04-22T09:29:38Z</time></trkpt><trkpt lat="42.15620504107348" lon="3.048592686123991"><ele>8.0</ele><time>2026-04-22T09:29:39Z</time></trkpt><trkpt lat="42.15627535817445" lon="3.0484158126023355"><ele>8.0</ele><time>2026-04-22T09:29:40Z</time></trkpt><trkpt lat="42.15633673841351" lon="3.048256475048359"><ele>8.0</ele><time>2026-04-22T09:29:41Z</time></trkpt><trkpt lat="42.15639893507386" lon="3.048095685054556"><ele>8.0</ele><time>2026-04-22T09:29:42Z</time></trkpt><trkpt lat="42.15645487190811" lon="3.047949352423942"><ele>8.0</ele><time>2026-04-22T09:29:43Z</time></trkpt><trkpt lat="42.15650084367156" lon="3.0478198443337745"><ele>7.999999999999999</ele><time>2026-04-22T09:29:44Z</time></trkpt><trkpt lat="42.156538957853535" lon="3.047713043074135"><ele>8.0</ele><time>2026-04-22T09:29:45Z</time></trkpt><trkpt lat="42.15657259164838" lon="3.0476136237989313"><ele>8.0</ele><time>2026-04-22T09:29:46Z</time></trkpt><trkpt lat="42.15660298672399" lon="3.047522992705446"><ele>8.0</ele><time>2026-04-22T09:29:47Z</time></trkpt><trkpt lat="42.156631945343065" lon="3.0474338768222675"><ele>7.999999999999999</ele><time>2026-04-22T09:29:48Z</time></trkpt><trkpt lat="42.15666445723975" lon="3.047341834669013"><ele>8.0</ele><time>2026-04-22T09:29:49Z</time></trkpt><trkpt lat="42.15670108167934" lon="3.047238424660282"><ele>8.200000000000001</ele><time>2026-04-22T09:29:50Z</time></trkpt><trkpt lat="42.1567392379919" lon="3.0471276332609896"><ele>8.4</ele><time>2026-04-22T09:29:51Z</time></trkpt><trkpt lat="42.15678256177084" lon="3.047005255905869"><ele>8.600000000000001</ele><time>2026-04-22T09:29:52Z</time></trkpt><trkpt lat="42.1568299790491" lon="3.0468688306191285"><ele>8.8</ele><time>2026-04-22T09:29:53Z</time></trkpt><trkpt lat="42.15687776898267" lon="3.0467236805931277"><ele>9.0</ele><time>2026-04-22T09:29:54Z</time></trkpt><trkpt lat="42.15693281301836" lon="3.0465741770292523"><ele>9.0</ele><time>2026-04-22T09:29:55Z</time></trkpt><trkpt lat="42.15699193223985" lon="3.046428103329346"><ele>9.0</ele><time>2026-04-22T09:29:56Z</time></trkpt><trkpt lat="42.15705124875769" lon="3.046286531904776"><ele>9.0</ele><time>2026-04-22T09:29:57Z</time></trkpt><trkpt lat="42.15711230523032" lon="3.046144986357989"><ele>9.0</ele><time>2026-04-22T09:29:58Z</time></trkpt><trkpt lat="42.157177497407325" lon="3.0460080774068756"><ele>9.0</ele><time>2026-04-22T09:29:59Z</time></trkpt><trkpt lat="42.15724703134551" lon="3.045869287350071"><ele>9.0</ele><time>2026-04-22T09:30:00Z</time></trkpt><trkpt lat="42.15732209318114" lon="3.0457277335404553"><ele>9.0</ele><time>2026-04-22T09:30:01Z</time></trkpt><trkpt lat="42.15740190468745" lon="3.0455818088485844"><ele>9.0</ele><time>2026-04-22T09:30:02Z</time></trkpt><trkpt lat="42.15748841918792" lon="3.0454378656662313"><ele>9.0</ele><time>2026-04-22T09:30:03Z</time></trkpt><trkpt lat="42.157579084622114" lon="3.045298560174204"><ele>9.0</ele><time>2026-04-22T09:30:04Z</time></trkpt><trkpt lat="42.157667883654824" lon="3.0451654563710635"><ele>9.0</ele><time>2026-04-22T09:30:05Z</time></trkpt><trkpt lat="42.15775644266516" lon="3.045042685954527"><ele>9.0</ele><time>2026-04-22T09:30:06Z</time></trkpt><trkpt lat="42.15784230080344" lon="3.0449263351538693"><ele>9.0</ele><time>2026-04-22T09:30:07Z</time></trkpt><trkpt lat="42.15793013272519" lon="3.0448201004691775"><ele>9.0</ele><time>2026-04-22T09:30:08Z</time></trkpt><trkpt lat="42.15801052512098" lon="3.0447214197840564"><ele>9.0</ele><time>2026-04-22T09:30:09Z</time></trkpt><trkpt lat="42.15809011292535" lon="3.044632071718037"><ele>9.0</ele><time>2026-04-22T09:30:10Z</time></trkpt><trkpt lat="42.15816466893784" lon="3.0445498116273346"><ele>9.0</ele><time>2026-04-22T09:30:11Z</time></trkpt><trkpt lat="42.15823871594469" lon="3.044470485680846"><ele>9.333333333333334</ele><time>2026-04-22T09:30:12Z</time></trkpt><trkpt lat="42.15830650744116" lon="3.0444033895849847"><ele>9.666666666666666</ele><time>2026-04-22T09:30:13Z</time></trkpt><trkpt lat="42.158377417477226" lon="3.0443361932397957"><ele>10.0</ele><time>2026-04-22T09:30:14Z</time></trkpt><trkpt lat="42.158447991625806" lon="3.0442718688454202"><ele>10.333333333333332</ele><time>2026-04-22T09:30:15Z</time></trkpt><trkpt lat="42.15851869885138" lon="3.044212739056198"><ele>10.666666666666666</ele><time>2026-04-22T09:30:16Z</time></trkpt><trkpt lat="42.15859625888063" lon="3.04415230973264"><ele>11.0</ele><time>2026-04-22T09:30:17Z</time></trkpt><trkpt lat="42.15867963140027" lon="3.044083693747563"><ele>11.0</ele><time>2026-04-22T09:30:18Z</time></trkpt><trkpt lat="42.15876256944767" lon="3.0440196674021034"><ele>11.0</ele><time>2026-04-22T09:30:19Z</time></trkpt><trkpt lat="42.15884396964597" lon="3.0439596014093424"><ele>11.0</ele><time>2026-04-22T09:30:20Z</time></trkpt><trkpt lat="42.158926943865886" lon="3.0439031650773343"><ele>11.0</ele><time>2026-04-22T09:30:21Z</time></trkpt><trkpt lat="42.15900672339664" lon="3.0438487730115833"><ele>11.0</ele><time>2026-04-22T09:30:22Z</time></trkpt><trkpt lat="42.15909664085641" lon="3.0437917053839927"><ele>11.0</ele><time>2026-04-22T09:30:23Z</time></trkpt><trkpt lat="42.159189401970906" lon="3.043732180453555"><ele>11.0</ele><time>2026-04-22T09:30:24Z</time></trkpt><trkpt lat="42.159288820307744" lon="3.0436738115092976"><ele>11.0</ele><time>2026-04-22T09:30:25Z</time></trkpt><trkpt lat="42.15939052084366" lon="3.043620248326616"><ele>11.0</ele><time>2026-04-22T09:30:26Z</time></trkpt><trkpt lat="42.15949495576801" lon="3.043569402718566"><ele>11.0</ele><time>2026-04-22T09:30:27Z</time></trkpt><trkpt lat="42.15959960214194" lon="3.0435159376209313"><ele>11.0</ele><time>2026-04-22T09:30:28Z</time></trkpt><trkpt lat="42.15971451539961" lon="3.043468250699016"><ele>11.0</ele><time>2026-04-22T09:30:29Z</time></trkpt><trkpt lat="42.159830418148175" lon="3.0434266534778756"><ele>11.0</ele><time>2026-04-22T09:30:30Z</time></trkpt><trkpt lat="42.15994737268883" lon="3.0433890985133676"><ele>11.0</ele><time>2026-04-22T09:30:31Z</time></trkpt><trkpt lat="42.1600790151607" lon="3.0433509437435773"><ele>11.0</ele><time>2026-04-22T09:30:32Z</time></trkpt><trkpt lat="42.160205485284024" lon="3.0433207487177487"><ele>11.0</ele><time>2026-04-22T09:30:33Z</time></trkpt><trkpt lat="42.1603277013164" lon="3.043298004699886"><ele>11.0</ele><time>2026-04-22T09:30:34Z</time></trkpt><trkpt lat="42.160437584429054" lon="3.0432803226455927"><ele>11.0</ele><time>2026-04-22T09:30:35Z</time></trkpt><trkpt lat="42.16054569434941" lon="3.0432654982290557"><ele>11.0</ele><time>2026-04-22T09:30:36Z</time></trkpt><trkpt lat="42.16064217845949" lon="3.04325239465696"><ele>11.0</ele><time>2026-04-22T09:30:37Z</time></trkpt><trkpt lat="42.160736999650304" lon="3.0432462693161626"><ele>11.0</ele><time>2026-04-22T09:30:38Z</time></trkpt><trkpt lat="42.160834042932706" lon="3.043241162074062"><ele>11.0</ele><time>2026-04-22T09:30:39Z</time></trkpt><trkpt lat="42.16093876812407" lon="3.043240222904782"><ele>11.0</ele><time>2026-04-22T09:30:40Z</time></trkpt><trkpt lat="42.161047507099546" lon="3.0432417226491535"><ele>10.75</ele><time>2026-04-22T09:30:41Z</time></trkpt><trkpt lat="42.16116296880183" lon="3.0432430512256095"><ele>10.5</ele><time>2026-04-22T09:30:42Z</time></trkpt><trkpt lat="42.161282970763246" lon="3.0432502538492936"><ele>10.25</ele><time>2026-04-22T09:30:43Z</time></trkpt><trkpt lat="42.16140843543365" lon="3.0432554682881996"><ele>10.0</ele><time>2026-04-22T09:30:44Z</time></trkpt><trkpt lat="42.161539700526916" lon="3.043258886635332"><ele>9.75</ele><time>2026-04-22T09:30:45Z</time></trkpt><trkpt lat="42.16167635867812" lon="3.0432634081709913"><ele>9.5</ele><time>2026-04-22T09:30:46Z</time></trkpt><trkpt lat="42.161811732357464" lon="3.043270153776741"><ele>9.25</ele><time>2026-04-22T09:30:47Z</time></trkpt><trkpt lat="42.16194235362227" lon="3.0432714233705314"><ele>9.0</ele><time>2026-04-22T09:30:48Z</time></trkpt><trkpt lat="42.162063877715056" lon="3.0432708692851156"><ele>9.0</ele><time>2026-04-22T09:30:49Z</time></trkpt><trkpt lat="42.16218194085727" lon="3.0432681032003055"><ele>9.0</ele><time>2026-04-22T09:30:50Z</time></trkpt><trkpt lat="42.16229503404629" lon="3.0432633929794917"><ele>9.0</ele><time>2026-04-22T09:30:51Z</time></trkpt><trkpt lat="42.162399509714795" lon="3.0432537533811774"><ele>9.0</ele><time>2026-04-22T09:30:52Z</time></trkpt><trkpt lat="42.162502911408886" lon="3.0432443081225227"><ele>9.0</ele><time>2026-04-22T09:30:53Z</time></trkpt><trkpt lat="42.16260498638347" lon="3.0432326638941376"><ele>9.0</ele><time>2026-04-22T09:30:54Z</time></trkpt><trkpt lat="42.16270443515238" lon="3.0432192423956517"><ele>9.0</ele><time>2026-04-22T09:30:55Z</time></trkpt><trkpt lat="42.16280465853654" lon="3.0432055149704205"><ele>9.0</ele><time>2026-04-22T09:30:56Z</time></trkpt><trkpt lat="42.162907486689534" lon="3.0431911277620727"><ele>9.0</ele><time>2026-04-22T09:30:57Z</time></trkpt><trkpt lat="42.16301414195428" lon="3.043173009314903"><ele>9.0</ele><time>2026-04-22T09:30:58Z</time></trkpt><trkpt lat="42.1631208353418" lon="3.043152236723614"><ele>9.4</ele><time>2026-04-22T09:30:59Z</time></trkpt><trkpt lat="42.163228527595976" lon="3.0431276422734235"><ele>9.8</ele><time>2026-04-22T09:31:00Z</time></trkpt><trkpt lat="42.16333686052733" lon="3.0431046523017717"><ele>10.200000000000001</ele><time>2026-04-22T09:31:01Z</time></trkpt><trkpt lat="42.163445221984915" lon="3.0430775354312787"><ele>10.600000000000001</ele><time>2026-04-22T09:31:02Z</time></trkpt><trkpt lat="42.16355173203812" lon="3.0430485337895776"><ele>11.0</ele><time>2026-04-22T09:31:03Z</time></trkpt><trkpt lat="42.16365898334005" lon="3.043017815698514"><ele>11.0</ele><time>2026-04-22T09:31:04Z</time></trkpt><trkpt lat="42.16376246012165" lon="3.0429835875665265"><ele>11.0</ele><time>2026-04-22T09:31:05Z</time></trkpt><trkpt lat="42.16387012038061" lon="3.0429500861353755"><ele>11.0</ele><time>2026-04-22T09:31:06Z</time></trkpt><trkpt lat="42.163981617724325" lon="3.0429115568991656"><ele>11.0</ele><time>2026-04-22T09:31:07Z</time></trkpt><trkpt lat="42.164093887292736" lon="3.042875533126655"><ele>11.0</ele><time>2026-04-22T09:31:08Z</time></trkpt><trkpt lat="42.16420505328773" lon="3.042837899413659"><ele>10.75</ele><time>2026-04-22T09:31:09Z</time></trkpt><trkpt lat="42.1643179743371" lon="3.042802008697012"><ele>10.5</ele><time>2026-04-22T09:31:10Z</time></trkpt><trkpt lat="42.16443305495021" lon="3.0427657685575284"><ele>10.25</ele><time>2026-04-22T09:31:11Z</time></trkpt><trkpt lat="42.164546586816144" lon="3.0427288588704537"><ele>10.0</ele><time>2026-04-22T09:31:12Z</time></trkpt><trkpt lat="42.164660969392855" lon="3.04269180929365"><ele>10.0</ele><time>2026-04-22T09:31:13Z</time></trkpt><trkpt lat="42.16477443024844" lon="3.042653865870798"><ele>10.0</ele><time>2026-04-22T09:31:14Z</time></trkpt><trkpt lat="42.16488692334937" lon="3.0426151599594724"><ele>10.0</ele><time>2026-04-22T09:31:15Z</time></trkpt><trkpt lat="42.16499988316079" lon="3.0425769824433093"><ele>10.0</ele><time>2026-04-22T09:31:16Z</time></trkpt><trkpt lat="42.165117974177825" lon="3.0425372723208373"><ele>9.5</ele><time>2026-04-22T09:31:17Z</time></trkpt><trkpt lat="42.16523935170778" lon="3.0424952763349102"><ele>9.0</ele><time>2026-04-22T09:31:18Z</time></trkpt><trkpt lat="42.16536387544588" lon="3.0424526846927598"><ele>8.5</ele><time>2026-04-22T09:31:19Z</time></trkpt><trkpt lat="42.16549486457476" lon="3.0424087111400704"><ele>8.0</ele><time>2026-04-22T09:31:20Z</time></trkpt><trkpt lat="42.165629165000034" lon="3.0423615729355067"><ele>8.75</ele><time>2026-04-22T09:31:21Z</time></trkpt><trkpt lat="42.165770486883744" lon="3.042316393133775"><ele>9.5</ele><time>2026-04-22T09:31:22Z</time></trkpt><trkpt lat="42.16591384054291" lon="3.0422696418102184"><ele>10.25</ele><time>2026-04-22T09:31:23Z</time></trkpt><trkpt lat="42.16605778589293" lon="3.042222680477781"><ele>11.0</ele><time>2026-04-22T09:31:24Z</time></trkpt><trkpt lat="42.1662023958294" lon="3.042175948832819"><ele>11.0</ele><time>2026-04-22T09:31:25Z</time></trkpt><trkpt lat="42.16635256365767" lon="3.0421262412164376"><ele>11.0</ele><time>2026-04-22T09:31:26Z</time></trkpt><trkpt lat="42.16650614320373" lon="3.042076556213419"><ele>11.0</ele><time>2026-04-22T09:31:27Z</time></trkpt><trkpt lat="42.16666493937066" lon="3.0420261428909727"><ele>11.0</ele><time>2026-04-22T09:31:28Z</time></trkpt><trkpt lat="42.16682439830179" lon="3.04197275660722"><ele>11.0</ele><time>2026-04-22T09:31:29Z</time></trkpt><trkpt lat="42.166984125110616" lon="3.041918490816714"><ele>11.0</ele><time>2026-04-22T09:31:30Z</time></trkpt><trkpt lat="42.167146029541435" lon="3.0418647145487534"><ele>11.0</ele><time>2026-04-22T09:31:31Z</time></trkpt><trkpt lat="42.16730596735965" lon="3.0418123958467054"><ele>11.0</ele><time>2026-04-22T09:31:32Z</time></trkpt><trkpt lat="42.167467385469074" lon="3.0417630660078228"><ele>11.0</ele><time>2026-04-22T09:31:33Z</time></trkpt><trkpt lat="42.16763086284036" lon="3.04171413933153"><ele>10.666666666666666</ele><time>2026-04-22T09:31:34Z</time></trkpt><trkpt lat="42.167798941700376" lon="3.0416608576848563"><ele>10.333333333333334</ele><time>2026-04-22T09:31:35Z</time></trkpt><trkpt lat="42.16797059826999" lon="3.0416055411385265"><ele>10.0</ele><time>2026-04-22T09:31:36Z</time></trkpt><trkpt lat="42.1681468128079" lon="3.041551013014273"><ele>10.0</ele><time>2026-04-22T09:31:37Z</time></trkpt><trkpt lat="42.168319753742125" lon="3.0414950067448547"><ele>10.0</ele><time>2026-04-22T09:31:38Z</time></trkpt><trkpt lat="42.168494802635784" lon="3.0414360299241063"><ele>10.0</ele><time>2026-04-22T09:31:39Z</time></trkpt><trkpt lat="42.16867022369699" lon="3.0413738358444085"><ele>10.0</ele><time>2026-04-22T09:31:40Z</time></trkpt><trkpt lat="42.16884602303544" lon="3.0413089308143233"><ele>10.0</ele><time>2026-04-22T09:31:41Z</time></trkpt><trkpt lat="42.169020873745986" lon="3.041239190155134"><ele>10.0</ele><time>2026-04-22T09:31:42Z</time></trkpt><trkpt lat="42.169191248951044" lon="3.041164701678441"><ele>10.333333333333334</ele><time>2026-04-22T09:31:43Z</time></trkpt><trkpt lat="42.16935891737715" lon="3.0410831257331252"><ele>10.666666666666666</ele><time>2026-04-22T09:31:44Z</time></trkpt><trkpt lat="42.169528683564785" lon="3.040996192009736"><ele>11.0</ele><time>2026-04-22T09:31:45Z</time></trkpt><trkpt lat="42.16969967362187" lon="3.040902010756084"><ele>11.0</ele><time>2026-04-22T09:31:46Z</time></trkpt><trkpt lat="42.1698658253849" lon="3.040799611439269"><ele>11.0</ele><time>2026-04-22T09:31:47Z</time></trkpt><trkpt lat="42.17003344224919" lon="3.040688783528521"><ele>11.0</ele><time>2026-04-22T09:31:48Z</time></trkpt><trkpt lat="42.17020269306058" lon="3.0405716790589676"><ele>11.0</ele><time>2026-04-22T09:31:49Z</time></trkpt><trkpt lat="42.17037138812045" lon="3.0404477074488305"><ele>11.0</ele><time>2026-04-22T09:31:50Z</time></trkpt><trkpt lat="42.170536498957254" lon="3.040316756599265"><ele>11.0</ele><time>2026-04-22T09:31:51Z</time></trkpt><trkpt lat="42.170697816994796" lon="3.0401791587877094"><ele>11.0</ele><time>2026-04-22T09:31:52Z</time></trkpt><trkpt lat="42.17085618651185" lon="3.040036727561933"><ele>11.0</ele><time>2026-04-22T09:31:53Z</time></trkpt><trkpt lat="42.171008743112075" lon="3.03988706361727"><ele>11.0</ele><time>2026-04-22T09:31:54Z</time></trkpt><trkpt lat="42.17115968117663" lon="3.039731072608672"><ele>10.666666666666666</ele><time>2026-04-22T09:31:55Z</time></trkpt><trkpt lat="42.17130584135905" lon="3.0395707123908524"><ele>10.333333333333334</ele><time>2026-04-22T09:31:56Z</time></trkpt><trkpt lat="42.171450578970436" lon="3.039405521547081"><ele>10.0</ele><time>2026-04-22T09:31:57Z</time></trkpt><trkpt lat="42.171589043540614" lon="3.0392379046698954"><ele>10.0</ele><time>2026-04-22T09:31:58Z</time></trkpt><trkpt lat="42.17172697153659" lon="3.0390705337586534"><ele>10.0</ele><time>2026-04-22T09:31:59Z</time></trkpt><trkpt lat="42.17185922456589" lon="3.0389005421520374"><ele>10.0</ele><time>2026-04-22T09:32:00Z</time></trkpt><trkpt lat="42.17198471602747" lon="3.0387252519293"><ele>10.0</ele><time>2026-04-22T09:32:01Z</time></trkpt><trkpt lat="42.17210099015389" lon="3.038541094845355"><ele>10.0</ele><time>2026-04-22T09:32:02Z</time></trkpt><trkpt lat="42.17221181230418" lon="3.038353409370204"><ele>10.0</ele><time>2026-04-22T09:32:03Z</time></trkpt><trkpt lat="42.17231805039475" lon="3.038168456912472"><ele>10.333333333333334</ele><time>2026-04-22T09:32:04Z</time></trkpt><trkpt lat="42.17242071275837" lon="3.0379895852798886"><ele>10.666666666666666</ele><time>2026-04-22T09:32:05Z</time></trkpt><trkpt lat="42.17251895888342" lon="3.03781701081097"><ele>11.0</ele><time>2026-04-22T09:32:06Z</time></trkpt><trkpt lat="42.172619166387946" lon="3.0376499247975564"><ele>11.0</ele><time>2026-04-22T09:32:07Z</time></trkpt><trkpt lat="42.17272302690081" lon="3.037496282178824"><ele>11.0</ele><time>2026-04-22T09:32:08Z</time></trkpt><trkpt lat="42.17283998009431" lon="3.037366089287414"><ele>11.0</ele><time>2026-04-22T09:32:09Z</time></trkpt><trkpt lat="42.172971922531055" lon="3.037277035859161"><ele>11.0</ele><time>2026-04-22T09:32:10Z</time></trkpt><trkpt lat="42.1731037693698" lon="3.037249726892764"><ele>11.0</ele><time>2026-04-22T09:32:11Z</time></trkpt><trkpt lat="42.17322854498883" lon="3.03728473726669"><ele>11.0</ele><time>2026-04-22T09:32:12Z</time></trkpt><trkpt lat="42.17333811909454" lon="3.037367648257536"><ele>11.0</ele><time>2026-04-22T09:32:13Z</time></trkpt><trkpt lat="42.17348311196255" lon="3.0376192498757826"><ele>10.5</ele><time>2026-04-22T09:32:15Z</time></trkpt><trkpt lat="42.1735120062583" lon="3.0377907211109885"><ele>10.0</ele><time>2026-04-22T09:32:16Z</time></trkpt><trkpt lat="42.17351436437586" lon="3.03797297465047"><ele>9.5</ele><time>2026-04-22T09:32:17Z</time></trkpt><trkpt lat="42.17349916596577" lon="3.038161930708235"><ele>9.0</ele><time>2026-04-22T09:32:18Z</time></trkpt><trkpt lat="42.17348280843167" lon="3.0383586672839202"><ele>9.0</ele><time>2026-04-22T09:32:19Z</time></trkpt><trkpt lat="42.17346623255359" lon="3.0385503781606378"><ele>9.0</ele><time>2026-04-22T09:32:20Z</time></trkpt><trkpt lat="42.17345120199761" lon="3.0387258272572915"><ele>9.0</ele><time>2026-04-22T09:32:21Z</time></trkpt><trkpt lat="42.173438877332956" lon="3.0388776517857203"><ele>9.0</ele><time>2026-04-22T09:32:22Z</time></trkpt><trkpt lat="42.17342715335307" lon="3.0390109768327935"><ele>9.166666666666666</ele><time>2026-04-22T09:32:23Z</time></trkpt><trkpt lat="42.17340941772607" lon="3.0391372844966353"><ele>9.333333333333334</ele><time>2026-04-22T09:32:24Z</time></trkpt><trkpt lat="42.17337026377606" lon="3.0392492950246024"><ele>9.5</ele><time>2026-04-22T09:32:25Z</time></trkpt><trkpt lat="42.17331084080823" lon="3.039344675862506"><ele>9.666666666666668</ele><time>2026-04-22T09:32:26Z</time></trkpt><trkpt lat="42.17326607399409" lon="3.0394425451783276"><ele>9.833333333333334</ele><time>2026-04-22T09:32:27Z</time></trkpt><trkpt lat="42.173260249747514" lon="3.039551675203196"><ele>10.0</ele><time>2026-04-22T09:32:28Z</time></trkpt><trkpt lat="42.173291914333014" lon="3.039656322363019"><ele>10.0</ele><time>2026-04-22T09:32:29Z</time></trkpt><trkpt lat="42.17333622816079" lon="3.0397567424135876"><ele>10.0</ele><time>2026-04-22T09:32:30Z</time></trkpt><trkpt lat="42.17337591076008" lon="3.039866449819341"><ele>10.0</ele><time>2026-04-22T09:32:31Z</time></trkpt><trkpt lat="42.173384377471166" lon="3.040001242376354"><ele>10.0</ele><time>2026-04-22T09:32:32Z</time></trkpt><trkpt lat="42.17336569904434" lon="3.040138780764879"><ele>10.0</ele><time>2026-04-22T09:32:33Z</time></trkpt><trkpt lat="42.17334880064029" lon="3.0402857481200893"><ele>10.0</ele><time>2026-04-22T09:32:34Z</time></trkpt><trkpt lat="42.1733347664393" lon="3.040443776293562"><ele>10.0</ele><time>2026-04-22T09:32:35Z</time></trkpt><trkpt lat="42.173320681474884" lon="3.0406115801718463"><ele>10.0</ele><time>2026-04-22T09:32:36Z</time></trkpt><trkpt lat="42.17330478540289" lon="3.040793257208452"><ele>10.0</ele><time>2026-04-22T09:32:37Z</time></trkpt><trkpt lat="42.17328855239843" lon="3.0409825939162274"><ele>9.666666666666668</ele><time>2026-04-22T09:32:38Z</time></trkpt><trkpt lat="42.17327198642247" lon="3.0411835211928673"><ele>9.333333333333334</ele><time>2026-04-22T09:32:39Z</time></trkpt><trkpt lat="42.17325738098039" lon="3.0413954987307985"><ele>9.0</ele><time>2026-04-22T09:32:40Z</time></trkpt><trkpt lat="42.17323868827122" lon="3.0416183939342325"><ele>9.0</ele><time>2026-04-22T09:32:41Z</time></trkpt><trkpt lat="42.173217991996566" lon="3.041853148301673"><ele>9.0</ele><time>2026-04-22T09:32:42Z</time></trkpt><trkpt lat="42.173197932831044" lon="3.042088408508108"><ele>9.0</ele><time>2026-04-22T09:32:43Z</time></trkpt><trkpt lat="42.17317850598615" lon="3.042318994509692"><ele>9.333333333333334</ele><time>2026-04-22T09:32:44Z</time></trkpt><trkpt lat="42.17315923763399" lon="3.042555787373886"><ele>9.666666666666668</ele><time>2026-04-22T09:32:45Z</time></trkpt><trkpt lat="42.17313867440075" lon="3.04279887168411"><ele>10.0</ele><time>2026-04-22T09:32:46Z</time></trkpt><trkpt lat="42.17311979626636" lon="3.0430407907449983"><ele>10.0</ele><time>2026-04-22T09:32:47Z</time></trkpt><trkpt lat="42.1730975804251" lon="3.0432885599226056"><ele>10.0</ele><time>2026-04-22T09:32:48Z</time></trkpt><trkpt lat="42.17305847004532" lon="3.043781618709928"><ele>9.666666666666668</ele><time>2026-04-22T09:32:50Z</time></trkpt><trkpt lat="42.17303556626728" lon="3.044029593853175"><ele>9.333333333333334</ele><time>2026-04-22T09:32:51Z</time></trkpt><trkpt lat="42.17301378383047" lon="3.044280194243306"><ele>9.0</ele><time>2026-04-22T09:32:52Z</time></trkpt><trkpt lat="42.172992062564106" lon="3.0445294789671444"><ele>9.0</ele><time>2026-04-22T09:32:53Z</time></trkpt><trkpt lat="42.1729687095124" lon="3.0447689885257954"><ele>9.0</ele><time>2026-04-22T09:32:54Z</time></trkpt><trkpt lat="42.17294951683676" lon="3.0450014353044534"><ele>9.0</ele><time>2026-04-22T09:32:55Z</time></trkpt><trkpt lat="42.17292863662938" lon="3.045227839706652"><ele>9.0</ele><time>2026-04-22T09:32:56Z</time></trkpt><trkpt lat="42.17291250208599" lon="3.0454512788450385"><ele>9.0</ele><time>2026-04-22T09:32:57Z</time></trkpt><trkpt lat="42.17290437835169" lon="3.0456720463077582"><ele>9.0</ele><time>2026-04-22T09:32:58Z</time></trkpt><trkpt lat="42.17291640778012" lon="3.0458917365924423"><ele>9.333333333333334</ele><time>2026-04-22T09:32:59Z</time></trkpt><trkpt lat="42.17293814132573" lon="3.046111233448736"><ele>9.666666666666668</ele><time>2026-04-22T09:33:00Z</time></trkpt><trkpt lat="42.17297227116061" lon="3.0463230595460056"><ele>10.0</ele><time>2026-04-22T09:33:01Z</time></trkpt><trkpt lat="42.1730241296861" lon="3.046525510427224"><ele>11.333333333333334</ele><time>2026-04-22T09:33:02Z</time></trkpt><trkpt lat="42.17309120832578" lon="3.046718623540305"><ele>12.666666666666668</ele><time>2026-04-22T09:33:03Z</time></trkpt><trkpt lat="42.17317388933945" lon="3.046906957778546"><ele>14.0</ele><time>2026-04-22T09:33:04Z</time></trkpt><trkpt lat="42.1732699877917" lon="3.047083475363887"><ele>15.333333333333334</ele><time>2026-04-22T09:33:05Z</time></trkpt><trkpt lat="42.1733744933175" lon="3.0472496096069275"><ele>16.666666666666668</ele><time>2026-04-22T09:33:06Z</time></trkpt><trkpt lat="42.17349210877506" lon="3.0474007268519023"><ele>18.0</ele><time>2026-04-22T09:33:07Z</time></trkpt><trkpt lat="42.17361309246535" lon="3.047538308584425"><ele>18.0</ele><time>2026-04-22T09:33:08Z</time></trkpt><trkpt lat="42.17375031819226" lon="3.0476573212037863"><ele>18.0</ele><time>2026-04-22T09:33:09Z</time></trkpt><trkpt lat="42.17389541815586" lon="3.047758702214612"><ele>18.0</ele><time>2026-04-22T09:33:10Z</time></trkpt><trkpt lat="42.174043057433856" lon="3.0478484604732525"><ele>16.666666666666668</ele><time>2026-04-22T09:33:11Z</time></trkpt><trkpt lat="42.17419767187504" lon="3.047910316667963"><ele>15.333333333333334</ele><time>2026-04-22T09:33:12Z</time></trkpt><trkpt lat="42.17435017955184" lon="3.0479590249631734"><ele>14.0</ele><time>2026-04-22T09:33:13Z</time></trkpt><trkpt lat="42.17451230610687" lon="3.048000391070987"><ele>14.0</ele><time>2026-04-22T09:33:14Z</time></trkpt><trkpt lat="42.17466867078829" lon="3.0480419909284278"><ele>14.0</ele><time>2026-04-22T09:33:15Z</time></trkpt><trkpt lat="42.17482680505941" lon="3.0480871430070966"><ele>14.0</ele><time>2026-04-22T09:33:16Z</time></trkpt><trkpt lat="42.17498537229254" lon="3.048138488779489"><ele>12.333333333333334</ele><time>2026-04-22T09:33:17Z</time></trkpt><trkpt lat="42.175139292422465" lon="3.0482008855573772"><ele>10.666666666666668</ele><time>2026-04-22T09:33:18Z</time></trkpt><trkpt lat="42.17529027904414" lon="3.0482807433875303"><ele>9.0</ele><time>2026-04-22T09:33:19Z</time></trkpt><trkpt lat="42.17544127986058" lon="3.048375406819187"><ele>8.666666666666666</ele><time>2026-04-22T09:33:20Z</time></trkpt><trkpt lat="42.175582697468585" lon="3.0484843611194714"><ele>8.333333333333332</ele><time>2026-04-22T09:33:21Z</time></trkpt><trkpt lat="42.17572759561911" lon="3.0486073511105922"><ele>8.0</ele><time>2026-04-22T09:33:22Z</time></trkpt><trkpt lat="42.17586315191387" lon="3.048744283652657"><ele>8.0</ele><time>2026-04-22T09:33:23Z</time></trkpt><trkpt lat="42.175992060546626" lon="3.048891703595527"><ele>8.0</ele><time>2026-04-22T09:33:24Z</time></trkpt><trkpt lat="42.17611178672281" lon="3.0490521187737825"><ele>8.0</ele><time>2026-04-22T09:33:25Z</time></trkpt><trkpt lat="42.176223948710714" lon="3.049224739329645"><ele>8.0</ele><time>2026-04-22T09:33:26Z</time></trkpt><trkpt lat="42.176333729750745" lon="3.049408632832424"><ele>8.0</ele><time>2026-04-22T09:33:27Z</time></trkpt><trkpt lat="42.17643972669583" lon="3.049605746503895"><ele>8.0</ele><time>2026-04-22T09:33:28Z</time></trkpt><trkpt lat="42.17653739975431" lon="3.0498142211951147"><ele>7.666666666666666</ele><time>2026-04-22T09:33:29Z</time></trkpt><trkpt lat="42.17662885320478" lon="3.0500122229903623"><ele>7.333333333333334</ele><time>2026-04-22T09:33:30Z</time></trkpt><trkpt lat="42.176713301168796" lon="3.0502361166706695"><ele>7.0</ele><time>2026-04-22T09:33:31Z</time></trkpt><trkpt lat="42.176789484364505" lon="3.0504704862353154"><ele>7.0</ele><time>2026-04-22T09:33:32Z</time></trkpt><trkpt lat="42.176857267973084" lon="3.050715111703051"><ele>7.0</ele><time>2026-04-22T09:33:33Z</time></trkpt><trkpt lat="42.176913949544286" lon="3.0509609784078044"><ele>7.0</ele><time>2026-04-22T09:33:34Z</time></trkpt><trkpt lat="42.176970405855" lon="3.051214784527789"><ele>7.0</ele><time>2026-04-22T09:33:35Z</time></trkpt><trkpt lat="42.17702794491696" lon="3.0514691469519097"><ele>7.0</ele><time>2026-04-22T09:33:36Z</time></trkpt><trkpt lat="42.17708441582262" lon="3.0517350726622468"><ele>7.0</ele><time>2026-04-22T09:33:37Z</time></trkpt><trkpt lat="42.17714313875965" lon="3.0520030201622528"><ele>7.333333333333334</ele><time>2026-04-22T09:33:38Z</time></trkpt><trkpt lat="42.17720489155586" lon="3.0522722040699373"><ele>7.666666666666666</ele><time>2026-04-22T09:33:39Z</time></trkpt><trkpt lat="42.177265725651196" lon="3.052540888843733"><ele>8.0</ele><time>2026-04-22T09:33:40Z</time></trkpt><trkpt lat="42.17732449137323" lon="3.0528107664726067"><ele>8.0</ele><time>2026-04-22T09:33:41Z</time></trkpt><trkpt lat="42.17739269492423" lon="3.0530840592246666"><ele>8.0</ele><time>2026-04-22T09:33:42Z</time></trkpt><trkpt lat="42.17746121145266" lon="3.0533520007574557"><ele>8.0</ele><time>2026-04-22T09:33:43Z</time></trkpt><trkpt lat="42.17752933366259" lon="3.053621173173543"><ele>8.0</ele><time>2026-04-22T09:33:44Z</time></trkpt><trkpt lat="42.17760173533048" lon="3.0538896572369905"><ele>8.0</ele><time>2026-04-22T09:33:45Z</time></trkpt><trkpt lat="42.177676358238145" lon="3.0541624551154336"><ele>8.0</ele><time>2026-04-22T09:33:46Z</time></trkpt><trkpt lat="42.177754184657324" lon="3.0544312462836514"><ele>8.333333333333332</ele><time>2026-04-22T09:33:47Z</time></trkpt><trkpt lat="42.17783459124547" lon="3.0546919495312883"><ele>8.666666666666666</ele><time>2026-04-22T09:33:48Z</time></trkpt><trkpt lat="42.17791425452538" lon="3.0549587755034877"><ele>9.0</ele><time>2026-04-22T09:33:49Z</time></trkpt><trkpt lat="42.17799922954818" lon="3.055223185139618"><ele>8.666666666666666</ele><time>2026-04-22T09:33:50Z</time></trkpt><trkpt lat="42.17808023935483" lon="3.0554908261906313"><ele>8.333333333333332</ele><time>2026-04-22T09:33:51Z</time></trkpt><trkpt lat="42.17816321852552" lon="3.0557585736287565"><ele>8.0</ele><time>2026-04-22T09:33:52Z</time></trkpt><trkpt lat="42.17824498870662" lon="3.0560264891155944"><ele>8.0</ele><time>2026-04-22T09:33:53Z</time></trkpt><trkpt lat="42.178327207844056" lon="3.056293212696156"><ele>8.0</ele><time>2026-04-22T09:33:54Z</time></trkpt><trkpt lat="42.17841074762005" lon="3.056556874086207"><ele>8.0</ele><time>2026-04-22T09:33:55Z</time></trkpt><trkpt lat="42.1784960305238" lon="3.0568211002552053"><ele>8.0</ele><time>2026-04-22T09:33:56Z</time></trkpt><trkpt lat="42.17857663673554" lon="3.0570882407219706"><ele>8.0</ele><time>2026-04-22T09:33:57Z</time></trkpt><trkpt lat="42.17865853536291" lon="3.057357464237006"><ele>8.0</ele><time>2026-04-22T09:33:58Z</time></trkpt><trkpt lat="42.17874239320489" lon="3.057624221749608"><ele>9.0</ele><time>2026-04-22T09:33:59Z</time></trkpt><trkpt lat="42.17882483653688" lon="3.0578919311135824"><ele>10.0</ele><time>2026-04-22T09:34:00Z</time></trkpt><trkpt lat="42.178907514662576" lon="3.058158944060797"><ele>11.0</ele><time>2026-04-22T09:34:01Z</time></trkpt><trkpt lat="42.1789884126461" lon="3.058424969728763"><ele>10.666666666666666</ele><time>2026-04-22T09:34:02Z</time></trkpt><trkpt lat="42.17906931981727" lon="3.058688424729772"><ele>10.333333333333334</ele><time>2026-04-22T09:34:03Z</time></trkpt><trkpt lat="42.17915174696279" lon="3.0589518894425796"><ele>10.0</ele><time>2026-04-22T09:34:04Z</time></trkpt><trkpt lat="42.1792322520806" lon="3.0592176588320164"><ele>10.0</ele><time>2026-04-22T09:34:05Z</time></trkpt><trkpt lat="42.17931322301886" lon="3.0594837076270047"><ele>10.0</ele><time>2026-04-22T09:34:06Z</time></trkpt><trkpt lat="42.17939874452052" lon="3.0597534157247166"><ele>10.0</ele><time>2026-04-22T09:34:07Z</time></trkpt><trkpt lat="42.1794841725439" lon="3.0600201057891496"><ele>9.0</ele><time>2026-04-22T09:34:08Z</time></trkpt><trkpt lat="42.179567227617" lon="3.060288060047352"><ele>8.0</ele><time>2026-04-22T09:34:09Z</time></trkpt><trkpt lat="42.179652679251745" lon="3.0605585548808607"><ele>7.0</ele><time>2026-04-22T09:34:10Z</time></trkpt><trkpt lat="42.17973607117196" lon="3.060829913952794"><ele>7.0</ele><time>2026-04-22T09:34:11Z</time></trkpt><trkpt lat="42.17981992109153" lon="3.061103669210716"><ele>7.0</ele><time>2026-04-22T09:34:12Z</time></trkpt><trkpt lat="42.1799024377786" lon="3.0613768163605477"><ele>7.0</ele><time>2026-04-22T09:34:13Z</time></trkpt><trkpt lat="42.17998403968773" lon="3.0616521574318556"><ele>7.0</ele><time>2026-04-22T09:34:14Z</time></trkpt><trkpt lat="42.18006606595573" lon="3.0619283569257543"><ele>7.0</ele><time>2026-04-22T09:34:15Z</time></trkpt><trkpt lat="42.180148025154296" lon="3.0622014540567895"><ele>7.0</ele><time>2026-04-22T09:34:16Z</time></trkpt><trkpt lat="42.180234232994" lon="3.0624733535882287"><ele>6.666666666666667</ele><time>2026-04-22T09:34:17Z</time></trkpt><trkpt lat="42.180317642419226" lon="3.062745936785996"><ele>6.333333333333334</ele><time>2026-04-22T09:34:18Z</time></trkpt><trkpt lat="42.18040150179244" lon="3.0630179398329482"><ele>6.0</ele><time>2026-04-22T09:34:19Z</time></trkpt><trkpt lat="42.18048801049253" lon="3.063284315323306"><ele>5.666666666666667</ele><time>2026-04-22T09:34:20Z</time></trkpt><trkpt lat="42.18057338769007" lon="3.0635548233707013"><ele>5.333333333333334</ele><time>2026-04-22T09:34:21Z</time></trkpt><trkpt lat="42.18065992540694" lon="3.0638174848458353"><ele>5.0</ele><time>2026-04-22T09:34:22Z</time></trkpt><trkpt lat="42.180743790765725" lon="3.064084364976374"><ele>4.666666666666667</ele><time>2026-04-22T09:34:23Z</time></trkpt><trkpt lat="42.180826802705255" lon="3.064349398295595"><ele>4.333333333333333</ele><time>2026-04-22T09:34:24Z</time></trkpt><trkpt lat="42.180908564173606" lon="3.0646133649139835"><ele>4.0</ele><time>2026-04-22T09:34:25Z</time></trkpt><trkpt lat="42.180989654013864" lon="3.0648706549697646"><ele>4.666666666666666</ele><time>2026-04-22T09:34:26Z</time></trkpt><trkpt lat="42.181067764877206" lon="3.0651211794278628"><ele>5.333333333333333</ele><time>2026-04-22T09:34:27Z</time></trkpt><trkpt lat="42.18114191505384" lon="3.065365074460589"><ele>6.0</ele><time>2026-04-22T09:34:28Z</time></trkpt><trkpt lat="42.18121425325116" lon="3.0656070000677125"><ele>6.0</ele><time>2026-04-22T09:34:29Z</time></trkpt><trkpt lat="42.18128221677291" lon="3.065840975529524"><ele>6.0</ele><time>2026-04-22T09:34:30Z</time></trkpt><trkpt lat="42.18134679894904" lon="3.066071584508754"><ele>6.0</ele><time>2026-04-22T09:34:31Z</time></trkpt><trkpt lat="42.1814101902324" lon="3.066298683726257"><ele>6.0</ele><time>2026-04-22T09:34:32Z</time></trkpt><trkpt lat="42.18147364332529" lon="3.066531202171628"><ele>6.0</ele><time>2026-04-22T09:34:33Z</time></trkpt><trkpt lat="42.18153372448116" lon="3.0667663501210707"><ele>6.0</ele><time>2026-04-22T09:34:34Z</time></trkpt><trkpt lat="42.18159685986467" lon="3.0670054801756987"><ele>6.0</ele><time>2026-04-22T09:34:35Z</time></trkpt><trkpt lat="42.181655467601544" lon="3.0672471647465342"><ele>6.0</ele><time>2026-04-22T09:34:36Z</time></trkpt><trkpt lat="42.18171724725791" lon="3.067484527641947"><ele>6.0</ele><time>2026-04-22T09:34:37Z</time></trkpt><trkpt lat="42.181778119872995" lon="3.067722927725275"><ele>6.0</ele><time>2026-04-22T09:34:38Z</time></trkpt><trkpt lat="42.18183757097488" lon="3.067957715680371"><ele>6.0</ele><time>2026-04-22T09:34:39Z</time></trkpt><trkpt lat="42.18190093729096" lon="3.068184777325694"><ele>6.0</ele><time>2026-04-22T09:34:40Z</time></trkpt><trkpt lat="42.18196206032422" lon="3.068408499848984"><ele>5.666666666666667</ele><time>2026-04-22T09:34:41Z</time></trkpt><trkpt lat="42.18202691056832" lon="3.0686281850424826"><ele>5.333333333333334</ele><time>2026-04-22T09:34:42Z</time></trkpt><trkpt lat="42.18209464111404" lon="3.0688421895488376"><ele>5.0</ele><time>2026-04-22T09:34:43Z</time></trkpt><trkpt lat="42.18216651748686" lon="3.069053299321"><ele>5.0</ele><time>2026-04-22T09:34:44Z</time></trkpt><trkpt lat="42.18223925929216" lon="3.0692615046800737"><ele>5.0</ele><time>2026-04-22T09:34:45Z</time></trkpt><trkpt lat="42.18231203960844" lon="3.0694700574736347"><ele>5.0</ele><time>2026-04-22T09:34:46Z</time></trkpt><trkpt lat="42.18238933235667" lon="3.069680381420975"><ele>5.0</ele><time>2026-04-22T09:34:47Z</time></trkpt><trkpt lat="42.182469797578264" lon="3.069888434832005"><ele>5.0</ele><time>2026-04-22T09:34:48Z</time></trkpt><trkpt lat="42.182549456177725" lon="3.0700951465333186"><ele>5.0</ele><time>2026-04-22T09:34:49Z</time></trkpt><trkpt lat="42.18262853364377" lon="3.070301888262495"><ele>5.0</ele><time>2026-04-22T09:34:50Z</time></trkpt><trkpt lat="42.182711422661995" lon="3.070509286501084"><ele>5.0</ele><time>2026-04-22T09:34:51Z</time></trkpt><trkpt lat="42.18279492767074" lon="3.0707105870014475"><ele>5.0</ele><time>2026-04-22T09:34:52Z</time></trkpt><trkpt lat="42.18287787530818" lon="3.070902544054301"><ele>4.666666666666667</ele><time>2026-04-22T09:34:53Z</time></trkpt><trkpt lat="42.182966962982135" lon="3.071093570999903"><ele>4.333333333333333</ele><time>2026-04-22T09:34:54Z</time></trkpt><trkpt lat="42.18305019045325" lon="3.0712785948766297"><ele>4.0</ele><time>2026-04-22T09:34:55Z</time></trkpt><trkpt lat="42.18313488577128" lon="3.071468222470997"><ele>4.0</ele><time>2026-04-22T09:34:56Z</time></trkpt><trkpt lat="42.18321691788796" lon="3.071657079712076"><ele>4.0</ele><time>2026-04-22T09:34:57Z</time></trkpt><trkpt lat="42.18329993418513" lon="3.0718450289310217"><ele>4.0</ele><time>2026-04-22T09:34:58Z</time></trkpt><trkpt lat="42.183382847705666" lon="3.072030242982725"><ele>4.0</ele><time>2026-04-22T09:34:59Z</time></trkpt><trkpt lat="42.18346972142372" lon="3.0722187431090644"><ele>4.0</ele><time>2026-04-22T09:35:00Z</time></trkpt><trkpt lat="42.183555754101874" lon="3.0724043162652888"><ele>4.0</ele><time>2026-04-22T09:35:01Z</time></trkpt><trkpt lat="42.18363884779744" lon="3.0725900788756766"><ele>4.333333333333333</ele><time>2026-04-22T09:35:02Z</time></trkpt><trkpt lat="42.18372086434781" lon="3.072769357684437"><ele>4.666666666666667</ele><time>2026-04-22T09:35:03Z</time></trkpt><trkpt lat="42.183802170338545" lon="3.072947385879283"><ele>5.0</ele><time>2026-04-22T09:35:04Z</time></trkpt><trkpt lat="42.18387957356297" lon="3.073122873937776"><ele>5.0</ele><time>2026-04-22T09:35:05Z</time></trkpt><trkpt lat="42.183955624636305" lon="3.0732967602687293"><ele>5.0</ele><time>2026-04-22T09:35:06Z</time></trkpt><trkpt lat="42.18403292007742" lon="3.073468350514447"><ele>5.0</ele><time>2026-04-22T09:35:07Z</time></trkpt><trkpt lat="42.18411347240873" lon="3.07364083873597"><ele>5.0</ele><time>2026-04-22T09:35:08Z</time></trkpt><trkpt lat="42.1841909313311" lon="3.0738101301963874"><ele>5.0</ele><time>2026-04-22T09:35:09Z</time></trkpt><trkpt lat="42.18426448505824" lon="3.073981627758442"><ele>5.0</ele><time>2026-04-22T09:35:10Z</time></trkpt><trkpt lat="42.18433541176877" lon="3.0741509095830675"><ele>5.0</ele><time>2026-04-22T09:35:11Z</time></trkpt><trkpt lat="42.18441267274392" lon="3.0743255307727364"><ele>5.0</ele><time>2026-04-22T09:35:12Z</time></trkpt><trkpt lat="42.184490821900745" lon="3.0744981054961897"><ele>4.666666666666667</ele><time>2026-04-22T09:35:13Z</time></trkpt><trkpt lat="42.18456743090636" lon="3.0746731945149626"><ele>4.333333333333333</ele><time>2026-04-22T09:35:14Z</time></trkpt><trkpt lat="42.1846450934422" lon="3.074850157423859"><ele>4.0</ele><time>2026-04-22T09:35:15Z</time></trkpt><trkpt lat="42.184724425768486" lon="3.0750268188912875"><ele>3.6666666666666665</ele><time>2026-04-22T09:35:16Z</time></trkpt><trkpt lat="42.18480261928147" lon="3.075208741765488"><ele>3.333333333333333</ele><time>2026-04-22T09:35:17Z</time></trkpt><trkpt lat="42.184881724359784" lon="3.075390731812561"><ele>3.0</ele><time>2026-04-22T09:35:18Z</time></trkpt><trkpt lat="42.18496070666158" lon="3.075568782364224"><ele>3.0</ele><time>2026-04-22T09:35:19Z</time></trkpt><trkpt lat="42.185038177230645" lon="3.0757415793119276"><ele>3.0</ele><time>2026-04-22T09:35:20Z</time></trkpt><trkpt lat="42.18511384781975" lon="3.0759099283294598"><ele>3.0</ele><time>2026-04-22T09:35:21Z</time></trkpt><trkpt lat="42.18518790155782" lon="3.0760734542780948"><ele>3.0</ele><time>2026-04-22T09:35:22Z</time></trkpt><trkpt lat="42.18526167053658" lon="3.0762341621117537"><ele>3.25</ele><time>2026-04-22T09:35:23Z</time></trkpt><trkpt lat="42.18533219890778" lon="3.0763922045271936"><ele>3.5</ele><time>2026-04-22T09:35:24Z</time></trkpt><trkpt lat="42.18540178449964" lon="3.0765453386963433"><ele>3.75</ele><time>2026-04-22T09:35:25Z</time></trkpt><trkpt lat="42.18547001955935" lon="3.0766929596576635"><ele>4.0</ele><time>2026-04-22T09:35:26Z</time></trkpt><trkpt lat="42.185534454425934" lon="3.0768329494962794"><ele>4.2</ele><time>2026-04-22T09:35:27Z</time></trkpt><trkpt lat="42.18559688206206" lon="3.076968992016136"><ele>4.4</ele><time>2026-04-22T09:35:28Z</time></trkpt><trkpt lat="42.185653527616736" lon="3.0770981937776276"><ele>4.6</ele><time>2026-04-22T09:35:29Z</time></trkpt><trkpt lat="42.18569252739521" lon="3.077230000318436"><ele>4.8</ele><time>2026-04-22T09:35:30Z</time></trkpt><trkpt lat="42.18572042943637" lon="3.0773580811450363"><ele>5.0</ele><time>2026-04-22T09:35:31Z</time></trkpt><trkpt lat="42.185736041763214" lon="3.0774759331429493"><ele>4.4</ele><time>2026-04-22T09:35:32Z</time></trkpt><trkpt lat="42.18574430833054" lon="3.0775869685674446"><ele>3.8</ele><time>2026-04-22T09:35:33Z</time></trkpt><trkpt lat="42.18574900840166" lon="3.0776783302072994"><ele>3.2</ele><time>2026-04-22T09:35:34Z</time></trkpt><trkpt lat="42.18575577584638" lon="3.077821641482272"><ele>2.6</ele><time>2026-04-22T09:35:36Z</time></trkpt><trkpt lat="42.18576012233948" lon="3.0779334900504"><ele>2.0</ele><time>2026-04-22T09:35:38Z</time></trkpt><trkpt lat="42.18576208077031" lon="3.0780899161566695"><ele>1.9999999999999998</ele><time>2026-04-22T09:35:40Z</time></trkpt><trkpt lat="42.185764659898645" lon="3.078181593653047"><ele>2.0</ele><time>2026-04-22T09:35:41Z</time></trkpt><trkpt lat="42.18576874085439" lon="3.0782878295075085"><ele>2.0</ele><time>2026-04-22T09:35:42Z</time></trkpt><trkpt lat="42.18577408746531" lon="3.0784049439264676"><ele>2.0</ele><time>2026-04-22T09:35:43Z</time></trkpt><trkpt lat="42.185777257126816" lon="3.078538170662272"><ele>1.9999999999999998</ele><time>2026-04-22T09:35:44Z</time></trkpt><trkpt lat="42.185779158494235" lon="3.0786804099240492"><ele>2.0</ele><time>2026-04-22T09:35:45Z</time></trkpt><trkpt lat="42.185781911232894" lon="3.078829044422479"><ele>2.2</ele><time>2026-04-22T09:35:46Z</time></trkpt><trkpt lat="42.18578952232241" lon="3.0789781754843206"><ele>2.4000000000000004</ele><time>2026-04-22T09:35:47Z</time></trkpt><trkpt lat="42.18579736030243" lon="3.0791265205560348"><ele>2.5999999999999996</ele><time>2026-04-22T09:35:48Z</time></trkpt><trkpt lat="42.185807289270244" lon="3.0792728932205975"><ele>2.8</ele><time>2026-04-22T09:35:49Z</time></trkpt><trkpt lat="42.18581061532111" lon="3.079417497187732"><ele>3.0</ele><time>2026-04-22T09:35:50Z</time></trkpt><trkpt lat="42.18581099619606" lon="3.079564480986429"><ele>3.2</ele><time>2026-04-22T09:35:51Z</time></trkpt><trkpt lat="42.18580798182624" lon="3.0797101520321384"><ele>3.4</ele><time>2026-04-22T09:35:52Z</time></trkpt><trkpt lat="42.185803923965295" lon="3.0798561860909244"><ele>3.6000000000000005</ele><time>2026-04-22T09:35:53Z</time></trkpt><trkpt lat="42.1858008204842" lon="3.080000446001079"><ele>3.8000000000000003</ele><time>2026-04-22T09:35:54Z</time></trkpt><trkpt lat="42.18580368870913" lon="3.0801434718913296"><ele>4.0</ele><time>2026-04-22T09:35:55Z</time></trkpt><trkpt lat="42.18581338469032" lon="3.080289766359696"><ele>4.0</ele><time>2026-04-22T09:35:56Z</time></trkpt><trkpt lat="42.18583827730352" lon="3.08042505576095"><ele>4.0</ele><time>2026-04-22T09:35:57Z</time></trkpt><trkpt lat="42.18587538348588" lon="3.080554061643489"><ele>4.0</ele><time>2026-04-22T09:35:58Z</time></trkpt><trkpt lat="42.18591213621295" lon="3.080673390714132"><ele>4.0</ele><time>2026-04-22T09:35:59Z</time></trkpt><trkpt lat="42.185953630000746" lon="3.0807814539751934"><ele>4.0</ele><time>2026-04-22T09:36:00Z</time></trkpt><trkpt lat="42.18599821315623" lon="3.080875902619027"><ele>4.333333333333333</ele><time>2026-04-22T09:36:01Z</time></trkpt><trkpt lat="42.186048359040704" lon="3.080957564039375"><ele>4.666666666666666</ele><time>2026-04-22T09:36:02Z</time></trkpt><trkpt lat="42.18611528876067" lon="3.081021042080753"><ele>5.0</ele><time>2026-04-22T09:36:03Z</time></trkpt><trkpt lat="42.18618836583867" lon="3.08104710390587"><ele>5.333333333333333</ele><time>2026-04-22T09:36:04Z</time></trkpt><trkpt lat="42.18626432834352" lon="3.081042688100943"><ele>5.666666666666667</ele><time>2026-04-22T09:36:05Z</time></trkpt><trkpt lat="42.186342718461425" lon="3.0810314205491713"><ele>6.0</ele><time>2026-04-22T09:36:06Z</time></trkpt><trkpt lat="42.18641314887835" lon="3.0810136839978393"><ele>6.0</ele><time>2026-04-22T09:36:07Z</time></trkpt><trkpt lat="42.18647723368563" lon="3.0810026870033003"><ele>6.0</ele><time>2026-04-22T09:36:08Z</time></trkpt><trkpt lat="42.18658510198786" lon="3.0809816953716527"><ele>6.0</ele><time>2026-04-22T09:36:10Z</time></trkpt><trkpt lat="42.18666850529166" lon="3.0809636045550315"><ele>6.0</ele><time>2026-04-22T09:36:12Z</time></trkpt><trkpt lat="42.18673884964232" lon="3.0809452504224586"><ele>6.0</ele><time>2026-04-22T09:36:14Z</time></trkpt><trkpt lat="42.18684513521855" lon="3.0809281994045046"><ele>6.0</ele><time>2026-04-22T09:36:16Z</time></trkpt><trkpt lat="42.186913017317934" lon="3.0809212921019666"><ele>5.999999999999999</ele><time>2026-04-22T09:36:17Z</time></trkpt><trkpt lat="42.18698259709019" lon="3.080912487231064"><ele>6.0</ele><time>2026-04-22T09:36:18Z</time></trkpt><trkpt lat="42.18705712100591" lon="3.0809029819799787"><ele>6.0</ele><time>2026-04-22T09:36:19Z</time></trkpt><trkpt lat="42.187132347028346" lon="3.0808964362305695"><ele>6.0</ele><time>2026-04-22T09:36:20Z</time></trkpt><trkpt lat="42.187209588955426" lon="3.0808913040268644"><ele>6.0</ele><time>2026-04-22T09:36:21Z</time></trkpt><trkpt lat="42.18728270131093" lon="3.080886693957376"><ele>5.999999999999999</ele><time>2026-04-22T09:36:22Z</time></trkpt><trkpt lat="42.18734792286635" lon="3.080883000827848"><ele>6.0</ele><time>2026-04-22T09:36:23Z</time></trkpt><trkpt lat="42.18741686438551" lon="3.0808850794371803"><ele>6.0</ele><time>2026-04-22T09:36:24Z</time></trkpt><trkpt lat="42.18748936103291" lon="3.080894056052233"><ele>6.0</ele><time>2026-04-22T09:36:25Z</time></trkpt><trkpt lat="42.18755331634257" lon="3.0809022809754345"><ele>6.0</ele><time>2026-04-22T09:36:26Z</time></trkpt><trkpt lat="42.18766885330092" lon="3.08090194761701"><ele>6.0</ele><time>2026-04-22T09:36:28Z</time></trkpt><trkpt lat="42.187741973530414" lon="3.080904586203713"><ele>6.0</ele><time>2026-04-22T09:36:30Z</time></trkpt><trkpt lat="42.18782013790734" lon="3.0808888294913466"><ele>6.0</ele><time>2026-04-22T09:37:18Z</time></trkpt><trkpt lat="42.187901368408404" lon="3.0808849361382213"><ele>6.0</ele><time>2026-04-22T09:37:20Z</time></trkpt><trkpt lat="42.18799529017913" lon="3.080877744788653"><ele>6.0</ele><time>2026-04-22T09:37:22Z</time></trkpt><trkpt lat="42.18808900529589" lon="3.080847809614222"><ele>6.0</ele><time>2026-04-22T09:37:24Z</time></trkpt><trkpt lat="42.188184409096884" lon="3.080830380123761"><ele>6.0</ele><time>2026-04-22T09:37:26Z</time></trkpt><trkpt lat="42.18828962299532" lon="3.0808709876985807"><ele>6.0</ele><time>2026-04-22T09:37:28Z</time></trkpt><trkpt lat="42.188348734548036" lon="3.0809024360189925"><ele>5.833333333333333</ele><time>2026-04-22T09:37:29Z</time></trkpt><trkpt lat="42.188410085262156" lon="3.08092964270272"><ele>5.666666666666667</ele><time>2026-04-22T09:37:30Z</time></trkpt><trkpt lat="42.18847558479339" lon="3.080951411698721"><ele>5.5</ele><time>2026-04-22T09:37:31Z</time></trkpt><trkpt lat="42.188539959433825" lon="3.0809607171344626"><ele>5.333333333333334</ele><time>2026-04-22T09:37:32Z</time></trkpt><trkpt lat="42.18865607710238" lon="3.081005066529235"><ele>5.166666666666667</ele><time>2026-04-22T09:37:34Z</time></trkpt><trkpt lat="42.18875313814669" lon="3.0810416354655206"><ele>5.0</ele><time>2026-04-22T09:37:36Z</time></trkpt><trkpt lat="42.18887318321171" lon="3.0810765535555693"><ele>5.0</ele><time>2026-04-22T09:37:38Z</time></trkpt><trkpt lat="42.18894111767912" lon="3.0810941982621114"><ele>5.0</ele><time>2026-04-22T09:37:39Z</time></trkpt><trkpt lat="42.18901477583066" lon="3.081107924809475"><ele>5.0</ele><time>2026-04-22T09:37:40Z</time></trkpt><trkpt lat="42.18908897492187" lon="3.081125536353064"><ele>5.0</ele><time>2026-04-22T09:37:41Z</time></trkpt><trkpt lat="42.18916411561299" lon="3.0811436484430597"><ele>5.0</ele><time>2026-04-22T09:37:42Z</time></trkpt><trkpt lat="42.18923417030564" lon="3.08115412275959"><ele>5.0</ele><time>2026-04-22T09:37:43Z</time></trkpt><trkpt lat="42.189348800837166" lon="3.0811929327364607"><ele>4.833333333333334</ele><time>2026-04-22T09:37:45Z</time></trkpt><trkpt lat="42.18944316783683" lon="3.0812434953110643"><ele>4.666666666666667</ele><time>2026-04-22T09:37:47Z</time></trkpt><trkpt lat="42.18950920926335" lon="3.081283538731857"><ele>4.5</ele><time>2026-04-22T09:37:49Z</time></trkpt><trkpt lat="42.18957724268941" lon="3.081322461106611"><ele>4.333333333333333</ele><time>2026-04-22T09:37:51Z</time></trkpt><trkpt lat="42.18967953989815" lon="3.0813617732926133"><ele>4.166666666666666</ele><time>2026-04-22T09:37:53Z</time></trkpt><trkpt lat="42.18974213379168" lon="3.081378349357193"><ele>4.0</ele><time>2026-04-22T09:37:54Z</time></trkpt><trkpt lat="42.18981564439179" lon="3.0813931488820634"><ele>3.6666666666666665</ele><time>2026-04-22T09:37:55Z</time></trkpt><trkpt lat="42.18989245505945" lon="3.0814076401798367"><ele>3.333333333333333</ele><time>2026-04-22T09:37:56Z</time></trkpt><trkpt lat="42.18997455404402" lon="3.0814227890062047"><ele>3.0</ele><time>2026-04-22T09:37:57Z</time></trkpt><trkpt lat="42.19005160060751" lon="3.081439696972503"><ele>2.6666666666666665</ele><time>2026-04-22T09:37:58Z</time></trkpt><trkpt lat="42.19013002588719" lon="3.0814537048687893"><ele>2.333333333333333</ele><time>2026-04-22T09:37:59Z</time></trkpt><trkpt lat="42.19020871193459" lon="3.081466385098562"><ele>2.0</ele><time>2026-04-22T09:38:00Z</time></trkpt><trkpt lat="42.19027672091709" lon="3.081475113486185"><ele>1.9999999999999998</ele><time>2026-04-22T09:38:01Z</time></trkpt><trkpt lat="42.19039659895192" lon="3.0814964450150355"><ele>2.0</ele><time>2026-04-22T09:38:03Z</time></trkpt><trkpt lat="42.19052347650608" lon="3.081513593739722"><ele>2.0</ele><time>2026-04-22T09:38:05Z</time></trkpt><trkpt lat="42.190589690810725" lon="3.0815244875570564"><ele>2.0</ele><time>2026-04-22T09:38:06Z</time></trkpt><trkpt lat="42.19065604059721" lon="3.081534543231759"><ele>1.9999999999999998</ele><time>2026-04-22T09:38:07Z</time></trkpt><trkpt lat="42.19072025274406" lon="3.081543405136341"><ele>2.0</ele><time>2026-04-22T09:38:08Z</time></trkpt><trkpt lat="42.1908372376009" lon="3.081557932353436"><ele>2.142857142857143</ele><time>2026-04-22T09:38:10Z</time></trkpt><trkpt lat="42.19090211295326" lon="3.0815690712333836"><ele>2.2857142857142856</ele><time>2026-04-22T09:38:11Z</time></trkpt><trkpt lat="42.19097299169311" lon="3.0815792428934983"><ele>2.4285714285714284</ele><time>2026-04-22T09:38:12Z</time></trkpt><trkpt lat="42.191048838959574" lon="3.0815920155943695"><ele>2.571428571428571</ele><time>2026-04-22T09:38:13Z</time></trkpt><trkpt lat="42.19112247466189" lon="3.0816042611885104"><ele>2.7142857142857144</ele><time>2026-04-22T09:38:14Z</time></trkpt><trkpt lat="42.19118946404931" lon="3.081617688840886"><ele>2.8571428571428568</ele><time>2026-04-22T09:38:15Z</time></trkpt><trkpt lat="42.191256571893554" lon="3.0816267525435617"><ele>3.0</ele><time>2026-04-22T09:38:16Z</time></trkpt><trkpt lat="42.19136563625408" lon="3.081639600481535"><ele>3.0</ele><time>2026-04-22T09:38:18Z</time></trkpt><trkpt lat="42.191456662880775" lon="3.081668101556291"><ele>3.0</ele><time>2026-04-22T09:38:20Z</time></trkpt><trkpt lat="42.191507450191416" lon="3.0817932954975125"><ele>3.0</ele><time>2026-04-22T09:38:22Z</time></trkpt><trkpt lat="42.191506091530755" lon="3.0819471742160567"><ele>3.0</ele><time>2026-04-22T09:38:24Z</time></trkpt><trkpt lat="42.19147344888129" lon="3.0820927419382955"><ele>3.0</ele><time>2026-04-22T09:38:26Z</time></trkpt><trkpt lat="42.19143205361575" lon="3.082165655718334"><ele>3.0</ele><time>2026-04-22T09:38:27Z</time></trkpt><trkpt lat="42.19138309102184" lon="3.0823086228054275"><ele>3.0</ele><time>2026-04-22T09:38:29Z</time></trkpt><trkpt lat="42.19142838829503" lon="3.0824285781305885"><ele>3.0</ele><time>2026-04-22T09:38:31Z</time></trkpt><trkpt lat="42.19154351056107" lon="3.082399157238912"><ele>3.0</ele><time>2026-04-22T09:38:33Z</time></trkpt><trkpt lat="42.19166316565183" lon="3.082362981595916"><ele>2.8333333333333335</ele><time>2026-04-22T09:38:35Z</time></trkpt><trkpt lat="42.191738221545265" lon="3.0823772101552693"><ele>2.6666666666666665</ele><time>2026-04-22T09:38:36Z</time></trkpt><trkpt lat="42.19181431514719" lon="3.0824000314556295"><ele>2.5</ele><time>2026-04-22T09:38:37Z</time></trkpt><trkpt lat="42.19189875123608" lon="3.082415525760997"><ele>2.333333333333333</ele><time>2026-04-22T09:38:38Z</time></trkpt><trkpt lat="42.19199296470748" lon="3.0824320234592095"><ele>2.1666666666666665</ele><time>2026-04-22T09:38:39Z</time></trkpt><trkpt lat="42.19208686152296" lon="3.0824490733998022"><ele>2.0</ele><time>2026-04-22T09:38:40Z</time></trkpt><trkpt lat="42.19217926219712" lon="3.082466864824585"><ele>2.0</ele><time>2026-04-22T09:38:41Z</time></trkpt><trkpt lat="42.1922695795961" lon="3.082484436153931"><ele>2.0</ele><time>2026-04-22T09:38:42Z</time></trkpt><trkpt lat="42.192359096035226" lon="3.0825005896093156"><ele>2.0</ele><time>2026-04-22T09:38:43Z</time></trkpt><trkpt lat="42.19244708213622" lon="3.0825153991906453"><ele>2.0</ele><time>2026-04-22T09:38:44Z</time></trkpt><trkpt lat="42.1925390150996" lon="3.0825301864107244"><ele>2.0</ele><time>2026-04-22T09:38:45Z</time></trkpt><trkpt lat="42.19263626171879" lon="3.0825462286332095"><ele>2.4000000000000004</ele><time>2026-04-22T09:38:46Z</time></trkpt><trkpt lat="42.19273679997948" lon="3.082563330484515"><ele>2.8000000000000003</ele><time>2026-04-22T09:38:47Z</time></trkpt><trkpt lat="42.19283787312133" lon="3.0825828292912707"><ele>3.2</ele><time>2026-04-22T09:38:48Z</time></trkpt><trkpt lat="42.19294112193173" lon="3.0826009974558484"><ele>3.6</ele><time>2026-04-22T09:38:49Z</time></trkpt><trkpt lat="42.19304905407559" lon="3.082618023979868"><ele>4.0</ele><time>2026-04-22T09:38:50Z</time></trkpt><trkpt lat="42.193155836510925" lon="3.08263843932207"><ele>4.0</ele><time>2026-04-22T09:38:51Z</time></trkpt><trkpt lat="42.19325938640904" lon="3.082657141137577"><ele>4.0</ele><time>2026-04-22T09:38:52Z</time></trkpt><trkpt lat="42.19336343282798" lon="3.082676267061043"><ele>4.0</ele><time>2026-04-22T09:38:53Z</time></trkpt><trkpt lat="42.193465030313" lon="3.082695192932797"><ele>4.0</ele><time>2026-04-22T09:38:54Z</time></trkpt><trkpt lat="42.19356435695379" lon="3.0827126469415416"><ele>4.0</ele><time>2026-04-22T09:38:55Z</time></trkpt><trkpt lat="42.193665559507124" lon="3.0827281516232463"><ele>4.0</ele><time>2026-04-22T09:38:56Z</time></trkpt><trkpt lat="42.1937657960467" lon="3.0827435810004755"><ele>4.0</ele><time>2026-04-22T09:38:57Z</time></trkpt><trkpt lat="42.193867276814004" lon="3.08275731555103"><ele>4.0</ele><time>2026-04-22T09:38:58Z</time></trkpt><trkpt lat="42.19396789710329" lon="3.082775484702701"><ele>4.0</ele><time>2026-04-22T09:38:59Z</time></trkpt><trkpt lat="42.194071545976804" lon="3.0827884362039395"><ele>4.0</ele><time>2026-04-22T09:39:00Z</time></trkpt><trkpt lat="42.19417717307576" lon="3.0827972096652716"><ele>3.5</ele><time>2026-04-22T09:39:01Z</time></trkpt><trkpt lat="42.19429123328348" lon="3.082805958521563"><ele>3.0</ele><time>2026-04-22T09:39:02Z</time></trkpt><trkpt lat="42.19440872877336" lon="3.0828213033610727"><ele>2.5</ele><time>2026-04-22T09:39:03Z</time></trkpt><trkpt lat="42.194527667833036" lon="3.0828341198065563"><ele>2.0</ele><time>2026-04-22T09:39:04Z</time></trkpt><trkpt lat="42.194656979729196" lon="3.082842926939906"><ele>2.0</ele><time>2026-04-22T09:39:05Z</time></trkpt><trkpt lat="42.19479054043075" lon="3.0828578820873953"><ele>2.0</ele><time>2026-04-22T09:39:06Z</time></trkpt><trkpt lat="42.194933077242766" lon="3.082871695365697"><ele>2.0</ele><time>2026-04-22T09:39:07Z</time></trkpt><trkpt lat="42.19508239011649" lon="3.082888353782967"><ele>2.0</ele><time>2026-04-22T09:39:08Z</time></trkpt><trkpt lat="42.1952357352683" lon="3.082903563225402"><ele>2.0</ele><time>2026-04-22T09:39:09Z</time></trkpt><trkpt lat="42.195394502825515" lon="3.082924331235195"><ele>2.0</ele><time>2026-04-22T09:39:10Z</time></trkpt><trkpt lat="42.19555536776294" lon="3.0829454621982695"><ele>2.0</ele><time>2026-04-22T09:39:11Z</time></trkpt><trkpt lat="42.195717504480676" lon="3.0829666872858996"><ele>1.3333333333333333</ele><time>2026-04-22T09:39:12Z</time></trkpt><trkpt lat="42.19587679872274" lon="3.0829896856558183"><ele>0.6666666666666666</ele><time>2026-04-22T09:39:13Z</time></trkpt><trkpt lat="42.196037666594705" lon="3.0830170787499593"><ele>0.0</ele><time>2026-04-22T09:39:14Z</time></trkpt><trkpt lat="42.196200398507216" lon="3.0830456564177307"><ele>0.0</ele><time>2026-04-22T09:39:15Z</time></trkpt><trkpt lat="42.19636278581353" lon="3.083073527486373"><ele>0.0</ele><time>2026-04-22T09:39:16Z</time></trkpt><trkpt lat="42.19652521922153" lon="3.083101643762448"><ele>0.0</ele><time>2026-04-22T09:39:17Z</time></trkpt><trkpt lat="42.19668533442238" lon="3.0831295128968543"><ele>0.6666666666666666</ele><time>2026-04-22T09:39:18Z</time></trkpt><trkpt lat="42.19684357977935" lon="3.083158828267337"><ele>1.3333333333333333</ele><time>2026-04-22T09:39:19Z</time></trkpt><trkpt lat="42.197000699222" lon="3.0831854794634785"><ele>2.0</ele><time>2026-04-22T09:39:20Z</time></trkpt><trkpt lat="42.1971595914481" lon="3.0832156697909876"><ele>2.0</ele><time>2026-04-22T09:39:21Z</time></trkpt><trkpt lat="42.197314238118636" lon="3.0832427275490244"><ele>2.0</ele><time>2026-04-22T09:39:22Z</time></trkpt><trkpt lat="42.1974717371201" lon="3.0832717550648203"><ele>2.0</ele><time>2026-04-22T09:39:23Z</time></trkpt><trkpt lat="42.19762702833288" lon="3.083299009147328"><ele>1.6666666666666665</ele><time>2026-04-22T09:39:24Z</time></trkpt><trkpt lat="42.197787330376606" lon="3.0833277148684792"><ele>1.3333333333333333</ele><time>2026-04-22T09:39:25Z</time></trkpt><trkpt lat="42.19794802501289" lon="3.0833570854818886"><ele>1.0</ele><time>2026-04-22T09:39:26Z</time></trkpt><trkpt lat="42.19811292524867" lon="3.0833847340986664"><ele>1.3333333333333333</ele><time>2026-04-22T09:39:27Z</time></trkpt><trkpt lat="42.19828060272041" lon="3.083410870623302"><ele>1.6666666666666665</ele><time>2026-04-22T09:39:28Z</time></trkpt><trkpt lat="42.19845398401883" lon="3.0834383783132835"><ele>2.0</ele><time>2026-04-22T09:39:29Z</time></trkpt><trkpt lat="42.19862730932488" lon="3.083472576678183"><ele>2.0</ele><time>2026-04-22T09:39:30Z</time></trkpt><trkpt lat="42.198800794203905" lon="3.0835016443175953"><ele>2.0</ele><time>2026-04-22T09:39:31Z</time></trkpt><trkpt lat="42.19897597801605" lon="3.0835318903752404"><ele>2.0</ele><time>2026-04-22T09:39:32Z</time></trkpt><trkpt lat="42.19915309262585" lon="3.0835592656512523"><ele>2.0</ele><time>2026-04-22T09:39:33Z</time></trkpt><trkpt lat="42.199329163977886" lon="3.0835852669284294"><ele>2.0</ele><time>2026-04-22T09:39:34Z</time></trkpt><trkpt lat="42.19950561416145" lon="3.0836142630550785"><ele>2.0</ele><time>2026-04-22T09:39:35Z</time></trkpt><trkpt lat="42.19967821197733" lon="3.0836425452484835"><ele>2.0</ele><time>2026-04-22T09:39:36Z</time></trkpt><trkpt lat="42.19984872879674" lon="3.0836706809228267"><ele>2.0</ele><time>2026-04-22T09:39:37Z</time></trkpt><trkpt lat="42.200018477299786" lon="3.0836999461453845"><ele>2.0</ele><time>2026-04-22T09:39:38Z</time></trkpt><trkpt lat="42.20018651760432" lon="3.083728146050707"><ele>2.0</ele><time>2026-04-22T09:39:39Z</time></trkpt><trkpt lat="42.2003536837524" lon="3.0837560648138513"><ele>2.0</ele><time>2026-04-22T09:39:40Z</time></trkpt><trkpt lat="42.20052078629512" lon="3.083784014557211"><ele>2.0</ele><time>2026-04-22T09:39:41Z</time></trkpt><trkpt lat="42.20068385557891" lon="3.083811260695514"><ele>1.6666666666666665</ele><time>2026-04-22T09:39:42Z</time></trkpt><trkpt lat="42.200847545169744" lon="3.0838401904730266"><ele>1.3333333333333333</ele><time>2026-04-22T09:39:43Z</time></trkpt><trkpt lat="42.20100967929897" lon="3.0838669955472873"><ele>1.0</ele><time>2026-04-22T09:39:44Z</time></trkpt><trkpt lat="42.20117007607229" lon="3.083896127417485"><ele>1.0</ele><time>2026-04-22T09:39:45Z</time></trkpt><trkpt lat="42.201326645581155" lon="3.0839221308822236"><ele>1.0</ele><time>2026-04-22T09:39:46Z</time></trkpt><trkpt lat="42.20148336550039" lon="3.0839479663138882"><ele>1.0</ele><time>2026-04-22T09:39:47Z</time></trkpt><trkpt lat="42.20164266392258" lon="3.0839731568213864"><ele>1.3333333333333333</ele><time>2026-04-22T09:39:48Z</time></trkpt><trkpt lat="42.20180104601241" lon="3.0840003423629248"><ele>1.6666666666666665</ele><time>2026-04-22T09:39:49Z</time></trkpt><trkpt lat="42.20196184653881" lon="3.0840263291074153"><ele>2.0</ele><time>2026-04-22T09:39:50Z</time></trkpt><trkpt lat="42.20212405323502" lon="3.0840524385313492"><ele>2.0</ele><time>2026-04-22T09:39:51Z</time></trkpt><trkpt lat="42.20228932196895" lon="3.084080173399561"><ele>2.0</ele><time>2026-04-22T09:39:52Z</time></trkpt><trkpt lat="42.202453587863594" lon="3.084108681043789"><ele>2.0</ele><time>2026-04-22T09:39:53Z</time></trkpt><trkpt lat="42.20261777066918" lon="3.0841371460350606"><ele>1.3333333333333333</ele><time>2026-04-22T09:39:54Z</time></trkpt><trkpt lat="42.20278311748337" lon="3.0841641213948487"><ele>0.6666666666666666</ele><time>2026-04-22T09:39:55Z</time></trkpt><trkpt lat="42.20295057285604" lon="3.084191299546913"><ele>0.0</ele><time>2026-04-22T09:39:56Z</time></trkpt><trkpt lat="42.203117959073396" lon="3.084218372374606"><ele>0.3333333333333333</ele><time>2026-04-22T09:39:57Z</time></trkpt><trkpt lat="42.20328548672182" lon="3.084246144163946"><ele>0.6666666666666666</ele><time>2026-04-22T09:39:58Z</time></trkpt><trkpt lat="42.20345354822015" lon="3.084274372728872"><ele>1.0</ele><time>2026-04-22T09:39:59Z</time></trkpt><trkpt lat="42.20361999076717" lon="3.084301527573824"><ele>1.0</ele><time>2026-04-22T09:40:00Z</time></trkpt><trkpt lat="42.203787713103125" lon="3.084331053899628"><ele>1.0</ele><time>2026-04-22T09:40:01Z</time></trkpt><trkpt lat="42.20395585359137" lon="3.0843616152344002"><ele>1.0</ele><time>2026-04-22T09:40:02Z</time></trkpt><trkpt lat="42.20412180728286" lon="3.0843896043586883"><ele>1.3333333333333333</ele><time>2026-04-22T09:40:03Z</time></trkpt><trkpt lat="42.204290610137534" lon="3.0844173028352766"><ele>1.6666666666666665</ele><time>2026-04-22T09:40:04Z</time></trkpt><trkpt lat="42.20445823111076" lon="3.084446883970974"><ele>2.0</ele><time>2026-04-22T09:40:05Z</time></trkpt><trkpt lat="42.204627367335796" lon="3.084475271481926"><ele>2.0</ele><time>2026-04-22T09:40:06Z</time></trkpt><trkpt lat="42.20479713572993" lon="3.084503806415299"><ele>2.0</ele><time>2026-04-22T09:40:07Z</time></trkpt><trkpt lat="42.20496285213091" lon="3.0845346408136898"><ele>2.0</ele><time>2026-04-22T09:40:08Z</time></trkpt><trkpt lat="42.20512785001632" lon="3.0845644455365924"><ele>1.6666666666666665</ele><time>2026-04-22T09:40:09Z</time></trkpt><trkpt lat="42.205293263901524" lon="3.0845938288584587"><ele>1.3333333333333333</ele><time>2026-04-22T09:40:10Z</time></trkpt><trkpt lat="42.20545975616547" lon="3.084621394546119"><ele>1.0</ele><time>2026-04-22T09:40:11Z</time></trkpt><trkpt lat="42.20562776995799" lon="3.0846502465382546"><ele>0.6666666666666666</ele><time>2026-04-22T09:40:12Z</time></trkpt><trkpt lat="42.205794775305" lon="3.0846778215911232"><ele>0.3333333333333333</ele><time>2026-04-22T09:40:13Z</time></trkpt><trkpt lat="42.20596096138407" lon="3.0847054966637257"><ele>0.0</ele><time>2026-04-22T09:40:14Z</time></trkpt><trkpt lat="42.20612441554111" lon="3.084731351147919"><ele>0.0</ele><time>2026-04-22T09:40:15Z</time></trkpt><trkpt lat="42.20628516490585" lon="3.08475832722621"><ele>0.0</ele><time>2026-04-22T09:40:16Z</time></trkpt><trkpt lat="42.206445571583224" lon="3.0847864919847514"><ele>0.0</ele><time>2026-04-22T09:40:17Z</time></trkpt><trkpt lat="42.206605193581105" lon="3.084812842221386"><ele>0.3333333333333333</ele><time>2026-04-22T09:40:18Z</time></trkpt><trkpt lat="42.20676593549299" lon="3.084839752123347"><ele>0.6666666666666666</ele><time>2026-04-22T09:40:19Z</time></trkpt><trkpt lat="42.206924759778126" lon="3.084868661836986"><ele>1.0</ele><time>2026-04-22T09:40:20Z</time></trkpt><trkpt lat="42.20707972753876" lon="3.0848970833065277"><ele>1.0</ele><time>2026-04-22T09:40:21Z</time></trkpt><trkpt lat="42.207232430044044" lon="3.0849239015811847"><ele>1.0</ele><time>2026-04-22T09:40:22Z</time></trkpt><trkpt lat="42.207385584746504" lon="3.0849485665739174"><ele>1.0</ele><time>2026-04-22T09:40:23Z</time></trkpt><trkpt lat="42.20753785259893" lon="3.0849740826883796"><ele>1.3333333333333333</ele><time>2026-04-22T09:40:24Z</time></trkpt><trkpt lat="42.207692491341405" lon="3.085001045715292"><ele>1.6666666666666665</ele><time>2026-04-22T09:40:25Z</time></trkpt><trkpt lat="42.20784716356318" lon="3.085028983065324"><ele>2.0</ele><time>2026-04-22T09:40:26Z</time></trkpt><trkpt lat="42.208008429339756" lon="3.0850592328178235"><ele>1.6666666666666665</ele><time>2026-04-22T09:40:27Z</time></trkpt><trkpt lat="42.20816859772452" lon="3.085083868154942"><ele>1.3333333333333333</ele><time>2026-04-22T09:40:28Z</time></trkpt><trkpt lat="42.20833418772205" lon="3.08511209351266"><ele>1.0</ele><time>2026-04-22T09:40:29Z</time></trkpt><trkpt lat="42.208503585096274" lon="3.085139541542503"><ele>1.0</ele><time>2026-04-22T09:40:30Z</time></trkpt><trkpt lat="42.208676680820616" lon="3.0851700915564613"><ele>1.0</ele><time>2026-04-22T09:40:31Z</time></trkpt><trkpt lat="42.20885514232507" lon="3.0852010976070683"><ele>1.0</ele><time>2026-04-22T09:40:32Z</time></trkpt><trkpt lat="42.20903348286324" lon="3.085233015743925"><ele>0.6666666666666666</ele><time>2026-04-22T09:40:33Z</time></trkpt><trkpt lat="42.20921268167409" lon="3.0852590763950105"><ele>0.3333333333333333</ele><time>2026-04-22T09:40:34Z</time></trkpt><trkpt lat="42.20939013241095" lon="3.0852879140362646"><ele>0.0</ele><time>2026-04-22T09:40:35Z</time></trkpt><trkpt lat="42.20956788786738" lon="3.085315270156353"><ele>0.0</ele><time>2026-04-22T09:40:36Z</time></trkpt><trkpt lat="42.209746449422695" lon="3.0853452269879793"><ele>0.0</ele><time>2026-04-22T09:40:37Z</time></trkpt><trkpt lat="42.20992286609497" lon="3.085374123257594"><ele>0.0</ele><time>2026-04-22T09:40:38Z</time></trkpt><trkpt lat="42.21010086989262" lon="3.0854022278775526"><ele>0.6666666666666666</ele><time>2026-04-22T09:40:39Z</time></trkpt><trkpt lat="42.210279398908305" lon="3.0854303089823274"><ele>1.3333333333333333</ele><time>2026-04-22T09:40:40Z</time></trkpt><trkpt lat="42.210454895547166" lon="3.085460563815561"><ele>2.0</ele><time>2026-04-22T09:40:41Z</time></trkpt><trkpt lat="42.21062863429497" lon="3.085487655535229"><ele>1.6666666666666665</ele><time>2026-04-22T09:40:42Z</time></trkpt><trkpt lat="42.21080234570039" lon="3.085514338631731"><ele>1.3333333333333333</ele><time>2026-04-22T09:40:43Z</time></trkpt><trkpt lat="42.21097356758041" lon="3.0855444427766274"><ele>1.0</ele><time>2026-04-22T09:40:44Z</time></trkpt><trkpt lat="42.211142673535" lon="3.0855707492785815"><ele>1.0</ele><time>2026-04-22T09:40:45Z</time></trkpt><trkpt lat="42.211309422155026" lon="3.085600867995739"><ele>1.0</ele><time>2026-04-22T09:40:46Z</time></trkpt><trkpt lat="42.21147171262201" lon="3.0856391827038157"><ele>1.0</ele><time>2026-04-22T09:40:47Z</time></trkpt><trkpt lat="42.21163331985192" lon="3.0856893600421045"><ele>1.3333333333333333</ele><time>2026-04-22T09:40:48Z</time></trkpt><trkpt lat="42.21179084702206" lon="3.0857517903738407"><ele>1.6666666666666665</ele><time>2026-04-22T09:40:49Z</time></trkpt><trkpt lat="42.21194144488626" lon="3.085821833339425"><ele>2.0</ele><time>2026-04-22T09:40:50Z</time></trkpt><trkpt lat="42.212082524046984" lon="3.0859016050840378"><ele>2.0</ele><time>2026-04-22T09:40:51Z</time></trkpt><trkpt lat="42.212217763253044" lon="3.0859914504426493"><ele>2.0</ele><time>2026-04-22T09:40:52Z</time></trkpt><trkpt lat="42.2123514891103" lon="3.0860828188787495"><ele>2.0</ele><time>2026-04-22T09:40:53Z</time></trkpt><trkpt lat="42.21248662990541" lon="3.086175335755585"><ele>1.6666666666666665</ele><time>2026-04-22T09:40:54Z</time></trkpt><trkpt lat="42.212621962161485" lon="3.086265110394598"><ele>1.3333333333333333</ele><time>2026-04-22T09:40:55Z</time></trkpt><trkpt lat="42.21275998535529" lon="3.086358344144717"><ele>1.0</ele><time>2026-04-22T09:40:56Z</time></trkpt><trkpt lat="42.21290038637277" lon="3.0864528023798763"><ele>1.0</ele><time>2026-04-22T09:40:57Z</time></trkpt><trkpt lat="42.213043129048735" lon="3.086545577863138"><ele>1.0</ele><time>2026-04-22T09:40:58Z</time></trkpt><trkpt lat="42.21318397128396" lon="3.086640053357543"><ele>1.0</ele><time>2026-04-22T09:40:59Z</time></trkpt><trkpt lat="42.21332634369501" lon="3.0867357194630163"><ele>0.6666666666666666</ele><time>2026-04-22T09:41:00Z</time></trkpt><trkpt lat="42.213467885458286" lon="3.086832012294899"><ele>0.3333333333333333</ele><time>2026-04-22T09:41:01Z</time></trkpt><trkpt lat="42.21360856623096" lon="3.0869268947929913"><ele>0.0</ele><time>2026-04-22T09:41:02Z</time></trkpt><trkpt lat="42.21375051904021" lon="3.0870213274626295"><ele>0.0</ele><time>2026-04-22T09:41:03Z</time></trkpt><trkpt lat="42.213892198490974" lon="3.087117470091911"><ele>0.0</ele><time>2026-04-22T09:41:04Z</time></trkpt><trkpt lat="42.21403248977949" lon="3.0872123482285367"><ele>0.0</ele><time>2026-04-22T09:41:05Z</time></trkpt><trkpt lat="42.214171426084796" lon="3.08730575446808"><ele>0.0</ele><time>2026-04-22T09:41:06Z</time></trkpt><trkpt lat="42.21430921532311" lon="3.0873998647212906"><ele>0.0</ele><time>2026-04-22T09:41:07Z</time></trkpt><trkpt lat="42.21444649144223" lon="3.0874898879951176"><ele>0.0</ele><time>2026-04-22T09:41:08Z</time></trkpt><trkpt lat="42.21458069716764" lon="3.08758008003411"><ele>0.0</ele><time>2026-04-22T09:41:09Z</time></trkpt><trkpt lat="42.21471716947659" lon="3.0876711008728437"><ele>0.0</ele><time>2026-04-22T09:41:10Z</time></trkpt><trkpt lat="42.21485349051649" lon="3.087763695692409"><ele>0.0</ele><time>2026-04-22T09:41:11Z</time></trkpt><trkpt lat="42.214991802277574" lon="3.08785598870281"><ele>0.3333333333333333</ele><time>2026-04-22T09:41:12Z</time></trkpt><trkpt lat="42.21512952619705" lon="3.087947432155153"><ele>0.6666666666666666</ele><time>2026-04-22T09:41:13Z</time></trkpt><trkpt lat="42.215267191715945" lon="3.088040102185301"><ele>1.0</ele><time>2026-04-22T09:41:14Z</time></trkpt><trkpt lat="42.21540543690395" lon="3.088131677889149"><ele>1.0</ele><time>2026-04-22T09:41:15Z</time></trkpt><trkpt lat="42.21554338566922" lon="3.0882244334865083"><ele>1.0</ele><time>2026-04-22T09:41:16Z</time></trkpt><trkpt lat="42.21568105986301" lon="3.088316739636602"><ele>1.0</ele><time>2026-04-22T09:41:17Z</time></trkpt><trkpt lat="42.21581741783978" lon="3.088408583701292"><ele>0.75</ele><time>2026-04-22T09:41:18Z</time></trkpt><trkpt lat="42.215953878723234" lon="3.0884952032785193"><ele>0.5</ele><time>2026-04-22T09:41:19Z</time></trkpt><trkpt lat="42.21608837203621" lon="3.0885830096766322"><ele>0.25</ele><time>2026-04-22T09:41:20Z</time></trkpt><trkpt lat="42.21622500847481" lon="3.088662846359867"><ele>0.0</ele><time>2026-04-22T09:41:21Z</time></trkpt><trkpt lat="42.21637063974366" lon="3.0887227743958237"><ele>0.3333333333333333</ele><time>2026-04-22T09:41:22Z</time></trkpt><trkpt lat="42.21651747564752" lon="3.08875673025167"><ele>0.6666666666666666</ele><time>2026-04-22T09:41:23Z</time></trkpt><trkpt lat="42.216668224225266" lon="3.088768040917695"><ele>1.0</ele><time>2026-04-22T09:41:24Z</time></trkpt><trkpt lat="42.21681865580761" lon="3.0887587987030014"><ele>1.0</ele><time>2026-04-22T09:41:25Z</time></trkpt><trkpt lat="42.216965767081945" lon="3.088726043026859"><ele>1.0</ele><time>2026-04-22T09:41:26Z</time></trkpt><trkpt lat="42.217110487948524" lon="3.0886765350262224"><ele>1.0</ele><time>2026-04-22T09:41:27Z</time></trkpt><trkpt lat="42.217255515707095" lon="3.088622859258434"><ele>1.0</ele><time>2026-04-22T09:41:28Z</time></trkpt><trkpt lat="42.217402966045306" lon="3.088573915194997"><ele>0.6666666666666666</ele><time>2026-04-22T09:41:29Z</time></trkpt><trkpt lat="42.21755158213923" lon="3.088528886104324"><ele>0.3333333333333333</ele><time>2026-04-22T09:41:30Z</time></trkpt><trkpt lat="42.217704099020835" lon="3.088497808803313"><ele>0.0</ele><time>2026-04-22T09:41:31Z</time></trkpt><trkpt lat="42.21785692944972" lon="3.0884763930873236"><ele>0.0</ele><time>2026-04-22T09:41:32Z</time></trkpt><trkpt lat="42.21801159280229" lon="3.0884647732241213"><ele>0.0</ele><time>2026-04-22T09:41:33Z</time></trkpt><trkpt lat="42.218166473989164" lon="3.088471817586738"><ele>0.0</ele><time>2026-04-22T09:41:34Z</time></trkpt><trkpt lat="42.218320538067005" lon="3.088489784219956"><ele>0.3333333333333333</ele><time>2026-04-22T09:41:35Z</time></trkpt><trkpt lat="42.21847579912506" lon="3.0885021988454646"><ele>0.6666666666666666</ele><time>2026-04-22T09:41:36Z</time></trkpt><trkpt lat="42.218630704391266" lon="3.0885141560194933"><ele>1.0</ele><time>2026-04-22T09:41:37Z</time></trkpt><trkpt lat="42.21878264878143" lon="3.088527430094167"><ele>1.0</ele><time>2026-04-22T09:41:38Z</time></trkpt><trkpt lat="42.21893578661948" lon="3.0885418861369147"><ele>1.0</ele><time>2026-04-22T09:41:39Z</time></trkpt><trkpt lat="42.219087181603356" lon="3.0885564850403058"><ele>1.0</ele><time>2026-04-22T09:41:40Z</time></trkpt><trkpt lat="42.21923676094737" lon="3.0885711653745713"><ele>0.6666666666666666</ele><time>2026-04-22T09:41:41Z</time></trkpt><trkpt lat="42.219388470734444" lon="3.088586954461515"><ele>0.3333333333333333</ele><time>2026-04-22T09:41:42Z</time></trkpt><trkpt lat="42.21953689118744" lon="3.088602035369315"><ele>0.0</ele><time>2026-04-22T09:41:43Z</time></trkpt><trkpt lat="42.219687033998014" lon="3.0886172604901154"><ele>0.25</ele><time>2026-04-22T09:41:44Z</time></trkpt><trkpt lat="42.219835832506575" lon="3.0886254066122754"><ele>0.5</ele><time>2026-04-22T09:41:45Z</time></trkpt><trkpt lat="42.21998433761674" lon="3.0886167647357334"><ele>0.75</ele><time>2026-04-22T09:41:46Z</time></trkpt><trkpt lat="42.22013054896159" lon="3.088593728160425"><ele>1.0</ele><time>2026-04-22T09:41:47Z</time></trkpt><trkpt lat="42.22027249388522" lon="3.088550087540373"><ele>1.0</ele><time>2026-04-22T09:41:48Z</time></trkpt><trkpt lat="42.22041407935331" lon="3.0884859350382534"><ele>1.0</ele><time>2026-04-22T09:41:49Z</time></trkpt><trkpt lat="42.22054911553286" lon="3.088406021723272"><ele>1.0</ele><time>2026-04-22T09:41:50Z</time></trkpt><trkpt lat="42.22068335517067" lon="3.0883181322966244"><ele>1.0</ele><time>2026-04-22T09:41:51Z</time></trkpt><trkpt lat="42.220820006394" lon="3.088231751705802"><ele>1.0</ele><time>2026-04-22T09:41:52Z</time></trkpt><trkpt lat="42.220959512468525" lon="3.088140677561649"><ele>1.0</ele><time>2026-04-22T09:41:53Z</time></trkpt><trkpt lat="42.22109676062695" lon="3.0880560667031927"><ele>1.0</ele><time>2026-04-22T09:41:54Z</time></trkpt><trkpt lat="42.2212344835306" lon="3.087970313863576"><ele>1.0</ele><time>2026-04-22T09:41:55Z</time></trkpt><trkpt lat="42.22136909346465" lon="3.087883627143195"><ele>1.0</ele><time>2026-04-22T09:41:56Z</time></trkpt><trkpt lat="42.221507265972" lon="3.087790512289104"><ele>1.0</ele><time>2026-04-22T09:41:57Z</time></trkpt><trkpt lat="42.22164647641652" lon="3.087709460370235"><ele>1.0</ele><time>2026-04-22T09:41:58Z</time></trkpt><trkpt lat="42.22178594786327" lon="3.0876243997800117"><ele>1.0</ele><time>2026-04-22T09:41:59Z</time></trkpt><trkpt lat="42.22192838561573" lon="3.0875539357262856"><ele>1.0</ele><time>2026-04-22T09:42:00Z</time></trkpt><trkpt lat="42.222075552303465" lon="3.0874976392876143"><ele>1.0</ele><time>2026-04-22T09:42:01Z</time></trkpt><trkpt lat="42.22222555273456" lon="3.0874573278219177"><ele>1.0</ele><time>2026-04-22T09:42:02Z</time></trkpt><trkpt lat="42.22237731491072" lon="3.0874356715945552"><ele>1.0</ele><time>2026-04-22T09:42:03Z</time></trkpt><trkpt lat="42.22253175413342" lon="3.0874320691820145"><ele>1.3333333333333333</ele><time>2026-04-22T09:42:04Z</time></trkpt><trkpt lat="42.22268926523829" lon="3.087441503790714"><ele>1.6666666666666665</ele><time>2026-04-22T09:42:05Z</time></trkpt><trkpt lat="42.222846223009604" lon="3.087465055415067"><ele>2.0</ele><time>2026-04-22T09:42:06Z</time></trkpt><trkpt lat="42.22300356806918" lon="3.0874963855054114"><ele>2.0</ele><time>2026-04-22T09:42:07Z</time></trkpt><trkpt lat="42.223165470638904" lon="3.087531546412222"><ele>2.0</ele><time>2026-04-22T09:42:08Z</time></trkpt><trkpt lat="42.22332780338916" lon="3.087569849296246"><ele>2.0</ele><time>2026-04-22T09:42:09Z</time></trkpt><trkpt lat="42.22349099369067" lon="3.0876082158061524"><ele>2.0</ele><time>2026-04-22T09:42:10Z</time></trkpt><trkpt lat="42.22365494324293" lon="3.0876463439904547"><ele>2.0</ele><time>2026-04-22T09:42:11Z</time></trkpt><trkpt lat="42.22381904337027" lon="3.087685313579868"><ele>2.0</ele><time>2026-04-22T09:42:12Z</time></trkpt><trkpt lat="42.223980085452816" lon="3.08772343927748"><ele>2.0</ele><time>2026-04-22T09:42:13Z</time></trkpt><trkpt lat="42.22413631268348" lon="3.087750738382657"><ele>2.0</ele><time>2026-04-22T09:42:14Z</time></trkpt><trkpt lat="42.22429172804828" lon="3.0877579921922287"><ele>2.0</ele><time>2026-04-22T09:42:15Z</time></trkpt><trkpt lat="42.224446620120595" lon="3.087751389208915"><ele>2.0</ele><time>2026-04-22T09:42:16Z</time></trkpt><trkpt lat="42.22459767573022" lon="3.0877279796944173"><ele>2.0</ele><time>2026-04-22T09:42:17Z</time></trkpt><trkpt lat="42.22474635546626" lon="3.087683417087087"><ele>2.0</ele><time>2026-04-22T09:42:18Z</time></trkpt><trkpt lat="42.224886676250584" lon="3.0876194419688465"><ele>1.6666666666666665</ele><time>2026-04-22T09:42:19Z</time></trkpt><trkpt lat="42.22502480549466" lon="3.087539120495786"><ele>1.3333333333333333</ele><time>2026-04-22T09:42:20Z</time></trkpt><trkpt lat="42.22515834956594" lon="3.0874422725089254"><ele>1.0</ele><time>2026-04-22T09:42:21Z</time></trkpt><trkpt lat="42.22529328384209" lon="3.087339703319862"><ele>1.0</ele><time>2026-04-22T09:42:22Z</time></trkpt><trkpt lat="42.22542630871348" lon="3.087235666974176"><ele>1.0</ele><time>2026-04-22T09:42:23Z</time></trkpt><trkpt lat="42.225564744876685" lon="3.0871356331128594"><ele>1.0</ele><time>2026-04-22T09:42:24Z</time></trkpt><trkpt lat="42.22570509085731" lon="3.087043126620424"><ele>1.0</ele><time>2026-04-22T09:42:25Z</time></trkpt><trkpt lat="42.225852194325775" lon="3.0869642890222906"><ele>1.0</ele><time>2026-04-22T09:42:26Z</time></trkpt><trkpt lat="42.225997190737644" lon="3.0868969718407615"><ele>1.0</ele><time>2026-04-22T09:42:27Z</time></trkpt><trkpt lat="42.226142020368485" lon="3.086830287110712"><ele>1.0</ele><time>2026-04-22T09:42:28Z</time></trkpt><trkpt lat="42.22629412187628" lon="3.0867598068723714"><ele>1.0</ele><time>2026-04-22T09:42:29Z</time></trkpt><trkpt lat="42.226444747637316" lon="3.0866883253449284"><ele>1.0</ele><time>2026-04-22T09:42:30Z</time></trkpt><trkpt lat="42.226592844715434" lon="3.086615783483519"><ele>0.6666666666666666</ele><time>2026-04-22T09:42:31Z</time></trkpt><trkpt lat="42.22674256316575" lon="3.0865396089473753"><ele>0.3333333333333333</ele><time>2026-04-22T09:42:32Z</time></trkpt><trkpt lat="42.226888354138545" lon="3.0864618579597956"><ele>0.0</ele><time>2026-04-22T09:42:33Z</time></trkpt><trkpt lat="42.22703351474704" lon="3.0863764937001266"><ele>0.0</ele><time>2026-04-22T09:42:34Z</time></trkpt><trkpt lat="42.227175505171616" lon="3.0862875756990666"><ele>0.0</ele><time>2026-04-22T09:42:35Z</time></trkpt><trkpt lat="42.22731755189087" lon="3.086199826514901"><ele>0.0</ele><time>2026-04-22T09:42:36Z</time></trkpt><trkpt lat="42.227457713231956" lon="3.086108777879089"><ele>0.0</ele><time>2026-04-22T09:42:37Z</time></trkpt><trkpt lat="42.227597176397936" lon="3.086013878205703"><ele>0.0</ele><time>2026-04-22T09:42:38Z</time></trkpt><trkpt lat="42.2277364181222" lon="3.08591689506268"><ele>0.0</ele><time>2026-04-22T09:42:39Z</time></trkpt><trkpt lat="42.22787442839909" lon="3.08581938601473"><ele>0.3333333333333333</ele><time>2026-04-22T09:42:40Z</time></trkpt><trkpt lat="42.22801459536363" lon="3.0857199134034707"><ele>0.6666666666666666</ele><time>2026-04-22T09:42:41Z</time></trkpt><trkpt lat="42.22815175224134" lon="3.085619629910343"><ele>1.0</ele><time>2026-04-22T09:42:42Z</time></trkpt><trkpt lat="42.22829130621782" lon="3.0855224025278494"><ele>1.0</ele><time>2026-04-22T09:42:43Z</time></trkpt><trkpt lat="42.22842980104228" lon="3.085428731535629"><ele>1.0</ele><time>2026-04-22T09:42:44Z</time></trkpt><trkpt lat="42.22857077129367" lon="3.085331250646333"><ele>1.0</ele><time>2026-04-22T09:42:45Z</time></trkpt><trkpt lat="42.22870748080641" lon="3.0852317478710103"><ele>1.0</ele><time>2026-04-22T09:42:46Z</time></trkpt><trkpt lat="42.228849772642135" lon="3.085136284003946"><ele>1.0</ele><time>2026-04-22T09:42:47Z</time></trkpt><trkpt lat="42.228984897689124" lon="3.0850368173415066"><ele>1.0</ele><time>2026-04-22T09:42:48Z</time></trkpt><trkpt lat="42.2291268410685" lon="3.084939775856696"><ele>1.0</ele><time>2026-04-22T09:42:49Z</time></trkpt><trkpt lat="42.22926955494917" lon="3.084841384150159"><ele>1.0</ele><time>2026-04-22T09:42:50Z</time></trkpt><trkpt lat="42.22941327050279" lon="3.0847436212032124"><ele>1.0</ele><time>2026-04-22T09:42:51Z</time></trkpt><trkpt lat="42.22956236404574" lon="3.0846473164259187"><ele>1.0</ele><time>2026-04-22T09:42:52Z</time></trkpt><trkpt lat="42.22970775753345" lon="3.0845487295305865"><ele>1.0</ele><time>2026-04-22T09:42:53Z</time></trkpt><trkpt lat="42.22985546871487" lon="3.0844526911568244"><ele>1.0</ele><time>2026-04-22T09:42:54Z</time></trkpt><trkpt lat="42.23000370162874" lon="3.0843595743392282"><ele>1.0</ele><time>2026-04-22T09:42:55Z</time></trkpt><trkpt lat="42.23015107239651" lon="3.084264924829468"><ele>1.0</ele><time>2026-04-22T09:42:56Z</time></trkpt><trkpt lat="42.23030265510762" lon="3.084174835987379"><ele>1.0</ele><time>2026-04-22T09:42:57Z</time></trkpt><trkpt lat="42.23045586670285" lon="3.084090026328631"><ele>1.0</ele><time>2026-04-22T09:42:58Z</time></trkpt><trkpt lat="42.23060791654751" lon="3.0840063266730673"><ele>1.0</ele><time>2026-04-22T09:42:59Z</time></trkpt><trkpt lat="42.23075857180764" lon="3.083928433398661"><ele>1.0</ele><time>2026-04-22T09:43:00Z</time></trkpt><trkpt lat="42.23090817584643" lon="3.0838551176816296"><ele>0.6666666666666666</ele><time>2026-04-22T09:43:01Z</time></trkpt><trkpt lat="42.231059010840745" lon="3.08378752987814"><ele>0.3333333333333333</ele><time>2026-04-22T09:43:02Z</time></trkpt><trkpt lat="42.23120703356501" lon="3.083723673173771"><ele>0.0</ele><time>2026-04-22T09:43:03Z</time></trkpt><trkpt lat="42.23135128087326" lon="3.0836690812052803"><ele>0.25</ele><time>2026-04-22T09:43:04Z</time></trkpt><trkpt lat="42.23149150486133" lon="3.0836149953960574"><ele>0.5</ele><time>2026-04-22T09:43:05Z</time></trkpt><trkpt lat="42.23163585298279" lon="3.083565868379631"><ele>0.75</ele><time>2026-04-22T09:43:06Z</time></trkpt><trkpt lat="42.23178487936888" lon="3.083524346675314"><ele>1.0</ele><time>2026-04-22T09:43:07Z</time></trkpt><trkpt lat="42.23193697727726" lon="3.0835014633878326"><ele>1.0</ele><time>2026-04-22T09:43:08Z</time></trkpt><trkpt lat="42.232091111842955" lon="3.083491084078846"><ele>1.0</ele><time>2026-04-22T09:43:09Z</time></trkpt><trkpt lat="42.23224982923845" lon="3.083493142441498"><ele>1.0</ele><time>2026-04-22T09:43:10Z</time></trkpt><trkpt lat="42.23241032483507" lon="3.0834959286896337"><ele>1.0</ele><time>2026-04-22T09:43:11Z</time></trkpt><trkpt lat="42.23257225319644" lon="3.083498294467073"><ele>1.0</ele><time>2026-04-22T09:43:12Z</time></trkpt><trkpt lat="42.23273426072002" lon="3.08350014768803"><ele>1.0</ele><time>2026-04-22T09:43:13Z</time></trkpt><trkpt lat="42.232894241394526" lon="3.083502041256834"><ele>1.0</ele><time>2026-04-22T09:43:14Z</time></trkpt><trkpt lat="42.233055713616785" lon="3.083506421680162"><ele>1.0</ele><time>2026-04-22T09:43:15Z</time></trkpt><trkpt lat="42.23321394361551" lon="3.083506097642301"><ele>1.0</ele><time>2026-04-22T09:43:16Z</time></trkpt><trkpt lat="42.233371740187934" lon="3.0835047704774508"><ele>0.6666666666666666</ele><time>2026-04-22T09:43:17Z</time></trkpt><trkpt lat="42.23353098762311" lon="3.0834925938047046"><ele>0.3333333333333333</ele><time>2026-04-22T09:43:18Z</time></trkpt><trkpt lat="42.233690761677856" lon="3.0834607821766578"><ele>0.0</ele><time>2026-04-22T09:43:19Z</time></trkpt><trkpt lat="42.23384951578485" lon="3.0834133336196836"><ele>0.0</ele><time>2026-04-22T09:43:20Z</time></trkpt><trkpt lat="42.23400947809134" lon="3.0833543854807552"><ele>0.0</ele><time>2026-04-22T09:43:21Z</time></trkpt><trkpt lat="42.23416931622063" lon="3.0832901443630094"><ele>0.0</ele><time>2026-04-22T09:43:22Z</time></trkpt><trkpt lat="42.234329058304496" lon="3.083216699886943"><ele>0.0</ele><time>2026-04-22T09:43:23Z</time></trkpt><trkpt lat="42.234489881380334" lon="3.083136535770936"><ele>0.0</ele><time>2026-04-22T09:43:24Z</time></trkpt><trkpt lat="42.23465353616777" lon="3.083060922971286"><ele>0.0</ele><time>2026-04-22T09:43:25Z</time></trkpt><trkpt lat="42.23481451298572" lon="3.0829855640311434"><ele>0.6666666666666666</ele><time>2026-04-22T09:43:26Z</time></trkpt><trkpt lat="42.234973868907275" lon="3.082911475285267"><ele>1.3333333333333333</ele><time>2026-04-22T09:43:27Z</time></trkpt><trkpt lat="42.23512895562266" lon="3.082837905924233"><ele>2.0</ele><time>2026-04-22T09:43:28Z</time></trkpt><trkpt lat="42.23528428472785" lon="3.082763508745523"><ele>2.0</ele><time>2026-04-22T09:43:29Z</time></trkpt><trkpt lat="42.23543980573621" lon="3.082688842112823"><ele>2.0</ele><time>2026-04-22T09:43:30Z</time></trkpt><trkpt lat="42.23559639007312" lon="3.0826066976806987"><ele>2.0</ele><time>2026-04-22T09:43:31Z</time></trkpt><trkpt lat="42.2357507260372" lon="3.082514161553224"><ele>2.0</ele><time>2026-04-22T09:43:32Z</time></trkpt><trkpt lat="42.235900660392375" lon="3.0824058584758345"><ele>2.0</ele><time>2026-04-22T09:43:33Z</time></trkpt><trkpt lat="42.236047420901976" lon="3.082290915437344"><ele>2.0</ele><time>2026-04-22T09:43:34Z</time></trkpt><trkpt lat="42.236189826866415" lon="3.0821693869336877"><ele>2.0</ele><time>2026-04-22T09:43:35Z</time></trkpt><trkpt lat="42.236331936674226" lon="3.0820475184734852"><ele>2.0</ele><time>2026-04-22T09:43:36Z</time></trkpt><trkpt lat="42.236472818210274" lon="3.081932856559158"><ele>2.0</ele><time>2026-04-22T09:43:37Z</time></trkpt><trkpt lat="42.23661147920161" lon="3.0818179810088338"><ele>2.333333333333333</ele><time>2026-04-22T09:43:38Z</time></trkpt><trkpt lat="42.23674999358792" lon="3.081706088067213"><ele>2.6666666666666665</ele><time>2026-04-22T09:43:39Z</time></trkpt><trkpt lat="42.236891070462754" lon="3.0816030497059383"><ele>3.0</ele><time>2026-04-22T09:43:40Z</time></trkpt><trkpt lat="42.23703904692366" lon="3.081513388978194"><ele>3.0</ele><time>2026-04-22T09:43:41Z</time></trkpt><trkpt lat="42.237190621293315" lon="3.081432711805745"><ele>3.0</ele><time>2026-04-22T09:43:42Z</time></trkpt><trkpt lat="42.23734428155557" lon="3.08135788558372"><ele>3.0</ele><time>2026-04-22T09:43:43Z</time></trkpt><trkpt lat="42.23749621115143" lon="3.081284599062274"><ele>2.6666666666666665</ele><time>2026-04-22T09:43:44Z</time></trkpt><trkpt lat="42.237650007486145" lon="3.0812040573384394"><ele>2.333333333333333</ele><time>2026-04-22T09:43:45Z</time></trkpt><trkpt lat="42.237799845047014" lon="3.0811088429887046"><ele>2.0</ele><time>2026-04-22T09:43:46Z</time></trkpt><trkpt lat="42.23794345994614" lon="3.081004659577315"><ele>2.0</ele><time>2026-04-22T09:43:47Z</time></trkpt><trkpt lat="42.23808529986747" lon="3.0808961746814654"><ele>2.0</ele><time>2026-04-22T09:43:48Z</time></trkpt><trkpt lat="42.238226909390875" lon="3.080784874807452"><ele>2.0</ele><time>2026-04-22T09:43:49Z</time></trkpt><trkpt lat="42.23837003856128" lon="3.080674061703702"><ele>1.6666666666666665</ele><time>2026-04-22T09:43:50Z</time></trkpt><trkpt lat="42.238513191540974" lon="3.080562084166915"><ele>1.3333333333333333</ele><time>2026-04-22T09:43:51Z</time></trkpt><trkpt lat="42.23865696202893" lon="3.080450005480619"><ele>1.0</ele><time>2026-04-22T09:43:52Z</time></trkpt><trkpt lat="42.2387974977469" lon="3.0803405085202242"><ele>1.0</ele><time>2026-04-22T09:43:53Z</time></trkpt><trkpt lat="42.23893882318178" lon="3.0802333281312757"><ele>1.0</ele><time>2026-04-22T09:43:54Z</time></trkpt><trkpt lat="42.23908149855926" lon="3.080129516954253"><ele>1.0</ele><time>2026-04-22T09:43:55Z</time></trkpt><trkpt lat="42.23922352707153" lon="3.080032405182249"><ele>1.3333333333333333</ele><time>2026-04-22T09:43:56Z</time></trkpt><trkpt lat="42.23936856271182" lon="3.0799366516782105"><ele>1.6666666666666665</ele><time>2026-04-22T09:43:57Z</time></trkpt><trkpt lat="42.239515963631995" lon="3.079849114278616"><ele>2.0</ele><time>2026-04-22T09:43:58Z</time></trkpt><trkpt lat="42.23966381553097" lon="3.0797653740563273"><ele>2.333333333333333</ele><time>2026-04-22T09:43:59Z</time></trkpt><trkpt lat="42.239814106408424" lon="3.0796853464201"><ele>2.6666666666666665</ele><time>2026-04-22T09:44:00Z</time></trkpt><trkpt lat="42.239961854119755" lon="3.0796109160105165"><ele>3.0</ele><time>2026-04-22T09:44:01Z</time></trkpt><trkpt lat="42.24010791657808" lon="3.079536681030712"><ele>3.0</ele><time>2026-04-22T09:44:02Z</time></trkpt><trkpt lat="42.24025466219589" lon="3.0794617383057425"><ele>3.0</ele><time>2026-04-22T09:44:03Z</time></trkpt><trkpt lat="42.2403986891051" lon="3.079385760362466"><ele>3.0</ele><time>2026-04-22T09:44:04Z</time></trkpt><trkpt lat="42.240541294811884" lon="3.0793101912905967"><ele>3.0</ele><time>2026-04-22T09:44:05Z</time></trkpt><trkpt lat="42.24068306674123" lon="3.079237157523387"><ele>3.0</ele><time>2026-04-22T09:44:06Z</time></trkpt><trkpt lat="42.240825607200186" lon="3.079161827790971"><ele>3.0</ele><time>2026-04-22T09:44:07Z</time></trkpt><trkpt lat="42.240969840504754" lon="3.0790866357039124"><ele>3.333333333333333</ele><time>2026-04-22T09:44:08Z</time></trkpt><trkpt lat="42.24111438803353" lon="3.079012706470678"><ele>3.6666666666666665</ele><time>2026-04-22T09:44:09Z</time></trkpt><trkpt lat="42.24126167766499" lon="3.078941263801103"><ele>4.0</ele><time>2026-04-22T09:44:10Z</time></trkpt><trkpt lat="42.24140787894645" lon="3.0788683473953724"><ele>4.0</ele><time>2026-04-22T09:44:11Z</time></trkpt><trkpt lat="42.24155156163338" lon="3.078794019119203"><ele>4.0</ele><time>2026-04-22T09:44:12Z</time></trkpt><trkpt lat="42.24169570348586" lon="3.0787187298529535"><ele>4.0</ele><time>2026-04-22T09:44:13Z</time></trkpt><trkpt lat="42.24183952711603" lon="3.078644761051868"><ele>4.0</ele><time>2026-04-22T09:44:14Z</time></trkpt><trkpt lat="42.241983950871926" lon="3.0785715994661103"><ele>4.0</ele><time>2026-04-22T09:44:15Z</time></trkpt><trkpt lat="42.24212698202413" lon="3.078500185403978"><ele>4.0</ele><time>2026-04-22T09:44:16Z</time></trkpt><trkpt lat="42.24226982239746" lon="3.0784266983845447"><ele>3.6666666666666665</ele><time>2026-04-22T09:44:17Z</time></trkpt><trkpt lat="42.24241618071324" lon="3.0783500987340644"><ele>3.333333333333333</ele><time>2026-04-22T09:44:18Z</time></trkpt><trkpt lat="42.24256431824713" lon="3.078271835024047"><ele>3.0</ele><time>2026-04-22T09:44:19Z</time></trkpt><trkpt lat="42.24271177993477" lon="3.0781909889299848"><ele>3.0</ele><time>2026-04-22T09:44:20Z</time></trkpt><trkpt lat="42.24285936237483" lon="3.0781083512324283"><ele>3.0</ele><time>2026-04-22T09:44:21Z</time></trkpt><trkpt lat="42.24300560061542" lon="3.078025206550362"><ele>3.0</ele><time>2026-04-22T09:44:22Z</time></trkpt><trkpt lat="42.24315033401773" lon="3.0779401588469493"><ele>3.0</ele><time>2026-04-22T09:44:23Z</time></trkpt><trkpt lat="42.24329373577916" lon="3.0778544201631597"><ele>3.0</ele><time>2026-04-22T09:44:24Z</time></trkpt><trkpt lat="42.243434809880334" lon="3.077771295035578"><ele>3.0</ele><time>2026-04-22T09:44:25Z</time></trkpt><trkpt lat="42.243573937341665" lon="3.077686052170749"><ele>3.0</ele><time>2026-04-22T09:44:26Z</time></trkpt><trkpt lat="42.24371320877851" lon="3.0775993004334303"><ele>3.0</ele><time>2026-04-22T09:44:27Z</time></trkpt><trkpt lat="42.243849129449984" lon="3.0775116814127554"><ele>3.0</ele><time>2026-04-22T09:44:28Z</time></trkpt><trkpt lat="42.24398785642416" lon="3.077421053645379"><ele>2.6666666666666665</ele><time>2026-04-22T09:44:29Z</time></trkpt><trkpt lat="42.244125370351924" lon="3.0773271393446398"><ele>2.333333333333333</ele><time>2026-04-22T09:44:30Z</time></trkpt><trkpt lat="42.24426531304863" lon="3.0772329829385514"><ele>2.0</ele><time>2026-04-22T09:44:31Z</time></trkpt><trkpt lat="42.24440618682841" lon="3.07713612531798"><ele>2.0</ele><time>2026-04-22T09:44:32Z</time></trkpt><trkpt lat="42.24454852761153" lon="3.077038680860605"><ele>2.0</ele><time>2026-04-22T09:44:33Z</time></trkpt><trkpt lat="42.244692162300844" lon="3.0769407244141442"><ele>2.0</ele><time>2026-04-22T09:44:34Z</time></trkpt><trkpt lat="42.24483466464021" lon="3.07684443328279"><ele>2.333333333333333</ele><time>2026-04-22T09:44:35Z</time></trkpt><trkpt lat="42.24497447385869" lon="3.0767473064202826"><ele>2.6666666666666665</ele><time>2026-04-22T09:44:36Z</time></trkpt><trkpt lat="42.24511369408098" lon="3.0766504544075017"><ele>3.0</ele><time>2026-04-22T09:44:37Z</time></trkpt><trkpt lat="42.24525233602956" lon="3.0765532156979662"><ele>3.0</ele><time>2026-04-22T09:44:38Z</time></trkpt><trkpt lat="42.2453895768378" lon="3.076452747481651"><ele>3.0</ele><time>2026-04-22T09:44:39Z</time></trkpt><trkpt lat="42.24552495711615" lon="3.0763423797978255"><ele>3.0</ele><time>2026-04-22T09:44:40Z</time></trkpt><trkpt lat="42.245653677310514" lon="3.076220530268666"><ele>3.0</ele><time>2026-04-22T09:44:41Z</time></trkpt><trkpt lat="42.24577772382236" lon="3.076087559412513"><ele>3.0</ele><time>2026-04-22T09:44:42Z</time></trkpt><trkpt lat="42.24589970439092" lon="3.0759469422058996"><ele>3.0</ele><time>2026-04-22T09:44:43Z</time></trkpt><trkpt lat="42.2460223394026" lon="3.075809522907692"><ele>3.666666666666667</ele><time>2026-04-22T09:44:44Z</time></trkpt><trkpt lat="42.24614669002946" lon="3.075676934237602"><ele>4.333333333333334</ele><time>2026-04-22T09:44:45Z</time></trkpt><trkpt lat="42.246276587309765" lon="3.0755551201353892"><ele>5.0</ele><time>2026-04-22T09:44:46Z</time></trkpt><trkpt lat="42.24640981054771" lon="3.0754427848037578"><ele>5.333333333333334</ele><time>2026-04-22T09:44:47Z</time></trkpt><trkpt lat="42.24654860702654" lon="3.0753419324874773"><ele>5.666666666666667</ele><time>2026-04-22T09:44:48Z</time></trkpt><trkpt lat="42.24669195196714" lon="3.0752540436753866"><ele>6.0</ele><time>2026-04-22T09:44:49Z</time></trkpt><trkpt lat="42.24683672223473" lon="3.075179669536638"><ele>6.0</ele><time>2026-04-22T09:44:50Z</time></trkpt><trkpt lat="42.24698304605905" lon="3.0751223597323474"><ele>6.0</ele><time>2026-04-22T09:44:51Z</time></trkpt><trkpt lat="42.24713328772292" lon="3.075080599904477"><ele>6.0</ele><time>2026-04-22T09:44:52Z</time></trkpt><trkpt lat="42.247286729232684" lon="3.0750509879908186"><ele>5.333333333333333</ele><time>2026-04-22T09:44:53Z</time></trkpt><trkpt lat="42.247440614211264" lon="3.075027113845229"><ele>4.666666666666666</ele><time>2026-04-22T09:44:54Z</time></trkpt><trkpt lat="42.24759393750354" lon="3.0750128810764426"><ele>4.0</ele><time>2026-04-22T09:44:55Z</time></trkpt><trkpt lat="42.247750048761006" lon="3.0750108768205435"><ele>4.0</ele><time>2026-04-22T09:44:56Z</time></trkpt><trkpt lat="42.24790500063264" lon="3.0750120146535354"><ele>4.0</ele><time>2026-04-22T09:44:57Z</time></trkpt><trkpt lat="42.24805896034395" lon="3.075020956169259"><ele>4.0</ele><time>2026-04-22T09:44:58Z</time></trkpt><trkpt lat="42.24820739640352" lon="3.075037783846795"><ele>4.0</ele><time>2026-04-22T09:44:59Z</time></trkpt><trkpt lat="42.24835529030021" lon="3.0750601618237283"><ele>4.0</ele><time>2026-04-22T09:45:00Z</time></trkpt><trkpt lat="42.24849995111493" lon="3.0750871367740835"><ele>4.0</ele><time>2026-04-22T09:45:01Z</time></trkpt><trkpt lat="42.24864330776093" lon="3.0751150165565755"><ele>4.0</ele><time>2026-04-22T09:45:02Z</time></trkpt><trkpt lat="42.248787796635135" lon="3.07514444765454"><ele>4.0</ele><time>2026-04-22T09:45:03Z</time></trkpt><trkpt lat="42.2489335620894" lon="3.0751729746416134"><ele>4.0</ele><time>2026-04-22T09:45:04Z</time></trkpt><trkpt lat="42.24908071451521" lon="3.075203575430762"><ele>4.0</ele><time>2026-04-22T09:45:05Z</time></trkpt><trkpt lat="42.24922580496206" lon="3.0752330299621295"><ele>4.0</ele><time>2026-04-22T09:45:06Z</time></trkpt><trkpt lat="42.24936756150242" lon="3.0752596648232378"><ele>4.25</ele><time>2026-04-22T09:45:07Z</time></trkpt><trkpt lat="42.2495022413323" lon="3.075285660340932"><ele>4.5</ele><time>2026-04-22T09:45:08Z</time></trkpt><trkpt lat="42.249633954430884" lon="3.075312248091333"><ele>4.75</ele><time>2026-04-22T09:45:09Z</time></trkpt><trkpt lat="42.24976183127421" lon="3.0753431370827804"><ele>5.0</ele><time>2026-04-22T09:45:10Z</time></trkpt><trkpt lat="42.2498833851848" lon="3.0753751679987484"><ele>5.5</ele><time>2026-04-22T09:45:11Z</time></trkpt><trkpt lat="42.25000302978761" lon="3.075410279480416"><ele>6.0</ele><time>2026-04-22T09:45:12Z</time></trkpt><trkpt lat="42.25011524449284" lon="3.075455533234095"><ele>6.5</ele><time>2026-04-22T09:45:13Z</time></trkpt><trkpt lat="42.25022160311192" lon="3.0754998666379447"><ele>7.0</ele><time>2026-04-22T09:45:14Z</time></trkpt><trkpt lat="42.25031673636243" lon="3.0755470836126437"><ele>7.000000000000001</ele><time>2026-04-22T09:45:15Z</time></trkpt><trkpt lat="42.2504060688655" lon="3.075601114847761"><ele>7.0</ele><time>2026-04-22T09:45:16Z</time></trkpt><trkpt lat="42.2504849555474" lon="3.075655127521356"><ele>7.0</ele><time>2026-04-22T09:45:17Z</time></trkpt><trkpt lat="42.25055593465991" lon="3.0757085353972253"><ele>7.0</ele><time>2026-04-22T09:45:18Z</time></trkpt><trkpt lat="42.250613791588805" lon="3.0757530702220297"><ele>7.000000000000001</ele><time>2026-04-22T09:45:19Z</time></trkpt><trkpt lat="42.25070465943551" lon="3.075824333020889"><ele>7.0</ele><time>2026-04-22T09:45:21Z</time></trkpt><trkpt lat="42.25076637986966" lon="3.075875842490616"><ele>7.000000000000001</ele><time>2026-04-22T09:45:23Z</time></trkpt><trkpt lat="42.25081993630666" lon="3.0759225891276984"><ele>7.0</ele><time>2026-04-22T09:45:27Z</time></trkpt><trkpt lat="42.25088994691672" lon="3.0759933539765965"><ele>7.0</ele><time>2026-04-22T09:45:34Z</time></trkpt><trkpt lat="42.25093873178764" lon="3.0760533971518162"><ele>7.0</ele><time>2026-04-22T09:45:36Z</time></trkpt><trkpt lat="42.250978793542465" lon="3.0761509941452054"><ele>7.000000000000001</ele><time>2026-04-22T09:45:38Z</time></trkpt><trkpt lat="42.25102282557368" lon="3.0763306093129827"><ele>7.0</ele><time>2026-04-22T09:45:40Z</time></trkpt><trkpt lat="42.25107044949981" lon="3.0764222484679937"><ele>7.000000000000001</ele><time>2026-04-22T09:45:41Z</time></trkpt><trkpt lat="42.25112559813603" lon="3.0764965096158114"><ele>7.0</ele><time>2026-04-22T09:45:42Z</time></trkpt><trkpt lat="42.25119371487966" lon="3.0765643919672487"><ele>7.0</ele><time>2026-04-22T09:45:43Z</time></trkpt><trkpt lat="42.25125280084178" lon="3.0766323181067445"><ele>7.0</ele><time>2026-04-22T09:45:44Z</time></trkpt><trkpt lat="42.251306723749394" lon="3.0767276699648503"><ele>7.000000000000001</ele><time>2026-04-22T09:45:45Z</time></trkpt><trkpt lat="42.25134574658403" lon="3.0768408005643257"><ele>7.0</ele><time>2026-04-22T09:45:46Z</time></trkpt><trkpt lat="42.25136523814542" lon="3.076971718041978"><ele>7.0</ele><time>2026-04-22T09:45:47Z</time></trkpt><trkpt lat="42.25136994300437" lon="3.07711278382993"><ele>7.0</ele><time>2026-04-22T09:45:48Z</time></trkpt><trkpt lat="42.251369109859255" lon="3.0772705582168047"><ele>7.0</ele><time>2026-04-22T09:45:49Z</time></trkpt><trkpt lat="42.25137549825651" lon="3.077442238047316"><ele>7.0</ele><time>2026-04-22T09:45:50Z</time></trkpt><trkpt lat="42.25138123896704" lon="3.077628167809154"><ele>7.0</ele><time>2026-04-22T09:45:51Z</time></trkpt><trkpt lat="42.251387291727376" lon="3.077824943656727"><ele>7.0</ele><time>2026-04-22T09:45:52Z</time></trkpt><trkpt lat="42.25139151259304" lon="3.0780201706625516"><ele>7.0</ele><time>2026-04-22T09:45:53Z</time></trkpt><trkpt lat="42.25139682849217" lon="3.0782244608732787"><ele>7.0</ele><time>2026-04-22T09:45:54Z</time></trkpt><trkpt lat="42.251401952576494" lon="3.0784379428465205"><ele>7.0</ele><time>2026-04-22T09:45:55Z</time></trkpt><trkpt lat="42.25140775654847" lon="3.0786585586175153"><ele>7.0</ele><time>2026-04-22T09:45:56Z</time></trkpt><trkpt lat="42.25141312744286" lon="3.078887507845944"><ele>7.0</ele><time>2026-04-22T09:45:57Z</time></trkpt><trkpt lat="42.25141992396025" lon="3.079120877460319"><ele>7.0</ele><time>2026-04-22T09:45:58Z</time></trkpt><trkpt lat="42.25142942422416" lon="3.0793550916839196"><ele>7.0</ele><time>2026-04-22T09:45:59Z</time></trkpt><trkpt lat="42.25144228228304" lon="3.0795923192295453"><ele>7.0</ele><time>2026-04-22T09:46:00Z</time></trkpt><trkpt lat="42.25146320601301" lon="3.0798304183121012"><ele>7.0</ele><time>2026-04-22T09:46:01Z</time></trkpt><trkpt lat="42.25149097124294" lon="3.0800718989986375"><ele>7.0</ele><time>2026-04-22T09:46:02Z</time></trkpt><trkpt lat="42.25152294544435" lon="3.0803169256509917"><ele>7.0</ele><time>2026-04-22T09:46:03Z</time></trkpt><trkpt lat="42.25155966759365" lon="3.0805702589932906"><ele>7.333333333333334</ele><time>2026-04-22T09:46:04Z</time></trkpt><trkpt lat="42.25160484861342" lon="3.0808248148779525"><ele>7.666666666666666</ele><time>2026-04-22T09:46:05Z</time></trkpt><trkpt lat="42.25165844474407" lon="3.081082208890255"><ele>8.0</ele><time>2026-04-22T09:46:06Z</time></trkpt><trkpt lat="42.25172135332045" lon="3.081338262240038"><ele>8.0</ele><time>2026-04-22T09:46:07Z</time></trkpt><trkpt lat="42.25178947047634" lon="3.0815924339728467"><ele>8.0</ele><time>2026-04-22T09:46:08Z</time></trkpt><trkpt lat="42.251863933843396" lon="3.0818402045952604"><ele>8.0</ele><time>2026-04-22T09:46:09Z</time></trkpt><trkpt lat="42.251943177651796" lon="3.0820846074135173"><ele>8.333333333333332</ele><time>2026-04-22T09:46:10Z</time></trkpt><trkpt lat="42.25202214936962" lon="3.0823278874741935"><ele>8.666666666666666</ele><time>2026-04-22T09:46:11Z</time></trkpt><trkpt lat="42.25209940081437" lon="3.0825649439419918"><ele>9.0</ele><time>2026-04-22T09:46:12Z</time></trkpt><trkpt lat="42.25217589133893" lon="3.082802387134196"><ele>8.333333333333334</ele><time>2026-04-22T09:46:13Z</time></trkpt><trkpt lat="42.2522534434294" lon="3.083036333520631"><ele>7.666666666666667</ele><time>2026-04-22T09:46:14Z</time></trkpt><trkpt lat="42.25232516050583" lon="3.083270195251734"><ele>7.0</ele><time>2026-04-22T09:46:15Z</time></trkpt><trkpt lat="42.252397818038034" lon="3.0835009745634294"><ele>7.0</ele><time>2026-04-22T09:46:16Z</time></trkpt><trkpt lat="42.252469111742734" lon="3.0837326824492406"><ele>7.0</ele><time>2026-04-22T09:46:17Z</time></trkpt><trkpt lat="42.25253919308293" lon="3.083963921420535"><ele>7.0</ele><time>2026-04-22T09:46:18Z</time></trkpt><trkpt lat="42.25261351885404" lon="3.0841910619856843"><ele>6.666666666666667</ele><time>2026-04-22T09:46:19Z</time></trkpt><trkpt lat="42.252691023678004" lon="3.084415434348531"><ele>6.333333333333334</ele><time>2026-04-22T09:46:20Z</time></trkpt><trkpt lat="42.252773151559914" lon="3.0846374988912992"><ele>6.0</ele><time>2026-04-22T09:46:21Z</time></trkpt><trkpt lat="42.252868474824304" lon="3.084847835441237"><ele>6.0</ele><time>2026-04-22T09:46:22Z</time></trkpt><trkpt lat="42.25297318622284" lon="3.0850468915840645"><ele>6.0</ele><time>2026-04-22T09:46:23Z</time></trkpt><trkpt lat="42.25308834852235" lon="3.085237219479518"><ele>6.0</ele><time>2026-04-22T09:46:24Z</time></trkpt><trkpt lat="42.25321388844595" lon="3.0854196625511587"><ele>6.0</ele><time>2026-04-22T09:46:25Z</time></trkpt><trkpt lat="42.2533496555714" lon="3.085582292661676"><ele>6.0</ele><time>2026-04-22T09:46:26Z</time></trkpt><trkpt lat="42.25349459273615" lon="3.0857297073759784"><ele>6.0</ele><time>2026-04-22T09:46:27Z</time></trkpt><trkpt lat="42.25364851112682" lon="3.0858644602100997"><ele>6.0</ele><time>2026-04-22T09:46:28Z</time></trkpt><trkpt lat="42.25380408118861" lon="3.0859934046357984"><ele>6.0</ele><time>2026-04-22T09:46:29Z</time></trkpt><trkpt lat="42.253966122450095" lon="3.086111104505072"><ele>6.0</ele><time>2026-04-22T09:46:30Z</time></trkpt><trkpt lat="42.25413073753851" lon="3.0862291882588484"><ele>6.0</ele><time>2026-04-22T09:46:31Z</time></trkpt><trkpt lat="42.2542963175121" lon="3.0863433984788573"><ele>6.0</ele><time>2026-04-22T09:46:32Z</time></trkpt><trkpt lat="42.25446293137463" lon="3.0864569601826743"><ele>6.0</ele><time>2026-04-22T09:46:33Z</time></trkpt><trkpt lat="42.2546374768369" lon="3.086564417954605"><ele>5.333333333333333</ele><time>2026-04-22T09:46:34Z</time></trkpt><trkpt lat="42.25480568245927" lon="3.0866776882552194"><ele>4.666666666666666</ele><time>2026-04-22T09:46:35Z</time></trkpt><trkpt lat="42.25497435284284" lon="3.086794319941087"><ele>4.0</ele><time>2026-04-22T09:46:36Z</time></trkpt><trkpt lat="42.255143876665315" lon="3.086909125426131"><ele>4.0</ele><time>2026-04-22T09:46:37Z</time></trkpt><trkpt lat="42.25531123481639" lon="3.0870246304462152"><ele>4.0</ele><time>2026-04-22T09:46:38Z</time></trkpt><trkpt lat="42.25548060766919" lon="3.087142643980919"><ele>4.0</ele><time>2026-04-22T09:46:39Z</time></trkpt><trkpt lat="42.25565135194555" lon="3.0872620169722556"><ele>5.0</ele><time>2026-04-22T09:46:40Z</time></trkpt><trkpt lat="42.255821906760474" lon="3.0873773626942804"><ele>6.0</ele><time>2026-04-22T09:46:41Z</time></trkpt><trkpt lat="42.25599005417162" lon="3.087490566621129"><ele>7.0</ele><time>2026-04-22T09:46:42Z</time></trkpt><trkpt lat="42.25616016468333" lon="3.0876039061943756"><ele>7.0</ele><time>2026-04-22T09:46:43Z</time></trkpt><trkpt lat="42.25632389318953" lon="3.0877145346738715"><ele>7.0</ele><time>2026-04-22T09:46:44Z</time></trkpt><trkpt lat="42.25648747670223" lon="3.0878232012708238"><ele>7.0</ele><time>2026-04-22T09:46:45Z</time></trkpt><trkpt lat="42.25665084066403" lon="3.087934660537754"><ele>6.666666666666667</ele><time>2026-04-22T09:46:46Z</time></trkpt><trkpt lat="42.25681796822057" lon="3.0880464963285617"><ele>6.333333333333334</ele><time>2026-04-22T09:46:47Z</time></trkpt><trkpt lat="42.25698721505287" lon="3.0881624803807624"><ele>6.0</ele><time>2026-04-22T09:46:48Z</time></trkpt><trkpt lat="42.25715763211108" lon="3.0882749337302773"><ele>6.333333333333334</ele><time>2026-04-22T09:46:49Z</time></trkpt><trkpt lat="42.2573269898681" lon="3.0883884259035916"><ele>6.666666666666667</ele><time>2026-04-22T09:46:50Z</time></trkpt><trkpt lat="42.25749696118541" lon="3.0885047481610566"><ele>7.0</ele><time>2026-04-22T09:46:51Z</time></trkpt><trkpt lat="42.25766172774172" lon="3.0886267340413203"><ele>7.0</ele><time>2026-04-22T09:46:52Z</time></trkpt><trkpt lat="42.257824799633326" lon="3.0887572481538714"><ele>7.0</ele><time>2026-04-22T09:46:53Z</time></trkpt><trkpt lat="42.25798296753712" lon="3.0888944632310094"><ele>7.0</ele><time>2026-04-22T09:46:54Z</time></trkpt><trkpt lat="42.25813706602719" lon="3.0890405236657927"><ele>6.0</ele><time>2026-04-22T09:46:55Z</time></trkpt><trkpt lat="42.258287103080576" lon="3.089192797536188"><ele>5.0</ele><time>2026-04-22T09:46:56Z</time></trkpt><trkpt lat="42.258433407710974" lon="3.089348579499845"><ele>4.0</ele><time>2026-04-22T09:46:57Z</time></trkpt><trkpt lat="42.25857595320727" lon="3.089512172438583"><ele>4.0</ele><time>2026-04-22T09:46:58Z</time></trkpt><trkpt lat="42.25871254064376" lon="3.089683733604137"><ele>4.0</ele><time>2026-04-22T09:46:59Z</time></trkpt><trkpt lat="42.25884165119999" lon="3.0898620731925392"><ele>4.0</ele><time>2026-04-22T09:47:00Z</time></trkpt><trkpt lat="42.25897149833354" lon="3.090045535393571"><ele>4.0</ele><time>2026-04-22T09:47:01Z</time></trkpt><trkpt lat="42.259095647956165" lon="3.0902342686368307"><ele>4.0</ele><time>2026-04-22T09:47:02Z</time></trkpt><trkpt lat="42.25921423594388" lon="3.090428648419"><ele>4.0</ele><time>2026-04-22T09:47:03Z</time></trkpt><trkpt lat="42.259322533576324" lon="3.090625047221838"><ele>4.0</ele><time>2026-04-22T09:47:04Z</time></trkpt><trkpt lat="42.259420453100795" lon="3.0908149316493665"><ele>4.0</ele><time>2026-04-22T09:47:05Z</time></trkpt><trkpt lat="42.259509702287986" lon="3.0909969556956884"><ele>4.0</ele><time>2026-04-22T09:47:06Z</time></trkpt><trkpt lat="42.25959051979394" lon="3.0911768189095143"><ele>4.0</ele><time>2026-04-22T09:47:07Z</time></trkpt><trkpt lat="42.25966586057348" lon="3.091358774125585"><ele>4.0</ele><time>2026-04-22T09:47:08Z</time></trkpt><trkpt lat="42.259738332923604" lon="3.0915462686650623"><ele>4.0</ele><time>2026-04-22T09:47:09Z</time></trkpt><trkpt lat="42.25980393005824" lon="3.0917300791400963"><ele>4.0</ele><time>2026-04-22T09:47:10Z</time></trkpt><trkpt lat="42.25986592854082" lon="3.091913639170888"><ele>4.0</ele><time>2026-04-22T09:47:11Z</time></trkpt><trkpt lat="42.25992368057541" lon="3.0920985899373794"><ele>4.0</ele><time>2026-04-22T09:47:12Z</time></trkpt><trkpt lat="42.25997572020458" lon="3.092279561443023"><ele>4.0</ele><time>2026-04-22T09:47:13Z</time></trkpt><trkpt lat="42.26002322095453" lon="3.09245230677668"><ele>3.75</ele><time>2026-04-22T09:47:14Z</time></trkpt><trkpt lat="42.2600661360224" lon="3.092613360038412"><ele>3.5</ele><time>2026-04-22T09:47:15Z</time></trkpt><trkpt lat="42.26010417568121" lon="3.0927614361619122"><ele>3.25</ele><time>2026-04-22T09:47:16Z</time></trkpt><trkpt lat="42.260143490576695" lon="3.092894505111929"><ele>3.0</ele><time>2026-04-22T09:47:17Z</time></trkpt><trkpt lat="42.260178899283495" lon="3.0930284279759257"><ele>3.0</ele><time>2026-04-22T09:47:18Z</time></trkpt><trkpt lat="42.26021148163369" lon="3.093156050914884"><ele>3.0</ele><time>2026-04-22T09:47:19Z</time></trkpt><trkpt lat="42.26024007518288" lon="3.093272285529858"><ele>3.0</ele><time>2026-04-22T09:47:20Z</time></trkpt><trkpt lat="42.260264465672115" lon="3.0933701569553755"><ele>3.0</ele><time>2026-04-22T09:47:21Z</time></trkpt><trkpt lat="42.26028552392643" lon="3.0935256898426027"><ele>3.0</ele><time>2026-04-22T09:47:23Z</time></trkpt><trkpt lat="42.26027476082417" lon="3.0936375266251774"><ele>3.0</ele><time>2026-04-22T09:47:25Z</time></trkpt><trkpt lat="42.260222415139204" lon="3.09379532777697"><ele>3.0</ele><time>2026-04-22T09:47:27Z</time></trkpt><trkpt lat="42.26020784847415" lon="3.0938865214599915"><ele>3.0</ele><time>2026-04-22T09:47:28Z</time></trkpt><trkpt lat="42.260228512192015" lon="3.094044998620533"><ele>3.0</ele><time>2026-04-22T09:47:30Z</time></trkpt><trkpt lat="42.26032063411612" lon="3.0941698887694624"><ele>3.0</ele><time>2026-04-22T09:47:32Z</time></trkpt><trkpt lat="42.26037583316037" lon="3.0942271126765863"><ele>2.8</ele><time>2026-04-22T09:47:33Z</time></trkpt><trkpt lat="42.260433987676585" lon="3.094292391401781"><ele>2.5999999999999996</ele><time>2026-04-22T09:47:34Z</time></trkpt><trkpt lat="42.260478592451555" lon="3.0943871811485457"><ele>2.4000000000000004</ele><time>2026-04-22T09:47:35Z</time></trkpt><trkpt lat="42.26052812225965" lon="3.0944977588595624"><ele>2.2</ele><time>2026-04-22T09:47:36Z</time></trkpt><trkpt lat="42.26056403606117" lon="3.0946275700722357"><ele>2.0</ele><time>2026-04-22T09:47:37Z</time></trkpt><trkpt lat="42.26059866149401" lon="3.094762570786289"><ele>2.0</ele><time>2026-04-22T09:47:38Z</time></trkpt><trkpt lat="42.260634953986425" lon="3.094908254982415"><ele>2.0</ele><time>2026-04-22T09:47:39Z</time></trkpt><trkpt lat="42.26067516902116" lon="3.0950649756263275"><ele>2.0</ele><time>2026-04-22T09:47:40Z</time></trkpt><trkpt lat="42.26071694558073" lon="3.0952306174200133"><ele>2.0</ele><time>2026-04-22T09:47:41Z</time></trkpt><trkpt lat="42.2607589538204" lon="3.095396710461014"><ele>2.0</ele><time>2026-04-22T09:47:42Z</time></trkpt><trkpt lat="42.260802468040225" lon="3.0955673538810946"><ele>2.0</ele><time>2026-04-22T09:47:43Z</time></trkpt><trkpt lat="42.26084625628217" lon="3.0957471757692696"><ele>2.0</ele><time>2026-04-22T09:47:44Z</time></trkpt><trkpt lat="42.26089031969912" lon="3.09593086651459"><ele>2.0</ele><time>2026-04-22T09:47:45Z</time></trkpt><trkpt lat="42.260936840470364" lon="3.0961188352687277"><ele>2.333333333333333</ele><time>2026-04-22T09:47:46Z</time></trkpt><trkpt lat="42.26098613979398" lon="3.0963122701632306"><ele>2.6666666666666665</ele><time>2026-04-22T09:47:47Z</time></trkpt><trkpt lat="42.26103899512402" lon="3.0965142352196735"><ele>3.0</ele><time>2026-04-22T09:47:48Z</time></trkpt><trkpt lat="42.26109090386703" lon="3.0967149201707143"><ele>3.0</ele><time>2026-04-22T09:47:49Z</time></trkpt><trkpt lat="42.261140945845" lon="3.09691511566491"><ele>3.0</ele><time>2026-04-22T09:47:50Z</time></trkpt><trkpt lat="42.26119276301478" lon="3.0971177656790565"><ele>3.0</ele><time>2026-04-22T09:47:51Z</time></trkpt><trkpt lat="42.26124479761916" lon="3.097318000683052"><ele>2.6666666666666665</ele><time>2026-04-22T09:47:52Z</time></trkpt><trkpt lat="42.26129592099293" lon="3.0975165398855915"><ele>2.333333333333333</ele><time>2026-04-22T09:47:53Z</time></trkpt><trkpt lat="42.26134529130248" lon="3.097713655890656"><ele>2.0</ele><time>2026-04-22T09:47:54Z</time></trkpt><trkpt lat="42.26139447545692" lon="3.0979057366490275"><ele>2.0</ele><time>2026-04-22T09:47:55Z</time></trkpt><trkpt lat="42.26144476578747" lon="3.0980974734308777"><ele>2.0</ele><time>2026-04-22T09:47:56Z</time></trkpt><trkpt lat="42.26149358852397" lon="3.098288785587601"><ele>2.0</ele><time>2026-04-22T09:47:57Z</time></trkpt><trkpt lat="42.261542443659344" lon="3.0984779375417335"><ele>2.0</ele><time>2026-04-22T09:47:58Z</time></trkpt><trkpt lat="42.26159100704401" lon="3.0986646094757124"><ele>2.0</ele><time>2026-04-22T09:47:59Z</time></trkpt><trkpt lat="42.26163894146564" lon="3.0988508638493637"><ele>2.0</ele><time>2026-04-22T09:48:00Z</time></trkpt><trkpt lat="42.26168671388263" lon="3.099036434551113"><ele>2.0</ele><time>2026-04-22T09:48:01Z</time></trkpt><trkpt lat="42.26173339503065" lon="3.099217913210091"><ele>2.0</ele><time>2026-04-22T09:48:02Z</time></trkpt><trkpt lat="42.26178278142867" lon="3.099401220625863"><ele>2.25</ele><time>2026-04-22T09:48:03Z</time></trkpt><trkpt lat="42.26183089813017" lon="3.0995883243393068"><ele>2.5</ele><time>2026-04-22T09:48:04Z</time></trkpt><trkpt lat="42.26187930465193" lon="3.09977641151162"><ele>2.75</ele><time>2026-04-22T09:48:05Z</time></trkpt><trkpt lat="42.26192835335503" lon="3.099967373418286"><ele>3.0</ele><time>2026-04-22T09:48:06Z</time></trkpt><trkpt lat="42.26197861419187" lon="3.100159815782703"><ele>3.333333333333333</ele><time>2026-04-22T09:48:07Z</time></trkpt><trkpt lat="42.26202906929936" lon="3.1003536768897106"><ele>3.6666666666666665</ele><time>2026-04-22T09:48:08Z</time></trkpt><trkpt lat="42.26208062806462" lon="3.1005507688622744"><ele>4.0</ele><time>2026-04-22T09:48:09Z</time></trkpt><trkpt lat="42.262131367013176" lon="3.1007448330201672"><ele>4.0</ele><time>2026-04-22T09:48:10Z</time></trkpt><trkpt lat="42.26217865680945" lon="3.1009350741261503"><ele>4.0</ele><time>2026-04-22T09:48:11Z</time></trkpt><trkpt lat="42.2622268512694" lon="3.101123146670159"><ele>4.0</ele><time>2026-04-22T09:48:12Z</time></trkpt><trkpt lat="42.262275696943" lon="3.1013100895452124"><ele>4.0</ele><time>2026-04-22T09:48:13Z</time></trkpt><trkpt lat="42.262323269761296" lon="3.1014925897428123"><ele>3.5</ele><time>2026-04-22T09:48:14Z</time></trkpt><trkpt lat="42.26236939092204" lon="3.101671746283103"><ele>3.0</ele><time>2026-04-22T09:48:15Z</time></trkpt><trkpt lat="42.262416479286756" lon="3.1018495029726734"><ele>2.5</ele><time>2026-04-22T09:48:16Z</time></trkpt><trkpt lat="42.262463370050924" lon="3.1020247751317243"><ele>2.0</ele><time>2026-04-22T09:48:17Z</time></trkpt><trkpt lat="42.26250680762444" lon="3.10219904890474"><ele>2.0</ele><time>2026-04-22T09:48:18Z</time></trkpt><trkpt lat="42.26255069519278" lon="3.1023706886231994"><ele>2.0</ele><time>2026-04-22T09:48:19Z</time></trkpt><trkpt lat="42.262594655442086" lon="3.1025390576342313"><ele>2.0</ele><time>2026-04-22T09:48:20Z</time></trkpt><trkpt lat="42.26263493074302" lon="3.1026984458812716"><ele>2.0</ele><time>2026-04-22T09:48:21Z</time></trkpt><trkpt lat="42.26267185084334" lon="3.102845161946353"><ele>2.0</ele><time>2026-04-22T09:48:22Z</time></trkpt><trkpt lat="42.26270635249684" lon="3.102988104435679"><ele>2.0</ele><time>2026-04-22T09:48:23Z</time></trkpt><trkpt lat="42.26273287081288" lon="3.1031226064384314"><ele>2.0</ele><time>2026-04-22T09:48:24Z</time></trkpt><trkpt lat="42.262755389847634" lon="3.1032437982385646"><ele>2.0</ele><time>2026-04-22T09:48:25Z</time></trkpt><trkpt lat="42.26275951730735" lon="3.103350787511667"><ele>2.0</ele><time>2026-04-22T09:48:26Z</time></trkpt><trkpt lat="42.26276275408207" lon="3.103439047706513"><ele>1.9999999999999998</ele><time>2026-04-22T09:48:27Z</time></trkpt><trkpt lat="42.26275047548405" lon="3.1035958027373587"><ele>2.0</ele><time>2026-04-22T09:48:29Z</time></trkpt><trkpt lat="42.2627252800062" lon="3.103678434337147"><ele>2.0</ele><time>2026-04-22T09:48:30Z</time></trkpt><trkpt lat="42.26269282570678" lon="3.1037549380033678"><ele>2.0</ele><time>2026-04-22T09:48:31Z</time></trkpt><trkpt lat="42.26267330303881" lon="3.1038486888918118"><ele>1.9999999999999998</ele><time>2026-04-22T09:48:32Z</time></trkpt><trkpt lat="42.26268499058209" lon="3.1039405002569"><ele>2.0</ele><time>2026-04-22T09:48:33Z</time></trkpt><trkpt lat="42.26272150689152" lon="3.1040191996444"><ele>1.9999999999999998</ele><time>2026-04-22T09:48:34Z</time></trkpt><trkpt lat="42.26278160954394" lon="3.1040767591679628"><ele>2.0</ele><time>2026-04-22T09:48:35Z</time></trkpt><trkpt lat="42.26284914240351" lon="3.104124261952437"><ele>2.0</ele><time>2026-04-22T09:48:36Z</time></trkpt><trkpt lat="42.26291419238406" lon="3.104205603267556"><ele>2.0</ele><time>2026-04-22T09:48:37Z</time></trkpt><trkpt lat="42.262975197132455" lon="3.1043046741339335"><ele>1.9999999999999998</ele><time>2026-04-22T09:48:38Z</time></trkpt><trkpt lat="42.263030585736075" lon="3.104424508864074"><ele>2.0</ele><time>2026-04-22T09:48:39Z</time></trkpt><trkpt lat="42.263077894171325" lon="3.104568496024108"><ele>2.5</ele><time>2026-04-22T09:48:40Z</time></trkpt><trkpt lat="42.263120875149355" lon="3.1047208595197584"><ele>3.0</ele><time>2026-04-22T09:48:41Z</time></trkpt><trkpt lat="42.263163305147565" lon="3.1048820196530746"><ele>3.5</ele><time>2026-04-22T09:48:42Z</time></trkpt><trkpt lat="42.263207483297755" lon="3.1050525147847563"><ele>4.0</ele><time>2026-04-22T09:48:43Z</time></trkpt><trkpt lat="42.26324960272268" lon="3.105222876484611"><ele>4.0</ele><time>2026-04-22T09:48:44Z</time></trkpt><trkpt lat="42.263295018489394" lon="3.1053978681341454"><ele>4.0</ele><time>2026-04-22T09:48:45Z</time></trkpt><trkpt lat="42.26334210051215" lon="3.105576012075228"><ele>4.0</ele><time>2026-04-22T09:48:46Z</time></trkpt><trkpt lat="42.26338972323036" lon="3.1057572813793834"><ele>4.0</ele><time>2026-04-22T09:48:47Z</time></trkpt><trkpt lat="42.263439086123924" lon="3.105942048858732"><ele>3.75</ele><time>2026-04-22T09:48:48Z</time></trkpt><trkpt lat="42.26348453546591" lon="3.1061285075792577"><ele>3.5</ele><time>2026-04-22T09:48:49Z</time></trkpt><trkpt lat="42.26353305194548" lon="3.1063170001833207"><ele>3.25</ele><time>2026-04-22T09:48:50Z</time></trkpt><trkpt lat="42.263583454587625" lon="3.1065107847210793"><ele>3.0</ele><time>2026-04-22T09:48:51Z</time></trkpt><trkpt lat="42.263632952091115" lon="3.1067038538303833"><ele>2.3333333333333335</ele><time>2026-04-22T09:48:52Z</time></trkpt><trkpt lat="42.26368506823766" lon="3.106901664534697"><ele>1.6666666666666665</ele><time>2026-04-22T09:48:53Z</time></trkpt><trkpt lat="42.26373533786215" lon="3.107097724707451"><ele>1.0</ele><time>2026-04-22T09:48:54Z</time></trkpt><trkpt lat="42.26378601495439" lon="3.107296690578334"><ele>1.6666666666666665</ele><time>2026-04-22T09:48:55Z</time></trkpt><trkpt lat="42.263838975983646" lon="3.107497371849818"><ele>2.3333333333333335</ele><time>2026-04-22T09:48:56Z</time></trkpt><trkpt lat="42.26389150589808" lon="3.1076990279041072"><ele>3.0</ele><time>2026-04-22T09:48:57Z</time></trkpt><trkpt lat="42.26394454290529" lon="3.1079012303540767"><ele>2.3333333333333335</ele><time>2026-04-22T09:48:58Z</time></trkpt><trkpt lat="42.26399940288176" lon="3.1081051154428168"><ele>1.6666666666666665</ele><time>2026-04-22T09:48:59Z</time></trkpt><trkpt lat="42.264055611438465" lon="3.1083085073822994"><ele>1.0</ele><time>2026-04-22T09:49:00Z</time></trkpt><trkpt lat="42.26411212260144" lon="3.108511721126685"><ele>1.0</ele><time>2026-04-22T09:49:01Z</time></trkpt><trkpt lat="42.26417007696399" lon="3.1087134836555577"><ele>1.0</ele><time>2026-04-22T09:49:02Z</time></trkpt><trkpt lat="42.264225717849875" lon="3.1089147515835838"><ele>1.0</ele><time>2026-04-22T09:49:03Z</time></trkpt><trkpt lat="42.264282163692904" lon="3.1091134758221526"><ele>1.3333333333333333</ele><time>2026-04-22T09:49:04Z</time></trkpt><trkpt lat="42.26433604603187" lon="3.1093122227000882"><ele>1.6666666666666665</ele><time>2026-04-22T09:49:05Z</time></trkpt><trkpt lat="42.26439009984601" lon="3.109505343756825"><ele>2.0</ele><time>2026-04-22T09:49:06Z</time></trkpt><trkpt lat="42.26444205561157" lon="3.1096893994559984"><ele>2.0</ele><time>2026-04-22T09:49:07Z</time></trkpt><trkpt lat="42.26449133815212" lon="3.1098675718569075"><ele>2.0</ele><time>2026-04-22T09:49:08Z</time></trkpt><trkpt lat="42.264537376267306" lon="3.110034475623848"><ele>2.0</ele><time>2026-04-22T09:49:09Z</time></trkpt><trkpt lat="42.264578959573285" lon="3.1101813200632287"><ele>2.0</ele><time>2026-04-22T09:49:10Z</time></trkpt><trkpt lat="42.26461516898927" lon="3.110312264751353"><ele>1.9999999999999998</ele><time>2026-04-22T09:49:11Z</time></trkpt><trkpt lat="42.26464790814527" lon="3.1104295169390337"><ele>2.0</ele><time>2026-04-22T09:49:12Z</time></trkpt><trkpt lat="42.264676184611275" lon="3.1105382080642254"><ele>2.0</ele><time>2026-04-22T09:49:13Z</time></trkpt><trkpt lat="42.26469102909523" lon="3.1106501774250557"><ele>2.0</ele><time>2026-04-22T09:49:14Z</time></trkpt><trkpt lat="42.264683263845846" lon="3.110762199325325"><ele>1.9999999999999998</ele><time>2026-04-22T09:49:15Z</time></trkpt><trkpt lat="42.26465720909972" lon="3.1108787931908903"><ele>2.0</ele><time>2026-04-22T09:49:16Z</time></trkpt><trkpt lat="42.26464082335766" lon="3.110996658589479"><ele>2.0</ele><time>2026-04-22T09:49:17Z</time></trkpt><trkpt lat="42.26465392839234" lon="3.1111071680955162"><ele>2.0</ele><time>2026-04-22T09:49:18Z</time></trkpt><trkpt lat="42.264692308113055" lon="3.1112115166642638"><ele>2.0</ele><time>2026-04-22T09:49:19Z</time></trkpt><trkpt lat="42.26475040670034" lon="3.1113037553114107"><ele>2.0</ele><time>2026-04-22T09:49:20Z</time></trkpt><trkpt lat="42.26481241729171" lon="3.111402438204958"><ele>2.0</ele><time>2026-04-22T09:49:21Z</time></trkpt><trkpt lat="42.26486579007808" lon="3.111517113408686"><ele>1.8</ele><time>2026-04-22T09:49:22Z</time></trkpt><trkpt lat="42.26490909246604" lon="3.1116508789562807"><ele>1.6</ele><time>2026-04-22T09:49:23Z</time></trkpt><trkpt lat="42.264937066850216" lon="3.111792616695137"><ele>1.4000000000000001</ele><time>2026-04-22T09:49:24Z</time></trkpt><trkpt lat="42.26494607279907" lon="3.1119436114967707"><ele>1.2000000000000002</ele><time>2026-04-22T09:49:25Z</time></trkpt><trkpt lat="42.264948591853866" lon="3.1121016272212447"><ele>1.0</ele><time>2026-04-22T09:49:26Z</time></trkpt><trkpt lat="42.26494986258529" lon="3.1122669068398627"><ele>1.0</ele><time>2026-04-22T09:49:27Z</time></trkpt><trkpt lat="42.264954333184654" lon="3.112440495676763"><ele>1.0</ele><time>2026-04-22T09:49:28Z</time></trkpt><trkpt lat="42.26496007861263" lon="3.1126147169425997"><ele>1.0</ele><time>2026-04-22T09:49:29Z</time></trkpt><trkpt lat="42.26496340976287" lon="3.112797659794453"><ele>1.0</ele><time>2026-04-22T09:49:30Z</time></trkpt><trkpt lat="42.26496862672619" lon="3.112987762970879"><ele>1.0</ele><time>2026-04-22T09:49:31Z</time></trkpt><trkpt lat="42.264973001789144" lon="3.1131831170266118"><ele>1.0</ele><time>2026-04-22T09:49:32Z</time></trkpt><trkpt lat="42.26497979205755" lon="3.113384592435498"><ele>1.0</ele><time>2026-04-22T09:49:33Z</time></trkpt><trkpt lat="42.264986206516966" lon="3.1135874335067037"><ele>1.0</ele><time>2026-04-22T09:49:34Z</time></trkpt><trkpt lat="42.26498608633639" lon="3.1138043736926626"><ele>1.0</ele><time>2026-04-22T09:49:35Z</time></trkpt><trkpt lat="42.2649873382993" lon="3.114027432569586"><ele>1.0</ele><time>2026-04-22T09:49:36Z</time></trkpt><trkpt lat="42.26499749876547" lon="3.1142509808126797"><ele>1.0</ele><time>2026-04-22T09:49:37Z</time></trkpt><trkpt lat="42.26500312286443" lon="3.114479382248257"><ele>1.0</ele><time>2026-04-22T09:49:38Z</time></trkpt><trkpt lat="42.26500781761695" lon="3.1147144431299023"><ele>1.0</ele><time>2026-04-22T09:49:39Z</time></trkpt><trkpt lat="42.265014538960514" lon="3.114956118676724"><ele>1.0</ele><time>2026-04-22T09:49:40Z</time></trkpt><trkpt lat="42.26502062705888" lon="3.1151923736729"><ele>1.0</ele><time>2026-04-22T09:49:41Z</time></trkpt><trkpt lat="42.26502750597409" lon="3.115426026394421"><ele>1.0</ele><time>2026-04-22T09:49:42Z</time></trkpt><trkpt lat="42.26503170929802" lon="3.115664452860405"><ele>1.0</ele><time>2026-04-22T09:49:43Z</time></trkpt><trkpt lat="42.265036158069236" lon="3.1159095551709286"><ele>1.6666666666666665</ele><time>2026-04-22T09:49:44Z</time></trkpt><trkpt lat="42.26504220901837" lon="3.116154216473187"><ele>2.3333333333333335</ele><time>2026-04-22T09:49:45Z</time></trkpt><trkpt lat="42.26504517647915" lon="3.1164004047491045"><ele>3.0</ele><time>2026-04-22T09:49:46Z</time></trkpt><trkpt lat="42.26505156838597" lon="3.116647624723307"><ele>3.0</ele><time>2026-04-22T09:49:47Z</time></trkpt><trkpt lat="42.265056994221354" lon="3.1168954640858515"><ele>3.0</ele><time>2026-04-22T09:49:48Z</time></trkpt><trkpt lat="42.26506105259507" lon="3.117146850675792"><ele>3.0</ele><time>2026-04-22T09:49:49Z</time></trkpt><trkpt lat="42.26506853298441" lon="3.1173956318424914"><ele>2.6666666666666665</ele><time>2026-04-22T09:49:50Z</time></trkpt><trkpt lat="42.26507296511867" lon="3.1176470152652405"><ele>2.333333333333333</ele><time>2026-04-22T09:49:51Z</time></trkpt><trkpt lat="42.2650761352903" lon="3.1178977230962177"><ele>2.0</ele><time>2026-04-22T09:49:52Z</time></trkpt><trkpt lat="42.265082899915086" lon="3.1181520466909967"><ele>1.6666666666666665</ele><time>2026-04-22T09:49:53Z</time></trkpt><trkpt lat="42.26508877998551" lon="3.1184071898491377"><ele>1.3333333333333333</ele><time>2026-04-22T09:49:54Z</time></trkpt><trkpt lat="42.26509436672651" lon="3.1186646360515335"><ele>1.0</ele><time>2026-04-22T09:49:55Z</time></trkpt><trkpt lat="42.26510117139309" lon="3.1189221904082824"><ele>0.6666666666666666</ele><time>2026-04-22T09:49:56Z</time></trkpt><trkpt lat="42.265105692844536" lon="3.119179247416959"><ele>0.3333333333333333</ele><time>2026-04-22T09:49:57Z</time></trkpt><trkpt lat="42.26510956722315" lon="3.119439266890942"><ele>0.0</ele><time>2026-04-22T09:49:58Z</time></trkpt><trkpt lat="42.26511277059181" lon="3.1196947244640634"><ele>0.0</ele><time>2026-04-22T09:49:59Z</time></trkpt><trkpt lat="42.26511783769162" lon="3.119949903019761"><ele>0.0</ele><time>2026-04-22T09:50:00Z</time></trkpt><trkpt lat="42.26512970284435" lon="3.120204395525371"><ele>0.0</ele><time>2026-04-22T09:50:01Z</time></trkpt><trkpt lat="42.26515491467025" lon="3.1204591424200148"><ele>0.0</ele><time>2026-04-22T09:50:02Z</time></trkpt><trkpt lat="42.26519704714982" lon="3.1207103080714442"><ele>0.0</ele><time>2026-04-22T09:50:03Z</time></trkpt><trkpt lat="42.26525605607661" lon="3.1209555119071846"><ele>0.0</ele><time>2026-04-22T09:50:04Z</time></trkpt><trkpt lat="42.265328471207326" lon="3.1211949718358545"><ele>0.0</ele><time>2026-04-22T09:50:05Z</time></trkpt><trkpt lat="42.26540775022874" lon="3.1214271228392287"><ele>0.0</ele><time>2026-04-22T09:50:06Z</time></trkpt><trkpt lat="42.26549365120322" lon="3.1216585182864423"><ele>0.0</ele><time>2026-04-22T09:50:07Z</time></trkpt><trkpt lat="42.26557939599927" lon="3.12189263686824"><ele>-0.3333333333333333</ele><time>2026-04-22T09:50:08Z</time></trkpt><trkpt lat="42.26566050036298" lon="3.1221284249262373"><ele>-0.6666666666666666</ele><time>2026-04-22T09:50:09Z</time></trkpt><trkpt lat="42.26574842673093" lon="3.1223608182064684"><ele>-1.0</ele><time>2026-04-22T09:50:10Z</time></trkpt><trkpt lat="42.265832732927414" lon="3.12259442749986"><ele>-1.0</ele><time>2026-04-22T09:50:11Z</time></trkpt><trkpt lat="42.26591733691416" lon="3.1228275899531055"><ele>-1.0</ele><time>2026-04-22T09:50:12Z</time></trkpt><trkpt lat="42.26599963266169" lon="3.1230590933639473"><ele>-1.0</ele><time>2026-04-22T09:50:13Z</time></trkpt><trkpt lat="42.26608428551186" lon="3.1232952222486685"><ele>-0.6666666666666666</ele><time>2026-04-22T09:50:14Z</time></trkpt><trkpt lat="42.266167231527035" lon="3.123530046221971"><ele>-0.3333333333333333</ele><time>2026-04-22T09:50:15Z</time></trkpt><trkpt lat="42.26624815252906" lon="3.1237651862600013"><ele>0.0</ele><time>2026-04-22T09:50:16Z</time></trkpt><trkpt lat="42.26633116284052" lon="3.12399721405375"><ele>0.0</ele><time>2026-04-22T09:50:17Z</time></trkpt><trkpt lat="42.26641650285429" lon="3.1242300625975203"><ele>0.0</ele><time>2026-04-22T09:50:18Z</time></trkpt><trkpt lat="42.2665001092754" lon="3.1244676434046528"><ele>0.0</ele><time>2026-04-22T09:50:19Z</time></trkpt><trkpt lat="42.26658328083915" lon="3.124702647223957"><ele>0.0</ele><time>2026-04-22T09:50:20Z</time></trkpt><trkpt lat="42.26666663384531" lon="3.1249348633080607"><ele>0.0</ele><time>2026-04-22T09:50:21Z</time></trkpt><trkpt lat="42.26674833670809" lon="3.1251676531560393"><ele>0.0</ele><time>2026-04-22T09:50:22Z</time></trkpt><trkpt lat="42.266831167543" lon="3.1253954282028023"><ele>0.0</ele><time>2026-04-22T09:50:23Z</time></trkpt><trkpt lat="42.26691240194226" lon="3.125626193520234"><ele>0.0</ele><time>2026-04-22T09:50:24Z</time></trkpt><trkpt lat="42.266991934410036" lon="3.1258554508257275"><ele>0.0</ele><time>2026-04-22T09:50:25Z</time></trkpt><trkpt lat="42.26707033250228" lon="3.1260786739023065"><ele>0.0</ele><time>2026-04-22T09:50:26Z</time></trkpt><trkpt lat="42.26715084834113" lon="3.126297899612066"><ele>0.0</ele><time>2026-04-22T09:50:27Z</time></trkpt><trkpt lat="42.267241287527085" lon="3.1265095451822633"><ele>0.0</ele><time>2026-04-22T09:50:28Z</time></trkpt><trkpt lat="42.26734114200904" lon="3.1267148107329583"><ele>0.0</ele><time>2026-04-22T09:50:29Z</time></trkpt><trkpt lat="42.26744865188282" lon="3.1269108700088637"><ele>0.0</ele><time>2026-04-22T09:50:30Z</time></trkpt><trkpt lat="42.26756493379212" lon="3.1271022157754174"><ele>0.0</ele><time>2026-04-22T09:50:31Z</time></trkpt><trkpt lat="42.26768688538794" lon="3.1272893063148546"><ele>0.6666666666666666</ele><time>2026-04-22T09:50:32Z</time></trkpt><trkpt lat="42.26781039508667" lon="3.1274787604959875"><ele>1.3333333333333333</ele><time>2026-04-22T09:50:33Z</time></trkpt><trkpt lat="42.26793416567762" lon="3.1276667204015265"><ele>2.0</ele><time>2026-04-22T09:50:34Z</time></trkpt><trkpt lat="42.26805829958009" lon="3.1278560506657"><ele>1.6666666666666665</ele><time>2026-04-22T09:50:35Z</time></trkpt><trkpt lat="42.268181911907774" lon="3.1280401439920036"><ele>1.3333333333333333</ele><time>2026-04-22T09:50:36Z</time></trkpt><trkpt lat="42.26830581940909" lon="3.1282293546043594"><ele>1.0</ele><time>2026-04-22T09:50:37Z</time></trkpt><trkpt lat="42.26842848772625" lon="3.128417411534638"><ele>1.0</ele><time>2026-04-22T09:50:38Z</time></trkpt><trkpt lat="42.26855249380008" lon="3.1286026688846995"><ele>1.0</ele><time>2026-04-22T09:50:39Z</time></trkpt><trkpt lat="42.26867350852114" lon="3.1287873696898068"><ele>1.0</ele><time>2026-04-22T09:50:40Z</time></trkpt><trkpt lat="42.2687954651012" lon="3.1289714368328645"><ele>1.0</ele><time>2026-04-22T09:50:41Z</time></trkpt><trkpt lat="42.26891636270778" lon="3.129157906843853"><ele>1.0</ele><time>2026-04-22T09:50:42Z</time></trkpt><trkpt lat="42.26903828329619" lon="3.1293429359712057"><ele>1.0</ele><time>2026-04-22T09:50:43Z</time></trkpt><trkpt lat="42.26916039113786" lon="3.1295266118103457"><ele>1.0</ele><time>2026-04-22T09:50:44Z</time></trkpt><trkpt lat="42.26927957767416" lon="3.129709557734566"><ele>1.0</ele><time>2026-04-22T09:50:45Z</time></trkpt><trkpt lat="42.26940109793759" lon="3.129891485790099"><ele>1.0</ele><time>2026-04-22T09:50:46Z</time></trkpt><trkpt lat="42.26951865910242" lon="3.130072943529138"><ele>1.0</ele><time>2026-04-22T09:50:47Z</time></trkpt><trkpt lat="42.26963834100917" lon="3.130252356151023"><ele>1.0</ele><time>2026-04-22T09:50:48Z</time></trkpt><trkpt lat="42.269757782389505" lon="3.1304280882464512"><ele>1.0</ele><time>2026-04-22T09:50:49Z</time></trkpt><trkpt lat="42.26987482917985" lon="3.130605555845869"><ele>1.0</ele><time>2026-04-22T09:50:50Z</time></trkpt><trkpt lat="42.26999079886166" lon="3.1307837723054335"><ele>1.0</ele><time>2026-04-22T09:50:51Z</time></trkpt><trkpt lat="42.27010427917396" lon="3.1309586033154684"><ele>1.0</ele><time>2026-04-22T09:50:52Z</time></trkpt><trkpt lat="42.27021560076688" lon="3.1311305837893424"><ele>1.0</ele><time>2026-04-22T09:50:53Z</time></trkpt><trkpt lat="42.27032633748375" lon="3.131300849628789"><ele>1.0</ele><time>2026-04-22T09:50:54Z</time></trkpt><trkpt lat="42.270437742095204" lon="3.1314717094211972"><ele>1.0</ele><time>2026-04-22T09:50:55Z</time></trkpt><trkpt lat="42.27054736343512" lon="3.131638757393418"><ele>1.6666666666666665</ele><time>2026-04-22T09:50:56Z</time></trkpt><trkpt lat="42.27065795830345" lon="3.131804040430894"><ele>2.3333333333333335</ele><time>2026-04-22T09:50:57Z</time></trkpt><trkpt lat="42.2707643941203" lon="3.1319686969278564"><ele>3.0</ele><time>2026-04-22T09:50:58Z</time></trkpt><trkpt lat="42.27086941242952" lon="3.132128476423246"><ele>3.0</ele><time>2026-04-22T09:50:59Z</time></trkpt><trkpt lat="42.270969593467306" lon="3.132281793703952"><ele>3.0</ele><time>2026-04-22T09:51:00Z</time></trkpt><trkpt lat="42.2710680921199" lon="3.1324308220356927"><ele>3.0</ele><time>2026-04-22T09:51:01Z</time></trkpt><trkpt lat="42.27115900653448" lon="3.1325743411480618"><ele>3.0</ele><time>2026-04-22T09:51:02Z</time></trkpt><trkpt lat="42.271248900827594" lon="3.1327124467947542"><ele>3.0</ele><time>2026-04-22T09:51:03Z</time></trkpt><trkpt lat="42.27133764734064" lon="3.1328494153960165"><ele>3.0</ele><time>2026-04-22T09:51:04Z</time></trkpt><trkpt lat="42.271427164795234" lon="3.1329850928846503"><ele>3.0</ele><time>2026-04-22T09:51:05Z</time></trkpt><trkpt lat="42.27151397726649" lon="3.133123128858144"><ele>3.0</ele><time>2026-04-22T09:51:06Z</time></trkpt><trkpt lat="42.271604327722095" lon="3.133261206479058"><ele>3.0</ele><time>2026-04-22T09:51:07Z</time></trkpt><trkpt lat="42.271691469696385" lon="3.1333964196088657"><ele>3.0</ele><time>2026-04-22T09:51:08Z</time></trkpt><trkpt lat="42.27177299614875" lon="3.133525719495196"><ele>3.0</ele><time>2026-04-22T09:51:09Z</time></trkpt><trkpt lat="42.27185252324294" lon="3.133653562862614"><ele>3.0</ele><time>2026-04-22T09:51:10Z</time></trkpt><trkpt lat="42.27192753293445" lon="3.1337801483790044"><ele>3.0</ele><time>2026-04-22T09:51:11Z</time></trkpt><trkpt lat="42.27199483310293" lon="3.1339113334919593"><ele>3.0</ele><time>2026-04-22T09:51:12Z</time></trkpt><trkpt lat="42.2720557357059" lon="3.134069788281333"><ele>3.0</ele><time>2026-04-22T09:51:13Z</time></trkpt><trkpt lat="42.27210479307485" lon="3.134195316433331"><ele>3.0</ele><time>2026-04-22T09:51:14Z</time></trkpt><trkpt lat="42.27214411371458" lon="3.134320724041949"><ele>2.6</ele><time>2026-04-22T09:51:15Z</time></trkpt><trkpt lat="42.272163087080486" lon="3.134445555523013"><ele>2.1999999999999997</ele><time>2026-04-22T09:51:16Z</time></trkpt><trkpt lat="42.272163428329726" lon="3.1345720505559482"><ele>1.8</ele><time>2026-04-22T09:51:17Z</time></trkpt><trkpt lat="42.272136483442125" lon="3.1346903101968793"><ele>1.4</ele><time>2026-04-22T09:51:18Z</time></trkpt><trkpt lat="42.272105742533604" lon="3.1348079581740613"><ele>1.0</ele><time>2026-04-22T09:51:19Z</time></trkpt><trkpt lat="42.27209950307042" lon="3.1349338305659815"><ele>0.9999999999999999</ele><time>2026-04-22T09:51:20Z</time></trkpt><trkpt lat="42.27212275713818" lon="3.1350518184143112"><ele>1.0</ele><time>2026-04-22T09:51:21Z</time></trkpt><trkpt lat="42.27215364293281" lon="3.1351750994483383"><ele>1.0</ele><time>2026-04-22T09:51:22Z</time></trkpt><trkpt lat="42.27219802184574" lon="3.1352731643150573"><ele>1.0</ele><time>2026-04-22T09:51:23Z</time></trkpt><trkpt lat="42.27222518869628" lon="3.135377933078168"><ele>0.9999999999999999</ele><time>2026-04-22T09:51:24Z</time></trkpt><trkpt lat="42.272237073678426" lon="3.1354894219566347"><ele>1.0</ele><time>2026-04-22T09:51:25Z</time></trkpt><trkpt lat="42.27223777909898" lon="3.1356073471847146"><ele>1.4</ele><time>2026-04-22T09:51:26Z</time></trkpt><trkpt lat="42.27222943824162" lon="3.135739293415117"><ele>1.8</ele><time>2026-04-22T09:51:27Z</time></trkpt><trkpt lat="42.27221490933848" lon="3.1358663782188"><ele>2.1999999999999997</ele><time>2026-04-22T09:51:28Z</time></trkpt><trkpt lat="42.27218961026223" lon="3.1360053333378874"><ele>2.6</ele><time>2026-04-22T09:51:29Z</time></trkpt><trkpt lat="42.272162884578684" lon="3.136145674976511"><ele>3.0</ele><time>2026-04-22T09:51:30Z</time></trkpt><trkpt lat="42.27213059114344" lon="3.136290849907858"><ele>3.0</ele><time>2026-04-22T09:51:31Z</time></trkpt><trkpt lat="42.27209859089549" lon="3.136449651217392"><ele>3.0</ele><time>2026-04-22T09:51:32Z</time></trkpt><trkpt lat="42.27206557921951" lon="3.136605968228821"><ele>3.0</ele><time>2026-04-22T09:51:33Z</time></trkpt><trkpt lat="42.27203232160723" lon="3.1367709100126784"><ele>3.0</ele><time>2026-04-22T09:51:34Z</time></trkpt><trkpt lat="42.272002779243884" lon="3.136933855568792"><ele>3.0</ele><time>2026-04-22T09:51:35Z</time></trkpt><trkpt lat="42.271976994459365" lon="3.1371028834773673"><ele>3.0</ele><time>2026-04-22T09:51:36Z</time></trkpt><trkpt lat="42.27195316514337" lon="3.137274376396262"><ele>3.0</ele><time>2026-04-22T09:51:37Z</time></trkpt><trkpt lat="42.27192970853391" lon="3.1374511021791256"><ele>3.0</ele><time>2026-04-22T09:51:38Z</time></trkpt><trkpt lat="42.27191146532538" lon="3.1376342129095103"><ele>3.0</ele><time>2026-04-22T09:51:39Z</time></trkpt><trkpt lat="42.27189619448718" lon="3.137810670619372"><ele>3.0</ele><time>2026-04-22T09:51:40Z</time></trkpt><trkpt lat="42.27188363592694" lon="3.1379974468023484"><ele>3.0</ele><time>2026-04-22T09:51:41Z</time></trkpt><trkpt lat="42.27187277908442" lon="3.138184038580296"><ele>3.0</ele><time>2026-04-22T09:51:42Z</time></trkpt><trkpt lat="42.271862444613085" lon="3.138373353089506"><ele>2.75</ele><time>2026-04-22T09:51:43Z</time></trkpt><trkpt lat="42.27185067741144" lon="3.1385639670687704"><ele>2.5</ele><time>2026-04-22T09:51:44Z</time></trkpt><trkpt lat="42.27183996293522" lon="3.138753368602902"><ele>2.25</ele><time>2026-04-22T09:51:45Z</time></trkpt><trkpt lat="42.27182993028617" lon="3.1389430203365007"><ele>2.0</ele><time>2026-04-22T09:51:46Z</time></trkpt><trkpt lat="42.271825643502595" lon="3.1391336168084383"><ele>2.0</ele><time>2026-04-22T09:51:47Z</time></trkpt><trkpt lat="42.27182025262983" lon="3.1393259856130453"><ele>2.0</ele><time>2026-04-22T09:51:48Z</time></trkpt><trkpt lat="42.27181006929628" lon="3.139523075012778"><ele>2.0</ele><time>2026-04-22T09:51:49Z</time></trkpt><trkpt lat="42.27180101163922" lon="3.1397240010859107"><ele>2.0</ele><time>2026-04-22T09:51:50Z</time></trkpt><trkpt lat="42.2717937658991" lon="3.1399254558138967"><ele>2.333333333333333</ele><time>2026-04-22T09:51:51Z</time></trkpt><trkpt lat="42.271784794998794" lon="3.1401267230364787"><ele>2.6666666666666665</ele><time>2026-04-22T09:51:52Z</time></trkpt><trkpt lat="42.27177441206028" lon="3.1403304458101555"><ele>3.0</ele><time>2026-04-22T09:51:53Z</time></trkpt><trkpt lat="42.27176346304109" lon="3.1405376031416856"><ele>2.6666666666666665</ele><time>2026-04-22T09:51:54Z</time></trkpt><trkpt lat="42.271753910416045" lon="3.1407417227340124"><ele>2.333333333333333</ele><time>2026-04-22T09:51:55Z</time></trkpt><trkpt lat="42.27174394020278" lon="3.140948258549153"><ele>2.0</ele><time>2026-04-22T09:51:56Z</time></trkpt><trkpt lat="42.27173232060623" lon="3.1411538465120645"><ele>2.0</ele><time>2026-04-22T09:51:57Z</time></trkpt><trkpt lat="42.27172286876474" lon="3.1413631343184414"><ele>2.0</ele><time>2026-04-22T09:51:58Z</time></trkpt><trkpt lat="42.27171292678893" lon="3.141575120150976"><ele>2.0</ele><time>2026-04-22T09:51:59Z</time></trkpt><trkpt lat="42.27170160861835" lon="3.141791056227039"><ele>2.0</ele><time>2026-04-22T09:52:00Z</time></trkpt><trkpt lat="42.27169255714858" lon="3.142001453286686"><ele>2.0</ele><time>2026-04-22T09:52:01Z</time></trkpt><trkpt lat="42.27168358980005" lon="3.1422102613172607"><ele>2.0</ele><time>2026-04-22T09:52:02Z</time></trkpt><trkpt lat="42.27167569992593" lon="3.1424187466412317"><ele>1.3333333333333333</ele><time>2026-04-22T09:52:03Z</time></trkpt><trkpt lat="42.271669167428435" lon="3.1426281706113257"><ele>0.6666666666666666</ele><time>2026-04-22T09:52:04Z</time></trkpt><trkpt lat="42.27166123428986" lon="3.1428400081184993"><ele>0.0</ele><time>2026-04-22T09:52:05Z</time></trkpt><trkpt lat="42.27165241463861" lon="3.1430494474991297"><ele>0.6666666666666666</ele><time>2026-04-22T09:52:06Z</time></trkpt><trkpt lat="42.27164164853918" lon="3.1432557511377035"><ele>1.3333333333333333</ele><time>2026-04-22T09:52:07Z</time></trkpt><trkpt lat="42.27163017961946" lon="3.1434613215585645"><ele>2.0</ele><time>2026-04-22T09:52:08Z</time></trkpt><trkpt lat="42.27162009958656" lon="3.143664786007553"><ele>2.0</ele><time>2026-04-22T09:52:09Z</time></trkpt><trkpt lat="42.27160664854057" lon="3.143868225065246"><ele>2.0</ele><time>2026-04-22T09:52:10Z</time></trkpt><trkpt lat="42.27159519143392" lon="3.1440711229026013"><ele>2.0</ele><time>2026-04-22T09:52:11Z</time></trkpt><trkpt lat="42.2715883744335" lon="3.1442718457186176"><ele>3.0</ele><time>2026-04-22T09:52:12Z</time></trkpt><trkpt lat="42.2715805222669" lon="3.1444730220185533"><ele>4.0</ele><time>2026-04-22T09:52:13Z</time></trkpt><trkpt lat="42.27157073056122" lon="3.1446775795414985"><ele>5.0</ele><time>2026-04-22T09:52:14Z</time></trkpt><trkpt lat="42.27155988455927" lon="3.1448816111822917"><ele>5.333333333333334</ele><time>2026-04-22T09:52:15Z</time></trkpt><trkpt lat="42.27155001079602" lon="3.1450853853323197"><ele>5.666666666666667</ele><time>2026-04-22T09:52:16Z</time></trkpt><trkpt lat="42.27154088113134" lon="3.145289166813353"><ele>6.0</ele><time>2026-04-22T09:52:17Z</time></trkpt><trkpt lat="42.27152996072378" lon="3.1454927954172227"><ele>6.0</ele><time>2026-04-22T09:52:18Z</time></trkpt><trkpt lat="42.27152005008945" lon="3.1456937354180803"><ele>6.0</ele><time>2026-04-22T09:52:19Z</time></trkpt><trkpt lat="42.27151262805145" lon="3.1458937207260838"><ele>6.0</ele><time>2026-04-22T09:52:20Z</time></trkpt><trkpt lat="42.27150476884669" lon="3.146091987006942"><ele>6.0</ele><time>2026-04-22T09:52:21Z</time></trkpt><trkpt lat="42.27149677437252" lon="3.1462878139970005"><ele>5.25</ele><time>2026-04-22T09:52:22Z</time></trkpt><trkpt lat="42.27148919853084" lon="3.1464778804156897"><ele>4.5</ele><time>2026-04-22T09:52:23Z</time></trkpt><trkpt lat="42.271481344329494" lon="3.1466629164311146"><ele>3.75</ele><time>2026-04-22T09:52:24Z</time></trkpt><trkpt lat="42.27147440623397" lon="3.14683830468839"><ele>3.0</ele><time>2026-04-22T09:52:25Z</time></trkpt><trkpt lat="42.271463714116635" lon="3.146999731157661"><ele>2.8</ele><time>2026-04-22T09:52:26Z</time></trkpt><trkpt lat="42.27145415765925" lon="3.147151720213479"><ele>2.5999999999999996</ele><time>2026-04-22T09:52:27Z</time></trkpt><trkpt lat="42.27144304455378" lon="3.147286026729167"><ele>2.4000000000000004</ele><time>2026-04-22T09:52:28Z</time></trkpt><trkpt lat="42.27142966880998" lon="3.147400674101845"><ele>2.2</ele><time>2026-04-22T09:52:29Z</time></trkpt><trkpt lat="42.27141013652096" lon="3.1475054360827035"><ele>2.0</ele><time>2026-04-22T09:52:30Z</time></trkpt><trkpt lat="42.27137769900465" lon="3.147601224942487"><ele>1.9999999999999998</ele><time>2026-04-22T09:52:31Z</time></trkpt><trkpt lat="42.27133121829951" lon="3.1476869088868504"><ele>2.0</ele><time>2026-04-22T09:52:32Z</time></trkpt><trkpt lat="42.2712750089009" lon="3.147763792630011"><ele>2.0</ele><time>2026-04-22T09:52:33Z</time></trkpt><trkpt lat="42.271210180257526" lon="3.147838800920052"><ele>2.0</ele><time>2026-04-22T09:52:34Z</time></trkpt><trkpt lat="42.27114728843269" lon="3.1479128559936367"><ele>1.9999999999999998</ele><time>2026-04-22T09:52:35Z</time></trkpt><trkpt lat="42.271093030189995" lon="3.1479934199593216"><ele>2.0</ele><time>2026-04-22T09:52:36Z</time></trkpt><trkpt lat="42.27104965191608" lon="3.14808360655545"><ele>1.9999999999999998</ele><time>2026-04-22T09:52:37Z</time></trkpt><trkpt lat="42.27102377522709" lon="3.1481854634229474"><ele>2.0</ele><time>2026-04-22T09:52:38Z</time></trkpt><trkpt lat="42.27100114408571" lon="3.1482905054078576"><ele>2.0</ele><time>2026-04-22T09:52:39Z</time></trkpt><trkpt lat="42.271034618619275" lon="3.1483994786756626"><ele>2.0</ele><time>2026-04-22T09:52:40Z</time></trkpt><trkpt lat="42.27107405873997" lon="3.148497970559125"><ele>1.9999999999999998</ele><time>2026-04-22T09:52:41Z</time></trkpt><trkpt lat="42.271131939538755" lon="3.148574747233928"><ele>2.0</ele><time>2026-04-22T09:52:42Z</time></trkpt><trkpt lat="42.27120176818064" lon="3.148630237499282"><ele>1.9999999999999998</ele><time>2026-04-22T09:52:43Z</time></trkpt><trkpt lat="42.27128286516586" lon="3.14866259160361"><ele>2.0</ele><time>2026-04-22T09:52:44Z</time></trkpt><trkpt lat="42.27136410763827" lon="3.1486706826535213"><ele>2.0</ele><time>2026-04-22T09:52:45Z</time></trkpt><trkpt lat="42.271439138067706" lon="3.1486257138368523"><ele>2.0</ele><time>2026-04-22T09:52:46Z</time></trkpt><trkpt lat="42.27150765986151" lon="3.1485897591575216"><ele>1.9999999999999998</ele><time>2026-04-22T09:52:47Z</time></trkpt><trkpt lat="42.27159360312042" lon="3.1486553505223736"><ele>2.0</ele><time>2026-04-22T09:52:48Z</time></trkpt><trkpt lat="42.27165626039857" lon="3.148694701212324"><ele>1.8333333333333333</ele><time>2026-04-22T09:52:49Z</time></trkpt><trkpt lat="42.27171523985823" lon="3.1487545551776694"><ele>1.6666666666666665</ele><time>2026-04-22T09:52:50Z</time></trkpt><trkpt lat="42.27173864100389" lon="3.1488469545328956"><ele>1.5</ele><time>2026-04-22T09:52:51Z</time></trkpt><trkpt lat="42.2717310234331" lon="3.148951697483699"><ele>1.3333333333333333</ele><time>2026-04-22T09:52:52Z</time></trkpt><trkpt lat="42.27170260368647" lon="3.1490531037151346"><ele>1.1666666666666665</ele><time>2026-04-22T09:52:53Z</time></trkpt><trkpt lat="42.27163739387188" lon="3.1491397935755017"><ele>1.0</ele><time>2026-04-22T09:52:54Z</time></trkpt><trkpt lat="42.27160011370831" lon="3.1492629509502197"><ele>1.0</ele><time>2026-04-22T09:52:55Z</time></trkpt><trkpt lat="42.27155386399691" lon="3.1493878010536713"><ele>1.0</ele><time>2026-04-22T09:52:56Z</time></trkpt><trkpt lat="42.2715255385893" lon="3.1495367651807076"><ele>1.0</ele><time>2026-04-22T09:52:57Z</time></trkpt><trkpt lat="42.27151635832783" lon="3.149679329017906"><ele>1.0</ele><time>2026-04-22T09:52:58Z</time></trkpt><trkpt lat="42.27151975543158" lon="3.1498249602471255"><ele>1.0</ele><time>2026-04-22T09:52:59Z</time></trkpt><trkpt lat="42.27153907568139" lon="3.149969011151042"><ele>1.0</ele><time>2026-04-22T09:53:00Z</time></trkpt><trkpt lat="42.271572454339235" lon="3.150111062447395"><ele>1.0</ele><time>2026-04-22T09:53:01Z</time></trkpt><trkpt lat="42.27162096852811" lon="3.150241732442323"><ele>1.0</ele><time>2026-04-22T09:53:02Z</time></trkpt><trkpt lat="42.27169230835222" lon="3.1503658246736768"><ele>1.0</ele><time>2026-04-22T09:53:03Z</time></trkpt><trkpt lat="42.271768430450756" lon="3.150492230485302"><ele>1.0</ele><time>2026-04-22T09:53:04Z</time></trkpt><trkpt lat="42.27184483557604" lon="3.1506249740106687"><ele>1.0</ele><time>2026-04-22T09:53:05Z</time></trkpt><trkpt lat="42.27191966122265" lon="3.150758928752209"><ele>1.0</ele><time>2026-04-22T09:53:06Z</time></trkpt><trkpt lat="42.271990701786414" lon="3.1508862602723133"><ele>1.0</ele><time>2026-04-22T09:53:07Z</time></trkpt><trkpt lat="42.27205933370713" lon="3.151013520185711"><ele>1.5</ele><time>2026-04-22T09:53:08Z</time></trkpt><trkpt lat="42.27212946067611" lon="3.1511395997291936"><ele>2.0</ele><time>2026-04-22T09:53:09Z</time></trkpt><trkpt lat="42.2721992223272" lon="3.151268964684163"><ele>2.5</ele><time>2026-04-22T09:53:10Z</time></trkpt><trkpt lat="42.272270473344285" lon="3.1513987933715373"><ele>3.0</ele><time>2026-04-22T09:53:11Z</time></trkpt><trkpt lat="42.27234240203924" lon="3.1515314715210856"><ele>4.0</ele><time>2026-04-22T09:53:12Z</time></trkpt><trkpt lat="42.27241541851765" lon="3.1516651000577918"><ele>5.0</ele><time>2026-04-22T09:53:13Z</time></trkpt><trkpt lat="42.27249260763856" lon="3.1518018145831665"><ele>6.0</ele><time>2026-04-22T09:53:14Z</time></trkpt><trkpt lat="42.272571297533396" lon="3.151943170166308"><ele>7.0</ele><time>2026-04-22T09:53:15Z</time></trkpt><trkpt lat="42.272653492033804" lon="3.15208948220287"><ele>7.0</ele><time>2026-04-22T09:53:16Z</time></trkpt><trkpt lat="42.27273726552935" lon="3.1522389109710316"><ele>7.0</ele><time>2026-04-22T09:53:17Z</time></trkpt><trkpt lat="42.272821479200324" lon="3.152385823927524"><ele>7.0</ele><time>2026-04-22T09:53:18Z</time></trkpt><trkpt lat="42.272906351499216" lon="3.152535056705976"><ele>7.0</ele><time>2026-04-22T09:53:19Z</time></trkpt><trkpt lat="42.27298807527993" lon="3.1526855903160227"><ele>7.5</ele><time>2026-04-22T09:53:20Z</time></trkpt><trkpt lat="42.273068392784886" lon="3.1528326569498084"><ele>8.0</ele><time>2026-04-22T09:53:21Z</time></trkpt><trkpt lat="42.273149337211116" lon="3.1529788560164307"><ele>8.5</ele><time>2026-04-22T09:53:22Z</time></trkpt><trkpt lat="42.27322884049181" lon="3.1531252070631677"><ele>9.0</ele><time>2026-04-22T09:53:23Z</time></trkpt><trkpt lat="42.273309758322064" lon="3.1532706845735423"><ele>9.25</ele><time>2026-04-22T09:53:24Z</time></trkpt><trkpt lat="42.273390741262624" lon="3.153413103837005"><ele>9.5</ele><time>2026-04-22T09:53:25Z</time></trkpt><trkpt lat="42.27346923293784" lon="3.1535557244137067"><ele>9.75</ele><time>2026-04-22T09:53:26Z</time></trkpt><trkpt lat="42.27354877131605" lon="3.1536974726153275"><ele>10.0</ele><time>2026-04-22T09:53:27Z</time></trkpt><trkpt lat="42.27362844135715" lon="3.1538407358067833"><ele>10.0</ele><time>2026-04-22T09:53:28Z</time></trkpt><trkpt lat="42.27368685073016" lon="3.153994328511557"><ele>10.0</ele><time>2026-04-22T09:53:29Z</time></trkpt><trkpt lat="42.27376495036831" lon="3.1541341222603765"><ele>10.0</ele><time>2026-04-22T09:53:30Z</time></trkpt><trkpt lat="42.273839736184016" lon="3.1542807522222964"><ele>10.0</ele><time>2026-04-22T09:53:31Z</time></trkpt><trkpt lat="42.27391565928074" lon="3.1544279466769396"><ele>10.0</ele><time>2026-04-22T09:53:32Z</time></trkpt><trkpt lat="42.27399547909711" lon="3.1545827344762443"><ele>10.0</ele><time>2026-04-22T09:53:33Z</time></trkpt><trkpt lat="42.27407244728156" lon="3.1547384065883883"><ele>10.0</ele><time>2026-04-22T09:53:34Z</time></trkpt><trkpt lat="42.27415216544681" lon="3.1548997206864278"><ele>10.0</ele><time>2026-04-22T09:53:35Z</time></trkpt><trkpt lat="42.27424089035347" lon="3.155068069108817"><ele>10.0</ele><time>2026-04-22T09:53:36Z</time></trkpt><trkpt lat="42.274328916628136" lon="3.1552305526048383"><ele>10.0</ele><time>2026-04-22T09:53:37Z</time></trkpt><trkpt lat="42.274419596431116" lon="3.155393720822326"><ele>10.0</ele><time>2026-04-22T09:53:38Z</time></trkpt><trkpt lat="42.274514503726394" lon="3.1555587975157935"><ele>9.666666666666668</ele><time>2026-04-22T09:53:39Z</time></trkpt><trkpt lat="42.27460718199777" lon="3.1557253248312676"><ele>9.333333333333334</ele><time>2026-04-22T09:53:40Z</time></trkpt><trkpt lat="42.27470125202281" lon="3.1558924610103656"><ele>9.0</ele><time>2026-04-22T09:53:41Z</time></trkpt><trkpt lat="42.27479659943748" lon="3.1560557202709405"><ele>10.0</ele><time>2026-04-22T09:53:42Z</time></trkpt><trkpt lat="42.274895219948824" lon="3.156212104799745"><ele>11.0</ele><time>2026-04-22T09:53:43Z</time></trkpt><trkpt lat="42.274992512971515" lon="3.1563669955476414"><ele>12.0</ele><time>2026-04-22T09:53:44Z</time></trkpt><trkpt lat="42.27508698630951" lon="3.156523817074942"><ele>11.75</ele><time>2026-04-22T09:53:45Z</time></trkpt><trkpt lat="42.27517678482157" lon="3.1566841377515207"><ele>11.5</ele><time>2026-04-22T09:53:46Z</time></trkpt><trkpt lat="42.27526703952548" lon="3.1568441397896936"><ele>11.25</ele><time>2026-04-22T09:53:47Z</time></trkpt><trkpt lat="42.275358432532535" lon="3.157006834809885"><ele>11.0</ele><time>2026-04-22T09:53:48Z</time></trkpt><trkpt lat="42.275447080650856" lon="3.157165002227285"><ele>11.0</ele><time>2026-04-22T09:53:49Z</time></trkpt><trkpt lat="42.275534310685245" lon="3.1573232912169225"><ele>11.0</ele><time>2026-04-22T09:53:50Z</time></trkpt><trkpt lat="42.27561874312536" lon="3.157475276516488"><ele>11.0</ele><time>2026-04-22T09:53:51Z</time></trkpt><trkpt lat="42.27569865831093" lon="3.157620002471543"><ele>11.0</ele><time>2026-04-22T09:53:52Z</time></trkpt><trkpt lat="42.275777226885864" lon="3.1577588327365302"><ele>11.0</ele><time>2026-04-22T09:53:53Z</time></trkpt><trkpt lat="42.27584812369632" lon="3.1578892720676808"><ele>11.0</ele><time>2026-04-22T09:53:54Z</time></trkpt><trkpt lat="42.275916088510854" lon="3.15801120157023"><ele>11.0</ele><time>2026-04-22T09:53:55Z</time></trkpt><trkpt lat="42.27597587187024" lon="3.1581262111862998"><ele>11.0</ele><time>2026-04-22T09:53:56Z</time></trkpt><trkpt lat="42.27603113980919" lon="3.158237362951642"><ele>11.0</ele><time>2026-04-22T09:53:57Z</time></trkpt><trkpt lat="42.27608590816416" lon="3.1583450590808675"><ele>11.0</ele><time>2026-04-22T09:53:58Z</time></trkpt><trkpt lat="42.27613730503404" lon="3.1584477126358315"><ele>11.0</ele><time>2026-04-22T09:53:59Z</time></trkpt><trkpt lat="42.27618259570655" lon="3.1585401695787354"><ele>11.0</ele><time>2026-04-22T09:54:00Z</time></trkpt><trkpt lat="42.276226937151385" lon="3.158638284953405"><ele>11.0</ele><time>2026-04-22T09:54:01Z</time></trkpt><trkpt lat="42.276259103746995" lon="3.1587338656634096"><ele>11.0</ele><time>2026-04-22T09:54:02Z</time></trkpt><trkpt lat="42.276265265372544" lon="3.1588274054803955"><ele>11.0</ele><time>2026-04-22T09:54:03Z</time></trkpt><trkpt lat="42.27625374212253" lon="3.1589195022063716"><ele>11.0</ele><time>2026-04-22T09:54:04Z</time></trkpt><trkpt lat="42.27623478984976" lon="3.1590109580893757"><ele>11.0</ele><time>2026-04-22T09:54:05Z</time></trkpt><trkpt lat="42.276231536230476" lon="3.1591104204552334"><ele>11.0</ele><time>2026-04-22T09:54:06Z</time></trkpt><trkpt lat="42.276252347520575" lon="3.1592067736515985"><ele>11.0</ele><time>2026-04-22T09:54:07Z</time></trkpt><trkpt lat="42.276292549255146" lon="3.159292143074122"><ele>11.0</ele><time>2026-04-22T09:54:08Z</time></trkpt><trkpt lat="42.276348357807166" lon="3.159368769375771"><ele>11.0</ele><time>2026-04-22T09:54:09Z</time></trkpt><trkpt lat="42.27641877020791" lon="3.159426284396896"><ele>11.833333333333332</ele><time>2026-04-22T09:54:10Z</time></trkpt><trkpt lat="42.27650004751981" lon="3.159454037290421"><ele>12.666666666666666</ele><time>2026-04-22T09:54:11Z</time></trkpt><trkpt lat="42.276581623652675" lon="3.1594692338038213"><ele>13.5</ele><time>2026-04-22T09:54:12Z</time></trkpt><trkpt lat="42.27666203611302" lon="3.1595054398855815"><ele>14.333333333333332</ele><time>2026-04-22T09:54:13Z</time></trkpt><trkpt lat="42.27673258940176" lon="3.1595712721443117"><ele>15.166666666666666</ele><time>2026-04-22T09:54:14Z</time></trkpt><trkpt lat="42.27679573427437" lon="3.159659122199504"><ele>16.0</ele><time>2026-04-22T09:54:15Z</time></trkpt><trkpt lat="42.27685595488256" lon="3.159759045734549"><ele>16.0</ele><time>2026-04-22T09:54:16Z</time></trkpt><trkpt lat="42.27692021731584" lon="3.1598619912904993"><ele>16.0</ele><time>2026-04-22T09:54:17Z</time></trkpt><trkpt lat="42.27698352126936" lon="3.159966236706482"><ele>16.0</ele><time>2026-04-22T09:54:18Z</time></trkpt><trkpt lat="42.27704243036737" lon="3.1600677015385212"><ele>16.0</ele><time>2026-04-22T09:54:19Z</time></trkpt><trkpt lat="42.27709720065792" lon="3.1601640534488653"><ele>16.0</ele><time>2026-04-22T09:54:20Z</time></trkpt><trkpt lat="42.277148935703494" lon="3.1602546418342423"><ele>16.142857142857142</ele><time>2026-04-22T09:54:21Z</time></trkpt><trkpt lat="42.27719493245367" lon="3.1603363554452635"><ele>16.285714285714285</ele><time>2026-04-22T09:54:22Z</time></trkpt><trkpt lat="42.27723521157618" lon="3.1604109134065586"><ele>16.428571428571427</ele><time>2026-04-22T09:54:23Z</time></trkpt><trkpt lat="42.27727466915169" lon="3.1604843275450647"><ele>16.57142857142857</ele><time>2026-04-22T09:54:24Z</time></trkpt><trkpt lat="42.277316773191444" lon="3.1605613858735766"><ele>16.714285714285715</ele><time>2026-04-22T09:54:25Z</time></trkpt><trkpt lat="42.27736337246069" lon="3.1606431764595313"><ele>16.857142857142854</ele><time>2026-04-22T09:54:26Z</time></trkpt><trkpt lat="42.27741432269265" lon="3.160733405703402"><ele>17.0</ele><time>2026-04-22T09:54:27Z</time></trkpt><trkpt lat="42.277465779546844" lon="3.160828265985894"><ele>17.0</ele><time>2026-04-22T09:54:28Z</time></trkpt><trkpt lat="42.27752210782622" lon="3.160927475383059"><ele>17.0</ele><time>2026-04-22T09:54:29Z</time></trkpt><trkpt lat="42.277580392017796" lon="3.161034988636846"><ele>17.0</ele><time>2026-04-22T09:54:30Z</time></trkpt><trkpt lat="42.27764234914444" lon="3.1611484488982713"><ele>17.0</ele><time>2026-04-22T09:54:31Z</time></trkpt><trkpt lat="42.27771069509977" lon="3.161272140552378"><ele>17.0</ele><time>2026-04-22T09:54:32Z</time></trkpt><trkpt lat="42.2777827751644" lon="3.1614007921327403"><ele>17.0</ele><time>2026-04-22T09:54:33Z</time></trkpt><trkpt lat="42.277853261513364" lon="3.161530819277872"><ele>17.0</ele><time>2026-04-22T09:54:34Z</time></trkpt><trkpt lat="42.277928338849094" lon="3.161665557303339"><ele>17.0</ele><time>2026-04-22T09:54:35Z</time></trkpt><trkpt lat="42.278002061442656" lon="3.1618034651602014"><ele>17.0</ele><time>2026-04-22T09:54:36Z</time></trkpt><trkpt lat="42.27807505899551" lon="3.1619382504391225"><ele>17.25</ele><time>2026-04-22T09:54:37Z</time></trkpt><trkpt lat="42.27814905783081" lon="3.162071773984928"><ele>17.5</ele><time>2026-04-22T09:54:38Z</time></trkpt><trkpt lat="42.278222773896694" lon="3.162202945636533"><ele>17.75</ele><time>2026-04-22T09:54:39Z</time></trkpt><trkpt lat="42.27829320179841" lon="3.1623318950616497"><ele>18.0</ele><time>2026-04-22T09:54:40Z</time></trkpt><trkpt lat="42.27836484221881" lon="3.1624612266580368"><ele>18.0</ele><time>2026-04-22T09:54:41Z</time></trkpt><trkpt lat="42.27843467319365" lon="3.1625868806201676"><ele>18.0</ele><time>2026-04-22T09:54:42Z</time></trkpt><trkpt lat="42.27850207869704" lon="3.162710406011832"><ele>18.0</ele><time>2026-04-22T09:54:43Z</time></trkpt><trkpt lat="42.278569972167084" lon="3.1628328687895038"><ele>18.0</ele><time>2026-04-22T09:54:44Z</time></trkpt><trkpt lat="42.278634859636554" lon="3.1629498069478714"><ele>18.0</ele><time>2026-04-22T09:54:45Z</time></trkpt><trkpt lat="42.27869440759475" lon="3.163060252771697"><ele>18.0</ele><time>2026-04-22T09:54:46Z</time></trkpt><trkpt lat="42.278753655707554" lon="3.163167962018631"><ele>18.0</ele><time>2026-04-22T09:54:47Z</time></trkpt><trkpt lat="42.27881290113633" lon="3.163276482996518"><ele>18.0</ele><time>2026-04-22T09:54:48Z</time></trkpt><trkpt lat="42.27887378534401" lon="3.163387088709301"><ele>18.0</ele><time>2026-04-22T09:54:49Z</time></trkpt><trkpt lat="42.278933512464846" lon="3.163496319448253"><ele>18.2</ele><time>2026-04-22T09:54:50Z</time></trkpt><trkpt lat="42.27899647780234" lon="3.163611255198003"><ele>18.4</ele><time>2026-04-22T09:54:51Z</time></trkpt><trkpt lat="42.279061231768786" lon="3.1637288300756987"><ele>18.599999999999998</ele><time>2026-04-22T09:54:52Z</time></trkpt><trkpt lat="42.27912715638601" lon="3.1638498162084807"><ele>18.8</ele><time>2026-04-22T09:54:53Z</time></trkpt><trkpt lat="42.279191716649464" lon="3.1639681584611976"><ele>19.0</ele><time>2026-04-22T09:54:54Z</time></trkpt><trkpt lat="42.27925701530503" lon="3.16408534239381"><ele>19.0</ele><time>2026-04-22T09:54:55Z</time></trkpt><trkpt lat="42.27932034857106" lon="3.164208016382319"><ele>19.0</ele><time>2026-04-22T09:54:56Z</time></trkpt><trkpt lat="42.2793850084691" lon="3.1643200509893186"><ele>19.0</ele><time>2026-04-22T09:54:57Z</time></trkpt><trkpt lat="42.27944520872861" lon="3.1644311000672984"><ele>19.0</ele><time>2026-04-22T09:54:58Z</time></trkpt><trkpt lat="42.27950528616817" lon="3.1645399069997735"><ele>19.0</ele><time>2026-04-22T09:54:59Z</time></trkpt><trkpt lat="42.279566422871056" lon="3.164650397795795"><ele>19.0</ele><time>2026-04-22T09:55:00Z</time></trkpt><trkpt lat="42.27962584479995" lon="3.164763072624595"><ele>19.0</ele><time>2026-04-22T09:55:01Z</time></trkpt><trkpt lat="42.2796847001942" lon="3.164870963894422"><ele>19.0</ele><time>2026-04-22T09:55:02Z</time></trkpt><trkpt lat="42.27974411185885" lon="3.1649772947143906"><ele>19.0</ele><time>2026-04-22T09:55:03Z</time></trkpt><trkpt lat="42.27980422448448" lon="3.1650867786203785"><ele>19.0</ele><time>2026-04-22T09:55:04Z</time></trkpt><trkpt lat="42.27986622684485" lon="3.165196017752586"><ele>19.799999999999997</ele><time>2026-04-22T09:55:05Z</time></trkpt><trkpt lat="42.279928567488845" lon="3.165307972086509"><ele>20.599999999999998</ele><time>2026-04-22T09:55:06Z</time></trkpt><trkpt lat="42.2799929322075" lon="3.1654252051524674"><ele>21.4</ele><time>2026-04-22T09:55:07Z</time></trkpt><trkpt lat="42.28005890010006" lon="3.1655431295677645"><ele>22.2</ele><time>2026-04-22T09:55:08Z</time></trkpt><trkpt lat="42.28012128155199" lon="3.1656550168901423"><ele>23.0</ele><time>2026-04-22T09:55:09Z</time></trkpt><trkpt lat="42.28018395809539" lon="3.1657687084998036"><ele>23.0</ele><time>2026-04-22T09:55:10Z</time></trkpt><trkpt lat="42.28024920037307" lon="3.165887411417731"><ele>23.0</ele><time>2026-04-22T09:55:11Z</time></trkpt><trkpt lat="42.28032143396246" lon="3.166015205651066"><ele>23.0</ele><time>2026-04-22T09:55:12Z</time></trkpt><trkpt lat="42.280394033213774" lon="3.166155453775554"><ele>23.0</ele><time>2026-04-22T09:55:13Z</time></trkpt><trkpt lat="42.280467544955656" lon="3.166301410260672"><ele>23.0</ele><time>2026-04-22T09:55:14Z</time></trkpt><trkpt lat="42.280536036249416" lon="3.166443909786318"><ele>23.0</ele><time>2026-04-22T09:55:15Z</time></trkpt><trkpt lat="42.28060464906053" lon="3.1665904981782376"><ele>23.0</ele><time>2026-04-22T09:55:16Z</time></trkpt><trkpt lat="42.280675163393724" lon="3.1667371525133237"><ele>23.0</ele><time>2026-04-22T09:55:17Z</time></trkpt><trkpt lat="42.280753602333405" lon="3.1668850608264694"><ele>24.25</ele><time>2026-04-22T09:55:18Z</time></trkpt><trkpt lat="42.28083472589475" lon="3.1670345435461877"><ele>25.5</ele><time>2026-04-22T09:55:19Z</time></trkpt><trkpt lat="42.28091572819524" lon="3.1671825170657364"><ele>26.75</ele><time>2026-04-22T09:55:20Z</time></trkpt><trkpt lat="42.281001759487644" lon="3.167335891703932"><ele>28.0</ele><time>2026-04-22T09:55:21Z</time></trkpt><trkpt lat="42.28108709924398" lon="3.1674895238645093"><ele>28.333333333333336</ele><time>2026-04-22T09:55:22Z</time></trkpt><trkpt lat="42.28117721876608" lon="3.167650421910068"><ele>28.666666666666664</ele><time>2026-04-22T09:55:23Z</time></trkpt><trkpt lat="42.281268559590195" lon="3.1678168467090937"><ele>29.0</ele><time>2026-04-22T09:55:24Z</time></trkpt><trkpt lat="42.28136581576276" lon="3.167989793126227"><ele>29.0</ele><time>2026-04-22T09:55:25Z</time></trkpt><trkpt lat="42.28146530348652" lon="3.168170522871564"><ele>29.0</ele><time>2026-04-22T09:55:26Z</time></trkpt><trkpt lat="42.28156547978128" lon="3.168349024010023"><ele>29.0</ele><time>2026-04-22T09:55:27Z</time></trkpt><trkpt lat="42.28166440657165" lon="3.1685257648107807"><ele>29.0</ele><time>2026-04-22T09:55:28Z</time></trkpt><trkpt lat="42.28176210990877" lon="3.168702202065751"><ele>29.0</ele><time>2026-04-22T09:55:29Z</time></trkpt><trkpt lat="42.281862326723946" lon="3.1688766877199166"><ele>29.0</ele><time>2026-04-22T09:55:30Z</time></trkpt><trkpt lat="42.281962198993696" lon="3.1690481642014783"><ele>29.333333333333332</ele><time>2026-04-22T09:55:31Z</time></trkpt><trkpt lat="42.28206562738022" lon="3.169215983959798"><ele>29.666666666666664</ele><time>2026-04-22T09:55:32Z</time></trkpt><trkpt lat="42.2821682719629" lon="3.169380948012851"><ele>30.0</ele><time>2026-04-22T09:55:33Z</time></trkpt><trkpt lat="42.282268813462125" lon="3.169547856909783"><ele>31.0</ele><time>2026-04-22T09:55:34Z</time></trkpt><trkpt lat="42.28236857261023" lon="3.1697196964616032"><ele>32.0</ele><time>2026-04-22T09:55:35Z</time></trkpt><trkpt lat="42.282466708188885" lon="3.1698962077761705"><ele>33.0</ele><time>2026-04-22T09:55:36Z</time></trkpt><trkpt lat="42.28256359778785" lon="3.1700729963809784"><ele>33.0</ele><time>2026-04-22T09:55:37Z</time></trkpt><trkpt lat="42.28265984361052" lon="3.170248333673968"><ele>33.0</ele><time>2026-04-22T09:55:38Z</time></trkpt><trkpt lat="42.28275262072449" lon="3.1704180022933217"><ele>33.0</ele><time>2026-04-22T09:55:39Z</time></trkpt><trkpt lat="42.28284337193718" lon="3.17058815848977"><ele>33.0</ele><time>2026-04-22T09:55:40Z</time></trkpt><trkpt lat="42.282935467180856" lon="3.170759707278156"><ele>33.0</ele><time>2026-04-22T09:55:41Z</time></trkpt><trkpt lat="42.28302298897789" lon="3.170934404250238"><ele>33.0</ele><time>2026-04-22T09:55:42Z</time></trkpt><trkpt lat="42.283109045491855" lon="3.17110981101723"><ele>34.333333333333336</ele><time>2026-04-22T09:55:43Z</time></trkpt><trkpt lat="42.28319792111743" lon="3.171285529316774"><ele>35.66666666666667</ele><time>2026-04-22T09:55:44Z</time></trkpt><trkpt lat="42.28329269778864" lon="3.1714614648581736"><ele>37.0</ele><time>2026-04-22T09:55:45Z</time></trkpt><trkpt lat="42.283391118531235" lon="3.17163926957789"><ele>37.0</ele><time>2026-04-22T09:55:46Z</time></trkpt><trkpt lat="42.283489867761865" lon="3.1718186957412"><ele>37.0</ele><time>2026-04-22T09:55:47Z</time></trkpt><trkpt lat="42.28359192389378" lon="3.172003363255982"><ele>37.0</ele><time>2026-04-22T09:55:48Z</time></trkpt><trkpt lat="42.28369314671275" lon="3.1721870992910635"><ele>36.333333333333336</ele><time>2026-04-22T09:55:49Z</time></trkpt><trkpt lat="42.28379561935817" lon="3.1723720511376032"><ele>35.666666666666664</ele><time>2026-04-22T09:55:50Z</time></trkpt><trkpt lat="42.283899831343824" lon="3.172557610847786"><ele>35.0</ele><time>2026-04-22T09:55:51Z</time></trkpt><trkpt lat="42.28400471997562" lon="3.1727444345385916"><ele>35.33333333333333</ele><time>2026-04-22T09:55:52Z</time></trkpt><trkpt lat="42.28411096472282" lon="3.1729346495509145"><ele>35.666666666666664</ele><time>2026-04-22T09:55:53Z</time></trkpt><trkpt lat="42.28421607416717" lon="3.173122543355248"><ele>36.0</ele><time>2026-04-22T09:55:54Z</time></trkpt><trkpt lat="42.284320891123194" lon="3.173311396735444"><ele>36.0</ele><time>2026-04-22T09:55:55Z</time></trkpt><trkpt lat="42.284422722624214" lon="3.1734978989467697"><ele>36.0</ele><time>2026-04-22T09:55:56Z</time></trkpt><trkpt lat="42.28452997641203" lon="3.1736786195301563"><ele>36.0</ele><time>2026-04-22T09:55:57Z</time></trkpt><trkpt lat="42.28463899637708" lon="3.17385351646876"><ele>36.333333333333336</ele><time>2026-04-22T09:55:58Z</time></trkpt><trkpt lat="42.28474769136997" lon="3.174029131258986"><ele>36.66666666666667</ele><time>2026-04-22T09:55:59Z</time></trkpt><trkpt lat="42.28485379524555" lon="3.174208818129336"><ele>37.0</ele><time>2026-04-22T09:56:00Z</time></trkpt><trkpt lat="42.28495601341112" lon="3.1743941789798997"><ele>37.0</ele><time>2026-04-22T09:56:01Z</time></trkpt><trkpt lat="42.2850575026378" lon="3.1745786281847486"><ele>37.0</ele><time>2026-04-22T09:56:02Z</time></trkpt><trkpt lat="42.2851553147425" lon="3.1747589358790016"><ele>37.0</ele><time>2026-04-22T09:56:03Z</time></trkpt><trkpt lat="42.28525620448965" lon="3.174939162031407"><ele>36.333333333333336</ele><time>2026-04-22T09:56:04Z</time></trkpt><trkpt lat="42.28535450203624" lon="3.1751185517214693"><ele>35.666666666666664</ele><time>2026-04-22T09:56:05Z</time></trkpt><trkpt lat="42.285450786151216" lon="3.17529875075074"><ele>35.0</ele><time>2026-04-22T09:56:06Z</time></trkpt><trkpt lat="42.28554808426154" lon="3.1754782662167202"><ele>37.0</ele><time>2026-04-22T09:56:07Z</time></trkpt><trkpt lat="42.28564327047272" lon="3.1756503000648273"><ele>39.0</ele><time>2026-04-22T09:56:08Z</time></trkpt><trkpt lat="42.28573744364491" lon="3.1758187241965414"><ele>41.0</ele><time>2026-04-22T09:56:09Z</time></trkpt><trkpt lat="42.28582694283585" lon="3.175990618736567"><ele>41.0</ele><time>2026-04-22T09:56:10Z</time></trkpt><trkpt lat="42.2859082483452" lon="3.1761616631573837"><ele>41.0</ele><time>2026-04-22T09:56:11Z</time></trkpt><trkpt lat="42.28597833627854" lon="3.176341015224461"><ele>41.0</ele><time>2026-04-22T09:56:12Z</time></trkpt><trkpt lat="42.286037959615015" lon="3.1765263397891403"><ele>41.0</ele><time>2026-04-22T09:56:13Z</time></trkpt><trkpt lat="42.28607878588558" lon="3.176709910063466"><ele>41.0</ele><time>2026-04-22T09:56:14Z</time></trkpt><trkpt lat="42.28610828450096" lon="3.176894955079023"><ele>41.0</ele><time>2026-04-22T09:56:15Z</time></trkpt><trkpt lat="42.28613885754054" lon="3.1770779972199628"><ele>41.0</ele><time>2026-04-22T09:56:16Z</time></trkpt><trkpt lat="42.286166095410614" lon="3.177262154498809"><ele>40.5</ele><time>2026-04-22T09:56:17Z</time></trkpt><trkpt lat="42.286197833337866" lon="3.1774484879259433"><ele>40.0</ele><time>2026-04-22T09:56:18Z</time></trkpt><trkpt lat="42.286228113178794" lon="3.177636897340846"><ele>39.5</ele><time>2026-04-22T09:56:19Z</time></trkpt><trkpt lat="42.28625431119522" lon="3.177823855418798"><ele>39.0</ele><time>2026-04-22T09:56:20Z</time></trkpt><trkpt lat="42.286279928388865" lon="3.1780077170393057"><ele>38.75</ele><time>2026-04-22T09:56:21Z</time></trkpt><trkpt lat="42.28631530332502" lon="3.1781901276615967"><ele>38.5</ele><time>2026-04-22T09:56:22Z</time></trkpt><trkpt lat="42.286359699726326" lon="3.1783748246675287"><ele>38.25</ele><time>2026-04-22T09:56:23Z</time></trkpt><trkpt lat="42.286415193677705" lon="3.1785516690481685"><ele>38.0</ele><time>2026-04-22T09:56:24Z</time></trkpt><trkpt lat="42.28648414589791" lon="3.1787211145796714"><ele>39.75</ele><time>2026-04-22T09:56:25Z</time></trkpt><trkpt lat="42.28656542036484" lon="3.1788799170203044"><ele>41.5</ele><time>2026-04-22T09:56:26Z</time></trkpt><trkpt lat="42.28665488204241" lon="3.17903594250048"><ele>43.25</ele><time>2026-04-22T09:56:27Z</time></trkpt><trkpt lat="42.28675460449925" lon="3.179177899495486"><ele>45.0</ele><time>2026-04-22T09:56:28Z</time></trkpt><trkpt lat="42.286860978292545" lon="3.1793113613770108"><ele>45.0</ele><time>2026-04-22T09:56:29Z</time></trkpt><trkpt lat="42.28697032155225" lon="3.179446923960763"><ele>45.0</ele><time>2026-04-22T09:56:30Z</time></trkpt><trkpt lat="42.287077803251556" lon="3.1795856101805455"><ele>45.0</ele><time>2026-04-22T09:56:31Z</time></trkpt><trkpt lat="42.28718781700604" lon="3.1797257646659727"><ele>45.0</ele><time>2026-04-22T09:56:32Z</time></trkpt><trkpt lat="42.28729846015683" lon="3.1798628420895643"><ele>47.66666666666667</ele><time>2026-04-22T09:56:33Z</time></trkpt><trkpt lat="42.28741318233789" lon="3.1800031380536526"><ele>50.333333333333336</ele><time>2026-04-22T09:56:34Z</time></trkpt><trkpt lat="42.2875235917131" lon="3.180147371620263"><ele>53.0</ele><time>2026-04-22T09:56:35Z</time></trkpt><trkpt lat="42.287643400437446" lon="3.180294672280013"><ele>53.0</ele><time>2026-04-22T09:56:36Z</time></trkpt><trkpt lat="42.28775076465704" lon="3.180446429431598"><ele>53.0</ele><time>2026-04-22T09:56:37Z</time></trkpt><trkpt lat="42.287857501636836" lon="3.1806008956713683"><ele>53.0</ele><time>2026-04-22T09:56:38Z</time></trkpt><trkpt lat="42.287962412121324" lon="3.1807570065989257"><ele>53.66666666666667</ele><time>2026-04-22T09:56:39Z</time></trkpt><trkpt lat="42.2880675608395" lon="3.1809151453857223"><ele>54.33333333333333</ele><time>2026-04-22T09:56:40Z</time></trkpt><trkpt lat="42.28817421328835" lon="3.181074994784116"><ele>55.0</ele><time>2026-04-22T09:56:41Z</time></trkpt><trkpt lat="42.28827616675616" lon="3.181230759074787"><ele>56.25</ele><time>2026-04-22T09:56:42Z</time></trkpt><trkpt lat="42.28837841406511" lon="3.1813797664417556"><ele>57.5</ele><time>2026-04-22T09:56:43Z</time></trkpt><trkpt lat="42.28847392582364" lon="3.1815183111236762"><ele>58.75</ele><time>2026-04-22T09:56:44Z</time></trkpt><trkpt lat="42.28856893764277" lon="3.1816456093751633"><ele>60.0</ele><time>2026-04-22T09:56:45Z</time></trkpt><trkpt lat="42.28866187481491" lon="3.1817564739035125"><ele>60.0</ele><time>2026-04-22T09:56:46Z</time></trkpt><trkpt lat="42.28875727855416" lon="3.1818530690425453"><ele>60.0</ele><time>2026-04-22T09:56:47Z</time></trkpt><trkpt lat="42.28885670609576" lon="3.1819392029255353"><ele>60.0</ele><time>2026-04-22T09:56:48Z</time></trkpt><trkpt lat="42.28896081195055" lon="3.1820069900947066"><ele>60.0</ele><time>2026-04-22T09:56:49Z</time></trkpt><trkpt lat="42.289066939117085" lon="3.1820676834452413"><ele>61.4</ele><time>2026-04-22T09:56:50Z</time></trkpt><trkpt lat="42.28916468028469" lon="3.182124683002764"><ele>62.8</ele><time>2026-04-22T09:56:51Z</time></trkpt><trkpt lat="42.28925362681803" lon="3.1821805179441793"><ele>64.2</ele><time>2026-04-22T09:56:52Z</time></trkpt><trkpt lat="42.289334386644505" lon="3.182242757622476"><ele>65.6</ele><time>2026-04-22T09:56:53Z</time></trkpt><trkpt lat="42.28939135174421" lon="3.1823219907979805"><ele>67.0</ele><time>2026-04-22T09:56:54Z</time></trkpt><trkpt lat="42.28943535208352" lon="3.182423249087551"><ele>67.0</ele><time>2026-04-22T09:56:55Z</time></trkpt><trkpt lat="42.28941720542391" lon="3.1825383715214612"><ele>67.0</ele><time>2026-04-22T09:56:56Z</time></trkpt><trkpt lat="42.28937564082845" lon="3.1826391385341397"><ele>67.0</ele><time>2026-04-22T09:56:57Z</time></trkpt><trkpt lat="42.28933672760945" lon="3.182730454257826"><ele>67.0</ele><time>2026-04-22T09:56:58Z</time></trkpt><trkpt lat="42.289312792009085" lon="3.1828154096398182"><ele>67.0</ele><time>2026-04-22T09:56:59Z</time></trkpt><trkpt lat="42.28928825561028" lon="3.182914152628799"><ele>67.0</ele><time>2026-04-22T09:57:00Z</time></trkpt><trkpt lat="42.28928021396188" lon="3.183024896682569"><ele>67.0</ele><time>2026-04-22T09:57:01Z</time></trkpt><trkpt lat="42.28929529273873" lon="3.1831383502090134"><ele>67.0</ele><time>2026-04-22T09:57:02Z</time></trkpt><trkpt lat="42.28934356444133" lon="3.183236001765168"><ele>67.0</ele><time>2026-04-22T09:57:03Z</time></trkpt><trkpt lat="42.28941858825146" lon="3.183303202138933"><ele>67.0</ele><time>2026-04-22T09:57:04Z</time></trkpt><trkpt lat="42.28951240503302" lon="3.183329586430133"><ele>67.0</ele><time>2026-04-22T09:57:05Z</time></trkpt><trkpt lat="42.2896102088913" lon="3.183333963705246"><ele>66.6</ele><time>2026-04-22T09:57:06Z</time></trkpt><trkpt lat="42.28970818742575" lon="3.1833439015222926"><ele>66.2</ele><time>2026-04-22T09:57:07Z</time></trkpt><trkpt lat="42.289811729779586" lon="3.183358218339113"><ele>65.8</ele><time>2026-04-22T09:57:08Z</time></trkpt><trkpt lat="42.28991985798771" lon="3.18336972088044"><ele>65.4</ele><time>2026-04-22T09:57:09Z</time></trkpt><trkpt lat="42.29003481675065" lon="3.1833814650545915"><ele>65.0</ele><time>2026-04-22T09:57:10Z</time></trkpt><trkpt lat="42.29015424126989" lon="3.183393221427804"><ele>66.6</ele><time>2026-04-22T09:57:11Z</time></trkpt><trkpt lat="42.29027610867374" lon="3.1834033426689357"><ele>68.2</ele><time>2026-04-22T09:57:12Z</time></trkpt><trkpt lat="42.2903893439565" lon="3.1834152569562635"><ele>69.8</ele><time>2026-04-22T09:57:13Z</time></trkpt><trkpt lat="42.29049381529393" lon="3.1834255549405475"><ele>71.4</ele><time>2026-04-22T09:57:14Z</time></trkpt><trkpt lat="42.29059095890449" lon="3.183438284390935"><ele>73.0</ele><time>2026-04-22T09:57:15Z</time></trkpt><trkpt lat="42.290678570241006" lon="3.1834814658104382"><ele>74.8</ele><time>2026-04-22T09:57:16Z</time></trkpt><trkpt lat="42.29075323659299" lon="3.183565422754455"><ele>76.6</ele><time>2026-04-22T09:57:17Z</time></trkpt><trkpt lat="42.29080544056207" lon="3.1836755163771704"><ele>78.39999999999999</ele><time>2026-04-22T09:57:18Z</time></trkpt><trkpt lat="42.290837081798244" lon="3.18380318554595"><ele>80.19999999999999</ele><time>2026-04-22T09:57:19Z</time></trkpt><trkpt lat="42.290873238675736" lon="3.1839327658924854"><ele>82.0</ele><time>2026-04-22T09:57:20Z</time></trkpt><trkpt lat="42.29091617083522" lon="3.1840603724049688"><ele>82.0</ele><time>2026-04-22T09:57:21Z</time></trkpt><trkpt lat="42.29096356649696" lon="3.184181334915154"><ele>82.0</ele><time>2026-04-22T09:57:22Z</time></trkpt><trkpt lat="42.29100820908898" lon="3.184301785950793"><ele>82.0</ele><time>2026-04-22T09:57:23Z</time></trkpt><trkpt lat="42.29105543095045" lon="3.184418224723906"><ele>82.0</ele><time>2026-04-22T09:57:24Z</time></trkpt><trkpt lat="42.29110417556814" lon="3.18453346061809"><ele>82.0</ele><time>2026-04-22T09:57:25Z</time></trkpt><trkpt lat="42.29115931830536" lon="3.1846351276141407"><ele>82.0</ele><time>2026-04-22T09:57:26Z</time></trkpt><trkpt lat="42.2912328290445" lon="3.184716095305875"><ele>82.0</ele><time>2026-04-22T09:57:27Z</time></trkpt><trkpt lat="42.29132126278114" lon="3.1847615018910536"><ele>82.0</ele><time>2026-04-22T09:57:28Z</time></trkpt><trkpt lat="42.29142016576562" lon="3.184773233297506"><ele>82.0</ele><time>2026-04-22T09:57:29Z</time></trkpt><trkpt lat="42.29152463403251" lon="3.1847516526156507"><ele>82.0</ele><time>2026-04-22T09:57:30Z</time></trkpt><trkpt lat="42.29162744429011" lon="3.184707883987777"><ele>86.5</ele><time>2026-04-22T09:57:31Z</time></trkpt><trkpt lat="42.2917374787625" lon="3.1846593412266317"><ele>91.0</ele><time>2026-04-22T09:57:32Z</time></trkpt><trkpt lat="42.291849547618085" lon="3.1846285023850065"><ele>95.5</ele><time>2026-04-22T09:57:33Z</time></trkpt><trkpt lat="42.291962036858656" lon="3.184637580919303"><ele>100.0</ele><time>2026-04-22T09:57:34Z</time></trkpt><trkpt lat="42.292063174777745" lon="3.1846882382918547"><ele>100.0</ele><time>2026-04-22T09:57:35Z</time></trkpt><trkpt lat="42.29215025193974" lon="3.1847669152810676"><ele>100.0</ele><time>2026-04-22T09:57:36Z</time></trkpt><trkpt lat="42.2922157372498" lon="3.1848844125333224"><ele>100.0</ele><time>2026-04-22T09:57:37Z</time></trkpt><trkpt lat="42.29229225511407" lon="3.184993478204817"><ele>100.0</ele><time>2026-04-22T09:57:38Z</time></trkpt><trkpt lat="42.292392594191085" lon="3.185083356794172"><ele>100.0</ele><time>2026-04-22T09:57:39Z</time></trkpt><trkpt lat="42.292499770886124" lon="3.1851651079725984"><ele>100.0</ele><time>2026-04-22T09:57:40Z</time></trkpt><trkpt lat="42.29261109047704" lon="3.1852542810776416"><ele>100.0</ele><time>2026-04-22T09:57:41Z</time></trkpt><trkpt lat="42.292723584591464" lon="3.185345655387462"><ele>100.0</ele><time>2026-04-22T09:57:42Z</time></trkpt><trkpt lat="42.29282947106513" lon="3.1854314721465067"><ele>100.0</ele><time>2026-04-22T09:57:43Z</time></trkpt><trkpt lat="42.29293292782456" lon="3.1855109713315732"><ele>100.0</ele><time>2026-04-22T09:57:44Z</time></trkpt><trkpt lat="42.29304361633606" lon="3.1855810798513007"><ele>100.0</ele><time>2026-04-22T09:57:45Z</time></trkpt><trkpt lat="42.29315372501568" lon="3.1856262871019694"><ele>100.0</ele><time>2026-04-22T09:57:46Z</time></trkpt><trkpt lat="42.293258895159035" lon="3.1856481629981297"><ele>100.0</ele><time>2026-04-22T09:57:47Z</time></trkpt><trkpt lat="42.293362508878964" lon="3.1856484936697678"><ele>100.0</ele><time>2026-04-22T09:57:48Z</time></trkpt><trkpt lat="42.29345885642258" lon="3.185626764337942"><ele>100.2</ele><time>2026-04-22T09:57:49Z</time></trkpt><trkpt lat="42.29355391601875" lon="3.1856103556666913"><ele>100.4</ele><time>2026-04-22T09:57:50Z</time></trkpt><trkpt lat="42.29364120542594" lon="3.185641956720389"><ele>100.6</ele><time>2026-04-22T09:57:51Z</time></trkpt><trkpt lat="42.29370524528636" lon="3.185728651832267"><ele>100.8</ele><time>2026-04-22T09:57:52Z</time></trkpt><trkpt lat="42.29374316797047" lon="3.185843068362919"><ele>101.0</ele><time>2026-04-22T09:57:53Z</time></trkpt><trkpt lat="42.29376988332074" lon="3.185968016894116"><ele>101.0</ele><time>2026-04-22T09:57:54Z</time></trkpt><trkpt lat="42.29380443639823" lon="3.1860912274568003"><ele>101.0</ele><time>2026-04-22T09:57:55Z</time></trkpt><trkpt lat="42.29385617011847" lon="3.1862012936638378"><ele>101.0</ele><time>2026-04-22T09:57:56Z</time></trkpt><trkpt lat="42.29394156862168" lon="3.186283930774713"><ele>101.0</ele><time>2026-04-22T09:57:57Z</time></trkpt><trkpt lat="42.294047024287934" lon="3.186331312569391"><ele>101.0</ele><time>2026-04-22T09:57:58Z</time></trkpt><trkpt lat="42.29415850858654" lon="3.186368138977849"><ele>103.0</ele><time>2026-04-22T09:57:59Z</time></trkpt><trkpt lat="42.29427314984228" lon="3.186404846102734"><ele>105.0</ele><time>2026-04-22T09:58:00Z</time></trkpt><trkpt lat="42.29437508976731" lon="3.1864501878312854"><ele>107.0</ele><time>2026-04-22T09:58:01Z</time></trkpt><trkpt lat="42.294461713758274" lon="3.186523360019425"><ele>109.0</ele><time>2026-04-22T09:58:02Z</time></trkpt><trkpt lat="42.294531947865906" lon="3.186628948354304"><ele>111.0</ele><time>2026-04-22T09:58:03Z</time></trkpt><trkpt lat="42.29457975240097" lon="3.186767260303792"><ele>111.0</ele><time>2026-04-22T09:58:04Z</time></trkpt><trkpt lat="42.294617224246444" lon="3.186916842311565"><ele>111.0</ele><time>2026-04-22T09:58:05Z</time></trkpt><trkpt lat="42.29465906599393" lon="3.187070653075589"><ele>111.0</ele><time>2026-04-22T09:58:06Z</time></trkpt><trkpt lat="42.29472120907599" lon="3.1872165633665657"><ele>111.0</ele><time>2026-04-22T09:58:07Z</time></trkpt><trkpt lat="42.29480374299159" lon="3.1873548053648015"><ele>113.5</ele><time>2026-04-22T09:58:08Z</time></trkpt><trkpt lat="42.29489707104522" lon="3.187478987019475"><ele>116.0</ele><time>2026-04-22T09:58:09Z</time></trkpt><trkpt lat="42.294990209407246" lon="3.187600358502252"><ele>118.5</ele><time>2026-04-22T09:58:10Z</time></trkpt><trkpt lat="42.29507832624536" lon="3.1877147182314642"><ele>121.0</ele><time>2026-04-22T09:58:11Z</time></trkpt><trkpt lat="42.29515992316976" lon="3.187825864330575"><ele>121.0</ele><time>2026-04-22T09:58:12Z</time></trkpt><trkpt lat="42.29524162434243" lon="3.1879299875680682"><ele>121.0</ele><time>2026-04-22T09:58:13Z</time></trkpt><trkpt lat="42.29532186564242" lon="3.188023362351187"><ele>121.0</ele><time>2026-04-22T09:58:14Z</time></trkpt><trkpt lat="42.29540863897849" lon="3.188098620381548"><ele>121.0</ele><time>2026-04-22T09:58:15Z</time></trkpt><trkpt lat="42.29550465922604" lon="3.1881513180148713"><ele>121.0</ele><time>2026-04-22T09:58:16Z</time></trkpt><trkpt lat="42.29560461919155" lon="3.1881968230818583"><ele>122.00000000000001</ele><time>2026-04-22T09:58:17Z</time></trkpt><trkpt lat="42.295700258546525" lon="3.1882435423335815"><ele>123.0</ele><time>2026-04-22T09:58:18Z</time></trkpt><trkpt lat="42.29578578023527" lon="3.1882951786767126"><ele>124.0</ele><time>2026-04-22T09:58:19Z</time></trkpt><trkpt lat="42.29585036885756" lon="3.1883724802063416"><ele>125.0</ele><time>2026-04-22T09:58:20Z</time></trkpt><trkpt lat="42.29588749550433" lon="3.1884736206793334"><ele>126.00000000000001</ele><time>2026-04-22T09:58:21Z</time></trkpt><trkpt lat="42.29589109703441" lon="3.1885802697791235"><ele>127.0</ele><time>2026-04-22T09:58:22Z</time></trkpt><trkpt lat="42.29586381264312" lon="3.1886883651333036"><ele>127.0</ele><time>2026-04-22T09:58:23Z</time></trkpt><trkpt lat="42.295794393168364" lon="3.1887697158950687"><ele>126.99999999999999</ele><time>2026-04-22T09:58:24Z</time></trkpt><trkpt lat="42.29570664717822" lon="3.1888221145284192"><ele>126.99999999999999</ele><time>2026-04-22T09:58:25Z</time></trkpt><trkpt lat="42.295615518588654" lon="3.1888782703450906"><ele>127.0</ele><time>2026-04-22T09:58:26Z</time></trkpt><trkpt lat="42.29552064124418" lon="3.1889447225410756"><ele>127.0</ele><time>2026-04-22T09:58:27Z</time></trkpt><trkpt lat="42.29541952178485" lon="3.189014178251349"><ele>126.39999999999999</ele><time>2026-04-22T09:58:28Z</time></trkpt><trkpt lat="42.2953141044447" lon="3.1890870022045594"><ele>125.79999999999998</ele><time>2026-04-22T09:58:29Z</time></trkpt><trkpt lat="42.29522376686973" lon="3.18916923401729"><ele>125.2</ele><time>2026-04-22T09:58:30Z</time></trkpt><trkpt lat="42.29515226025786" lon="3.1892678122857974"><ele>124.6</ele><time>2026-04-22T09:58:31Z</time></trkpt><trkpt lat="42.29511125844381" lon="3.189390093220198"><ele>124.0</ele><time>2026-04-22T09:58:32Z</time></trkpt><trkpt lat="42.295104529053646" lon="3.189532051770806"><ele>124.0</ele><time>2026-04-22T09:58:33Z</time></trkpt><trkpt lat="42.29512069631509" lon="3.1896796361046884"><ele>124.0</ele><time>2026-04-22T09:58:34Z</time></trkpt><trkpt lat="42.295148093253395" lon="3.1898282183181346"><ele>124.0</ele><time>2026-04-22T09:58:35Z</time></trkpt><trkpt lat="42.29517275659827" lon="3.1899843100410736"><ele>124.0</ele><time>2026-04-22T09:58:36Z</time></trkpt><trkpt lat="42.29520220652815" lon="3.190149280029003"><ele>124.75</ele><time>2026-04-22T09:58:37Z</time></trkpt><trkpt lat="42.29523149093939" lon="3.190311623924871"><ele>125.5</ele><time>2026-04-22T09:58:38Z</time></trkpt><trkpt lat="42.29526928545446" lon="3.1904663829532547"><ele>126.25</ele><time>2026-04-22T09:58:39Z</time></trkpt><trkpt lat="42.29532341751397" lon="3.1906105850884936"><ele>127.0</ele><time>2026-04-22T09:58:40Z</time></trkpt><trkpt lat="42.29538573857289" lon="3.1907523564649924"><ele>127.0</ele><time>2026-04-22T09:58:41Z</time></trkpt><trkpt lat="42.295462318074584" lon="3.19087561333726"><ele>127.0</ele><time>2026-04-22T09:58:42Z</time></trkpt><trkpt lat="42.29555667850438" lon="3.190984854118669"><ele>127.0</ele><time>2026-04-22T09:58:43Z</time></trkpt><trkpt lat="42.29565510972102" lon="3.191086309150862"><ele>127.0</ele><time>2026-04-22T09:58:44Z</time></trkpt><trkpt lat="42.295747048305394" lon="3.191186355686354"><ele>130.75</ele><time>2026-04-22T09:58:45Z</time></trkpt><trkpt lat="42.29583027950134" lon="3.1913025853142956"><ele>134.5</ele><time>2026-04-22T09:58:46Z</time></trkpt><trkpt lat="42.29590979090661" lon="3.1914072470957664"><ele>138.25</ele><time>2026-04-22T09:58:47Z</time></trkpt><trkpt lat="42.29598805023507" lon="3.1915222042714677"><ele>142.0</ele><time>2026-04-22T09:58:48Z</time></trkpt><trkpt lat="42.29606037270677" lon="3.1916370156351634"><ele>142.0</ele><time>2026-04-22T09:58:49Z</time></trkpt><trkpt lat="42.29611964169762" lon="3.19175727533056"><ele>142.0</ele><time>2026-04-22T09:58:50Z</time></trkpt><trkpt lat="42.29617928457125" lon="3.1918738454294524"><ele>142.0</ele><time>2026-04-22T09:58:51Z</time></trkpt><trkpt lat="42.29624458741647" lon="3.191982728041999"><ele>142.0</ele><time>2026-04-22T09:58:52Z</time></trkpt><trkpt lat="42.29630955352257" lon="3.1920843930591754"><ele>142.0</ele><time>2026-04-22T09:58:53Z</time></trkpt><trkpt lat="42.29637576563718" lon="3.192167305840254"><ele>145.57142857142856</ele><time>2026-04-22T09:58:54Z</time></trkpt><trkpt lat="42.29642987309664" lon="3.192241428094519"><ele>149.14285714285714</ele><time>2026-04-22T09:58:55Z</time></trkpt><trkpt lat="42.29648015109271" lon="3.192312190210332"><ele>152.71428571428572</ele><time>2026-04-22T09:58:56Z</time></trkpt><trkpt lat="42.29652983834798" lon="3.192373457689871"><ele>156.28571428571428</ele><time>2026-04-22T09:58:57Z</time></trkpt><trkpt lat="42.29656971186081" lon="3.1924455053329046"><ele>159.85714285714286</ele><time>2026-04-22T09:58:58Z</time></trkpt><trkpt lat="42.29659484587501" lon="3.1925321265221247"><ele>163.42857142857142</ele><time>2026-04-22T09:58:59Z</time></trkpt><trkpt lat="42.296599039030895" lon="3.1926271592724484"><ele>167.0</ele><time>2026-04-22T09:59:00Z</time></trkpt><trkpt lat="42.296568003601536" lon="3.192718277743075"><ele>167.0</ele><time>2026-04-22T09:59:01Z</time></trkpt><trkpt lat="42.29651303130103" lon="3.192783726933739"><ele>167.0</ele><time>2026-04-22T09:59:02Z</time></trkpt><trkpt lat="42.29643773850187" lon="3.1928008984043443"><ele>167.0</ele><time>2026-04-22T09:59:03Z</time></trkpt><trkpt lat="42.2963611935913" lon="3.1927682026830713"><ele>167.0</ele><time>2026-04-22T09:59:04Z</time></trkpt><trkpt lat="42.296292800662336" lon="3.1927169108075546"><ele>167.0</ele><time>2026-04-22T09:59:05Z</time></trkpt><trkpt lat="42.29621898787244" lon="3.192667965924311"><ele>167.0</ele><time>2026-04-22T09:59:06Z</time></trkpt><trkpt lat="42.296130867854586" lon="3.192638233961696"><ele>164.79999999999998</ele><time>2026-04-22T09:59:07Z</time></trkpt><trkpt lat="42.29603624813296" lon="3.192630041626035"><ele>162.6</ele><time>2026-04-22T09:59:08Z</time></trkpt><trkpt lat="42.29593244487657" lon="3.192623915602671"><ele>160.39999999999998</ele><time>2026-04-22T09:59:09Z</time></trkpt><trkpt lat="42.29582240480175" lon="3.192618707092865"><ele>158.2</ele><time>2026-04-22T09:59:10Z</time></trkpt><trkpt lat="42.29570726101238" lon="3.192610347158876"><ele>156.0</ele><time>2026-04-22T09:59:11Z</time></trkpt><trkpt lat="42.29558711502376" lon="3.1926059640973317"><ele>155.5</ele><time>2026-04-22T09:59:12Z</time></trkpt><trkpt lat="42.29546300233315" lon="3.1926026079802354"><ele>155.0</ele><time>2026-04-22T09:59:13Z</time></trkpt><trkpt lat="42.29533998574179" lon="3.1926040412289813"><ele>154.5</ele><time>2026-04-22T09:59:14Z</time></trkpt><trkpt lat="42.29521469217051" lon="3.1926250344528184"><ele>154.0</ele><time>2026-04-22T09:59:15Z</time></trkpt><trkpt lat="42.295087280656965" lon="3.192659932344811"><ele>154.0</ele><time>2026-04-22T09:59:16Z</time></trkpt><trkpt lat="42.294958091203156" lon="3.192701855212361"><ele>154.0</ele><time>2026-04-22T09:59:17Z</time></trkpt><trkpt lat="42.29482945972289" lon="3.192740350468535"><ele>154.0</ele><time>2026-04-22T09:59:18Z</time></trkpt><trkpt lat="42.29469502214149" lon="3.1927794376511134"><ele>154.0</ele><time>2026-04-22T09:59:19Z</time></trkpt><trkpt lat="42.29456559712443" lon="3.1928152998470707"><ele>153.0</ele><time>2026-04-22T09:59:20Z</time></trkpt><trkpt lat="42.294440389722716" lon="3.192852861557897"><ele>152.0</ele><time>2026-04-22T09:59:21Z</time></trkpt><trkpt lat="42.294318041209074" lon="3.1928899601055343"><ele>151.0</ele><time>2026-04-22T09:59:22Z</time></trkpt><trkpt lat="42.29420794878365" lon="3.1929286632353246"><ele>150.0</ele><time>2026-04-22T09:59:23Z</time></trkpt><trkpt lat="42.294107523467005" lon="3.1929839996236447"><ele>150.0</ele><time>2026-04-22T09:59:24Z</time></trkpt><trkpt lat="42.294023120637355" lon="3.193067278599072"><ele>150.0</ele><time>2026-04-22T09:59:25Z</time></trkpt><trkpt lat="42.293956877689226" lon="3.1931777094863842"><ele>150.0</ele><time>2026-04-22T09:59:26Z</time></trkpt><trkpt lat="42.29390431593614" lon="3.193305799345919"><ele>150.0</ele><time>2026-04-22T09:59:27Z</time></trkpt><trkpt lat="42.29386612592179" lon="3.193446410230025"><ele>150.0</ele><time>2026-04-22T09:59:28Z</time></trkpt><trkpt lat="42.29383892635285" lon="3.193591525765059"><ele>150.25</ele><time>2026-04-22T09:59:29Z</time></trkpt><trkpt lat="42.293826487364214" lon="3.193742079890848"><ele>150.5</ele><time>2026-04-22T09:59:30Z</time></trkpt><trkpt lat="42.2938352431784" lon="3.193896342044512"><ele>150.75</ele><time>2026-04-22T09:59:31Z</time></trkpt><trkpt lat="42.2938617688952" lon="3.194050913565709"><ele>151.0</ele><time>2026-04-22T09:59:32Z</time></trkpt><trkpt lat="42.293893631970064" lon="3.1942029614999714"><ele>159.75</ele><time>2026-04-22T09:59:33Z</time></trkpt><trkpt lat="42.29393742663268" lon="3.1943522651511063"><ele>168.5</ele><time>2026-04-22T09:59:34Z</time></trkpt><trkpt lat="42.294002760755625" lon="3.194490142223904"><ele>177.25</ele><time>2026-04-22T09:59:35Z</time></trkpt><trkpt lat="42.29408248244885" lon="3.194614128766152"><ele>186.0</ele><time>2026-04-22T09:59:36Z</time></trkpt><trkpt lat="42.294170838833" lon="3.194728806378309"><ele>183.0</ele><time>2026-04-22T09:59:37Z</time></trkpt><trkpt lat="42.294257649173794" lon="3.1948495531258603"><ele>180.0</ele><time>2026-04-22T09:59:38Z</time></trkpt><trkpt lat="42.29434715807328" lon="3.1949723485346126"><ele>177.0</ele><time>2026-04-22T09:59:39Z</time></trkpt><trkpt lat="42.29443802635657" lon="3.1950985261890468"><ele>174.0</ele><time>2026-04-22T09:59:40Z</time></trkpt><trkpt lat="42.29453078282705" lon="3.195222903445803"><ele>174.0</ele><time>2026-04-22T09:59:41Z</time></trkpt><trkpt lat="42.29462032080673" lon="3.1953439397710617"><ele>174.0</ele><time>2026-04-22T09:59:42Z</time></trkpt><trkpt lat="42.29470744169402" lon="3.1954631722987235"><ele>174.0</ele><time>2026-04-22T09:59:43Z</time></trkpt><trkpt lat="42.29480094776863" lon="3.1955762299981045"><ele>174.0</ele><time>2026-04-22T09:59:44Z</time></trkpt><trkpt lat="42.294904861003126" lon="3.1956763407905533"><ele>176.0</ele><time>2026-04-22T09:59:45Z</time></trkpt><trkpt lat="42.29501651492851" lon="3.195759704310597"><ele>178.0</ele><time>2026-04-22T09:59:46Z</time></trkpt><trkpt lat="42.29513500151741" lon="3.195831208032415"><ele>180.0</ele><time>2026-04-22T09:59:47Z</time></trkpt><trkpt lat="42.295254445581136" lon="3.1958985800346973"><ele>182.0</ele><time>2026-04-22T09:59:48Z</time></trkpt><trkpt lat="42.29578557264689" lon="3.1961999668448793"><ele>183.8</ele><time>2026-04-22T09:59:53Z</time></trkpt><trkpt lat="42.295875096333255" lon="3.1962667049992266"><ele>185.6</ele><time>2026-04-22T09:59:54Z</time></trkpt><trkpt lat="42.295945836740124" lon="3.196370078165682"><ele>187.4</ele><time>2026-04-22T09:59:55Z</time></trkpt><trkpt lat="42.29599630221624" lon="3.1964974533966632"><ele>189.20000000000002</ele><time>2026-04-22T09:59:56Z</time></trkpt><trkpt lat="42.29601831504604" lon="3.1966334824184215"><ele>191.0</ele><time>2026-04-22T09:59:57Z</time></trkpt><trkpt lat="42.29605068522234" lon="3.196767904298596"><ele>191.0</ele><time>2026-04-22T09:59:58Z</time></trkpt><trkpt lat="42.29609072955975" lon="3.196894895091723"><ele>191.0</ele><time>2026-04-22T09:59:59Z</time></trkpt><trkpt lat="42.296136503334864" lon="3.1970079446165838"><ele>191.0</ele><time>2026-04-22T10:00:00Z</time></trkpt><trkpt lat="42.2961997708786" lon="3.197102577109698"><ele>191.0</ele><time>2026-04-22T10:00:01Z</time></trkpt><trkpt lat="42.29627307526389" lon="3.1971761821709173"><ele>191.0</ele><time>2026-04-22T10:00:02Z</time></trkpt><trkpt lat="42.296337174873685" lon="3.197243259252434"><ele>191.0</ele><time>2026-04-22T10:00:03Z</time></trkpt><trkpt lat="42.2963854192194" lon="3.1973208657004384"><ele>191.0</ele><time>2026-04-22T10:00:04Z</time></trkpt><trkpt lat="42.29641708095158" lon="3.1974229905696476"><ele>191.0</ele><time>2026-04-22T10:00:05Z</time></trkpt><trkpt lat="42.296417753536005" lon="3.1975325255500673"><ele>191.0</ele><time>2026-04-22T10:00:06Z</time></trkpt><trkpt lat="42.29639780708681" lon="3.1976449401364513"><ele>191.0</ele><time>2026-04-22T10:00:07Z</time></trkpt><trkpt lat="42.29634541859083" lon="3.1977473917653234"><ele>191.0</ele><time>2026-04-22T10:00:08Z</time></trkpt><trkpt lat="42.29627548312791" lon="3.197841908893675"><ele>190.20000000000002</ele><time>2026-04-22T10:00:09Z</time></trkpt><trkpt lat="42.29620403834285" lon="3.1979398451468306"><ele>189.4</ele><time>2026-04-22T10:00:10Z</time></trkpt><trkpt lat="42.296118566664155" lon="3.1980248678473915"><ele>188.6</ele><time>2026-04-22T10:00:11Z</time></trkpt><trkpt lat="42.2960267638918" lon="3.198091703490985"><ele>187.8</ele><time>2026-04-22T10:00:12Z</time></trkpt><trkpt lat="42.295939279267415" lon="3.198152437397209"><ele>187.0</ele><time>2026-04-22T10:00:13Z</time></trkpt><trkpt lat="42.29585627574351" lon="3.198229405331624"><ele>187.0</ele><time>2026-04-22T10:00:14Z</time></trkpt><trkpt lat="42.295790722674006" lon="3.198337007386499"><ele>187.0</ele><time>2026-04-22T10:00:15Z</time></trkpt><trkpt lat="42.295730746925976" lon="3.1984634979256885"><ele>187.0</ele><time>2026-04-22T10:00:16Z</time></trkpt><trkpt lat="42.29566246928129" lon="3.198591711675696"><ele>187.0</ele><time>2026-04-22T10:00:17Z</time></trkpt><trkpt lat="42.29558837955368" lon="3.198712734246008"><ele>187.0</ele><time>2026-04-22T10:00:18Z</time></trkpt><trkpt lat="42.29549208522503" lon="3.1988065545720974"><ele>187.0</ele><time>2026-04-22T10:00:19Z</time></trkpt><trkpt lat="42.295380321044554" lon="3.198871218472909"><ele>187.0</ele><time>2026-04-22T10:00:20Z</time></trkpt><trkpt lat="42.295270134242614" lon="3.1989279112323143"><ele>187.0</ele><time>2026-04-22T10:00:21Z</time></trkpt><trkpt lat="42.29516584295452" lon="3.198985587466659"><ele>187.0</ele><time>2026-04-22T10:00:22Z</time></trkpt><trkpt lat="42.29507224392095" lon="3.1990394697015194"><ele>190.5</ele><time>2026-04-22T10:00:23Z</time></trkpt><trkpt lat="42.29499679516801" lon="3.1990866847821597"><ele>194.0</ele><time>2026-04-22T10:00:24Z</time></trkpt><trkpt lat="42.2949318192325" lon="3.1991341399435522"><ele>197.5</ele><time>2026-04-22T10:00:25Z</time></trkpt><trkpt lat="42.294868293134755" lon="3.1991936750152923"><ele>201.0</ele><time>2026-04-22T10:00:26Z</time></trkpt><trkpt lat="42.294826991202164" lon="3.1992872976764666"><ele>204.49999999999997</ele><time>2026-04-22T10:00:27Z</time></trkpt><trkpt lat="42.294808860207766" lon="3.199385212830063"><ele>208.0</ele><time>2026-04-22T10:00:28Z</time></trkpt><trkpt lat="42.294817944601085" lon="3.1994814503110827"><ele>207.99999999999997</ele><time>2026-04-22T10:00:29Z</time></trkpt><trkpt lat="42.294867154206685" lon="3.199564071313873"><ele>208.0</ele><time>2026-04-22T10:00:30Z</time></trkpt><trkpt lat="42.294945927470984" lon="3.1996076713232435"><ele>208.0</ele><time>2026-04-22T10:00:31Z</time></trkpt><trkpt lat="42.29503239976795" lon="3.1996213042142467"><ele>208.0</ele><time>2026-04-22T10:00:32Z</time></trkpt><trkpt lat="42.29512254254512" lon="3.199616250424822"><ele>207.99999999999997</ele><time>2026-04-22T10:00:33Z</time></trkpt><trkpt lat="42.29521580899911" lon="3.1996343213795853"><ele>208.0</ele><time>2026-04-22T10:00:34Z</time></trkpt><trkpt lat="42.29531047648204" lon="3.199682281988178"><ele>208.0</ele><time>2026-04-22T10:00:35Z</time></trkpt><trkpt lat="42.29540550343847" lon="3.19973815420421"><ele>208.0</ele><time>2026-04-22T10:00:36Z</time></trkpt><trkpt lat="42.29550659673217" lon="3.1997892422718497"><ele>208.0</ele><time>2026-04-22T10:00:37Z</time></trkpt><trkpt lat="42.29560874412057" lon="3.1998426126560675"><ele>208.0</ele><time>2026-04-22T10:00:38Z</time></trkpt><trkpt lat="42.29571268563667" lon="3.199897198326617"><ele>208.0</ele><time>2026-04-22T10:00:39Z</time></trkpt><trkpt lat="42.295816388184804" lon="3.199947550931023"><ele>210.2</ele><time>2026-04-22T10:00:40Z</time></trkpt><trkpt lat="42.29591790636686" lon="3.199989833417432"><ele>212.4</ele><time>2026-04-22T10:00:41Z</time></trkpt><trkpt lat="42.29601844602634" lon="3.200027179642884"><ele>214.59999999999997</ele><time>2026-04-22T10:00:42Z</time></trkpt><trkpt lat="42.296120336010716" lon="3.2000640859903853"><ele>216.79999999999998</ele><time>2026-04-22T10:00:43Z</time></trkpt><trkpt lat="42.29621839260025" lon="3.200117558358897"><ele>219.0</ele><time>2026-04-22T10:00:44Z</time></trkpt><trkpt lat="42.29631078401287" lon="3.200182637157566"><ele>219.0</ele><time>2026-04-22T10:00:45Z</time></trkpt><trkpt lat="42.29639967628984" lon="3.20026107843116"><ele>218.99999999999997</ele><time>2026-04-22T10:00:46Z</time></trkpt><trkpt lat="42.296482833190986" lon="3.200356400949302"><ele>218.99999999999997</ele><time>2026-04-22T10:00:47Z</time></trkpt><trkpt lat="42.29656018223892" lon="3.2004641611969955"><ele>219.0</ele><time>2026-04-22T10:00:48Z</time></trkpt><trkpt lat="42.296632513186495" lon="3.200587831052718"><ele>219.0</ele><time>2026-04-22T10:00:49Z</time></trkpt><trkpt lat="42.29670526691777" lon="3.20071319262284"><ele>220.39999999999998</ele><time>2026-04-22T10:00:50Z</time></trkpt><trkpt lat="42.2967747889694" lon="3.200833140328682"><ele>221.79999999999998</ele><time>2026-04-22T10:00:51Z</time></trkpt><trkpt lat="42.296839653150414" lon="3.200941175840162"><ele>223.20000000000002</ele><time>2026-04-22T10:00:52Z</time></trkpt><trkpt lat="42.296908404801464" lon="3.2010355888913757"><ele>224.60000000000002</ele><time>2026-04-22T10:00:53Z</time></trkpt><trkpt lat="42.296975795503" lon="3.2011146702654365"><ele>226.0</ele><time>2026-04-22T10:00:54Z</time></trkpt><trkpt lat="42.29703540363204" lon="3.201186983138281"><ele>225.99999999999997</ele><time>2026-04-22T10:00:55Z</time></trkpt><trkpt lat="42.2970781269375" lon="3.201274056683109"><ele>226.0</ele><time>2026-04-22T10:00:56Z</time></trkpt><trkpt lat="42.297093844882994" lon="3.201379803679035"><ele>226.0</ele><time>2026-04-22T10:00:57Z</time></trkpt><trkpt lat="42.29708289965584" lon="3.2014917028257655"><ele>226.0</ele><time>2026-04-22T10:00:58Z</time></trkpt><trkpt lat="42.29704401731652" lon="3.2015973207035104"><ele>225.99999999999997</ele><time>2026-04-22T10:00:59Z</time></trkpt><trkpt lat="42.29698203184416" lon="3.201688397810219"><ele>226.0</ele><time>2026-04-22T10:01:00Z</time></trkpt><trkpt lat="42.29691512522569" lon="3.201773167130896"><ele>227.0</ele><time>2026-04-22T10:01:01Z</time></trkpt><trkpt lat="42.296836669188814" lon="3.2018576606644564"><ele>228.00000000000003</ele><time>2026-04-22T10:01:02Z</time></trkpt><trkpt lat="42.29674241315736" lon="3.201926916179271"><ele>229.00000000000003</ele><time>2026-04-22T10:01:03Z</time></trkpt><trkpt lat="42.296639057612424" lon="3.2019758352149648"><ele>230.0</ele><time>2026-04-22T10:01:04Z</time></trkpt><trkpt lat="42.2965357321425" lon="3.2020192108205525"><ele>231.0</ele><time>2026-04-22T10:01:05Z</time></trkpt><trkpt lat="42.29643617281046" lon="3.202066215630934"><ele>230.20000000000002</ele><time>2026-04-22T10:01:06Z</time></trkpt><trkpt lat="42.29634629100064" lon="3.2021155716901033"><ele>229.40000000000003</ele><time>2026-04-22T10:01:07Z</time></trkpt><trkpt lat="42.29625852471103" lon="3.2021789473749602"><ele>228.6</ele><time>2026-04-22T10:01:08Z</time></trkpt><trkpt lat="42.29618639363468" lon="3.202266387411181"><ele>227.8</ele><time>2026-04-22T10:01:09Z</time></trkpt><trkpt lat="42.29612748548919" lon="3.202368891905423"><ele>227.0</ele><time>2026-04-22T10:01:10Z</time></trkpt><trkpt lat="42.29608982270048" lon="3.202488370860038"><ele>227.0</ele><time>2026-04-22T10:01:11Z</time></trkpt><trkpt lat="42.29607093947038" lon="3.202623794418107"><ele>227.0</ele><time>2026-04-22T10:01:12Z</time></trkpt><trkpt lat="42.29605937046076" lon="3.2027639661012053"><ele>227.0</ele><time>2026-04-22T10:01:13Z</time></trkpt><trkpt lat="42.29604216947321" lon="3.202908012931054"><ele>227.0</ele><time>2026-04-22T10:01:14Z</time></trkpt><trkpt lat="42.29602654472438" lon="3.2030505106184677"><ele>227.0</ele><time>2026-04-22T10:01:15Z</time></trkpt><trkpt lat="42.295995795828176" lon="3.2031858430737024"><ele>229.66666666666669</ele><time>2026-04-22T10:01:16Z</time></trkpt><trkpt lat="42.29595525287592" lon="3.2033038571535304"><ele>232.33333333333334</ele><time>2026-04-22T10:01:17Z</time></trkpt><trkpt lat="42.29591091608225" lon="3.203401228407069"><ele>235.0</ele><time>2026-04-22T10:01:18Z</time></trkpt><trkpt lat="42.29586544081237" lon="3.203491049579175"><ele>237.66666666666669</ele><time>2026-04-22T10:01:19Z</time></trkpt><trkpt lat="42.295823874694456" lon="3.203586177657196"><ele>240.33333333333334</ele><time>2026-04-22T10:01:20Z</time></trkpt><trkpt lat="42.295805753094676" lon="3.2036849636805096"><ele>243.0</ele><time>2026-04-22T10:01:21Z</time></trkpt><trkpt lat="42.29581346199223" lon="3.2037931310480934"><ele>243.0</ele><time>2026-04-22T10:01:22Z</time></trkpt><trkpt lat="42.29583826891566" lon="3.2039049381478293"><ele>243.0</ele><time>2026-04-22T10:01:23Z</time></trkpt><trkpt lat="42.295871748117676" lon="3.2040168785878658"><ele>243.0</ele><time>2026-04-22T10:01:24Z</time></trkpt><trkpt lat="42.295902804588884" lon="3.2041391307734886"><ele>243.0</ele><time>2026-04-22T10:01:25Z</time></trkpt><trkpt lat="42.295935258644086" lon="3.2042686852637274"><ele>243.0</ele><time>2026-04-22T10:01:26Z</time></trkpt><trkpt lat="42.29597028162718" lon="3.2044040169845798"><ele>244.0</ele><time>2026-04-22T10:01:27Z</time></trkpt><trkpt lat="42.296003708249984" lon="3.20454950245762"><ele>245.0</ele><time>2026-04-22T10:01:28Z</time></trkpt><trkpt lat="42.29601964360473" lon="3.204700895194513"><ele>246.0</ele><time>2026-04-22T10:01:29Z</time></trkpt><trkpt lat="42.29602490974833" lon="3.2048446810216773"><ele>247.0</ele><time>2026-04-22T10:01:30Z</time></trkpt><trkpt lat="42.2960304281462" lon="3.2049765860569535"><ele>248.0</ele><time>2026-04-22T10:01:31Z</time></trkpt><trkpt lat="42.29603454149176" lon="3.205089886543874"><ele>249.33333333333334</ele><time>2026-04-22T10:01:32Z</time></trkpt><trkpt lat="42.29602156898704" lon="3.2051878988777536"><ele>250.66666666666669</ele><time>2026-04-22T10:01:33Z</time></trkpt><trkpt lat="42.2959853259728" lon="3.2052784214798082"><ele>252.0</ele><time>2026-04-22T10:01:34Z</time></trkpt><trkpt lat="42.295932511542794" lon="3.20535076466722"><ele>253.33333333333331</ele><time>2026-04-22T10:01:35Z</time></trkpt><trkpt lat="42.29586153829464" lon="3.205401101781644"><ele>254.66666666666666</ele><time>2026-04-22T10:01:36Z</time></trkpt><trkpt lat="42.295778988959796" lon="3.205431109360784"><ele>256.0</ele><time>2026-04-22T10:01:37Z</time></trkpt><trkpt lat="42.29568945717215" lon="3.2054383722048954"><ele>255.99999999999997</ele><time>2026-04-22T10:01:38Z</time></trkpt><trkpt lat="42.29559622272694" lon="3.205440498803361"><ele>256.0</ele><time>2026-04-22T10:01:39Z</time></trkpt><trkpt lat="42.295509786987324" lon="3.2054380657306187"><ele>256.0</ele><time>2026-04-22T10:01:40Z</time></trkpt><trkpt lat="42.2954340203999" lon="3.205427697616641"><ele>256.0</ele><time>2026-04-22T10:01:41Z</time></trkpt><trkpt lat="42.295356457602836" lon="3.205408658749533"><ele>255.99999999999997</ele><time>2026-04-22T10:01:42Z</time></trkpt><trkpt lat="42.29527851326549" lon="3.2053845992456598"><ele>256.0</ele><time>2026-04-22T10:01:43Z</time></trkpt><trkpt lat="42.29520539533646" lon="3.205364949706106"><ele>257.66666666666663</ele><time>2026-04-22T10:01:44Z</time></trkpt><trkpt lat="42.29513351376026" lon="3.205379131898635"><ele>259.3333333333333</ele><time>2026-04-22T10:01:45Z</time></trkpt><trkpt lat="42.2950618811186" lon="3.205428253728209"><ele>261.0</ele><time>2026-04-22T10:01:46Z</time></trkpt><trkpt lat="42.29500189118462" lon="3.205501653885618"><ele>262.6666666666667</ele><time>2026-04-22T10:01:47Z</time></trkpt><trkpt lat="42.294951374185246" lon="3.205599666515939"><ele>264.33333333333337</ele><time>2026-04-22T10:01:48Z</time></trkpt><trkpt lat="42.29489600302937" lon="3.2057081500411244"><ele>266.0</ele><time>2026-04-22T10:01:49Z</time></trkpt><trkpt lat="42.29483305178806" lon="3.2058191262357383"><ele>266.0</ele><time>2026-04-22T10:01:50Z</time></trkpt><trkpt lat="42.294760333429174" lon="3.205937166721592"><ele>266.0</ele><time>2026-04-22T10:01:51Z</time></trkpt><trkpt lat="42.29468345465486" lon="3.2060607882616634"><ele>266.0</ele><time>2026-04-22T10:01:52Z</time></trkpt><trkpt lat="42.29460057064803" lon="3.2061949739188877"><ele>266.0</ele><time>2026-04-22T10:01:53Z</time></trkpt><trkpt lat="42.294511593728956" lon="3.206338687945836"><ele>265.0</ele><time>2026-04-22T10:01:54Z</time></trkpt><trkpt lat="42.29442303212591" lon="3.206477988333411"><ele>264.0</ele><time>2026-04-22T10:01:55Z</time></trkpt><trkpt lat="42.29432942381346" lon="3.2066172873518846"><ele>263.0</ele><time>2026-04-22T10:01:56Z</time></trkpt><trkpt lat="42.29422958144095" lon="3.206758856318265"><ele>262.0</ele><time>2026-04-22T10:01:57Z</time></trkpt><trkpt lat="42.29412993724155" lon="3.2069006858748894"><ele>262.0</ele><time>2026-04-22T10:01:58Z</time></trkpt><trkpt lat="42.294029476618164" lon="3.2070369420090583"><ele>262.0</ele><time>2026-04-22T10:01:59Z</time></trkpt><trkpt lat="42.293929609916695" lon="3.2071681477467466"><ele>262.0</ele><time>2026-04-22T10:02:00Z</time></trkpt><trkpt lat="42.29382252734424" lon="3.2072891530705263"><ele>262.0</ele><time>2026-04-22T10:02:01Z</time></trkpt><trkpt lat="42.293706684514746" lon="3.2073849278545845"><ele>263.75</ele><time>2026-04-22T10:02:02Z</time></trkpt><trkpt lat="42.293584666332976" lon="3.2074620149580917"><ele>265.5</ele><time>2026-04-22T10:02:03Z</time></trkpt><trkpt lat="42.29345815950654" lon="3.207522476822044"><ele>267.25</ele><time>2026-04-22T10:02:04Z</time></trkpt><trkpt lat="42.29332667446639" lon="3.207545164552542"><ele>269.0</ele><time>2026-04-22T10:02:05Z</time></trkpt><trkpt lat="42.293193671778305" lon="3.2075465864790456"><ele>268.75</ele><time>2026-04-22T10:02:06Z</time></trkpt><trkpt lat="42.29305795296941" lon="3.2075231804098236"><ele>268.5</ele><time>2026-04-22T10:02:07Z</time></trkpt><trkpt lat="42.29292422481843" lon="3.207510353662738"><ele>268.25</ele><time>2026-04-22T10:02:08Z</time></trkpt><trkpt lat="42.29279183414825" lon="3.207517391278916"><ele>268.0</ele><time>2026-04-22T10:02:09Z</time></trkpt><trkpt lat="42.29265776139655" lon="3.207551028841159"><ele>268.0</ele><time>2026-04-22T10:02:10Z</time></trkpt><trkpt lat="42.29252470783346" lon="3.2075944781565706"><ele>268.0</ele><time>2026-04-22T10:02:11Z</time></trkpt><trkpt lat="42.29239632651134" lon="3.207631072444718"><ele>268.0</ele><time>2026-04-22T10:02:12Z</time></trkpt><trkpt lat="42.2922768078933" lon="3.2076671323834804"><ele>268.0</ele><time>2026-04-22T10:02:13Z</time></trkpt><trkpt lat="42.29216609365369" lon="3.20770589030753"><ele>265.25</ele><time>2026-04-22T10:02:14Z</time></trkpt><trkpt lat="42.29205601932289" lon="3.2077401774079815"><ele>262.5</ele><time>2026-04-22T10:02:15Z</time></trkpt><trkpt lat="42.291941039885344" lon="3.207780745859632"><ele>259.75</ele><time>2026-04-22T10:02:16Z</time></trkpt><trkpt lat="42.29182630468517" lon="3.2078350897556196"><ele>257.0</ele><time>2026-04-22T10:02:17Z</time></trkpt><trkpt lat="42.29171910681523" lon="3.207898399207979"><ele>257.0</ele><time>2026-04-22T10:02:18Z</time></trkpt><trkpt lat="42.291617270763325" lon="3.2079654491137433"><ele>257.0</ele><time>2026-04-22T10:02:19Z</time></trkpt><trkpt lat="42.29151972902375" lon="3.2080295932856018"><ele>257.0</ele><time>2026-04-22T10:02:20Z</time></trkpt><trkpt lat="42.29142334866213" lon="3.2080930983560005"><ele>257.0</ele><time>2026-04-22T10:02:21Z</time></trkpt><trkpt lat="42.291329317919995" lon="3.208152244205761"><ele>257.0</ele><time>2026-04-22T10:02:22Z</time></trkpt><trkpt lat="42.291229617389654" lon="3.2081889632166773"><ele>256.25</ele><time>2026-04-22T10:02:23Z</time></trkpt><trkpt lat="42.291123508266374" lon="3.208193830725122"><ele>255.5</ele><time>2026-04-22T10:02:24Z</time></trkpt><trkpt lat="42.29101419722822" lon="3.2081703253286933"><ele>254.75</ele><time>2026-04-22T10:02:25Z</time></trkpt><trkpt lat="42.290905279675194" lon="3.2081221647960536"><ele>254.0</ele><time>2026-04-22T10:02:26Z</time></trkpt><trkpt lat="42.29079640075177" lon="3.2080530446880964"><ele>254.0</ele><time>2026-04-22T10:02:27Z</time></trkpt><trkpt lat="42.2906842059709" lon="3.2079759213324888"><ele>254.0</ele><time>2026-04-22T10:02:28Z</time></trkpt><trkpt lat="42.29056989573272" lon="3.2079011356605402"><ele>254.0</ele><time>2026-04-22T10:02:29Z</time></trkpt><trkpt lat="42.290458122453394" lon="3.207832375330416"><ele>254.0</ele><time>2026-04-22T10:02:30Z</time></trkpt><trkpt lat="42.29035215900688" lon="3.207769284852779"><ele>256.8</ele><time>2026-04-22T10:02:31Z</time></trkpt><trkpt lat="42.290253715725584" lon="3.2077174443502825"><ele>259.59999999999997</ele><time>2026-04-22T10:02:32Z</time></trkpt><trkpt lat="42.290158548465065" lon="3.207696926656069"><ele>262.4</ele><time>2026-04-22T10:02:33Z</time></trkpt><trkpt lat="42.29006982416026" lon="3.2077281576975674"><ele>265.2</ele><time>2026-04-22T10:02:34Z</time></trkpt><trkpt lat="42.290001828205206" lon="3.207810906588658"><ele>268.0</ele><time>2026-04-22T10:02:35Z</time></trkpt><trkpt lat="42.28996555421353" lon="3.2079114593622227"><ele>268.0</ele><time>2026-04-22T10:02:36Z</time></trkpt><trkpt lat="42.28995115051774" lon="3.208031861636196"><ele>268.0</ele><time>2026-04-22T10:02:37Z</time></trkpt><trkpt lat="42.289944084719224" lon="3.2081527203389406"><ele>268.0</ele><time>2026-04-22T10:02:38Z</time></trkpt><trkpt lat="42.289922701685256" lon="3.2082712134470355"><ele>268.0</ele><time>2026-04-22T10:02:39Z</time></trkpt><trkpt lat="42.28988333576299" lon="3.2083816793032858"><ele>268.0</ele><time>2026-04-22T10:02:40Z</time></trkpt><trkpt lat="42.28982515441442" lon="3.208476060192244"><ele>264.2</ele><time>2026-04-22T10:02:41Z</time></trkpt><trkpt lat="42.28975181576603" lon="3.2085587823486144"><ele>260.4</ele><time>2026-04-22T10:02:42Z</time></trkpt><trkpt lat="42.28967786865674" lon="3.2086455340138493"><ele>256.59999999999997</ele><time>2026-04-22T10:02:43Z</time></trkpt><trkpt lat="42.2896127085209" lon="3.20873690508753"><ele>252.79999999999998</ele><time>2026-04-22T10:02:44Z</time></trkpt><trkpt lat="42.289562580033255" lon="3.208840940837067"><ele>249.0</ele><time>2026-04-22T10:02:45Z</time></trkpt><trkpt lat="42.289525957893" lon="3.208968802176132"><ele>251.6</ele><time>2026-04-22T10:02:46Z</time></trkpt><trkpt lat="42.28949419632144" lon="3.2091042224902964"><ele>254.2</ele><time>2026-04-22T10:02:47Z</time></trkpt><trkpt lat="42.28945831238412" lon="3.2092445688357394"><ele>256.79999999999995</ele><time>2026-04-22T10:02:48Z</time></trkpt><trkpt lat="42.28942328461314" lon="3.209383696233257"><ele>259.4</ele><time>2026-04-22T10:02:49Z</time></trkpt><trkpt lat="42.28939061336695" lon="3.2095243831321403"><ele>262.0</ele><time>2026-04-22T10:02:50Z</time></trkpt><trkpt lat="42.28935505842044" lon="3.2096628574892043"><ele>262.0</ele><time>2026-04-22T10:02:51Z</time></trkpt><trkpt lat="42.289308005084735" lon="3.209796414142016"><ele>262.0</ele><time>2026-04-22T10:02:52Z</time></trkpt><trkpt lat="42.28924757223002" lon="3.2099232055342157"><ele>262.0</ele><time>2026-04-22T10:02:53Z</time></trkpt><trkpt lat="42.28917147767826" lon="3.210041721008246"><ele>262.0</ele><time>2026-04-22T10:02:54Z</time></trkpt><trkpt lat="42.28908284116541" lon="3.2101508050086944"><ele>259.0</ele><time>2026-04-22T10:02:55Z</time></trkpt><trkpt lat="42.28898421990818" lon="3.210243789887413"><ele>256.0</ele><time>2026-04-22T10:02:56Z</time></trkpt><trkpt lat="42.288882114222204" lon="3.2103302200888906"><ele>253.0</ele><time>2026-04-22T10:02:57Z</time></trkpt><trkpt lat="42.288786202809916" lon="3.210415641511265"><ele>250.0</ele><time>2026-04-22T10:02:58Z</time></trkpt><trkpt lat="42.28869648085907" lon="3.210498824662722"><ele>250.0</ele><time>2026-04-22T10:02:59Z</time></trkpt><trkpt lat="42.28861057405771" lon="3.2105747856647726"><ele>250.0</ele><time>2026-04-22T10:03:00Z</time></trkpt><trkpt lat="42.28853099287158" lon="3.210646253230819"><ele>250.0</ele><time>2026-04-22T10:03:01Z</time></trkpt><trkpt lat="42.288458049025444" lon="3.210714754662253"><ele>250.0</ele><time>2026-04-22T10:03:02Z</time></trkpt><trkpt lat="42.28839165806165" lon="3.210783286319495"><ele>250.0</ele><time>2026-04-22T10:03:03Z</time></trkpt><trkpt lat="42.28833895563852" lon="3.210866318026721"><ele>253.66666666666666</ele><time>2026-04-22T10:03:04Z</time></trkpt><trkpt lat="42.28830452592948" lon="3.210965484036163"><ele>257.3333333333333</ele><time>2026-04-22T10:03:05Z</time></trkpt><trkpt lat="42.28829642716142" lon="3.2110740927810952"><ele>261.0</ele><time>2026-04-22T10:03:06Z</time></trkpt><trkpt lat="42.28831859738676" lon="3.211176877021674"><ele>264.6666666666667</ele><time>2026-04-22T10:03:07Z</time></trkpt><trkpt lat="42.288350398766866" lon="3.2112773224680176"><ele>268.33333333333337</ele><time>2026-04-22T10:03:08Z</time></trkpt><trkpt lat="42.28838888864632" lon="3.2113859607949418"><ele>272.0</ele><time>2026-04-22T10:03:09Z</time></trkpt><trkpt lat="42.2884283631699" lon="3.2115010210559345"><ele>272.0</ele><time>2026-04-22T10:03:10Z</time></trkpt><trkpt lat="42.288475429514975" lon="3.2116209841450623"><ele>272.0</ele><time>2026-04-22T10:03:11Z</time></trkpt><trkpt lat="42.288525811312454" lon="3.211743716719664"><ele>272.0</ele><time>2026-04-22T10:03:12Z</time></trkpt><trkpt lat="42.2885751725178" lon="3.211868504105024"><ele>272.0</ele><time>2026-04-22T10:03:13Z</time></trkpt><trkpt lat="42.28861772398496" lon="3.2119958568674067"><ele>272.0</ele><time>2026-04-22T10:03:14Z</time></trkpt><trkpt lat="42.28864405732663" lon="3.2121296715835927"><ele>272.0</ele><time>2026-04-22T10:03:15Z</time></trkpt><trkpt lat="42.28864612941115" lon="3.2122693904546726"><ele>272.0</ele><time>2026-04-22T10:03:16Z</time></trkpt><trkpt lat="42.28863194388523" lon="3.212408140007253"><ele>272.0</ele><time>2026-04-22T10:03:17Z</time></trkpt><trkpt lat="42.28861236959464" lon="3.2125449560285357"><ele>272.0</ele><time>2026-04-22T10:03:18Z</time></trkpt><trkpt lat="42.28861906024902" lon="3.2126863752626122"><ele>272.0</ele><time>2026-04-22T10:03:19Z</time></trkpt><trkpt lat="42.28864215619456" lon="3.2128268373727944"><ele>269.8</ele><time>2026-04-22T10:03:20Z</time></trkpt><trkpt lat="42.28866728221112" lon="3.212969142021866"><ele>267.6</ele><time>2026-04-22T10:03:21Z</time></trkpt><trkpt lat="42.28869247536413" lon="3.213110855364559"><ele>265.40000000000003</ele><time>2026-04-22T10:03:22Z</time></trkpt><trkpt lat="42.28871624280444" lon="3.213247616531415"><ele>263.2</ele><time>2026-04-22T10:03:23Z</time></trkpt><trkpt lat="42.28873909003389" lon="3.2133814368864684"><ele>261.0</ele><time>2026-04-22T10:03:24Z</time></trkpt><trkpt lat="42.288762010115164" lon="3.213518160796681"><ele>260.2</ele><time>2026-04-22T10:03:25Z</time></trkpt><trkpt lat="42.28878622737449" lon="3.213655122469367"><ele>259.40000000000003</ele><time>2026-04-22T10:03:26Z</time></trkpt><trkpt lat="42.28881130968812" lon="3.2137897816622396"><ele>258.6</ele><time>2026-04-22T10:03:27Z</time></trkpt><trkpt lat="42.28883879582732" lon="3.21391380812197"><ele>257.8</ele><time>2026-04-22T10:03:28Z</time></trkpt><trkpt lat="42.288868870932106" lon="3.2140334791175813"><ele>257.0</ele><time>2026-04-22T10:03:29Z</time></trkpt><trkpt lat="42.28889914913024" lon="3.2141534225988546"><ele>259.0</ele><time>2026-04-22T10:03:30Z</time></trkpt><trkpt lat="42.28893044349757" lon="3.2142744372820053"><ele>261.0</ele><time>2026-04-22T10:03:31Z</time></trkpt><trkpt lat="42.2889580505203" lon="3.2143958909936963"><ele>263.0</ele><time>2026-04-22T10:03:32Z</time></trkpt><trkpt lat="42.288953717752335" lon="3.2145261072439255"><ele>265.0</ele><time>2026-04-22T10:03:33Z</time></trkpt><trkpt lat="42.28893537515941" lon="3.214659840890148"><ele>267.0</ele><time>2026-04-22T10:03:34Z</time></trkpt><trkpt lat="42.28891567452686" lon="3.2148002215151177"><ele>270.8</ele><time>2026-04-22T10:03:35Z</time></trkpt><trkpt lat="42.28889587091706" lon="3.2149447881158912"><ele>274.6</ele><time>2026-04-22T10:03:36Z</time></trkpt><trkpt lat="42.28887608803498" lon="3.215086851550429"><ele>278.40000000000003</ele><time>2026-04-22T10:03:37Z</time></trkpt><trkpt lat="42.28884894450228" lon="3.2152222284577303"><ele>282.2</ele><time>2026-04-22T10:03:38Z</time></trkpt><trkpt lat="42.28880769899729" lon="3.2153551082845326"><ele>286.0</ele><time>2026-04-22T10:03:39Z</time></trkpt><trkpt lat="42.288753903850505" lon="3.2154814757932284"><ele>286.0</ele><time>2026-04-22T10:03:40Z</time></trkpt><trkpt lat="42.28869351468586" lon="3.215599830354831"><ele>286.0</ele><time>2026-04-22T10:03:41Z</time></trkpt><trkpt lat="42.28863157486811" lon="3.2157194145176136"><ele>286.0</ele><time>2026-04-22T10:03:42Z</time></trkpt><trkpt lat="42.2885726416192" lon="3.215834213897131"><ele>286.0</ele><time>2026-04-22T10:03:43Z</time></trkpt><trkpt lat="42.28851568006923" lon="3.2159422142231056"><ele>286.0</ele><time>2026-04-22T10:03:44Z</time></trkpt><trkpt lat="42.2884596255094" lon="3.216044353364232"><ele>286.8333333333333</ele><time>2026-04-22T10:03:45Z</time></trkpt><trkpt lat="42.28841271248412" lon="3.2161421669338734"><ele>287.66666666666663</ele><time>2026-04-22T10:03:46Z</time></trkpt><trkpt lat="42.28839262449746" lon="3.2162495368650954"><ele>288.5</ele><time>2026-04-22T10:03:47Z</time></trkpt><trkpt lat="42.288397405648375" lon="3.216361209437543"><ele>289.3333333333333</ele><time>2026-04-22T10:03:48Z</time></trkpt><trkpt lat="42.28843204623168" lon="3.216465829309804"><ele>290.1666666666667</ele><time>2026-04-22T10:03:49Z</time></trkpt><trkpt lat="42.28850358513314" lon="3.2165482639097585"><ele>291.0</ele><time>2026-04-22T10:03:50Z</time></trkpt><trkpt lat="42.28859015145948" lon="3.216604808771132"><ele>292.0</ele><time>2026-04-22T10:03:51Z</time></trkpt><trkpt lat="42.28868494243069" lon="3.2166470214983383"><ele>293.0</ele><time>2026-04-22T10:03:52Z</time></trkpt><trkpt lat="42.288777390541796" lon="3.2167055438002032"><ele>294.0</ele><time>2026-04-22T10:03:53Z</time></trkpt><trkpt lat="42.288871031699884" lon="3.2167648161049494"><ele>295.0</ele><time>2026-04-22T10:03:54Z</time></trkpt><trkpt lat="42.28896382947569" lon="3.216817571035311"><ele>296.0</ele><time>2026-04-22T10:03:55Z</time></trkpt><trkpt lat="42.28905909315649" lon="3.2168502526671277"><ele>292.0</ele><time>2026-04-22T10:03:56Z</time></trkpt><trkpt lat="42.289162736433624" lon="3.2168640269376056"><ele>288.0</ele><time>2026-04-22T10:03:57Z</time></trkpt><trkpt lat="42.28927349521426" lon="3.2168608755162404"><ele>284.0</ele><time>2026-04-22T10:03:58Z</time></trkpt><trkpt lat="42.28938920420908" lon="3.2168587831025204"><ele>280.0</ele><time>2026-04-22T10:03:59Z</time></trkpt><trkpt lat="42.28950979717898" lon="3.2168597829564574"><ele>280.0</ele><time>2026-04-22T10:04:00Z</time></trkpt><trkpt lat="42.289630951349515" lon="3.2168638652825203"><ele>280.0</ele><time>2026-04-22T10:04:01Z</time></trkpt><trkpt lat="42.289745057489604" lon="3.216864351395084"><ele>280.0</ele><time>2026-04-22T10:04:02Z</time></trkpt><trkpt lat="42.2898555279277" lon="3.216862678597929"><ele>280.0</ele><time>2026-04-22T10:04:03Z</time></trkpt><trkpt lat="42.289959991226866" lon="3.2168649762954256"><ele>278.8</ele><time>2026-04-22T10:04:04Z</time></trkpt><trkpt lat="42.2900591554402" lon="3.2168663411756566"><ele>277.6</ele><time>2026-04-22T10:04:05Z</time></trkpt><trkpt lat="42.290151553244016" lon="3.2168700691970513"><ele>276.4</ele><time>2026-04-22T10:04:06Z</time></trkpt><trkpt lat="42.29023882082069" lon="3.216897053168009"><ele>275.2</ele><time>2026-04-22T10:04:07Z</time></trkpt><trkpt lat="42.29032282903993" lon="3.2169550367568256"><ele>274.0</ele><time>2026-04-22T10:04:08Z</time></trkpt><trkpt lat="42.29040421639437" lon="3.217035309330397"><ele>274.0</ele><time>2026-04-22T10:04:09Z</time></trkpt><trkpt lat="42.290493713384556" lon="3.217114524045167"><ele>274.0</ele><time>2026-04-22T10:04:10Z</time></trkpt><trkpt lat="42.29058679933829" lon="3.2171963271137773"><ele>274.0</ele><time>2026-04-22T10:04:11Z</time></trkpt><trkpt lat="42.29068299652542" lon="3.217282506128625"><ele>274.0</ele><time>2026-04-22T10:04:12Z</time></trkpt><trkpt lat="42.29078125143635" lon="3.2173683575942134"><ele>275.4</ele><time>2026-04-22T10:04:13Z</time></trkpt><trkpt lat="42.290879062759466" lon="3.21745034219099"><ele>276.79999999999995</ele><time>2026-04-22T10:04:14Z</time></trkpt><trkpt lat="42.29097543928358" lon="3.217532299804723"><ele>278.20000000000005</ele><time>2026-04-22T10:04:15Z</time></trkpt><trkpt lat="42.29106681618003" lon="3.217613624381842"><ele>279.6</ele><time>2026-04-22T10:04:16Z</time></trkpt><trkpt lat="42.29115376561332" lon="3.217690074062899"><ele>281.0</ele><time>2026-04-22T10:04:17Z</time></trkpt><trkpt lat="42.291235734292236" lon="3.2177619553022967"><ele>281.0</ele><time>2026-04-22T10:04:18Z</time></trkpt><trkpt lat="42.29131238004237" lon="3.2178370802873997"><ele>281.0</ele><time>2026-04-22T10:04:19Z</time></trkpt><trkpt lat="42.291372864255194" lon="3.217939331913221"><ele>281.0</ele><time>2026-04-22T10:04:20Z</time></trkpt><trkpt lat="42.29141748606948" lon="3.2180621236899674"><ele>281.0</ele><time>2026-04-22T10:04:21Z</time></trkpt><trkpt lat="42.29144548093566" lon="3.2181972649588184"><ele>281.0</ele><time>2026-04-22T10:04:22Z</time></trkpt><trkpt lat="42.291474023683925" lon="3.218338363944639"><ele>280.6</ele><time>2026-04-22T10:04:23Z</time></trkpt><trkpt lat="42.291502545740265" lon="3.218478579601535"><ele>280.20000000000005</ele><time>2026-04-22T10:04:24Z</time></trkpt><trkpt lat="42.291530422801515" lon="3.2186190463667352"><ele>279.79999999999995</ele><time>2026-04-22T10:04:25Z</time></trkpt><trkpt lat="42.29155872816033" lon="3.2187603544381895"><ele>279.4</ele><time>2026-04-22T10:04:26Z</time></trkpt><trkpt lat="42.291586053777564" lon="3.2188951121829645"><ele>279.0</ele><time>2026-04-22T10:04:27Z</time></trkpt><trkpt lat="42.29161150617001" lon="3.2190252270948805"><ele>279.0</ele><time>2026-04-22T10:04:28Z</time></trkpt><trkpt lat="42.291629132115105" lon="3.219149552827691"><ele>279.0</ele><time>2026-04-22T10:04:29Z</time></trkpt><trkpt lat="42.29162540298164" lon="3.219269213859457"><ele>279.0</ele><time>2026-04-22T10:04:30Z</time></trkpt><trkpt lat="42.29160194299892" lon="3.219386817602758"><ele>279.0</ele><time>2026-04-22T10:04:31Z</time></trkpt><trkpt lat="42.29156008118215" lon="3.2195006673228117"><ele>279.0</ele><time>2026-04-22T10:04:32Z</time></trkpt><trkpt lat="42.2915066752808" lon="3.2196067273189106"><ele>279.0</ele><time>2026-04-22T10:04:33Z</time></trkpt><trkpt lat="42.29143645123477" lon="3.219690703567203"><ele>279.0</ele><time>2026-04-22T10:04:34Z</time></trkpt><trkpt lat="42.29135414725905" lon="3.219741262826084"><ele>279.0</ele><time>2026-04-22T10:04:35Z</time></trkpt><trkpt lat="42.29126171001455" lon="3.219752908995374"><ele>279.0</ele><time>2026-04-22T10:04:36Z</time></trkpt><trkpt lat="42.29116927091515" lon="3.2197067216713227"><ele>279.0</ele><time>2026-04-22T10:04:37Z</time></trkpt><trkpt lat="42.291082486044324" lon="3.2196350915714302"><ele>280.0</ele><time>2026-04-22T10:04:38Z</time></trkpt><trkpt lat="42.29099082339075" lon="3.2195757862385697"><ele>281.0</ele><time>2026-04-22T10:04:39Z</time></trkpt><trkpt lat="42.29089513095085" lon="3.2195396400905065"><ele>282.0</ele><time>2026-04-22T10:04:40Z</time></trkpt><trkpt lat="42.29079734216109" lon="3.2195358509544003"><ele>283.0</ele><time>2026-04-22T10:04:41Z</time></trkpt><trkpt lat="42.29069865716905" lon="3.2195566911476265"><ele>284.0</ele><time>2026-04-22T10:04:42Z</time></trkpt><trkpt lat="42.29060128238257" lon="3.219585930226134"><ele>284.2</ele><time>2026-04-22T10:04:43Z</time></trkpt><trkpt lat="42.290506690166495" lon="3.2196134637563167"><ele>284.4</ele><time>2026-04-22T10:04:44Z</time></trkpt><trkpt lat="42.29042048448778" lon="3.2196553476118472"><ele>284.6</ele><time>2026-04-22T10:04:45Z</time></trkpt><trkpt lat="42.29034668569257" lon="3.21972713983624"><ele>284.8</ele><time>2026-04-22T10:04:46Z</time></trkpt><trkpt lat="42.29029164971862" lon="3.219828380296856"><ele>285.0</ele><time>2026-04-22T10:04:47Z</time></trkpt><trkpt lat="42.290261313436595" lon="3.219949433317354"><ele>285.0</ele><time>2026-04-22T10:04:48Z</time></trkpt><trkpt lat="42.290247671549444" lon="3.220078182463937"><ele>285.0</ele><time>2026-04-22T10:04:49Z</time></trkpt><trkpt lat="42.29023310620512" lon="3.220213589353403"><ele>285.0</ele><time>2026-04-22T10:04:50Z</time></trkpt><trkpt lat="42.29021331715064" lon="3.2203470684617477"><ele>285.0</ele><time>2026-04-22T10:04:51Z</time></trkpt><trkpt lat="42.29018148771646" lon="3.2204760142250772"><ele>285.0</ele><time>2026-04-22T10:04:52Z</time></trkpt><trkpt lat="42.290132909388504" lon="3.22058678186184"><ele>285.0</ele><time>2026-04-22T10:04:53Z</time></trkpt><trkpt lat="42.29005631718694" lon="3.2206703388491738"><ele>285.0</ele><time>2026-04-22T10:04:54Z</time></trkpt><trkpt lat="42.289961623566235" lon="3.220730974941805"><ele>285.0</ele><time>2026-04-22T10:04:55Z</time></trkpt><trkpt lat="42.28986447766232" lon="3.220791573856639"><ele>285.0</ele><time>2026-04-22T10:04:56Z</time></trkpt><trkpt lat="42.289768761309084" lon="3.2208514807243236"><ele>285.0</ele><time>2026-04-22T10:04:57Z</time></trkpt><trkpt lat="42.28966819561974" lon="3.2208953296590757"><ele>285.0</ele><time>2026-04-22T10:04:58Z</time></trkpt><trkpt lat="42.28955788380741" lon="3.2209263379569304"><ele>285.0</ele><time>2026-04-22T10:04:59Z</time></trkpt><trkpt lat="42.28944622673692" lon="3.2209591376621094"><ele>285.0</ele><time>2026-04-22T10:05:00Z</time></trkpt><trkpt lat="42.289339961422954" lon="3.2210092620421515"><ele>285.0</ele><time>2026-04-22T10:05:01Z</time></trkpt><trkpt lat="42.2892380378199" lon="3.2210792810976803"><ele>285.0</ele><time>2026-04-22T10:05:02Z</time></trkpt><trkpt lat="42.289139310860755" lon="3.221166162902681"><ele>285.0</ele><time>2026-04-22T10:05:03Z</time></trkpt><trkpt lat="42.289039454386895" lon="3.221255378881702"><ele>285.0</ele><time>2026-04-22T10:05:04Z</time></trkpt><trkpt lat="42.288941467666106" lon="3.2213388864956096"><ele>285.0</ele><time>2026-04-22T10:05:05Z</time></trkpt><trkpt lat="42.28884210102182" lon="3.221404284726187"><ele>288.0</ele><time>2026-04-22T10:05:06Z</time></trkpt><trkpt lat="42.28873730186928" lon="3.2214381900552684"><ele>291.0</ele><time>2026-04-22T10:05:07Z</time></trkpt><trkpt lat="42.28862426115812" lon="3.221460853882"><ele>294.0</ele><time>2026-04-22T10:05:08Z</time></trkpt><trkpt lat="42.28850357040189" lon="3.221493663992722"><ele>297.0</ele><time>2026-04-22T10:05:09Z</time></trkpt><trkpt lat="42.288380870466405" lon="3.221524475148032"><ele>293.25</ele><time>2026-04-22T10:05:10Z</time></trkpt><trkpt lat="42.288251787166644" lon="3.2215580888950033"><ele>289.5</ele><time>2026-04-22T10:05:11Z</time></trkpt><trkpt lat="42.28812544660715" lon="3.221589870568875"><ele>285.75</ele><time>2026-04-22T10:05:12Z</time></trkpt><trkpt lat="42.288002044495165" lon="3.221622072980038"><ele>282.0</ele><time>2026-04-22T10:05:13Z</time></trkpt><trkpt lat="42.28788200413147" lon="3.221655482212252"><ele>282.0</ele><time>2026-04-22T10:05:14Z</time></trkpt><trkpt lat="42.287766969133536" lon="3.221685406129487"><ele>282.0</ele><time>2026-04-22T10:05:15Z</time></trkpt><trkpt lat="42.287657148803746" lon="3.2217129193455087"><ele>282.0</ele><time>2026-04-22T10:05:16Z</time></trkpt><trkpt lat="42.28755272076083" lon="3.2217397997851256"><ele>282.0</ele><time>2026-04-22T10:05:17Z</time></trkpt><trkpt lat="42.28745391112782" lon="3.2217655334546853"><ele>282.0</ele><time>2026-04-22T10:05:18Z</time></trkpt><trkpt lat="42.287359759828625" lon="3.221789267837916"><ele>282.0</ele><time>2026-04-22T10:05:19Z</time></trkpt><trkpt lat="42.28727084622567" lon="3.2218129199209935"><ele>282.0</ele><time>2026-04-22T10:05:20Z</time></trkpt><trkpt lat="42.287187541946885" lon="3.2218359552757927"><ele>282.0</ele><time>2026-04-22T10:05:21Z</time></trkpt><trkpt lat="42.287114640260974" lon="3.2218764837301235"><ele>282.0</ele><time>2026-04-22T10:05:22Z</time></trkpt><trkpt lat="42.28706416544236" lon="3.221952607257111"><ele>282.0</ele><time>2026-04-22T10:05:23Z</time></trkpt><trkpt lat="42.28703780555772" lon="3.222048900880342"><ele>282.0</ele><time>2026-04-22T10:05:24Z</time></trkpt><trkpt lat="42.28704366060907" lon="3.2221578392515036"><ele>281.6</ele><time>2026-04-22T10:05:25Z</time></trkpt><trkpt lat="42.28707224514872" lon="3.22225795084076"><ele>281.2</ele><time>2026-04-22T10:05:26Z</time></trkpt><trkpt lat="42.28713920546321" lon="3.222337864349589"><ele>280.8</ele><time>2026-04-22T10:05:27Z</time></trkpt><trkpt lat="42.28722769854187" lon="3.2223799079013244"><ele>280.4</ele><time>2026-04-22T10:05:28Z</time></trkpt><trkpt lat="42.28732606739946" lon="3.222388263034811"><ele>280.0</ele><time>2026-04-22T10:05:29Z</time></trkpt><trkpt lat="42.287431260265976" lon="3.2223931766579796"><ele>280.0</ele><time>2026-04-22T10:05:30Z</time></trkpt><trkpt lat="42.2875445382553" lon="3.2224028109639935"><ele>280.0</ele><time>2026-04-22T10:05:31Z</time></trkpt><trkpt lat="42.287662813914" lon="3.2224175314178987"><ele>280.0</ele><time>2026-04-22T10:05:32Z</time></trkpt><trkpt lat="42.287790676674305" lon="3.2224299220549226"><ele>280.0</ele><time>2026-04-22T10:05:33Z</time></trkpt><trkpt lat="42.287925157824915" lon="3.222443365129952"><ele>280.0</ele><time>2026-04-22T10:05:34Z</time></trkpt><trkpt lat="42.288068527846136" lon="3.22245909296568"><ele>280.0</ele><time>2026-04-22T10:05:35Z</time></trkpt><trkpt lat="42.2882115134584" lon="3.2224734744498664"><ele>280.0</ele><time>2026-04-22T10:05:36Z</time></trkpt><trkpt lat="42.2883540870617" lon="3.2224883531832216"><ele>280.0</ele><time>2026-04-22T10:05:37Z</time></trkpt><trkpt lat="42.28849161861112" lon="3.2225032262611104"><ele>277.5</ele><time>2026-04-22T10:05:38Z</time></trkpt><trkpt lat="42.28862470320824" lon="3.2225187497821066"><ele>275.0</ele><time>2026-04-22T10:05:39Z</time></trkpt><trkpt lat="42.28876056395937" lon="3.2225482608259695"><ele>272.5</ele><time>2026-04-22T10:05:40Z</time></trkpt><trkpt lat="42.28889562500634" lon="3.222607004424295"><ele>270.0</ele><time>2026-04-22T10:05:41Z</time></trkpt><trkpt lat="42.28903012787608" lon="3.2226904998101222"><ele>267.75</ele><time>2026-04-22T10:05:42Z</time></trkpt><trkpt lat="42.28915980849853" lon="3.222773477952688"><ele>265.5</ele><time>2026-04-22T10:05:43Z</time></trkpt><trkpt lat="42.28929043696101" lon="3.222845337147562"><ele>263.25</ele><time>2026-04-22T10:05:44Z</time></trkpt><trkpt lat="42.289422385329345" lon="3.222891710450972"><ele>261.0</ele><time>2026-04-22T10:05:45Z</time></trkpt><trkpt lat="42.289551591691655" lon="3.2229187259928476"><ele>261.0</ele><time>2026-04-22T10:05:46Z</time></trkpt><trkpt lat="42.28968251430953" lon="3.222936372488863"><ele>261.0</ele><time>2026-04-22T10:05:47Z</time></trkpt><trkpt lat="42.28981331101946" lon="3.2229584519680876"><ele>261.0</ele><time>2026-04-22T10:05:48Z</time></trkpt><trkpt lat="42.28993969827269" lon="3.222981938076849"><ele>261.0</ele><time>2026-04-22T10:05:49Z</time></trkpt><trkpt lat="42.29006067734646" lon="3.223005239563489"><ele>259.5</ele><time>2026-04-22T10:05:50Z</time></trkpt><trkpt lat="42.290183389731126" lon="3.223030679892228"><ele>258.0</ele><time>2026-04-22T10:05:51Z</time></trkpt><trkpt lat="42.29031127017888" lon="3.22306477542153"><ele>256.5</ele><time>2026-04-22T10:05:52Z</time></trkpt><trkpt lat="42.29043991217047" lon="3.22312157625443"><ele>255.0</ele><time>2026-04-22T10:05:53Z</time></trkpt><trkpt lat="42.2905657753622" lon="3.223187528255677"><ele>258.25</ele><time>2026-04-22T10:05:54Z</time></trkpt><trkpt lat="42.29068987470574" lon="3.223250091522708"><ele>261.5</ele><time>2026-04-22T10:05:55Z</time></trkpt><trkpt lat="42.29081071063763" lon="3.2233111918078765"><ele>264.75</ele><time>2026-04-22T10:05:56Z</time></trkpt><trkpt lat="42.29093193072984" lon="3.223372478320787"><ele>268.0</ele><time>2026-04-22T10:05:57Z</time></trkpt><trkpt lat="42.291052679884466" lon="3.2234330162464513"><ele>268.0</ele><time>2026-04-22T10:05:58Z</time></trkpt><trkpt lat="42.2911770986409" lon="3.2234954958258295"><ele>268.0</ele><time>2026-04-22T10:05:59Z</time></trkpt><trkpt lat="42.2913011254599" lon="3.2235566764782404"><ele>268.0</ele><time>2026-04-22T10:06:00Z</time></trkpt><trkpt lat="42.291428711796755" lon="3.223618022833518"><ele>268.0</ele><time>2026-04-22T10:06:01Z</time></trkpt><trkpt lat="42.291552503669074" lon="3.2236770727115953"><ele>269.75</ele><time>2026-04-22T10:06:02Z</time></trkpt><trkpt lat="42.29167100557532" lon="3.223736829546845"><ele>271.5</ele><time>2026-04-22T10:06:03Z</time></trkpt><trkpt lat="42.291782935453256" lon="3.2238054452754237"><ele>273.25</ele><time>2026-04-22T10:06:04Z</time></trkpt><trkpt lat="42.291890834955424" lon="3.22388801012871"><ele>275.0</ele><time>2026-04-22T10:06:05Z</time></trkpt><trkpt lat="42.29198956715346" lon="3.223985855241877"><ele>275.0</ele><time>2026-04-22T10:06:06Z</time></trkpt><trkpt lat="42.29208129758259" lon="3.224090835537233"><ele>275.0</ele><time>2026-04-22T10:06:07Z</time></trkpt><trkpt lat="42.29217020812252" lon="3.2241979702068715"><ele>275.0</ele><time>2026-04-22T10:06:08Z</time></trkpt><trkpt lat="42.29225071519998" lon="3.2243153633655632"><ele>275.0</ele><time>2026-04-22T10:06:09Z</time></trkpt><trkpt lat="42.29231303734417" lon="3.2244609439918004"><ele>272.5</ele><time>2026-04-22T10:06:10Z</time></trkpt><trkpt lat="42.292356396590115" lon="3.2245993797382573"><ele>270.0</ele><time>2026-04-22T10:06:11Z</time></trkpt><trkpt lat="42.292388503393454" lon="3.224750870129696"><ele>267.5</ele><time>2026-04-22T10:06:12Z</time></trkpt><trkpt lat="42.29241179130405" lon="3.2249001769998147"><ele>265.0</ele><time>2026-04-22T10:06:13Z</time></trkpt><trkpt lat="42.2924342519404" lon="3.225044282849049"><ele>265.0</ele><time>2026-04-22T10:06:14Z</time></trkpt><trkpt lat="42.29245574279515" lon="3.2251759650621246"><ele>265.0</ele><time>2026-04-22T10:06:15Z</time></trkpt><trkpt lat="42.29249984736432" lon="3.2252880815446963"><ele>265.0</ele><time>2026-04-22T10:06:16Z</time></trkpt><trkpt lat="42.29256884978152" lon="3.2253720362068323"><ele>265.0</ele><time>2026-04-22T10:06:17Z</time></trkpt><trkpt lat="42.29266514558667" lon="3.2254038945509342"><ele>265.0</ele><time>2026-04-22T10:06:18Z</time></trkpt><trkpt lat="42.29276911370343" lon="3.225394496293944"><ele>265.0</ele><time>2026-04-22T10:06:19Z</time></trkpt><trkpt lat="42.292881765554505" lon="3.2253712225886897"><ele>265.0</ele><time>2026-04-22T10:06:20Z</time></trkpt><trkpt lat="42.29299846143706" lon="3.2253453623058275"><ele>265.0</ele><time>2026-04-22T10:06:21Z</time></trkpt><trkpt lat="42.293117916466564" lon="3.2253212429152307"><ele>265.0</ele><time>2026-04-22T10:06:22Z</time></trkpt><trkpt lat="42.29323433690603" lon="3.225301299543091"><ele>262.4</ele><time>2026-04-22T10:06:23Z</time></trkpt><trkpt lat="42.29334294797029" lon="3.2252906770840823"><ele>259.8</ele><time>2026-04-22T10:06:24Z</time></trkpt><trkpt lat="42.29343157611353" lon="3.2253152253560518"><ele>257.2</ele><time>2026-04-22T10:06:25Z</time></trkpt><trkpt lat="42.29350532632756" lon="3.225392608483792"><ele>254.6</ele><time>2026-04-22T10:06:26Z</time></trkpt><trkpt lat="42.29356173404013" lon="3.22549580998449"><ele>252.0</ele><time>2026-04-22T10:06:27Z</time></trkpt><trkpt lat="42.2936178138359" lon="3.225604263379973"><ele>254.6</ele><time>2026-04-22T10:06:28Z</time></trkpt><trkpt lat="42.293671469271345" lon="3.225713856951424"><ele>257.2</ele><time>2026-04-22T10:06:29Z</time></trkpt><trkpt lat="42.29371944026237" lon="3.2258397663613607"><ele>259.8</ele><time>2026-04-22T10:06:30Z</time></trkpt><trkpt lat="42.29375984668866" lon="3.2259825957704806"><ele>262.4</ele><time>2026-04-22T10:06:31Z</time></trkpt><trkpt lat="42.293794585341686" lon="3.226138680560718"><ele>265.0</ele><time>2026-04-22T10:06:32Z</time></trkpt><trkpt lat="42.2938331714285" lon="3.2263024942213723"><ele>265.0</ele><time>2026-04-22T10:06:33Z</time></trkpt><trkpt lat="42.29387343715204" lon="3.226474101117876"><ele>265.0</ele><time>2026-04-22T10:06:34Z</time></trkpt><trkpt lat="42.29391461795368" lon="3.22664264114631"><ele>265.0</ele><time>2026-04-22T10:06:35Z</time></trkpt><trkpt lat="42.29394476868348" lon="3.2268088789975655"><ele>265.0</ele><time>2026-04-22T10:06:36Z</time></trkpt><trkpt lat="42.293947400096954" lon="3.226978588322024"><ele>265.5</ele><time>2026-04-22T10:06:37Z</time></trkpt><trkpt lat="42.29392954919466" lon="3.227157546331862"><ele>266.0</ele><time>2026-04-22T10:06:38Z</time></trkpt><trkpt lat="42.29391037511617" lon="3.2273454552683587"><ele>266.5</ele><time>2026-04-22T10:06:39Z</time></trkpt><trkpt lat="42.29389360319872" lon="3.227533177318042"><ele>267.0</ele><time>2026-04-22T10:06:40Z</time></trkpt><trkpt lat="42.29387877427889" lon="3.227720802183787"><ele>267.0</ele><time>2026-04-22T10:06:41Z</time></trkpt><trkpt lat="42.29386202130955" lon="3.2279151066461886"><ele>267.0</ele><time>2026-04-22T10:06:42Z</time></trkpt><trkpt lat="42.293847018354576" lon="3.228108210284679"><ele>267.0</ele><time>2026-04-22T10:06:43Z</time></trkpt><trkpt lat="42.29383259510598" lon="3.2282980629972933"><ele>267.0</ele><time>2026-04-22T10:06:44Z</time></trkpt><trkpt lat="42.29381860732687" lon="3.2284857848364616"><ele>266.25</ele><time>2026-04-22T10:06:45Z</time></trkpt><trkpt lat="42.29380468007333" lon="3.2286712432566427"><ele>265.5</ele><time>2026-04-22T10:06:46Z</time></trkpt><trkpt lat="42.2937890171923" lon="3.228845629024939"><ele>264.75</ele><time>2026-04-22T10:06:47Z</time></trkpt><trkpt lat="42.29375379456617" lon="3.2289985582734495"><ele>264.0</ele><time>2026-04-22T10:06:48Z</time></trkpt><trkpt lat="42.29368720104179" lon="3.229137569278424"><ele>263.0</ele><time>2026-04-22T10:06:49Z</time></trkpt><trkpt lat="42.29359468746742" lon="3.229255451552464"><ele>262.0</ele><time>2026-04-22T10:06:50Z</time></trkpt><trkpt lat="42.29349188686531" lon="3.229357567709185"><ele>261.0</ele><time>2026-04-22T10:06:51Z</time></trkpt><trkpt lat="42.29339184504836" lon="3.2294638135061415"><ele>260.0</ele><time>2026-04-22T10:06:52Z</time></trkpt><trkpt lat="42.29329256229946" lon="3.2295755946486366"><ele>260.0</ele><time>2026-04-22T10:06:53Z</time></trkpt><trkpt lat="42.29319227818244" lon="3.229690182646893"><ele>260.0</ele><time>2026-04-22T10:06:54Z</time></trkpt><trkpt lat="42.29308940618214" lon="3.2298059287558707"><ele>260.0</ele><time>2026-04-22T10:06:55Z</time></trkpt><trkpt lat="42.292984320861" lon="3.2299243041580556"><ele>260.0</ele><time>2026-04-22T10:06:56Z</time></trkpt><trkpt lat="42.29287521493043" lon="3.23003838696343"><ele>258.75</ele><time>2026-04-22T10:06:57Z</time></trkpt><trkpt lat="42.29276129599012" lon="3.23014605854578"><ele>257.5</ele><time>2026-04-22T10:06:58Z</time></trkpt><trkpt lat="42.29264260349345" lon="3.2302382234477913"><ele>256.25</ele><time>2026-04-22T10:06:59Z</time></trkpt><trkpt lat="42.29253314522011" lon="3.2303138396315645"><ele>255.0</ele><time>2026-04-22T10:07:00Z</time></trkpt><trkpt lat="42.29243762676813" lon="3.2303809163176993"><ele>255.0</ele><time>2026-04-22T10:07:01Z</time></trkpt><trkpt lat="42.292334457984" lon="3.2304279363568433"><ele>255.0</ele><time>2026-04-22T10:07:02Z</time></trkpt><trkpt lat="42.29221702866602" lon="3.2304443029086096"><ele>255.0</ele><time>2026-04-22T10:07:03Z</time></trkpt><trkpt lat="42.29209759578605" lon="3.2304323179251297"><ele>255.0</ele><time>2026-04-22T10:07:04Z</time></trkpt><trkpt lat="42.29198171157962" lon="3.230416377440771"><ele>255.6</ele><time>2026-04-22T10:07:05Z</time></trkpt><trkpt lat="42.29187651525984" lon="3.230406318517152"><ele>256.2</ele><time>2026-04-22T10:07:06Z</time></trkpt><trkpt lat="42.291780957499476" lon="3.230402654855772"><ele>256.8</ele><time>2026-04-22T10:07:07Z</time></trkpt><trkpt lat="42.29169571556543" lon="3.230420415842589"><ele>257.4</ele><time>2026-04-22T10:07:08Z</time></trkpt><trkpt lat="42.29161917506398" lon="3.2304868515275436"><ele>258.0</ele><time>2026-04-22T10:07:09Z</time></trkpt><trkpt lat="42.29156613207825" lon="3.230588573584163"><ele>255.8</ele><time>2026-04-22T10:07:10Z</time></trkpt><trkpt lat="42.29155021268228" lon="3.2307091444292304"><ele>253.60000000000002</ele><time>2026-04-22T10:07:11Z</time></trkpt><trkpt lat="42.2915630372006" lon="3.2308326642511007"><ele>251.39999999999998</ele><time>2026-04-22T10:07:12Z</time></trkpt><trkpt lat="42.29160541789293" lon="3.230943345719468"><ele>249.2</ele><time>2026-04-22T10:07:13Z</time></trkpt><trkpt lat="42.29167628771592" lon="3.2310179238204837"><ele>247.0</ele><time>2026-04-22T10:07:14Z</time></trkpt><trkpt lat="42.29175138738557" lon="3.2310872685182956"><ele>246.99999999999997</ele><time>2026-04-22T10:07:15Z</time></trkpt><trkpt lat="42.29182498534369" lon="3.2311594010142644"><ele>247.0</ele><time>2026-04-22T10:07:16Z</time></trkpt><trkpt lat="42.29189576503329" lon="3.231231558197167"><ele>247.0</ele><time>2026-04-22T10:07:17Z</time></trkpt><trkpt lat="42.291955441627415" lon="3.231313031137909"><ele>247.0</ele><time>2026-04-22T10:07:18Z</time></trkpt><trkpt lat="42.291992248192464" lon="3.231415419938453"><ele>246.99999999999997</ele><time>2026-04-22T10:07:19Z</time></trkpt><trkpt lat="42.2920118957697" lon="3.2315239807510796"><ele>247.0</ele><time>2026-04-22T10:07:20Z</time></trkpt><trkpt lat="42.292010512551" lon="3.231638385006664"><ele>247.6</ele><time>2026-04-22T10:07:21Z</time></trkpt><trkpt lat="42.29198390246587" lon="3.231753915953339"><ele>248.2</ele><time>2026-04-22T10:07:22Z</time></trkpt><trkpt lat="42.291939863934985" lon="3.2318645073018244"><ele>248.8</ele><time>2026-04-22T10:07:23Z</time></trkpt><trkpt lat="42.2918819262469" lon="3.231969384033552"><ele>249.4</ele><time>2026-04-22T10:07:24Z</time></trkpt><trkpt lat="42.291804377625894" lon="3.232066171678548"><ele>250.0</ele><time>2026-04-22T10:07:25Z</time></trkpt><trkpt lat="42.29171159443032" lon="3.2321495424013085"><ele>250.0</ele><time>2026-04-22T10:07:26Z</time></trkpt><trkpt lat="42.291614381695815" lon="3.2322213573027647"><ele>250.0</ele><time>2026-04-22T10:07:27Z</time></trkpt><trkpt lat="42.29152149689585" lon="3.2322909402504116"><ele>250.0</ele><time>2026-04-22T10:07:28Z</time></trkpt><trkpt lat="42.29143414993012" lon="3.232360505486297"><ele>250.0</ele><time>2026-04-22T10:07:29Z</time></trkpt><trkpt lat="42.291359391678256" lon="3.232430129684375"><ele>250.0</ele><time>2026-04-22T10:07:30Z</time></trkpt><trkpt lat="42.291308290635506" lon="3.23252712935081"><ele>249.6</ele><time>2026-04-22T10:07:31Z</time></trkpt><trkpt lat="42.291286269634" lon="3.2326452745905057"><ele>249.2</ele><time>2026-04-22T10:07:32Z</time></trkpt><trkpt lat="42.29128600802828" lon="3.2327696677724966"><ele>248.8</ele><time>2026-04-22T10:07:33Z</time></trkpt><trkpt lat="42.29130653308691" lon="3.232896758264213"><ele>248.4</ele><time>2026-04-22T10:07:34Z</time></trkpt><trkpt lat="42.291323587560626" lon="3.2330242906281694"><ele>248.0</ele><time>2026-04-22T10:07:35Z</time></trkpt><trkpt lat="42.29135416707692" lon="3.2331423630850007"><ele>248.0</ele><time>2026-04-22T10:07:36Z</time></trkpt><trkpt lat="42.291410929832026" lon="3.2332414681314168"><ele>248.0</ele><time>2026-04-22T10:07:37Z</time></trkpt><trkpt lat="42.29149143914413" lon="3.2333175968230616"><ele>248.0</ele><time>2026-04-22T10:07:38Z</time></trkpt><trkpt lat="42.29159276372479" lon="3.2333620482710552"><ele>248.0</ele><time>2026-04-22T10:07:39Z</time></trkpt><trkpt lat="42.29169963760705" lon="3.2333636447477136"><ele>248.0</ele><time>2026-04-22T10:07:40Z</time></trkpt><trkpt lat="42.291809615931456" lon="3.2333204976408334"><ele>248.25</ele><time>2026-04-22T10:07:41Z</time></trkpt><trkpt lat="42.2919245239644" lon="3.2332821632021207"><ele>248.5</ele><time>2026-04-22T10:07:42Z</time></trkpt><trkpt lat="42.292047174193776" lon="3.2332506858791072"><ele>248.75</ele><time>2026-04-22T10:07:43Z</time></trkpt><trkpt lat="42.29217476358713" lon="3.233217041108684"><ele>249.0</ele><time>2026-04-22T10:07:44Z</time></trkpt><trkpt lat="42.29229462625479" lon="3.233185997918306"><ele>248.25</ele><time>2026-04-22T10:07:45Z</time></trkpt><trkpt lat="42.2924134286469" lon="3.2331544445300997"><ele>247.5</ele><time>2026-04-22T10:07:46Z</time></trkpt><trkpt lat="42.29253290219008" lon="3.233124172641228"><ele>246.75</ele><time>2026-04-22T10:07:47Z</time></trkpt><trkpt lat="42.29265406968828" lon="3.2331144921246233"><ele>246.0</ele><time>2026-04-22T10:07:48Z</time></trkpt><trkpt lat="42.29277911292532" lon="3.2331310538170155"><ele>246.0</ele><time>2026-04-22T10:07:49Z</time></trkpt><trkpt lat="42.29290034040044" lon="3.23315540832795"><ele>246.00000000000003</ele><time>2026-04-22T10:07:50Z</time></trkpt><trkpt lat="42.29301781687433" lon="3.233173264628492"><ele>246.00000000000003</ele><time>2026-04-22T10:07:51Z</time></trkpt><trkpt lat="42.29312577054566" lon="3.233191226866998"><ele>246.0</ele><time>2026-04-22T10:07:52Z</time></trkpt><trkpt lat="42.29322071018638" lon="3.233207080397323"><ele>246.0</ele><time>2026-04-22T10:07:53Z</time></trkpt><trkpt lat="42.29331024710844" lon="3.2332463741180635"><ele>245.0</ele><time>2026-04-22T10:07:54Z</time></trkpt><trkpt lat="42.293388058504235" lon="3.2333191396629735"><ele>244.00000000000003</ele><time>2026-04-22T10:07:55Z</time></trkpt><trkpt lat="42.29345347897418" lon="3.2334166017686106"><ele>243.00000000000003</ele><time>2026-04-22T10:07:56Z</time></trkpt><trkpt lat="42.29350271276956" lon="3.233542490904114"><ele>242.0</ele><time>2026-04-22T10:07:57Z</time></trkpt><trkpt lat="42.29354843498341" lon="3.233674984939817"><ele>241.0</ele><time>2026-04-22T10:07:58Z</time></trkpt><trkpt lat="42.2936034529528" lon="3.2338109733106366"><ele>241.0</ele><time>2026-04-22T10:07:59Z</time></trkpt><trkpt lat="42.2936565918707" lon="3.233950739917884"><ele>241.00000000000003</ele><time>2026-04-22T10:08:00Z</time></trkpt><trkpt lat="42.293707490399505" lon="3.2340819948156656"><ele>241.00000000000003</ele><time>2026-04-22T10:08:01Z</time></trkpt><trkpt lat="42.293773033092435" lon="3.2341924888711415"><ele>241.0</ele><time>2026-04-22T10:08:02Z</time></trkpt><trkpt lat="42.293866843897646" lon="3.234271783429248"><ele>241.0</ele><time>2026-04-22T10:08:03Z</time></trkpt><trkpt lat="42.29397727739824" lon="3.2343279520111143"><ele>240.75</ele><time>2026-04-22T10:08:04Z</time></trkpt><trkpt lat="42.29409051169637" lon="3.23440028653017"><ele>240.5</ele><time>2026-04-22T10:08:05Z</time></trkpt><trkpt lat="42.294206002522365" lon="3.2344761324228166"><ele>240.25</ele><time>2026-04-22T10:08:06Z</time></trkpt><trkpt lat="42.294319307822896" lon="3.2345491865795872"><ele>240.0</ele><time>2026-04-22T10:08:07Z</time></trkpt><trkpt lat="42.294426850464674" lon="3.234619406423066"><ele>240.0</ele><time>2026-04-22T10:08:08Z</time></trkpt><trkpt lat="42.29452740301863" lon="3.2346868086916247"><ele>240.0</ele><time>2026-04-22T10:08:09Z</time></trkpt><trkpt lat="42.29462775052201" lon="3.234738259403552"><ele>240.0</ele><time>2026-04-22T10:08:10Z</time></trkpt><trkpt lat="42.2947373768759" lon="3.2347497490531967"><ele>240.0</ele><time>2026-04-22T10:08:11Z</time></trkpt><trkpt lat="42.29485255872322" lon="3.234728841312699"><ele>240.0</ele><time>2026-04-22T10:08:12Z</time></trkpt><trkpt lat="42.294970684996976" lon="3.2346943635612626"><ele>237.75</ele><time>2026-04-22T10:08:13Z</time></trkpt><trkpt lat="42.29508670690121" lon="3.234663684033253"><ele>235.5</ele><time>2026-04-22T10:08:14Z</time></trkpt><trkpt lat="42.29519727320855" lon="3.2346344735493036"><ele>233.25</ele><time>2026-04-22T10:08:15Z</time></trkpt><trkpt lat="42.2953065397041" lon="3.2346118392206407"><ele>231.0</ele><time>2026-04-22T10:08:16Z</time></trkpt><trkpt lat="42.29541879941781" lon="3.2346160465517917"><ele>231.0</ele><time>2026-04-22T10:08:17Z</time></trkpt><trkpt lat="42.29553385463982" lon="3.2346545748079087"><ele>231.0</ele><time>2026-04-22T10:08:18Z</time></trkpt><trkpt lat="42.29564766047163" lon="3.234703359793314"><ele>231.0</ele><time>2026-04-22T10:08:19Z</time></trkpt><trkpt lat="42.295759832322595" lon="3.234744530923459"><ele>231.0</ele><time>2026-04-22T10:08:20Z</time></trkpt><trkpt lat="42.29587113035957" lon="3.234785643126891"><ele>235.25</ele><time>2026-04-22T10:08:21Z</time></trkpt><trkpt lat="42.2959818480001" lon="3.234826933380631"><ele>239.5</ele><time>2026-04-22T10:08:22Z</time></trkpt><trkpt lat="42.29609659985578" lon="3.2348680547893744"><ele>243.75</ele><time>2026-04-22T10:08:23Z</time></trkpt><trkpt lat="42.296211033380466" lon="3.2349068759430093"><ele>248.0</ele><time>2026-04-22T10:08:24Z</time></trkpt><trkpt lat="42.29632313511172" lon="3.234944709914473"><ele>246.8</ele><time>2026-04-22T10:08:25Z</time></trkpt><trkpt lat="42.29643448873482" lon="3.23498383860018"><ele>245.60000000000002</ele><time>2026-04-22T10:08:26Z</time></trkpt><trkpt lat="42.29654126399834" lon="3.2350203650887774"><ele>244.39999999999998</ele><time>2026-04-22T10:08:27Z</time></trkpt><trkpt lat="42.29664160715419" lon="3.2350539878952986"><ele>243.2</ele><time>2026-04-22T10:08:28Z</time></trkpt><trkpt lat="42.29673645333148" lon="3.2350905194272648"><ele>242.0</ele><time>2026-04-22T10:08:29Z</time></trkpt><trkpt lat="42.29681754728339" lon="3.2351509011560786"><ele>242.0</ele><time>2026-04-22T10:08:30Z</time></trkpt><trkpt lat="42.29687641679491" lon="3.2352428303390615"><ele>242.0</ele><time>2026-04-22T10:08:31Z</time></trkpt><trkpt lat="42.29691483358781" lon="3.23535758853303"><ele>242.0</ele><time>2026-04-22T10:08:32Z</time></trkpt><trkpt lat="42.29692919843301" lon="3.235488071242869"><ele>242.0</ele><time>2026-04-22T10:08:33Z</time></trkpt><trkpt lat="42.296910003965145" lon="3.23562214935737"><ele>242.0</ele><time>2026-04-22T10:08:34Z</time></trkpt><trkpt lat="42.296866295577466" lon="3.23574840621098"><ele>243.2</ele><time>2026-04-22T10:08:35Z</time></trkpt><trkpt lat="42.296820687332" lon="3.235866627051404"><ele>244.39999999999998</ele><time>2026-04-22T10:08:36Z</time></trkpt><trkpt lat="42.29678337826435" lon="3.235981071734228"><ele>245.60000000000002</ele><time>2026-04-22T10:08:37Z</time></trkpt><trkpt lat="42.29674655863415" lon="3.2360883837424317"><ele>246.8</ele><time>2026-04-22T10:08:38Z</time></trkpt><trkpt lat="42.296701073169444" lon="3.2361950721615282"><ele>248.0</ele><time>2026-04-22T10:08:39Z</time></trkpt><trkpt lat="42.296653028975584" lon="3.2363082889926122"><ele>248.0</ele><time>2026-04-22T10:08:40Z</time></trkpt><trkpt lat="42.29661679734146" lon="3.2364342544488856"><ele>248.0</ele><time>2026-04-22T10:08:41Z</time></trkpt><trkpt lat="42.29658796868472" lon="3.2365611194265766"><ele>248.0</ele><time>2026-04-22T10:08:42Z</time></trkpt><trkpt lat="42.29656270314933" lon="3.236659817338549"><ele>248.0</ele><time>2026-04-22T10:08:43Z</time></trkpt><trkpt lat="42.296523452646625" lon="3.2367852815157394"><ele>248.0</ele><time>2026-04-22T10:08:45Z</time></trkpt><trkpt lat="42.29648614766041" lon="3.2369041062004564"><ele>247.8</ele><time>2026-04-22T10:08:47Z</time></trkpt><trkpt lat="42.296436507223866" lon="3.2370616923679623"><ele>247.60000000000002</ele><time>2026-04-22T10:08:49Z</time></trkpt><trkpt lat="42.296406973412125" lon="3.237160377955345"><ele>247.39999999999998</ele><time>2026-04-22T10:08:50Z</time></trkpt><trkpt lat="42.29636975167455" lon="3.2372690758065463"><ele>247.2</ele><time>2026-04-22T10:08:51Z</time></trkpt><trkpt lat="42.29632954000461" lon="3.2373854040345744"><ele>247.0</ele><time>2026-04-22T10:08:52Z</time></trkpt><trkpt lat="42.29629277377533" lon="3.2374970435910964"><ele>247.33333333333331</ele><time>2026-04-22T10:08:53Z</time></trkpt><trkpt lat="42.29627224775466" lon="3.237607923789465"><ele>247.66666666666666</ele><time>2026-04-22T10:08:54Z</time></trkpt><trkpt lat="42.296272934394175" lon="3.2377186707258416"><ele>248.0</ele><time>2026-04-22T10:08:55Z</time></trkpt><trkpt lat="42.296298181118374" lon="3.237825975476154"><ele>248.33333333333331</ele><time>2026-04-22T10:08:56Z</time></trkpt><trkpt lat="42.29633913408776" lon="3.2379408765293167"><ele>248.66666666666666</ele><time>2026-04-22T10:08:57Z</time></trkpt><trkpt lat="42.29638068562339" lon="3.2380598126467155"><ele>249.0</ele><time>2026-04-22T10:08:58Z</time></trkpt><trkpt lat="42.29642745137077" lon="3.238188244422702"><ele>249.0</ele><time>2026-04-22T10:08:59Z</time></trkpt><trkpt lat="42.29647889688085" lon="3.2383263717733852"><ele>249.0</ele><time>2026-04-22T10:09:00Z</time></trkpt><trkpt lat="42.296528458888574" lon="3.2384635980417946"><ele>249.0</ele><time>2026-04-22T10:09:01Z</time></trkpt><trkpt lat="42.29657435566983" lon="3.2386001934047974"><ele>249.0</ele><time>2026-04-22T10:09:02Z</time></trkpt><trkpt lat="42.29661632144362" lon="3.2387399137963517"><ele>249.0</ele><time>2026-04-22T10:09:03Z</time></trkpt><trkpt lat="42.29664335793822" lon="3.2388865429595044"><ele>249.0</ele><time>2026-04-22T10:09:04Z</time></trkpt><trkpt lat="42.296645630420095" lon="3.239040339501564"><ele>249.0</ele><time>2026-04-22T10:09:05Z</time></trkpt><trkpt lat="42.29664033031643" lon="3.2391963147835208"><ele>249.0</ele><time>2026-04-22T10:09:06Z</time></trkpt><trkpt lat="42.29662775477018" lon="3.2393508118365517"><ele>248.25</ele><time>2026-04-22T10:09:07Z</time></trkpt><trkpt lat="42.29659962666672" lon="3.2395037345408086"><ele>247.5</ele><time>2026-04-22T10:09:08Z</time></trkpt><trkpt lat="42.29655161428624" lon="3.23964873759958"><ele>246.75</ele><time>2026-04-22T10:09:09Z</time></trkpt><trkpt lat="42.29650194713257" lon="3.2397845334349054"><ele>246.0</ele><time>2026-04-22T10:09:10Z</time></trkpt><trkpt lat="42.29646487283802" lon="3.239924106736987"><ele>246.0</ele><time>2026-04-22T10:09:11Z</time></trkpt><trkpt lat="42.29644892056642" lon="3.2400744581788548"><ele>246.0</ele><time>2026-04-22T10:09:12Z</time></trkpt><trkpt lat="42.29644386162327" lon="3.240227863771688"><ele>246.0</ele><time>2026-04-22T10:09:13Z</time></trkpt><trkpt lat="42.29643853428593" lon="3.2403833476270836"><ele>246.0</ele><time>2026-04-22T10:09:14Z</time></trkpt><trkpt lat="42.29643315318027" lon="3.240541198880864"><ele>240.25</ele><time>2026-04-22T10:09:15Z</time></trkpt><trkpt lat="42.296410395128866" lon="3.240698267974793"><ele>234.5</ele><time>2026-04-22T10:09:16Z</time></trkpt><trkpt lat="42.296370181388106" lon="3.2408517597248276"><ele>228.75</ele><time>2026-04-22T10:09:17Z</time></trkpt><trkpt lat="42.296318785038075" lon="3.2409970404901776"><ele>223.0</ele><time>2026-04-22T10:09:18Z</time></trkpt><trkpt lat="42.29626724272854" lon="3.241146103840962"><ele>223.0</ele><time>2026-04-22T10:09:19Z</time></trkpt><trkpt lat="42.2962146371673" lon="3.241297862020979"><ele>223.0</ele><time>2026-04-22T10:09:20Z</time></trkpt><trkpt lat="42.296161016017365" lon="3.241450009315481"><ele>223.0</ele><time>2026-04-22T10:09:21Z</time></trkpt><trkpt lat="42.29610848705173" lon="3.241604760869877"><ele>223.0</ele><time>2026-04-22T10:09:22Z</time></trkpt><trkpt lat="42.29605556216192" lon="3.241759265082781"><ele>223.25</ele><time>2026-04-22T10:09:23Z</time></trkpt><trkpt lat="42.29600374968276" lon="3.241913172160098"><ele>223.5</ele><time>2026-04-22T10:09:24Z</time></trkpt><trkpt lat="42.295953048920175" lon="3.242060414375263"><ele>223.75</ele><time>2026-04-22T10:09:25Z</time></trkpt><trkpt lat="42.29590472575473" lon="3.24220515713498"><ele>224.0</ele><time>2026-04-22T10:09:26Z</time></trkpt><trkpt lat="42.29585765460314" lon="3.2423468566830738"><ele>224.0</ele><time>2026-04-22T10:09:27Z</time></trkpt><trkpt lat="42.295812334383655" lon="3.2424804162956824"><ele>223.99999999999997</ele><time>2026-04-22T10:09:28Z</time></trkpt><trkpt lat="42.29577002752971" lon="3.2426053372871864"><ele>223.99999999999997</ele><time>2026-04-22T10:09:29Z</time></trkpt><trkpt lat="42.29573551007816" lon="3.242739828112131"><ele>224.0</ele><time>2026-04-22T10:09:30Z</time></trkpt><trkpt lat="42.2957146439796" lon="3.2428721949508343"><ele>224.0</ele><time>2026-04-22T10:09:31Z</time></trkpt><trkpt lat="42.295704496543834" lon="3.242986637182609"><ele>224.00000000000003</ele><time>2026-04-22T10:09:32Z</time></trkpt><trkpt lat="42.295717169412974" lon="3.243088869123617"><ele>224.0</ele><time>2026-04-22T10:09:33Z</time></trkpt><trkpt lat="42.29575583676169" lon="3.2431817057928636"><ele>224.0</ele><time>2026-04-22T10:09:34Z</time></trkpt><trkpt lat="42.295815746785095" lon="3.243256814090057"><ele>224.0</ele><time>2026-04-22T10:09:35Z</time></trkpt><trkpt lat="42.295880694066994" lon="3.2433246136853704"><ele>224.00000000000003</ele><time>2026-04-22T10:09:36Z</time></trkpt><trkpt lat="42.29594469219791" lon="3.243394155494057"><ele>224.0</ele><time>2026-04-22T10:09:37Z</time></trkpt><trkpt lat="42.29601204572901" lon="3.243470992243126"><ele>223.50000000000003</ele><time>2026-04-22T10:09:38Z</time></trkpt><trkpt lat="42.29608626251132" lon="3.2435530353207027"><ele>223.0</ele><time>2026-04-22T10:09:39Z</time></trkpt><trkpt lat="42.296160684579675" lon="3.2436303293992053"><ele>222.5</ele><time>2026-04-22T10:09:40Z</time></trkpt><trkpt lat="42.296231203538625" lon="3.2437080485656993"><ele>222.0</ele><time>2026-04-22T10:09:41Z</time></trkpt><trkpt lat="42.29628822756882" lon="3.2437852721316416"><ele>221.50000000000003</ele><time>2026-04-22T10:09:42Z</time></trkpt><trkpt lat="42.296319170154796" lon="3.243869584692178"><ele>221.0</ele><time>2026-04-22T10:09:43Z</time></trkpt><trkpt lat="42.29632751104919" lon="3.2439655905898372"><ele>221.00000000000003</ele><time>2026-04-22T10:09:44Z</time></trkpt><trkpt lat="42.29629858868729" lon="3.244070456204633"><ele>221.0</ele><time>2026-04-22T10:09:45Z</time></trkpt><trkpt lat="42.29624939096891" lon="3.244124507388026"><ele>221.0</ele><time>2026-04-22T10:09:46Z</time></trkpt><trkpt lat="42.296172138536754" lon="3.2441543231054863"><ele>221.0</ele><time>2026-04-22T10:09:47Z</time></trkpt><trkpt lat="42.29608826446421" lon="3.244139192151148"><ele>221.00000000000003</ele><time>2026-04-22T10:09:48Z</time></trkpt><trkpt lat="42.29600306983252" lon="3.2441140296729856"><ele>221.0</ele><time>2026-04-22T10:09:49Z</time></trkpt><trkpt lat="42.295916281103544" lon="3.2440963713098743"><ele>221.0</ele><time>2026-04-22T10:09:50Z</time></trkpt><trkpt lat="42.29582856132888" lon="3.2440811350740795"><ele>221.00000000000003</ele><time>2026-04-22T10:09:51Z</time></trkpt><trkpt lat="42.2957410449029" lon="3.244071410663321"><ele>221.00000000000003</ele><time>2026-04-22T10:09:52Z</time></trkpt><trkpt lat="42.29564950860239" lon="3.2440935385130287"><ele>221.0</ele><time>2026-04-22T10:09:53Z</time></trkpt><trkpt lat="42.29554722117502" lon="3.2441272149257365"><ele>221.0</ele><time>2026-04-22T10:09:54Z</time></trkpt><trkpt lat="42.29545790787481" lon="3.2441988192019076"><ele>215.5</ele><time>2026-04-22T10:09:55Z</time></trkpt><trkpt lat="42.29536952239377" lon="3.244282193744309"><ele>210.0</ele><time>2026-04-22T10:09:56Z</time></trkpt><trkpt lat="42.29529193647529" lon="3.2443888839861867"><ele>204.5</ele><time>2026-04-22T10:09:57Z</time></trkpt><trkpt lat="42.2952269603385" lon="3.24452676096933"><ele>199.0</ele><time>2026-04-22T10:09:58Z</time></trkpt><trkpt lat="42.295161961817286" lon="3.2446743715288617"><ele>200.75</ele><time>2026-04-22T10:09:59Z</time></trkpt><trkpt lat="42.29509569526126" lon="3.24481470493548"><ele>202.5</ele><time>2026-04-22T10:10:00Z</time></trkpt><trkpt lat="42.29502589133589" lon="3.2449553967906906"><ele>204.25</ele><time>2026-04-22T10:10:01Z</time></trkpt><trkpt lat="42.29496170261376" lon="3.2450942734352775"><ele>206.0</ele><time>2026-04-22T10:10:02Z</time></trkpt><trkpt lat="42.29490512971814" lon="3.245216972398656"><ele>206.0</ele><time>2026-04-22T10:10:03Z</time></trkpt><trkpt lat="42.29486281694124" lon="3.2453296511945697"><ele>206.0</ele><time>2026-04-22T10:10:04Z</time></trkpt><trkpt lat="42.29483788907939" lon="3.245452285116164"><ele>206.0</ele><time>2026-04-22T10:10:05Z</time></trkpt><trkpt lat="42.29485016143318" lon="3.2455857286850804"><ele>206.0</ele><time>2026-04-22T10:10:06Z</time></trkpt><trkpt lat="42.29489608326754" lon="3.2457122750961025"><ele>206.0</ele><time>2026-04-22T10:10:07Z</time></trkpt><trkpt lat="42.29496474757811" lon="3.245829576663338"><ele>205.0</ele><time>2026-04-22T10:10:08Z</time></trkpt><trkpt lat="42.295039262505725" lon="3.245944565149718"><ele>204.0</ele><time>2026-04-22T10:10:09Z</time></trkpt><trkpt lat="42.29511190060285" lon="3.2460636660789945"><ele>203.0</ele><time>2026-04-22T10:10:10Z</time></trkpt><trkpt lat="42.295168874341336" lon="3.246199822991225"><ele>202.0</ele><time>2026-04-22T10:10:11Z</time></trkpt><trkpt lat="42.29520065235099" lon="3.2463576003252212"><ele>200.2</ele><time>2026-04-22T10:10:12Z</time></trkpt><trkpt lat="42.29521633056779" lon="3.246514559404435"><ele>198.39999999999998</ele><time>2026-04-22T10:10:13Z</time></trkpt><trkpt lat="42.29522471572859" lon="3.246669680669694"><ele>196.60000000000002</ele><time>2026-04-22T10:10:14Z</time></trkpt><trkpt lat="42.29520615649063" lon="3.246812277170417"><ele>194.8</ele><time>2026-04-22T10:10:15Z</time></trkpt><trkpt lat="42.29515956265126" lon="3.24694601414264"><ele>193.0</ele><time>2026-04-22T10:10:16Z</time></trkpt><trkpt lat="42.295118607746566" lon="3.247078595480364"><ele>193.0</ele><time>2026-04-22T10:10:17Z</time></trkpt><trkpt lat="42.29510132748151" lon="3.247212758550125"><ele>193.0</ele><time>2026-04-22T10:10:18Z</time></trkpt><trkpt lat="42.29511632213985" lon="3.2473555743823126"><ele>193.0</ele><time>2026-04-22T10:10:19Z</time></trkpt><trkpt lat="42.29515113887156" lon="3.2474846890112032"><ele>193.0</ele><time>2026-04-22T10:10:20Z</time></trkpt><trkpt lat="42.29514205667489" lon="3.2476030767112576"><ele>193.0</ele><time>2026-04-22T10:10:21Z</time></trkpt><trkpt lat="42.29508675849734" lon="3.2477092127990472"><ele>193.4</ele><time>2026-04-22T10:10:22Z</time></trkpt><trkpt lat="42.29500359200947" lon="3.2477842094532323"><ele>193.8</ele><time>2026-04-22T10:10:23Z</time></trkpt><trkpt lat="42.294910688571974" lon="3.2478348474281415"><ele>194.2</ele><time>2026-04-22T10:10:24Z</time></trkpt><trkpt lat="42.2948163732609" lon="3.247893991713922"><ele>194.6</ele><time>2026-04-22T10:10:25Z</time></trkpt><trkpt lat="42.29472437063933" lon="3.2479541675756423"><ele>195.0</ele><time>2026-04-22T10:10:26Z</time></trkpt><trkpt lat="42.29464774303235" lon="3.2480146515922086"><ele>191.0</ele><time>2026-04-22T10:10:27Z</time></trkpt><trkpt lat="42.29458549884069" lon="3.2480981920516103"><ele>187.0</ele><time>2026-04-22T10:10:28Z</time></trkpt><trkpt lat="42.29454483955576" lon="3.2482094885471358"><ele>183.0</ele><time>2026-04-22T10:10:29Z</time></trkpt><trkpt lat="42.29453806020822" lon="3.2483356492825286"><ele>179.0</ele><time>2026-04-22T10:10:30Z</time></trkpt><trkpt lat="42.29456119171697" lon="3.24846504186245"><ele>175.0</ele><time>2026-04-22T10:10:31Z</time></trkpt><trkpt lat="42.29458646790429" lon="3.2485955751146625"><ele>175.0</ele><time>2026-04-22T10:10:32Z</time></trkpt><trkpt lat="42.294599908160436" lon="3.2487291960972238"><ele>175.0</ele><time>2026-04-22T10:10:33Z</time></trkpt><trkpt lat="42.29457166927068" lon="3.2488489258814672"><ele>175.0</ele><time>2026-04-22T10:10:34Z</time></trkpt><trkpt lat="42.294506911030474" lon="3.248925726649661"><ele>175.0</ele><time>2026-04-22T10:10:35Z</time></trkpt><trkpt lat="42.29442114202665" lon="3.2489603235234137"><ele>175.0</ele><time>2026-04-22T10:10:36Z</time></trkpt><trkpt lat="42.29433191811552" lon="3.24896772440384"><ele>177.4</ele><time>2026-04-22T10:10:37Z</time></trkpt><trkpt lat="42.294247392687986" lon="3.2489825651535913"><ele>179.8</ele><time>2026-04-22T10:10:38Z</time></trkpt><trkpt lat="42.29416583911921" lon="3.249020148568604"><ele>182.2</ele><time>2026-04-22T10:10:39Z</time></trkpt><trkpt lat="42.29408459953026" lon="3.2490983108463256"><ele>184.6</ele><time>2026-04-22T10:10:40Z</time></trkpt><trkpt lat="42.29401266858377" lon="3.2492087723892498"><ele>187.0</ele><time>2026-04-22T10:10:41Z</time></trkpt><trkpt lat="42.293937139009024" lon="3.249331997261305"><ele>183.25</ele><time>2026-04-22T10:10:42Z</time></trkpt><trkpt lat="42.29385901774919" lon="3.2494535169250094"><ele>179.5</ele><time>2026-04-22T10:10:43Z</time></trkpt><trkpt lat="42.29378012339096" lon="3.249574195393389"><ele>175.75</ele><time>2026-04-22T10:10:44Z</time></trkpt><trkpt lat="42.29369864370863" lon="3.249699015746662"><ele>172.0</ele><time>2026-04-22T10:10:45Z</time></trkpt><trkpt lat="42.293614528292636" lon="3.2498240847889135"><ele>172.0</ele><time>2026-04-22T10:10:46Z</time></trkpt><trkpt lat="42.293531539444324" lon="3.2499492566629424"><ele>172.0</ele><time>2026-04-22T10:10:47Z</time></trkpt><trkpt lat="42.29345980894181" lon="3.250059978370711"><ele>172.0</ele><time>2026-04-22T10:10:48Z</time></trkpt><trkpt lat="42.2934042702315" lon="3.250150825431949"><ele>172.0</ele><time>2026-04-22T10:10:49Z</time></trkpt><trkpt lat="42.29336950371184" lon="3.2502474037634217"><ele>172.0</ele><time>2026-04-22T10:10:50Z</time></trkpt><trkpt lat="42.293354157305615" lon="3.250361886797257"><ele>172.0</ele><time>2026-04-22T10:10:51Z</time></trkpt><trkpt lat="42.29336225910646" lon="3.2504915014660374"><ele>172.0</ele><time>2026-04-22T10:10:52Z</time></trkpt><trkpt lat="42.293382594074195" lon="3.250630871939559"><ele>172.0</ele><time>2026-04-22T10:10:53Z</time></trkpt><trkpt lat="42.29340039827992" lon="3.2507812078725413"><ele>172.0</ele><time>2026-04-22T10:10:54Z</time></trkpt><trkpt lat="42.29341976466161" lon="3.250937203478636"><ele>172.0</ele><time>2026-04-22T10:10:55Z</time></trkpt><trkpt lat="42.29344051585836" lon="3.251091162876932"><ele>172.25</ele><time>2026-04-22T10:10:56Z</time></trkpt><trkpt lat="42.293460912964534" lon="3.2512465061339575"><ele>172.5</ele><time>2026-04-22T10:10:57Z</time></trkpt><trkpt lat="42.29347636366865" lon="3.251403790313788"><ele>172.75</ele><time>2026-04-22T10:10:58Z</time></trkpt><trkpt lat="42.29346673434791" lon="3.2515641826663653"><ele>173.0</ele><time>2026-04-22T10:10:59Z</time></trkpt><trkpt lat="42.29342635983153" lon="3.2517170009432736"><ele>172.5</ele><time>2026-04-22T10:11:00Z</time></trkpt><trkpt lat="42.293365158406885" lon="3.251853734324389"><ele>172.0</ele><time>2026-04-22T10:11:01Z</time></trkpt><trkpt lat="42.293305602367994" lon="3.2519899822602385"><ele>171.5</ele><time>2026-04-22T10:11:02Z</time></trkpt><trkpt lat="42.29324936653092" lon="3.252127898400926"><ele>171.0</ele><time>2026-04-22T10:11:03Z</time></trkpt><trkpt lat="42.29319228709718" lon="3.2522678871428674"><ele>172.25</ele><time>2026-04-22T10:11:04Z</time></trkpt><trkpt lat="42.29313134036947" lon="3.252405534255093"><ele>173.5</ele><time>2026-04-22T10:11:05Z</time></trkpt><trkpt lat="42.29307442845401" lon="3.2525442071965016"><ele>174.75</ele><time>2026-04-22T10:11:06Z</time></trkpt><trkpt lat="42.29303497371551" lon="3.252692517005769"><ele>176.0</ele><time>2026-04-22T10:11:07Z</time></trkpt><trkpt lat="42.29300858639742" lon="3.2528429052586216"><ele>169.20000000000002</ele><time>2026-04-22T10:11:08Z</time></trkpt><trkpt lat="42.29298520772857" lon="3.252992397027536"><ele>162.4</ele><time>2026-04-22T10:11:09Z</time></trkpt><trkpt lat="42.2929692813804" lon="3.253134954439398"><ele>155.6</ele><time>2026-04-22T10:11:10Z</time></trkpt><trkpt lat="42.2929609126327" lon="3.253280953422394"><ele>148.8</ele><time>2026-04-22T10:11:11Z</time></trkpt><trkpt lat="42.292969795019886" lon="3.2534322524839836"><ele>142.0</ele><time>2026-04-22T10:11:12Z</time></trkpt><trkpt lat="42.292981677971056" lon="3.253588759381712"><ele>142.0</ele><time>2026-04-22T10:11:13Z</time></trkpt><trkpt lat="42.29299312355068" lon="3.253745725244658"><ele>142.0</ele><time>2026-04-22T10:11:14Z</time></trkpt><trkpt lat="42.29300394023979" lon="3.2539038677993637"><ele>142.0</ele><time>2026-04-22T10:11:15Z</time></trkpt><trkpt lat="42.29301568694769" lon="3.2540629275292585"><ele>142.0</ele><time>2026-04-22T10:11:16Z</time></trkpt><trkpt lat="42.29302569276253" lon="3.2542213074753175"><ele>142.0</ele><time>2026-04-22T10:11:17Z</time></trkpt><trkpt lat="42.293034542438356" lon="3.254369758161958"><ele>142.0</ele><time>2026-04-22T10:11:18Z</time></trkpt><trkpt lat="42.29304264120456" lon="3.2545031997981932"><ele>142.0</ele><time>2026-04-22T10:11:19Z</time></trkpt><trkpt lat="42.2930549483508" lon="3.2546234568941004"><ele>142.0</ele><time>2026-04-22T10:11:20Z</time></trkpt><trkpt lat="42.29309885274155" lon="3.2547329141216177"><ele>142.0</ele><time>2026-04-22T10:11:21Z</time></trkpt><trkpt lat="42.293164599652485" lon="3.254821395523448"><ele>144.6</ele><time>2026-04-22T10:11:22Z</time></trkpt><trkpt lat="42.29324838629753" lon="3.254883234735825"><ele>147.2</ele><time>2026-04-22T10:11:23Z</time></trkpt><trkpt lat="42.293341264557135" lon="3.2549309492044602"><ele>149.8</ele><time>2026-04-22T10:11:24Z</time></trkpt><trkpt lat="42.293443073880496" lon="3.254939097412335"><ele>152.4</ele><time>2026-04-22T10:11:25Z</time></trkpt><trkpt lat="42.29354598408" lon="3.25492255765553"><ele>155.0</ele><time>2026-04-22T10:11:26Z</time></trkpt><trkpt lat="42.29364764269826" lon="3.254903567025823"><ele>155.0</ele><time>2026-04-22T10:11:27Z</time></trkpt><trkpt lat="42.29374502247898" lon="3.2548969324246944"><ele>155.0</ele><time>2026-04-22T10:11:28Z</time></trkpt><trkpt lat="42.29383327607441" lon="3.2549229489248974"><ele>155.0</ele><time>2026-04-22T10:11:29Z</time></trkpt><trkpt lat="42.29391048006276" lon="3.254982168786509"><ele>155.0</ele><time>2026-04-22T10:11:30Z</time></trkpt><trkpt lat="42.29396742865306" lon="3.2550780722344603"><ele>155.0</ele><time>2026-04-22T10:11:31Z</time></trkpt><trkpt lat="42.29398968889168" lon="3.255206332779182"><ele>156.4</ele><time>2026-04-22T10:11:32Z</time></trkpt><trkpt lat="42.29399024060779" lon="3.2553376929163957"><ele>157.8</ele><time>2026-04-22T10:11:33Z</time></trkpt><trkpt lat="42.29399200773974" lon="3.2554678777157657"><ele>159.2</ele><time>2026-04-22T10:11:34Z</time></trkpt><trkpt lat="42.29399932440712" lon="3.2556029235827784"><ele>160.6</ele><time>2026-04-22T10:11:35Z</time></trkpt><trkpt lat="42.294009883457875" lon="3.255728043187945"><ele>162.0</ele><time>2026-04-22T10:11:36Z</time></trkpt><trkpt lat="42.29404366716538" lon="3.2558359256726304"><ele>159.2</ele><time>2026-04-22T10:11:37Z</time></trkpt><trkpt lat="42.29410890993894" lon="3.2559260438808084"><ele>156.39999999999998</ele><time>2026-04-22T10:11:38Z</time></trkpt><trkpt lat="42.29419769172455" lon="3.255977297301952"><ele>153.60000000000002</ele><time>2026-04-22T10:11:39Z</time></trkpt><trkpt lat="42.29429930874286" lon="3.2559941921445694"><ele>150.8</ele><time>2026-04-22T10:11:40Z</time></trkpt><trkpt lat="42.29441373553817" lon="3.255987368901104"><ele>148.0</ele><time>2026-04-22T10:11:41Z</time></trkpt><trkpt lat="42.294535847134064" lon="3.2559714676850886"><ele>148.0</ele><time>2026-04-22T10:11:42Z</time></trkpt><trkpt lat="42.29465551176089" lon="3.255954969904603"><ele>148.0</ele><time>2026-04-22T10:11:43Z</time></trkpt><trkpt lat="42.29477324365235" lon="3.255940001497879"><ele>148.0</ele><time>2026-04-22T10:11:44Z</time></trkpt><trkpt lat="42.29489239838601" lon="3.255925936928974"><ele>148.0</ele><time>2026-04-22T10:11:45Z</time></trkpt><trkpt lat="42.29501065622363" lon="3.255907259875651"><ele>147.5</ele><time>2026-04-22T10:11:46Z</time></trkpt><trkpt lat="42.29512982801678" lon="3.2558860104467207"><ele>147.0</ele><time>2026-04-22T10:11:47Z</time></trkpt><trkpt lat="42.29524959725821" lon="3.255863735092208"><ele>146.5</ele><time>2026-04-22T10:11:48Z</time></trkpt><trkpt lat="42.295365758262605" lon="3.2558427436154256"><ele>146.0</ele><time>2026-04-22T10:11:49Z</time></trkpt><trkpt lat="42.295475467725865" lon="3.2558244162629206"><ele>146.0</ele><time>2026-04-22T10:11:50Z</time></trkpt><trkpt lat="42.29557618056775" lon="3.2558204576848837"><ele>146.0</ele><time>2026-04-22T10:11:51Z</time></trkpt><trkpt lat="42.29567361916499" lon="3.255865160193736"><ele>146.0</ele><time>2026-04-22T10:11:52Z</time></trkpt><trkpt lat="42.29575273456272" lon="3.2559578384086865"><ele>146.0</ele><time>2026-04-22T10:11:53Z</time></trkpt><trkpt lat="42.29581891631814" lon="3.256064317883029"><ele>146.0</ele><time>2026-04-22T10:11:54Z</time></trkpt><trkpt lat="42.29588715828142" lon="3.256169502119323"><ele>145.83333333333331</ele><time>2026-04-22T10:11:55Z</time></trkpt><trkpt lat="42.29595343555974" lon="3.2562650270573275"><ele>145.66666666666666</ele><time>2026-04-22T10:11:56Z</time></trkpt><trkpt lat="42.29601093568917" lon="3.25634987171054"><ele>145.5</ele><time>2026-04-22T10:11:57Z</time></trkpt><trkpt lat="42.296052331047626" lon="3.2564476369581015"><ele>145.33333333333334</ele><time>2026-04-22T10:11:58Z</time></trkpt><trkpt lat="42.29606653397326" lon="3.256566396184952"><ele>145.16666666666669</ele><time>2026-04-22T10:11:59Z</time></trkpt><trkpt lat="42.29604434737241" lon="3.256682839342676"><ele>145.0</ele><time>2026-04-22T10:12:00Z</time></trkpt><trkpt lat="42.295988563370855" lon="3.2567818935285815"><ele>143.6</ele><time>2026-04-22T10:12:01Z</time></trkpt><trkpt lat="42.29590698956535" lon="3.2568493913329295"><ele>142.2</ele><time>2026-04-22T10:12:02Z</time></trkpt><trkpt lat="42.29581616996446" lon="3.256917270392172"><ele>140.8</ele><time>2026-04-22T10:12:03Z</time></trkpt><trkpt lat="42.29572836801566" lon="3.2569888724318288"><ele>139.4</ele><time>2026-04-22T10:12:04Z</time></trkpt><trkpt lat="42.295640463982984" lon="3.2570573979530058"><ele>138.0</ele><time>2026-04-22T10:12:05Z</time></trkpt><trkpt lat="42.29555291360974" lon="3.2571264503519983"><ele>136.0</ele><time>2026-04-22T10:12:06Z</time></trkpt><trkpt lat="42.29546721254093" lon="3.2572013024340167"><ele>134.0</ele><time>2026-04-22T10:12:07Z</time></trkpt><trkpt lat="42.295387603086084" lon="3.257292665840127"><ele>132.0</ele><time>2026-04-22T10:12:08Z</time></trkpt><trkpt lat="42.29531173471773" lon="3.257403147631263"><ele>130.0</ele><time>2026-04-22T10:12:09Z</time></trkpt><trkpt lat="42.295234512493145" lon="3.257520535420781"><ele>128.0</ele><time>2026-04-22T10:12:10Z</time></trkpt><trkpt lat="42.295158612583045" lon="3.257640928534782"><ele>127.60000000000001</ele><time>2026-04-22T10:12:11Z</time></trkpt><trkpt lat="42.29508032257311" lon="3.2577592398261945"><ele>127.20000000000002</ele><time>2026-04-22T10:12:12Z</time></trkpt><trkpt lat="42.295005332825816" lon="3.257870632354964"><ele>126.8</ele><time>2026-04-22T10:12:13Z</time></trkpt><trkpt lat="42.29493870354063" lon="3.2579708651765995"><ele>126.4</ele><time>2026-04-22T10:12:14Z</time></trkpt><trkpt lat="42.29488140889342" lon="3.258062180687755"><ele>126.0</ele><time>2026-04-22T10:12:15Z</time></trkpt><trkpt lat="42.29483840316829" lon="3.258157023560721"><ele>126.83333333333333</ele><time>2026-04-22T10:12:16Z</time></trkpt><trkpt lat="42.294814391977674" lon="3.2582496221081456"><ele>127.66666666666666</ele><time>2026-04-22T10:12:17Z</time></trkpt><trkpt lat="42.294805029761385" lon="3.2583377657588675"><ele>128.5</ele><time>2026-04-22T10:12:18Z</time></trkpt><trkpt lat="42.29481129396346" lon="3.2584324349557368"><ele>129.33333333333331</ele><time>2026-04-22T10:12:19Z</time></trkpt><trkpt lat="42.29482380574439" lon="3.2585319284465073"><ele>130.16666666666666</ele><time>2026-04-22T10:12:20Z</time></trkpt><trkpt lat="42.29484304629778" lon="3.2586404318531605"><ele>131.0</ele><time>2026-04-22T10:12:21Z</time></trkpt><trkpt lat="42.29487039999506" lon="3.258759657240357"><ele>131.0</ele><time>2026-04-22T10:12:22Z</time></trkpt><trkpt lat="42.29489958080063" lon="3.258885319523003"><ele>131.0</ele><time>2026-04-22T10:12:23Z</time></trkpt><trkpt lat="42.29493851789419" lon="3.2590092849567087"><ele>131.0</ele><time>2026-04-22T10:12:24Z</time></trkpt><trkpt lat="42.29498850861121" lon="3.259122956266762"><ele>131.0</ele><time>2026-04-22T10:12:25Z</time></trkpt><trkpt lat="42.29504254497137" lon="3.2592337629537487"><ele>131.0</ele><time>2026-04-22T10:12:26Z</time></trkpt><trkpt lat="42.29508928579925" lon="3.2593406294153575"><ele>130.66666666666666</ele><time>2026-04-22T10:12:27Z</time></trkpt><trkpt lat="42.29511761610857" lon="3.259438805797039"><ele>130.33333333333331</ele><time>2026-04-22T10:12:28Z</time></trkpt><trkpt lat="42.29511003131845" lon="3.2595437182950686"><ele>130.0</ele><time>2026-04-22T10:12:29Z</time></trkpt><trkpt lat="42.295068323228264" lon="3.259639222373917"><ele>129.66666666666666</ele><time>2026-04-22T10:12:30Z</time></trkpt><trkpt lat="42.29500510597667" lon="3.259708739124786"><ele>129.33333333333334</ele><time>2026-04-22T10:12:31Z</time></trkpt><trkpt lat="42.2949240854565" lon="3.2597346911138603"><ele>129.0</ele><time>2026-04-22T10:12:32Z</time></trkpt><trkpt lat="42.294840847733674" lon="3.2597158559899375"><ele>125.2</ele><time>2026-04-22T10:12:33Z</time></trkpt><trkpt lat="42.29474951773403" lon="3.259692834707041"><ele>121.4</ele><time>2026-04-22T10:12:34Z</time></trkpt><trkpt lat="42.29464797586691" lon="3.2596715344945704"><ele>117.6</ele><time>2026-04-22T10:12:35Z</time></trkpt><trkpt lat="42.29454150233533" lon="3.259647272610395"><ele>113.8</ele><time>2026-04-22T10:12:36Z</time></trkpt><trkpt lat="42.29443551108075" lon="3.259623243807456"><ele>110.0</ele><time>2026-04-22T10:12:37Z</time></trkpt><trkpt lat="42.29433119042097" lon="3.2595978790105757"><ele>110.0</ele><time>2026-04-22T10:12:38Z</time></trkpt><trkpt lat="42.294232252811916" lon="3.2595748257000303"><ele>110.0</ele><time>2026-04-22T10:12:39Z</time></trkpt><trkpt lat="42.29414156904776" lon="3.2595544392936486"><ele>110.0</ele><time>2026-04-22T10:12:40Z</time></trkpt><trkpt lat="42.29404871532868" lon="3.25955488149895"><ele>110.0</ele><time>2026-04-22T10:12:41Z</time></trkpt><trkpt lat="42.29395837260714" lon="3.25958809659577"><ele>110.0</ele><time>2026-04-22T10:12:42Z</time></trkpt><trkpt lat="42.29386862283341" lon="3.259647922721469"><ele>109.0</ele><time>2026-04-22T10:12:43Z</time></trkpt><trkpt lat="42.29377832205848" lon="3.259717883767203"><ele>108.0</ele><time>2026-04-22T10:12:44Z</time></trkpt><trkpt lat="42.29369192906964" lon="3.2597956469071505"><ele>107.0</ele><time>2026-04-22T10:12:45Z</time></trkpt><trkpt lat="42.2936111025302" lon="3.2598799805224843"><ele>106.0</ele><time>2026-04-22T10:12:46Z</time></trkpt><trkpt lat="42.2935472031229" lon="3.259986877250573"><ele>105.0</ele><time>2026-04-22T10:12:47Z</time></trkpt><trkpt lat="42.2934937721149" lon="3.2601172567786714"><ele>105.0</ele><time>2026-04-22T10:12:48Z</time></trkpt><trkpt lat="42.29344173089239" lon="3.260252623773723"><ele>105.0</ele><time>2026-04-22T10:12:49Z</time></trkpt><trkpt lat="42.293390177100214" lon="3.260380225207854"><ele>105.0</ele><time>2026-04-22T10:12:50Z</time></trkpt><trkpt lat="42.29334480729598" lon="3.260497129239598"><ele>105.0</ele><time>2026-04-22T10:12:51Z</time></trkpt><trkpt lat="42.29330434151329" lon="3.2606091368401406"><ele>105.0</ele><time>2026-04-22T10:12:52Z</time></trkpt><trkpt lat="42.2932812450359" lon="3.260728712125131"><ele>106.2</ele><time>2026-04-22T10:12:53Z</time></trkpt><trkpt lat="42.2932816452577" lon="3.260853004419045"><ele>107.4</ele><time>2026-04-22T10:12:54Z</time></trkpt><trkpt lat="42.293305129423764" lon="3.260976838265356"><ele>108.6</ele><time>2026-04-22T10:12:55Z</time></trkpt><trkpt lat="42.29334767317924" lon="3.2610898412947535"><ele>109.8</ele><time>2026-04-22T10:12:56Z</time></trkpt><trkpt lat="42.293410708242654" lon="3.2611880350306377"><ele>111.0</ele><time>2026-04-22T10:12:57Z</time></trkpt><trkpt lat="42.29349079668046" lon="3.261266578001425"><ele>111.0</ele><time>2026-04-22T10:12:58Z</time></trkpt><trkpt lat="42.29358171799739" lon="3.2613438315828582"><ele>111.0</ele><time>2026-04-22T10:12:59Z</time></trkpt><trkpt lat="42.293676192249" lon="3.2614278007990296"><ele>111.0</ele><time>2026-04-22T10:13:00Z</time></trkpt><trkpt lat="42.29376735389803" lon="3.2615125820877235"><ele>111.0</ele><time>2026-04-22T10:13:01Z</time></trkpt><trkpt lat="42.29385790710918" lon="3.2615957764782584"><ele>111.0</ele><time>2026-04-22T10:13:02Z</time></trkpt><trkpt lat="42.29394455872579" lon="3.2616686121913587"><ele>112.0</ele><time>2026-04-22T10:13:03Z</time></trkpt><trkpt lat="42.29402281075242" lon="3.2617341112749934"><ele>113.0</ele><time>2026-04-22T10:13:04Z</time></trkpt><trkpt lat="42.2940947078534" lon="3.261793790749596"><ele>114.0</ele><time>2026-04-22T10:13:05Z</time></trkpt><trkpt lat="42.2941468201448" lon="3.2618669058024032"><ele>115.0</ele><time>2026-04-22T10:13:06Z</time></trkpt><trkpt lat="42.29417383722416" lon="3.2619577382599285"><ele>116.0</ele><time>2026-04-22T10:13:07Z</time></trkpt><trkpt lat="42.29417652901082" lon="3.2620597215175824"><ele>117.0</ele><time>2026-04-22T10:13:08Z</time></trkpt><trkpt lat="42.29414382722728" lon="3.262155535382394"><ele>117.0</ele><time>2026-04-22T10:13:09Z</time></trkpt><trkpt lat="42.29407586664703" lon="3.2622290580782596"><ele>116.99999999999999</ele><time>2026-04-22T10:13:10Z</time></trkpt><trkpt lat="42.29398648104946" lon="3.262275623366525"><ele>116.99999999999999</ele><time>2026-04-22T10:13:11Z</time></trkpt><trkpt lat="42.29388695081119" lon="3.2623170483947175"><ele>117.0</ele><time>2026-04-22T10:13:12Z</time></trkpt><trkpt lat="42.29378720490951" lon="3.262367265547609"><ele>117.0</ele><time>2026-04-22T10:13:13Z</time></trkpt><trkpt lat="42.29368659457877" lon="3.2624202628758074"><ele>113.8</ele><time>2026-04-22T10:13:14Z</time></trkpt><trkpt lat="42.293585080970914" lon="3.262471127298016"><ele>110.6</ele><time>2026-04-22T10:13:15Z</time></trkpt><trkpt lat="42.29348395512087" lon="3.2625213437302825"><ele>107.39999999999999</ele><time>2026-04-22T10:13:16Z</time></trkpt><trkpt lat="42.29338285385856" lon="3.2625748670538655"><ele>104.19999999999999</ele><time>2026-04-22T10:13:17Z</time></trkpt><trkpt lat="42.29328125650255" lon="3.2626296258636436"><ele>101.0</ele><time>2026-04-22T10:13:18Z</time></trkpt><trkpt lat="42.29318114474431" lon="3.2626924954649135"><ele>97.0</ele><time>2026-04-22T10:13:19Z</time></trkpt><trkpt lat="42.29308775833963" lon="3.2627723594136318"><ele>93.0</ele><time>2026-04-22T10:13:20Z</time></trkpt><trkpt lat="42.29300165901349" lon="3.2628657672439028"><ele>89.0</ele><time>2026-04-22T10:13:21Z</time></trkpt><trkpt lat="42.29292589125584" lon="3.2629706836890566"><ele>85.0</ele><time>2026-04-22T10:13:22Z</time></trkpt><trkpt lat="42.292867033834476" lon="3.263077134201813"><ele>81.0</ele><time>2026-04-22T10:13:23Z</time></trkpt><trkpt lat="42.2928340559602" lon="3.2632101574951977"><ele>81.0</ele><time>2026-04-22T10:13:24Z</time></trkpt><trkpt lat="42.292821465815415" lon="3.263356047838662"><ele>81.0</ele><time>2026-04-22T10:13:25Z</time></trkpt><trkpt lat="42.29280921465814" lon="3.2635033596911582"><ele>81.0</ele><time>2026-04-22T10:13:26Z</time></trkpt><trkpt lat="42.29280049047989" lon="3.2636459468078725"><ele>81.0</ele><time>2026-04-22T10:13:27Z</time></trkpt><trkpt lat="42.292802799331895" lon="3.2637736526673504"><ele>81.0</ele><time>2026-04-22T10:13:28Z</time></trkpt><trkpt lat="42.29282997636278" lon="3.263902012736093"><ele>81.0</ele><time>2026-04-22T10:13:29Z</time></trkpt><trkpt lat="42.29287299386228" lon="3.2640238321445163"><ele>81.0</ele><time>2026-04-22T10:13:30Z</time></trkpt><trkpt lat="42.29292162469758" lon="3.2641395985234065"><ele>81.0</ele><time>2026-04-22T10:13:31Z</time></trkpt><trkpt lat="42.292975495316185" lon="3.2642482307302347"><ele>81.0</ele><time>2026-04-22T10:13:32Z</time></trkpt><trkpt lat="42.293026908901076" lon="3.2643597128509714"><ele>81.0</ele><time>2026-04-22T10:13:33Z</time></trkpt><trkpt lat="42.29305020030254" lon="3.2644880293391845"><ele>81.0</ele><time>2026-04-22T10:13:34Z</time></trkpt><trkpt lat="42.293039178895775" lon="3.2646257985975065"><ele>81.0</ele><time>2026-04-22T10:13:35Z</time></trkpt><trkpt lat="42.29299444527793" lon="3.264758996512562"><ele>81.0</ele><time>2026-04-22T10:13:36Z</time></trkpt><trkpt lat="42.2929431591636" lon="3.2648922196744414"><ele>81.0</ele><time>2026-04-22T10:13:37Z</time></trkpt><trkpt lat="42.2928844246666" lon="3.265016328012307"><ele>81.0</ele><time>2026-04-22T10:13:38Z</time></trkpt><trkpt lat="42.292808429316025" lon="3.2651257293956717"><ele>80.25</ele><time>2026-04-22T10:13:39Z</time></trkpt><trkpt lat="42.292720233684186" lon="3.2652227618999756"><ele>79.5</ele><time>2026-04-22T10:13:40Z</time></trkpt><trkpt lat="42.292632352437785" lon="3.265319119593198"><ele>78.75</ele><time>2026-04-22T10:13:41Z</time></trkpt><trkpt lat="42.292559866071855" lon="3.2654350808750805"><ele>78.0</ele><time>2026-04-22T10:13:42Z</time></trkpt><trkpt lat="42.292505882582866" lon="3.2655747437304616"><ele>79.4</ele><time>2026-04-22T10:13:43Z</time></trkpt><trkpt lat="42.29247092164877" lon="3.265721655803998"><ele>80.8</ele><time>2026-04-22T10:13:44Z</time></trkpt><trkpt lat="42.292432676124335" lon="3.2658676538549676"><ele>82.2</ele><time>2026-04-22T10:13:45Z</time></trkpt><trkpt lat="42.292398782494914" lon="3.266001791383344"><ele>83.6</ele><time>2026-04-22T10:13:46Z</time></trkpt><trkpt lat="42.29237498587901" lon="3.266121522340588"><ele>85.0</ele><time>2026-04-22T10:13:47Z</time></trkpt><trkpt lat="42.292375178833964" lon="3.2662548086756784"><ele>85.0</ele><time>2026-04-22T10:13:48Z</time></trkpt><trkpt lat="42.29240250758532" lon="3.2663936180202047"><ele>85.0</ele><time>2026-04-22T10:13:49Z</time></trkpt><trkpt lat="42.29245900288285" lon="3.2665335637343547"><ele>85.0</ele><time>2026-04-22T10:13:50Z</time></trkpt><trkpt lat="42.29252536774368" lon="3.2666807184441997"><ele>85.0</ele><time>2026-04-22T10:13:51Z</time></trkpt><trkpt lat="42.29258863997776" lon="3.2668271688527977"><ele>84.5</ele><time>2026-04-22T10:13:52Z</time></trkpt><trkpt lat="42.29264099365558" lon="3.266983865708021"><ele>84.0</ele><time>2026-04-22T10:13:53Z</time></trkpt><trkpt lat="42.292661014388386" lon="3.2671562287931653"><ele>83.5</ele><time>2026-04-22T10:13:54Z</time></trkpt><trkpt lat="42.29266243742555" lon="3.267333078146634"><ele>83.0</ele><time>2026-04-22T10:13:55Z</time></trkpt><trkpt lat="42.292658893912794" lon="3.267510796609421"><ele>80.25</ele><time>2026-04-22T10:13:56Z</time></trkpt><trkpt lat="42.29265582552659" lon="3.2676903955005585"><ele>77.5</ele><time>2026-04-22T10:13:57Z</time></trkpt><trkpt lat="42.29265685622719" lon="3.2678724629319538"><ele>74.75</ele><time>2026-04-22T10:13:58Z</time></trkpt><trkpt lat="42.29265882129264" lon="3.2680565052507964"><ele>72.0</ele><time>2026-04-22T10:13:59Z</time></trkpt><trkpt lat="42.292659008494375" lon="3.2682413690834684"><ele>70.5</ele><time>2026-04-22T10:14:00Z</time></trkpt><trkpt lat="42.29266002728906" lon="3.2684282300926943"><ele>69.0</ele><time>2026-04-22T10:14:01Z</time></trkpt><trkpt lat="42.2926616846815" lon="3.2686050108693836"><ele>67.5</ele><time>2026-04-22T10:14:02Z</time></trkpt><trkpt lat="42.292664842672785" lon="3.268767834891112"><ele>66.0</ele><time>2026-04-22T10:14:03Z</time></trkpt><trkpt lat="42.29268208807933" lon="3.2689144312200664"><ele>64.6</ele><time>2026-04-22T10:14:04Z</time></trkpt><trkpt lat="42.29272292687214" lon="3.2690521790104676"><ele>63.199999999999996</ele><time>2026-04-22T10:14:05Z</time></trkpt><trkpt lat="42.29278047182331" lon="3.269177726997757"><ele>61.800000000000004</ele><time>2026-04-22T10:14:06Z</time></trkpt><trkpt lat="42.292830571783725" lon="3.269297567398834"><ele>60.400000000000006</ele><time>2026-04-22T10:14:07Z</time></trkpt><trkpt lat="42.292874518304274" lon="3.2694117657796475"><ele>59.0</ele><time>2026-04-22T10:14:08Z</time></trkpt><trkpt lat="42.29289169361863" lon="3.269527100822933"><ele>59.0</ele><time>2026-04-22T10:14:09Z</time></trkpt><trkpt lat="42.29287782878503" lon="3.2696468791080693"><ele>59.00000000000001</ele><time>2026-04-22T10:14:10Z</time></trkpt><trkpt lat="42.292815730276736" lon="3.269742343077516"><ele>59.00000000000001</ele><time>2026-04-22T10:14:11Z</time></trkpt><trkpt lat="42.292726106301885" lon="3.2697855362940547"><ele>59.0</ele><time>2026-04-22T10:14:12Z</time></trkpt><trkpt lat="42.292627783354504" lon="3.269802103961725"><ele>59.0</ele><time>2026-04-22T10:14:13Z</time></trkpt><trkpt lat="42.292526849787706" lon="3.2698297596406"><ele>57.6</ele><time>2026-04-22T10:14:14Z</time></trkpt><trkpt lat="42.292431137444204" lon="3.2698802209972895"><ele>56.2</ele><time>2026-04-22T10:14:15Z</time></trkpt><trkpt lat="42.29234096772206" lon="3.2699491592741277"><ele>54.800000000000004</ele><time>2026-04-22T10:14:16Z</time></trkpt><trkpt lat="42.29225882025669" lon="3.2700392794235382"><ele>53.400000000000006</ele><time>2026-04-22T10:14:17Z</time></trkpt><trkpt lat="42.29217254204181" lon="3.270120934293398"><ele>52.0</ele><time>2026-04-22T10:14:18Z</time></trkpt><trkpt lat="42.292070250461045" lon="3.2701701482794348"><ele>52.0</ele><time>2026-04-22T10:14:19Z</time></trkpt><trkpt lat="42.29196069640599" lon="3.270189257459617"><ele>52.0</ele><time>2026-04-22T10:14:20Z</time></trkpt><trkpt lat="42.29184908749189" lon="3.2701888717149"><ele>52.0</ele><time>2026-04-22T10:14:21Z</time></trkpt><trkpt lat="42.29173787501843" lon="3.2701989266598117"><ele>52.0</ele><time>2026-04-22T10:14:22Z</time></trkpt><trkpt lat="42.29162598310183" lon="3.2702131494325553"><ele>52.0</ele><time>2026-04-22T10:14:23Z</time></trkpt><trkpt lat="42.291509751928544" lon="3.270229533744306"><ele>51.25</ele><time>2026-04-22T10:14:24Z</time></trkpt><trkpt lat="42.29139399075935" lon="3.27024623246888"><ele>50.5</ele><time>2026-04-22T10:14:25Z</time></trkpt><trkpt lat="42.2912766624864" lon="3.2702629800705725"><ele>49.75</ele><time>2026-04-22T10:14:26Z</time></trkpt><trkpt lat="42.29116589035626" lon="3.270279198167543"><ele>49.0</ele><time>2026-04-22T10:14:27Z</time></trkpt><trkpt lat="42.29106151913203" lon="3.270272842356803"><ele>49.0</ele><time>2026-04-22T10:14:28Z</time></trkpt><trkpt lat="42.29095655239937" lon="3.270235903471747"><ele>49.0</ele><time>2026-04-22T10:14:29Z</time></trkpt><trkpt lat="42.29085400874922" lon="3.270181289462195"><ele>49.0</ele><time>2026-04-22T10:14:30Z</time></trkpt><trkpt lat="42.290759916664484" lon="3.270098185395368"><ele>49.0</ele><time>2026-04-22T10:14:31Z</time></trkpt><trkpt lat="42.29066350023482" lon="3.270021414926378"><ele>49.0</ele><time>2026-04-22T10:14:32Z</time></trkpt><trkpt lat="42.29055823908709" lon="3.269963163913947"><ele>48.0</ele><time>2026-04-22T10:14:33Z</time></trkpt><trkpt lat="42.29044538424354" lon="3.269923398759613"><ele>47.0</ele><time>2026-04-22T10:14:34Z</time></trkpt><trkpt lat="42.29033067929912" lon="3.2698974772107645"><ele>46.0</ele><time>2026-04-22T10:14:35Z</time></trkpt><trkpt lat="42.29021334451577" lon="3.269890938675251"><ele>45.0</ele><time>2026-04-22T10:14:36Z</time></trkpt><trkpt lat="42.290095702683566" lon="3.269887654704108"><ele>45.0</ele><time>2026-04-22T10:14:37Z</time></trkpt><trkpt lat="42.289977653190824" lon="3.269879152157018"><ele>45.0</ele><time>2026-04-22T10:14:38Z</time></trkpt><trkpt lat="42.28985511316698" lon="3.269867530749508"><ele>45.0</ele><time>2026-04-22T10:14:39Z</time></trkpt><trkpt lat="42.28973212600804" lon="3.2698570377135634"><ele>45.0</ele><time>2026-04-22T10:14:40Z</time></trkpt><trkpt lat="42.289607224661744" lon="3.2698435550877076"><ele>41.75</ele><time>2026-04-22T10:14:41Z</time></trkpt><trkpt lat="42.28948232938478" lon="3.2698321930351026"><ele>38.5</ele><time>2026-04-22T10:14:42Z</time></trkpt><trkpt lat="42.28935736210998" lon="3.269819852724709"><ele>35.25</ele><time>2026-04-22T10:14:43Z</time></trkpt><trkpt lat="42.28924577794588" lon="3.269809242498716"><ele>32.0</ele><time>2026-04-22T10:14:44Z</time></trkpt><trkpt lat="42.28915052066241" lon="3.2698169742966936"><ele>32.0</ele><time>2026-04-22T10:14:45Z</time></trkpt><trkpt lat="42.28905465534954" lon="3.2698597450869262"><ele>32.0</ele><time>2026-04-22T10:14:46Z</time></trkpt><trkpt lat="42.2889834742747" lon="3.269966028375748"><ele>32.0</ele><time>2026-04-22T10:14:47Z</time></trkpt><trkpt lat="42.288941784999" lon="3.2700962729693357"><ele>32.0</ele><time>2026-04-22T10:14:48Z</time></trkpt><trkpt lat="42.28891761571711" lon="3.270239935094797"><ele>32.0</ele><time>2026-04-22T10:14:49Z</time></trkpt><trkpt lat="42.288913848476376" lon="3.27038799925228"><ele>32.0</ele><time>2026-04-22T10:14:50Z</time></trkpt><trkpt lat="42.28893219820105" lon="3.270535678457454"><ele>32.0</ele><time>2026-04-22T10:14:51Z</time></trkpt><trkpt lat="42.28896967222556" lon="3.270676616300473"><ele>32.0</ele><time>2026-04-22T10:14:52Z</time></trkpt><trkpt lat="42.2890094410718" lon="3.2708188137861405"><ele>32.0</ele><time>2026-04-22T10:14:53Z</time></trkpt><trkpt lat="42.28904622461681" lon="3.2709634877000564"><ele>32.0</ele><time>2026-04-22T10:14:54Z</time></trkpt><trkpt lat="42.28908203931923" lon="3.271111646619654"><ele>33.0</ele><time>2026-04-22T10:14:55Z</time></trkpt><trkpt lat="42.289119023043185" lon="3.271262016278797"><ele>34.0</ele><time>2026-04-22T10:14:56Z</time></trkpt><trkpt lat="42.28916929602424" lon="3.271405988255691"><ele>35.0</ele><time>2026-04-22T10:14:57Z</time></trkpt><trkpt lat="42.289239821060214" lon="3.271522724181374"><ele>36.0</ele><time>2026-04-22T10:14:58Z</time></trkpt><trkpt lat="42.28933452306921" lon="3.271612749061797"><ele>32.0</ele><time>2026-04-22T10:14:59Z</time></trkpt><trkpt lat="42.28943675906721" lon="3.2716916514706873"><ele>28.0</ele><time>2026-04-22T10:15:00Z</time></trkpt><trkpt lat="42.28953481098156" lon="3.2717750828232743"><ele>24.0</ele><time>2026-04-22T10:15:01Z</time></trkpt><trkpt lat="42.28963779646247" lon="3.2718595384671567"><ele>20.0</ele><time>2026-04-22T10:15:02Z</time></trkpt><trkpt lat="42.28974068272916" lon="3.2719431799399685"><ele>18.6</ele><time>2026-04-22T10:15:03Z</time></trkpt><trkpt lat="42.28984374367994" lon="3.272026941902955"><ele>17.2</ele><time>2026-04-22T10:15:04Z</time></trkpt><trkpt lat="42.28993882998645" lon="3.2721114049467652"><ele>15.8</ele><time>2026-04-22T10:15:05Z</time></trkpt><trkpt lat="42.29002861545305" lon="3.272188938210249"><ele>14.4</ele><time>2026-04-22T10:15:06Z</time></trkpt><trkpt lat="42.290116048804094" lon="3.2722630071426084"><ele>13.0</ele><time>2026-04-22T10:15:07Z</time></trkpt><trkpt lat="42.29019479722508" lon="3.272331725804699"><ele>12.999999999999998</ele><time>2026-04-22T10:15:08Z</time></trkpt><trkpt lat="42.290270035656945" lon="3.2723677600812193"><ele>13.0</ele><time>2026-04-22T10:15:09Z</time></trkpt><trkpt lat="42.290353981455574" lon="3.2723773395590134"><ele>13.0</ele><time>2026-04-22T10:15:10Z</time></trkpt><trkpt lat="42.290441342394345" lon="3.2723669667749262"><ele>13.0</ele><time>2026-04-22T10:15:11Z</time></trkpt><trkpt lat="42.29053053902644" lon="3.272351998597071"><ele>12.999999999999998</ele><time>2026-04-22T10:15:12Z</time></trkpt><trkpt lat="42.29061434893789" lon="3.272340436326203"><ele>13.0</ele><time>2026-04-22T10:15:13Z</time></trkpt><trkpt lat="42.29069188708082" lon="3.272334638361617"><ele>14.833333333333332</ele><time>2026-04-22T10:15:14Z</time></trkpt><trkpt lat="42.29076506797794" lon="3.2723672316810575"><ele>16.666666666666664</ele><time>2026-04-22T10:15:15Z</time></trkpt><trkpt lat="42.2908285062891" lon="3.2724396616253184"><ele>18.5</ele><time>2026-04-22T10:15:16Z</time></trkpt><trkpt lat="42.29086771919092" lon="3.27253947990394"><ele>20.333333333333332</ele><time>2026-04-22T10:15:17Z</time></trkpt><trkpt lat="42.29087804109836" lon="3.2726560711807355"><ele>22.166666666666668</ele><time>2026-04-22T10:15:18Z</time></trkpt><trkpt lat="42.29085959969291" lon="3.2727694025691045"><ele>24.0</ele><time>2026-04-22T10:15:19Z</time></trkpt><trkpt lat="42.290816631000645" lon="3.2728710835854344"><ele>24.0</ele><time>2026-04-22T10:15:20Z</time></trkpt><trkpt lat="42.2907620857793" lon="3.272954035613805"><ele>24.0</ele><time>2026-04-22T10:15:21Z</time></trkpt><trkpt lat="42.290712255165566" lon="3.2730290615844804"><ele>24.0</ele><time>2026-04-22T10:15:22Z</time></trkpt><trkpt lat="42.290669282054395" lon="3.27309909309868"><ele>24.0</ele><time>2026-04-22T10:15:23Z</time></trkpt><trkpt lat="42.290600836442266" lon="3.2732135305448207"><ele>24.0</ele><time>2026-04-22T10:15:25Z</time></trkpt><trkpt lat="42.29054928407096" lon="3.27330750891951"><ele>24.0</ele><time>2026-04-22T10:15:27Z</time></trkpt><trkpt lat="42.290504281959755" lon="3.2733848013105766"><ele>21.166666666666668</ele><time>2026-04-22T10:15:29Z</time></trkpt><trkpt lat="42.29045907851801" lon="3.2734655784039846"><ele>18.333333333333332</ele><time>2026-04-22T10:15:31Z</time></trkpt><trkpt lat="42.29041314143343" lon="3.2735451163928553"><ele>15.5</ele><time>2026-04-22T10:15:33Z</time></trkpt><trkpt lat="42.290364403938" lon="3.273626776662146"><ele>12.666666666666668</ele><time>2026-04-22T10:15:35Z</time></trkpt><trkpt lat="42.290309074746595" lon="3.2737021505168156"><ele>9.833333333333334</ele><time>2026-04-22T10:15:37Z</time></trkpt><trkpt lat="42.29023948527445" lon="3.2737763349436975"><ele>7.0</ele><time>2026-04-22T10:15:39Z</time></trkpt><trkpt lat="42.290156307569035" lon="3.2738739152664214"><ele>7.166666666666667</ele><time>2026-04-22T10:15:41Z</time></trkpt><trkpt lat="42.29006732235854" lon="3.2739617628544"><ele>7.333333333333334</ele><time>2026-04-22T10:15:43Z</time></trkpt><trkpt lat="42.289985625996096" lon="3.2740086136506785"><ele>7.5</ele><time>2026-04-22T10:15:45Z</time></trkpt><trkpt lat="42.28991528606434" lon="3.2740463630616854"><ele>7.666666666666666</ele><time>2026-04-22T10:15:47Z</time></trkpt><trkpt lat="42.28988632763399" lon="3.274124702825767"><ele>7.833333333333333</ele><time>2026-04-22T10:15:49Z</time></trkpt><trkpt lat="42.289910632225194" lon="3.274223259652392"><ele>8.0</ele><time>2026-04-22T10:15:51Z</time></trkpt><trkpt lat="42.28996699395254" lon="3.274293522570324"><ele>7.999999999999999</ele><time>2026-04-22T10:15:53Z</time></trkpt><trkpt lat="42.28997700536355" lon="3.2744028648075325"><ele>8.0</ele><time>2026-04-22T10:15:55Z</time></trkpt><trkpt lat="42.289983328103425" lon="3.2745087443554377"><ele>8.0</ele><time>2026-04-22T10:15:57Z</time></trkpt><trkpt lat="42.28999619756113" lon="3.2746248953370714"><ele>8.0</ele><time>2026-04-22T10:15:59Z</time></trkpt><trkpt lat="42.29001361857713" lon="3.2747300592069712"><ele>7.999999999999999</ele><time>2026-04-22T10:16:01Z</time></trkpt><trkpt lat="42.290037194577785" lon="3.274824592563342"><ele>8.0</ele><time>2026-04-22T10:16:03Z</time></trkpt><trkpt lat="42.290068223727744" lon="3.2749342180570435"><ele>8.0</ele><time>2026-04-22T10:16:05Z</time></trkpt><trkpt lat="42.2900827083309" lon="3.2750362311225394"><ele>8.0</ele><time>2026-04-22T10:16:07Z</time></trkpt><trkpt lat="42.29007999284426" lon="3.275176888553137"><ele>8.0</ele><time>2026-04-22T10:16:09Z</time></trkpt><trkpt lat="42.290069868241766" lon="3.2753361033362456"><ele>8.0</ele><time>2026-04-22T10:16:11Z</time></trkpt><trkpt lat="42.29003968663276" lon="3.275499138481385"><ele>8.0</ele><time>2026-04-22T10:16:13Z</time></trkpt><trkpt lat="42.29002426104018" lon="3.2755835656965866"><ele>7.75</ele><time>2026-04-22T10:16:14Z</time></trkpt><trkpt lat="42.289995659019596" lon="3.2757431049169883"><ele>7.5</ele><time>2026-04-22T10:16:16Z</time></trkpt><trkpt lat="42.289974162151864" lon="3.2758919908343036"><ele>7.25</ele><time>2026-04-22T10:16:18Z</time></trkpt><trkpt lat="42.289951325726605" lon="3.276046704743356"><ele>7.0</ele><time>2026-04-22T10:16:20Z</time></trkpt><trkpt lat="42.289928440193165" lon="3.276194005116094"><ele>7.0</ele><time>2026-04-22T10:16:22Z</time></trkpt><trkpt lat="42.28990304078983" lon="3.2763512297370387"><ele>7.0</ele><time>2026-04-22T10:16:24Z</time></trkpt><trkpt lat="42.28987552603658" lon="3.276512670552378"><ele>7.0</ele><time>2026-04-22T10:16:26Z</time></trkpt><trkpt lat="42.28984992638434" lon="3.27667256672783"><ele>7.0</ele><time>2026-04-22T10:16:28Z</time></trkpt><trkpt lat="42.28982483988567" lon="3.2768134842430783"><ele>7.0</ele><time>2026-04-22T10:16:30Z</time></trkpt><trkpt lat="42.289791985584806" lon="3.2769580547388317"><ele>6.999999999999999</ele><time>2026-04-22T10:16:32Z</time></trkpt><trkpt lat="42.289727293576995" lon="3.2770781122787307"><ele>6.999999999999999</ele><time>2026-04-22T10:16:34Z</time></trkpt><trkpt lat="42.289650539797535" lon="3.277182237643262"><ele>7.0</ele><time>2026-04-22T10:16:36Z</time></trkpt><trkpt lat="42.28957158955813" lon="3.277290893118999"><ele>7.0</ele><time>2026-04-22T10:16:38Z</time></trkpt><trkpt lat="42.289500483417264" lon="3.277397464676611"><ele>7.000000000000001</ele><time>2026-04-22T10:16:40Z</time></trkpt><trkpt lat="42.28941924184708" lon="3.277498251549719"><ele>7.0</ele><time>2026-04-22T10:16:42Z</time></trkpt><trkpt lat="42.28935414385679" lon="3.277593601131174"><ele>7.0</ele><time>2026-04-22T10:16:44Z</time></trkpt><trkpt lat="42.289307371995505" lon="3.2776551040942277"><ele>7.0</ele><time>2026-04-22T10:16:46Z</time></trkpt><trkpt lat="42.28924526173101" lon="3.2777051152399856"><ele>7.000000000000001</ele><time>2026-04-22T10:16:48Z</time></trkpt><trkpt lat="42.28917301893472" lon="3.2777384002465757"><ele>7.0</ele><time>2026-04-22T10:16:50Z</time></trkpt><trkpt lat="42.28909627198715" lon="3.2777746287545746"><ele>7.0</ele><time>2026-04-22T10:16:52Z</time></trkpt><trkpt lat="42.28902753697227" lon="3.2778041571999093"><ele>7.0</ele><time>2026-04-22T10:16:54Z</time></trkpt><trkpt lat="42.28894775734777" lon="3.2778381688077207"><ele>7.0</ele><time>2026-04-22T10:16:57Z</time></trkpt><trkpt lat="42.28887984448126" lon="3.2778714655328365"><ele>7.0</ele><time>2026-04-22T10:17:00Z</time></trkpt><trkpt lat="42.288808684391455" lon="3.2779081862132307"><ele>7.0</ele><time>2026-04-22T10:17:03Z</time></trkpt><trkpt lat="42.28876255061151" lon="3.2779744031285345"><ele>7.0</ele><time>2026-04-22T10:17:06Z</time></trkpt><trkpt lat="42.288763598995445" lon="3.278061227280893"><ele>7.0</ele><time>2026-04-22T10:17:08Z</time></trkpt><trkpt lat="42.28880740378024" lon="3.2781609040306403"><ele>7.333333333333334</ele><time>2026-04-22T10:17:11Z</time></trkpt><trkpt lat="42.2888406013638" lon="3.2782647761564534"><ele>7.666666666666667</ele><time>2026-04-22T10:17:14Z</time></trkpt><trkpt lat="42.28886818251532" lon="3.2783569568136697"><ele>8.0</ele><time>2026-04-22T10:17:17Z</time></trkpt><trkpt lat="42.28889885398488" lon="3.2784462369146894"><ele>8.333333333333334</ele><time>2026-04-22T10:17:19Z</time></trkpt><trkpt lat="42.288942480060186" lon="3.2785780407883967"><ele>8.666666666666666</ele><time>2026-04-22T10:17:21Z</time></trkpt><trkpt lat="42.288963670006815" lon="3.278709815154364"><ele>9.0</ele><time>2026-04-22T10:17:23Z</time></trkpt><trkpt lat="42.28898431134481" lon="3.2788306131531915"><ele>9.285714285714286</ele><time>2026-04-22T10:17:25Z</time></trkpt><trkpt lat="42.2890011830296" lon="3.278934603863555"><ele>9.571428571428571</ele><time>2026-04-22T10:17:27Z</time></trkpt><trkpt lat="42.28901042873891" lon="3.279031234434272"><ele>9.857142857142858</ele><time>2026-04-22T10:17:29Z</time></trkpt><trkpt lat="42.28901044874064" lon="3.2791230923806967"><ele>10.142857142857142</ele><time>2026-04-22T10:17:31Z</time></trkpt><trkpt lat="42.2890095590038" lon="3.279212399448508"><ele>10.428571428571429</ele><time>2026-04-22T10:17:33Z</time></trkpt><trkpt lat="42.289005489165994" lon="3.2793106181953147"><ele>10.714285714285715</ele><time>2026-04-22T10:17:35Z</time></trkpt><trkpt lat="42.28900651225066" lon="3.2794015127069165"><ele>11.0</ele><time>2026-04-22T10:17:37Z</time></trkpt><trkpt lat="42.28901097486769" lon="3.2794889381533068"><ele>11.0</ele><time>2026-04-22T10:17:39Z</time></trkpt><trkpt lat="42.28899766675928" lon="3.2795722199316"><ele>11.0</ele><time>2026-04-22T10:17:41Z</time></trkpt><trkpt lat="42.288976132126756" lon="3.279656810505226"><ele>11.0</ele><time>2026-04-22T10:17:43Z</time></trkpt><trkpt lat="42.288945839909914" lon="3.2797448442326878"><ele>11.0</ele><time>2026-04-22T10:17:45Z</time></trkpt><trkpt lat="42.28890950867591" lon="3.2798298065704246"><ele>11.0</ele><time>2026-04-22T10:17:47Z</time></trkpt><trkpt lat="42.288876803835" lon="3.2799147310844505"><ele>11.0</ele><time>2026-04-22T10:17:49Z</time></trkpt><trkpt lat="42.288851349551315" lon="3.279994435697242"><ele>11.0</ele><time>2026-04-22T10:17:51Z</time></trkpt><trkpt lat="42.28881320357503" lon="3.2800623709698677"><ele>11.166666666666666</ele><time>2026-04-22T10:17:57Z</time></trkpt><trkpt lat="42.2887688581071" lon="3.2801551173419923"><ele>11.333333333333332</ele><time>2026-04-22T10:17:59Z</time></trkpt><trkpt lat="42.288728665407646" lon="3.2802580048193666"><ele>11.5</ele><time>2026-04-22T10:18:01Z</time></trkpt><trkpt lat="42.28870190271167" lon="3.2803642573135727"><ele>11.666666666666666</ele><time>2026-04-22T10:18:03Z</time></trkpt><trkpt lat="42.28872384403653" lon="3.2804687591189285"><ele>11.833333333333334</ele><time>2026-04-22T10:18:05Z</time></trkpt><trkpt lat="42.28875145221755" lon="3.2805648386574604"><ele>12.0</ele><time>2026-04-22T10:18:07Z</time></trkpt><trkpt lat="42.288764286413404" lon="3.280660880934888"><ele>12.0</ele><time>2026-04-22T10:18:16Z</time></trkpt><trkpt lat="42.28878760753453" lon="3.2807628382484366"><ele>12.0</ele><time>2026-04-22T10:18:22Z</time></trkpt><trkpt lat="42.28879714670749" lon="3.2808716392640433"><ele>12.0</ele><time>2026-04-22T10:18:25Z</time></trkpt><trkpt lat="42.28876123557044" lon="3.280958059721143"><ele>12.0</ele><time>2026-04-22T10:18:34Z</time></trkpt><trkpt lat="42.28869437107054" lon="3.2810293125188092"><ele>12.0</ele><time>2026-04-22T10:18:37Z</time></trkpt><trkpt lat="42.288620471769214" lon="3.2810271539422406"><ele>12.0</ele><time>2026-04-22T10:18:40Z</time></trkpt><trkpt lat="42.288548584883564" lon="3.281008002144855"><ele>11.999999999999998</ele><time>2026-04-22T10:18:51Z</time></trkpt><trkpt lat="42.288469515219035" lon="3.2809801982604636"><ele>12.0</ele><time>2026-04-22T10:18:53Z</time></trkpt><trkpt lat="42.28839841313947" lon="3.2809608973698157"><ele>12.0</ele><time>2026-04-22T10:18:55Z</time></trkpt><trkpt lat="42.28832916608102" lon="3.280947112342731"><ele>12.0</ele><time>2026-04-22T10:18:57Z</time></trkpt><trkpt lat="42.28825596424692" lon="3.2809454091320736"><ele>12.0</ele><time>2026-04-22T10:19:00Z</time></trkpt><trkpt lat="42.28818665831641" lon="3.2809554100207308"><ele>11.999999999999998</ele><time>2026-04-22T10:19:04Z</time></trkpt><trkpt lat="42.28813101041047" lon="3.2809995125987177"><ele>12.0</ele><time>2026-04-22T10:19:06Z</time></trkpt><trkpt lat="42.288058778568505" lon="3.2810671067379684"><ele>11.833333333333334</ele><time>2026-04-22T10:19:08Z</time></trkpt><trkpt lat="42.28799060384513" lon="3.281122844468047"><ele>11.666666666666666</ele><time>2026-04-22T10:19:10Z</time></trkpt><trkpt lat="42.287946561938654" lon="3.2812161358012286"><ele>11.5</ele><time>2026-04-22T10:19:12Z</time></trkpt><trkpt lat="42.287911022641914" lon="3.2813146533357394"><ele>11.333333333333332</ele><time>2026-04-22T10:19:14Z</time></trkpt><trkpt lat="42.28787655450509" lon="3.2814260137564486"><ele>11.166666666666666</ele><time>2026-04-22T10:19:16Z</time></trkpt><trkpt lat="42.2878434398797" lon="3.2815366365023566"><ele>11.0</ele><time>2026-04-22T10:19:18Z</time></trkpt><trkpt lat="42.28781832937025" lon="3.281638334812794"><ele>11.0</ele><time>2026-04-22T10:19:20Z</time></trkpt><trkpt lat="42.28779841409308" lon="3.281750888113821"><ele>11.0</ele><time>2026-04-22T10:19:23Z</time></trkpt><trkpt lat="42.28776725448769" lon="3.2818318182774293"><ele>11.0</ele><time>2026-04-22T10:19:32Z</time></trkpt><trkpt lat="42.287706011291974" lon="3.2818819593960185"><ele>11.0</ele><time>2026-04-22T10:19:35Z</time></trkpt><trkpt lat="42.287636869303626" lon="3.28189364904791"><ele>11.0</ele><time>2026-04-22T10:19:40Z</time></trkpt><trkpt lat="42.287557619578095" lon="3.2818580233607997"><ele>11.0</ele><time>2026-04-22T10:19:43Z</time></trkpt><trkpt lat="42.287504312054665" lon="3.281767397066526"><ele>11.0</ele><time>2026-04-22T10:19:45Z</time></trkpt><trkpt lat="42.28745586196898" lon="3.281696448188469"><ele>11.0</ele><time>2026-04-22T10:19:47Z</time></trkpt><trkpt lat="42.2874073202365" lon="3.281637309674038"><ele>11.0</ele><time>2026-04-22T10:19:49Z</time></trkpt><trkpt lat="42.287325834096535" lon="3.281646173366058"><ele>11.0</ele><time>2026-04-22T10:19:53Z</time></trkpt><trkpt lat="42.287253772733685" lon="3.2816817130984073"><ele>11.0</ele><time>2026-04-22T10:19:55Z</time></trkpt><trkpt lat="42.28715871431147" lon="3.2817369789825785"><ele>11.0</ele><time>2026-04-22T10:19:57Z</time></trkpt><trkpt lat="42.28706535629439" lon="3.281786924943857"><ele>10.666666666666666</ele><time>2026-04-22T10:19:59Z</time></trkpt><trkpt lat="42.28697481279892" lon="3.281834130778839"><ele>10.333333333333332</ele><time>2026-04-22T10:20:01Z</time></trkpt><trkpt lat="42.28689517108225" lon="3.281887108595525"><ele>10.0</ele><time>2026-04-22T10:20:03Z</time></trkpt><trkpt lat="42.28681994411578" lon="3.281958450071398"><ele>9.666666666666666</ele><time>2026-04-22T10:20:05Z</time></trkpt><trkpt lat="42.286771530314375" lon="3.282046161126909"><ele>9.333333333333334</ele><time>2026-04-22T10:20:07Z</time></trkpt><trkpt lat="42.28673486186876" lon="3.282139850411919"><ele>9.0</ele><time>2026-04-22T10:20:09Z</time></trkpt><trkpt lat="42.28668187607101" lon="3.282250646417244"><ele>9.8</ele><time>2026-04-22T10:20:11Z</time></trkpt><trkpt lat="42.286628042910955" lon="3.282372831302897"><ele>10.600000000000001</ele><time>2026-04-22T10:20:13Z</time></trkpt><trkpt lat="42.286563232886365" lon="3.2825380208440644"><ele>11.4</ele><time>2026-04-22T10:20:15Z</time></trkpt><trkpt lat="42.28651824263352" lon="3.2826190600342904"><ele>12.200000000000001</ele><time>2026-04-22T10:20:16Z</time></trkpt><trkpt lat="42.286464205460916" lon="3.282700686930125"><ele>13.0</ele><time>2026-04-22T10:20:17Z</time></trkpt><trkpt lat="42.28640839838452" lon="3.2827843820231406"><ele>12.333333333333332</ele><time>2026-04-22T10:20:18Z</time></trkpt><trkpt lat="42.286353647709944" lon="3.2828643306947165"><ele>11.666666666666666</ele><time>2026-04-22T10:20:19Z</time></trkpt><trkpt lat="42.28630015317005" lon="3.2829405083774956"><ele>11.0</ele><time>2026-04-22T10:20:20Z</time></trkpt><trkpt lat="42.2862512766495" lon="3.283007321476823"><ele>10.333333333333332</ele><time>2026-04-22T10:20:21Z</time></trkpt><trkpt lat="42.28620613801835" lon="3.2830697430497544"><ele>9.666666666666666</ele><time>2026-04-22T10:20:22Z</time></trkpt><trkpt lat="42.286160977188096" lon="3.2831305661141603"><ele>9.0</ele><time>2026-04-22T10:20:23Z</time></trkpt><trkpt lat="42.2860733880646" lon="3.2832384387577096"><ele>9.0</ele><time>2026-04-22T10:20:25Z</time></trkpt><trkpt lat="42.28600898222403" lon="3.2833512854441844"><ele>9.0</ele><time>2026-04-22T10:20:27Z</time></trkpt><trkpt lat="42.2859784097047" lon="3.28348770530793"><ele>9.0</ele><time>2026-04-22T10:20:29Z</time></trkpt><trkpt lat="42.285940512475534" lon="3.283624891932963"><ele>9.0</ele><time>2026-04-22T10:20:31Z</time></trkpt><trkpt lat="42.28590131160139" lon="3.2837509626802417"><ele>9.0</ele><time>2026-04-22T10:20:33Z</time></trkpt><trkpt lat="42.28585258288281" lon="3.2838820832060045"><ele>8.166666666666666</ele><time>2026-04-22T10:20:35Z</time></trkpt><trkpt lat="42.28581354563169" lon="3.283950949137497"><ele>7.333333333333333</ele><time>2026-04-22T10:20:36Z</time></trkpt><trkpt lat="42.28576815403115" lon="3.2840177411846505"><ele>6.5</ele><time>2026-04-22T10:20:37Z</time></trkpt><trkpt lat="42.28572423398187" lon="3.2840866483884903"><ele>5.666666666666666</ele><time>2026-04-22T10:20:38Z</time></trkpt><trkpt lat="42.28564932785739" lon="3.2842091654433268"><ele>4.833333333333333</ele><time>2026-04-22T10:20:40Z</time></trkpt><trkpt lat="42.28558070835317" lon="3.2843228795513366"><ele>4.0</ele><time>2026-04-22T10:20:42Z</time></trkpt><trkpt lat="42.28551318849498" lon="3.284433406355612"><ele>4.0</ele><time>2026-04-22T10:20:44Z</time></trkpt><trkpt lat="42.2854395896937" lon="3.284537966824626"><ele>4.0</ele><time>2026-04-22T10:20:46Z</time></trkpt><trkpt lat="42.2853812525919" lon="3.2846300297547724"><ele>4.0</ele><time>2026-04-22T10:20:48Z</time></trkpt><trkpt lat="42.285385347297776" lon="3.284735097876657"><ele>4.0</ele><time>2026-04-22T10:20:50Z</time></trkpt><trkpt lat="42.285462709629215" lon="3.2848112858585448"><ele>4.0</ele><time>2026-04-22T10:20:52Z</time></trkpt><trkpt lat="42.28556793472424" lon="3.2848326563330117"><ele>5.0</ele><time>2026-04-22T10:20:54Z</time></trkpt><trkpt lat="42.28567275968942" lon="3.284855280069478"><ele>6.0</ele><time>2026-04-22T10:20:56Z</time></trkpt><trkpt lat="42.28576567423347" lon="3.2848967580562425"><ele>7.0</ele><time>2026-04-22T10:20:58Z</time></trkpt><trkpt lat="42.285835278357986" lon="3.2849816652196853"><ele>8.0</ele><time>2026-04-22T10:21:00Z</time></trkpt><trkpt lat="42.285895097909496" lon="3.2850754646995934"><ele>9.0</ele><time>2026-04-22T10:21:02Z</time></trkpt><trkpt lat="42.285942954862" lon="3.285177605243648"><ele>9.0</ele><time>2026-04-22T10:21:04Z</time></trkpt><trkpt lat="42.2859796723756" lon="3.285302519402027"><ele>9.0</ele><time>2026-04-22T10:21:06Z</time></trkpt><trkpt lat="42.28601066368594" lon="3.2854214604220866"><ele>9.0</ele><time>2026-04-22T10:21:08Z</time></trkpt><trkpt lat="42.28603947748706" lon="3.2855430374328876"><ele>9.0</ele><time>2026-04-22T10:21:10Z</time></trkpt><trkpt lat="42.286088035600905" lon="3.2856653898087638"><ele>9.0</ele><time>2026-04-22T10:21:12Z</time></trkpt><trkpt lat="42.286133877486414" lon="3.2857903546826943"><ele>8.0</ele><time>2026-04-22T10:21:14Z</time></trkpt><trkpt lat="42.28616952716974" lon="3.2859301433647836"><ele>7.0</ele><time>2026-04-22T10:21:16Z</time></trkpt><trkpt lat="42.286163511582124" lon="3.286077154753327"><ele>6.0</ele><time>2026-04-22T10:21:18Z</time></trkpt><trkpt lat="42.28610430181378" lon="3.2862050480788394"><ele>5.0</ele><time>2026-04-22T10:21:20Z</time></trkpt><trkpt lat="42.28603291953912" lon="3.2863275869549815"><ele>4.0</ele><time>2026-04-22T10:21:22Z</time></trkpt><trkpt lat="42.28598295456375" lon="3.2863796818219995"><ele>5.25</ele><time>2026-04-22T10:21:23Z</time></trkpt><trkpt lat="42.28588311866332" lon="3.286467745145254"><ele>6.5</ele><time>2026-04-22T10:21:25Z</time></trkpt><trkpt lat="42.28579216732559" lon="3.286540498443865"><ele>7.75</ele><time>2026-04-22T10:21:27Z</time></trkpt><trkpt lat="42.28571432714749" lon="3.286648683894502"><ele>9.0</ele><time>2026-04-22T10:21:29Z</time></trkpt><trkpt lat="42.28564482718029" lon="3.286774632907471"><ele>8.6</ele><time>2026-04-22T10:21:31Z</time></trkpt><trkpt lat="42.28557954600592" lon="3.2868974658886083"><ele>8.2</ele><time>2026-04-22T10:21:33Z</time></trkpt><trkpt lat="42.28551554425134" lon="3.2870220267318526"><ele>7.799999999999999</ele><time>2026-04-22T10:21:35Z</time></trkpt><trkpt lat="42.28545783606818" lon="3.2871473216440883"><ele>7.3999999999999995</ele><time>2026-04-22T10:21:37Z</time></trkpt><trkpt lat="42.285394393319386" lon="3.2872545288374164"><ele>7.0</ele><time>2026-04-22T10:21:39Z</time></trkpt><trkpt lat="42.28532628585467" lon="3.287334913466135"><ele>7.000000000000001</ele><time>2026-04-22T10:21:41Z</time></trkpt><trkpt lat="42.28527588242483" lon="3.2873964752269647"><ele>7.0</ele><time>2026-04-22T10:21:43Z</time></trkpt><trkpt lat="42.28529726045288" lon="3.2874787717695373"><ele>7.0</ele><time>2026-04-22T10:21:45Z</time></trkpt><trkpt lat="42.285351413565955" lon="3.2875467358280646"><ele>7.0</ele><time>2026-04-22T10:21:47Z</time></trkpt><trkpt lat="42.2854085620448" lon="3.2876211554290173"><ele>7.000000000000001</ele><time>2026-04-22T10:21:50Z</time></trkpt><trkpt lat="42.28547735801135" lon="3.2877278294898007"><ele>7.0</ele><time>2026-04-22T10:21:52Z</time></trkpt><trkpt lat="42.28554580521284" lon="3.287852725296542"><ele>7.000000000000001</ele><time>2026-04-22T10:21:54Z</time></trkpt><trkpt lat="42.28558943909434" lon="3.287930372705604"><ele>7.0</ele><time>2026-04-22T10:21:55Z</time></trkpt><trkpt lat="42.28563430560391" lon="3.288002276840512"><ele>7.0</ele><time>2026-04-22T10:21:56Z</time></trkpt><trkpt lat="42.285678897307335" lon="3.2880725642761837"><ele>7.0</ele><time>2026-04-22T10:21:57Z</time></trkpt><trkpt lat="42.285721023556164" lon="3.288139086338711"><ele>7.000000000000001</ele><time>2026-04-22T10:21:58Z</time></trkpt><trkpt lat="42.285801185494506" lon="3.288264446318724"><ele>7.0</ele><time>2026-04-22T10:22:00Z</time></trkpt><trkpt lat="42.28584166238088" lon="3.2883361377282965"><ele>7.500000000000001</ele><time>2026-04-22T10:22:01Z</time></trkpt><trkpt lat="42.28588165654804" lon="3.288418537390477"><ele>8.0</ele><time>2026-04-22T10:22:02Z</time></trkpt><trkpt lat="42.285924036276754" lon="3.288504658468112"><ele>8.5</ele><time>2026-04-22T10:22:03Z</time></trkpt><trkpt lat="42.28596481204216" lon="3.2886009851799707"><ele>9.0</ele><time>2026-04-22T10:22:04Z</time></trkpt><trkpt lat="42.28600410032958" lon="3.2886982861794127"><ele>9.5</ele><time>2026-04-22T10:22:05Z</time></trkpt><trkpt lat="42.28603965983299" lon="3.2887913285100754"><ele>10.0</ele><time>2026-04-22T10:22:06Z</time></trkpt><trkpt lat="42.286068656833265" lon="3.288881276201678"><ele>9.666666666666668</ele><time>2026-04-22T10:22:07Z</time></trkpt><trkpt lat="42.286103083438746" lon="3.288966730883571"><ele>9.333333333333334</ele><time>2026-04-22T10:22:08Z</time></trkpt><trkpt lat="42.286132315198415" lon="3.289042905020299"><ele>9.0</ele><time>2026-04-22T10:22:09Z</time></trkpt><trkpt lat="42.28620701424943" lon="3.2891446369477597"><ele>8.666666666666666</ele><time>2026-04-22T10:22:11Z</time></trkpt><trkpt lat="42.28632280851349" lon="3.289147379889804"><ele>8.333333333333332</ele><time>2026-04-22T10:22:13Z</time></trkpt><trkpt lat="42.2863886664966" lon="3.289117042846832"><ele>8.0</ele><time>2026-04-22T10:22:14Z</time></trkpt><trkpt lat="42.28646330185519" lon="3.2890809562218246"><ele>8.833333333333332</ele><time>2026-04-22T10:22:15Z</time></trkpt><trkpt lat="42.286545438576425" lon="3.2890418493250033"><ele>9.666666666666666</ele><time>2026-04-22T10:22:16Z</time></trkpt><trkpt lat="42.28662616157306" lon="3.2890004395924715"><ele>10.5</ele><time>2026-04-22T10:22:17Z</time></trkpt><trkpt lat="42.28670205787603" lon="3.2889686864333405"><ele>11.333333333333332</ele><time>2026-04-22T10:22:18Z</time></trkpt><trkpt lat="42.28677738127432" lon="3.2889424357216113"><ele>12.166666666666666</ele><time>2026-04-22T10:22:19Z</time></trkpt><trkpt lat="42.28684436492095" lon="3.288927630412137"><ele>13.0</ele><time>2026-04-22T10:22:20Z</time></trkpt><trkpt lat="42.286949279770575" lon="3.288945301975236"><ele>13.0</ele><time>2026-04-22T10:22:22Z</time></trkpt><trkpt lat="42.28701013798175" lon="3.2890379450482627"><ele>13.0</ele><time>2026-04-22T10:22:24Z</time></trkpt><trkpt lat="42.28700292672045" lon="3.2891517063585796"><ele>13.0</ele><time>2026-04-22T10:22:26Z</time></trkpt><trkpt lat="42.286946131621235" lon="3.289258632585713"><ele>13.0</ele><time>2026-04-22T10:22:28Z</time></trkpt><trkpt lat="42.28689151016708" lon="3.2893896351938516"><ele>13.0</ele><time>2026-04-22T10:22:30Z</time></trkpt><trkpt lat="42.28686373209334" lon="3.2894688800242537"><ele>12.999999999999998</ele><time>2026-04-22T10:22:31Z</time></trkpt><trkpt lat="42.28683525294479" lon="3.2895598650883775"><ele>13.0</ele><time>2026-04-22T10:22:32Z</time></trkpt><trkpt lat="42.286803084914084" lon="3.289663688831018"><ele>13.0</ele><time>2026-04-22T10:22:33Z</time></trkpt><trkpt lat="42.28677111112718" lon="3.2897617334984526"><ele>13.0</ele><time>2026-04-22T10:22:34Z</time></trkpt><trkpt lat="42.28674235561379" lon="3.2898555567124115"><ele>12.999999999999998</ele><time>2026-04-22T10:22:35Z</time></trkpt><trkpt lat="42.286724013606154" lon="3.289958257539716"><ele>13.0</ele><time>2026-04-22T10:22:36Z</time></trkpt><trkpt lat="42.286717720238684" lon="3.290069528802676"><ele>14.333333333333332</ele><time>2026-04-22T10:22:37Z</time></trkpt><trkpt lat="42.286711343962565" lon="3.2901795692538327"><ele>15.666666666666666</ele><time>2026-04-22T10:22:38Z</time></trkpt><trkpt lat="42.286702595555745" lon="3.2902846152987255"><ele>17.0</ele><time>2026-04-22T10:22:39Z</time></trkpt><trkpt lat="42.28669330890753" lon="3.2903863375739846"><ele>18.333333333333332</ele><time>2026-04-22T10:22:40Z</time></trkpt><trkpt lat="42.286685639278545" lon="3.290478245694694"><ele>19.666666666666668</ele><time>2026-04-22T10:22:41Z</time></trkpt><trkpt lat="42.28667533956109" lon="3.2906426887667983"><ele>21.0</ele><time>2026-04-22T10:22:43Z</time></trkpt><trkpt lat="42.28667388272193" lon="3.2907900327525423"><ele>21.5</ele><time>2026-04-22T10:22:45Z</time></trkpt><trkpt lat="42.28666859592331" lon="3.2908922852870197"><ele>22.0</ele><time>2026-04-22T10:22:47Z</time></trkpt><trkpt lat="42.28674597981205" lon="3.2909328259352435"><ele>22.5</ele><time>2026-04-22T10:22:52Z</time></trkpt><trkpt lat="42.28681466193895" lon="3.2908524379252837"><ele>23.0</ele><time>2026-04-22T10:22:54Z</time></trkpt><trkpt lat="42.286896800152505" lon="3.29074310627988"><ele>23.5</ele><time>2026-04-22T10:22:56Z</time></trkpt><trkpt lat="42.286953160510706" lon="3.29067657672611"><ele>24.0</ele><time>2026-04-22T10:22:57Z</time></trkpt><trkpt lat="42.287022319047736" lon="3.290600513731119"><ele>23.4</ele><time>2026-04-22T10:22:58Z</time></trkpt><trkpt lat="42.28709947496049" lon="3.2905117370420287"><ele>22.799999999999997</ele><time>2026-04-22T10:22:59Z</time></trkpt><trkpt lat="42.28716892620717" lon="3.290428045434149"><ele>22.200000000000003</ele><time>2026-04-22T10:23:00Z</time></trkpt><trkpt lat="42.28723720605254" lon="3.290334035850367"><ele>21.6</ele><time>2026-04-22T10:23:01Z</time></trkpt><trkpt lat="42.287298085938424" lon="3.290219230733003"><ele>21.0</ele><time>2026-04-22T10:23:02Z</time></trkpt><trkpt lat="42.287356663352355" lon="3.2901017427487336"><ele>21.4</ele><time>2026-04-22T10:23:03Z</time></trkpt><trkpt lat="42.28741053480083" lon="3.2899835502354304"><ele>21.8</ele><time>2026-04-22T10:23:04Z</time></trkpt><trkpt lat="42.28746272302408" lon="3.289870141303119"><ele>22.2</ele><time>2026-04-22T10:23:05Z</time></trkpt><trkpt lat="42.287510314290536" lon="3.289760559022922"><ele>22.599999999999998</ele><time>2026-04-22T10:23:06Z</time></trkpt><trkpt lat="42.287559669194046" lon="3.2896524512635286"><ele>23.0</ele><time>2026-04-22T10:23:07Z</time></trkpt><trkpt lat="42.28762312194024" lon="3.289546941745345"><ele>23.0</ele><time>2026-04-22T10:23:08Z</time></trkpt><trkpt lat="42.287702036117196" lon="3.2894445527306715"><ele>23.0</ele><time>2026-04-22T10:23:09Z</time></trkpt><trkpt lat="42.287793575976906" lon="3.28935059268146"><ele>23.0</ele><time>2026-04-22T10:23:10Z</time></trkpt><trkpt lat="42.287886074300495" lon="3.289261373082972"><ele>23.0</ele><time>2026-04-22T10:23:11Z</time></trkpt><trkpt lat="42.28797981393538" lon="3.2891697384818577"><ele>23.0</ele><time>2026-04-22T10:23:12Z</time></trkpt><trkpt lat="42.28807036045146" lon="3.2890756210606273"><ele>23.0</ele><time>2026-04-22T10:23:13Z</time></trkpt><trkpt lat="42.288163173875155" lon="3.2889787206666323"><ele>23.0</ele><time>2026-04-22T10:23:14Z</time></trkpt><trkpt lat="42.28825361808141" lon="3.2888845927761103"><ele>23.0</ele><time>2026-04-22T10:23:15Z</time></trkpt><trkpt lat="42.28834467574167" lon="3.2887910226700257"><ele>24.0</ele><time>2026-04-22T10:23:16Z</time></trkpt><trkpt lat="42.28843214820167" lon="3.2886949511378036"><ele>25.0</ele><time>2026-04-22T10:23:17Z</time></trkpt><trkpt lat="42.288516427036356" lon="3.28860203666732"><ele>25.999999999999996</ele><time>2026-04-22T10:23:18Z</time></trkpt><trkpt lat="42.28859593514478" lon="3.2885138453707468"><ele>27.0</ele><time>2026-04-22T10:23:19Z</time></trkpt><trkpt lat="42.28867965464846" lon="3.288426607429118"><ele>28.0</ele><time>2026-04-22T10:23:20Z</time></trkpt><trkpt lat="42.28876572725143" lon="3.2883379921646596"><ele>28.0</ele><time>2026-04-22T10:23:21Z</time></trkpt><trkpt lat="42.28885347849081" lon="3.288247047727883"><ele>28.0</ele><time>2026-04-22T10:23:22Z</time></trkpt><trkpt lat="42.28894159351756" lon="3.2881487798749323"><ele>28.0</ele><time>2026-04-22T10:23:23Z</time></trkpt><trkpt lat="42.28903020257475" lon="3.288043776497587"><ele>28.0</ele><time>2026-04-22T10:23:24Z</time></trkpt><trkpt lat="42.28912370660562" lon="3.287937801731679"><ele>28.5</ele><time>2026-04-22T10:23:25Z</time></trkpt><trkpt lat="42.28921855638497" lon="3.287831333849992"><ele>29.0</ele><time>2026-04-22T10:23:26Z</time></trkpt><trkpt lat="42.28931371855507" lon="3.287724385679569"><ele>29.5</ele><time>2026-04-22T10:23:27Z</time></trkpt><trkpt lat="42.289407938226084" lon="3.2876167898290993"><ele>30.0</ele><time>2026-04-22T10:23:28Z</time></trkpt><trkpt lat="42.28950604780242" lon="3.2875052675406"><ele>30.0</ele><time>2026-04-22T10:23:29Z</time></trkpt><trkpt lat="42.28960500057022" lon="3.2873921975902256"><ele>30.0</ele><time>2026-04-22T10:23:30Z</time></trkpt><trkpt lat="42.289702877010335" lon="3.287279770909063"><ele>30.0</ele><time>2026-04-22T10:23:31Z</time></trkpt><trkpt lat="42.289803226546304" lon="3.287171055463533"><ele>30.0</ele><time>2026-04-22T10:23:32Z</time></trkpt><trkpt lat="42.28990323580741" lon="3.287065832826316"><ele>30.5</ele><time>2026-04-22T10:23:33Z</time></trkpt><trkpt lat="42.2900030840267" lon="3.2869603595862236"><ele>31.0</ele><time>2026-04-22T10:23:34Z</time></trkpt><trkpt lat="42.290107299841424" lon="3.2868546444542317"><ele>31.5</ele><time>2026-04-22T10:23:35Z</time></trkpt><trkpt lat="42.29020864587665" lon="3.286750562269943"><ele>32.0</ele><time>2026-04-22T10:23:36Z</time></trkpt><trkpt lat="42.29030660651286" lon="3.286644150399088"><ele>32.0</ele><time>2026-04-22T10:23:37Z</time></trkpt><trkpt lat="42.290395299978954" lon="3.286519354014469"><ele>32.0</ele><time>2026-04-22T10:23:38Z</time></trkpt><trkpt lat="42.29047198980551" lon="3.2863808920949618"><ele>32.0</ele><time>2026-04-22T10:23:39Z</time></trkpt><trkpt lat="42.29054829235115" lon="3.286236391664989"><ele>32.0</ele><time>2026-04-22T10:23:40Z</time></trkpt><trkpt lat="42.290619111971814" lon="3.2860898521512394"><ele>32.5</ele><time>2026-04-22T10:23:41Z</time></trkpt><trkpt lat="42.29068678991569" lon="3.2859427445353275"><ele>33.0</ele><time>2026-04-22T10:23:42Z</time></trkpt><trkpt lat="42.29075167150855" lon="3.285797872002906"><ele>33.5</ele><time>2026-04-22T10:23:43Z</time></trkpt><trkpt lat="42.29081253812711" lon="3.285654726231582"><ele>34.0</ele><time>2026-04-22T10:23:44Z</time></trkpt><trkpt lat="42.29087451903728" lon="3.285513890024398"><ele>34.6</ele><time>2026-04-22T10:23:45Z</time></trkpt><trkpt lat="42.290937385017315" lon="3.2853735826496324"><ele>35.2</ele><time>2026-04-22T10:23:46Z</time></trkpt><trkpt lat="42.290998146091034" lon="3.2852412055631"><ele>35.800000000000004</ele><time>2026-04-22T10:23:47Z</time></trkpt><trkpt lat="42.291055227538216" lon="3.2851173952238"><ele>36.4</ele><time>2026-04-22T10:23:48Z</time></trkpt><trkpt lat="42.29110607562616" lon="3.285000801849027"><ele>37.0</ele><time>2026-04-22T10:23:49Z</time></trkpt><trkpt lat="42.29115183001389" lon="3.2848965589604515"><ele>37.0</ele><time>2026-04-22T10:23:50Z</time></trkpt><trkpt lat="42.29119361893799" lon="3.2847976402466457"><ele>37.0</ele><time>2026-04-22T10:23:51Z</time></trkpt><trkpt lat="42.29123665178234" lon="3.2847033835736013"><ele>37.0</ele><time>2026-04-22T10:23:52Z</time></trkpt><trkpt lat="42.291280706817865" lon="3.2846086842476026"><ele>37.0</ele><time>2026-04-22T10:23:53Z</time></trkpt><trkpt lat="42.29132484208598" lon="3.2845188410471478"><ele>37.0</ele><time>2026-04-22T10:23:54Z</time></trkpt><trkpt lat="42.29137617687817" lon="3.284432122672385"><ele>37.0</ele><time>2026-04-22T10:23:55Z</time></trkpt><trkpt lat="42.29143349066508" lon="3.2843462686948817"><ele>37.5</ele><time>2026-04-22T10:23:56Z</time></trkpt><trkpt lat="42.291491017305795" lon="3.284263405573303"><ele>38.0</ele><time>2026-04-22T10:23:57Z</time></trkpt><trkpt lat="42.291545801432555" lon="3.284188660293864"><ele>38.5</ele><time>2026-04-22T10:23:58Z</time></trkpt><trkpt lat="42.29160321404309" lon="3.2841225760465864"><ele>39.0</ele><time>2026-04-22T10:23:59Z</time></trkpt><trkpt lat="42.291657457829004" lon="3.284064324568233"><ele>39.5</ele><time>2026-04-22T10:24:00Z</time></trkpt><trkpt lat="42.291710411353506" lon="3.284008038062699"><ele>40.0</ele><time>2026-04-22T10:24:01Z</time></trkpt><trkpt lat="42.291798046150454" lon="3.2839121378721714"><ele>40.16666666666667</ele><time>2026-04-22T10:24:03Z</time></trkpt><trkpt lat="42.29184994840832" lon="3.2838570304310135"><ele>40.333333333333336</ele><time>2026-04-22T10:24:05Z</time></trkpt><trkpt lat="42.29189836969729" lon="3.2837987227914796"><ele>40.5</ele><time>2026-04-22T10:24:10Z</time></trkpt><trkpt lat="42.29190966558502" lon="3.2837047759570908"><ele>40.666666666666664</ele><time>2026-04-22T10:24:21Z</time></trkpt><trkpt lat="42.291875853918064" lon="3.283630625748752"><ele>40.83333333333333</ele><time>2026-04-22T10:24:23Z</time></trkpt><trkpt lat="42.29184163372822" lon="3.283528954348311"><ele>41.0</ele><time>2026-04-22T10:24:25Z</time></trkpt><trkpt lat="42.291797505937204" lon="3.2833881596439283"><ele>41.0</ele><time>2026-04-22T10:24:27Z</time></trkpt><trkpt lat="42.29177730747624" lon="3.28323484772119"><ele>41.0</ele><time>2026-04-22T10:24:29Z</time></trkpt><trkpt lat="42.29176881722044" lon="3.283145448266307"><ele>41.0</ele><time>2026-04-22T10:24:30Z</time></trkpt><trkpt lat="42.29176329558416" lon="3.2830500110486422"><ele>41.0</ele><time>2026-04-22T10:24:31Z</time></trkpt><trkpt lat="42.29175727883236" lon="3.2829530744139235"><ele>41.0</ele><time>2026-04-22T10:24:32Z</time></trkpt><trkpt lat="42.291749159789326" lon="3.2828491487736127"><ele>41.0</ele><time>2026-04-22T10:24:33Z</time></trkpt><trkpt lat="42.29174222560014" lon="3.2827434103958844"><ele>41.0</ele><time>2026-04-22T10:24:34Z</time></trkpt><trkpt lat="42.29173521858051" lon="3.2826388831232913"><ele>41.0</ele><time>2026-04-22T10:24:35Z</time></trkpt><trkpt lat="42.29172896380822" lon="3.282535522850528"><ele>41.0</ele><time>2026-04-22T10:24:36Z</time></trkpt><trkpt lat="42.29172047102123" lon="3.282432975558805"><ele>41.0</ele><time>2026-04-22T10:24:37Z</time></trkpt><trkpt lat="42.29171183007449" lon="3.2823321117153936"><ele>41.0</ele><time>2026-04-22T10:24:38Z</time></trkpt><trkpt lat="42.29170303935031" lon="3.2822284267123956"><ele>41.0</ele><time>2026-04-22T10:24:39Z</time></trkpt><trkpt lat="42.29169519268742" lon="3.2821290441728936"><ele>41.0</ele><time>2026-04-22T10:24:40Z</time></trkpt><trkpt lat="42.29168165180057" lon="3.2820338361232726"><ele>41.0</ele><time>2026-04-22T10:24:41Z</time></trkpt><trkpt lat="42.291661676165106" lon="3.2819450214781556"><ele>41.0</ele><time>2026-04-22T10:24:42Z</time></trkpt><trkpt lat="42.29163471104737" lon="3.2818673658342905"><ele>41.0</ele><time>2026-04-22T10:24:43Z</time></trkpt><trkpt lat="42.29160181897356" lon="3.281794356679454"><ele>41.0</ele><time>2026-04-22T10:24:44Z</time></trkpt><trkpt lat="42.291527688468946" lon="3.2816738106578196"><ele>41.0</ele><time>2026-04-22T10:24:46Z</time></trkpt><trkpt lat="42.29146631525189" lon="3.281575346736028"><ele>41.0</ele><time>2026-04-22T10:24:48Z</time></trkpt><trkpt lat="42.29143126777247" lon="3.2814899739465444"><ele>41.0</ele><time>2026-04-22T10:24:50Z</time></trkpt><trkpt lat="42.29146883271169" lon="3.2814008048566157"><ele>41.0</ele><time>2026-04-22T10:24:52Z</time></trkpt><trkpt lat="42.29156744450077" lon="3.281339846499756"><ele>41.0</ele><time>2026-04-22T10:24:54Z</time></trkpt><trkpt lat="42.291663627864914" lon="3.2812709726197493"><ele>41.0</ele><time>2026-04-22T10:24:56Z</time></trkpt><trkpt lat="42.291752514584246" lon="3.281207858713912"><ele>40.666666666666664</ele><time>2026-04-22T10:24:58Z</time></trkpt><trkpt lat="42.291850252957516" lon="3.2811325772731994"><ele>40.33333333333333</ele><time>2026-04-22T10:25:00Z</time></trkpt><trkpt lat="42.291910162671584" lon="3.28108589940088"><ele>40.0</ele><time>2026-04-22T10:25:01Z</time></trkpt><trkpt lat="42.29197537821601" lon="3.281033683555676"><ele>39.666666666666664</ele><time>2026-04-22T10:25:02Z</time></trkpt><trkpt lat="42.29203681354808" lon="3.2809859472032863"><ele>39.333333333333336</ele><time>2026-04-22T10:25:03Z</time></trkpt><trkpt lat="42.29210050752387" lon="3.280932966161619"><ele>39.0</ele><time>2026-04-22T10:25:04Z</time></trkpt><trkpt lat="42.292167903432734" lon="3.2808776996487627"><ele>39.0</ele><time>2026-04-22T10:25:05Z</time></trkpt><trkpt lat="42.29223278264909" lon="3.280823571234474"><ele>39.0</ele><time>2026-04-22T10:25:06Z</time></trkpt><trkpt lat="42.292294165995735" lon="3.280772104679568"><ele>39.0</ele><time>2026-04-22T10:25:07Z</time></trkpt><trkpt lat="42.29234962818565" lon="3.2807270798409984"><ele>39.0</ele><time>2026-04-22T10:25:08Z</time></trkpt><trkpt lat="42.29243877751102" lon="3.2806518506782325"><ele>39.0</ele><time>2026-04-22T10:25:10Z</time></trkpt><trkpt lat="42.292510961345776" lon="3.280589306686355"><ele>39.0</ele><time>2026-04-22T10:25:12Z</time></trkpt><trkpt lat="42.29256771316338" lon="3.2805383758323186"><ele>39.4</ele><time>2026-04-22T10:25:19Z</time></trkpt><trkpt lat="42.29252202595624" lon="3.2804614479559246"><ele>39.8</ele><time>2026-04-22T10:25:22Z</time></trkpt><trkpt lat="42.292459726282985" lon="3.280359708408893"><ele>40.199999999999996</ele><time>2026-04-22T10:25:24Z</time></trkpt><trkpt lat="42.292379954966904" lon="3.2802324247988763"><ele>40.599999999999994</ele><time>2026-04-22T10:25:26Z</time></trkpt><trkpt lat="42.29230545626807" lon="3.280117640384444"><ele>41.0</ele><time>2026-04-22T10:25:28Z</time></trkpt><trkpt lat="42.29222774440138" lon="3.280013278985611"><ele>40.33333333333333</ele><time>2026-04-22T10:25:30Z</time></trkpt><trkpt lat="42.292131180446724" lon="3.2799338512124807"><ele>39.666666666666664</ele><time>2026-04-22T10:25:32Z</time></trkpt><trkpt lat="42.29207254846508" lon="3.2798855739916877"><ele>39.0</ele><time>2026-04-22T10:25:34Z</time></trkpt><trkpt lat="42.29204151105547" lon="3.2797826739740494"><ele>38.333333333333336</ele><time>2026-04-22T10:25:38Z</time></trkpt><trkpt lat="42.29207178403363" lon="3.279647392170436"><ele>37.66666666666667</ele><time>2026-04-22T10:25:40Z</time></trkpt><trkpt lat="42.29208536098372" lon="3.2795637498992303"><ele>37.0</ele><time>2026-04-22T10:25:41Z</time></trkpt><trkpt lat="42.2921239137927" lon="3.279406722157884"><ele>37.16666666666667</ele><time>2026-04-22T10:25:43Z</time></trkpt><trkpt lat="42.29215293861664" lon="3.2793232708853695"><ele>37.333333333333336</ele><time>2026-04-22T10:25:44Z</time></trkpt><trkpt lat="42.292188010496645" lon="3.279240470270213"><ele>37.5</ele><time>2026-04-22T10:25:45Z</time></trkpt><trkpt lat="42.29221835381567" lon="3.2791612811867585"><ele>37.666666666666664</ele><time>2026-04-22T10:25:46Z</time></trkpt><trkpt lat="42.29224796532562" lon="3.2790819697333715"><ele>37.83333333333333</ele><time>2026-04-22T10:25:47Z</time></trkpt><trkpt lat="42.29227814838668" lon="3.279005426379363"><ele>38.0</ele><time>2026-04-22T10:25:48Z</time></trkpt><trkpt lat="42.29233699414763" lon="3.278855312310774"><ele>38.0</ele><time>2026-04-22T10:25:50Z</time></trkpt><trkpt lat="42.29239394499793" lon="3.2787110647952047"><ele>38.0</ele><time>2026-04-22T10:25:52Z</time></trkpt><trkpt lat="42.29247009480699" lon="3.278598476148702"><ele>38.0</ele><time>2026-04-22T10:25:54Z</time></trkpt><trkpt lat="42.29258184645174" lon="3.2785387957912318"><ele>38.0</ele><time>2026-04-22T10:25:56Z</time></trkpt><trkpt lat="42.29269881132245" lon="3.2784763742196503"><ele>38.0</ele><time>2026-04-22T10:25:58Z</time></trkpt><trkpt lat="42.292761290686855" lon="3.278454078468772"><ele>38.0</ele><time>2026-04-22T10:25:59Z</time></trkpt><trkpt lat="42.29282549228651" lon="3.278444727000568"><ele>38.0</ele><time>2026-04-22T10:26:00Z</time></trkpt><trkpt lat="42.29293313236025" lon="3.2783763381781803"><ele>38.0</ele><time>2026-04-22T10:26:02Z</time></trkpt><trkpt lat="42.29301501283682" lon="3.2782859359198406"><ele>38.0</ele><time>2026-04-22T10:26:04Z</time></trkpt><trkpt lat="42.2931016489133" lon="3.27819926257992"><ele>39.0</ele><time>2026-04-22T10:26:06Z</time></trkpt><trkpt lat="42.2931915732503" lon="3.2781055779097104"><ele>40.0</ele><time>2026-04-22T10:26:08Z</time></trkpt><trkpt lat="42.29328278515715" lon="3.2780005145869797"><ele>41.0</ele><time>2026-04-22T10:26:10Z</time></trkpt><trkpt lat="42.29335798381012" lon="3.277868592161776"><ele>42.0</ele><time>2026-04-22T10:26:12Z</time></trkpt><trkpt lat="42.293383309387124" lon="3.2777193184051923"><ele>42.0</ele><time>2026-04-22T10:26:14Z</time></trkpt><trkpt lat="42.293318568884395" lon="3.2775905972541675"><ele>42.0</ele><time>2026-04-22T10:26:16Z</time></trkpt><trkpt lat="42.29326476905789" lon="3.2775451072847566"><ele>42.0</ele><time>2026-04-22T10:26:17Z</time></trkpt><trkpt lat="42.2931961572581" lon="3.2775165204168353"><ele>42.0</ele><time>2026-04-22T10:26:18Z</time></trkpt><trkpt lat="42.29310535135534" lon="3.2774854595462366"><ele>42.0</ele><time>2026-04-22T10:26:19Z</time></trkpt><trkpt lat="42.293021031159036" lon="3.27748463425524"><ele>42.0</ele><time>2026-04-22T10:26:20Z</time></trkpt><trkpt lat="42.29293900562702" lon="3.2774775617699765"><ele>40.833333333333336</ele><time>2026-04-22T10:26:21Z</time></trkpt><trkpt lat="42.29285928205756" lon="3.277469237080358"><ele>39.666666666666664</ele><time>2026-04-22T10:26:22Z</time></trkpt><trkpt lat="42.29278042628038" lon="3.2774553960776855"><ele>38.5</ele><time>2026-04-22T10:26:23Z</time></trkpt><trkpt lat="42.2926981290664" lon="3.277426984037896"><ele>37.33333333333333</ele><time>2026-04-22T10:26:24Z</time></trkpt><trkpt lat="42.29262046893418" lon="3.2773865865959513"><ele>36.166666666666664</ele><time>2026-04-22T10:26:25Z</time></trkpt><trkpt lat="42.29254453339102" lon="3.2773377115990474"><ele>35.0</ele><time>2026-04-22T10:26:26Z</time></trkpt><trkpt lat="42.292469329427895" lon="3.277283012350702"><ele>34.83333333333333</ele><time>2026-04-22T10:26:27Z</time></trkpt><trkpt lat="42.292398965134" lon="3.277224792448038"><ele>34.666666666666664</ele><time>2026-04-22T10:26:28Z</time></trkpt><trkpt lat="42.29233692536696" lon="3.277153699114325"><ele>34.5</ele><time>2026-04-22T10:26:29Z</time></trkpt><trkpt lat="42.29229787808493" lon="3.2770634952749096"><ele>34.333333333333336</ele><time>2026-04-22T10:26:30Z</time></trkpt><trkpt lat="42.29227089557363" lon="3.2769649325737755"><ele>34.16666666666667</ele><time>2026-04-22T10:26:31Z</time></trkpt><trkpt lat="42.29225590821127" lon="3.276856921656015"><ele>34.0</ele><time>2026-04-22T10:26:32Z</time></trkpt><trkpt lat="42.292244214113886" lon="3.276746065504892"><ele>33.99999999999999</ele><time>2026-04-22T10:26:33Z</time></trkpt><trkpt lat="42.29223385042957" lon="3.2766346511562032"><ele>34.0</ele><time>2026-04-22T10:26:34Z</time></trkpt><trkpt lat="42.29222371889493" lon="3.2765223169710636"><ele>34.0</ele><time>2026-04-22T10:26:35Z</time></trkpt><trkpt lat="42.2922140515389" lon="3.276420488618138"><ele>34.0</ele><time>2026-04-22T10:26:36Z</time></trkpt><trkpt lat="42.292205859804284" lon="3.2763235638759562"><ele>34.0</ele><time>2026-04-22T10:26:37Z</time></trkpt><trkpt lat="42.29219735337737" lon="3.2762318900394027"><ele>33.99999999999999</ele><time>2026-04-22T10:26:38Z</time></trkpt><trkpt lat="42.29219343598616" lon="3.2761440485113194"><ele>34.0</ele><time>2026-04-22T10:26:39Z</time></trkpt><trkpt lat="42.29220103354991" lon="3.2760577293914217"><ele>33.333333333333336</ele><time>2026-04-22T10:26:40Z</time></trkpt><trkpt lat="42.2922253793544" lon="3.275977922075478"><ele>32.66666666666667</ele><time>2026-04-22T10:26:41Z</time></trkpt><trkpt lat="42.2922952159007" lon="3.275834474407685"><ele>32.0</ele><time>2026-04-22T10:26:43Z</time></trkpt><trkpt lat="42.29234170686839" lon="3.275765602769157"><ele>31.333333333333336</ele><time>2026-04-22T10:26:44Z</time></trkpt><trkpt lat="42.29239418722427" lon="3.2757017137437616"><ele>30.666666666666668</ele><time>2026-04-22T10:26:45Z</time></trkpt><trkpt lat="42.29245215005125" lon="3.2756438400972674"><ele>30.0</ele><time>2026-04-22T10:26:46Z</time></trkpt><trkpt lat="42.292511490815" lon="3.275598655325285"><ele>29.333333333333332</ele><time>2026-04-22T10:26:47Z</time></trkpt><trkpt lat="42.29257166656502" lon="3.2755623609619406"><ele>28.666666666666664</ele><time>2026-04-22T10:26:48Z</time></trkpt><trkpt lat="42.292635356067926" lon="3.2755250645412577"><ele>28.0</ele><time>2026-04-22T10:26:49Z</time></trkpt><trkpt lat="42.29270560390064" lon="3.2754865439653056"><ele>27.333333333333332</ele><time>2026-04-22T10:26:50Z</time></trkpt><trkpt lat="42.29278349067646" lon="3.275449105697005"><ele>26.666666666666664</ele><time>2026-04-22T10:26:51Z</time></trkpt><trkpt lat="42.29286720339377" lon="3.275410191632652"><ele>26.0</ele><time>2026-04-22T10:26:52Z</time></trkpt><trkpt lat="42.2929578207259" lon="3.275375810871446"><ele>26.0</ele><time>2026-04-22T10:26:53Z</time></trkpt><trkpt lat="42.293050171709986" lon="3.2753494514854884"><ele>26.0</ele><time>2026-04-22T10:26:54Z</time></trkpt><trkpt lat="42.29313726156236" lon="3.275323514604215"><ele>26.0</ele><time>2026-04-22T10:26:55Z</time></trkpt><trkpt lat="42.29321564478662" lon="3.2752674601054697"><ele>26.0</ele><time>2026-04-22T10:26:56Z</time></trkpt><trkpt lat="42.29328036443874" lon="3.275178776151698"><ele>26.0</ele><time>2026-04-22T10:26:57Z</time></trkpt><trkpt lat="42.29332604456373" lon="3.2750626320214704"><ele>29.200000000000003</ele><time>2026-04-22T10:26:58Z</time></trkpt><trkpt lat="42.293355441822456" lon="3.2749318860739582"><ele>32.400000000000006</ele><time>2026-04-22T10:26:59Z</time></trkpt><trkpt lat="42.29336119695537" lon="3.2747809309490337"><ele>35.6</ele><time>2026-04-22T10:27:00Z</time></trkpt><trkpt lat="42.29337610100406" lon="3.2746366977079164"><ele>38.800000000000004</ele><time>2026-04-22T10:27:01Z</time></trkpt><trkpt lat="42.293392503679556" lon="3.2744963566956007"><ele>42.0</ele><time>2026-04-22T10:27:02Z</time></trkpt><trkpt lat="42.29340356839839" lon="3.274368771550253"><ele>42.0</ele><time>2026-04-22T10:27:03Z</time></trkpt><trkpt lat="42.29339766241708" lon="3.2742516756482756"><ele>42.0</ele><time>2026-04-22T10:27:04Z</time></trkpt><trkpt lat="42.29336678096906" lon="3.274141311641488"><ele>42.0</ele><time>2026-04-22T10:27:05Z</time></trkpt><trkpt lat="42.29331269283416" lon="3.2740445940366887"><ele>42.0</ele><time>2026-04-22T10:27:06Z</time></trkpt><trkpt lat="42.293237492164145" lon="3.2739694625424436"><ele>42.0</ele><time>2026-04-22T10:27:07Z</time></trkpt><trkpt lat="42.293140047404485" lon="3.273945285282958"><ele>40.4</ele><time>2026-04-22T10:27:08Z</time></trkpt><trkpt lat="42.293045431957104" lon="3.2739907735272435"><ele>38.800000000000004</ele><time>2026-04-22T10:27:09Z</time></trkpt><trkpt lat="42.29296801532563" lon="3.2740778559880397"><ele>37.2</ele><time>2026-04-22T10:27:10Z</time></trkpt><trkpt lat="42.29290937096462" lon="3.2741811372453347"><ele>35.6</ele><time>2026-04-22T10:27:11Z</time></trkpt><trkpt lat="42.29284751873766" lon="3.2742795795549737"><ele>34.0</ele><time>2026-04-22T10:27:12Z</time></trkpt><trkpt lat="42.292774039457164" lon="3.274365413264912"><ele>34.0</ele><time>2026-04-22T10:27:13Z</time></trkpt><trkpt lat="42.29269799397327" lon="3.2744440784833473"><ele>34.0</ele><time>2026-04-22T10:27:14Z</time></trkpt><trkpt lat="42.29261308239621" lon="3.274495237919451"><ele>34.0</ele><time>2026-04-22T10:27:15Z</time></trkpt><trkpt lat="42.29251842927828" lon="3.274520151293162"><ele>34.0</ele><time>2026-04-22T10:27:16Z</time></trkpt><trkpt lat="42.29242666275733" lon="3.2745209483537403"><ele>34.0</ele><time>2026-04-22T10:27:17Z</time></trkpt><trkpt lat="42.29235312329952" lon="3.2745220962399837"><ele>34.0</ele><time>2026-04-22T10:27:18Z</time></trkpt><trkpt lat="42.29226522652442" lon="3.274518025602665"><ele>34.0</ele><time>2026-04-22T10:27:20Z</time></trkpt><trkpt lat="42.29215774363971" lon="3.2745150243376875"><ele>34.0</ele><time>2026-04-22T10:27:22Z</time></trkpt><trkpt lat="42.29209016618069" lon="3.2745104351472163"><ele>34.0</ele><time>2026-04-22T10:27:23Z</time></trkpt><trkpt lat="42.292020467661494" lon="3.2744933713543576"><ele>34.0</ele><time>2026-04-22T10:27:24Z</time></trkpt><trkpt lat="42.2919104214195" lon="3.2744496323792687"><ele>34.0</ele><time>2026-04-22T10:27:26Z</time></trkpt><trkpt lat="42.29185011073555" lon="3.274420311831463"><ele>32.57142857142857</ele><time>2026-04-22T10:27:27Z</time></trkpt><trkpt lat="42.29178853620395" lon="3.274381919786541"><ele>31.142857142857142</ele><time>2026-04-22T10:27:28Z</time></trkpt><trkpt lat="42.29172987478931" lon="3.2743310432648403"><ele>29.71428571428571</ele><time>2026-04-22T10:27:29Z</time></trkpt><trkpt lat="42.29168015631053" lon="3.2742628710110253"><ele>28.285714285714285</ele><time>2026-04-22T10:27:30Z</time></trkpt><trkpt lat="42.29163337789217" lon="3.274187323045797"><ele>26.857142857142854</ele><time>2026-04-22T10:27:31Z</time></trkpt><trkpt lat="42.2915723979056" lon="3.274129804228872"><ele>25.428571428571427</ele><time>2026-04-22T10:27:32Z</time></trkpt><trkpt lat="42.29150642666598" lon="3.2740868464804813"><ele>24.0</ele><time>2026-04-22T10:27:33Z</time></trkpt><trkpt lat="42.29143943655052" lon="3.274054240073611"><ele>23.333333333333332</ele><time>2026-04-22T10:27:34Z</time></trkpt><trkpt lat="42.2913764997814" lon="3.2740344584569185"><ele>22.666666666666668</ele><time>2026-04-22T10:27:35Z</time></trkpt><trkpt lat="42.291289597977816" lon="3.2740024289872056"><ele>22.0</ele><time>2026-04-22T10:27:37Z</time></trkpt><trkpt lat="42.29120843569685" lon="3.273970525915091"><ele>21.333333333333336</ele><time>2026-04-22T10:27:39Z</time></trkpt><trkpt lat="42.291107461701436" lon="3.2739182459582605"><ele>20.666666666666668</ele><time>2026-04-22T10:27:41Z</time></trkpt><trkpt lat="42.29104721258821" lon="3.2738888431759503"><ele>20.0</ele><time>2026-04-22T10:27:42Z</time></trkpt><trkpt lat="42.29093016447403" lon="3.2738352968447515"><ele>20.0</ele><time>2026-04-22T10:27:44Z</time></trkpt><trkpt lat="42.290812295459936" lon="3.27379936731025"><ele>20.0</ele><time>2026-04-22T10:27:46Z</time></trkpt><trkpt lat="42.290699362054276" lon="3.27381029706276"><ele>20.0</ele><time>2026-04-22T10:27:48Z</time></trkpt><trkpt lat="42.29059472499097" lon="3.273854859855736"><ele>20.0</ele><time>2026-04-22T10:27:50Z</time></trkpt><trkpt lat="42.29049795359227" lon="3.273888176344161"><ele>20.0</ele><time>2026-04-22T10:27:52Z</time></trkpt><trkpt lat="42.290433861607085" lon="3.273911654855068"><ele>17.6</ele><time>2026-04-22T10:27:54Z</time></trkpt><trkpt lat="42.290374637001854" lon="3.2738786884086"><ele>15.2</ele><time>2026-04-22T10:27:57Z</time></trkpt><trkpt lat="42.290313641234185" lon="3.2737732888118134"><ele>12.8</ele><time>2026-04-22T10:28:07Z</time></trkpt><trkpt lat="42.2902265881208" lon="3.2737513893703087"><ele>10.4</ele><time>2026-04-22T10:28:09Z</time></trkpt><trkpt lat="42.290149306747765" lon="3.2738621774371484"><ele>8.0</ele><time>2026-04-22T10:28:11Z</time></trkpt><trkpt lat="42.290062068296756" lon="3.2739550083885813"><ele>8.0</ele><time>2026-04-22T10:28:13Z</time></trkpt><trkpt lat="42.28995558446474" lon="3.2740128366095633"><ele>8.0</ele><time>2026-04-22T10:28:15Z</time></trkpt><trkpt lat="42.289882707221906" lon="3.274111985051122"><ele>8.0</ele><time>2026-04-22T10:28:17Z</time></trkpt><trkpt lat="42.28982668463943" lon="3.2742094336591943"><ele>8.0</ele><time>2026-04-22T10:28:19Z</time></trkpt><trkpt lat="42.289727886519664" lon="3.274248077006727"><ele>8.0</ele><time>2026-04-22T10:28:21Z</time></trkpt><trkpt lat="42.28962663899284" lon="3.274254674024111"><ele>7.999999999999999</ele><time>2026-04-22T10:28:23Z</time></trkpt><trkpt lat="42.289529154170474" lon="3.2742566491019542"><ele>8.0</ele><time>2026-04-22T10:28:25Z</time></trkpt><trkpt lat="42.289433073265535" lon="3.2742505006230997"><ele>8.0</ele><time>2026-04-22T10:28:27Z</time></trkpt><trkpt lat="42.28935492076906" lon="3.27424590940022"><ele>8.0</ele><time>2026-04-22T10:28:30Z</time></trkpt><trkpt lat="42.28926958779028" lon="3.274245358891079"><ele>7.999999999999999</ele><time>2026-04-22T10:28:34Z</time></trkpt><trkpt lat="42.2891937054587" lon="3.2742393179710025"><ele>8.0</ele><time>2026-04-22T10:28:37Z</time></trkpt><trkpt lat="42.28913435606462" lon="3.274196325073532"><ele>8.0</ele><time>2026-04-22T10:28:42Z</time></trkpt><trkpt lat="42.289057393418155" lon="3.27420005518652"><ele>7.999999999999999</ele><time>2026-04-22T10:29:20Z</time></trkpt><trkpt lat="42.28899079833969" lon="3.2741970629467905"><ele>8.0</ele><time>2026-04-22T10:29:51Z</time></trkpt><trkpt lat="42.28894925474894" lon="3.2741165639638607"><ele>8.0</ele><time>2026-04-22T10:30:25Z</time></trkpt><trkpt lat="42.28896253875378" lon="3.2740235349933684"><ele>7.999999999999999</ele><time>2026-04-22T10:30:50Z</time></trkpt><trkpt lat="42.28898716053638" lon="3.273942567620214"><ele>8.0</ele><time>2026-04-22T10:30:53Z</time></trkpt><trkpt lat="42.28904429891215" lon="3.2738909531495937"><ele>8.0</ele><time>2026-04-22T10:30:56Z</time></trkpt><trkpt lat="42.28907674524187" lon="3.2737984142408796"><ele>8.5</ele><time>2026-04-22T10:30:59Z</time></trkpt><trkpt lat="42.289094611221714" lon="3.2736753653659747"><ele>9.0</ele><time>2026-04-22T10:31:01Z</time></trkpt><trkpt lat="42.28910766027666" lon="3.273532119041695"><ele>9.5</ele><time>2026-04-22T10:31:03Z</time></trkpt><trkpt lat="42.28912159100717" lon="3.2734064499238262"><ele>10.0</ele><time>2026-04-22T10:31:05Z</time></trkpt><trkpt lat="42.289140504583166" lon="3.273299809477022"><ele>10.5</ele><time>2026-04-22T10:31:07Z</time></trkpt><trkpt lat="42.28916318500701" lon="3.273206835439059"><ele>11.0</ele><time>2026-04-22T10:31:09Z</time></trkpt><trkpt lat="42.28920120742304" lon="3.2731072910567502"><ele>11.166666666666666</ele><time>2026-04-22T10:31:11Z</time></trkpt><trkpt lat="42.28924253341429" lon="3.273012263223031"><ele>11.333333333333332</ele><time>2026-04-22T10:31:13Z</time></trkpt><trkpt lat="42.28928153638182" lon="3.2729376735578737"><ele>11.5</ele><time>2026-04-22T10:31:15Z</time></trkpt><trkpt lat="42.2893475096086" lon="3.272860801743127"><ele>11.666666666666666</ele><time>2026-04-22T10:31:18Z</time></trkpt><trkpt lat="42.28941738735546" lon="3.2728041197776045"><ele>11.833333333333334</ele><time>2026-04-22T10:31:21Z</time></trkpt><trkpt lat="42.289488111790575" lon="3.2727467490232027"><ele>12.0</ele><time>2026-04-22T10:31:24Z</time></trkpt><trkpt lat="42.28954250630534" lon="3.2726984509983046"><ele>12.0</ele><time>2026-04-22T10:31:27Z</time></trkpt><trkpt lat="42.28955481462093" lon="3.2726122769556385"><ele>12.0</ele><time>2026-04-22T10:31:31Z</time></trkpt><trkpt lat="42.28950712533001" lon="3.272525260834299"><ele>12.0</ele><time>2026-04-22T10:31:34Z</time></trkpt><trkpt lat="42.28946906682388" lon="3.2724383852114696"><ele>12.0</ele><time>2026-04-22T10:31:41Z</time></trkpt><trkpt lat="42.28943510265894" lon="3.2723639921775023"><ele>12.0</ele><time>2026-04-22T10:31:45Z</time></trkpt><trkpt lat="42.289378738580766" lon="3.2722693725454053"><ele>12.0</ele><time>2026-04-22T10:31:49Z</time></trkpt><trkpt lat="42.289318915077736" lon="3.272194432281281"><ele>13.333333333333334</ele><time>2026-04-22T10:31:52Z</time></trkpt><trkpt lat="42.28925828506157" lon="3.2720980629443965"><ele>14.666666666666668</ele><time>2026-04-22T10:31:55Z</time></trkpt><trkpt lat="42.289200857962" lon="3.27199475092865"><ele>16.0</ele><time>2026-04-22T10:31:58Z</time></trkpt><trkpt lat="42.28916092576686" lon="3.2719210519780364"><ele>17.333333333333336</ele><time>2026-04-22T10:32:00Z</time></trkpt><trkpt lat="42.28910468007503" lon="3.2718269367685284"><ele>18.666666666666668</ele><time>2026-04-22T10:32:03Z</time></trkpt><trkpt lat="42.289053056631786" lon="3.2717451806648103"><ele>20.0</ele><time>2026-04-22T10:32:06Z</time></trkpt><trkpt lat="42.28900321112955" lon="3.271660875313249"><ele>20.0</ele><time>2026-04-22T10:32:10Z</time></trkpt><trkpt lat="42.28895934590944" lon="3.2715676657954242"><ele>20.0</ele><time>2026-04-22T10:32:13Z</time></trkpt><trkpt lat="42.288907286853764" lon="3.2714754539760977"><ele>20.0</ele><time>2026-04-22T10:32:16Z</time></trkpt><trkpt lat="42.28884127874303" lon="3.2713898143151843"><ele>20.0</ele><time>2026-04-22T10:32:19Z</time></trkpt><trkpt lat="42.28880070344161" lon="3.2713130955652234"><ele>20.0</ele><time>2026-04-22T10:32:22Z</time></trkpt><trkpt lat="42.2887488219982" lon="3.271250025627718"><ele>20.0</ele><time>2026-04-22T10:32:40Z</time></trkpt><trkpt lat="42.28875711591818" lon="3.271344593642892"><ele>20.0</ele><time>2026-04-22T10:35:18Z</time></trkpt><trkpt lat="42.28871999759846" lon="3.271428398288505"><ele>20.0</ele><time>2026-04-22T10:35:26Z</time></trkpt><trkpt lat="42.288747135665936" lon="3.2715087783234678"><ele>20.0</ele><time>2026-04-22T10:35:34Z</time></trkpt><trkpt lat="42.28880003772146" lon="3.271559548549951"><ele>20.0</ele><time>2026-04-22T10:35:42Z</time></trkpt><trkpt lat="42.28884687598393" lon="3.2716295479025956"><ele>20.0</ele><time>2026-04-22T10:35:49Z</time></trkpt><trkpt lat="42.28889728354347" lon="3.271689495715083"><ele>20.0</ele><time>2026-04-22T10:35:55Z</time></trkpt><trkpt lat="42.2889406967919" lon="3.271764844077637"><ele>20.0</ele><time>2026-04-22T10:36:02Z</time></trkpt><trkpt lat="42.28898515212957" lon="3.2718303555326935"><ele>20.0</ele><time>2026-04-22T10:36:08Z</time></trkpt><trkpt lat="42.28904193271874" lon="3.2718810816422494"><ele>20.0</ele><time>2026-04-22T10:36:15Z</time></trkpt><trkpt lat="42.28907854446682" lon="3.2719572260560272"><ele>20.0</ele><time>2026-04-22T10:36:20Z</time></trkpt><trkpt lat="42.28910906716014" lon="3.272041243204795"><ele>20.0</ele><time>2026-04-22T10:36:26Z</time></trkpt><trkpt lat="42.289149426502036" lon="3.272119867351132"><ele>20.0</ele><time>2026-04-22T10:36:32Z</time></trkpt><trkpt lat="42.289192070822274" lon="3.2721991296338087"><ele>20.0</ele><time>2026-04-22T10:36:39Z</time></trkpt><trkpt lat="42.289239658509764" lon="3.272262034142062"><ele>20.0</ele><time>2026-04-22T10:36:45Z</time></trkpt><trkpt lat="42.28929835877023" lon="3.2723027021817943"><ele>18.857142857142858</ele><time>2026-04-22T10:36:51Z</time></trkpt><trkpt lat="42.28936751910839" lon="3.2722903122599387"><ele>17.714285714285715</ele><time>2026-04-22T10:37:01Z</time></trkpt><trkpt lat="42.289431752933446" lon="3.2723236220680123"><ele>16.57142857142857</ele><time>2026-04-22T10:37:07Z</time></trkpt><trkpt lat="42.28944744542831" lon="3.2724194365803743"><ele>15.428571428571427</ele><time>2026-04-22T10:37:15Z</time></trkpt><trkpt lat="42.28949503540084" lon="3.272475990101875"><ele>14.285714285714285</ele><time>2026-04-22T10:37:22Z</time></trkpt><trkpt lat="42.28952980452981" lon="3.272551284303387"><ele>13.142857142857142</ele><time>2026-04-22T10:37:30Z</time></trkpt><trkpt lat="42.289574133629074" lon="3.2726204925053715"><ele>12.0</ele><time>2026-04-22T10:37:36Z</time></trkpt><trkpt lat="42.289554843610794" lon="3.2727040307012687"><ele>11.999999999999998</ele><time>2026-04-22T10:37:41Z</time></trkpt><trkpt lat="42.28949313912796" lon="3.2727576321400553"><ele>12.0</ele><time>2026-04-22T10:37:46Z</time></trkpt><trkpt lat="42.289429678465254" lon="3.2728098301925286"><ele>12.0</ele><time>2026-04-22T10:37:52Z</time></trkpt><trkpt lat="42.28936677962834" lon="3.2728553305935737"><ele>12.0</ele><time>2026-04-22T10:38:00Z</time></trkpt><trkpt lat="42.28932956781725" lon="3.272927225200936"><ele>12.0</ele><time>2026-04-22T10:38:07Z</time></trkpt><trkpt lat="42.289270330807376" lon="3.2729841623008404"><ele>11.999999999999998</ele><time>2026-04-22T10:38:14Z</time></trkpt><trkpt lat="42.28922639630193" lon="3.273049408827637"><ele>12.0</ele><time>2026-04-22T10:38:20Z</time></trkpt><trkpt lat="42.289196393828455" lon="3.273129690074663"><ele>11.857142857142856</ele><time>2026-04-22T10:38:26Z</time></trkpt><trkpt lat="42.28915005665286" lon="3.2731886196202717"><ele>11.714285714285714</ele><time>2026-04-22T10:38:33Z</time></trkpt><trkpt lat="42.28911011534337" lon="3.273267924642937"><ele>11.571428571428571</ele><time>2026-04-22T10:38:39Z</time></trkpt><trkpt lat="42.28907772643562" lon="3.273341822137501"><ele>11.428571428571427</ele><time>2026-04-22T10:38:45Z</time></trkpt><trkpt lat="42.28904539998892" lon="3.273428643514646"><ele>11.285714285714285</ele><time>2026-04-22T10:38:52Z</time></trkpt><trkpt lat="42.28901438058237" lon="3.2735039502761505"><ele>11.142857142857142</ele><time>2026-04-22T10:38:58Z</time></trkpt><trkpt lat="42.28898591636679" lon="3.273581280721681"><ele>11.0</ele><time>2026-04-22T10:39:04Z</time></trkpt><trkpt lat="42.288957681072176" lon="3.273661684687719"><ele>12.142857142857142</ele><time>2026-04-22T10:39:10Z</time></trkpt><trkpt lat="42.288924706299206" lon="3.2737389015546245"><ele>13.285714285714285</ele><time>2026-04-22T10:39:16Z</time></trkpt><trkpt lat="42.28891707743674" lon="3.2738364847527697"><ele>14.428571428571427</ele><time>2026-04-22T10:39:23Z</time></trkpt><trkpt lat="42.28889552115726" lon="3.2739171315100526"><ele>15.571428571428573</ele><time>2026-04-22T10:39:29Z</time></trkpt><trkpt lat="42.288890064019554" lon="3.2740149355104933"><ele>16.714285714285715</ele><time>2026-04-22T10:39:36Z</time></trkpt><trkpt lat="42.28887955105718" lon="3.274104530291668"><ele>17.857142857142858</ele><time>2026-04-22T10:39:43Z</time></trkpt><trkpt lat="42.288857339390965" lon="3.274184406181685"><ele>19.0</ele><time>2026-04-22T10:39:49Z</time></trkpt><trkpt lat="42.28880819786051" lon="3.274242004042345"><ele>19.0</ele><time>2026-04-22T10:39:55Z</time></trkpt><trkpt lat="42.28877549214925" lon="3.2743215209842096"><ele>19.0</ele><time>2026-04-22T10:40:02Z</time></trkpt><trkpt lat="42.28880665410349" lon="3.274403001878374"><ele>19.0</ele><time>2026-04-22T10:40:09Z</time></trkpt><trkpt lat="42.28884691223965" lon="3.2744703976787086"><ele>19.0</ele><time>2026-04-22T10:40:16Z</time></trkpt><trkpt lat="42.28890603939689" lon="3.2745239315228174"><ele>19.0</ele><time>2026-04-22T10:40:22Z</time></trkpt><trkpt lat="42.28894918502694" lon="3.274591914099538"><ele>19.0</ele><time>2026-04-22T10:40:28Z</time></trkpt><trkpt lat="42.28897634386854" lon="3.274668853002514"><ele>19.0</ele><time>2026-04-22T10:40:35Z</time></trkpt><trkpt lat="42.28899434285072" lon="3.274763075568875"><ele>17.71428571428571</ele><time>2026-04-22T10:40:40Z</time></trkpt><trkpt lat="42.28904917599754" lon="3.2748122429765854"><ele>16.42857142857143</ele><time>2026-04-22T10:40:47Z</time></trkpt><trkpt lat="42.28908102838885" lon="3.2748909257365875"><ele>15.142857142857142</ele><time>2026-04-22T10:40:53Z</time></trkpt><trkpt lat="42.2891532759799" lon="3.2749394061463364"><ele>13.857142857142858</ele><time>2026-04-22T10:40:59Z</time></trkpt><trkpt lat="42.289232809851036" lon="3.27495401681956"><ele>12.571428571428573</ele><time>2026-04-22T10:41:02Z</time></trkpt><trkpt lat="42.28922711015721" lon="3.275048924680535"><ele>11.285714285714285</ele><time>2026-04-22T10:41:06Z</time></trkpt><trkpt lat="42.28921890999209" lon="3.275140757730729"><ele>10.0</ele><time>2026-04-22T10:41:13Z</time></trkpt><trkpt lat="42.28920610498361" lon="3.275228200076476"><ele>10.0</ele><time>2026-04-22T10:41:19Z</time></trkpt><trkpt lat="42.28920186895391" lon="3.27531534489128"><ele>10.0</ele><time>2026-04-22T10:41:25Z</time></trkpt><trkpt lat="42.289199124121694" lon="3.2754070942946423"><ele>10.0</ele><time>2026-04-22T10:41:31Z</time></trkpt><trkpt lat="42.28921054690582" lon="3.275498753277432"><ele>10.0</ele><time>2026-04-22T10:41:37Z</time></trkpt><trkpt lat="42.289224101904985" lon="3.2755881995831304"><ele>10.0</ele><time>2026-04-22T10:41:43Z</time></trkpt><trkpt lat="42.28918781365772" lon="3.2756577477518536"><ele>10.0</ele><time>2026-04-22T10:41:50Z</time></trkpt><trkpt lat="42.28917077250253" lon="3.275756499668033"><ele>10.0</ele><time>2026-04-22T10:41:58Z</time></trkpt><trkpt lat="42.289140977116375" lon="3.2758335372217657"><ele>10.142857142857142</ele><time>2026-04-22T10:42:05Z</time></trkpt><trkpt lat="42.28911891384926" lon="3.275923379956731"><ele>10.285714285714286</ele><time>2026-04-22T10:42:13Z</time></trkpt><trkpt lat="42.28906614322729" lon="3.2759759183357264"><ele>10.428571428571429</ele><time>2026-04-22T10:42:19Z</time></trkpt><trkpt lat="42.289047775714565" lon="3.27607887493961"><ele>10.571428571428571</ele><time>2026-04-22T10:42:26Z</time></trkpt><trkpt lat="42.289012389355904" lon="3.276161540770575"><ele>10.714285714285714</ele><time>2026-04-22T10:42:34Z</time></trkpt><trkpt lat="42.288970693054004" lon="3.2762254661445085"><ele>10.857142857142858</ele><time>2026-04-22T10:42:41Z</time></trkpt><trkpt lat="42.2889309504246" lon="3.276296662332"><ele>11.0</ele><time>2026-04-22T10:42:47Z</time></trkpt><trkpt lat="42.28889605360313" lon="3.2763791249586207"><ele>11.714285714285715</ele><time>2026-04-22T10:42:55Z</time></trkpt><trkpt lat="42.288864619077735" lon="3.276459733272233"><ele>12.428571428571427</ele><time>2026-04-22T10:43:01Z</time></trkpt><trkpt lat="42.28882853698671" lon="3.2765380151009893"><ele>13.142857142857142</ele><time>2026-04-22T10:43:08Z</time></trkpt><trkpt lat="42.28883440443385" lon="3.276629677847139"><ele>13.857142857142858</ele><time>2026-04-22T10:43:27Z</time></trkpt><trkpt lat="42.28878900688657" lon="3.276694034307547"><ele>14.57142857142857</ele><time>2026-04-22T10:43:33Z</time></trkpt><trkpt lat="42.28875539832666" lon="3.2767822979280194"><ele>15.285714285714285</ele><time>2026-04-22T10:43:41Z</time></trkpt><trkpt lat="42.28871776778523" lon="3.2768650813211955"><ele>16.0</ele><time>2026-04-22T10:43:48Z</time></trkpt><trkpt lat="42.28870400110599" lon="3.2769530481687186"><ele>16.0</ele><time>2026-04-22T10:43:57Z</time></trkpt><trkpt lat="42.28876689845396" lon="3.2769610821136417"><ele>15.999999999999998</ele><time>2026-04-22T10:44:18Z</time></trkpt><trkpt lat="42.288736140805405" lon="3.277058569876404"><ele>16.0</ele><time>2026-04-22T10:44:24Z</time></trkpt><trkpt lat="42.288674189144295" lon="3.2771077731770624"><ele>16.0</ele><time>2026-04-22T10:44:29Z</time></trkpt><trkpt lat="42.28866336151363" lon="3.2771931654266964"><ele>15.999999999999998</ele><time>2026-04-22T10:44:36Z</time></trkpt><trkpt lat="42.28867536019066" lon="3.2772882830209844"><ele>16.0</ele><time>2026-04-22T10:44:55Z</time></trkpt><trkpt lat="42.288634653604234" lon="3.277369786254862"><ele>16.0</ele><time>2026-04-22T10:45:02Z</time></trkpt><trkpt lat="42.288594130326814" lon="3.277444363736132"><ele>16.0</ele><time>2026-04-22T10:45:07Z</time></trkpt><trkpt lat="42.28852978599668" lon="3.2774725233781496"><ele>15.999999999999998</ele><time>2026-04-22T10:45:13Z</time></trkpt><trkpt lat="42.288465158416464" lon="3.2774501486699674"><ele>16.0</ele><time>2026-04-22T10:45:21Z</time></trkpt><trkpt lat="42.28843685635913" lon="3.277364969030071"><ele>16.0</ele><time>2026-04-22T10:45:28Z</time></trkpt><trkpt lat="42.28839312074629" lon="3.2772998826654374"><ele>15.999999999999998</ele><time>2026-04-22T10:45:35Z</time></trkpt><trkpt lat="42.28834165660368" lon="3.2772422661244267"><ele>16.0</ele><time>2026-04-22T10:45:43Z</time></trkpt><trkpt lat="42.28827405660516" lon="3.2772505794905977"><ele>16.0</ele><time>2026-04-22T10:45:51Z</time></trkpt><trkpt lat="42.28821230758771" lon="3.27720814097137"><ele>16.0</ele><time>2026-04-22T10:45:59Z</time></trkpt><trkpt lat="42.288150287575164" lon="3.2771819251963232"><ele>15.999999999999998</ele><time>2026-04-22T10:46:07Z</time></trkpt><trkpt lat="42.288094632571905" lon="3.2771421248563106"><ele>16.0</ele><time>2026-04-22T10:46:14Z</time></trkpt><trkpt lat="42.2880295843695" lon="3.2771713156211244"><ele>16.0</ele><time>2026-04-22T10:46:22Z</time></trkpt><trkpt lat="42.28796334966498" lon="3.2771813963737584"><ele>15.999999999999998</ele><time>2026-04-22T10:46:29Z</time></trkpt><trkpt lat="42.28803029186992" lon="3.2771562244737384"><ele>16.0</ele><time>2026-04-22T10:50:00Z</time></trkpt><trkpt lat="42.288093257152255" lon="3.277153890490226"><ele>16.0</ele><time>2026-04-22T10:50:08Z</time></trkpt><trkpt lat="42.28816440742611" lon="3.2771760753375876"><ele>16.0</ele><time>2026-04-22T10:50:16Z</time></trkpt><trkpt lat="42.28822678412423" lon="3.277206027224396"><ele>15.999999999999998</ele><time>2026-04-22T10:50:23Z</time></trkpt><trkpt lat="42.28827983600927" lon="3.2772669006581077"><ele>16.0</ele><time>2026-04-22T10:50:33Z</time></trkpt><trkpt lat="42.28832664206839" lon="3.2773256668204533"><ele>16.0</ele><time>2026-04-22T10:50:42Z</time></trkpt><trkpt lat="42.28836650870618" lon="3.277392300807708"><ele>15.999999999999998</ele><time>2026-04-22T10:50:50Z</time></trkpt><trkpt lat="42.288419371259785" lon="3.2774571437853877"><ele>16.0</ele><time>2026-04-22T10:50:59Z</time></trkpt><trkpt lat="42.2884691992344" lon="3.2775196347547646"><ele>16.0</ele><time>2026-04-22T10:51:41Z</time></trkpt><trkpt lat="42.288505409536675" lon="3.2775990301892017"><ele>14.714285714285714</ele><time>2026-04-22T10:51:48Z</time></trkpt><trkpt lat="42.28855870258759" lon="3.2776507510577075"><ele>13.428571428571427</ele><time>2026-04-22T10:51:54Z</time></trkpt><trkpt lat="42.28859739404475" lon="3.2777244424077017"><ele>12.142857142857142</ele><time>2026-04-22T10:52:03Z</time></trkpt><trkpt lat="42.28863856050944" lon="3.2778020026358967"><ele>10.857142857142858</ele><time>2026-04-22T10:52:11Z</time></trkpt><trkpt lat="42.28867866783986" lon="3.2778778115597946"><ele>9.571428571428571</ele><time>2026-04-22T10:52:19Z</time></trkpt><trkpt lat="42.28871376265144" lon="3.2779487305821235"><ele>8.285714285714285</ele><time>2026-04-22T10:52:26Z</time></trkpt><trkpt lat="42.28872795448632" lon="3.278032449497371"><ele>7.0</ele><time>2026-04-22T10:52:32Z</time></trkpt><trkpt lat="42.288767545333094" lon="3.278114827932058"><ele>6.571428571428571</ele><time>2026-04-22T10:52:39Z</time></trkpt><trkpt lat="42.28879439678488" lon="3.2782066835695702"><ele>6.142857142857142</ele><time>2026-04-22T10:52:47Z</time></trkpt><trkpt lat="42.28879311613757" lon="3.2783083899587244"><ele>5.714285714285714</ele><time>2026-04-22T10:52:58Z</time></trkpt><trkpt lat="42.288859614378595" lon="3.2783391886750404"><ele>5.285714285714286</ele><time>2026-04-22T10:53:16Z</time></trkpt><trkpt lat="42.28887275897561" lon="3.278432325129631"><ele>4.857142857142857</ele><time>2026-04-22T10:53:22Z</time></trkpt><trkpt lat="42.28889144853514" lon="3.2785157453431677"><ele>4.428571428571429</ele><time>2026-04-22T10:53:30Z</time></trkpt><trkpt lat="42.28891030453518" lon="3.2786016786611367"><ele>4.0</ele><time>2026-04-22T10:53:41Z</time></trkpt><trkpt lat="42.28889320892808" lon="3.2785090649226465"><ele>4.0</ele><time>2026-04-22T10:54:37Z</time></trkpt><trkpt lat="42.28887723532112" lon="3.2784248414594126"><ele>3.9999999999999996</ele><time>2026-04-22T10:54:44Z</time></trkpt><trkpt lat="42.28892781373574" lon="3.2783699049612127"><ele>4.0</ele><time>2026-04-22T10:54:50Z</time></trkpt><trkpt lat="42.28898132667555" lon="3.2783131861308563"><ele>4.0</ele><time>2026-04-22T10:54:57Z</time></trkpt><trkpt lat="42.28901035417757" lon="3.278222553532258"><ele>3.9999999999999996</ele><time>2026-04-22T10:55:04Z</time></trkpt><trkpt lat="42.28904336626113" lon="3.278146759743934"><ele>4.0</ele><time>2026-04-22T10:55:13Z</time></trkpt><trkpt lat="42.28905053922515" lon="3.2780508085889895"><ele>4.0</ele><time>2026-04-22T10:55:21Z</time></trkpt><trkpt lat="42.28906756732262" lon="3.278136743536174"><ele>4.5</ele><time>2026-04-22T10:55:54Z</time></trkpt><trkpt lat="42.28915412294756" lon="3.2781594260703635"><ele>5.0</ele><time>2026-04-22T11:16:36Z</time></trkpt><trkpt lat="42.2890911656122" lon="3.2781370864572095"><ele>5.5</ele><time>2026-04-22T11:56:47Z</time></trkpt><trkpt lat="42.289012394909456" lon="3.278054302602428"><ele>6.0</ele><time>2026-04-22T11:57:13Z</time></trkpt><trkpt lat="42.28898003527703" lon="3.2779663691878382"><ele>6.500000000000001</ele><time>2026-04-22T11:57:21Z</time></trkpt><trkpt lat="42.28893140184095" lon="3.2778762552936116"><ele>7.0</ele><time>2026-04-22T11:57:27Z</time></trkpt><trkpt lat="42.28888317813981" lon="3.2779395294160705"><ele>7.0</ele><time>2026-04-22T11:57:34Z</time></trkpt><trkpt lat="42.28882641405769" lon="3.2779939481116003"><ele>7.0</ele><time>2026-04-22T11:57:41Z</time></trkpt><trkpt lat="42.28879275783897" lon="3.2780796467680515"><ele>7.0</ele><time>2026-04-22T11:57:49Z</time></trkpt><trkpt lat="42.28877034880637" lon="3.2781648132706827"><ele>7.0</ele><time>2026-04-22T11:57:57Z</time></trkpt><trkpt lat="42.28878209229999" lon="3.2782497008083853"><ele>7.0</ele><time>2026-04-22T11:59:19Z</time></trkpt><trkpt lat="42.28872524563991" lon="3.2782105983017846"><ele>7.0</ele><time>2026-04-22T11:59:30Z</time></trkpt><trkpt lat="42.28867099329595" lon="3.278261826139452"><ele>7.0</ele><time>2026-04-22T11:59:39Z</time></trkpt><trkpt lat="42.28859627539518" lon="3.278331946278732"><ele>7.0</ele><time>2026-04-22T11:59:53Z</time></trkpt><trkpt lat="42.28863944073918" lon="3.278268101610524"><ele>7.0</ele><time>2026-04-22T12:01:03Z</time></trkpt><trkpt lat="42.28868008896115" lon="3.278196881959028"><ele>7.0</ele><time>2026-04-22T12:01:10Z</time></trkpt><trkpt lat="42.28873301100034" lon="3.2781400632302904"><ele>7.0</ele><time>2026-04-22T12:01:16Z</time></trkpt><trkpt lat="42.28872590076535" lon="3.278051383583371"><ele>7.0</ele><time>2026-04-22T12:01:24Z</time></trkpt><trkpt lat="42.28875673755534" lon="3.2779726146528874"><ele>7.0</ele><time>2026-04-22T12:01:37Z</time></trkpt><trkpt lat="42.288807403208494" lon="3.2779101454658917"><ele>7.0</ele><time>2026-04-22T12:01:46Z</time></trkpt><trkpt lat="42.28886044675378" lon="3.2778507865051676"><ele>7.0</ele><time>2026-04-22T12:01:52Z</time></trkpt><trkpt lat="42.28893177043106" lon="3.2778194300578"><ele>7.0</ele><time>2026-04-22T12:01:58Z</time></trkpt><trkpt lat="42.288994018574726" lon="3.277777160919426"><ele>7.0</ele><time>2026-04-22T12:02:10Z</time></trkpt><trkpt lat="42.28906323137478" lon="3.2777870448654767"><ele>7.0</ele><time>2026-04-22T12:02:16Z</time></trkpt><trkpt lat="42.289124555041774" lon="3.2777296701798937"><ele>7.0</ele><time>2026-04-22T12:02:23Z</time></trkpt><trkpt lat="42.2891890080932" lon="3.2777151908948134"><ele>7.0</ele><time>2026-04-22T12:02:28Z</time></trkpt><trkpt lat="42.28924852302571" lon="3.2776818047993004"><ele>7.0</ele><time>2026-04-22T12:02:34Z</time></trkpt><trkpt lat="42.289309741632415" lon="3.277718526452509"><ele>7.0</ele><time>2026-04-22T12:02:41Z</time></trkpt><trkpt lat="42.289357058295835" lon="3.277662077988951"><ele>7.0</ele><time>2026-04-22T12:02:48Z</time></trkpt><trkpt lat="42.2893970619653" lon="3.2775926621800986"><ele>7.0</ele><time>2026-04-22T12:02:55Z</time></trkpt><trkpt lat="42.289419735020914" lon="3.2775108458630258"><ele>7.0</ele><time>2026-04-22T12:03:01Z</time></trkpt><trkpt lat="42.289472292621085" lon="3.2774370572871887"><ele>7.0</ele><time>2026-04-22T12:03:10Z</time></trkpt><trkpt lat="42.289537265241464" lon="3.2774212009177996"><ele>7.0</ele><time>2026-04-22T12:03:14Z</time></trkpt><trkpt lat="42.28958905093027" lon="3.277351481607873"><ele>7.0</ele><time>2026-04-22T12:03:21Z</time></trkpt><trkpt lat="42.28960012688339" lon="3.277263669336276"><ele>7.199999999999999</ele><time>2026-04-22T12:03:31Z</time></trkpt><trkpt lat="42.28967081650253" lon="3.2772365260455434"><ele>7.3999999999999995</ele><time>2026-04-22T12:03:42Z</time></trkpt><trkpt lat="42.289718045767245" lon="3.2771694948323042"><ele>7.6000000000000005</ele><time>2026-04-22T12:03:46Z</time></trkpt><trkpt lat="42.289567196309925" lon="3.27701336660326"><ele>7.800000000000001</ele><time>2026-04-22T12:04:03Z</time></trkpt><trkpt lat="42.28952597048408" lon="3.2769249952037365"><ele>8.0</ele><time>2026-04-22T12:04:06Z</time></trkpt><trkpt lat="42.28950602544783" lon="3.276830531473796"><ele>8.0</ele><time>2026-04-22T12:04:09Z</time></trkpt><trkpt lat="42.28943471145533" lon="3.2767917333175216"><ele>8.0</ele><time>2026-04-22T12:04:12Z</time></trkpt><trkpt lat="42.28961182296511" lon="3.2769448589564094"><ele>8.0</ele><time>2026-04-22T12:04:13Z</time></trkpt><trkpt lat="42.28946624622491" lon="3.276710736346018"><ele>8.0</ele><time>2026-04-22T12:04:24Z</time></trkpt><trkpt lat="42.28960139361695" lon="3.276903368041538"><ele>8.0</ele><time>2026-04-22T12:04:25Z</time></trkpt><trkpt lat="42.289710523749825" lon="3.2771173029709537"><ele>8.0</ele><time>2026-04-22T12:04:26Z</time></trkpt><trkpt lat="42.28976698808204" lon="3.277074504428749"><ele>8.142857142857142</ele><time>2026-04-22T12:04:36Z</time></trkpt><trkpt lat="42.28981250729008" lon="3.2770005761362224"><ele>8.285714285714285</ele><time>2026-04-22T12:04:47Z</time></trkpt><trkpt lat="42.28982909240993" lon="3.2768751674018888"><ele>8.428571428571429</ele><time>2026-04-22T12:04:50Z</time></trkpt><trkpt lat="42.289897533451885" lon="3.2768100490034446"><ele>8.571428571428571</ele><time>2026-04-22T12:04:57Z</time></trkpt><trkpt lat="42.28989280010481" lon="3.2767164344888546"><ele>8.714285714285715</ele><time>2026-04-22T12:05:08Z</time></trkpt><trkpt lat="42.28992141921935" lon="3.276639963620019"><ele>8.857142857142858</ele><time>2026-04-22T12:05:14Z</time></trkpt><trkpt lat="42.28990626817884" lon="3.2765569085460036"><ele>9.0</ele><time>2026-04-22T12:05:20Z</time></trkpt><trkpt lat="42.289938641778285" lon="3.2764799557216984"><ele>8.714285714285715</ele><time>2026-04-22T12:05:32Z</time></trkpt><trkpt lat="42.289980523734506" lon="3.2764108641709484"><ele>8.428571428571429</ele><time>2026-04-22T12:05:39Z</time></trkpt><trkpt lat="42.28999949578754" lon="3.2763247720022677"><ele>8.142857142857142</ele><time>2026-04-22T12:05:44Z</time></trkpt><trkpt lat="42.29000863822062" lon="3.276239703496191"><ele>7.857142857142858</ele><time>2026-04-22T12:05:47Z</time></trkpt><trkpt lat="42.29002721541495" lon="3.276156940530327"><ele>7.571428571428571</ele><time>2026-04-22T12:05:55Z</time></trkpt><trkpt lat="42.2900116206039" lon="3.2760661836029623"><ele>7.285714285714286</ele><time>2026-04-22T12:06:04Z</time></trkpt><trkpt lat="42.29000993935436" lon="3.275976917729703"><ele>7.0</ele><time>2026-04-22T12:06:11Z</time></trkpt><trkpt lat="42.29002313621068" lon="3.275874787524261"><ele>7.0</ele><time>2026-04-22T12:06:18Z</time></trkpt><trkpt lat="42.2900241761195" lon="3.2757832118298866"><ele>7.0</ele><time>2026-04-22T12:06:28Z</time></trkpt><trkpt lat="42.29006329715204" lon="3.2757031181839404"><ele>7.0</ele><time>2026-04-22T12:06:37Z</time></trkpt><trkpt lat="42.290121001477964" lon="3.275644906081266"><ele>7.0</ele><time>2026-04-22T12:06:42Z</time></trkpt><trkpt lat="42.2901634910916" lon="3.275548780455349"><ele>7.0</ele><time>2026-04-22T12:06:49Z</time></trkpt><trkpt lat="42.29017161860159" lon="3.2754603399187516"><ele>7.0</ele><time>2026-04-22T12:06:55Z</time></trkpt><trkpt lat="42.29014787760661" lon="3.275372152709266"><ele>7.0</ele><time>2026-04-22T12:07:04Z</time></trkpt><trkpt lat="42.29014882625362" lon="3.2752667363855523"><ele>7.166666666666667</ele><time>2026-04-22T12:07:20Z</time></trkpt><trkpt lat="42.29006584003202" lon="3.2752524383475294"><ele>7.333333333333334</ele><time>2026-04-22T12:07:24Z</time></trkpt><trkpt lat="42.290045633591056" lon="3.275162001134329"><ele>7.5</ele><time>2026-04-22T12:07:30Z</time></trkpt><trkpt lat="42.29008968851012" lon="3.275081257231872"><ele>7.666666666666666</ele><time>2026-04-22T12:07:32Z</time></trkpt><trkpt lat="42.2901145209744" lon="3.2749753059044004"><ele>7.833333333333333</ele><time>2026-04-22T12:07:40Z</time></trkpt><trkpt lat="42.29001637898823" lon="3.2749915207162923"><ele>8.0</ele><time>2026-04-22T12:07:42Z</time></trkpt><trkpt lat="42.29002811841584" lon="3.2748846171784205"><ele>8.0</ele><time>2026-04-22T12:07:48Z</time></trkpt><trkpt lat="42.290076563566984" lon="3.2748286564059095"><ele>7.999999999999999</ele><time>2026-04-22T12:07:51Z</time></trkpt><trkpt lat="42.290048016879254" lon="3.274739939367345"><ele>8.0</ele><time>2026-04-22T12:07:58Z</time></trkpt><trkpt lat="42.29001042896287" lon="3.2746280021305774"><ele>8.0</ele><time>2026-04-22T12:08:04Z</time></trkpt><trkpt lat="42.28994445901651" lon="3.2746674487850256"><ele>7.999999999999999</ele><time>2026-04-22T12:08:09Z</time></trkpt><trkpt lat="42.2899442372082" lon="3.274570528494778"><ele>8.0</ele><time>2026-04-22T12:08:18Z</time></trkpt><trkpt lat="42.28988205307311" lon="3.2745536928567858"><ele>8.0</ele><time>2026-04-22T12:08:24Z</time></trkpt><trkpt lat="42.2898185564696" lon="3.2745411530667035"><ele>8.0</ele><time>2026-04-22T12:08:35Z</time></trkpt><trkpt lat="42.28978798497431" lon="3.2744508677820456"><ele>7.999999999999999</ele><time>2026-04-22T12:08:43Z</time></trkpt><trkpt lat="42.28972763982554" lon="3.274407070978136"><ele>8.0</ele><time>2026-04-22T12:08:50Z</time></trkpt><trkpt lat="42.289692835845074" lon="3.274329892559181"><ele>8.0</ele><time>2026-04-22T12:08:58Z</time></trkpt><trkpt lat="42.289665428635296" lon="3.2742432146161295"><ele>7.999999999999999</ele><time>2026-04-22T12:09:27Z</time></trkpt><trkpt lat="42.28959950527459" lon="3.2742236972152963"><ele>8.0</ele><time>2026-04-22T12:09:35Z</time></trkpt><trkpt lat="42.28952495673188" lon="3.2742160858269687"><ele>8.0</ele><time>2026-04-22T12:09:41Z</time></trkpt><trkpt lat="42.28945416259384" lon="3.2742031614285563"><ele>8.0</ele><time>2026-04-22T12:09:49Z</time></trkpt><trkpt lat="42.2893927869221" lon="3.2742268266796426"><ele>7.999999999999999</ele><time>2026-04-22T12:09:54Z</time></trkpt><trkpt lat="42.28932100045639" lon="3.27424533198465"><ele>8.0</ele><time>2026-04-22T12:10:02Z</time></trkpt><trkpt lat="42.28925804429481" lon="3.274232954551947"><ele>8.0</ele><time>2026-04-22T12:10:09Z</time></trkpt><trkpt lat="42.28919079221996" lon="3.2742179833699208"><ele>7.999999999999999</ele><time>2026-04-22T12:10:18Z</time></trkpt><trkpt lat="42.2891258683179" lon="3.274186107844194"><ele>8.0</ele><time>2026-04-22T12:10:25Z</time></trkpt><trkpt lat="42.28906199439021" lon="3.2741527287115897"><ele>8.0</ele><time>2026-04-22T12:10:32Z</time></trkpt><trkpt lat="42.289062336085294" lon="3.274067409394229"><ele>8.0</ele><time>2026-04-22T12:10:37Z</time></trkpt><trkpt lat="42.28904812546823" lon="3.2739840357944243"><ele>7.999999999999999</ele><time>2026-04-22T12:10:43Z</time></trkpt><trkpt lat="42.2889919270825" lon="3.273945649572732"><ele>8.0</ele><time>2026-04-22T12:10:49Z</time></trkpt><trkpt lat="42.28896459557212" lon="3.273860978806793"><ele>8.0</ele><time>2026-04-22T12:10:56Z</time></trkpt><trkpt lat="42.28890404126099" lon="3.27389740590986"><ele>7.999999999999999</ele><time>2026-04-22T12:11:10Z</time></trkpt><trkpt lat="42.2888724436744" lon="3.273818757309793"><ele>8.0</ele><time>2026-04-22T12:11:21Z</time></trkpt><trkpt lat="42.28893727434718" lon="3.2738213755849848"><ele>8.0</ele><time>2026-04-22T12:12:20Z</time></trkpt><trkpt lat="42.28895776868883" lon="3.273908764534815"><ele>8.0</ele><time>2026-04-22T12:12:26Z</time></trkpt><trkpt lat="42.28901554866171" lon="3.2739594036868276"><ele>7.999999999999999</ele><time>2026-04-22T12:12:33Z</time></trkpt><trkpt lat="42.28906054314162" lon="3.2738871308266817"><ele>8.0</ele><time>2026-04-22T12:12:41Z</time></trkpt><trkpt lat="42.28908928368535" lon="3.273808783953397"><ele>8.0</ele><time>2026-04-22T12:12:47Z</time></trkpt><trkpt lat="42.28910271093765" lon="3.273713726702326"><ele>7.999999999999999</ele><time>2026-04-22T12:12:54Z</time></trkpt><trkpt lat="42.28910397797086" lon="3.2736243723771974"><ele>8.0</ele><time>2026-04-22T12:13:01Z</time></trkpt><trkpt lat="42.28912862589606" lon="3.273545353235555"><ele>8.0</ele><time>2026-04-22T12:13:07Z</time></trkpt><trkpt lat="42.28913869216931" lon="3.273453026570181"><ele>8.428571428571429</ele><time>2026-04-22T12:13:14Z</time></trkpt><trkpt lat="42.289142591039024" lon="3.273356632960484"><ele>8.857142857142856</ele><time>2026-04-22T12:13:20Z</time></trkpt><trkpt lat="42.28915766491932" lon="3.2732718335658713"><ele>9.285714285714285</ele><time>2026-04-22T12:13:26Z</time></trkpt><trkpt lat="42.289182261487085" lon="3.2731804849791946"><ele>9.714285714285714</ele><time>2026-04-22T12:13:32Z</time></trkpt><trkpt lat="42.28923540677291" lon="3.2731225845949403"><ele>10.142857142857142</ele><time>2026-04-22T12:13:41Z</time></trkpt><trkpt lat="42.289264157719614" lon="3.2730381262455355"><ele>10.571428571428571</ele><time>2026-04-22T12:13:47Z</time></trkpt><trkpt lat="42.28930758037455" lon="3.2729567877756893"><ele>11.0</ele><time>2026-04-22T12:13:56Z</time></trkpt><trkpt lat="42.28933021839743" lon="3.2728727853875523"><ele>11.142857142857142</ele><time>2026-04-22T12:14:04Z</time></trkpt><trkpt lat="42.289395343362315" lon="3.2728358281975067"><ele>11.285714285714285</ele><time>2026-04-22T12:14:09Z</time></trkpt><trkpt lat="42.28945956277663" lon="3.2727766951153354"><ele>11.428571428571427</ele><time>2026-04-22T12:14:16Z</time></trkpt><trkpt lat="42.28951890330123" lon="3.272731172567579"><ele>11.571428571428571</ele><time>2026-04-22T12:14:23Z</time></trkpt><trkpt lat="42.28957161002949" lon="3.272636458176987"><ele>11.714285714285714</ele><time>2026-04-22T12:14:30Z</time></trkpt><trkpt lat="42.28952598175672" lon="3.272570490801674"><ele>11.857142857142856</ele><time>2026-04-22T12:14:36Z</time></trkpt><trkpt lat="42.28949488516822" lon="3.272481605147866"><ele>12.0</ele><time>2026-04-22T12:14:44Z</time></trkpt><trkpt lat="42.28944824586372" lon="3.272421842749226"><ele>11.999999999999998</ele><time>2026-04-22T12:14:50Z</time></trkpt><trkpt lat="42.289413384905" lon="3.2723321451687597"><ele>12.0</ele><time>2026-04-22T12:14:59Z</time></trkpt><trkpt lat="42.28937556633462" lon="3.272248794487148"><ele>12.0</ele><time>2026-04-22T12:15:08Z</time></trkpt><trkpt lat="42.289312664555816" lon="3.2721830515544985"><ele>12.0</ele><time>2026-04-22T12:15:15Z</time></trkpt><trkpt lat="42.28925682345984" lon="3.2721406593730102"><ele>12.0</ele><time>2026-04-22T12:15:22Z</time></trkpt><trkpt lat="42.28922007322957" lon="3.2720565395803347"><ele>11.999999999999998</ele><time>2026-04-22T12:15:30Z</time></trkpt><trkpt lat="42.28918711678991" lon="3.2719781972320665"><ele>12.0</ele><time>2026-04-22T12:15:37Z</time></trkpt><trkpt lat="42.28914884560786" lon="3.2719074046305554"><ele>12.428571428571427</ele><time>2026-04-22T12:15:44Z</time></trkpt><trkpt lat="42.28909946698742" lon="3.2718459722676663"><ele>12.857142857142858</ele><time>2026-04-22T12:15:51Z</time></trkpt><trkpt lat="42.2890549694447" lon="3.2717817925893855"><ele>13.285714285714285</ele><time>2026-04-22T12:15:59Z</time></trkpt><trkpt lat="42.28902034411182" lon="3.271704837157258"><ele>13.714285714285714</ele><time>2026-04-22T12:16:06Z</time></trkpt><trkpt lat="42.2889768525546" lon="3.271640645488821"><ele>14.142857142857142</ele><time>2026-04-22T12:16:14Z</time></trkpt><trkpt lat="42.28894219453733" lon="3.2715613703585587"><ele>14.571428571428571</ele><time>2026-04-22T12:16:21Z</time></trkpt><trkpt lat="42.288890258548314" lon="3.2714923842183867"><ele>15.0</ele><time>2026-04-22T12:16:31Z</time></trkpt><trkpt lat="42.28885402362361" lon="3.2714153362584497"><ele>15.0</ele><time>2026-04-22T12:16:37Z</time></trkpt><trkpt lat="42.2887999768432" lon="3.271361096042394"><ele>15.0</ele><time>2026-04-22T12:16:45Z</time></trkpt><trkpt lat="42.28877870245601" lon="3.2712796585329778"><ele>15.0</ele><time>2026-04-22T12:17:49Z</time></trkpt><trkpt lat="42.28871675435036" lon="3.271238472812782"><ele>15.0</ele><time>2026-04-22T12:18:22Z</time></trkpt><trkpt lat="42.28867554451866" lon="3.271172027206213"><ele>15.0</ele><time>2026-04-22T12:18:24Z</time></trkpt><trkpt lat="42.28862694648898" lon="3.271089328161772"><ele>15.0</ele><time>2026-04-22T12:18:27Z</time></trkpt><trkpt lat="42.288558554299705" lon="3.2710569411465378"><ele>15.0</ele><time>2026-04-22T12:18:30Z</time></trkpt><trkpt lat="42.28852025503246" lon="3.2711617700703"><ele>15.0</ele><time>2026-04-22T12:18:34Z</time></trkpt><trkpt lat="42.28854914797912" lon="3.2712731511051087"><ele>15.0</ele><time>2026-04-22T12:18:37Z</time></trkpt><trkpt lat="42.28860828841032" lon="3.271352195674587"><ele>15.0</ele><time>2026-04-22T12:18:40Z</time></trkpt><trkpt lat="42.288667456449836" lon="3.2714359650299887"><ele>15.0</ele><time>2026-04-22T12:18:43Z</time></trkpt><trkpt lat="42.28872733100533" lon="3.271514337504487"><ele>15.0</ele><time>2026-04-22T12:18:46Z</time></trkpt><trkpt lat="42.288791386531955" lon="3.2715992385771075"><ele>15.0</ele><time>2026-04-22T12:18:49Z</time></trkpt><trkpt lat="42.28885916495576" lon="3.2716869288828545"><ele>15.714285714285715</ele><time>2026-04-22T12:18:52Z</time></trkpt><trkpt lat="42.28892983088376" lon="3.2717724568365716"><ele>16.428571428571427</ele><time>2026-04-22T12:18:55Z</time></trkpt><trkpt lat="42.28897877433662" lon="3.271836471203197"><ele>17.142857142857142</ele><time>2026-04-22T12:18:57Z</time></trkpt><trkpt lat="42.28902452273213" lon="3.2719016328178907"><ele>17.857142857142858</ele><time>2026-04-22T12:18:59Z</time></trkpt><trkpt lat="42.289067066688226" lon="3.2719705734817954"><ele>18.571428571428573</ele><time>2026-04-22T12:19:01Z</time></trkpt><trkpt lat="42.28910768908323" lon="3.2720473804554144"><ele>19.285714285714285</ele><time>2026-04-22T12:19:03Z</time></trkpt><trkpt lat="42.28914537143919" lon="3.272125493036446"><ele>20.0</ele><time>2026-04-22T12:19:05Z</time></trkpt><trkpt lat="42.28917952215032" lon="3.2722013614544774"><ele>18.857142857142858</ele><time>2026-04-22T12:19:07Z</time></trkpt><trkpt lat="42.2892138098291" lon="3.2722740430688724"><ele>17.714285714285715</ele><time>2026-04-22T12:19:09Z</time></trkpt><trkpt lat="42.28929657267876" lon="3.272290844265908"><ele>16.57142857142857</ele><time>2026-04-22T12:19:12Z</time></trkpt><trkpt lat="42.289375675020935" lon="3.2723010198547353"><ele>15.428571428571427</ele><time>2026-04-22T12:19:15Z</time></trkpt><trkpt lat="42.2894271398419" lon="3.272368609729473"><ele>14.285714285714285</ele><time>2026-04-22T12:19:17Z</time></trkpt><trkpt lat="42.28945871187371" lon="3.272460281452836"><ele>13.142857142857142</ele><time>2026-04-22T12:19:19Z</time></trkpt><trkpt lat="42.289494398901205" lon="3.2725395052286115"><ele>12.0</ele><time>2026-04-22T12:19:21Z</time></trkpt><trkpt lat="42.28953037179719" lon="3.272611541044572"><ele>12.0</ele><time>2026-04-22T12:19:23Z</time></trkpt><trkpt lat="42.289545104886926" lon="3.2727237620352128"><ele>12.0</ele><time>2026-04-22T12:19:26Z</time></trkpt><trkpt lat="42.2894666728208" lon="3.272787285521275"><ele>12.0</ele><time>2026-04-22T12:19:28Z</time></trkpt><trkpt lat="42.28939480512287" lon="3.272842202948633"><ele>12.0</ele><time>2026-04-22T12:19:30Z</time></trkpt><trkpt lat="42.289345070327826" lon="3.2728969010014484"><ele>12.0</ele><time>2026-04-22T12:19:32Z</time></trkpt><trkpt lat="42.2892793551427" lon="3.272971108200267"><ele>12.0</ele><time>2026-04-22T12:19:35Z</time></trkpt><trkpt lat="42.289236676261275" lon="3.273036019564367"><ele>11.857142857142856</ele><time>2026-04-22T12:19:37Z</time></trkpt><trkpt lat="42.2892004177089" lon="3.273127807616777"><ele>11.714285714285714</ele><time>2026-04-22T12:19:39Z</time></trkpt><trkpt lat="42.28916539096766" lon="3.273224263943974"><ele>11.571428571428571</ele><time>2026-04-22T12:19:41Z</time></trkpt><trkpt lat="42.28913783507543" lon="3.2733209473229103"><ele>11.428571428571427</ele><time>2026-04-22T12:19:43Z</time></trkpt><trkpt lat="42.28911596148405" lon="3.273404247745094"><ele>11.285714285714285</ele><time>2026-04-22T12:19:45Z</time></trkpt><trkpt lat="42.28908895646864" lon="3.2734931155873026"><ele>11.142857142857142</ele><time>2026-04-22T12:19:47Z</time></trkpt><trkpt lat="42.289055644622145" lon="3.273577056717621"><ele>11.0</ele><time>2026-04-22T12:19:49Z</time></trkpt><trkpt lat="42.289010517714466" lon="3.2736774488704046"><ele>11.0</ele><time>2026-04-22T12:19:52Z</time></trkpt><trkpt lat="42.288966185040124" lon="3.2737808193465914"><ele>11.0</ele><time>2026-04-22T12:19:55Z</time></trkpt><trkpt lat="42.28894524022723" lon="3.273890016965086"><ele>11.0</ele><time>2026-04-22T12:19:58Z</time></trkpt><trkpt lat="42.28893324790073" lon="3.273974340440596"><ele>11.0</ele><time>2026-04-22T12:20:04Z</time></trkpt><trkpt lat="42.28891162691613" lon="3.2740788549250017"><ele>11.0</ele><time>2026-04-22T12:20:34Z</time></trkpt><trkpt lat="42.288894167880784" lon="3.2741780912113714"><ele>11.0</ele><time>2026-04-22T12:20:37Z</time></trkpt><trkpt lat="42.288885573417545" lon="3.2742772870949484"><ele>10.4</ele><time>2026-04-22T12:20:42Z</time></trkpt><trkpt lat="42.28895405555872" lon="3.2743158882650873"><ele>9.8</ele><time>2026-04-22T12:20:45Z</time></trkpt><trkpt lat="42.289069883071164" lon="3.274305185120434"><ele>9.200000000000001</ele><time>2026-04-22T12:20:47Z</time></trkpt><trkpt lat="42.289176255107456" lon="3.274292842466109"><ele>8.600000000000001</ele><time>2026-04-22T12:20:49Z</time></trkpt><trkpt lat="42.28927836947088" lon="3.274287283243644"><ele>8.0</ele><time>2026-04-22T12:20:51Z</time></trkpt><trkpt lat="42.28936801194583" lon="3.2742933497896862"><ele>8.0</ele><time>2026-04-22T12:20:53Z</time></trkpt><trkpt lat="42.28946307107851" lon="3.2742966043560022"><ele>8.0</ele><time>2026-04-22T12:20:55Z</time></trkpt><trkpt lat="42.28956157481559" lon="3.274300917764559"><ele>8.0</ele><time>2026-04-22T12:20:57Z</time></trkpt><trkpt lat="42.289656047375395" lon="3.274307217214251"><ele>8.0</ele><time>2026-04-22T12:20:59Z</time></trkpt><trkpt lat="42.28975049458667" lon="3.274308072894693"><ele>8.0</ele><time>2026-04-22T12:21:01Z</time></trkpt><trkpt lat="42.28983702260642" lon="3.274295415156438"><ele>8.0</ele><time>2026-04-22T12:21:03Z</time></trkpt><trkpt lat="42.289920630325014" lon="3.2742703264995847"><ele>8.0</ele><time>2026-04-22T12:21:05Z</time></trkpt><trkpt lat="42.28999687151365" lon="3.27423641259669"><ele>8.0</ele><time>2026-04-22T12:21:07Z</time></trkpt><trkpt lat="42.29006791421802" lon="3.2741427367081424"><ele>8.0</ele><time>2026-04-22T12:21:09Z</time></trkpt><trkpt lat="42.290158078219086" lon="3.2740538900498315"><ele>8.0</ele><time>2026-04-22T12:21:11Z</time></trkpt><trkpt lat="42.29024921043962" lon="3.2739997464059267"><ele>7.999999999999999</ele><time>2026-04-22T12:21:13Z</time></trkpt><trkpt lat="42.29031891692506" lon="3.2739511338633314"><ele>8.0</ele><time>2026-04-22T12:21:15Z</time></trkpt><trkpt lat="42.29034288104919" lon="3.273836477990406"><ele>8.0</ele><time>2026-04-22T12:21:17Z</time></trkpt><trkpt lat="42.290350731501775" lon="3.2736889435163774"><ele>8.0</ele><time>2026-04-22T12:21:19Z</time></trkpt><trkpt lat="42.29038372596379" lon="3.273615243355877"><ele>7.999999999999999</ele><time>2026-04-22T12:21:20Z</time></trkpt><trkpt lat="42.29042832089264" lon="3.2735448896707426"><ele>8.0</ele><time>2026-04-22T12:21:21Z</time></trkpt><trkpt lat="42.2904775901221" lon="3.2734656335369907"><ele>7.833333333333333</ele><time>2026-04-22T12:21:22Z</time></trkpt><trkpt lat="42.290531747951555" lon="3.2733751973605227"><ele>7.666666666666666</ele><time>2026-04-22T12:21:23Z</time></trkpt><trkpt lat="42.29058143474907" lon="3.2732884495640877"><ele>7.5</ele><time>2026-04-22T12:21:24Z</time></trkpt><trkpt lat="42.290632756019725" lon="3.2731991312499527"><ele>7.333333333333334</ele><time>2026-04-22T12:21:25Z</time></trkpt><trkpt lat="42.29068942689808" lon="3.2731041168977892"><ele>7.166666666666667</ele><time>2026-04-22T12:21:26Z</time></trkpt><trkpt lat="42.29074539274439" lon="3.2730148696461003"><ele>7.0</ele><time>2026-04-22T12:21:27Z</time></trkpt><trkpt lat="42.29079853195309" lon="3.2729301980386234"><ele>9.428571428571429</ele><time>2026-04-22T12:21:28Z</time></trkpt><trkpt lat="42.29084599740297" lon="3.2728505650686244"><ele>11.857142857142858</ele><time>2026-04-22T12:21:29Z</time></trkpt><trkpt lat="42.290880710550695" lon="3.2727568902893687"><ele>14.285714285714285</ele><time>2026-04-22T12:21:30Z</time></trkpt><trkpt lat="42.29089530586524" lon="3.272656208476588"><ele>16.714285714285715</ele><time>2026-04-22T12:21:31Z</time></trkpt><trkpt lat="42.29089286386887" lon="3.2725580940010985"><ele>19.142857142857142</ele><time>2026-04-22T12:21:32Z</time></trkpt><trkpt lat="42.29086537270904" lon="3.2724657608919454"><ele>21.57142857142857</ele><time>2026-04-22T12:21:33Z</time></trkpt><trkpt lat="42.29081912576087" lon="3.2723908718245864"><ele>24.0</ele><time>2026-04-22T12:21:34Z</time></trkpt><trkpt lat="42.29076057750293" lon="3.2723378002552113"><ele>24.0</ele><time>2026-04-22T12:21:35Z</time></trkpt><trkpt lat="42.290690369350855" lon="3.272309197254741"><ele>24.0</ele><time>2026-04-22T12:21:36Z</time></trkpt><trkpt lat="42.29060845321039" lon="3.27231176287496"><ele>24.0</ele><time>2026-04-22T12:21:37Z</time></trkpt><trkpt lat="42.290522924504934" lon="3.2723210928051647"><ele>24.0</ele><time>2026-04-22T12:21:38Z</time></trkpt><trkpt lat="42.29043411687859" lon="3.2723290652861485"><ele>24.0</ele><time>2026-04-22T12:21:39Z</time></trkpt><trkpt lat="42.29035273182517" lon="3.2723373651654466"><ele>24.0</ele><time>2026-04-22T12:21:40Z</time></trkpt><trkpt lat="42.29027526607006" lon="3.272329246423468"><ele>22.166666666666668</ele><time>2026-04-22T12:21:41Z</time></trkpt><trkpt lat="42.29020158981538" lon="3.272299687989706"><ele>20.333333333333332</ele><time>2026-04-22T12:21:42Z</time></trkpt><trkpt lat="42.29013231134044" lon="3.2722531069685363"><ele>18.5</ele><time>2026-04-22T12:21:43Z</time></trkpt><trkpt lat="42.29006397896902" lon="3.2721950538945377"><ele>16.666666666666664</ele><time>2026-04-22T12:21:44Z</time></trkpt><trkpt lat="42.28999576208037" lon="3.272129255112206"><ele>14.833333333333332</ele><time>2026-04-22T12:21:45Z</time></trkpt><trkpt lat="42.28992108440069" lon="3.2720642306625614"><ele>13.0</ele><time>2026-04-22T12:21:46Z</time></trkpt><trkpt lat="42.289840001892905" lon="3.2719961490326694"><ele>14.4</ele><time>2026-04-22T12:21:47Z</time></trkpt><trkpt lat="42.28975814194485" lon="3.2719279234116816"><ele>15.8</ele><time>2026-04-22T12:21:48Z</time></trkpt><trkpt lat="42.2896763828092" lon="3.271860450349043"><ele>17.2</ele><time>2026-04-22T12:21:49Z</time></trkpt><trkpt lat="42.289596325895864" lon="3.271790916370892"><ele>18.6</ele><time>2026-04-22T12:21:50Z</time></trkpt><trkpt lat="42.28951662780331" lon="3.2717235944820096"><ele>20.0</ele><time>2026-04-22T12:21:51Z</time></trkpt><trkpt lat="42.28943914334688" lon="3.2716598691807444"><ele>20.0</ele><time>2026-04-22T12:21:52Z</time></trkpt><trkpt lat="42.28936695207296" lon="3.2715969440545227"><ele>20.0</ele><time>2026-04-22T12:21:53Z</time></trkpt><trkpt lat="42.28929773355645" lon="3.271524604188736"><ele>20.0</ele><time>2026-04-22T12:21:54Z</time></trkpt><trkpt lat="42.28923779369227" lon="3.2714398230760833"><ele>20.0</ele><time>2026-04-22T12:21:55Z</time></trkpt><trkpt lat="42.289187346002684" lon="3.271338802238257"><ele>20.0</ele><time>2026-04-22T12:21:56Z</time></trkpt><trkpt lat="42.28914596923655" lon="3.2712236055513504"><ele>20.0</ele><time>2026-04-22T12:21:57Z</time></trkpt><trkpt lat="42.28910779283039" lon="3.2710998854474704"><ele>22.4</ele><time>2026-04-22T12:21:58Z</time></trkpt><trkpt lat="42.2890706225249" lon="3.270970961274423"><ele>24.8</ele><time>2026-04-22T12:21:59Z</time></trkpt><trkpt lat="42.28903744262609" lon="3.2708331761309735"><ele>27.200000000000003</ele><time>2026-04-22T12:22:00Z</time></trkpt><trkpt lat="42.2890029166078" lon="3.270689855749507"><ele>29.6</ele><time>2026-04-22T12:22:01Z</time></trkpt><trkpt lat="42.28896851216775" lon="3.2705512894261863"><ele>32.0</ele><time>2026-04-22T12:22:02Z</time></trkpt><trkpt lat="42.288945326455554" lon="3.2704165791347357"><ele>32.0</ele><time>2026-04-22T12:22:03Z</time></trkpt><trkpt lat="42.28894212835169" lon="3.270285789519603"><ele>32.0</ele><time>2026-04-22T12:22:04Z</time></trkpt><trkpt lat="42.28895965313666" lon="3.2701555228505788"><ele>32.0</ele><time>2026-04-22T12:22:05Z</time></trkpt><trkpt lat="42.28899295361862" lon="3.270036087344472"><ele>32.0</ele><time>2026-04-22T12:22:06Z</time></trkpt><trkpt lat="42.28904631537378" lon="3.2699368836057836"><ele>32.0</ele><time>2026-04-22T12:22:07Z</time></trkpt><trkpt lat="42.289116184926364" lon="3.269875385318665"><ele>32.0</ele><time>2026-04-22T12:22:08Z</time></trkpt><trkpt lat="42.28919880162334" lon="3.2698414075741757"><ele>32.0</ele><time>2026-04-22T12:22:09Z</time></trkpt><trkpt lat="42.28928576519242" lon="3.269829035762233"><ele>32.0</ele><time>2026-04-22T12:22:10Z</time></trkpt><trkpt lat="42.28937792088092" lon="3.26985520644637"><ele>32.0</ele><time>2026-04-22T12:22:11Z</time></trkpt><trkpt lat="42.289479957725895" lon="3.269843966308448"><ele>32.0</ele><time>2026-04-22T12:22:12Z</time></trkpt><trkpt lat="42.289583825711624" lon="3.269857203048966"><ele>32.0</ele><time>2026-04-22T12:22:13Z</time></trkpt><trkpt lat="42.289691729498216" lon="3.269884052828804"><ele>32.0</ele><time>2026-04-22T12:22:14Z</time></trkpt><trkpt lat="42.28980783863592" lon="3.2698967750372865"><ele>32.0</ele><time>2026-04-22T12:22:15Z</time></trkpt><trkpt lat="42.28992735295715" lon="3.269907831648205"><ele>32.0</ele><time>2026-04-22T12:22:16Z</time></trkpt><trkpt lat="42.29004087544625" lon="3.2699183856739644"><ele>34.6</ele><time>2026-04-22T12:22:17Z</time></trkpt><trkpt lat="42.290149312941836" lon="3.2699278077844016"><ele>37.2</ele><time>2026-04-22T12:22:18Z</time></trkpt><trkpt lat="42.290252055171415" lon="3.2699373240699656"><ele>39.8</ele><time>2026-04-22T12:22:19Z</time></trkpt><trkpt lat="42.290354410574786" lon="3.269955007927464"><ele>42.4</ele><time>2026-04-22T12:22:20Z</time></trkpt><trkpt lat="42.29045696751493" lon="3.269988557987257"><ele>45.0</ele><time>2026-04-22T12:22:21Z</time></trkpt><trkpt lat="42.29055418949324" lon="3.2700367997699837"><ele>45.8</ele><time>2026-04-22T12:22:22Z</time></trkpt><trkpt lat="42.29064693747646" lon="3.2700997805347876"><ele>46.6</ele><time>2026-04-22T12:22:23Z</time></trkpt><trkpt lat="42.29073741985742" lon="3.2701697340822546"><ele>47.400000000000006</ele><time>2026-04-22T12:22:24Z</time></trkpt><trkpt lat="42.29082690004782" lon="3.2702388847995536"><ele>48.2</ele><time>2026-04-22T12:22:25Z</time></trkpt><trkpt lat="42.29091802399157" lon="3.270298290767742"><ele>49.0</ele><time>2026-04-22T12:22:26Z</time></trkpt><trkpt lat="42.29101438006355" lon="3.270337276764527"><ele>49.0</ele><time>2026-04-22T12:22:27Z</time></trkpt><trkpt lat="42.291117577497" lon="3.2703505585727037"><ele>49.0</ele><time>2026-04-22T12:22:28Z</time></trkpt><trkpt lat="42.29122548339336" lon="3.2703440481435955"><ele>49.0</ele><time>2026-04-22T12:22:29Z</time></trkpt><trkpt lat="42.29133120214182" lon="3.270313046271213"><ele>49.0</ele><time>2026-04-22T12:22:30Z</time></trkpt><trkpt lat="42.291439788198396" lon="3.2702763554103544"><ele>49.0</ele><time>2026-04-22T12:22:31Z</time></trkpt><trkpt lat="42.2915503633269" lon="3.270248240977333"><ele>49.75</ele><time>2026-04-22T12:22:32Z</time></trkpt><trkpt lat="42.29166419224782" lon="3.270234389958913"><ele>50.5</ele><time>2026-04-22T12:22:33Z</time></trkpt><trkpt lat="42.29178355812857" lon="3.2702267982335282"><ele>51.25</ele><time>2026-04-22T12:22:34Z</time></trkpt><trkpt lat="42.29189999132083" lon="3.2702168137643395"><ele>52.0</ele><time>2026-04-22T12:22:35Z</time></trkpt><trkpt lat="42.29201001235348" lon="3.270204640009743"><ele>52.0</ele><time>2026-04-22T12:22:36Z</time></trkpt><trkpt lat="42.29211311976314" lon="3.2701849126096754"><ele>52.0</ele><time>2026-04-22T12:22:37Z</time></trkpt><trkpt lat="42.29221060323137" lon="3.270136655453868"><ele>52.0</ele><time>2026-04-22T12:22:38Z</time></trkpt><trkpt lat="42.292297727190004" lon="3.2700549695316816"><ele>52.0</ele><time>2026-04-22T12:22:39Z</time></trkpt><trkpt lat="42.292381084607754" lon="3.2699498966697793"><ele>52.0</ele><time>2026-04-22T12:22:40Z</time></trkpt><trkpt lat="42.2924763378019" lon="3.2698689921059847"><ele>53.400000000000006</ele><time>2026-04-22T12:22:41Z</time></trkpt><trkpt lat="42.292574198605756" lon="3.26983253481916"><ele>54.800000000000004</ele><time>2026-04-22T12:22:42Z</time></trkpt><trkpt lat="42.292669135613224" lon="3.26981452926766"><ele>56.2</ele><time>2026-04-22T12:22:43Z</time></trkpt><trkpt lat="42.292761146881496" lon="3.269791093870677"><ele>57.6</ele><time>2026-04-22T12:22:44Z</time></trkpt><trkpt lat="42.29284123809813" lon="3.2697472137821664"><ele>59.0</ele><time>2026-04-22T12:22:45Z</time></trkpt><trkpt lat="42.29290556635348" lon="3.2696657113185066"><ele>59.0</ele><time>2026-04-22T12:22:46Z</time></trkpt><trkpt lat="42.29293138732701" lon="3.269554044168699"><ele>59.00000000000001</ele><time>2026-04-22T12:22:47Z</time></trkpt><trkpt lat="42.29291619898198" lon="3.269434479080658"><ele>59.00000000000001</ele><time>2026-04-22T12:22:48Z</time></trkpt><trkpt lat="42.29287247112313" lon="3.269321545862273"><ele>59.0</ele><time>2026-04-22T12:22:49Z</time></trkpt><trkpt lat="42.292825098252806" lon="3.269209807428236"><ele>59.0</ele><time>2026-04-22T12:22:50Z</time></trkpt><trkpt lat="42.29277819123013" lon="3.269088960836094"><ele>59.0</ele><time>2026-04-22T12:22:51Z</time></trkpt><trkpt lat="42.292732771743005" lon="3.268968365656513"><ele>59.00000000000001</ele><time>2026-04-22T12:22:52Z</time></trkpt><trkpt lat="42.292702257594264" lon="3.268841326768853"><ele>59.00000000000001</ele><time>2026-04-22T12:22:53Z</time></trkpt><trkpt lat="42.292690002379615" lon="3.268702400698434"><ele>59.0</ele><time>2026-04-22T12:22:54Z</time></trkpt><trkpt lat="42.29269354783837" lon="3.268561084963829"><ele>59.0</ele><time>2026-04-22T12:22:55Z</time></trkpt><trkpt lat="42.292694076487024" lon="3.2684150961861507"><ele>60.75</ele><time>2026-04-22T12:22:56Z</time></trkpt><trkpt lat="42.292691782031895" lon="3.268262199274171"><ele>62.5</ele><time>2026-04-22T12:22:57Z</time></trkpt><trkpt lat="42.29269234695645" lon="3.268102251841947"><ele>64.25</ele><time>2026-04-22T12:22:58Z</time></trkpt><trkpt lat="42.29269497510359" lon="3.2679350317836438"><ele>66.0</ele><time>2026-04-22T12:22:59Z</time></trkpt><trkpt lat="42.292695348056114" lon="3.267763284255761"><ele>67.5</ele><time>2026-04-22T12:23:00Z</time></trkpt><trkpt lat="42.292693985909544" lon="3.267586640772266"><ele>69.0</ele><time>2026-04-22T12:23:01Z</time></trkpt><trkpt lat="42.29269397999225" lon="3.2674247694358187"><ele>70.5</ele><time>2026-04-22T12:23:02Z</time></trkpt><trkpt lat="42.29269738881071" lon="3.267262566706353"><ele>72.0</ele><time>2026-04-22T12:23:03Z</time></trkpt><trkpt lat="42.29269081510973" lon="3.267099889022579"><ele>74.75</ele><time>2026-04-22T12:23:04Z</time></trkpt><trkpt lat="42.292663621969766" lon="3.26694531334332"><ele>77.5</ele><time>2026-04-22T12:23:05Z</time></trkpt><trkpt lat="42.292620798614905" lon="3.266799405137918"><ele>80.25</ele><time>2026-04-22T12:23:06Z</time></trkpt><trkpt lat="42.29256069116022" lon="3.266665776435219"><ele>83.0</ele><time>2026-04-22T12:23:07Z</time></trkpt><trkpt lat="42.292498067202736" lon="3.2665368011433955"><ele>83.4</ele><time>2026-04-22T12:23:08Z</time></trkpt><trkpt lat="42.29244172564443" lon="3.2664044516551236"><ele>83.80000000000001</ele><time>2026-04-22T12:23:09Z</time></trkpt><trkpt lat="42.29240534830762" lon="3.266263446922528"><ele>84.2</ele><time>2026-04-22T12:23:10Z</time></trkpt><trkpt lat="42.29239946877488" lon="3.2661186843178824"><ele>84.6</ele><time>2026-04-22T12:23:11Z</time></trkpt><trkpt lat="42.29242433026416" lon="3.265979258783961"><ele>85.0</ele><time>2026-04-22T12:23:12Z</time></trkpt><trkpt lat="42.29246457207793" lon="3.2658437689228124"><ele>85.0</ele><time>2026-04-22T12:23:13Z</time></trkpt><trkpt lat="42.292502347631626" lon="3.265705591407285"><ele>85.0</ele><time>2026-04-22T12:23:14Z</time></trkpt><trkpt lat="42.292540406431606" lon="3.26556679129729"><ele>85.0</ele><time>2026-04-22T12:23:15Z</time></trkpt><trkpt lat="42.29258874927845" lon="3.2654381470797"><ele>85.0</ele><time>2026-04-22T12:23:16Z</time></trkpt><trkpt lat="42.29265582121228" lon="3.2653269868251904"><ele>85.0</ele><time>2026-04-22T12:23:17Z</time></trkpt><trkpt lat="42.29273793044846" lon="3.265233612266789"><ele>84.2</ele><time>2026-04-22T12:23:18Z</time></trkpt><trkpt lat="42.29282450346568" lon="3.265144450211187"><ele>83.4</ele><time>2026-04-22T12:23:19Z</time></trkpt><trkpt lat="42.29290468253922" lon="3.2650455132090035"><ele>82.6</ele><time>2026-04-22T12:23:20Z</time></trkpt><trkpt lat="42.29296803113383" lon="3.264929758777098"><ele>81.8</ele><time>2026-04-22T12:23:21Z</time></trkpt><trkpt lat="42.29301148563714" lon="3.264799803128647"><ele>81.0</ele><time>2026-04-22T12:23:22Z</time></trkpt><trkpt lat="42.2930520791944" lon="3.264670535151833"><ele>81.0</ele><time>2026-04-22T12:23:23Z</time></trkpt><trkpt lat="42.29308475461857" lon="3.264542862884618"><ele>81.0</ele><time>2026-04-22T12:23:24Z</time></trkpt><trkpt lat="42.29309062743611" lon="3.2644192456821064"><ele>81.0</ele><time>2026-04-22T12:23:25Z</time></trkpt><trkpt lat="42.29305924320195" lon="3.2643002520937636"><ele>81.0</ele><time>2026-04-22T12:23:26Z</time></trkpt><trkpt lat="42.29299681404051" lon="3.264196313303416"><ele>81.0</ele><time>2026-04-22T12:23:27Z</time></trkpt><trkpt lat="42.29294125315393" lon="3.2640875155589835"><ele>81.0</ele><time>2026-04-22T12:23:28Z</time></trkpt><trkpt lat="42.292896675375935" lon="3.2639676450649993"><ele>81.0</ele><time>2026-04-22T12:23:29Z</time></trkpt><trkpt lat="42.292857117041855" lon="3.2638386552186547"><ele>81.0</ele><time>2026-04-22T12:23:30Z</time></trkpt><trkpt lat="42.2928363507558" lon="3.2637022638665765"><ele>81.0</ele><time>2026-04-22T12:23:31Z</time></trkpt><trkpt lat="42.292840873967506" lon="3.2635621998326867"><ele>81.0</ele><time>2026-04-22T12:23:32Z</time></trkpt><trkpt lat="42.2928546869237" lon="3.2634211482739586"><ele>81.0</ele><time>2026-04-22T12:23:33Z</time></trkpt><trkpt lat="42.29286537633338" lon="3.2632751330719896"><ele>81.0</ele><time>2026-04-22T12:23:34Z</time></trkpt><trkpt lat="42.2928847655484" lon="3.2631383485595618"><ele>81.0</ele><time>2026-04-22T12:23:35Z</time></trkpt><trkpt lat="42.29292404871493" lon="3.2630177651454755"><ele>81.0</ele><time>2026-04-22T12:23:36Z</time></trkpt><trkpt lat="42.292987081462954" lon="3.262917133253657"><ele>81.0</ele><time>2026-04-22T12:23:37Z</time></trkpt><trkpt lat="42.29306388826991" lon="3.262829596982055"><ele>85.0</ele><time>2026-04-22T12:23:38Z</time></trkpt><trkpt lat="42.293143151193505" lon="3.262746094943134"><ele>89.0</ele><time>2026-04-22T12:23:39Z</time></trkpt><trkpt lat="42.29323253920296" lon="3.262676165883604"><ele>93.0</ele><time>2026-04-22T12:23:40Z</time></trkpt><trkpt lat="42.2933302638782" lon="3.2626193493785545"><ele>97.0</ele><time>2026-04-22T12:23:41Z</time></trkpt><trkpt lat="42.29343136977013" lon="3.2625706667021737"><ele>101.0</ele><time>2026-04-22T12:23:42Z</time></trkpt><trkpt lat="42.29353370889652" lon="3.2625203370911837"><ele>101.0</ele><time>2026-04-22T12:23:43Z</time></trkpt><trkpt lat="42.293637286787174" lon="3.2624669194876006"><ele>101.0</ele><time>2026-04-22T12:23:44Z</time></trkpt><trkpt lat="42.29374120658487" lon="3.2624121106868023"><ele>101.0</ele><time>2026-04-22T12:23:45Z</time></trkpt><trkpt lat="42.29384129047861" lon="3.26235996363447"><ele>101.0</ele><time>2026-04-22T12:23:46Z</time></trkpt><trkpt lat="42.293936686693975" lon="3.262313566973858"><ele>101.0</ele><time>2026-04-22T12:23:47Z</time></trkpt><trkpt lat="42.29402722165652" lon="3.2622693817457997"><ele>103.66666666666666</ele><time>2026-04-22T12:23:48Z</time></trkpt><trkpt lat="42.2941119716123" lon="3.262223058346909"><ele>106.33333333333333</ele><time>2026-04-22T12:23:49Z</time></trkpt><trkpt lat="42.29417800628156" lon="3.262154555205535"><ele>109.0</ele><time>2026-04-22T12:23:50Z</time></trkpt><trkpt lat="42.294211470810346" lon="3.262061954953413"><ele>111.66666666666666</ele><time>2026-04-22T12:23:51Z</time></trkpt><trkpt lat="42.29421549028451" lon="3.2619600583814585"><ele>114.33333333333333</ele><time>2026-04-22T12:23:52Z</time></trkpt><trkpt lat="42.29419826838862" lon="3.261857875963349"><ele>117.0</ele><time>2026-04-22T12:23:53Z</time></trkpt><trkpt lat="42.29414903395346" lon="3.261773080128823"><ele>117.0</ele><time>2026-04-22T12:23:54Z</time></trkpt><trkpt lat="42.294082049655636" lon="3.2617121335846186"><ele>117.0</ele><time>2026-04-22T12:23:55Z</time></trkpt><trkpt lat="42.2940115784301" lon="3.2616567829526644"><ele>117.0</ele><time>2026-04-22T12:23:56Z</time></trkpt><trkpt lat="42.29394203536408" lon="3.2615962968886416"><ele>117.0</ele><time>2026-04-22T12:23:57Z</time></trkpt><trkpt lat="42.29386751016568" lon="3.261531986203241"><ele>117.0</ele><time>2026-04-22T12:23:58Z</time></trkpt><trkpt lat="42.2937916756614" lon="3.2614657230840347"><ele>117.0</ele><time>2026-04-22T12:23:59Z</time></trkpt><trkpt lat="42.29371265607714" lon="3.261396767536808"><ele>116.0</ele><time>2026-04-22T12:24:00Z</time></trkpt><trkpt lat="42.29363337533159" lon="3.261328358989536"><ele>115.0</ele><time>2026-04-22T12:24:01Z</time></trkpt><trkpt lat="42.29355909730592" lon="3.261262650648587"><ele>114.0</ele><time>2026-04-22T12:24:02Z</time></trkpt><trkpt lat="42.293488564345466" lon="3.261192797801607"><ele>113.0</ele><time>2026-04-22T12:24:03Z</time></trkpt><trkpt lat="42.293429150815115" lon="3.261114488071512"><ele>112.0</ele><time>2026-04-22T12:24:04Z</time></trkpt><trkpt lat="42.29338145600635" lon="3.261026469805269"><ele>111.0</ele><time>2026-04-22T12:24:05Z</time></trkpt><trkpt lat="42.293344518363185" lon="3.2609230132884206"><ele>111.0</ele><time>2026-04-22T12:24:06Z</time></trkpt><trkpt lat="42.29332949187261" lon="3.260807742911026"><ele>111.0</ele><time>2026-04-22T12:24:07Z</time></trkpt><trkpt lat="42.293331553650646" lon="3.2606830011459214"><ele>111.0</ele><time>2026-04-22T12:24:08Z</time></trkpt><trkpt lat="42.29335547531468" lon="3.2605573647432284"><ele>111.0</ele><time>2026-04-22T12:24:09Z</time></trkpt><trkpt lat="42.29339903495079" lon="3.2604354639181685"><ele>111.0</ele><time>2026-04-22T12:24:10Z</time></trkpt><trkpt lat="42.2934514416192" lon="3.2603140439994287"><ele>109.8</ele><time>2026-04-22T12:24:11Z</time></trkpt><trkpt lat="42.29350170297067" lon="3.2601850394304424"><ele>108.6</ele><time>2026-04-22T12:24:12Z</time></trkpt><trkpt lat="42.293558545141" lon="3.2600540359836248"><ele>107.4</ele><time>2026-04-22T12:24:13Z</time></trkpt><trkpt lat="42.29362376026126" lon="3.2599323062277343"><ele>106.2</ele><time>2026-04-22T12:24:14Z</time></trkpt><trkpt lat="42.29370267143255" lon="3.2598241660444107"><ele>105.0</ele><time>2026-04-22T12:24:15Z</time></trkpt><trkpt lat="42.29379672571873" lon="3.2597384292075517"><ele>106.0</ele><time>2026-04-22T12:24:16Z</time></trkpt><trkpt lat="42.293896313528585" lon="3.259666089500237"><ele>107.0</ele><time>2026-04-22T12:24:17Z</time></trkpt><trkpt lat="42.293998512132774" lon="3.2596028206898406"><ele>108.0</ele><time>2026-04-22T12:24:18Z</time></trkpt><trkpt lat="42.2941036637525" lon="3.2595663139863693"><ele>109.0</ele><time>2026-04-22T12:24:19Z</time></trkpt><trkpt lat="42.294210856942215" lon="3.2595939110246173"><ele>110.0</ele><time>2026-04-22T12:24:20Z</time></trkpt><trkpt lat="42.29432540797508" lon="3.2596042566611922"><ele>110.0</ele><time>2026-04-22T12:24:21Z</time></trkpt><trkpt lat="42.29444198437032" lon="3.259636784233058"><ele>110.0</ele><time>2026-04-22T12:24:22Z</time></trkpt><trkpt lat="42.29456377319754" lon="3.259665671443565"><ele>110.0</ele><time>2026-04-22T12:24:23Z</time></trkpt><trkpt lat="42.29468429320446" lon="3.2596925353233446"><ele>110.0</ele><time>2026-04-22T12:24:24Z</time></trkpt><trkpt lat="42.29479579103233" lon="3.2597173674771214"><ele>113.8</ele><time>2026-04-22T12:24:25Z</time></trkpt><trkpt lat="42.29489823209719" lon="3.2597385572463313"><ele>117.6</ele><time>2026-04-22T12:24:26Z</time></trkpt><trkpt lat="42.29499367587449" lon="3.259729120227241"><ele>121.4</ele><time>2026-04-22T12:24:27Z</time></trkpt><trkpt lat="42.295076349185585" lon="3.259687478571738"><ele>125.2</ele><time>2026-04-22T12:24:28Z</time></trkpt><trkpt lat="42.295131475395145" lon="3.2595981614868474"><ele>129.0</ele><time>2026-04-22T12:24:29Z</time></trkpt><trkpt lat="42.29515548040354" lon="3.2594790111409946"><ele>129.0</ele><time>2026-04-22T12:24:30Z</time></trkpt><trkpt lat="42.29514479618725" lon="3.259356468440789"><ele>129.0</ele><time>2026-04-22T12:24:31Z</time></trkpt><trkpt lat="42.2950939341635" lon="3.2592447143523686"><ele>129.0</ele><time>2026-04-22T12:24:32Z</time></trkpt><trkpt lat="42.29504325849541" lon="3.2591348148937582"><ele>129.0</ele><time>2026-04-22T12:24:33Z</time></trkpt><trkpt lat="42.294994649134644" lon="3.2590172324750593"><ele>129.0</ele><time>2026-04-22T12:24:34Z</time></trkpt><trkpt lat="42.294946077550385" lon="3.2588971442690453"><ele>129.4</ele><time>2026-04-22T12:24:35Z</time></trkpt><trkpt lat="42.29490666514729" lon="3.25876761769847"><ele>129.8</ele><time>2026-04-22T12:24:36Z</time></trkpt><trkpt lat="42.29488043896387" lon="3.258628540151772"><ele>130.2</ele><time>2026-04-22T12:24:37Z</time></trkpt><trkpt lat="42.294853121144" lon="3.258489120645362"><ele>130.6</ele><time>2026-04-22T12:24:38Z</time></trkpt><trkpt lat="42.29483977078941" lon="3.2583549280618747"><ele>131.0</ele><time>2026-04-22T12:24:39Z</time></trkpt><trkpt lat="42.2948486380314" lon="3.2582302791525968"><ele>130.0</ele><time>2026-04-22T12:24:40Z</time></trkpt><trkpt lat="42.29488855116421" lon="3.2581127522690725"><ele>129.0</ele><time>2026-04-22T12:24:41Z</time></trkpt><trkpt lat="42.29494976660072" lon="3.2580055244505584"><ele>128.0</ele><time>2026-04-22T12:24:42Z</time></trkpt><trkpt lat="42.295016965628726" lon="3.257906426165288"><ele>127.0</ele><time>2026-04-22T12:24:43Z</time></trkpt><trkpt lat="42.29508591067107" lon="3.257804943592364"><ele>126.0</ele><time>2026-04-22T12:24:44Z</time></trkpt><trkpt lat="42.29515347270132" lon="3.2577048616951014"><ele>126.0</ele><time>2026-04-22T12:24:45Z</time></trkpt><trkpt lat="42.29521609527307" lon="3.2576073610738114"><ele>126.0</ele><time>2026-04-22T12:24:46Z</time></trkpt><trkpt lat="42.29528343921713" lon="3.25749834033023"><ele>126.0</ele><time>2026-04-22T12:24:47Z</time></trkpt><trkpt lat="42.29535747185932" lon="3.2573852173030393"><ele>126.0</ele><time>2026-04-22T12:24:48Z</time></trkpt><trkpt lat="42.29543668788123" lon="3.25727147424604"><ele>126.0</ele><time>2026-04-22T12:24:49Z</time></trkpt><trkpt lat="42.29552785916515" lon="3.2571741177015583"><ele>128.4</ele><time>2026-04-22T12:24:50Z</time></trkpt><trkpt lat="42.29563422270195" lon="3.2570922191942"><ele>130.8</ele><time>2026-04-22T12:24:51Z</time></trkpt><trkpt lat="42.29573801040047" lon="3.2570152404081134"><ele>133.20000000000002</ele><time>2026-04-22T12:24:52Z</time></trkpt><trkpt lat="42.29582935870656" lon="3.256943725117679"><ele>135.6</ele><time>2026-04-22T12:24:53Z</time></trkpt><trkpt lat="42.29590953072946" lon="3.256877071549228"><ele>138.0</ele><time>2026-04-22T12:24:54Z</time></trkpt><trkpt lat="42.295981786687314" lon="3.2568121447727822"><ele>138.0</ele><time>2026-04-22T12:24:55Z</time></trkpt><trkpt lat="42.29604218537085" lon="3.256738305758678"><ele>138.0</ele><time>2026-04-22T12:24:56Z</time></trkpt><trkpt lat="42.296082402359716" lon="3.256646484015994"><ele>138.0</ele><time>2026-04-22T12:24:57Z</time></trkpt><trkpt lat="42.296097211698395" lon="3.256545496957371"><ele>138.0</ele><time>2026-04-22T12:24:58Z</time></trkpt><trkpt lat="42.296081216883465" lon="3.256438380423246"><ele>138.0</ele><time>2026-04-22T12:24:59Z</time></trkpt><trkpt lat="42.29603272189837" lon="3.2563336278105193"><ele>138.0</ele><time>2026-04-22T12:25:00Z</time></trkpt><trkpt lat="42.29597256735625" lon="3.256238059960578"><ele>139.4</ele><time>2026-04-22T12:25:01Z</time></trkpt><trkpt lat="42.29590817953624" lon="3.2561397987664833"><ele>140.8</ele><time>2026-04-22T12:25:02Z</time></trkpt><trkpt lat="42.295838341192265" lon="3.2560340083389376"><ele>142.2</ele><time>2026-04-22T12:25:03Z</time></trkpt><trkpt lat="42.29576578711892" lon="3.2559304866358834"><ele>143.6</ele><time>2026-04-22T12:25:04Z</time></trkpt><trkpt lat="42.295688468140234" lon="3.2558436506794743"><ele>145.0</ele><time>2026-04-22T12:25:05Z</time></trkpt><trkpt lat="42.29559697262457" lon="3.2557903807878743"><ele>145.25</ele><time>2026-04-22T12:25:06Z</time></trkpt><trkpt lat="42.29549041563796" lon="3.2557797212094424"><ele>145.5</ele><time>2026-04-22T12:25:07Z</time></trkpt><trkpt lat="42.29537604634574" lon="3.2558009355919793"><ele>145.75</ele><time>2026-04-22T12:25:08Z</time></trkpt><trkpt lat="42.295259154701654" lon="3.255825680357763"><ele>146.0</ele><time>2026-04-22T12:25:09Z</time></trkpt><trkpt lat="42.2951371041118" lon="3.255848465763099"><ele>146.0</ele><time>2026-04-22T12:25:10Z</time></trkpt><trkpt lat="42.29500788610212" lon="3.2558689313666545"><ele>146.0</ele><time>2026-04-22T12:25:11Z</time></trkpt><trkpt lat="42.29487435987659" lon="3.25588992454953"><ele>146.0</ele><time>2026-04-22T12:25:12Z</time></trkpt><trkpt lat="42.29473435825709" lon="3.255909796835418"><ele>146.0</ele><time>2026-04-22T12:25:13Z</time></trkpt><trkpt lat="42.29460431928542" lon="3.2559264998276443"><ele>146.4</ele><time>2026-04-22T12:25:14Z</time></trkpt><trkpt lat="42.29448564671625" lon="3.2559427579524005"><ele>146.8</ele><time>2026-04-22T12:25:15Z</time></trkpt><trkpt lat="42.2943761539355" lon="3.2559580685902088"><ele>147.20000000000002</ele><time>2026-04-22T12:25:16Z</time></trkpt><trkpt lat="42.29426982546466" lon="3.255957148918394"><ele>147.6</ele><time>2026-04-22T12:25:17Z</time></trkpt><trkpt lat="42.294171278327354" lon="3.255921321234809"><ele>148.0</ele><time>2026-04-22T12:25:18Z</time></trkpt><trkpt lat="42.294086897705796" lon="3.2558480081023715"><ele>148.0</ele><time>2026-04-22T12:25:19Z</time></trkpt><trkpt lat="42.294036680599696" lon="3.2557419242914554"><ele>148.0</ele><time>2026-04-22T12:25:20Z</time></trkpt><trkpt lat="42.29402139500596" lon="3.255614692950979"><ele>148.0</ele><time>2026-04-22T12:25:21Z</time></trkpt><trkpt lat="42.294023808367825" lon="3.25548296994769"><ele>148.0</ele><time>2026-04-22T12:25:22Z</time></trkpt><trkpt lat="42.294014093985105" lon="3.2553475502043363"><ele>148.0</ele><time>2026-04-22T12:25:23Z</time></trkpt><trkpt lat="42.294002476867405" lon="3.25521705245301"><ele>149.4</ele><time>2026-04-22T12:25:24Z</time></trkpt><trkpt lat="42.2939869521241" lon="3.2550989748562764"><ele>150.8</ele><time>2026-04-22T12:25:25Z</time></trkpt><trkpt lat="42.29394875473772" lon="3.254992417008631"><ele>152.2</ele><time>2026-04-22T12:25:26Z</time></trkpt><trkpt lat="42.29388426401192" lon="3.2549118385557425"><ele>153.6</ele><time>2026-04-22T12:25:27Z</time></trkpt><trkpt lat="42.2937993996061" lon="3.254863754821252"><ele>155.0</ele><time>2026-04-22T12:25:28Z</time></trkpt><trkpt lat="42.29370187173351" lon="3.2548572199502637"><ele>155.0</ele><time>2026-04-22T12:25:29Z</time></trkpt><trkpt lat="42.293596183921295" lon="3.2548807989564277"><ele>155.0</ele><time>2026-04-22T12:25:30Z</time></trkpt><trkpt lat="42.29349174549956" lon="3.2548774880054525"><ele>155.0</ele><time>2026-04-22T12:25:31Z</time></trkpt><trkpt lat="42.29339549391553" lon="3.254905731135189"><ele>155.0</ele><time>2026-04-22T12:25:32Z</time></trkpt><trkpt lat="42.2933050397322" lon="3.2548832924094184"><ele>155.0</ele><time>2026-04-22T12:25:33Z</time></trkpt><trkpt lat="42.29322199002419" lon="3.254828206344398"><ele>157.2</ele><time>2026-04-22T12:25:34Z</time></trkpt><trkpt lat="42.293146312561035" lon="3.254751085453613"><ele>159.4</ele><time>2026-04-22T12:25:35Z</time></trkpt><trkpt lat="42.29309410500972" lon="3.2546495859181386"><ele>161.60000000000002</ele><time>2026-04-22T12:25:36Z</time></trkpt><trkpt lat="42.29307092421864" lon="3.2545278588536517"><ele>163.8</ele><time>2026-04-22T12:25:37Z</time></trkpt><trkpt lat="42.293069221091315" lon="3.2543964240403307"><ele>166.0</ele><time>2026-04-22T12:25:38Z</time></trkpt><trkpt lat="42.29306205416226" lon="3.2542559445745156"><ele>160.0</ele><time>2026-04-22T12:25:39Z</time></trkpt><trkpt lat="42.293049785608126" lon="3.2541086406989708"><ele>154.0</ele><time>2026-04-22T12:25:40Z</time></trkpt><trkpt lat="42.29303518929292" lon="3.2539508737938974"><ele>148.0</ele><time>2026-04-22T12:25:41Z</time></trkpt><trkpt lat="42.293021971456675" lon="3.2537839432763134"><ele>142.0</ele><time>2026-04-22T12:25:42Z</time></trkpt><trkpt lat="42.29300625497043" lon="3.253606117493548"><ele>142.0</ele><time>2026-04-22T12:25:43Z</time></trkpt><trkpt lat="42.29299135630576" lon="3.2534309047675998"><ele>142.0</ele><time>2026-04-22T12:25:44Z</time></trkpt><trkpt lat="42.29298067883126" lon="3.2532631172777347"><ele>142.0</ele><time>2026-04-22T12:25:45Z</time></trkpt><trkpt lat="42.29299035744652" lon="3.2530864282379417"><ele>142.0</ele><time>2026-04-22T12:25:46Z</time></trkpt><trkpt lat="42.293015252238185" lon="3.252905738166395"><ele>141.5</ele><time>2026-04-22T12:25:47Z</time></trkpt><trkpt lat="42.2930452681756" lon="3.2527256870427608"><ele>141.0</ele><time>2026-04-22T12:25:48Z</time></trkpt><trkpt lat="42.293088993786185" lon="3.2525603089724346"><ele>140.5</ele><time>2026-04-22T12:25:49Z</time></trkpt><trkpt lat="42.2931504292864" lon="3.2523996818793095"><ele>140.0</ele><time>2026-04-22T12:25:50Z</time></trkpt><trkpt lat="42.29321871350678" lon="3.252238534734616"><ele>147.75</ele><time>2026-04-22T12:25:51Z</time></trkpt><trkpt lat="42.293283991858075" lon="3.25208063204728"><ele>155.5</ele><time>2026-04-22T12:25:52Z</time></trkpt><trkpt lat="42.293344970847556" lon="3.2519341936773225"><ele>163.25</ele><time>2026-04-22T12:25:53Z</time></trkpt><trkpt lat="42.29340177993882" lon="3.2517992615013886"><ele>171.0</ele><time>2026-04-22T12:25:54Z</time></trkpt><trkpt lat="42.29345130481088" lon="3.25167496856585"><ele>171.0</ele><time>2026-04-22T12:25:55Z</time></trkpt><trkpt lat="42.293485181973374" lon="3.2515493770137285"><ele>171.0</ele><time>2026-04-22T12:25:56Z</time></trkpt><trkpt lat="42.29349444630106" lon="3.2514055645584627"><ele>171.0</ele><time>2026-04-22T12:25:57Z</time></trkpt><trkpt lat="42.29348251317307" lon="3.2512529841001863"><ele>171.0</ele><time>2026-04-22T12:25:58Z</time></trkpt><trkpt lat="42.293460980996585" lon="3.251093514320065"><ele>171.0</ele><time>2026-04-22T12:25:59Z</time></trkpt><trkpt lat="42.29344087537733" lon="3.2509266011437568"><ele>171.25</ele><time>2026-04-22T12:26:00Z</time></trkpt><trkpt lat="42.29342030821406" lon="3.250755586738191"><ele>171.5</ele><time>2026-04-22T12:26:01Z</time></trkpt><trkpt lat="42.29339680599617" lon="3.2505959081010016"><ele>171.75</ele><time>2026-04-22T12:26:02Z</time></trkpt><trkpt lat="42.29337903465235" lon="3.250449219947856"><ele>172.0</ele><time>2026-04-22T12:26:03Z</time></trkpt><trkpt lat="42.29338062148611" lon="3.2503139501585476"><ele>172.0</ele><time>2026-04-22T12:26:04Z</time></trkpt><trkpt lat="42.293407965489806" lon="3.2501855009518548"><ele>172.0</ele><time>2026-04-22T12:26:05Z</time></trkpt><trkpt lat="42.293469377480164" lon="3.250064808541724"><ele>172.0</ele><time>2026-04-22T12:26:06Z</time></trkpt><trkpt lat="42.293547343799126" lon="3.249956240779129"><ele>172.0</ele><time>2026-04-22T12:26:07Z</time></trkpt><trkpt lat="42.293632375022575" lon="3.249836719860965"><ele>172.0</ele><time>2026-04-22T12:26:08Z</time></trkpt><trkpt lat="42.29371488591746" lon="3.2497077262795098"><ele>169.75</ele><time>2026-04-22T12:26:09Z</time></trkpt><trkpt lat="42.29380129519412" lon="3.249569991670527"><ele>167.5</ele><time>2026-04-22T12:26:10Z</time></trkpt><trkpt lat="42.293890938698844" lon="3.2494296122461623"><ele>165.25</ele><time>2026-04-22T12:26:11Z</time></trkpt><trkpt lat="42.29397595961525" lon="3.2492982942301554"><ele>163.0</ele><time>2026-04-22T12:26:12Z</time></trkpt><trkpt lat="42.294055323806404" lon="3.249179065113038"><ele>165.4</ele><time>2026-04-22T12:26:13Z</time></trkpt><trkpt lat="42.29413355875748" lon="3.24907883705914"><ele>167.8</ele><time>2026-04-22T12:26:14Z</time></trkpt><trkpt lat="42.29422235386357" lon="3.24900885492562"><ele>170.2</ele><time>2026-04-22T12:26:15Z</time></trkpt><trkpt lat="42.294315585309306" lon="3.248978061194752"><ele>172.6</ele><time>2026-04-22T12:26:16Z</time></trkpt><trkpt lat="42.294408362149134" lon="3.248966304884904"><ele>175.0</ele><time>2026-04-22T12:26:17Z</time></trkpt><trkpt lat="42.29449521097593" lon="3.248942498607161"><ele>175.0</ele><time>2026-04-22T12:26:18Z</time></trkpt><trkpt lat="42.294565376163845" lon="3.248885995786568"><ele>175.0</ele><time>2026-04-22T12:26:19Z</time></trkpt><trkpt lat="42.29461749334935" lon="3.2487923792880955"><ele>175.0</ele><time>2026-04-22T12:26:20Z</time></trkpt><trkpt lat="42.29462291948116" lon="3.2486679667396126"><ele>175.0</ele><time>2026-04-22T12:26:21Z</time></trkpt><trkpt lat="42.29460820821293" lon="3.2485451298982313"><ele>175.0</ele><time>2026-04-22T12:26:22Z</time></trkpt><trkpt lat="42.29458232178288" lon="3.2484136515103517"><ele>175.0</ele><time>2026-04-22T12:26:23Z</time></trkpt><trkpt lat="42.29456545513925" lon="3.24829367286307"><ele>175.0</ele><time>2026-04-22T12:26:24Z</time></trkpt><trkpt lat="42.29457352399034" lon="3.2481787141075844"><ele>175.0</ele><time>2026-04-22T12:26:25Z</time></trkpt><trkpt lat="42.294620753263864" lon="3.2480714382838154"><ele>175.0</ele><time>2026-04-22T12:26:26Z</time></trkpt><trkpt lat="42.29469726717321" lon="3.2479883569983996"><ele>175.0</ele><time>2026-04-22T12:26:27Z</time></trkpt><trkpt lat="42.294789182823536" lon="3.2479311144891976"><ele>179.0</ele><time>2026-04-22T12:26:28Z</time></trkpt><trkpt lat="42.29488503308254" lon="3.247872533478071"><ele>183.0</ele><time>2026-04-22T12:26:29Z</time></trkpt><trkpt lat="42.29498333035828" lon="3.247807811986292"><ele>187.0</ele><time>2026-04-22T12:26:30Z</time></trkpt><trkpt lat="42.295073073123014" lon="3.2477467535491322"><ele>191.0</ele><time>2026-04-22T12:26:31Z</time></trkpt><trkpt lat="42.29514353984826" lon="3.2476721921801808"><ele>195.0</ele><time>2026-04-22T12:26:32Z</time></trkpt><trkpt lat="42.295176048044624" lon="3.2475716940220605"><ele>195.0</ele><time>2026-04-22T12:26:33Z</time></trkpt><trkpt lat="42.29517873071794" lon="3.2474538686560317"><ele>195.0</ele><time>2026-04-22T12:26:34Z</time></trkpt><trkpt lat="42.29515210785717" lon="3.247334281516268"><ele>195.0</ele><time>2026-04-22T12:26:35Z</time></trkpt><trkpt lat="42.29512429866011" lon="3.247219631438684"><ele>195.0</ele><time>2026-04-22T12:26:36Z</time></trkpt><trkpt lat="42.295130393761745" lon="3.247101064111673"><ele>195.0</ele><time>2026-04-22T12:26:37Z</time></trkpt><trkpt lat="42.29516848117029" lon="3.2469951138941138"><ele>195.0</ele><time>2026-04-22T12:26:38Z</time></trkpt><trkpt lat="42.29520588191466" lon="3.24688494237214"><ele>194.6</ele><time>2026-04-22T12:26:39Z</time></trkpt><trkpt lat="42.29523751425536" lon="3.2467698386094037"><ele>194.2</ele><time>2026-04-22T12:26:40Z</time></trkpt><trkpt lat="42.29525292933911" lon="3.246648783443612"><ele>193.8</ele><time>2026-04-22T12:26:41Z</time></trkpt><trkpt lat="42.29524341942574" lon="3.2465176472268134"><ele>193.4</ele><time>2026-04-22T12:26:42Z</time></trkpt><trkpt lat="42.29522466596829" lon="3.246381384588795"><ele>193.0</ele><time>2026-04-22T12:26:43Z</time></trkpt><trkpt lat="42.2952059607425" lon="3.2462382382936146"><ele>195.25</ele><time>2026-04-22T12:26:44Z</time></trkpt><trkpt lat="42.29516561227782" lon="3.2460948667901186"><ele>197.5</ele><time>2026-04-22T12:26:45Z</time></trkpt><trkpt lat="42.295096864775935" lon="3.245965931975178"><ele>199.75</ele><time>2026-04-22T12:26:46Z</time></trkpt><trkpt lat="42.29502018682035" lon="3.2458410732912775"><ele>202.0</ele><time>2026-04-22T12:26:47Z</time></trkpt><trkpt lat="42.29494631101179" lon="3.245726340559912"><ele>202.66666666666666</ele><time>2026-04-22T12:26:48Z</time></trkpt><trkpt lat="42.29488771453007" lon="3.245611679828933"><ele>203.33333333333331</ele><time>2026-04-22T12:26:49Z</time></trkpt><trkpt lat="42.29485839525196" lon="3.2454893288080457"><ele>204.0</ele><time>2026-04-22T12:26:50Z</time></trkpt><trkpt lat="42.29486579671332" lon="3.245378239812836"><ele>204.66666666666669</ele><time>2026-04-22T12:26:51Z</time></trkpt><trkpt lat="42.29489216723071" lon="3.245293116272387"><ele>205.33333333333334</ele><time>2026-04-22T12:26:52Z</time></trkpt><trkpt lat="42.29492657893653" lon="3.245213754855957"><ele>206.0</ele><time>2026-04-22T12:26:53Z</time></trkpt><trkpt lat="42.2949611807136" lon="3.2451319395760443"><ele>206.00000000000003</ele><time>2026-04-22T12:26:54Z</time></trkpt><trkpt lat="42.294998245213215" lon="3.2450463966849283"><ele>206.0</ele><time>2026-04-22T12:26:55Z</time></trkpt><trkpt lat="42.29503653413795" lon="3.244953910626015"><ele>206.0</ele><time>2026-04-22T12:26:56Z</time></trkpt><trkpt lat="42.29508025635361" lon="3.2448573598894916"><ele>206.0</ele><time>2026-04-22T12:26:57Z</time></trkpt><trkpt lat="42.29513069968049" lon="3.244758847058682"><ele>206.00000000000003</ele><time>2026-04-22T12:26:58Z</time></trkpt><trkpt lat="42.29518748591638" lon="3.244659115910488"><ele>206.0</ele><time>2026-04-22T12:26:59Z</time></trkpt><trkpt lat="42.29524134653963" lon="3.244559247046607"><ele>204.83333333333334</ele><time>2026-04-22T12:27:00Z</time></trkpt><trkpt lat="42.29528752407095" lon="3.244466333060197"><ele>203.66666666666669</ele><time>2026-04-22T12:27:01Z</time></trkpt><trkpt lat="42.29533677437944" lon="3.244374030976998"><ele>202.5</ele><time>2026-04-22T12:27:02Z</time></trkpt><trkpt lat="42.29539719885556" lon="3.2442931212890005"><ele>201.33333333333331</ele><time>2026-04-22T12:27:03Z</time></trkpt><trkpt lat="42.29546807758002" lon="3.2442297115658953"><ele>200.16666666666666</ele><time>2026-04-22T12:27:04Z</time></trkpt><trkpt lat="42.29555162450814" lon="3.2441745828067585"><ele>199.0</ele><time>2026-04-22T12:27:05Z</time></trkpt><trkpt lat="42.29564335009964" lon="3.2441218863676613"><ele>203.39999999999998</ele><time>2026-04-22T12:27:06Z</time></trkpt><trkpt lat="42.29573961507497" lon="3.2440842949630695"><ele>207.8</ele><time>2026-04-22T12:27:07Z</time></trkpt><trkpt lat="42.29583554200318" lon="3.244089402662486"><ele>212.20000000000002</ele><time>2026-04-22T12:27:08Z</time></trkpt><trkpt lat="42.295936148390986" lon="3.2441209391909287"><ele>216.60000000000002</ele><time>2026-04-22T12:27:09Z</time></trkpt><trkpt lat="42.2960325681416" lon="3.2441424285248424"><ele>221.0</ele><time>2026-04-22T12:27:10Z</time></trkpt><trkpt lat="42.296117571945544" lon="3.244159315974144"><ele>221.00000000000003</ele><time>2026-04-22T12:27:11Z</time></trkpt><trkpt lat="42.29619427813965" lon="3.244161072058782"><ele>221.0</ele><time>2026-04-22T12:27:12Z</time></trkpt><trkpt lat="42.2962571864628" lon="3.244138407062633"><ele>221.0</ele><time>2026-04-22T12:27:13Z</time></trkpt><trkpt lat="42.2963129773936" lon="3.2440805165299933"><ele>221.0</ele><time>2026-04-22T12:27:14Z</time></trkpt><trkpt lat="42.296349767059354" lon="3.243994459623556"><ele>221.00000000000003</ele><time>2026-04-22T12:27:15Z</time></trkpt><trkpt lat="42.29636115285565" lon="3.2438855667835593"><ele>221.0</ele><time>2026-04-22T12:27:16Z</time></trkpt><trkpt lat="42.296342863167744" lon="3.2437762354954427"><ele>220.20000000000002</ele><time>2026-04-22T12:27:17Z</time></trkpt><trkpt lat="42.29628688763927" lon="3.2436803871362376"><ele>219.40000000000003</ele><time>2026-04-22T12:27:18Z</time></trkpt><trkpt lat="42.2962101653115" lon="3.2436050291443266"><ele>218.6</ele><time>2026-04-22T12:27:19Z</time></trkpt><trkpt lat="42.29612815041717" lon="3.2435215397291373"><ele>217.8</ele><time>2026-04-22T12:27:20Z</time></trkpt><trkpt lat="42.29604130494833" lon="3.2434283426407386"><ele>217.0</ele><time>2026-04-22T12:27:21Z</time></trkpt><trkpt lat="42.29594744167801" lon="3.243330833341787"><ele>217.0</ele><time>2026-04-22T12:27:22Z</time></trkpt><trkpt lat="42.29585983678002" lon="3.2432351761651397"><ele>217.0</ele><time>2026-04-22T12:27:23Z</time></trkpt><trkpt lat="42.29578205288232" lon="3.243142076637796"><ele>217.0</ele><time>2026-04-22T12:27:24Z</time></trkpt><trkpt lat="42.29573581014136" lon="3.2430436050061164"><ele>217.0</ele><time>2026-04-22T12:27:25Z</time></trkpt><trkpt lat="42.295731990109225" lon="3.242883316666356"><ele>217.0</ele><time>2026-04-22T12:27:27Z</time></trkpt><trkpt lat="42.295745461140015" lon="3.2427926725685414"><ele>217.66666666666666</ele><time>2026-04-22T12:27:28Z</time></trkpt><trkpt lat="42.2957616448294" lon="3.2426971656281127"><ele>218.33333333333331</ele><time>2026-04-22T12:27:29Z</time></trkpt><trkpt lat="42.295782469861436" lon="3.2425977659061718"><ele>219.0</ele><time>2026-04-22T12:27:30Z</time></trkpt><trkpt lat="42.29581202458074" lon="3.2424926715645173"><ele>219.66666666666669</ele><time>2026-04-22T12:27:31Z</time></trkpt><trkpt lat="42.295849751287456" lon="3.2423861802719744"><ele>220.33333333333334</ele><time>2026-04-22T12:27:32Z</time></trkpt><trkpt lat="42.29588873084523" lon="3.2422744372531924"><ele>221.0</ele><time>2026-04-22T12:27:33Z</time></trkpt><trkpt lat="42.29593074639838" lon="3.2421550223317044"><ele>221.0</ele><time>2026-04-22T12:27:34Z</time></trkpt><trkpt lat="42.295977941598075" lon="3.2420303661161465"><ele>221.0</ele><time>2026-04-22T12:27:35Z</time></trkpt><trkpt lat="42.29602488686135" lon="3.2418981681362786"><ele>221.0</ele><time>2026-04-22T12:27:36Z</time></trkpt><trkpt lat="42.29607409714908" lon="3.2417557069442458"><ele>221.0</ele><time>2026-04-22T12:27:37Z</time></trkpt><trkpt lat="42.29612496426026" lon="3.2416068729271386"><ele>221.5</ele><time>2026-04-22T12:27:38Z</time></trkpt><trkpt lat="42.29618099114906" lon="3.2414503333863527"><ele>222.0</ele><time>2026-04-22T12:27:39Z</time></trkpt><trkpt lat="42.296238991799854" lon="3.2412871074640215"><ele>222.5</ele><time>2026-04-22T12:27:40Z</time></trkpt><trkpt lat="42.29629230503128" lon="3.241125383970106"><ele>223.0</ele><time>2026-04-22T12:27:41Z</time></trkpt><trkpt lat="42.296345540218105" lon="3.2409704647941244"><ele>223.0</ele><time>2026-04-22T12:27:42Z</time></trkpt><trkpt lat="42.29640085808549" lon="3.240810356482589"><ele>223.0</ele><time>2026-04-22T12:27:43Z</time></trkpt><trkpt lat="42.29644023909961" lon="3.2406419783785103"><ele>223.0</ele><time>2026-04-22T12:27:44Z</time></trkpt><trkpt lat="42.296453786842754" lon="3.2404632751909626"><ele>223.0</ele><time>2026-04-22T12:27:45Z</time></trkpt><trkpt lat="42.29645615867766" lon="3.240282797386915"><ele>228.25</ele><time>2026-04-22T12:27:46Z</time></trkpt><trkpt lat="42.296461134204755" lon="3.240110063971395"><ele>233.5</ele><time>2026-04-22T12:27:47Z</time></trkpt><trkpt lat="42.29647257468221" lon="3.2399528139439764"><ele>238.75</ele><time>2026-04-22T12:27:48Z</time></trkpt><trkpt lat="42.29651359709279" lon="3.2398086244277002"><ele>244.0</ele><time>2026-04-22T12:27:49Z</time></trkpt><trkpt lat="42.296567146386536" lon="3.2396668522617644"><ele>244.0</ele><time>2026-04-22T12:27:50Z</time></trkpt><trkpt lat="42.2966152195467" lon="3.2395177308371954"><ele>244.0</ele><time>2026-04-22T12:27:51Z</time></trkpt><trkpt lat="42.29664323268465" lon="3.2393565688364223"><ele>244.0</ele><time>2026-04-22T12:27:52Z</time></trkpt><trkpt lat="42.29665837174669" lon="3.23918530780903"><ele>244.0</ele><time>2026-04-22T12:27:53Z</time></trkpt><trkpt lat="42.29666341061509" lon="3.239015052435664"><ele>245.25</ele><time>2026-04-22T12:27:54Z</time></trkpt><trkpt lat="42.29665493778619" lon="3.23885127183947"><ele>246.5</ele><time>2026-04-22T12:27:55Z</time></trkpt><trkpt lat="42.29662898983314" lon="3.2386955008815796"><ele>247.75</ele><time>2026-04-22T12:27:56Z</time></trkpt><trkpt lat="42.2965807601004" lon="3.2385458020939093"><ele>249.0</ele><time>2026-04-22T12:27:57Z</time></trkpt><trkpt lat="42.296528442808" lon="3.2384006208947684"><ele>249.0</ele><time>2026-04-22T12:27:58Z</time></trkpt><trkpt lat="42.29647917681815" lon="3.2382601848735977"><ele>248.99999999999997</ele><time>2026-04-22T12:27:59Z</time></trkpt><trkpt lat="42.296432028708985" lon="3.2381256274928734"><ele>248.99999999999997</ele><time>2026-04-22T12:28:00Z</time></trkpt><trkpt lat="42.296386704650544" lon="3.238003502282623"><ele>249.0</ele><time>2026-04-22T12:28:01Z</time></trkpt><trkpt lat="42.29634431241089" lon="3.2378872573184108"><ele>249.0</ele><time>2026-04-22T12:28:02Z</time></trkpt><trkpt lat="42.296306323477495" lon="3.2377790624801612"><ele>249.2</ele><time>2026-04-22T12:28:03Z</time></trkpt><trkpt lat="42.296284835636285" lon="3.237662072823904"><ele>249.39999999999998</ele><time>2026-04-22T12:28:04Z</time></trkpt><trkpt lat="42.29629175344284" lon="3.2375395748940567"><ele>249.6</ele><time>2026-04-22T12:28:05Z</time></trkpt><trkpt lat="42.29632441993765" lon="3.237415791195047"><ele>249.8</ele><time>2026-04-22T12:28:06Z</time></trkpt><trkpt lat="42.29636730721936" lon="3.2372875910227217"><ele>250.0</ele><time>2026-04-22T12:28:07Z</time></trkpt><trkpt lat="42.296409989251025" lon="3.237155440781359"><ele>249.4</ele><time>2026-04-22T12:28:08Z</time></trkpt><trkpt lat="42.296453034495755" lon="3.2370268190798526"><ele>248.8</ele><time>2026-04-22T12:28:09Z</time></trkpt><trkpt lat="42.296490691490895" lon="3.2369043053555315"><ele>248.2</ele><time>2026-04-22T12:28:10Z</time></trkpt><trkpt lat="42.296524986278264" lon="3.2368006106361302"><ele>247.6</ele><time>2026-04-22T12:28:11Z</time></trkpt><trkpt lat="42.296554379092804" lon="3.2367137154335417"><ele>247.0</ele><time>2026-04-22T12:28:12Z</time></trkpt><trkpt lat="42.296621511280094" lon="3.2365814593849973"><ele>246.99999999999997</ele><time>2026-04-22T12:28:14Z</time></trkpt><trkpt lat="42.29673326149148" lon="3.2365007602373965"><ele>247.0</ele><time>2026-04-22T12:28:16Z</time></trkpt><trkpt lat="42.29679215918601" lon="3.2364638738425806"><ele>247.0</ele><time>2026-04-22T12:28:17Z</time></trkpt><trkpt lat="42.29684822794502" lon="3.236330462141144"><ele>247.0</ele><time>2026-04-22T12:28:19Z</time></trkpt><trkpt lat="42.29683142095511" lon="3.2362484313295696"><ele>246.99999999999997</ele><time>2026-04-22T12:28:20Z</time></trkpt><trkpt lat="42.296788713786505" lon="3.236179837762887"><ele>247.0</ele><time>2026-04-22T12:28:21Z</time></trkpt><trkpt lat="42.296755605348025" lon="3.2361064955603966"><ele>247.2</ele><time>2026-04-22T12:28:22Z</time></trkpt><trkpt lat="42.29680110615909" lon="3.235972531312938"><ele>247.39999999999998</ele><time>2026-04-22T12:28:23Z</time></trkpt><trkpt lat="42.29682640617632" lon="3.235869022149625"><ele>247.60000000000002</ele><time>2026-04-22T12:28:24Z</time></trkpt><trkpt lat="42.29686790881582" lon="3.235760827912308"><ele>247.8</ele><time>2026-04-22T12:28:25Z</time></trkpt><trkpt lat="42.2969051618109" lon="3.2356504607270504"><ele>248.0</ele><time>2026-04-22T12:28:26Z</time></trkpt><trkpt lat="42.29693250162293" lon="3.2355380375228977"><ele>247.00000000000003</ele><time>2026-04-22T12:28:27Z</time></trkpt><trkpt lat="42.29693777888029" lon="3.2354206000830525"><ele>246.0</ele><time>2026-04-22T12:28:28Z</time></trkpt><trkpt lat="42.2969199442953" lon="3.2353077946930395"><ele>245.0</ele><time>2026-04-22T12:28:29Z</time></trkpt><trkpt lat="42.296880900390356" lon="3.235205549806795"><ele>244.0</ele><time>2026-04-22T12:28:30Z</time></trkpt><trkpt lat="42.29682021341999" lon="3.2351188389750622"><ele>243.00000000000003</ele><time>2026-04-22T12:28:31Z</time></trkpt><trkpt lat="42.296737766875715" lon="3.2350541193468567"><ele>242.0</ele><time>2026-04-22T12:28:32Z</time></trkpt><trkpt lat="42.296640629955945" lon="3.2350127910013944"><ele>242.0</ele><time>2026-04-22T12:28:33Z</time></trkpt><trkpt lat="42.29653190272948" lon="3.2349848725755006"><ele>242.0</ele><time>2026-04-22T12:28:34Z</time></trkpt><trkpt lat="42.29641638784377" lon="3.2349435133020528"><ele>242.0</ele><time>2026-04-22T12:28:35Z</time></trkpt><trkpt lat="42.296291719735905" lon="3.2348972326625147"><ele>242.0</ele><time>2026-04-22T12:28:36Z</time></trkpt><trkpt lat="42.29615821992699" lon="3.234850074684132"><ele>239.0</ele><time>2026-04-22T12:28:37Z</time></trkpt><trkpt lat="42.296027815986974" lon="3.2348043886423103"><ele>236.0</ele><time>2026-04-22T12:28:38Z</time></trkpt><trkpt lat="42.29589013494146" lon="3.234757827160586"><ele>233.0</ele><time>2026-04-22T12:28:39Z</time></trkpt><trkpt lat="42.29575710706549" lon="3.234707245257577"><ele>230.0</ele><time>2026-04-22T12:28:40Z</time></trkpt><trkpt lat="42.295629453054346" lon="3.234662632046268"><ele>230.25</ele><time>2026-04-22T12:28:41Z</time></trkpt><trkpt lat="42.2955090859848" lon="3.2346165964102895"><ele>230.5</ele><time>2026-04-22T12:28:42Z</time></trkpt><trkpt lat="42.295396068508836" lon="3.2345824513811086"><ele>230.75</ele><time>2026-04-22T12:28:43Z</time></trkpt><trkpt lat="42.295283739314456" lon="3.2345776461060676"><ele>231.0</ele><time>2026-04-22T12:28:44Z</time></trkpt><trkpt lat="42.29517158645942" lon="3.2346006846352804"><ele>231.0</ele><time>2026-04-22T12:28:45Z</time></trkpt><trkpt lat="42.29505661122786" lon="3.234634680396682"><ele>231.0</ele><time>2026-04-22T12:28:46Z</time></trkpt><trkpt lat="42.29493940006803" lon="3.234641410429108"><ele>231.0</ele><time>2026-04-22T12:28:47Z</time></trkpt><trkpt lat="42.29482852419866" lon="3.234667192765003"><ele>231.0</ele><time>2026-04-22T12:28:48Z</time></trkpt><trkpt lat="42.29472592705433" lon="3.2347061239117556"><ele>232.8</ele><time>2026-04-22T12:28:49Z</time></trkpt><trkpt lat="42.29462380487729" lon="3.2346914107327804"><ele>234.60000000000002</ele><time>2026-04-22T12:28:50Z</time></trkpt><trkpt lat="42.294519937667616" lon="3.234647259963379"><ele>236.4</ele><time>2026-04-22T12:28:51Z</time></trkpt><trkpt lat="42.294418779594146" lon="3.2345796741418504"><ele>238.2</ele><time>2026-04-22T12:28:52Z</time></trkpt><trkpt lat="42.29431257686545" lon="3.2345080882418875"><ele>240.0</ele><time>2026-04-22T12:28:53Z</time></trkpt><trkpt lat="42.294200513834646" lon="3.23443581745858"><ele>240.0</ele><time>2026-04-22T12:28:54Z</time></trkpt><trkpt lat="42.29409346776146" lon="3.2343623993090977"><ele>240.0</ele><time>2026-04-22T12:28:55Z</time></trkpt><trkpt lat="42.2939889536642" lon="3.234297977339742"><ele>240.0</ele><time>2026-04-22T12:28:56Z</time></trkpt><trkpt lat="42.293888732662566" lon="3.234233671434088"><ele>240.0</ele><time>2026-04-22T12:28:57Z</time></trkpt><trkpt lat="42.293798228651504" lon="3.234165851549827"><ele>240.0</ele><time>2026-04-22T12:28:58Z</time></trkpt><trkpt lat="42.2937252765971" lon="3.234068782143441"><ele>240.2</ele><time>2026-04-22T12:28:59Z</time></trkpt><trkpt lat="42.29366989000649" lon="3.2339433925365193"><ele>240.4</ele><time>2026-04-22T12:29:00Z</time></trkpt><trkpt lat="42.29361948738721" lon="3.233808881512934"><ele>240.60000000000002</ele><time>2026-04-22T12:29:01Z</time></trkpt><trkpt lat="42.293566718143225" lon="3.233670297354818"><ele>240.8</ele><time>2026-04-22T12:29:02Z</time></trkpt><trkpt lat="42.293515772797086" lon="3.233535966922979"><ele>241.0</ele><time>2026-04-22T12:29:03Z</time></trkpt><trkpt lat="42.29346747884569" lon="3.233410461609788"><ele>241.0</ele><time>2026-04-22T12:29:04Z</time></trkpt><trkpt lat="42.29340297779042" lon="3.233303357627855"><ele>241.00000000000003</ele><time>2026-04-22T12:29:05Z</time></trkpt><trkpt lat="42.29332081365797" lon="3.233222763700753"><ele>241.00000000000003</ele><time>2026-04-22T12:29:06Z</time></trkpt><trkpt lat="42.29322592255471" lon="3.2331741744213938"><ele>241.0</ele><time>2026-04-22T12:29:07Z</time></trkpt><trkpt lat="42.29312022919472" lon="3.233156106197251"><ele>241.0</ele><time>2026-04-22T12:29:08Z</time></trkpt><trkpt lat="42.29300620160924" lon="3.23313585532066"><ele>240.0</ele><time>2026-04-22T12:29:09Z</time></trkpt><trkpt lat="42.29289110342593" lon="3.2331139500290496"><ele>239.00000000000003</ele><time>2026-04-22T12:29:10Z</time></trkpt><trkpt lat="42.29277725123727" lon="3.233095078476515"><ele>238.00000000000003</ele><time>2026-04-22T12:29:11Z</time></trkpt><trkpt lat="42.29266725323357" lon="3.233078155975616"><ele>237.0</ele><time>2026-04-22T12:29:12Z</time></trkpt><trkpt lat="42.29255974292387" lon="3.233081176571594"><ele>236.0</ele><time>2026-04-22T12:29:13Z</time></trkpt><trkpt lat="42.29244850598302" lon="3.233105185574616"><ele>236.0</ele><time>2026-04-22T12:29:14Z</time></trkpt><trkpt lat="42.2923317903765" lon="3.2331358046468295"><ele>236.0</ele><time>2026-04-22T12:29:15Z</time></trkpt><trkpt lat="42.29221050528763" lon="3.233165246022628"><ele>236.0</ele><time>2026-04-22T12:29:16Z</time></trkpt><trkpt lat="42.29208968767017" lon="3.23319463353753"><ele>236.0</ele><time>2026-04-22T12:29:17Z</time></trkpt><trkpt lat="42.29197477939952" lon="3.233225064225724"><ele>238.60000000000002</ele><time>2026-04-22T12:29:18Z</time></trkpt><trkpt lat="42.29186467644915" lon="3.2332535186391915"><ele>241.20000000000002</ele><time>2026-04-22T12:29:19Z</time></trkpt><trkpt lat="42.291761651972806" lon="3.233279931580071"><ele>243.79999999999998</ele><time>2026-04-22T12:29:20Z</time></trkpt><trkpt lat="42.29166592191437" lon="3.233302581508999"><ele>246.39999999999998</ele><time>2026-04-22T12:29:21Z</time></trkpt><trkpt lat="42.29157400409084" lon="3.233301557508768"><ele>249.0</ele><time>2026-04-22T12:29:22Z</time></trkpt><trkpt lat="42.291485834334345" lon="3.2332612241480265"><ele>248.79999999999998</ele><time>2026-04-22T12:29:23Z</time></trkpt><trkpt lat="42.29140756489463" lon="3.2331932312750555"><ele>248.59999999999997</ele><time>2026-04-22T12:29:24Z</time></trkpt><trkpt lat="42.29134857496589" lon="3.23308324411446"><ele>248.4</ele><time>2026-04-22T12:29:25Z</time></trkpt><trkpt lat="42.29131537805477" lon="3.23294889596855"><ele>248.2</ele><time>2026-04-22T12:29:26Z</time></trkpt><trkpt lat="42.29130155249094" lon="3.2328080041931586"><ele>248.0</ele><time>2026-04-22T12:29:27Z</time></trkpt><trkpt lat="42.291297502487964" lon="3.232668908147069"><ele>247.8</ele><time>2026-04-22T12:29:28Z</time></trkpt><trkpt lat="42.29131343483668" lon="3.2325376417365757"><ele>247.60000000000002</ele><time>2026-04-22T12:29:29Z</time></trkpt><trkpt lat="42.29137012989064" lon="3.2324277815953675"><ele>247.39999999999998</ele><time>2026-04-22T12:29:30Z</time></trkpt><trkpt lat="42.29145227887967" lon="3.2323470832551755"><ele>247.2</ele><time>2026-04-22T12:29:31Z</time></trkpt><trkpt lat="42.291547365584506" lon="3.232283362818328"><ele>247.0</ele><time>2026-04-22T12:29:32Z</time></trkpt><trkpt lat="42.29164448718948" lon="3.232210404619386"><ele>247.6</ele><time>2026-04-22T12:29:33Z</time></trkpt><trkpt lat="42.29174485947893" lon="3.2321312666944304"><ele>248.2</ele><time>2026-04-22T12:29:34Z</time></trkpt><trkpt lat="42.2918381121009" lon="3.2320395085811837"><ele>248.8</ele><time>2026-04-22T12:29:35Z</time></trkpt><trkpt lat="42.29191656811354" lon="3.2319358793132826"><ele>249.4</ele><time>2026-04-22T12:29:36Z</time></trkpt><trkpt lat="42.2919799061501" lon="3.231820262346505"><ele>250.0</ele><time>2026-04-22T12:29:37Z</time></trkpt><trkpt lat="42.2920315795495" lon="3.2316961416471948"><ele>250.0</ele><time>2026-04-22T12:29:38Z</time></trkpt><trkpt lat="42.29205235492412" lon="3.231566509024751"><ele>250.0</ele><time>2026-04-22T12:29:39Z</time></trkpt><trkpt lat="42.2920370225478" lon="3.231437760382265"><ele>250.0</ele><time>2026-04-22T12:29:40Z</time></trkpt><trkpt lat="42.29199196809619" lon="3.2313127376281634"><ele>250.0</ele><time>2026-04-22T12:29:41Z</time></trkpt><trkpt lat="42.291922859899294" lon="3.2312061961026894"><ele>250.0</ele><time>2026-04-22T12:29:42Z</time></trkpt><trkpt lat="42.29183267772901" lon="3.2311212182127065"><ele>249.4</ele><time>2026-04-22T12:29:43Z</time></trkpt><trkpt lat="42.29174398221566" lon="3.231040278823301"><ele>248.8</ele><time>2026-04-22T12:29:44Z</time></trkpt><trkpt lat="42.29166446945327" lon="3.2309634018602384"><ele>248.2</ele><time>2026-04-22T12:29:45Z</time></trkpt><trkpt lat="42.291607067389144" lon="3.2308800238000566"><ele>247.6</ele><time>2026-04-22T12:29:46Z</time></trkpt><trkpt lat="42.29157896892445" lon="3.2307766485015446"><ele>247.0</ele><time>2026-04-22T12:29:47Z</time></trkpt><trkpt lat="42.29157921532013" lon="3.230664001658211"><ele>249.2</ele><time>2026-04-22T12:29:48Z</time></trkpt><trkpt lat="42.29160742070193" lon="3.2305512929032307"><ele>251.39999999999998</ele><time>2026-04-22T12:29:49Z</time></trkpt><trkpt lat="42.29167188660042" lon="3.2304613336981727"><ele>253.60000000000002</ele><time>2026-04-22T12:29:50Z</time></trkpt><trkpt lat="42.291762435025845" lon="3.23041921809606"><ele>255.8</ele><time>2026-04-22T12:29:51Z</time></trkpt><trkpt lat="42.291861723174826" lon="3.2304210977075356"><ele>258.0</ele><time>2026-04-22T12:29:52Z</time></trkpt><trkpt lat="42.29196082345621" lon="3.2304327075895176"><ele>258.0</ele><time>2026-04-22T12:29:53Z</time></trkpt><trkpt lat="42.29206168292036" lon="3.2304442416653947"><ele>258.0</ele><time>2026-04-22T12:29:54Z</time></trkpt><trkpt lat="42.292165147864125" lon="3.2304552805054465"><ele>258.0</ele><time>2026-04-22T12:29:55Z</time></trkpt><trkpt lat="42.29227050466092" lon="3.230461634504716"><ele>258.0</ele><time>2026-04-22T12:29:56Z</time></trkpt><trkpt lat="42.29237636100413" lon="3.230440821364301"><ele>258.0</ele><time>2026-04-22T12:29:57Z</time></trkpt><trkpt lat="42.29247712606484" lon="3.230387390327408"><ele>257.4</ele><time>2026-04-22T12:29:58Z</time></trkpt><trkpt lat="42.292573672077694" lon="3.2303146579329383"><ele>256.8</ele><time>2026-04-22T12:29:59Z</time></trkpt><trkpt lat="42.292670192288575" lon="3.2302436238738172"><ele>256.2</ele><time>2026-04-22T12:30:00Z</time></trkpt><trkpt lat="42.29276562884005" lon="3.2301698362749156"><ele>255.6</ele><time>2026-04-22T12:30:01Z</time></trkpt><trkpt lat="42.29285872417145" lon="3.2300843726599098"><ele>255.0</ele><time>2026-04-22T12:30:02Z</time></trkpt><trkpt lat="42.29295092466767" lon="3.229991161846344"><ele>255.0</ele><time>2026-04-22T12:30:03Z</time></trkpt><trkpt lat="42.29304190628101" lon="3.229892591111422"><ele>255.0</ele><time>2026-04-22T12:30:04Z</time></trkpt><trkpt lat="42.293133048074225" lon="3.2297890275435077"><ele>255.0</ele><time>2026-04-22T12:30:05Z</time></trkpt><trkpt lat="42.29322656742057" lon="3.229684470892749"><ele>255.0</ele><time>2026-04-22T12:30:06Z</time></trkpt><trkpt lat="42.293321588236324" lon="3.229578097731671"><ele>256.25</ele><time>2026-04-22T12:30:07Z</time></trkpt><trkpt lat="42.29341932678712" lon="3.229469457053067"><ele>257.5</ele><time>2026-04-22T12:30:08Z</time></trkpt><trkpt lat="42.29351921068005" lon="3.2293606783707673"><ele>258.75</ele><time>2026-04-22T12:30:09Z</time></trkpt><trkpt lat="42.29361561821712" lon="3.2292528031346444"><ele>260.0</ele><time>2026-04-22T12:30:10Z</time></trkpt><trkpt lat="42.2937044081729" lon="3.2291495916275137"><ele>260.0</ele><time>2026-04-22T12:30:11Z</time></trkpt><trkpt lat="42.293769313262345" lon="3.2290272192644376"><ele>260.0</ele><time>2026-04-22T12:30:12Z</time></trkpt><trkpt lat="42.293808513897375" lon="3.228877639646606"><ele>260.0</ele><time>2026-04-22T12:30:13Z</time></trkpt><trkpt lat="42.29383003768796" lon="3.2287160737085654"><ele>260.0</ele><time>2026-04-22T12:30:14Z</time></trkpt><trkpt lat="42.293837562572236" lon="3.2285487130281667"><ele>261.0</ele><time>2026-04-22T12:30:15Z</time></trkpt><trkpt lat="42.29384899970212" lon="3.228372318333993"><ele>262.0</ele><time>2026-04-22T12:30:16Z</time></trkpt><trkpt lat="42.293862113892246" lon="3.2281890033647445"><ele>263.0</ele><time>2026-04-22T12:30:17Z</time></trkpt><trkpt lat="42.29387765513545" lon="3.227997676557568"><ele>264.0</ele><time>2026-04-22T12:30:18Z</time></trkpt><trkpt lat="42.29389600803113" lon="3.2277982176772357"><ele>264.75</ele><time>2026-04-22T12:30:19Z</time></trkpt><trkpt lat="42.29391102801455" lon="3.2275931262649187"><ele>265.5</ele><time>2026-04-22T12:30:20Z</time></trkpt><trkpt lat="42.29392773608289" lon="3.227394692289781"><ele>266.25</ele><time>2026-04-22T12:30:21Z</time></trkpt><trkpt lat="42.293943560229366" lon="3.227209021123554"><ele>267.0</ele><time>2026-04-22T12:30:22Z</time></trkpt><trkpt lat="42.293957278483326" lon="3.2270282399897345"><ele>267.5</ele><time>2026-04-22T12:30:23Z</time></trkpt><trkpt lat="42.29396022966976" lon="3.226852111732676"><ele>268.0</ele><time>2026-04-22T12:30:24Z</time></trkpt><trkpt lat="42.29393854720131" lon="3.22667140663573"><ele>268.5</ele><time>2026-04-22T12:30:25Z</time></trkpt><trkpt lat="42.29389588343007" lon="3.2264905477435617"><ele>269.0</ele><time>2026-04-22T12:30:26Z</time></trkpt><trkpt lat="42.29385029796981" lon="3.226305702431627"><ele>268.0</ele><time>2026-04-22T12:30:27Z</time></trkpt><trkpt lat="42.29381035409519" lon="3.226124857803112"><ele>267.0</ele><time>2026-04-22T12:30:28Z</time></trkpt><trkpt lat="42.29376795380697" lon="3.2259437160429636"><ele>266.0</ele><time>2026-04-22T12:30:29Z</time></trkpt><trkpt lat="42.293711649004855" lon="3.2257679837347366"><ele>265.0</ele><time>2026-04-22T12:30:30Z</time></trkpt><trkpt lat="42.2936395044801" lon="3.225603872461173"><ele>262.4</ele><time>2026-04-22T12:30:31Z</time></trkpt><trkpt lat="42.29356091550495" lon="3.2254609815685344"><ele>259.8</ele><time>2026-04-22T12:30:32Z</time></trkpt><trkpt lat="42.293484324693715" lon="3.2253480209289744"><ele>257.2</ele><time>2026-04-22T12:30:33Z</time></trkpt><trkpt lat="42.293399188727484" lon="3.2252678194772324"><ele>254.6</ele><time>2026-04-22T12:30:34Z</time></trkpt><trkpt lat="42.29330380286886" lon="3.225236945798547"><ele>252.0</ele><time>2026-04-22T12:30:35Z</time></trkpt><trkpt lat="42.29319873068855" lon="3.2252526375498225"><ele>252.0</ele><time>2026-04-22T12:30:36Z</time></trkpt><trkpt lat="42.29309248555811" lon="3.2252749089134314"><ele>252.0</ele><time>2026-04-22T12:30:37Z</time></trkpt><trkpt lat="42.29297832869997" lon="3.2252976388296686"><ele>252.0</ele><time>2026-04-22T12:30:38Z</time></trkpt><trkpt lat="42.29286442599069" lon="3.2253192021877206"><ele>252.0</ele><time>2026-04-22T12:30:39Z</time></trkpt><trkpt lat="42.29275757099608" lon="3.225339344981491"><ele>252.0</ele><time>2026-04-22T12:30:40Z</time></trkpt><trkpt lat="42.29265706452331" lon="3.225322956179155"><ele>254.6</ele><time>2026-04-22T12:30:41Z</time></trkpt><trkpt lat="42.2925652240336" lon="3.2253137005647434"><ele>257.2</ele><time>2026-04-22T12:30:42Z</time></trkpt><trkpt lat="42.292494487418445" lon="3.225240387708633"><ele>259.8</ele><time>2026-04-22T12:30:43Z</time></trkpt><trkpt lat="42.29245107761404" lon="3.225132743819455"><ele>262.4</ele><time>2026-04-22T12:30:44Z</time></trkpt><trkpt lat="42.29243597911323" lon="3.225005346305104"><ele>265.0</ele><time>2026-04-22T12:30:45Z</time></trkpt><trkpt lat="42.29242300697568" lon="3.2248765117961127"><ele>267.0</ele><time>2026-04-22T12:30:46Z</time></trkpt><trkpt lat="42.29240271960573" lon="3.2247414729677426"><ele>269.0</ele><time>2026-04-22T12:30:47Z</time></trkpt><trkpt lat="42.29238190493086" lon="3.2245995844275277"><ele>271.0</ele><time>2026-04-22T12:30:48Z</time></trkpt><trkpt lat="42.29235108279359" lon="3.2244556396224184"><ele>273.0</ele><time>2026-04-22T12:30:49Z</time></trkpt><trkpt lat="42.29230413120975" lon="3.2243246434375066"><ele>275.0</ele><time>2026-04-22T12:30:50Z</time></trkpt><trkpt lat="42.29223143801065" lon="3.224208392432088"><ele>275.0</ele><time>2026-04-22T12:30:51Z</time></trkpt><trkpt lat="42.292140519899924" lon="3.2241036866074486"><ele>275.0</ele><time>2026-04-22T12:30:52Z</time></trkpt><trkpt lat="42.29204289541981" lon="3.224000483147289"><ele>275.0</ele><time>2026-04-22T12:30:53Z</time></trkpt><trkpt lat="42.291948639763014" lon="3.2238964827117176"><ele>275.0</ele><time>2026-04-22T12:30:54Z</time></trkpt><trkpt lat="42.29184625360323" lon="3.2238048036725933"><ele>273.25</ele><time>2026-04-22T12:30:55Z</time></trkpt><trkpt lat="42.29173353358753" lon="3.223729471301205"><ele>271.5</ele><time>2026-04-22T12:30:56Z</time></trkpt><trkpt lat="42.29160959994184" lon="3.2236657710007157"><ele>269.75</ele><time>2026-04-22T12:30:57Z</time></trkpt><trkpt lat="42.29147999378496" lon="3.223604923794442"><ele>268.0</ele><time>2026-04-22T12:30:58Z</time></trkpt><trkpt lat="42.29134755305595" lon="3.2235360598253635"><ele>268.0</ele><time>2026-04-22T12:30:59Z</time></trkpt><trkpt lat="42.291211797232094" lon="3.223466310846724"><ele>268.0</ele><time>2026-04-22T12:31:00Z</time></trkpt><trkpt lat="42.29107491923221" lon="3.223397040578054"><ele>268.0</ele><time>2026-04-22T12:31:01Z</time></trkpt><trkpt lat="42.29094012199592" lon="3.2233299631305607"><ele>268.0</ele><time>2026-04-22T12:31:02Z</time></trkpt><trkpt lat="42.29080595430567" lon="3.223265078430167"><ele>268.0</ele><time>2026-04-22T12:31:03Z</time></trkpt><trkpt lat="42.29067828516564" lon="3.2232012625024717"><ele>268.0</ele><time>2026-04-22T12:31:04Z</time></trkpt><trkpt lat="42.29055320766543" lon="3.223136797328853"><ele>268.0</ele><time>2026-04-22T12:31:05Z</time></trkpt><trkpt lat="42.290428997511945" lon="3.2230744579628143"><ele>268.0</ele><time>2026-04-22T12:31:06Z</time></trkpt><trkpt lat="42.290301085806476" lon="3.2230187229163794"><ele>264.75</ele><time>2026-04-22T12:31:07Z</time></trkpt><trkpt lat="42.29016552591654" lon="3.222982784672826"><ele>261.5</ele><time>2026-04-22T12:31:08Z</time></trkpt><trkpt lat="42.290027950193014" lon="3.222959986681863"><ele>258.25</ele><time>2026-04-22T12:31:09Z</time></trkpt><trkpt lat="42.28989280109601" lon="3.2229393584566615"><ele>255.0</ele><time>2026-04-22T12:31:10Z</time></trkpt><trkpt lat="42.28976140862223" lon="3.2229152089353854"><ele>256.5</ele><time>2026-04-22T12:31:11Z</time></trkpt><trkpt lat="42.28963138766074" lon="3.2228901496938955"><ele>258.0</ele><time>2026-04-22T12:31:12Z</time></trkpt><trkpt lat="42.289507052371626" lon="3.222866106762075"><ele>259.5</ele><time>2026-04-22T12:31:13Z</time></trkpt><trkpt lat="42.28938375460362" lon="3.2228391551739843"><ele>261.0</ele><time>2026-04-22T12:31:14Z</time></trkpt><trkpt lat="42.289260398222964" lon="3.2227875474483514"><ele>261.0</ele><time>2026-04-22T12:31:15Z</time></trkpt><trkpt lat="42.28914197882357" lon="3.222721591947681"><ele>261.0</ele><time>2026-04-22T12:31:16Z</time></trkpt><trkpt lat="42.2890303990476" lon="3.2226501046552665"><ele>261.0</ele><time>2026-04-22T12:31:17Z</time></trkpt><trkpt lat="42.288922787941445" lon="3.222586556776445"><ele>261.0</ele><time>2026-04-22T12:31:18Z</time></trkpt><trkpt lat="42.288813198326466" lon="3.222531565635685"><ele>263.25</ele><time>2026-04-22T12:31:19Z</time></trkpt><trkpt lat="42.28870191295087" lon="3.222491056969103"><ele>265.5</ele><time>2026-04-22T12:31:20Z</time></trkpt><trkpt lat="42.288583187473535" lon="3.2224704073145287"><ele>267.75</ele><time>2026-04-22T12:31:21Z</time></trkpt><trkpt lat="42.28846041072312" lon="3.222454419141227"><ele>270.0</ele><time>2026-04-22T12:31:22Z</time></trkpt><trkpt lat="42.28833466082984" lon="3.222439611213634"><ele>270.0</ele><time>2026-04-22T12:31:23Z</time></trkpt><trkpt lat="42.28820424392468" lon="3.2224268481189378"><ele>270.0</ele><time>2026-04-22T12:31:24Z</time></trkpt><trkpt lat="42.28807110943369" lon="3.2224127819539947"><ele>270.0</ele><time>2026-04-22T12:31:25Z</time></trkpt><trkpt lat="42.28793833747424" lon="3.2223999016693528"><ele>270.0</ele><time>2026-04-22T12:31:26Z</time></trkpt><trkpt lat="42.28780987379595" lon="3.2223861439382038"><ele>272.0</ele><time>2026-04-22T12:31:27Z</time></trkpt><trkpt lat="42.28768909344835" lon="3.222373458064913"><ele>274.0</ele><time>2026-04-22T12:31:28Z</time></trkpt><trkpt lat="42.28757680475352" lon="3.2223617877773783"><ele>276.0</ele><time>2026-04-22T12:31:29Z</time></trkpt><trkpt lat="42.28747168403459" lon="3.2223512185342216"><ele>278.0</ele><time>2026-04-22T12:31:30Z</time></trkpt><trkpt lat="42.28737537858713" lon="3.2223409636840468"><ele>280.0</ele><time>2026-04-22T12:31:31Z</time></trkpt><trkpt lat="42.287289307110704" lon="3.2223310252211386"><ele>281.5</ele><time>2026-04-22T12:31:32Z</time></trkpt><trkpt lat="42.28720925169023" lon="3.2223210656883796"><ele>283.0</ele><time>2026-04-22T12:31:33Z</time></trkpt><trkpt lat="42.28714137331303" lon="3.2222833954130565"><ele>284.5</ele><time>2026-04-22T12:31:34Z</time></trkpt><trkpt lat="42.28708921839551" lon="3.2222117980956497"><ele>286.0</ele><time>2026-04-22T12:31:35Z</time></trkpt><trkpt lat="42.28705818993598" lon="3.2221211487093715"><ele>287.5</ele><time>2026-04-22T12:31:36Z</time></trkpt><trkpt lat="42.287066473410455" lon="3.222013160875746"><ele>289.0</ele><time>2026-04-22T12:31:37Z</time></trkpt><trkpt lat="42.28710803165764" lon="3.221915330455306"><ele>289.59999999999997</ele><time>2026-04-22T12:31:38Z</time></trkpt><trkpt lat="42.28718261588889" lon="3.2218504174915963"><ele>290.2</ele><time>2026-04-22T12:31:39Z</time></trkpt><trkpt lat="42.28727698144235" lon="3.2218224877779678"><ele>290.79999999999995</ele><time>2026-04-22T12:31:40Z</time></trkpt><trkpt lat="42.28737992483657" lon="3.2218021900939964"><ele>291.4</ele><time>2026-04-22T12:31:41Z</time></trkpt><trkpt lat="42.287491485351495" lon="3.2217767135749047"><ele>292.0</ele><time>2026-04-22T12:31:42Z</time></trkpt><trkpt lat="42.28761284940992" lon="3.2217461519192057"><ele>289.5</ele><time>2026-04-22T12:31:43Z</time></trkpt><trkpt lat="42.28774458652425" lon="3.2217129173754158"><ele>287.0</ele><time>2026-04-22T12:31:44Z</time></trkpt><trkpt lat="42.28788481693963" lon="3.221675741793507"><ele>284.5</ele><time>2026-04-22T12:31:45Z</time></trkpt><trkpt lat="42.2880367886338" lon="3.221635206977872"><ele>282.0</ele><time>2026-04-22T12:31:46Z</time></trkpt><trkpt lat="42.28818697068417" lon="3.221594844459541"><ele>278.6666666666667</ele><time>2026-04-22T12:31:47Z</time></trkpt><trkpt lat="42.28833683327746" lon="3.221559141329112"><ele>275.33333333333337</ele><time>2026-04-22T12:31:48Z</time></trkpt><trkpt lat="42.28848659116101" lon="3.2215182445278367"><ele>272.0</ele><time>2026-04-22T12:31:49Z</time></trkpt><trkpt lat="42.2886288309831" lon="3.2214812407477504"><ele>275.25</ele><time>2026-04-22T12:31:50Z</time></trkpt><trkpt lat="42.288765641349755" lon="3.2214466442151433"><ele>278.5</ele><time>2026-04-22T12:31:51Z</time></trkpt><trkpt lat="42.28889189118125" lon="3.2213979831418085"><ele>281.75</ele><time>2026-04-22T12:31:52Z</time></trkpt><trkpt lat="42.28900959413642" lon="3.2213112056672712"><ele>285.0</ele><time>2026-04-22T12:31:53Z</time></trkpt><trkpt lat="42.28912446305304" lon="3.2212064642907166"><ele>285.0</ele><time>2026-04-22T12:31:54Z</time></trkpt><trkpt lat="42.28924060322942" lon="3.2211093321877775"><ele>285.0</ele><time>2026-04-22T12:31:55Z</time></trkpt><trkpt lat="42.28935779319504" lon="3.221030500326485"><ele>285.0</ele><time>2026-04-22T12:31:56Z</time></trkpt><trkpt lat="42.28947517410125" lon="3.2209722143740875"><ele>285.0</ele><time>2026-04-22T12:31:57Z</time></trkpt><trkpt lat="42.289595595811456" lon="3.220936208036798"><ele>285.0</ele><time>2026-04-22T12:31:58Z</time></trkpt><trkpt lat="42.28971816919637" lon="3.2209004917197106"><ele>285.0</ele><time>2026-04-22T12:31:59Z</time></trkpt><trkpt lat="42.28983759347807" lon="3.2208465753279"><ele>285.0</ele><time>2026-04-22T12:32:00Z</time></trkpt><trkpt lat="42.289948527789164" lon="3.2207726065072233"><ele>285.0</ele><time>2026-04-22T12:32:01Z</time></trkpt><trkpt lat="42.29005278869974" lon="3.220696605031405"><ele>285.0</ele><time>2026-04-22T12:32:02Z</time></trkpt><trkpt lat="42.29014425103455" lon="3.220609701170636"><ele>285.0</ele><time>2026-04-22T12:32:03Z</time></trkpt><trkpt lat="42.29020945599865" lon="3.2204976168855506"><ele>285.0</ele><time>2026-04-22T12:32:04Z</time></trkpt><trkpt lat="42.2902393934724" lon="3.2203641784295414"><ele>285.0</ele><time>2026-04-22T12:32:05Z</time></trkpt><trkpt lat="42.29025270252863" lon="3.2202243285891705"><ele>285.0</ele><time>2026-04-22T12:32:06Z</time></trkpt><trkpt lat="42.29026971298608" lon="3.2200860026168354"><ele>285.0</ele><time>2026-04-22T12:32:07Z</time></trkpt><trkpt lat="42.29028807172431" lon="3.21995555074827"><ele>285.0</ele><time>2026-04-22T12:32:08Z</time></trkpt><trkpt lat="42.290315727059046" lon="3.219837850468092"><ele>285.0</ele><time>2026-04-22T12:32:09Z</time></trkpt><trkpt lat="42.29036888444018" lon="3.2197373896083024"><ele>285.0</ele><time>2026-04-22T12:32:10Z</time></trkpt><trkpt lat="42.29044348418468" lon="3.219661046527916"><ele>285.0</ele><time>2026-04-22T12:32:11Z</time></trkpt><trkpt lat="42.29053666774479" lon="3.2196210323620424"><ele>284.8</ele><time>2026-04-22T12:32:12Z</time></trkpt><trkpt lat="42.290636717451854" lon="3.2196048042038816"><ele>284.6</ele><time>2026-04-22T12:32:13Z</time></trkpt><trkpt lat="42.290740655953805" lon="3.2195832600106473"><ele>284.4</ele><time>2026-04-22T12:32:14Z</time></trkpt><trkpt lat="42.29084173410578" lon="3.219563979095851"><ele>284.2</ele><time>2026-04-22T12:32:15Z</time></trkpt><trkpt lat="42.29094352349226" lon="3.219576526954789"><ele>284.0</ele><time>2026-04-22T12:32:16Z</time></trkpt><trkpt lat="42.29103516334167" lon="3.2196262208527933"><ele>284.0</ele><time>2026-04-22T12:32:17Z</time></trkpt><trkpt lat="42.291119016133706" lon="3.2196865522673024"><ele>284.0</ele><time>2026-04-22T12:32:18Z</time></trkpt><trkpt lat="42.291195895269915" lon="3.21973709182571"><ele>284.0</ele><time>2026-04-22T12:32:19Z</time></trkpt><trkpt lat="42.29126970421125" lon="3.2197710529228742"><ele>284.0</ele><time>2026-04-22T12:32:20Z</time></trkpt><trkpt lat="42.29134808567887" lon="3.2197716440067223"><ele>284.0</ele><time>2026-04-22T12:32:21Z</time></trkpt><trkpt lat="42.29142793693627" lon="3.219737117624287"><ele>284.0</ele><time>2026-04-22T12:32:22Z</time></trkpt><trkpt lat="42.291498629937344" lon="3.219668889489658"><ele>283.0</ele><time>2026-04-22T12:32:23Z</time></trkpt><trkpt lat="42.291554493662034" lon="3.2195694546128486"><ele>282.0</ele><time>2026-04-22T12:32:24Z</time></trkpt><trkpt lat="42.291604782154224" lon="3.219461756203767"><ele>281.0</ele><time>2026-04-22T12:32:25Z</time></trkpt><trkpt lat="42.29164040860721" lon="3.2193401661909404"><ele>280.0</ele><time>2026-04-22T12:32:26Z</time></trkpt><trkpt lat="42.29165202894817" lon="3.2192112031783418"><ele>279.0</ele><time>2026-04-22T12:32:27Z</time></trkpt><trkpt lat="42.291642315675645" lon="3.219075160134057"><ele>278.25</ele><time>2026-04-22T12:32:28Z</time></trkpt><trkpt lat="42.29161405076138" lon="3.2189340571576794"><ele>277.5</ele><time>2026-04-22T12:32:29Z</time></trkpt><trkpt lat="42.29158435990383" lon="3.2187880403114564"><ele>276.75</ele><time>2026-04-22T12:32:30Z</time></trkpt><trkpt lat="42.29157323827251" lon="3.2186293588722164"><ele>276.0</ele><time>2026-04-22T12:32:31Z</time></trkpt><trkpt lat="42.29154905271597" lon="3.218467044013459"><ele>276.0</ele><time>2026-04-22T12:32:32Z</time></trkpt><trkpt lat="42.29148863928099" lon="3.2183105783818817"><ele>276.0</ele><time>2026-04-22T12:32:33Z</time></trkpt><trkpt lat="42.29145768893504" lon="3.218150151663796"><ele>276.0</ele><time>2026-04-22T12:32:34Z</time></trkpt><trkpt lat="42.29142021646103" lon="3.2180007029192743"><ele>276.0</ele><time>2026-04-22T12:32:35Z</time></trkpt><trkpt lat="42.29136367957858" lon="3.217871308043419"><ele>277.25</ele><time>2026-04-22T12:32:36Z</time></trkpt><trkpt lat="42.29128668377051" lon="3.2177725448337613"><ele>278.5</ele><time>2026-04-22T12:32:37Z</time></trkpt><trkpt lat="42.291193140043205" lon="3.21768970588228"><ele>279.75</ele><time>2026-04-22T12:32:38Z</time></trkpt><trkpt lat="42.29109317819772" lon="3.217609857468575"><ele>281.0</ele><time>2026-04-22T12:32:39Z</time></trkpt><trkpt lat="42.29099142539329" lon="3.217522302912168"><ele>281.0</ele><time>2026-04-22T12:32:40Z</time></trkpt><trkpt lat="42.290887567312694" lon="3.217428170240192"><ele>281.0</ele><time>2026-04-22T12:32:41Z</time></trkpt><trkpt lat="42.29077978195224" lon="3.217330647967196"><ele>281.0</ele><time>2026-04-22T12:32:42Z</time></trkpt><trkpt lat="42.29067064233405" lon="3.21723474951322"><ele>281.0</ele><time>2026-04-22T12:32:43Z</time></trkpt><trkpt lat="42.29056543282227" lon="3.2171421747058253"><ele>279.6</ele><time>2026-04-22T12:32:44Z</time></trkpt><trkpt lat="42.29046555752017" lon="3.2170536429909573"><ele>278.20000000000005</ele><time>2026-04-22T12:32:45Z</time></trkpt><trkpt lat="42.29037034738229" lon="3.2169684453416822"><ele>276.79999999999995</ele><time>2026-04-22T12:32:46Z</time></trkpt><trkpt lat="42.29027831076051" lon="3.2168924578888345"><ele>275.4</ele><time>2026-04-22T12:32:47Z</time></trkpt><trkpt lat="42.29018245600826" lon="3.2168469522169216"><ele>274.0</ele><time>2026-04-22T12:32:48Z</time></trkpt><trkpt lat="42.29007966780891" lon="3.216828444353053"><ele>274.0</ele><time>2026-04-22T12:32:49Z</time></trkpt><trkpt lat="42.2899708297849" lon="3.2168248103405834"><ele>274.0</ele><time>2026-04-22T12:32:50Z</time></trkpt><trkpt lat="42.28986039124484" lon="3.2168223432525362"><ele>274.0</ele><time>2026-04-22T12:32:51Z</time></trkpt><trkpt lat="42.28974869113677" lon="3.2168206864806708"><ele>274.0</ele><time>2026-04-22T12:32:52Z</time></trkpt><trkpt lat="42.289637210379766" lon="3.216819257058659"><ele>274.0</ele><time>2026-04-22T12:32:53Z</time></trkpt><trkpt lat="42.2895278194696" lon="3.216819713382506"><ele>275.2</ele><time>2026-04-22T12:32:54Z</time></trkpt><trkpt lat="42.289419436525826" lon="3.2168195800508794"><ele>276.4</ele><time>2026-04-22T12:32:55Z</time></trkpt><trkpt lat="42.289313339978634" lon="3.2168208810912406"><ele>277.6</ele><time>2026-04-22T12:32:56Z</time></trkpt><trkpt lat="42.289206571068114" lon="3.216820391942702"><ele>278.8</ele><time>2026-04-22T12:32:57Z</time></trkpt><trkpt lat="42.289101136178054" lon="3.216816362641716"><ele>280.0</ele><time>2026-04-22T12:32:58Z</time></trkpt><trkpt lat="42.28899487075691" lon="3.2167942563126672"><ele>283.2</ele><time>2026-04-22T12:32:59Z</time></trkpt><trkpt lat="42.28889117590178" lon="3.2167500594974805"><ele>286.4</ele><time>2026-04-22T12:33:00Z</time></trkpt><trkpt lat="42.288795253651074" lon="3.2166881569883343"><ele>289.6</ele><time>2026-04-22T12:33:01Z</time></trkpt><trkpt lat="42.28870127281746" lon="3.2166307244733243"><ele>292.8</ele><time>2026-04-22T12:33:02Z</time></trkpt><trkpt lat="42.288612364949714" lon="3.2165769392342547"><ele>296.0</ele><time>2026-04-22T12:33:03Z</time></trkpt><trkpt lat="42.288530816446574" lon="3.216524943241309"><ele>295.1666666666667</ele><time>2026-04-22T12:33:04Z</time></trkpt><trkpt lat="42.288464705530615" lon="3.2164563379638453"><ele>294.33333333333337</ele><time>2026-04-22T12:33:05Z</time></trkpt><trkpt lat="42.288421740653654" lon="3.216366261007241"><ele>293.5</ele><time>2026-04-22T12:33:06Z</time></trkpt><trkpt lat="42.28840482635077" lon="3.2162602427967073"><ele>292.6666666666667</ele><time>2026-04-22T12:33:07Z</time></trkpt><trkpt lat="42.28841325661553" lon="3.216150590171053"><ele>291.8333333333333</ele><time>2026-04-22T12:33:08Z</time></trkpt><trkpt lat="42.28846016169465" lon="3.216047928746304"><ele>291.0</ele><time>2026-04-22T12:33:09Z</time></trkpt><trkpt lat="42.28851970777249" lon="3.2159488815378046"><ele>291.0</ele><time>2026-04-22T12:33:10Z</time></trkpt><trkpt lat="42.288579099819685" lon="3.2158418436769396"><ele>291.0</ele><time>2026-04-22T12:33:11Z</time></trkpt><trkpt lat="42.28864074285261" lon="3.215730009730272"><ele>291.0</ele><time>2026-04-22T12:33:12Z</time></trkpt><trkpt lat="42.28870263440802" lon="3.2156160570699166"><ele>291.0</ele><time>2026-04-22T12:33:13Z</time></trkpt><trkpt lat="42.288760307522026" lon="3.21550388441286"><ele>291.0</ele><time>2026-04-22T12:33:14Z</time></trkpt><trkpt lat="42.28881463088271" lon="3.2153880618550095"><ele>290.2</ele><time>2026-04-22T12:33:15Z</time></trkpt><trkpt lat="42.28885804290359" lon="3.2152582087546846"><ele>289.40000000000003</ele><time>2026-04-22T12:33:16Z</time></trkpt><trkpt lat="42.28888871128701" lon="3.2151239276497225"><ele>288.6</ele><time>2026-04-22T12:33:17Z</time></trkpt><trkpt lat="42.28890956202799" lon="3.214986213179879"><ele>287.8</ele><time>2026-04-22T12:33:18Z</time></trkpt><trkpt lat="42.288928011847474" lon="3.2148457088699356"><ele>287.0</ele><time>2026-04-22T12:33:19Z</time></trkpt><trkpt lat="42.2889481594291" lon="3.2147045664047282"><ele>287.0</ele><time>2026-04-22T12:33:20Z</time></trkpt><trkpt lat="42.288965814992274" lon="3.2145705415073875"><ele>287.0</ele><time>2026-04-22T12:33:21Z</time></trkpt><trkpt lat="42.28897468073475" lon="3.214445879127516"><ele>287.0</ele><time>2026-04-22T12:33:22Z</time></trkpt><trkpt lat="42.28896361932905" lon="3.2143201072107153"><ele>287.0</ele><time>2026-04-22T12:33:23Z</time></trkpt><trkpt lat="42.288933533393866" lon="3.2141897422040344"><ele>287.0</ele><time>2026-04-22T12:33:24Z</time></trkpt><trkpt lat="42.288895286337194" lon="3.214050652925504"><ele>279.5</ele><time>2026-04-22T12:33:25Z</time></trkpt><trkpt lat="42.28886107882335" lon="3.213900880272893"><ele>272.0</ele><time>2026-04-22T12:33:26Z</time></trkpt><trkpt lat="42.28882475002061" lon="3.2137413229906557"><ele>264.5</ele><time>2026-04-22T12:33:27Z</time></trkpt><trkpt lat="42.28879546567389" lon="3.213575968585447"><ele>257.0</ele><time>2026-04-22T12:33:28Z</time></trkpt><trkpt lat="42.288766386042795" lon="3.213409567083199"><ele>257.0</ele><time>2026-04-22T12:33:29Z</time></trkpt><trkpt lat="42.28873723457499" lon="3.2132437902167563"><ele>257.0</ele><time>2026-04-22T12:33:30Z</time></trkpt><trkpt lat="42.288708954776574" lon="3.2130808369321286"><ele>257.0</ele><time>2026-04-22T12:33:31Z</time></trkpt><trkpt lat="42.28868008196465" lon="3.212922488121972"><ele>257.0</ele><time>2026-04-22T12:33:32Z</time></trkpt><trkpt lat="42.288652200833724" lon="3.212767486001547"><ele>257.8</ele><time>2026-04-22T12:33:33Z</time></trkpt><trkpt lat="42.28863231942835" lon="3.2126143288748925"><ele>258.6</ele><time>2026-04-22T12:33:34Z</time></trkpt><trkpt lat="42.28863788033067" lon="3.212465200789686"><ele>259.40000000000003</ele><time>2026-04-22T12:33:35Z</time></trkpt><trkpt lat="42.28866182184737" lon="3.2123266347548625"><ele>260.2</ele><time>2026-04-22T12:33:36Z</time></trkpt><trkpt lat="42.2886744910513" lon="3.212191962585334"><ele>261.0</ele><time>2026-04-22T12:33:37Z</time></trkpt><trkpt lat="42.288657981408214" lon="3.212053883405227"><ele>263.2</ele><time>2026-04-22T12:33:38Z</time></trkpt><trkpt lat="42.28861424260015" lon="3.2119191086711316"><ele>265.40000000000003</ele><time>2026-04-22T12:33:39Z</time></trkpt><trkpt lat="42.28856460521086" lon="3.2117843790522653"><ele>267.6</ele><time>2026-04-22T12:33:40Z</time></trkpt><trkpt lat="42.288511908190834" lon="3.2116503171691217"><ele>269.8</ele><time>2026-04-22T12:33:41Z</time></trkpt><trkpt lat="42.28846174659089" lon="3.2115214558559693"><ele>272.0</ele><time>2026-04-22T12:33:42Z</time></trkpt><trkpt lat="42.28841464425521" lon="3.2113970088734076"><ele>272.4</ele><time>2026-04-22T12:33:43Z</time></trkpt><trkpt lat="42.288373981049745" lon="3.211276374082805"><ele>272.79999999999995</ele><time>2026-04-22T12:33:44Z</time></trkpt><trkpt lat="42.28834395468698" lon="3.2111564382626145"><ele>273.2</ele><time>2026-04-22T12:33:45Z</time></trkpt><trkpt lat="42.288343149153434" lon="3.2110354431018995"><ele>273.59999999999997</ele><time>2026-04-22T12:33:46Z</time></trkpt><trkpt lat="42.288365250317035" lon="3.2109232033550184"><ele>274.0</ele><time>2026-04-22T12:33:47Z</time></trkpt><trkpt lat="42.2884155456746" lon="3.210821634152208"><ele>274.0</ele><time>2026-04-22T12:33:48Z</time></trkpt><trkpt lat="42.28848465940063" lon="3.2107331429368995"><ele>274.0</ele><time>2026-04-22T12:33:49Z</time></trkpt><trkpt lat="42.28856334061373" lon="3.21064919272492"><ele>274.0</ele><time>2026-04-22T12:33:50Z</time></trkpt><trkpt lat="42.28865248012031" lon="3.210568974294586"><ele>274.0</ele><time>2026-04-22T12:33:51Z</time></trkpt><trkpt lat="42.28874638225172" lon="3.2104852156914583"><ele>274.0</ele><time>2026-04-22T12:33:52Z</time></trkpt><trkpt lat="42.28884555363861" lon="3.2103961405748374"><ele>275.5</ele><time>2026-04-22T12:33:53Z</time></trkpt><trkpt lat="42.2889473347767" lon="3.210304656382801"><ele>277.0</ele><time>2026-04-22T12:33:54Z</time></trkpt><trkpt lat="42.28904646163519" lon="3.210214114427782"><ele>278.5</ele><time>2026-04-22T12:33:55Z</time></trkpt><trkpt lat="42.289138160521595" lon="3.2101166530997434"><ele>280.0</ele><time>2026-04-22T12:33:56Z</time></trkpt><trkpt lat="42.28921978834084" lon="3.2100015493579317"><ele>280.0</ele><time>2026-04-22T12:33:57Z</time></trkpt><trkpt lat="42.28929099549621" lon="3.2098784170602968"><ele>280.0</ele><time>2026-04-22T12:33:58Z</time></trkpt><trkpt lat="42.2893511518896" lon="3.2097408758096866"><ele>280.0</ele><time>2026-04-22T12:33:59Z</time></trkpt><trkpt lat="42.28939742942124" lon="3.20959132915313"><ele>280.0</ele><time>2026-04-22T12:34:00Z</time></trkpt><trkpt lat="42.289438017428786" lon="3.209438798495872"><ele>276.4</ele><time>2026-04-22T12:34:01Z</time></trkpt><trkpt lat="42.289474243554004" lon="3.209284474096744"><ele>272.8</ele><time>2026-04-22T12:34:02Z</time></trkpt><trkpt lat="42.289510349456705" lon="3.209136975748339"><ele>269.2</ele><time>2026-04-22T12:34:03Z</time></trkpt><trkpt lat="42.28954506958428" lon="3.2089960836312446"><ele>265.6</ele><time>2026-04-22T12:34:04Z</time></trkpt><trkpt lat="42.28958575979119" lon="3.2088665568895913"><ele>262.0</ele><time>2026-04-22T12:34:05Z</time></trkpt><trkpt lat="42.28963724450296" lon="3.2087472426155927"><ele>259.4</ele><time>2026-04-22T12:34:06Z</time></trkpt><trkpt lat="42.28970835878969" lon="3.2086443454075484"><ele>256.79999999999995</ele><time>2026-04-22T12:34:07Z</time></trkpt><trkpt lat="42.289789842941175" lon="3.2085519858775005"><ele>254.2</ele><time>2026-04-22T12:34:08Z</time></trkpt><trkpt lat="42.2898674814225" lon="3.208456598815076"><ele>251.6</ele><time>2026-04-22T12:34:09Z</time></trkpt><trkpt lat="42.28992564653462" lon="3.208346346936564"><ele>249.0</ele><time>2026-04-22T12:34:10Z</time></trkpt><trkpt lat="42.28996012786857" lon="3.2082227097317046"><ele>252.79999999999998</ele><time>2026-04-22T12:34:11Z</time></trkpt><trkpt lat="42.28998363632807" lon="3.2080955413415237"><ele>256.59999999999997</ele><time>2026-04-22T12:34:12Z</time></trkpt><trkpt lat="42.29000875037882" lon="3.2079702218356925"><ele>260.4</ele><time>2026-04-22T12:34:13Z</time></trkpt><trkpt lat="42.29006087572556" lon="3.2078592043363607"><ele>264.2</ele><time>2026-04-22T12:34:14Z</time></trkpt><trkpt lat="42.29013283308831" lon="3.2077745614290363"><ele>268.0</ele><time>2026-04-22T12:34:15Z</time></trkpt><trkpt lat="42.29023304487172" lon="3.2077533432324086"><ele>268.0</ele><time>2026-04-22T12:34:16Z</time></trkpt><trkpt lat="42.2903332512634" lon="3.2077847337081926"><ele>268.0</ele><time>2026-04-22T12:34:17Z</time></trkpt><trkpt lat="42.290432329830615" lon="3.207843094938579"><ele>268.0</ele><time>2026-04-22T12:34:18Z</time></trkpt><trkpt lat="42.2905360782824" lon="3.207909824987043"><ele>268.0</ele><time>2026-04-22T12:34:19Z</time></trkpt><trkpt lat="42.29064589953483" lon="3.2079800756082832"><ele>268.0</ele><time>2026-04-22T12:34:20Z</time></trkpt><trkpt lat="42.29075833838529" lon="3.208050363054803"><ele>264.5</ele><time>2026-04-22T12:34:21Z</time></trkpt><trkpt lat="42.29086616134213" lon="3.2081175118640037"><ele>261.0</ele><time>2026-04-22T12:34:22Z</time></trkpt><trkpt lat="42.29097421965371" lon="3.2081760149944154"><ele>257.5</ele><time>2026-04-22T12:34:23Z</time></trkpt><trkpt lat="42.29108567402784" lon="3.2082102003107016"><ele>254.0</ele><time>2026-04-22T12:34:24Z</time></trkpt><trkpt lat="42.29119886978951" lon="3.208215223375016"><ele>254.0</ele><time>2026-04-22T12:34:25Z</time></trkpt><trkpt lat="42.29131101092458" lon="3.2081936273173013"><ele>254.0</ele><time>2026-04-22T12:34:26Z</time></trkpt><trkpt lat="42.291414812799054" lon="3.2081404463616012"><ele>254.0</ele><time>2026-04-22T12:34:27Z</time></trkpt><trkpt lat="42.29152139173058" lon="3.2080662312577677"><ele>254.0</ele><time>2026-04-22T12:34:28Z</time></trkpt><trkpt lat="42.291632730763915" lon="3.2079900077231693"><ele>254.75</ele><time>2026-04-22T12:34:29Z</time></trkpt><trkpt lat="42.29174436637453" lon="3.2079196518222344"><ele>255.5</ele><time>2026-04-22T12:34:30Z</time></trkpt><trkpt lat="42.291856549467916" lon="3.207850840313374"><ele>256.25</ele><time>2026-04-22T12:34:31Z</time></trkpt><trkpt lat="42.29197827226151" lon="3.2077954727038156"><ele>257.0</ele><time>2026-04-22T12:34:32Z</time></trkpt><trkpt lat="42.29210808317822" lon="3.2077500800295664"><ele>257.0</ele><time>2026-04-22T12:34:33Z</time></trkpt><trkpt lat="42.292244707548456" lon="3.2077101744268357"><ele>257.0</ele><time>2026-04-22T12:34:34Z</time></trkpt><trkpt lat="42.292378090514376" lon="3.2076724801812926"><ele>257.0</ele><time>2026-04-22T12:34:35Z</time></trkpt><trkpt lat="42.292510982630134" lon="3.207635753808805"><ele>257.0</ele><time>2026-04-22T12:34:36Z</time></trkpt><trkpt lat="42.292641616497015" lon="3.2075941178147698"><ele>259.75</ele><time>2026-04-22T12:34:37Z</time></trkpt><trkpt lat="42.29277182735291" lon="3.2075553134213344"><ele>262.5</ele><time>2026-04-22T12:34:38Z</time></trkpt><trkpt lat="42.292901971083566" lon="3.2075400993458194"><ele>265.25</ele><time>2026-04-22T12:34:39Z</time></trkpt><trkpt lat="42.29303183719629" lon="3.2075491453725484"><ele>268.0</ele><time>2026-04-22T12:34:40Z</time></trkpt><trkpt lat="42.29316028483329" lon="3.2075642354131713"><ele>268.25</ele><time>2026-04-22T12:34:41Z</time></trkpt><trkpt lat="42.29328124594568" lon="3.2075742374508436"><ele>268.5</ele><time>2026-04-22T12:34:42Z</time></trkpt><trkpt lat="42.2933906313404" lon="3.207573404926876"><ele>268.75</ele><time>2026-04-22T12:34:43Z</time></trkpt><trkpt lat="42.293497743007045" lon="3.2075437188893026"><ele>269.0</ele><time>2026-04-22T12:34:44Z</time></trkpt><trkpt lat="42.293610515228835" lon="3.207488312237767"><ele>269.0</ele><time>2026-04-22T12:34:45Z</time></trkpt><trkpt lat="42.2937208491661" lon="3.2074194863229644"><ele>269.0</ele><time>2026-04-22T12:34:46Z</time></trkpt><trkpt lat="42.29382592739599" lon="3.207337054785373"><ele>269.0</ele><time>2026-04-22T12:34:47Z</time></trkpt><trkpt lat="42.29392410371948" lon="3.207219627886701"><ele>269.0</ele><time>2026-04-22T12:34:48Z</time></trkpt><trkpt lat="42.294019783430954" lon="3.2070948148884373"><ele>267.25</ele><time>2026-04-22T12:34:49Z</time></trkpt><trkpt lat="42.29411373184795" lon="3.206968347185442"><ele>265.5</ele><time>2026-04-22T12:34:50Z</time></trkpt><trkpt lat="42.29420649475873" lon="3.206842724611541"><ele>263.75</ele><time>2026-04-22T12:34:51Z</time></trkpt><trkpt lat="42.294298798512635" lon="3.2067145691737102"><ele>262.0</ele><time>2026-04-22T12:34:52Z</time></trkpt><trkpt lat="42.294387075665384" lon="3.2065849116793146"><ele>255.25</ele><time>2026-04-22T12:34:53Z</time></trkpt><trkpt lat="42.29447143786094" lon="3.206453029076637"><ele>248.5</ele><time>2026-04-22T12:34:54Z</time></trkpt><trkpt lat="42.29455243120426" lon="3.206321458390247"><ele>241.75</ele><time>2026-04-22T12:34:55Z</time></trkpt><trkpt lat="42.294633379294254" lon="3.2061910865297096"><ele>235.0</ele><time>2026-04-22T12:34:56Z</time></trkpt><trkpt lat="42.29471608922095" lon="3.206062338919392"><ele>236.0</ele><time>2026-04-22T12:34:57Z</time></trkpt><trkpt lat="42.294790985924635" lon="3.2059421545871776"><ele>237.0</ele><time>2026-04-22T12:34:58Z</time></trkpt><trkpt lat="42.29485761824035" lon="3.20582912223694"><ele>238.0</ele><time>2026-04-22T12:34:59Z</time></trkpt><trkpt lat="42.29491475003513" lon="3.2057179054540867"><ele>239.0</ele><time>2026-04-22T12:35:00Z</time></trkpt><trkpt lat="42.29496646341806" lon="3.2056057265101843"><ele>240.0</ele><time>2026-04-22T12:35:01Z</time></trkpt><trkpt lat="42.29502174850099" lon="3.2055060449897153"><ele>240.0</ele><time>2026-04-22T12:35:02Z</time></trkpt><trkpt lat="42.2950746995747" lon="3.205434521498073"><ele>240.0</ele><time>2026-04-22T12:35:03Z</time></trkpt><trkpt lat="42.295201513424395" lon="3.2053778945851845"><ele>240.0</ele><time>2026-04-22T12:35:05Z</time></trkpt><trkpt lat="42.29527810541827" lon="3.2053913707346515"><ele>240.0</ele><time>2026-04-22T12:35:06Z</time></trkpt><trkpt lat="42.29536067988999" lon="3.205422527719983"><ele>240.0</ele><time>2026-04-22T12:35:07Z</time></trkpt><trkpt lat="42.295455113682095" lon="3.205448134350851"><ele>240.0</ele><time>2026-04-22T12:35:08Z</time></trkpt><trkpt lat="42.29555689857773" lon="3.2054538794195513"><ele>240.0</ele><time>2026-04-22T12:35:09Z</time></trkpt><trkpt lat="42.29566096997061" lon="3.20545712158662"><ele>240.0</ele><time>2026-04-22T12:35:10Z</time></trkpt><trkpt lat="42.29575905341851" lon="3.205451666811945"><ele>240.0</ele><time>2026-04-22T12:35:11Z</time></trkpt><trkpt lat="42.29585221992704" lon="3.2054324231458904"><ele>240.0</ele><time>2026-04-22T12:35:12Z</time></trkpt><trkpt lat="42.29593651689236" lon="3.205379466235252"><ele>241.6</ele><time>2026-04-22T12:35:13Z</time></trkpt><trkpt lat="42.29600970119292" lon="3.20530142111183"><ele>243.2</ele><time>2026-04-22T12:35:14Z</time></trkpt><trkpt lat="42.29605388231936" lon="3.205186703168283"><ele>244.8</ele><time>2026-04-22T12:35:15Z</time></trkpt><trkpt lat="42.29605982413274" lon="3.205048288949773"><ele>246.4</ele><time>2026-04-22T12:35:16Z</time></trkpt><trkpt lat="42.296047264757604" lon="3.2049153195222115"><ele>248.0</ele><time>2026-04-22T12:35:17Z</time></trkpt><trkpt lat="42.296043499916124" lon="3.204775484924515"><ele>248.0</ele><time>2026-04-22T12:35:18Z</time></trkpt><trkpt lat="42.29603177357373" lon="3.204624500889015"><ele>248.0</ele><time>2026-04-22T12:35:19Z</time></trkpt><trkpt lat="42.296004907489376" lon="3.2044756517369684"><ele>248.0</ele><time>2026-04-22T12:35:20Z</time></trkpt><trkpt lat="42.29597332659604" lon="3.204326681648047"><ele>248.0</ele><time>2026-04-22T12:35:21Z</time></trkpt><trkpt lat="42.29593297310233" lon="3.2041774133847607"><ele>248.0</ele><time>2026-04-22T12:35:22Z</time></trkpt><trkpt lat="42.29589360493496" lon="3.2040346635021737"><ele>248.0</ele><time>2026-04-22T12:35:23Z</time></trkpt><trkpt lat="42.29586206667229" lon="3.2039029228287035"><ele>248.0</ele><time>2026-04-22T12:35:24Z</time></trkpt><trkpt lat="42.29583754104428" lon="3.203788306526884"><ele>248.0</ele><time>2026-04-22T12:35:25Z</time></trkpt><trkpt lat="42.29582877054617" lon="3.203682562378627"><ele>248.0</ele><time>2026-04-22T12:35:26Z</time></trkpt><trkpt lat="42.29584912716889" lon="3.2035678687642393"><ele>247.0</ele><time>2026-04-22T12:35:27Z</time></trkpt><trkpt lat="42.29589930755581" lon="3.203458385166709"><ele>246.0</ele><time>2026-04-22T12:35:28Z</time></trkpt><trkpt lat="42.29595928975887" lon="3.2033527492363776"><ele>245.0</ele><time>2026-04-22T12:35:29Z</time></trkpt><trkpt lat="42.29600786227213" lon="3.203231003834438"><ele>244.0</ele><time>2026-04-22T12:35:30Z</time></trkpt><trkpt lat="42.29603881118481" lon="3.203097833970662"><ele>243.0</ele><time>2026-04-22T12:35:31Z</time></trkpt><trkpt lat="42.296065321367024" lon="3.202957137698809"><ele>239.8</ele><time>2026-04-22T12:35:32Z</time></trkpt><trkpt lat="42.296082755262134" lon="3.2028091961941603"><ele>236.60000000000002</ele><time>2026-04-22T12:35:33Z</time></trkpt><trkpt lat="42.29609089822901" lon="3.2026624035663933"><ele>233.39999999999998</ele><time>2026-04-22T12:35:34Z</time></trkpt><trkpt lat="42.29610120958756" lon="3.2025319280784226"><ele>230.2</ele><time>2026-04-22T12:35:35Z</time></trkpt><trkpt lat="42.29613009302159" lon="3.202408300695978"><ele>227.0</ele><time>2026-04-22T12:35:36Z</time></trkpt><trkpt lat="42.29618025634476" lon="3.2023032758402885"><ele>227.8</ele><time>2026-04-22T12:35:37Z</time></trkpt><trkpt lat="42.29625060501078" lon="3.2022116057773036"><ele>228.6</ele><time>2026-04-22T12:35:38Z</time></trkpt><trkpt lat="42.29633683438151" lon="3.202139575084355"><ele>229.40000000000003</ele><time>2026-04-22T12:35:39Z</time></trkpt><trkpt lat="42.29643538124372" lon="3.202082471115977"><ele>230.20000000000002</ele><time>2026-04-22T12:35:40Z</time></trkpt><trkpt lat="42.29654299088429" lon="3.2020350038337"><ele>231.0</ele><time>2026-04-22T12:35:41Z</time></trkpt><trkpt lat="42.2966505257906" lon="3.2019852882200572"><ele>231.0</ele><time>2026-04-22T12:35:42Z</time></trkpt><trkpt lat="42.296757111189635" lon="3.2019314397130887"><ele>231.0</ele><time>2026-04-22T12:35:43Z</time></trkpt><trkpt lat="42.29685692534244" lon="3.2018589460265625"><ele>231.0</ele><time>2026-04-22T12:35:44Z</time></trkpt><trkpt lat="42.29694665654056" lon="3.2017682696548717"><ele>231.0</ele><time>2026-04-22T12:35:45Z</time></trkpt><trkpt lat="42.297025889934176" lon="3.2016611971500524"><ele>231.0</ele><time>2026-04-22T12:35:46Z</time></trkpt><trkpt lat="42.29708414349788" lon="3.2015650655027943"><ele>231.00000000000003</ele><time>2026-04-22T12:35:47Z</time></trkpt><trkpt lat="42.29711726790997" lon="3.2014538208023633"><ele>231.00000000000003</ele><time>2026-04-22T12:35:48Z</time></trkpt><trkpt lat="42.297126221500434" lon="3.2013299774606088"><ele>231.0</ele><time>2026-04-22T12:35:49Z</time></trkpt><trkpt lat="42.297094654692714" lon="3.201205245238828"><ele>231.0</ele><time>2026-04-22T12:35:50Z</time></trkpt><trkpt lat="42.29702752115167" lon="3.201100159066887"><ele>229.75</ele><time>2026-04-22T12:35:51Z</time></trkpt><trkpt lat="42.296939940614116" lon="3.201009923167963"><ele>228.5</ele><time>2026-04-22T12:35:52Z</time></trkpt><trkpt lat="42.29685657432368" lon="3.200901003971685"><ele>227.25</ele><time>2026-04-22T12:35:53Z</time></trkpt><trkpt lat="42.2967775158041" lon="3.200767770839516"><ele>226.0</ele><time>2026-04-22T12:35:54Z</time></trkpt><trkpt lat="42.296699813476046" lon="3.2006317372811868"><ele>224.25</ele><time>2026-04-22T12:35:55Z</time></trkpt><trkpt lat="42.2966186581834" lon="3.200496049291704"><ele>222.5</ele><time>2026-04-22T12:35:56Z</time></trkpt><trkpt lat="42.29653212018332" lon="3.200367540297669"><ele>220.75</ele><time>2026-04-22T12:35:57Z</time></trkpt><trkpt lat="42.29642996095783" lon="3.2002515328651513"><ele>219.0</ele><time>2026-04-22T12:35:58Z</time></trkpt><trkpt lat="42.296323035387594" lon="3.200145576109718"><ele>219.0</ele><time>2026-04-22T12:35:59Z</time></trkpt><trkpt lat="42.296203847167945" lon="3.2000594609722905"><ele>219.0</ele><time>2026-04-22T12:36:00Z</time></trkpt><trkpt lat="42.29607402636691" lon="3.1999994177949747"><ele>219.0</ele><time>2026-04-22T12:36:01Z</time></trkpt><trkpt lat="42.29593864627689" lon="3.1999574567785047"><ele>219.0</ele><time>2026-04-22T12:36:02Z</time></trkpt><trkpt lat="42.29580419365797" lon="3.199899899749807"><ele>216.25</ele><time>2026-04-22T12:36:03Z</time></trkpt><trkpt lat="42.2956716379301" lon="3.1998291357165107"><ele>213.5</ele><time>2026-04-22T12:36:04Z</time></trkpt><trkpt lat="42.29554347609009" lon="3.1997608450148576"><ele>210.75</ele><time>2026-04-22T12:36:05Z</time></trkpt><trkpt lat="42.29542376244231" lon="3.1996972957706977"><ele>208.0</ele><time>2026-04-22T12:36:06Z</time></trkpt><trkpt lat="42.295315590413146" lon="3.1996419244392067"><ele>208.0</ele><time>2026-04-22T12:36:07Z</time></trkpt><trkpt lat="42.29521374160207" lon="3.1995944571121084"><ele>208.0</ele><time>2026-04-22T12:36:08Z</time></trkpt><trkpt lat="42.295121936166474" lon="3.199564500835514"><ele>208.0</ele><time>2026-04-22T12:36:09Z</time></trkpt><trkpt lat="42.29503290615616" lon="3.199561167262569"><ele>208.0</ele><time>2026-04-22T12:36:10Z</time></trkpt><trkpt lat="42.294945443755594" lon="3.199560060843247"><ele>208.0</ele><time>2026-04-22T12:36:11Z</time></trkpt><trkpt lat="42.29487577282052" lon="3.1995170916826794"><ele>207.99999999999997</ele><time>2026-04-22T12:36:12Z</time></trkpt><trkpt lat="42.294833705498554" lon="3.1994358049158547"><ele>208.0</ele><time>2026-04-22T12:36:13Z</time></trkpt><trkpt lat="42.29482356082647" lon="3.199336108610731"><ele>208.0</ele><time>2026-04-22T12:36:14Z</time></trkpt><trkpt lat="42.29485249701839" lon="3.1992396445434643"><ele>208.0</ele><time>2026-04-22T12:36:15Z</time></trkpt><trkpt lat="42.29491587653343" lon="3.1991630218948455"><ele>207.99999999999997</ele><time>2026-04-22T12:36:16Z</time></trkpt><trkpt lat="42.29499646286496" lon="3.1990986614189922"><ele>208.0</ele><time>2026-04-22T12:36:17Z</time></trkpt><trkpt lat="42.295089039554576" lon="3.19903915863799"><ele>202.75</ele><time>2026-04-22T12:36:18Z</time></trkpt><trkpt lat="42.29519308205326" lon="3.198981721861609"><ele>197.5</ele><time>2026-04-22T12:36:19Z</time></trkpt><trkpt lat="42.295297907545404" lon="3.1989195500706953"><ele>192.25</ele><time>2026-04-22T12:36:20Z</time></trkpt><trkpt lat="42.29540241900978" lon="3.198861817864405"><ele>187.0</ele><time>2026-04-22T12:36:21Z</time></trkpt><trkpt lat="42.29550554900914" lon="3.1988052341468345"><ele>191.6</ele><time>2026-04-22T12:36:22Z</time></trkpt><trkpt lat="42.295598380191855" lon="3.1987206342362446"><ele>196.2</ele><time>2026-04-22T12:36:23Z</time></trkpt><trkpt lat="42.29567561437073" lon="3.19861103317879"><ele>200.8</ele><time>2026-04-22T12:36:24Z</time></trkpt><trkpt lat="42.29573914835171" lon="3.1984833301209314"><ele>205.4</ele><time>2026-04-22T12:36:25Z</time></trkpt><trkpt lat="42.29579929150121" lon="3.1983572338363215"><ele>210.0</ele><time>2026-04-22T12:36:26Z</time></trkpt><trkpt lat="42.29586752234081" lon="3.198249581045314"><ele>205.4</ele><time>2026-04-22T12:36:27Z</time></trkpt><trkpt lat="42.29594994653982" lon="3.1981610049816838"><ele>200.8</ele><time>2026-04-22T12:36:28Z</time></trkpt><trkpt lat="42.2960448206054" lon="3.1980978046990933"><ele>196.2</ele><time>2026-04-22T12:36:29Z</time></trkpt><trkpt lat="42.29613917380599" lon="3.198035658915791"><ele>191.6</ele><time>2026-04-22T12:36:30Z</time></trkpt><trkpt lat="42.29621805064032" lon="3.1979466570452773"><ele>187.0</ele><time>2026-04-22T12:36:31Z</time></trkpt><trkpt lat="42.296290423475895" lon="3.1978539046188548"><ele>187.0</ele><time>2026-04-22T12:36:32Z</time></trkpt><trkpt lat="42.296353461095904" lon="3.197762924398003"><ele>187.0</ele><time>2026-04-22T12:36:33Z</time></trkpt><trkpt lat="42.2964070645378" lon="3.1976739238679537"><ele>187.0</ele><time>2026-04-22T12:36:34Z</time></trkpt><trkpt lat="42.29643885049844" lon="3.197567154202542"><ele>187.0</ele><time>2026-04-22T12:36:35Z</time></trkpt><trkpt lat="42.29644578091983" lon="3.197449196338056"><ele>187.0</ele><time>2026-04-22T12:36:36Z</time></trkpt><trkpt lat="42.2964197441219" lon="3.1973342399225206"><ele>187.0</ele><time>2026-04-22T12:36:37Z</time></trkpt><trkpt lat="42.29636841239529" lon="3.1972345727374685"><ele>187.8</ele><time>2026-04-22T12:36:38Z</time></trkpt><trkpt lat="42.29629640908055" lon="3.1971600202619967"><ele>188.6</ele><time>2026-04-22T12:36:39Z</time></trkpt><trkpt lat="42.29622369129144" lon="3.197094292888381"><ele>189.4</ele><time>2026-04-22T12:36:40Z</time></trkpt><trkpt lat="42.29616192284227" lon="3.1970133648977876"><ele>190.20000000000002</ele><time>2026-04-22T12:36:41Z</time></trkpt><trkpt lat="42.29611464655572" lon="3.196904142478033"><ele>191.0</ele><time>2026-04-22T12:36:42Z</time></trkpt><trkpt lat="42.29607489496363" lon="3.196781213703212"><ele>191.0</ele><time>2026-04-22T12:36:43Z</time></trkpt><trkpt lat="42.29604485565417" lon="3.1966469109653985"><ele>191.0</ele><time>2026-04-22T12:36:44Z</time></trkpt><trkpt lat="42.29601496645323" lon="3.1965127711640977"><ele>191.0</ele><time>2026-04-22T12:36:45Z</time></trkpt><trkpt lat="42.29598180845463" lon="3.1963963324592024"><ele>191.0</ele><time>2026-04-22T12:36:46Z</time></trkpt><trkpt lat="42.29592887534487" lon="3.1962856577213974"><ele>191.0</ele><time>2026-04-22T12:36:47Z</time></trkpt><trkpt lat="42.295854257214394" lon="3.196197544233462"><ele>189.20000000000002</ele><time>2026-04-22T12:36:48Z</time></trkpt><trkpt lat="42.29576250364587" lon="3.196143100824446"><ele>187.4</ele><time>2026-04-22T12:36:49Z</time></trkpt><trkpt lat="42.29566441258615" lon="3.1960972968532335"><ele>185.6</ele><time>2026-04-22T12:36:50Z</time></trkpt><trkpt lat="42.295567875629146" lon="3.196041848068463"><ele>183.8</ele><time>2026-04-22T12:36:51Z</time></trkpt><trkpt lat="42.295466783250426" lon="3.1959832623838142"><ele>182.0</ele><time>2026-04-22T12:36:52Z</time></trkpt><trkpt lat="42.295356312453094" lon="3.195918653766641"><ele>182.0</ele><time>2026-04-22T12:36:53Z</time></trkpt><trkpt lat="42.295239220947394" lon="3.1958493196645006"><ele>182.0</ele><time>2026-04-22T12:36:54Z</time></trkpt><trkpt lat="42.29512340499523" lon="3.1957788980717843"><ele>182.0</ele><time>2026-04-22T12:36:55Z</time></trkpt><trkpt lat="42.29500763126578" lon="3.195712377087441"><ele>182.0</ele><time>2026-04-22T12:36:56Z</time></trkpt><trkpt lat="42.29489408499855" lon="3.1956379783322526"><ele>180.0</ele><time>2026-04-22T12:36:57Z</time></trkpt><trkpt lat="42.29479083286969" lon="3.1955367751689714"><ele>178.0</ele><time>2026-04-22T12:36:58Z</time></trkpt><trkpt lat="42.29469994587249" lon="3.1954142793901914"><ele>176.0</ele><time>2026-04-22T12:36:59Z</time></trkpt><trkpt lat="42.2946127142965" lon="3.195287689480326"><ele>174.0</ele><time>2026-04-22T12:37:00Z</time></trkpt><trkpt lat="42.29451975752198" lon="3.1951658334749307"><ele>174.0</ele><time>2026-04-22T12:37:01Z</time></trkpt><trkpt lat="42.294431353804846" lon="3.1950475070355577"><ele>174.0</ele><time>2026-04-22T12:37:02Z</time></trkpt><trkpt lat="42.294346276756706" lon="3.19493501870363"><ele>174.0</ele><time>2026-04-22T12:37:03Z</time></trkpt><trkpt lat="42.29426242153782" lon="3.1948264750980973"><ele>174.0</ele><time>2026-04-22T12:37:04Z</time></trkpt><trkpt lat="42.29418139244252" lon="3.194719515776853"><ele>176.39999999999998</ele><time>2026-04-22T12:37:05Z</time></trkpt><trkpt lat="42.29410590937437" lon="3.1946176254739327"><ele>178.8</ele><time>2026-04-22T12:37:06Z</time></trkpt><trkpt lat="42.29403661360245" lon="3.194525059113818"><ele>181.2</ele><time>2026-04-22T12:37:07Z</time></trkpt><trkpt lat="42.29397175993426" lon="3.19442152594706"><ele>183.60000000000002</ele><time>2026-04-22T12:37:08Z</time></trkpt><trkpt lat="42.29392360381512" lon="3.194295204213223"><ele>186.0</ele><time>2026-04-22T12:37:09Z</time></trkpt><trkpt lat="42.29389461804448" lon="3.1941563033441973"><ele>179.0</ele><time>2026-04-22T12:37:10Z</time></trkpt><trkpt lat="42.29386687308003" lon="3.194006658816477"><ele>172.0</ele><time>2026-04-22T12:37:11Z</time></trkpt><trkpt lat="42.29384474370238" lon="3.193853853977002"><ele>165.0</ele><time>2026-04-22T12:37:12Z</time></trkpt><trkpt lat="42.293840394183526" lon="3.193699842240168"><ele>158.0</ele><time>2026-04-22T12:37:13Z</time></trkpt><trkpt lat="42.293853839026184" lon="3.193558846553201"><ele>151.0</ele><time>2026-04-22T12:37:14Z</time></trkpt><trkpt lat="42.293888515272265" lon="3.1934161630069062"><ele>150.75</ele><time>2026-04-22T12:37:15Z</time></trkpt><trkpt lat="42.29393687691687" lon="3.193274709033383"><ele>150.5</ele><time>2026-04-22T12:37:16Z</time></trkpt><trkpt lat="42.29399806014836" lon="3.1931439026841746"><ele>150.25</ele><time>2026-04-22T12:37:17Z</time></trkpt><trkpt lat="42.29408184381136" lon="3.1930348849963583"><ele>150.0</ele><time>2026-04-22T12:37:18Z</time></trkpt><trkpt lat="42.29418625043383" lon="3.1929665227390926"><ele>150.0</ele><time>2026-04-22T12:37:19Z</time></trkpt><trkpt lat="42.29429887446208" lon="3.1929241238441155"><ele>150.0</ele><time>2026-04-22T12:37:20Z</time></trkpt><trkpt lat="42.29441269331214" lon="3.1928936257220357"><ele>150.0</ele><time>2026-04-22T12:37:21Z</time></trkpt><trkpt lat="42.294526287032575" lon="3.192860716166877"><ele>150.0</ele><time>2026-04-22T12:37:22Z</time></trkpt><trkpt lat="42.29463853549112" lon="3.19282986034363"><ele>150.0</ele><time>2026-04-22T12:37:23Z</time></trkpt><trkpt lat="42.29474922646496" lon="3.192799264070152"><ele>150.0</ele><time>2026-04-22T12:37:24Z</time></trkpt><trkpt lat="42.294857115547174" lon="3.1927662377326738"><ele>150.0</ele><time>2026-04-22T12:37:25Z</time></trkpt><trkpt lat="42.294965581422304" lon="3.1927300008788033"><ele>150.0</ele><time>2026-04-22T12:37:26Z</time></trkpt><trkpt lat="42.29507387988037" lon="3.1926977839477315"><ele>150.0</ele><time>2026-04-22T12:37:27Z</time></trkpt><trkpt lat="42.29518410032305" lon="3.1926646036475357"><ele>151.0</ele><time>2026-04-22T12:37:28Z</time></trkpt><trkpt lat="42.295295755813285" lon="3.192640095942464"><ele>152.0</ele><time>2026-04-22T12:37:29Z</time></trkpt><trkpt lat="42.2954122165712" lon="3.1926330708525184"><ele>153.0</ele><time>2026-04-22T12:37:30Z</time></trkpt><trkpt lat="42.295526879306294" lon="3.1926354164064095"><ele>154.0</ele><time>2026-04-22T12:37:31Z</time></trkpt><trkpt lat="42.295640710636576" lon="3.1926406004366976"><ele>154.5</ele><time>2026-04-22T12:37:32Z</time></trkpt><trkpt lat="42.29575706674089" lon="3.192645860250953"><ele>155.0</ele><time>2026-04-22T12:37:33Z</time></trkpt><trkpt lat="42.29587481672474" lon="3.192651364976408"><ele>155.5</ele><time>2026-04-22T12:37:34Z</time></trkpt><trkpt lat="42.29599158665242" lon="3.1926567505977133"><ele>156.0</ele><time>2026-04-22T12:37:35Z</time></trkpt><trkpt lat="42.29609946814616" lon="3.1926624919854922"><ele>156.0</ele><time>2026-04-22T12:37:36Z</time></trkpt><trkpt lat="42.2961988887028" lon="3.1926876147245844"><ele>156.0</ele><time>2026-04-22T12:37:37Z</time></trkpt><trkpt lat="42.29628686459964" lon="3.1927394339602384"><ele>156.0</ele><time>2026-04-22T12:37:38Z</time></trkpt><trkpt lat="42.296366576071236" lon="3.192790047433361"><ele>156.0</ele><time>2026-04-22T12:37:39Z</time></trkpt><trkpt lat="42.29644361240338" lon="3.1928102747936564"><ele>156.0</ele><time>2026-04-22T12:37:40Z</time></trkpt><trkpt lat="42.29651580869714" lon="3.1927943320134777"><ele>156.0</ele><time>2026-04-22T12:37:41Z</time></trkpt><trkpt lat="42.29658221875848" lon="3.1927415021404006"><ele>157.83333333333334</ele><time>2026-04-22T12:37:42Z</time></trkpt><trkpt lat="42.29661557327405" lon="3.192642840707081"><ele>159.66666666666666</ele><time>2026-04-22T12:37:43Z</time></trkpt><trkpt lat="42.2966160524203" lon="3.192543480113739"><ele>161.5</ele><time>2026-04-22T12:37:44Z</time></trkpt><trkpt lat="42.29659861048342" lon="3.1924432206419144"><ele>163.33333333333331</ele><time>2026-04-22T12:37:45Z</time></trkpt><trkpt lat="42.296551179914815" lon="3.1923530718692756"><ele>165.16666666666666</ele><time>2026-04-22T12:37:46Z</time></trkpt><trkpt lat="42.29648288646118" lon="3.192269266568259"><ele>167.0</ele><time>2026-04-22T12:37:47Z</time></trkpt><trkpt lat="42.29641109359489" lon="3.1921762519891144"><ele>160.75</ele><time>2026-04-22T12:37:48Z</time></trkpt><trkpt lat="42.29634132297099" lon="3.1920651673947718"><ele>154.5</ele><time>2026-04-22T12:37:49Z</time></trkpt><trkpt lat="42.296262828752546" lon="3.191950758442228"><ele>148.25</ele><time>2026-04-22T12:37:50Z</time></trkpt><trkpt lat="42.29618727786694" lon="3.1918272986923912"><ele>142.0</ele><time>2026-04-22T12:37:51Z</time></trkpt><trkpt lat="42.29611753138828" lon="3.1916999748372525"><ele>142.0</ele><time>2026-04-22T12:37:52Z</time></trkpt><trkpt lat="42.29604728062776" lon="3.191569389739059"><ele>142.0</ele><time>2026-04-22T12:37:53Z</time></trkpt><trkpt lat="42.29597160813596" lon="3.191441887802385"><ele>142.0</ele><time>2026-04-22T12:37:54Z</time></trkpt><trkpt lat="42.29588471420622" lon="3.1913226759732103"><ele>142.0</ele><time>2026-04-22T12:37:55Z</time></trkpt><trkpt lat="42.29579610035139" lon="3.1912045110505516"><ele>143.4</ele><time>2026-04-22T12:37:56Z</time></trkpt><trkpt lat="42.295707009157596" lon="3.1910990620194046"><ele>144.79999999999998</ele><time>2026-04-22T12:37:57Z</time></trkpt><trkpt lat="42.295622908724766" lon="3.191004854239898"><ele>146.2</ele><time>2026-04-22T12:37:58Z</time></trkpt><trkpt lat="42.29554288611597" lon="3.1909175373986893"><ele>147.6</ele><time>2026-04-22T12:37:59Z</time></trkpt><trkpt lat="42.29546648749989" lon="3.1908303606769133"><ele>149.0</ele><time>2026-04-22T12:38:00Z</time></trkpt><trkpt lat="42.295399506832304" lon="3.19072015141333"><ele>145.0</ele><time>2026-04-22T12:38:01Z</time></trkpt><trkpt lat="42.29534134659329" lon="3.1905914374548785"><ele>141.0</ele><time>2026-04-22T12:38:02Z</time></trkpt><trkpt lat="42.29529453448875" lon="3.1904556174839183"><ele>137.0</ele><time>2026-04-22T12:38:03Z</time></trkpt><trkpt lat="42.295262198391235" lon="3.1903107689557118"><ele>133.0</ele><time>2026-04-22T12:38:04Z</time></trkpt><trkpt lat="42.295232009197306" lon="3.1901644738980868"><ele>129.0</ele><time>2026-04-22T12:38:05Z</time></trkpt><trkpt lat="42.295205111547325" lon="3.1900053151993712"><ele>129.0</ele><time>2026-04-22T12:38:06Z</time></trkpt><trkpt lat="42.29517706305356" lon="3.189850141756994"><ele>129.0</ele><time>2026-04-22T12:38:07Z</time></trkpt><trkpt lat="42.29515237595234" lon="3.1897038894412146"><ele>129.0</ele><time>2026-04-22T12:38:08Z</time></trkpt><trkpt lat="42.2951389086459" lon="3.189566415324606"><ele>129.0</ele><time>2026-04-22T12:38:09Z</time></trkpt><trkpt lat="42.29514024324929" lon="3.189444201422808"><ele>129.0</ele><time>2026-04-22T12:38:10Z</time></trkpt><trkpt lat="42.295165974930605" lon="3.189331836764228"><ele>128.0</ele><time>2026-04-22T12:38:11Z</time></trkpt><trkpt lat="42.29522049604975" lon="3.1892235674180016"><ele>127.0</ele><time>2026-04-22T12:38:12Z</time></trkpt><trkpt lat="42.29529020265673" lon="3.189139825756572"><ele>126.0</ele><time>2026-04-22T12:38:13Z</time></trkpt><trkpt lat="42.295377377124" lon="3.1890699684500907"><ele>125.0</ele><time>2026-04-22T12:38:14Z</time></trkpt><trkpt lat="42.29546932667133" lon="3.1890066021686625"><ele>124.0</ele><time>2026-04-22T12:38:15Z</time></trkpt><trkpt lat="42.29556488219691" lon="3.18894594467862"><ele>124.6</ele><time>2026-04-22T12:38:16Z</time></trkpt><trkpt lat="42.2956564189731" lon="3.1888823838318965"><ele>125.2</ele><time>2026-04-22T12:38:17Z</time></trkpt><trkpt lat="42.29574176405056" lon="3.1888222296233617"><ele>125.79999999999998</ele><time>2026-04-22T12:38:18Z</time></trkpt><trkpt lat="42.29581724851369" lon="3.1887638551019353"><ele>126.39999999999999</ele><time>2026-04-22T12:38:19Z</time></trkpt><trkpt lat="42.29587567905891" lon="3.188685371907135"><ele>127.0</ele><time>2026-04-22T12:38:20Z</time></trkpt><trkpt lat="42.295913109045195" lon="3.1885871949490396"><ele>127.0</ele><time>2026-04-22T12:38:21Z</time></trkpt><trkpt lat="42.29591037491296" lon="3.188475067742217"><ele>126.99999999999999</ele><time>2026-04-22T12:38:22Z</time></trkpt><trkpt lat="42.29587495593059" lon="3.188372180507535"><ele>126.99999999999999</ele><time>2026-04-22T12:38:23Z</time></trkpt><trkpt lat="42.29581173012063" lon="3.188282648048211"><ele>127.0</ele><time>2026-04-22T12:38:24Z</time></trkpt><trkpt lat="42.29572590379016" lon="3.188217431550592"><ele>127.0</ele><time>2026-04-22T12:38:25Z</time></trkpt><trkpt lat="42.29562954372507" lon="3.1881762300169623"><ele>125.8</ele><time>2026-04-22T12:38:26Z</time></trkpt><trkpt lat="42.29553026012293" lon="3.1881296882085786"><ele>124.6</ele><time>2026-04-22T12:38:27Z</time></trkpt><trkpt lat="42.29543582734056" lon="3.1880798438089264"><ele>123.39999999999999</ele><time>2026-04-22T12:38:28Z</time></trkpt><trkpt lat="42.29534393271986" lon="3.1880204918549935"><ele>122.19999999999999</ele><time>2026-04-22T12:38:29Z</time></trkpt><trkpt lat="42.29526220161642" lon="3.187937283627039"><ele>121.0</ele><time>2026-04-22T12:38:30Z</time></trkpt><trkpt lat="42.295190828557516" lon="3.1878360564038126"><ele>121.0</ele><time>2026-04-22T12:38:31Z</time></trkpt><trkpt lat="42.29511681772919" lon="3.1877375088299766"><ele>121.0</ele><time>2026-04-22T12:38:32Z</time></trkpt><trkpt lat="42.29504268312129" lon="3.187637525393097"><ele>121.0</ele><time>2026-04-22T12:38:33Z</time></trkpt><trkpt lat="42.29496486431348" lon="3.1875291040660536"><ele>121.0</ele><time>2026-04-22T12:38:34Z</time></trkpt><trkpt lat="42.294882048215605" lon="3.187419991189903"><ele>121.0</ele><time>2026-04-22T12:38:35Z</time></trkpt><trkpt lat="42.2948000799674" lon="3.1873096424730822"><ele>118.5</ele><time>2026-04-22T12:38:36Z</time></trkpt><trkpt lat="42.29472152840292" lon="3.187188669582293"><ele>116.0</ele><time>2026-04-22T12:38:37Z</time></trkpt><trkpt lat="42.29466179766345" lon="3.187045983302005"><ele>113.5</ele><time>2026-04-22T12:38:38Z</time></trkpt><trkpt lat="42.294620273312795" lon="3.1868920949022157"><ele>111.0</ele><time>2026-04-22T12:38:39Z</time></trkpt><trkpt lat="42.29458170529095" lon="3.186744347862847"><ele>111.0</ele><time>2026-04-22T12:38:40Z</time></trkpt><trkpt lat="42.29454341556259" lon="3.186618094912212"><ele>111.0</ele><time>2026-04-22T12:38:41Z</time></trkpt><trkpt lat="42.29448428957093" lon="3.1865094153878646"><ele>111.0</ele><time>2026-04-22T12:38:42Z</time></trkpt><trkpt lat="42.29439473532545" lon="3.186429085827425"><ele>111.0</ele><time>2026-04-22T12:38:43Z</time></trkpt><trkpt lat="42.294291751038315" lon="3.186382278646859"><ele>111.0</ele><time>2026-04-22T12:38:44Z</time></trkpt><trkpt lat="42.294184621302094" lon="3.186352561148861"><ele>112.6</ele><time>2026-04-22T12:38:45Z</time></trkpt><trkpt lat="42.29407804632553" lon="3.186311370756465"><ele>114.19999999999999</ele><time>2026-04-22T12:38:46Z</time></trkpt><trkpt lat="42.293978974105464" lon="3.1862690726150715"><ele>115.80000000000001</ele><time>2026-04-22T12:38:47Z</time></trkpt><trkpt lat="42.293890489104896" lon="3.1862079017024674"><ele>117.4</ele><time>2026-04-22T12:38:48Z</time></trkpt><trkpt lat="42.29382395742863" lon="3.186120568129352"><ele>119.0</ele><time>2026-04-22T12:38:49Z</time></trkpt><trkpt lat="42.293782116148776" lon="3.1860011456034782"><ele>119.4</ele><time>2026-04-22T12:38:50Z</time></trkpt><trkpt lat="42.29375667769052" lon="3.1858726430981488"><ele>119.80000000000001</ele><time>2026-04-22T12:38:51Z</time></trkpt><trkpt lat="42.29372388081009" lon="3.1857505269144384"><ele>120.19999999999999</ele><time>2026-04-22T12:38:52Z</time></trkpt><trkpt lat="42.29367454274421" lon="3.185652691509568"><ele>120.6</ele><time>2026-04-22T12:38:53Z</time></trkpt><trkpt lat="42.29360355451316" lon="3.1855933811214925"><ele>121.0</ele><time>2026-04-22T12:38:54Z</time></trkpt><trkpt lat="42.29351546575446" lon="3.185573328297346"><ele>121.0</ele><time>2026-04-22T12:38:55Z</time></trkpt><trkpt lat="42.293425159280595" lon="3.1855917382997068"><ele>121.0</ele><time>2026-04-22T12:38:56Z</time></trkpt><trkpt lat="42.29333720089541" lon="3.1856121059240126"><ele>121.0</ele><time>2026-04-22T12:38:57Z</time></trkpt><trkpt lat="42.293244184754926" lon="3.185610654632217"><ele>121.0</ele><time>2026-04-22T12:38:58Z</time></trkpt><trkpt lat="42.29314999427484" lon="3.1855876886403967"><ele>121.0</ele><time>2026-04-22T12:38:59Z</time></trkpt><trkpt lat="42.29305287835634" lon="3.1855508922401437"><ele>115.75</ele><time>2026-04-22T12:39:00Z</time></trkpt><trkpt lat="42.29294870678231" lon="3.185499773361266"><ele>110.5</ele><time>2026-04-22T12:39:01Z</time></trkpt><trkpt lat="42.29284583362377" lon="3.1854199695915524"><ele>105.25</ele><time>2026-04-22T12:39:02Z</time></trkpt><trkpt lat="42.292745575833365" lon="3.185333710339818"><ele>100.0</ele><time>2026-04-22T12:39:03Z</time></trkpt><trkpt lat="42.292641069746175" lon="3.1852470160191793"><ele>100.0</ele><time>2026-04-22T12:39:04Z</time></trkpt><trkpt lat="42.292536645342416" lon="3.1851656776823645"><ele>100.0</ele><time>2026-04-22T12:39:05Z</time></trkpt><trkpt lat="42.292431145108736" lon="3.1850828743784794"><ele>100.0</ele><time>2026-04-22T12:39:06Z</time></trkpt><trkpt lat="42.292327368491556" lon="3.1850017226867706"><ele>100.0</ele><time>2026-04-22T12:39:07Z</time></trkpt><trkpt lat="42.29224017189784" lon="3.1849168547856817"><ele>100.0</ele><time>2026-04-22T12:39:08Z</time></trkpt><trkpt lat="42.292177852936426" lon="3.184817620558569"><ele>100.0</ele><time>2026-04-22T12:39:09Z</time></trkpt><trkpt lat="42.292123997968005" lon="3.184712123078395"><ele>100.0</ele><time>2026-04-22T12:39:10Z</time></trkpt><trkpt lat="42.2920404658801" lon="3.1846362247329085"><ele>100.0</ele><time>2026-04-22T12:39:11Z</time></trkpt><trkpt lat="42.291938310779734" lon="3.1846023779357946"><ele>100.0</ele><time>2026-04-22T12:39:12Z</time></trkpt><trkpt lat="42.291832502881746" lon="3.1846042383721325"><ele>100.0</ele><time>2026-04-22T12:39:13Z</time></trkpt><trkpt lat="42.29172536460383" lon="3.184626373908225"><ele>100.0</ele><time>2026-04-22T12:39:14Z</time></trkpt><trkpt lat="42.29162322180158" lon="3.1846672925900332"><ele>100.0</ele><time>2026-04-22T12:39:15Z</time></trkpt><trkpt lat="42.291520959717516" lon="3.1847073604744516"><ele>100.0</ele><time>2026-04-22T12:39:16Z</time></trkpt><trkpt lat="42.29142549211844" lon="3.184732712838935"><ele>100.0</ele><time>2026-04-22T12:39:17Z</time></trkpt><trkpt lat="42.29133014391605" lon="3.1847255095734766"><ele>96.4</ele><time>2026-04-22T12:39:18Z</time></trkpt><trkpt lat="42.291238192309265" lon="3.1846841366380128"><ele>92.8</ele><time>2026-04-22T12:39:19Z</time></trkpt><trkpt lat="42.29116152504801" lon="3.1846090940241063"><ele>89.19999999999999</ele><time>2026-04-22T12:39:20Z</time></trkpt><trkpt lat="42.29110558089638" lon="3.1845041838812858"><ele>85.6</ele><time>2026-04-22T12:39:21Z</time></trkpt><trkpt lat="42.291063056507625" lon="3.1843887458666407"><ele>82.0</ele><time>2026-04-22T12:39:22Z</time></trkpt><trkpt lat="42.291025055339674" lon="3.184272773603704"><ele>82.0</ele><time>2026-04-22T12:39:23Z</time></trkpt><trkpt lat="42.29098114645155" lon="3.1841584728261463"><ele>82.0</ele><time>2026-04-22T12:39:24Z</time></trkpt><trkpt lat="42.29093710307419" lon="3.184038976303839"><ele>82.0</ele><time>2026-04-22T12:39:25Z</time></trkpt><trkpt lat="42.29089477614374" lon="3.183918503184449"><ele>82.0</ele><time>2026-04-22T12:39:26Z</time></trkpt><trkpt lat="42.290858006975505" lon="3.1837942089756606"><ele>82.0</ele><time>2026-04-22T12:39:27Z</time></trkpt><trkpt lat="42.29082502205512" lon="3.183677985537303"><ele>82.8</ele><time>2026-04-22T12:39:28Z</time></trkpt><trkpt lat="42.290786897768825" lon="3.1835746630205652"><ele>83.6</ele><time>2026-04-22T12:39:29Z</time></trkpt><trkpt lat="42.2907298928657" lon="3.183484807833529"><ele>84.39999999999999</ele><time>2026-04-22T12:39:30Z</time></trkpt><trkpt lat="42.29064888996757" lon="3.1834206437154218"><ele>85.19999999999999</ele><time>2026-04-22T12:39:31Z</time></trkpt><trkpt lat="42.29055805316937" lon="3.1833927070147703"><ele>86.0</ele><time>2026-04-22T12:39:32Z</time></trkpt><trkpt lat="42.29046149275182" lon="3.183384460842677"><ele>83.39999999999999</ele><time>2026-04-22T12:39:33Z</time></trkpt><trkpt lat="42.290366039773645" lon="3.183376678231419"><ele>80.8</ele><time>2026-04-22T12:39:34Z</time></trkpt><trkpt lat="42.290267132771724" lon="3.183368901707442"><ele>78.19999999999999</ele><time>2026-04-22T12:39:35Z</time></trkpt><trkpt lat="42.29016632191455" lon="3.1833596451369015"><ele>75.6</ele><time>2026-04-22T12:39:36Z</time></trkpt><trkpt lat="42.290062903025856" lon="3.183348787778385"><ele>73.0</ele><time>2026-04-22T12:39:37Z</time></trkpt><trkpt lat="42.289959124991064" lon="3.183337426585889"><ele>73.0</ele><time>2026-04-22T12:39:38Z</time></trkpt><trkpt lat="42.28985356109799" lon="3.1833276473625034"><ele>73.0</ele><time>2026-04-22T12:39:39Z</time></trkpt><trkpt lat="42.289745219185654" lon="3.1833167056992444"><ele>73.0</ele><time>2026-04-22T12:39:40Z</time></trkpt><trkpt lat="42.289635555762416" lon="3.1833028550892424"><ele>73.0</ele><time>2026-04-22T12:39:41Z</time></trkpt><trkpt lat="42.28953430142377" lon="3.1832836229945656"><ele>73.0</ele><time>2026-04-22T12:39:42Z</time></trkpt><trkpt lat="42.289450730325456" lon="3.1832562159753754"><ele>72.0</ele><time>2026-04-22T12:39:43Z</time></trkpt><trkpt lat="42.28938158034804" lon="3.18320257668444"><ele>71.0</ele><time>2026-04-22T12:39:44Z</time></trkpt><trkpt lat="42.28932731270969" lon="3.1831124062492604"><ele>70.0</ele><time>2026-04-22T12:39:45Z</time></trkpt><trkpt lat="42.28930388093876" lon="3.1829942651446013"><ele>69.0</ele><time>2026-04-22T12:39:46Z</time></trkpt><trkpt lat="42.289317068901944" lon="3.1828705373873913"><ele>68.0</ele><time>2026-04-22T12:39:47Z</time></trkpt><trkpt lat="42.28935023498739" lon="3.182752085551984"><ele>67.0</ele><time>2026-04-22T12:39:48Z</time></trkpt><trkpt lat="42.28938772313438" lon="3.182634451497006"><ele>67.0</ele><time>2026-04-22T12:39:49Z</time></trkpt><trkpt lat="42.2894223781999" lon="3.1825148344865064"><ele>67.0</ele><time>2026-04-22T12:39:50Z</time></trkpt><trkpt lat="42.28944443033647" lon="3.182393099971034"><ele>67.0</ele><time>2026-04-22T12:39:51Z</time></trkpt><trkpt lat="42.28942054065858" lon="3.182262907101767"><ele>67.0</ele><time>2026-04-22T12:39:52Z</time></trkpt><trkpt lat="42.289351033958496" lon="3.182162196637228"><ele>67.0</ele><time>2026-04-22T12:39:53Z</time></trkpt><trkpt lat="42.28925774400993" lon="3.1821045644989407"><ele>67.2</ele><time>2026-04-22T12:39:54Z</time></trkpt><trkpt lat="42.28916216266906" lon="3.182063458861683"><ele>67.4</ele><time>2026-04-22T12:39:55Z</time></trkpt><trkpt lat="42.289070295265674" lon="3.1820067230207227"><ele>67.6</ele><time>2026-04-22T12:39:56Z</time></trkpt><trkpt lat="42.288978041068574" lon="3.1819495218901306"><ele>67.8</ele><time>2026-04-22T12:39:57Z</time></trkpt><trkpt lat="42.288883739980534" lon="3.1818870012925045"><ele>68.0</ele><time>2026-04-22T12:39:58Z</time></trkpt><trkpt lat="42.2887894639139" lon="3.1818048410958815"><ele>66.25</ele><time>2026-04-22T12:39:59Z</time></trkpt><trkpt lat="42.28869778765158" lon="3.1817006605181564"><ele>64.5</ele><time>2026-04-22T12:40:00Z</time></trkpt><trkpt lat="42.288610022079105" lon="3.1815725384876883"><ele>62.75</ele><time>2026-04-22T12:40:01Z</time></trkpt><trkpt lat="42.28852263349905" lon="3.1814294619655645"><ele>61.0</ele><time>2026-04-22T12:40:02Z</time></trkpt><trkpt lat="42.28842677990292" lon="3.1812817495645813"><ele>61.0</ele><time>2026-04-22T12:40:03Z</time></trkpt><trkpt lat="42.28833002415976" lon="3.181135464470457"><ele>61.0</ele><time>2026-04-22T12:40:04Z</time></trkpt><trkpt lat="42.288233356824264" lon="3.1809896901442585"><ele>61.0</ele><time>2026-04-22T12:40:05Z</time></trkpt><trkpt lat="42.288135858912554" lon="3.180841679768009"><ele>61.0</ele><time>2026-04-22T12:40:06Z</time></trkpt><trkpt lat="42.288038202631945" lon="3.180693896851223"><ele>59.0</ele><time>2026-04-22T12:40:07Z</time></trkpt><trkpt lat="42.28793828725707" lon="3.1805461179511143"><ele>57.0</ele><time>2026-04-22T12:40:08Z</time></trkpt><trkpt lat="42.28783661223011" lon="3.180401735296296"><ele>55.0</ele><time>2026-04-22T12:40:09Z</time></trkpt><trkpt lat="42.28773268326602" lon="3.180257980121368"><ele>53.0</ele><time>2026-04-22T12:40:10Z</time></trkpt><trkpt lat="42.287625586401234" lon="3.1801144307946747"><ele>53.0</ele><time>2026-04-22T12:40:11Z</time></trkpt><trkpt lat="42.2875155169093" lon="3.1799751245528425"><ele>53.0</ele><time>2026-04-22T12:40:12Z</time></trkpt><trkpt lat="42.28740590763903" lon="3.179840577054814"><ele>53.0</ele><time>2026-04-22T12:40:13Z</time></trkpt><trkpt lat="42.28730600093937" lon="3.1797165116739223"><ele>53.0</ele><time>2026-04-22T12:40:14Z</time></trkpt><trkpt lat="42.287206610332724" lon="3.1795885871205263"><ele>51.0</ele><time>2026-04-22T12:40:15Z</time></trkpt><trkpt lat="42.287107622022376" lon="3.179462245577899"><ele>49.0</ele><time>2026-04-22T12:40:16Z</time></trkpt><trkpt lat="42.28700880637484" lon="3.1793366670378944"><ele>47.0</ele><time>2026-04-22T12:40:17Z</time></trkpt><trkpt lat="42.28690775700911" lon="3.179212163142124"><ele>45.0</ele><time>2026-04-22T12:40:18Z</time></trkpt><trkpt lat="42.28680323816466" lon="3.179082615026178"><ele>45.25</ele><time>2026-04-22T12:40:19Z</time></trkpt><trkpt lat="42.28670010856714" lon="3.1789498949723454"><ele>45.5</ele><time>2026-04-22T12:40:20Z</time></trkpt><trkpt lat="42.28660146578322" lon="3.1788027183587704"><ele>45.75</ele><time>2026-04-22T12:40:21Z</time></trkpt><trkpt lat="42.286511694105535" lon="3.1786354821565985"><ele>46.0</ele><time>2026-04-22T12:40:22Z</time></trkpt><trkpt lat="42.28643772849968" lon="3.1784534553189965"><ele>43.66666666666667</ele><time>2026-04-22T12:40:23Z</time></trkpt><trkpt lat="42.286379656041895" lon="3.1782577727286196"><ele>41.333333333333336</ele><time>2026-04-22T12:40:24Z</time></trkpt><trkpt lat="42.28633947886038" lon="3.1780490073143395"><ele>39.0</ele><time>2026-04-22T12:40:25Z</time></trkpt><trkpt lat="42.286298765768386" lon="3.1778284693100534"><ele>39.0</ele><time>2026-04-22T12:40:26Z</time></trkpt><trkpt lat="42.28626201215056" lon="3.177609349780244"><ele>39.0</ele><time>2026-04-22T12:40:27Z</time></trkpt><trkpt lat="42.28622584368317" lon="3.1773859442910015"><ele>39.0</ele><time>2026-04-22T12:40:28Z</time></trkpt><trkpt lat="42.28618829039269" lon="3.1771626909270267"><ele>39.666666666666664</ele><time>2026-04-22T12:40:29Z</time></trkpt><trkpt lat="42.286151630461106" lon="3.176939511245578"><ele>40.33333333333333</ele><time>2026-04-22T12:40:30Z</time></trkpt><trkpt lat="42.2861108679154" lon="3.176720334192972"><ele>41.0</ele><time>2026-04-22T12:40:31Z</time></trkpt><trkpt lat="42.286062601986806" lon="3.176504902464516"><ele>41.0</ele><time>2026-04-22T12:40:32Z</time></trkpt><trkpt lat="42.28599668363049" lon="3.1762974340728545"><ele>41.0</ele><time>2026-04-22T12:40:33Z</time></trkpt><trkpt lat="42.285916357152814" lon="3.1761003799926786"><ele>41.0</ele><time>2026-04-22T12:40:34Z</time></trkpt><trkpt lat="42.28582539843119" lon="3.1759139275090074"><ele>41.0</ele><time>2026-04-22T12:40:35Z</time></trkpt><trkpt lat="42.285727070659405" lon="3.1757345505082357"><ele>41.0</ele><time>2026-04-22T12:40:36Z</time></trkpt><trkpt lat="42.28563048949492" lon="3.1755585995060973"><ele>41.0</ele><time>2026-04-22T12:40:37Z</time></trkpt><trkpt lat="42.285535574768566" lon="3.1753839108715654"><ele>39.0</ele><time>2026-04-22T12:40:38Z</time></trkpt><trkpt lat="42.2854410255695" lon="3.1752124872599214"><ele>37.0</ele><time>2026-04-22T12:40:39Z</time></trkpt><trkpt lat="42.28534234028287" lon="3.175035885902212"><ele>35.0</ele><time>2026-04-22T12:40:40Z</time></trkpt><trkpt lat="42.2852436597689" lon="3.174855081635678"><ele>35.666666666666664</ele><time>2026-04-22T12:40:41Z</time></trkpt><trkpt lat="42.28514127388617" lon="3.1746670457012662"><ele>36.333333333333336</ele><time>2026-04-22T12:40:42Z</time></trkpt><trkpt lat="42.285033296645125" lon="3.1744698024992495"><ele>37.0</ele><time>2026-04-22T12:40:43Z</time></trkpt><trkpt lat="42.28491943940231" lon="3.1742680491145547"><ele>37.0</ele><time>2026-04-22T12:40:44Z</time></trkpt><trkpt lat="42.28480837570662" lon="3.174062928195216"><ele>37.0</ele><time>2026-04-22T12:40:45Z</time></trkpt><trkpt lat="42.28469826462366" lon="3.1738637447424614"><ele>37.0</ele><time>2026-04-22T12:40:46Z</time></trkpt><trkpt lat="42.284585596103575" lon="3.173663398235876"><ele>36.66666666666667</ele><time>2026-04-22T12:40:47Z</time></trkpt><trkpt lat="42.28447350559641" lon="3.1734582526265505"><ele>36.333333333333336</ele><time>2026-04-22T12:40:48Z</time></trkpt><trkpt lat="42.284358711677896" lon="3.1732496315550254"><ele>36.0</ele><time>2026-04-22T12:40:49Z</time></trkpt><trkpt lat="42.28424140067042" lon="3.173039054754803"><ele>35.666666666666664</ele><time>2026-04-22T12:40:50Z</time></trkpt><trkpt lat="42.28412538399218" lon="3.172826508014453"><ele>35.33333333333333</ele><time>2026-04-22T12:40:51Z</time></trkpt><trkpt lat="42.28400767395261" lon="3.1726130977869897"><ele>35.0</ele><time>2026-04-22T12:40:52Z</time></trkpt><trkpt lat="42.28388971694086" lon="3.1723986740384476"><ele>35.666666666666664</ele><time>2026-04-22T12:40:53Z</time></trkpt><trkpt lat="42.28377216529701" lon="3.1721826834335842"><ele>36.333333333333336</ele><time>2026-04-22T12:40:54Z</time></trkpt><trkpt lat="42.28365180417043" lon="3.171968366721771"><ele>37.0</ele><time>2026-04-22T12:40:55Z</time></trkpt><trkpt lat="42.28353299441995" lon="3.1717517286934425"><ele>37.0</ele><time>2026-04-22T12:40:56Z</time></trkpt><trkpt lat="42.28341248530398" lon="3.171535154097069"><ele>37.0</ele><time>2026-04-22T12:40:57Z</time></trkpt><trkpt lat="42.28329250949221" lon="3.1713174238726314"><ele>37.0</ele><time>2026-04-22T12:40:58Z</time></trkpt><trkpt lat="42.28317172628295" lon="3.17109807183888"><ele>35.66666666666667</ele><time>2026-04-22T12:40:59Z</time></trkpt><trkpt lat="42.28305379772306" lon="3.170880928559815"><ele>34.333333333333336</ele><time>2026-04-22T12:41:00Z</time></trkpt><trkpt lat="42.28293373071177" lon="3.1706662079093113"><ele>33.0</ele><time>2026-04-22T12:41:01Z</time></trkpt><trkpt lat="42.28281575365312" lon="3.170452412765172"><ele>33.0</ele><time>2026-04-22T12:41:02Z</time></trkpt><trkpt lat="42.282698065297836" lon="3.1702398353389305"><ele>33.0</ele><time>2026-04-22T12:41:03Z</time></trkpt><trkpt lat="42.28258129213163" lon="3.170030311808581"><ele>33.0</ele><time>2026-04-22T12:41:04Z</time></trkpt><trkpt lat="42.2824656013519" lon="3.1698213205372543"><ele>33.0</ele><time>2026-04-22T12:41:05Z</time></trkpt><trkpt lat="42.28234986608858" lon="3.169614725228518"><ele>33.0</ele><time>2026-04-22T12:41:06Z</time></trkpt><trkpt lat="42.282234077126034" lon="3.169409189600396"><ele>33.0</ele><time>2026-04-22T12:41:07Z</time></trkpt><trkpt lat="42.2821199177024" lon="3.1692066085257236"><ele>31.666666666666664</ele><time>2026-04-22T12:41:08Z</time></trkpt><trkpt lat="42.28200602194066" lon="3.1690030634940536"><ele>30.333333333333332</ele><time>2026-04-22T12:41:09Z</time></trkpt><trkpt lat="42.28189557386271" lon="3.1688001309598293"><ele>29.0</ele><time>2026-04-22T12:41:10Z</time></trkpt><trkpt lat="42.281785230056975" lon="3.1685991293281903"><ele>29.0</ele><time>2026-04-22T12:41:11Z</time></trkpt><trkpt lat="42.28167567759798" lon="3.16840065715279"><ele>29.0</ele><time>2026-04-22T12:41:12Z</time></trkpt><trkpt lat="42.28156496986611" lon="3.168200151300721"><ele>29.0</ele><time>2026-04-22T12:41:13Z</time></trkpt><trkpt lat="42.28145217313919" lon="3.16799784792795"><ele>29.0</ele><time>2026-04-22T12:41:14Z</time></trkpt><trkpt lat="42.28133883291406" lon="3.16779303484489"><ele>29.0</ele><time>2026-04-22T12:41:15Z</time></trkpt><trkpt lat="42.2812245035852" lon="3.1675868584691247"><ele>29.0</ele><time>2026-04-22T12:41:16Z</time></trkpt><trkpt lat="42.28110961477581" lon="3.1673795268554814"><ele>28.666666666666664</ele><time>2026-04-22T12:41:17Z</time></trkpt><trkpt lat="42.28099375231055" lon="3.1671709863597663"><ele>28.333333333333336</ele><time>2026-04-22T12:41:18Z</time></trkpt><trkpt lat="42.28087823967225" lon="3.1669587960412056"><ele>28.0</ele><time>2026-04-22T12:41:19Z</time></trkpt><trkpt lat="42.280763125432465" lon="3.166745485763865"><ele>28.0</ele><time>2026-04-22T12:41:20Z</time></trkpt><trkpt lat="42.28064378957426" lon="3.166528967713415"><ele>28.0</ele><time>2026-04-22T12:41:21Z</time></trkpt><trkpt lat="42.2805215235598" lon="3.1663105758611816"><ele>28.0</ele><time>2026-04-22T12:41:22Z</time></trkpt><trkpt lat="42.28040055203917" lon="3.1660912503777796"><ele>26.333333333333336</ele><time>2026-04-22T12:41:23Z</time></trkpt><trkpt lat="42.280278929375086" lon="3.165873875355589"><ele>24.666666666666668</ele><time>2026-04-22T12:41:24Z</time></trkpt><trkpt lat="42.280156467439454" lon="3.1656542259796385"><ele>23.0</ele><time>2026-04-22T12:41:25Z</time></trkpt><trkpt lat="42.28003653048957" lon="3.165437074644267"><ele>23.0</ele><time>2026-04-22T12:41:26Z</time></trkpt><trkpt lat="42.27991697028676" lon="3.165222046892195"><ele>23.0</ele><time>2026-04-22T12:41:27Z</time></trkpt><trkpt lat="42.27979825041012" lon="3.1650079972724168"><ele>23.0</ele><time>2026-04-22T12:41:28Z</time></trkpt><trkpt lat="42.2796835153263" lon="3.164793799138743"><ele>21.666666666666668</ele><time>2026-04-22T12:41:29Z</time></trkpt><trkpt lat="42.279568576687815" lon="3.1645812278418557"><ele>20.333333333333332</ele><time>2026-04-22T12:41:30Z</time></trkpt><trkpt lat="42.279453484079646" lon="3.1643726118513484"><ele>19.0</ele><time>2026-04-22T12:41:31Z</time></trkpt><trkpt lat="42.27934168673423" lon="3.1641661000263244"><ele>19.333333333333332</ele><time>2026-04-22T12:41:32Z</time></trkpt><trkpt lat="42.279229224089676" lon="3.16396243963112"><ele>19.666666666666668</ele><time>2026-04-22T12:41:33Z</time></trkpt><trkpt lat="42.27911682696801" lon="3.163759870258185"><ele>20.0</ele><time>2026-04-22T12:41:34Z</time></trkpt><trkpt lat="42.27900784124431" lon="3.163557479992246"><ele>20.0</ele><time>2026-04-22T12:41:35Z</time></trkpt><trkpt lat="42.27889715970372" lon="3.1633559786009577"><ele>20.0</ele><time>2026-04-22T12:41:36Z</time></trkpt><trkpt lat="42.27878723260414" lon="3.1631560866409196"><ele>20.0</ele><time>2026-04-22T12:41:37Z</time></trkpt><trkpt lat="42.278675951861146" lon="3.16295699371904"><ele>19.333333333333336</ele><time>2026-04-22T12:41:38Z</time></trkpt><trkpt lat="42.27856668545296" lon="3.1627590125522915"><ele>18.666666666666668</ele><time>2026-04-22T12:41:39Z</time></trkpt><trkpt lat="42.278457008706035" lon="3.1625586751176615"><ele>18.0</ele><time>2026-04-22T12:41:40Z</time></trkpt><trkpt lat="42.27834629810683" lon="3.1623592565299687"><ele>18.0</ele><time>2026-04-22T12:41:41Z</time></trkpt><trkpt lat="42.278238753606814" lon="3.1621630271027135"><ele>18.0</ele><time>2026-04-22T12:41:42Z</time></trkpt><trkpt lat="42.27813270739899" lon="3.161970953235505"><ele>18.0</ele><time>2026-04-22T12:41:43Z</time></trkpt><trkpt lat="42.27802604969715" lon="3.161777905368906"><ele>18.333333333333332</ele><time>2026-04-22T12:41:44Z</time></trkpt><trkpt lat="42.27791903395489" lon="3.161582507316362"><ele>18.666666666666664</ele><time>2026-04-22T12:41:45Z</time></trkpt><trkpt lat="42.27781261258562" lon="3.1613878653313434"><ele>19.0</ele><time>2026-04-22T12:41:46Z</time></trkpt><trkpt lat="42.27770671726445" lon="3.161195488253415"><ele>18.333333333333332</ele><time>2026-04-22T12:41:47Z</time></trkpt><trkpt lat="42.277601834974575" lon="3.161006447683407"><ele>17.666666666666668</ele><time>2026-04-22T12:41:48Z</time></trkpt><trkpt lat="42.27749892134572" lon="3.1608188446497207"><ele>17.0</ele><time>2026-04-22T12:41:49Z</time></trkpt><trkpt lat="42.277397916851115" lon="3.160636099113472"><ele>17.0</ele><time>2026-04-22T12:41:50Z</time></trkpt><trkpt lat="42.2773032545472" lon="3.1604645787287433"><ele>17.0</ele><time>2026-04-22T12:41:51Z</time></trkpt><trkpt lat="42.27721442434249" lon="3.1603046479615817"><ele>17.0</ele><time>2026-04-22T12:41:52Z</time></trkpt><trkpt lat="42.277134046916345" lon="3.160157344857063"><ele>17.0</ele><time>2026-04-22T12:41:53Z</time></trkpt><trkpt lat="42.27705808113885" lon="3.160014250290084"><ele>17.2</ele><time>2026-04-22T12:41:54Z</time></trkpt><trkpt lat="42.27698724957836" lon="3.159876627579857"><ele>17.4</ele><time>2026-04-22T12:41:55Z</time></trkpt><trkpt lat="42.27692302259342" lon="3.1597507229426967"><ele>17.6</ele><time>2026-04-22T12:41:56Z</time></trkpt><trkpt lat="42.276863501207075" lon="3.1596344783468653"><ele>17.8</ele><time>2026-04-22T12:41:57Z</time></trkpt><trkpt lat="42.276810572453236" lon="3.1595316040809753"><ele>18.0</ele><time>2026-04-22T12:41:58Z</time></trkpt><trkpt lat="42.27677204073632" lon="3.1594339791799397"><ele>17.666666666666668</ele><time>2026-04-22T12:41:59Z</time></trkpt><trkpt lat="42.27675353634949" lon="3.159325850619797"><ele>17.333333333333332</ele><time>2026-04-22T12:42:00Z</time></trkpt><trkpt lat="42.276762512084254" lon="3.1592106166900478"><ele>17.0</ele><time>2026-04-22T12:42:01Z</time></trkpt><trkpt lat="42.276781418782896" lon="3.1590951948071075"><ele>16.666666666666664</ele><time>2026-04-22T12:42:02Z</time></trkpt><trkpt lat="42.27677957725231" lon="3.1589829567246466"><ele>16.333333333333332</ele><time>2026-04-22T12:42:03Z</time></trkpt><trkpt lat="42.27675004671142" lon="3.15887905300094"><ele>16.0</ele><time>2026-04-22T12:42:04Z</time></trkpt><trkpt lat="42.27669953784146" lon="3.158783436761703"><ele>15.600000000000001</ele><time>2026-04-22T12:42:05Z</time></trkpt><trkpt lat="42.276626069395725" lon="3.158721557586638"><ele>15.200000000000001</ele><time>2026-04-22T12:42:06Z</time></trkpt><trkpt lat="42.27653818551321" lon="3.1586871834256045"><ele>14.799999999999999</ele><time>2026-04-22T12:42:07Z</time></trkpt><trkpt lat="42.27643790411829" lon="3.1586685322771757"><ele>14.399999999999999</ele><time>2026-04-22T12:42:08Z</time></trkpt><trkpt lat="42.27634005174502" lon="3.1586146341860446"><ele>14.0</ele><time>2026-04-22T12:42:09Z</time></trkpt><trkpt lat="42.27625015270405" lon="3.158517452435399"><ele>13.25</ele><time>2026-04-22T12:42:10Z</time></trkpt><trkpt lat="42.27617057451454" lon="3.158385468957171"><ele>12.5</ele><time>2026-04-22T12:42:11Z</time></trkpt><trkpt lat="42.27608824444016" lon="3.1582369622984103"><ele>11.75</ele><time>2026-04-22T12:42:12Z</time></trkpt><trkpt lat="42.275996319204886" lon="3.158079995164072"><ele>11.0</ele><time>2026-04-22T12:42:13Z</time></trkpt><trkpt lat="42.2759013303159" lon="3.157911892982135"><ele>10.333333333333332</ele><time>2026-04-22T12:42:14Z</time></trkpt><trkpt lat="42.27581070701238" lon="3.1577451536675145"><ele>9.666666666666666</ele><time>2026-04-22T12:42:15Z</time></trkpt><trkpt lat="42.2757138204292" lon="3.157570355340268"><ele>9.0</ele><time>2026-04-22T12:42:16Z</time></trkpt><trkpt lat="42.27561287562022" lon="3.1573844729970957"><ele>9.666666666666666</ele><time>2026-04-22T12:42:17Z</time></trkpt><trkpt lat="42.27550630925303" lon="3.1571910364537414"><ele>10.333333333333332</ele><time>2026-04-22T12:42:18Z</time></trkpt><trkpt lat="42.275395796927036" lon="3.1569919291496773"><ele>11.0</ele><time>2026-04-22T12:42:19Z</time></trkpt><trkpt lat="42.27528487018905" lon="3.1567938566119076"><ele>11.0</ele><time>2026-04-22T12:42:20Z</time></trkpt><trkpt lat="42.27517534614498" lon="3.156596531031789"><ele>11.0</ele><time>2026-04-22T12:42:21Z</time></trkpt><trkpt lat="42.27506346167472" lon="3.1563906980113705"><ele>11.0</ele><time>2026-04-22T12:42:22Z</time></trkpt><trkpt lat="42.27494809423068" lon="3.156183049434978"><ele>11.333333333333332</ele><time>2026-04-22T12:42:23Z</time></trkpt><trkpt lat="42.27483250041294" lon="3.1559750523488157"><ele>11.666666666666666</ele><time>2026-04-22T12:42:24Z</time></trkpt><trkpt lat="42.27472080217008" lon="3.1557722093658382"><ele>12.0</ele><time>2026-04-22T12:42:25Z</time></trkpt><trkpt lat="42.27461055740281" lon="3.1555683594875963"><ele>11.333333333333334</ele><time>2026-04-22T12:42:26Z</time></trkpt><trkpt lat="42.27449701930415" lon="3.1553636356103083"><ele>10.666666666666668</ele><time>2026-04-22T12:42:27Z</time></trkpt><trkpt lat="42.27438111651735" lon="3.15515807120913"><ele>10.0</ele><time>2026-04-22T12:42:28Z</time></trkpt><trkpt lat="42.27426668171951" lon="3.1549509075034274"><ele>10.666666666666668</ele><time>2026-04-22T12:42:29Z</time></trkpt><trkpt lat="42.27415297335671" lon="3.1547424859066115"><ele>11.333333333333334</ele><time>2026-04-22T12:42:30Z</time></trkpt><trkpt lat="42.27403835534538" lon="3.154534458980054"><ele>12.0</ele><time>2026-04-22T12:42:31Z</time></trkpt><trkpt lat="42.27392351289916" lon="3.154324427003429"><ele>11.333333333333334</ele><time>2026-04-22T12:42:32Z</time></trkpt><trkpt lat="42.27380809398845" lon="3.154114555894405"><ele>10.666666666666668</ele><time>2026-04-22T12:42:33Z</time></trkpt><trkpt lat="42.27368850302115" lon="3.1539053692213206"><ele>10.0</ele><time>2026-04-22T12:42:34Z</time></trkpt><trkpt lat="42.27356887854677" lon="3.153696004717958"><ele>10.0</ele><time>2026-04-22T12:42:35Z</time></trkpt><trkpt lat="42.27345299761207" lon="3.1534846394148355"><ele>10.0</ele><time>2026-04-22T12:42:36Z</time></trkpt><trkpt lat="42.27333698159034" lon="3.1532740517533964"><ele>10.0</ele><time>2026-04-22T12:42:37Z</time></trkpt><trkpt lat="42.273220432754144" lon="3.153063746926554"><ele>9.666666666666668</ele><time>2026-04-22T12:42:38Z</time></trkpt><trkpt lat="42.273106924163216" lon="3.1528554246194593"><ele>9.333333333333334</ele><time>2026-04-22T12:42:39Z</time></trkpt><trkpt lat="42.272989631663165" lon="3.152647087419795"><ele>9.0</ele><time>2026-04-22T12:42:40Z</time></trkpt><trkpt lat="42.2728731009762" lon="3.15244054602502"><ele>8.333333333333334</ele><time>2026-04-22T12:42:41Z</time></trkpt><trkpt lat="42.272761127299574" lon="3.1522342164685355"><ele>7.666666666666667</ele><time>2026-04-22T12:42:42Z</time></trkpt><trkpt lat="42.27264932794147" lon="3.1520284160478775"><ele>7.0</ele><time>2026-04-22T12:42:43Z</time></trkpt><trkpt lat="42.27254552771357" lon="3.1518389795692947"><ele>7.0</ele><time>2026-04-22T12:42:44Z</time></trkpt><trkpt lat="42.27244330844478" lon="3.151659683032221"><ele>7.0</ele><time>2026-04-22T12:42:45Z</time></trkpt><trkpt lat="42.27234630801783" lon="3.151490649792519"><ele>7.0</ele><time>2026-04-22T12:42:46Z</time></trkpt><trkpt lat="42.27225548592432" lon="3.1513294074373888"><ele>6.0</ele><time>2026-04-22T12:42:47Z</time></trkpt><trkpt lat="42.27216393889933" lon="3.1511697615239767"><ele>5.0</ele><time>2026-04-22T12:42:48Z</time></trkpt><trkpt lat="42.27207649941039" lon="3.1510110431872436"><ele>4.0</ele><time>2026-04-22T12:42:49Z</time></trkpt><trkpt lat="42.271992440292834" lon="3.1508565714739305"><ele>3.0</ele><time>2026-04-22T12:42:50Z</time></trkpt><trkpt lat="42.2719113815108" lon="3.150703017748952"><ele>2.5</ele><time>2026-04-22T12:42:51Z</time></trkpt><trkpt lat="42.27183394123473" lon="3.150556635955386"><ele>2.0</ele><time>2026-04-22T12:42:52Z</time></trkpt><trkpt lat="42.271758545427474" lon="3.150417632494288"><ele>1.5</ele><time>2026-04-22T12:42:53Z</time></trkpt><trkpt lat="42.27168744073921" lon="3.150290779084166"><ele>1.0</ele><time>2026-04-22T12:42:54Z</time></trkpt><trkpt lat="42.27162518410535" lon="3.1501650452068524"><ele>1.0</ele><time>2026-04-22T12:42:55Z</time></trkpt><trkpt lat="42.27157924298764" lon="3.1500270747274866"><ele>1.0</ele><time>2026-04-22T12:42:56Z</time></trkpt><trkpt lat="42.27155166214833" lon="3.149875795850878"><ele>1.0</ele><time>2026-04-22T12:42:57Z</time></trkpt><trkpt lat="42.27154381760692" lon="3.1497147155655587"><ele>1.0</ele><time>2026-04-22T12:42:58Z</time></trkpt><trkpt lat="42.2715550058917" lon="3.149558163821306"><ele>1.0</ele><time>2026-04-22T12:42:59Z</time></trkpt><trkpt lat="42.27158286984015" lon="3.149413212293238"><ele>1.0</ele><time>2026-04-22T12:43:00Z</time></trkpt><trkpt lat="42.2716239126116" lon="3.1492800123206317"><ele>1.0</ele><time>2026-04-22T12:43:01Z</time></trkpt><trkpt lat="42.27167678482602" lon="3.149150913595079"><ele>1.0</ele><time>2026-04-22T12:43:02Z</time></trkpt><trkpt lat="42.27172841785508" lon="3.1490273411004446"><ele>1.0</ele><time>2026-04-22T12:43:03Z</time></trkpt><trkpt lat="42.27176898365906" lon="3.1489023015559376"><ele>1.5</ele><time>2026-04-22T12:43:04Z</time></trkpt><trkpt lat="42.27178165723918" lon="3.148785430015193"><ele>2.0</ele><time>2026-04-22T12:43:05Z</time></trkpt><trkpt lat="42.271771631406104" lon="3.1486782749297273"><ele>2.5</ele><time>2026-04-22T12:43:06Z</time></trkpt><trkpt lat="42.2717380776942" lon="3.148592415364187"><ele>3.0</ele><time>2026-04-22T12:43:07Z</time></trkpt><trkpt lat="42.27167652060739" lon="3.1484777944034747"><ele>3.4999999999999996</ele><time>2026-04-22T12:43:09Z</time></trkpt><trkpt lat="42.27164613397438" lon="3.148373990256339"><ele>4.0</ele><time>2026-04-22T12:43:11Z</time></trkpt><trkpt lat="42.27164108807686" lon="3.148215439778717"><ele>4.0</ele><time>2026-04-22T12:43:13Z</time></trkpt><trkpt lat="42.27162967532371" lon="3.148121369466841"><ele>4.0</ele><time>2026-04-22T12:43:14Z</time></trkpt><trkpt lat="42.27160359170857" lon="3.1480193448278517"><ele>4.0</ele><time>2026-04-22T12:43:15Z</time></trkpt><trkpt lat="42.271549028755864" lon="3.1479228552053007"><ele>4.0</ele><time>2026-04-22T12:43:16Z</time></trkpt><trkpt lat="42.27154396013329" lon="3.147778544763508"><ele>4.0</ele><time>2026-04-22T12:43:17Z</time></trkpt><trkpt lat="42.27154065180423" lon="3.1476361305318417"><ele>4.0</ele><time>2026-04-22T12:43:18Z</time></trkpt><trkpt lat="42.271552674455876" lon="3.147491003060304"><ele>4.0</ele><time>2026-04-22T12:43:19Z</time></trkpt><trkpt lat="42.271568515117565" lon="3.147341192015401"><ele>4.0</ele><time>2026-04-22T12:43:20Z</time></trkpt><trkpt lat="42.27158011090569" lon="3.147180551562642"><ele>4.0</ele><time>2026-04-22T12:43:21Z</time></trkpt><trkpt lat="42.27158987161081" lon="3.1470178475248636"><ele>3.75</ele><time>2026-04-22T12:43:22Z</time></trkpt><trkpt lat="42.27159684909373" lon="3.146854788523818"><ele>3.5</ele><time>2026-04-22T12:43:23Z</time></trkpt><trkpt lat="42.27160382466504" lon="3.1466944038205407"><ele>3.25</ele><time>2026-04-22T12:43:24Z</time></trkpt><trkpt lat="42.2716122658395" lon="3.146535533032921"><ele>3.0</ele><time>2026-04-22T12:43:25Z</time></trkpt><trkpt lat="42.27162128372214" lon="3.146380792468778"><ele>3.0</ele><time>2026-04-22T12:43:26Z</time></trkpt><trkpt lat="42.271628809211165" lon="3.1462249525621355"><ele>3.0</ele><time>2026-04-22T12:43:27Z</time></trkpt><trkpt lat="42.27163605827859" lon="3.1460673969529274"><ele>3.0</ele><time>2026-04-22T12:43:28Z</time></trkpt><trkpt lat="42.271642051104365" lon="3.145911261978708"><ele>3.0</ele><time>2026-04-22T12:43:29Z</time></trkpt><trkpt lat="42.27164829689441" lon="3.1457510585773054"><ele>3.75</ele><time>2026-04-22T12:43:30Z</time></trkpt><trkpt lat="42.2716547228656" lon="3.1455861122315163"><ele>4.5</ele><time>2026-04-22T12:43:31Z</time></trkpt><trkpt lat="42.271662900008614" lon="3.145415668167877"><ele>5.25</ele><time>2026-04-22T12:43:32Z</time></trkpt><trkpt lat="42.271673223416265" lon="3.1452394760033364"><ele>6.0</ele><time>2026-04-22T12:43:33Z</time></trkpt><trkpt lat="42.27168299067535" lon="3.1450574154748145"><ele>5.75</ele><time>2026-04-22T12:43:34Z</time></trkpt><trkpt lat="42.27169133515926" lon="3.1448720986723835"><ele>5.5</ele><time>2026-04-22T12:43:35Z</time></trkpt><trkpt lat="42.27169901744146" lon="3.144681676302675"><ele>5.25</ele><time>2026-04-22T12:43:36Z</time></trkpt><trkpt lat="42.27170643806588" lon="3.144486612864657"><ele>5.0</ele><time>2026-04-22T12:43:37Z</time></trkpt><trkpt lat="42.27171527014817" lon="3.14428705895682"><ele>5.0</ele><time>2026-04-22T12:43:38Z</time></trkpt><trkpt lat="42.27172330171149" lon="3.1440869336281336"><ele>5.0</ele><time>2026-04-22T12:43:39Z</time></trkpt><trkpt lat="42.27173344752131" lon="3.143886595106714"><ele>5.0</ele><time>2026-04-22T12:43:40Z</time></trkpt><trkpt lat="42.271744547756136" lon="3.143685802453333"><ele>5.0</ele><time>2026-04-22T12:43:41Z</time></trkpt><trkpt lat="42.271753689165806" lon="3.1434841282864086"><ele>4.0</ele><time>2026-04-22T12:43:42Z</time></trkpt><trkpt lat="42.27176383023112" lon="3.143279965053522"><ele>3.0</ele><time>2026-04-22T12:43:43Z</time></trkpt><trkpt lat="42.27176972150691" lon="3.1430719716211453"><ele>2.0</ele><time>2026-04-22T12:43:44Z</time></trkpt><trkpt lat="42.27177957894786" lon="3.142863802340893"><ele>2.0</ele><time>2026-04-22T12:43:45Z</time></trkpt><trkpt lat="42.2717886595704" lon="3.1426527995339786"><ele>2.0</ele><time>2026-04-22T12:43:46Z</time></trkpt><trkpt lat="42.271798879096785" lon="3.142441011594229"><ele>2.0</ele><time>2026-04-22T12:43:47Z</time></trkpt><trkpt lat="42.27180749976273" lon="3.142230880281024"><ele>2.0</ele><time>2026-04-22T12:43:48Z</time></trkpt><trkpt lat="42.271817558956776" lon="3.1420208774968796"><ele>2.0</ele><time>2026-04-22T12:43:49Z</time></trkpt><trkpt lat="42.271825599394546" lon="3.141811249831607"><ele>2.0</ele><time>2026-04-22T12:43:50Z</time></trkpt><trkpt lat="42.271834104516444" lon="3.1416032604466197"><ele>2.0</ele><time>2026-04-22T12:43:51Z</time></trkpt><trkpt lat="42.27184391542372" lon="3.141396807366002"><ele>2.0</ele><time>2026-04-22T12:43:52Z</time></trkpt><trkpt lat="42.27185394754524" lon="3.1411880818632363"><ele>2.0</ele><time>2026-04-22T12:43:53Z</time></trkpt><trkpt lat="42.27186262645177" lon="3.140978315925102"><ele>2.0</ele><time>2026-04-22T12:43:54Z</time></trkpt><trkpt lat="42.271870563430205" lon="3.140767033883828"><ele>2.0</ele><time>2026-04-22T12:43:55Z</time></trkpt><trkpt lat="42.271878856976386" lon="3.140554403060239"><ele>2.0</ele><time>2026-04-22T12:43:56Z</time></trkpt><trkpt lat="42.27188909769949" lon="3.140341333695497"><ele>2.0</ele><time>2026-04-22T12:43:57Z</time></trkpt><trkpt lat="42.271898619784814" lon="3.1401292792437228"><ele>2.0</ele><time>2026-04-22T12:43:58Z</time></trkpt><trkpt lat="42.27190901457306" lon="3.1399191630730487"><ele>2.0</ele><time>2026-04-22T12:43:59Z</time></trkpt><trkpt lat="42.27191812807341" lon="3.1397125178919048"><ele>2.0</ele><time>2026-04-22T12:44:00Z</time></trkpt><trkpt lat="42.271927682328155" lon="3.1395104405172365"><ele>2.0</ele><time>2026-04-22T12:44:01Z</time></trkpt><trkpt lat="42.27193605590368" lon="3.1393118211341937"><ele>2.0</ele><time>2026-04-22T12:44:02Z</time></trkpt><trkpt lat="42.27194516781153" lon="3.1391175211855473"><ele>2.0</ele><time>2026-04-22T12:44:03Z</time></trkpt><trkpt lat="42.27195498731709" lon="3.138925203572567"><ele>2.0</ele><time>2026-04-22T12:44:04Z</time></trkpt><trkpt lat="42.27196456966515" lon="3.1387371507407797"><ele>2.0</ele><time>2026-04-22T12:44:05Z</time></trkpt><trkpt lat="42.27197383182875" lon="3.1385508954779255"><ele>2.0</ele><time>2026-04-22T12:44:06Z</time></trkpt><trkpt lat="42.27198304184785" lon="3.13836041550796"><ele>2.0</ele><time>2026-04-22T12:44:07Z</time></trkpt><trkpt lat="42.271994117763626" lon="3.138167423096737"><ele>2.25</ele><time>2026-04-22T12:44:08Z</time></trkpt><trkpt lat="42.27200778314943" lon="3.137970783434803"><ele>2.5</ele><time>2026-04-22T12:44:09Z</time></trkpt><trkpt lat="42.272022659722325" lon="3.137772668114623"><ele>2.75</ele><time>2026-04-22T12:44:10Z</time></trkpt><trkpt lat="42.272042411014624" lon="3.137573186300264"><ele>3.0</ele><time>2026-04-22T12:44:11Z</time></trkpt><trkpt lat="42.27206578742626" lon="3.1373722148825647"><ele>3.333333333333333</ele><time>2026-04-22T12:44:12Z</time></trkpt><trkpt lat="42.27209654675684" lon="3.137170848424568"><ele>3.6666666666666665</ele><time>2026-04-22T12:44:13Z</time></trkpt><trkpt lat="42.272127682001596" lon="3.136970834739323"><ele>4.0</ele><time>2026-04-22T12:44:14Z</time></trkpt><trkpt lat="42.27216530484788" lon="3.1367763508634936"><ele>4.0</ele><time>2026-04-22T12:44:15Z</time></trkpt><trkpt lat="42.27220090161554" lon="3.136587452148158"><ele>4.0</ele><time>2026-04-22T12:44:16Z</time></trkpt><trkpt lat="42.27223856556079" lon="3.136401650444046"><ele>4.0</ele><time>2026-04-22T12:44:17Z</time></trkpt><trkpt lat="42.272275247769954" lon="3.136221125366369"><ele>4.0</ele><time>2026-04-22T12:44:18Z</time></trkpt><trkpt lat="42.27230922196245" lon="3.1360442706935956"><ele>4.5</ele><time>2026-04-22T12:44:19Z</time></trkpt><trkpt lat="42.272335742023984" lon="3.1358715107211763"><ele>5.0</ele><time>2026-04-22T12:44:20Z</time></trkpt><trkpt lat="42.27235060130615" lon="3.1357133557663306"><ele>5.5</ele><time>2026-04-22T12:44:21Z</time></trkpt><trkpt lat="42.272360240932365" lon="3.135564904839124"><ele>6.0</ele><time>2026-04-22T12:44:22Z</time></trkpt><trkpt lat="42.27236857113156" lon="3.135430759569917"><ele>6.0</ele><time>2026-04-22T12:44:23Z</time></trkpt><trkpt lat="42.27237472039227" lon="3.135299967297692"><ele>6.0</ele><time>2026-04-22T12:44:24Z</time></trkpt><trkpt lat="42.27240538048362" lon="3.13517957219643"><ele>6.0</ele><time>2026-04-22T12:44:25Z</time></trkpt><trkpt lat="42.27249447049676" lon="3.1350930866154014"><ele>6.0</ele><time>2026-04-22T12:44:26Z</time></trkpt><trkpt lat="42.27253605865604" lon="3.1349853175864197"><ele>6.0</ele><time>2026-04-22T12:44:27Z</time></trkpt><trkpt lat="42.27255375219901" lon="3.134831094905768"><ele>5.75</ele><time>2026-04-22T12:44:28Z</time></trkpt><trkpt lat="42.27247258492379" lon="3.1346546735890355"><ele>5.5</ele><time>2026-04-22T12:44:30Z</time></trkpt><trkpt lat="42.2724034159026" lon="3.1345651203774603"><ele>5.25</ele><time>2026-04-22T12:44:31Z</time></trkpt><trkpt lat="42.27232279713068" lon="3.1344750214813137"><ele>5.0</ele><time>2026-04-22T12:44:32Z</time></trkpt><trkpt lat="42.27227961848822" lon="3.134321204732543"><ele>4.5</ele><time>2026-04-22T12:44:33Z</time></trkpt><trkpt lat="42.2722256799267" lon="3.1341669155348706"><ele>4.0</ele><time>2026-04-22T12:44:34Z</time></trkpt><trkpt lat="42.27216483829697" lon="3.1340093405897167"><ele>3.5</ele><time>2026-04-22T12:44:35Z</time></trkpt><trkpt lat="42.272095589815045" lon="3.1338492756824436"><ele>3.0</ele><time>2026-04-22T12:44:36Z</time></trkpt><trkpt lat="42.27201571547482" lon="3.133695542094317"><ele>3.0</ele><time>2026-04-22T12:44:37Z</time></trkpt><trkpt lat="42.27193224083064" lon="3.1335459393383105"><ele>3.0</ele><time>2026-04-22T12:44:38Z</time></trkpt><trkpt lat="42.27184691344558" lon="3.1334063136582304"><ele>3.0</ele><time>2026-04-22T12:44:39Z</time></trkpt><trkpt lat="42.27175854158786" lon="3.1332725791452205"><ele>3.0</ele><time>2026-04-22T12:44:40Z</time></trkpt><trkpt lat="42.2716710899991" lon="3.1331399446733004"><ele>3.25</ele><time>2026-04-22T12:44:41Z</time></trkpt><trkpt lat="42.27158296271577" lon="3.133008716516093"><ele>3.5</ele><time>2026-04-22T12:44:42Z</time></trkpt><trkpt lat="42.27149242704818" lon="3.132868888292745"><ele>3.75</ele><time>2026-04-22T12:44:43Z</time></trkpt><trkpt lat="42.271393582691765" lon="3.132723294786078"><ele>4.0</ele><time>2026-04-22T12:44:44Z</time></trkpt><trkpt lat="42.271296669350455" lon="3.1325790743453306"><ele>4.0</ele><time>2026-04-22T12:44:45Z</time></trkpt><trkpt lat="42.271194690923856" lon="3.132427207438352"><ele>4.0</ele><time>2026-04-22T12:44:46Z</time></trkpt><trkpt lat="42.27109204967882" lon="3.1322678275014466"><ele>4.0</ele><time>2026-04-22T12:44:47Z</time></trkpt><trkpt lat="42.270989420552944" lon="3.1321074591181253"><ele>3.6666666666666665</ele><time>2026-04-22T12:44:48Z</time></trkpt><trkpt lat="42.2708842917579" lon="3.1319480868386798"><ele>3.333333333333333</ele><time>2026-04-22T12:44:49Z</time></trkpt><trkpt lat="42.27078007247672" lon="3.1317884622901375"><ele>3.0</ele><time>2026-04-22T12:44:50Z</time></trkpt><trkpt lat="42.270675986202896" lon="3.1316267291527717"><ele>2.3333333333333335</ele><time>2026-04-22T12:44:51Z</time></trkpt><trkpt lat="42.27056814022242" lon="3.131461419316147"><ele>1.6666666666666665</ele><time>2026-04-22T12:44:52Z</time></trkpt><trkpt lat="42.27046081326659" lon="3.131296330149381"><ele>1.0</ele><time>2026-04-22T12:44:53Z</time></trkpt><trkpt lat="42.27035523148199" lon="3.131133382020322"><ele>1.0</ele><time>2026-04-22T12:44:54Z</time></trkpt><trkpt lat="42.270249869902244" lon="3.1309662589537646"><ele>1.0</ele><time>2026-04-22T12:44:55Z</time></trkpt><trkpt lat="42.27013911714945" lon="3.130798502270475"><ele>1.0</ele><time>2026-04-22T12:44:56Z</time></trkpt><trkpt lat="42.27003109206278" lon="3.130634511366142"><ele>1.0</ele><time>2026-04-22T12:44:57Z</time></trkpt><trkpt lat="42.26981600172358" lon="3.1302949029114266"><ele>1.0</ele><time>2026-04-22T12:44:59Z</time></trkpt><trkpt lat="42.26970221463472" lon="3.1301273307206325"><ele>1.0</ele><time>2026-04-22T12:45:00Z</time></trkpt><trkpt lat="42.26958887198582" lon="3.129962248692907"><ele>1.0</ele><time>2026-04-22T12:45:01Z</time></trkpt><trkpt lat="42.26946874670679" lon="3.1297922584921705"><ele>1.0</ele><time>2026-04-22T12:45:02Z</time></trkpt><trkpt lat="42.26935880187884" lon="3.129617515664274"><ele>0.3333333333333333</ele><time>2026-04-22T12:45:03Z</time></trkpt><trkpt lat="42.26924233436477" lon="3.1294501513139665"><ele>-0.3333333333333333</ele><time>2026-04-22T12:45:04Z</time></trkpt><trkpt lat="42.2691272880077" lon="3.1292816580826632"><ele>-1.0</ele><time>2026-04-22T12:45:05Z</time></trkpt><trkpt lat="42.26900601792065" lon="3.1291081030291252"><ele>-0.3333333333333333</ele><time>2026-04-22T12:45:06Z</time></trkpt><trkpt lat="42.26889420196112" lon="3.1289352743497965"><ele>0.3333333333333333</ele><time>2026-04-22T12:45:07Z</time></trkpt><trkpt lat="42.26878191927653" lon="3.1287652416930936"><ele>1.0</ele><time>2026-04-22T12:45:08Z</time></trkpt><trkpt lat="42.26867784529752" lon="3.1286013843182783"><ele>1.0</ele><time>2026-04-22T12:45:09Z</time></trkpt><trkpt lat="42.268569343563755" lon="3.128430230601482"><ele>1.0</ele><time>2026-04-22T12:45:10Z</time></trkpt><trkpt lat="42.2684561248004" lon="3.128261209955593"><ele>1.0</ele><time>2026-04-22T12:45:11Z</time></trkpt><trkpt lat="42.26834268594453" lon="3.128082920717829"><ele>0.6666666666666666</ele><time>2026-04-22T12:45:12Z</time></trkpt><trkpt lat="42.26821728406386" lon="3.127898233335321"><ele>0.3333333333333333</ele><time>2026-04-22T12:45:13Z</time></trkpt><trkpt lat="42.26808897053105" lon="3.127717490713542"><ele>0.0</ele><time>2026-04-22T12:45:14Z</time></trkpt><trkpt lat="42.267955707279725" lon="3.1275328668714555"><ele>0.0</ele><time>2026-04-22T12:45:15Z</time></trkpt><trkpt lat="42.26782980251597" lon="3.1273501837683604"><ele>0.0</ele><time>2026-04-22T12:45:16Z</time></trkpt><trkpt lat="42.267706728005194" lon="3.1271659605546267"><ele>0.0</ele><time>2026-04-22T12:45:17Z</time></trkpt><trkpt lat="42.26758115522498" lon="3.1269784496421673"><ele>0.0</ele><time>2026-04-22T12:45:18Z</time></trkpt><trkpt lat="42.26746994827246" lon="3.1267944414626965"><ele>0.0</ele><time>2026-04-22T12:45:19Z</time></trkpt><trkpt lat="42.26736398883748" lon="3.126602652361452"><ele>0.0</ele><time>2026-04-22T12:45:20Z</time></trkpt><trkpt lat="42.26727723874501" lon="3.1263983722792474"><ele>0.0</ele><time>2026-04-22T12:45:21Z</time></trkpt><trkpt lat="42.26720761248167" lon="3.1261924242505654"><ele>0.0</ele><time>2026-04-22T12:45:22Z</time></trkpt><trkpt lat="42.26713667959012" lon="3.125976441016424"><ele>0.0</ele><time>2026-04-22T12:45:23Z</time></trkpt><trkpt lat="42.26706021123071" lon="3.125758149988547"><ele>0.0</ele><time>2026-04-22T12:45:24Z</time></trkpt><trkpt lat="42.266988231232915" lon="3.1255394157941008"><ele>0.0</ele><time>2026-04-22T12:45:25Z</time></trkpt><trkpt lat="42.26691741507493" lon="3.12532109251186"><ele>0.0</ele><time>2026-04-22T12:45:26Z</time></trkpt><trkpt lat="42.266840845707506" lon="3.1250956395975833"><ele>0.0</ele><time>2026-04-22T12:45:27Z</time></trkpt><trkpt lat="42.26676772180942" lon="3.124873699536249"><ele>0.0</ele><time>2026-04-22T12:45:28Z</time></trkpt><trkpt lat="42.2666877961984" lon="3.124650731087693"><ele>0.0</ele><time>2026-04-22T12:45:29Z</time></trkpt><trkpt lat="42.26660798928415" lon="3.1244288870612955"><ele>0.0</ele><time>2026-04-22T12:45:30Z</time></trkpt><trkpt lat="42.26653123680017" lon="3.124209004411987"><ele>0.0</ele><time>2026-04-22T12:45:31Z</time></trkpt><trkpt lat="42.26645860843793" lon="3.12399118567618"><ele>0.0</ele><time>2026-04-22T12:45:32Z</time></trkpt><trkpt lat="42.266380418623484" lon="3.123777083202272"><ele>0.0</ele><time>2026-04-22T12:45:33Z</time></trkpt><trkpt lat="42.26624165199908" lon="3.1233603134780408"><ele>0.0</ele><time>2026-04-22T12:45:35Z</time></trkpt><trkpt lat="42.266165628137315" lon="3.1231476645945784"><ele>-0.5</ele><time>2026-04-22T12:45:36Z</time></trkpt><trkpt lat="42.26600868138661" lon="3.1227019248050065"><ele>-1.0</ele><time>2026-04-22T12:45:38Z</time></trkpt><trkpt lat="42.26593650881412" lon="3.122495887803959"><ele>-1.3333333333333333</ele><time>2026-04-22T12:45:39Z</time></trkpt><trkpt lat="42.26584376632457" lon="3.1222805981619786"><ele>-1.6666666666666665</ele><time>2026-04-22T12:45:40Z</time></trkpt><trkpt lat="42.26577926945582" lon="3.12204986745335"><ele>-2.0</ele><time>2026-04-22T12:45:41Z</time></trkpt><trkpt lat="42.2657037765262" lon="3.1218362008102205"><ele>-2.0</ele><time>2026-04-22T12:45:42Z</time></trkpt><trkpt lat="42.2656154106241" lon="3.1216359568014056"><ele>-2.0</ele><time>2026-04-22T12:45:43Z</time></trkpt><trkpt lat="42.26554115009228" lon="3.1214275940977685"><ele>-2.0</ele><time>2026-04-22T12:45:44Z</time></trkpt><trkpt lat="42.26547057410565" lon="3.1212226017023976"><ele>0.0</ele><time>2026-04-22T12:45:45Z</time></trkpt><trkpt lat="42.26529715683525" lon="3.1205741604208024"><ele>0.0</ele><time>2026-04-22T12:45:48Z</time></trkpt><trkpt lat="42.26526285019771" lon="3.120334777208792"><ele>0.0</ele><time>2026-04-22T12:45:49Z</time></trkpt><trkpt lat="42.26524031952293" lon="3.1200899950654577"><ele>0.0</ele><time>2026-04-22T12:45:50Z</time></trkpt><trkpt lat="42.26522269274333" lon="3.1196044350719325"><ele>0.0</ele><time>2026-04-22T12:45:52Z</time></trkpt><trkpt lat="42.265217381684515" lon="3.1193598353017973"><ele>0.0</ele><time>2026-04-22T12:45:53Z</time></trkpt><trkpt lat="42.2652119167458" lon="3.1191081486850756"><ele>0.0</ele><time>2026-04-22T12:45:54Z</time></trkpt><trkpt lat="42.26520660754279" lon="3.1188636343998173"><ele>0.5</ele><time>2026-04-22T12:45:55Z</time></trkpt><trkpt lat="42.26521025173687" lon="3.1186169917508684"><ele>1.0</ele><time>2026-04-22T12:45:56Z</time></trkpt><trkpt lat="42.26520074956541" lon="3.1181329569083074"><ele>1.3333333333333333</ele><time>2026-04-22T12:45:58Z</time></trkpt><trkpt lat="42.265201148556386" lon="3.1178848354874504"><ele>1.6666666666666665</ele><time>2026-04-22T12:45:59Z</time></trkpt><trkpt lat="42.265181132839054" lon="3.1176352363165045"><ele>2.0</ele><time>2026-04-22T12:46:00Z</time></trkpt><trkpt lat="42.265175585185105" lon="3.1173871228870436"><ele>2.5</ele><time>2026-04-22T12:46:01Z</time></trkpt><trkpt lat="42.26517976980263" lon="3.1168971355458357"><ele>3.0</ele><time>2026-04-22T12:46:03Z</time></trkpt><trkpt lat="42.26515936308034" lon="3.116655808519109"><ele>3.0</ele><time>2026-04-22T12:46:04Z</time></trkpt><trkpt lat="42.26515462348589" lon="3.1164159475550948"><ele>3.0</ele><time>2026-04-22T12:46:05Z</time></trkpt><trkpt lat="42.26514989488211" lon="3.1161766427302124"><ele>3.0</ele><time>2026-04-22T12:46:06Z</time></trkpt><trkpt lat="42.265145199207346" lon="3.115939004533922"><ele>2.3333333333333335</ele><time>2026-04-22T12:46:07Z</time></trkpt><trkpt lat="42.26514052889409" lon="3.1157026496600397"><ele>1.6666666666666665</ele><time>2026-04-22T12:46:08Z</time></trkpt><trkpt lat="42.26513581831954" lon="3.115464257333217"><ele>1.0</ele><time>2026-04-22T12:46:09Z</time></trkpt><trkpt lat="42.26513090715529" lon="3.115228039649344"><ele>1.0</ele><time>2026-04-22T12:46:10Z</time></trkpt><trkpt lat="42.2651253730875" lon="3.1149895448980427"><ele>1.0</ele><time>2026-04-22T12:46:11Z</time></trkpt><trkpt lat="42.265119829127464" lon="3.1147506238861036"><ele>1.0</ele><time>2026-04-22T12:46:12Z</time></trkpt><trkpt lat="42.26511429719992" lon="3.114512221307212"><ele>1.0</ele><time>2026-04-22T12:46:13Z</time></trkpt><trkpt lat="42.265116939004976" lon="3.1140457989139123"><ele>1.0</ele><time>2026-04-22T12:46:15Z</time></trkpt><trkpt lat="42.265113718245175" lon="3.1138213375869745"><ele>1.0</ele><time>2026-04-22T12:46:16Z</time></trkpt><trkpt lat="42.26510812705291" lon="3.1136041188213355"><ele>1.0</ele><time>2026-04-22T12:46:17Z</time></trkpt><trkpt lat="42.26510581222166" lon="3.1133934125094482"><ele>1.0</ele><time>2026-04-22T12:46:18Z</time></trkpt><trkpt lat="42.265087117575995" lon="3.113187019880409"><ele>1.0</ele><time>2026-04-22T12:46:19Z</time></trkpt><trkpt lat="42.26508297967186" lon="3.1129920873654053"><ele>1.0</ele><time>2026-04-22T12:46:20Z</time></trkpt><trkpt lat="42.26507898278274" lon="3.1128037979861527"><ele>1.0</ele><time>2026-04-22T12:46:21Z</time></trkpt><trkpt lat="42.26507509830614" lon="3.1126208041937233"><ele>1.0</ele><time>2026-04-22T12:46:22Z</time></trkpt><trkpt lat="42.26507135593529" lon="3.1124445048252043"><ele>1.0</ele><time>2026-04-22T12:46:23Z</time></trkpt><trkpt lat="42.26506772848225" lon="3.112273619264135"><ele>1.0</ele><time>2026-04-22T12:46:24Z</time></trkpt><trkpt lat="42.265069285296356" lon="3.112112680021027"><ele>1.0</ele><time>2026-04-22T12:46:25Z</time></trkpt><trkpt lat="42.26506118979756" lon="3.111950141349722"><ele>1.0</ele><time>2026-04-22T12:46:26Z</time></trkpt><trkpt lat="42.26505249994659" lon="3.1117945624083365"><ele>1.0</ele><time>2026-04-22T12:46:27Z</time></trkpt><trkpt lat="42.2650445990123" lon="3.1116498650244457"><ele>1.0</ele><time>2026-04-22T12:46:28Z</time></trkpt><trkpt lat="42.26503736091703" lon="3.1115124600096267"><ele>1.0</ele><time>2026-04-22T12:46:29Z</time></trkpt><trkpt lat="42.26503225151835" lon="3.111377050146315"><ele>1.0</ele><time>2026-04-22T12:46:30Z</time></trkpt><trkpt lat="42.26502513909683" lon="3.111247606766098"><ele>1.0</ele><time>2026-04-22T12:46:31Z</time></trkpt><trkpt lat="42.26509472090396" lon="3.111137547346909"><ele>1.0</ele><time>2026-04-22T12:46:32Z</time></trkpt><trkpt lat="42.26510748336729" lon="3.111016551759103"><ele>1.0</ele><time>2026-04-22T12:46:33Z</time></trkpt><trkpt lat="42.26507942857861" lon="3.1109017436307687"><ele>1.0</ele><time>2026-04-22T12:46:34Z</time></trkpt><trkpt lat="42.26504325671646" lon="3.110792208625614"><ele>1.0</ele><time>2026-04-22T12:46:35Z</time></trkpt><trkpt lat="42.264967163206265" lon="3.110709057739024"><ele>1.0</ele><time>2026-04-22T12:46:36Z</time></trkpt><trkpt lat="42.26488821750543" lon="3.110619487774408"><ele>1.25</ele><time>2026-04-22T12:46:37Z</time></trkpt><trkpt lat="42.264816721990464" lon="3.1105005278606557"><ele>1.5</ele><time>2026-04-22T12:46:38Z</time></trkpt><trkpt lat="42.26475654527408" lon="3.1103578601757325"><ele>1.75</ele><time>2026-04-22T12:46:39Z</time></trkpt><trkpt lat="42.26470202935421" lon="3.1101967769276215"><ele>2.0</ele><time>2026-04-22T12:46:40Z</time></trkpt><trkpt lat="42.26465722884987" lon="3.11002464602722"><ele>2.0</ele><time>2026-04-22T12:46:41Z</time></trkpt><trkpt lat="42.26460719446499" lon="3.1098437731111868"><ele>2.0</ele><time>2026-04-22T12:46:42Z</time></trkpt><trkpt lat="42.264552787385874" lon="3.109650135510242"><ele>2.0</ele><time>2026-04-22T12:46:43Z</time></trkpt><trkpt lat="42.26450095819212" lon="3.1094610405365293"><ele>2.0</ele><time>2026-04-22T12:46:44Z</time></trkpt><trkpt lat="42.26445000858033" lon="3.1092675503601948"><ele>1.6666666666666665</ele><time>2026-04-22T12:46:45Z</time></trkpt><trkpt lat="42.26439428947654" lon="3.109070869504973"><ele>1.3333333333333333</ele><time>2026-04-22T12:46:46Z</time></trkpt><trkpt lat="42.26434117069824" lon="3.108870308591976"><ele>1.0</ele><time>2026-04-22T12:46:47Z</time></trkpt><trkpt lat="42.264286317006786" lon="3.1086649512390903"><ele>1.0</ele><time>2026-04-22T12:46:48Z</time></trkpt><trkpt lat="42.264235611208846" lon="3.10846582884267"><ele>1.0</ele><time>2026-04-22T12:46:49Z</time></trkpt><trkpt lat="42.26417983201235" lon="3.108264328787454"><ele>1.0</ele><time>2026-04-22T12:46:50Z</time></trkpt><trkpt lat="42.264125734185384" lon="3.1080701564162645"><ele>1.0</ele><time>2026-04-22T12:46:51Z</time></trkpt><trkpt lat="42.264074391427755" lon="3.1078785413982284"><ele>1.0</ele><time>2026-04-22T12:46:52.001Z</time></trkpt><trkpt lat="42.26402616270038" lon="3.107689132020177"><ele>1.0</ele><time>2026-04-22T12:46:53Z</time></trkpt><trkpt lat="42.26397913734621" lon="3.1075022801225245"><ele>1.0</ele><time>2026-04-22T12:46:54Z</time></trkpt><trkpt lat="42.263914997594725" lon="3.1073243273264834"><ele>1.0</ele><time>2026-04-22T12:46:55Z</time></trkpt><trkpt lat="42.26386722151123" lon="3.107141703995756"><ele>1.0</ele><time>2026-04-22T12:46:56Z</time></trkpt><trkpt lat="42.26382038615973" lon="3.106961613855545"><ele>1.0</ele><time>2026-04-22T12:46:57Z</time></trkpt><trkpt lat="42.263780310452404" lon="3.1067823657152753"><ele>1.0</ele><time>2026-04-22T12:46:58Z</time></trkpt><trkpt lat="42.26373819062517" lon="3.1066089186661716"><ele>1.5</ele><time>2026-04-22T12:46:59Z</time></trkpt><trkpt lat="42.263694236364614" lon="3.106434136049302"><ele>2.0</ele><time>2026-04-22T12:47:00Z</time></trkpt><trkpt lat="42.263652128014726" lon="3.106262857141021"><ele>2.5</ele><time>2026-04-22T12:47:01Z</time></trkpt><trkpt lat="42.26361167587912" lon="3.1060943742329"><ele>3.0</ele><time>2026-04-22T12:47:02Z</time></trkpt><trkpt lat="42.263568462802304" lon="3.1059254800135028"><ele>3.0</ele><time>2026-04-22T12:47:03Z</time></trkpt><trkpt lat="42.2635251011244" lon="3.105760869154355"><ele>3.0</ele><time>2026-04-22T12:47:04Z</time></trkpt><trkpt lat="42.263481292333175" lon="3.105596585699569"><ele>3.0</ele><time>2026-04-22T12:47:05Z</time></trkpt><trkpt lat="42.26343838131099" lon="3.1054385992390516"><ele>3.0</ele><time>2026-04-22T12:47:06Z</time></trkpt><trkpt lat="42.26339915019808" lon="3.1052845937180034"><ele>3.25</ele><time>2026-04-22T12:47:07Z</time></trkpt><trkpt lat="42.26336150030853" lon="3.1051355080003664"><ele>3.5</ele><time>2026-04-22T12:47:08Z</time></trkpt><trkpt lat="42.26332219815538" lon="3.1049875102129656"><ele>3.75</ele><time>2026-04-22T12:47:09Z</time></trkpt><trkpt lat="42.26328565881239" lon="3.1048421333146283"><ele>4.0</ele><time>2026-04-22T12:47:10Z</time></trkpt><trkpt lat="42.26324791091045" lon="3.1047003148026002"><ele>3.9999999999999996</ele><time>2026-04-22T12:47:11Z</time></trkpt><trkpt lat="42.26321444856421" lon="3.104569889523828"><ele>4.0</ele><time>2026-04-22T12:47:12Z</time></trkpt><trkpt lat="42.26317768945953" lon="3.1044542987585637"><ele>4.0</ele><time>2026-04-22T12:47:13Z</time></trkpt><trkpt lat="42.263146265186414" lon="3.1043470116333673"><ele>4.0</ele><time>2026-04-22T12:47:14Z</time></trkpt><trkpt lat="42.26311450145494" lon="3.104245111701952"><ele>3.9999999999999996</ele><time>2026-04-22T12:47:15Z</time></trkpt><trkpt lat="42.26308353198491" lon="3.104145268207505"><ele>4.0</ele><time>2026-04-22T12:47:16Z</time></trkpt><trkpt lat="42.26306719644841" lon="3.1040422474714107"><ele>3.6</ele><time>2026-04-22T12:47:17Z</time></trkpt><trkpt lat="42.26305471714718" lon="3.1039282001495927"><ele>3.2</ele><time>2026-04-22T12:47:18Z</time></trkpt><trkpt lat="42.26303966531842" lon="3.103807536700126"><ele>2.8000000000000003</ele><time>2026-04-22T12:47:19Z</time></trkpt><trkpt lat="42.26300702888414" lon="3.1036889695126493"><ele>2.4000000000000004</ele><time>2026-04-22T12:47:20Z</time></trkpt><trkpt lat="42.26296607490864" lon="3.103575824084716"><ele>2.0</ele><time>2026-04-22T12:47:21Z</time></trkpt><trkpt lat="42.262913204227864" lon="3.103475232977715"><ele>2.0</ele><time>2026-04-22T12:47:22Z</time></trkpt><trkpt lat="42.26290935282714" lon="3.103356355089867"><ele>2.0</ele><time>2026-04-22T12:47:23Z</time></trkpt><trkpt lat="42.26289002615298" lon="3.1032434762571643"><ele>2.0</ele><time>2026-04-22T12:47:24Z</time></trkpt><trkpt lat="42.26285304238615" lon="3.103133876497109"><ele>2.0</ele><time>2026-04-22T12:47:25Z</time></trkpt><trkpt lat="42.26284247677998" lon="3.1030000214503004"><ele>2.0</ele><time>2026-04-22T12:47:26Z</time></trkpt><trkpt lat="42.26281178518423" lon="3.102870636183485"><ele>2.0</ele><time>2026-04-22T12:47:27Z</time></trkpt><trkpt lat="42.26277264687505" lon="3.102728392865827"><ele>2.0</ele><time>2026-04-22T12:47:28Z</time></trkpt><trkpt lat="42.262730315519974" lon="3.1025733478467616"><ele>2.0</ele><time>2026-04-22T12:47:29Z</time></trkpt><trkpt lat="42.2626894479572" lon="3.102414595865736"><ele>2.0</ele><time>2026-04-22T12:47:30Z</time></trkpt><trkpt lat="42.26264886409995" lon="3.1022435048721966"><ele>2.0</ele><time>2026-04-22T12:47:31Z</time></trkpt><trkpt lat="42.262609282044444" lon="3.1020624861269797"><ele>2.0</ele><time>2026-04-22T12:47:32Z</time></trkpt><trkpt lat="42.26253823159632" lon="3.1018764113708883"><ele>2.0</ele><time>2026-04-22T12:47:33Z</time></trkpt><trkpt lat="42.262489489938616" lon="3.101678290645653"><ele>2.0</ele><time>2026-04-22T12:47:34Z</time></trkpt><trkpt lat="42.26243999842507" lon="3.101479206857164"><ele>2.0</ele><time>2026-04-22T12:47:35Z</time></trkpt><trkpt lat="42.26238820042553" lon="3.1012795880206934"><ele>2.0</ele><time>2026-04-22T12:47:36Z</time></trkpt><trkpt lat="42.26233721184702" lon="3.1010738241744384"><ele>2.0</ele><time>2026-04-22T12:47:37Z</time></trkpt><trkpt lat="42.26228831862838" lon="3.100867002208781"><ele>2.6666666666666665</ele><time>2026-04-22T12:47:38Z</time></trkpt><trkpt lat="42.26223928920424" lon="3.1006579383084585"><ele>3.333333333333333</ele><time>2026-04-22T12:47:39Z</time></trkpt><trkpt lat="42.26218485143009" lon="3.100437088079695"><ele>4.0</ele><time>2026-04-22T12:47:40Z</time></trkpt><trkpt lat="42.2621313730657" lon="3.1002225016821776"><ele>4.0</ele><time>2026-04-22T12:47:41Z</time></trkpt><trkpt lat="42.262076213127955" lon="3.1000075492911052"><ele>4.0</ele><time>2026-04-22T12:47:42Z</time></trkpt><trkpt lat="42.26201392704398" lon="3.099784021746605"><ele>4.0</ele><time>2026-04-22T12:47:43Z</time></trkpt><trkpt lat="42.261954368629866" lon="3.099553336968266"><ele>3.6666666666666665</ele><time>2026-04-22T12:47:44Z</time></trkpt><trkpt lat="42.26188907559763" lon="3.0993212618113892"><ele>3.333333333333333</ele><time>2026-04-22T12:47:45Z</time></trkpt><trkpt lat="42.261827266528876" lon="3.0990808813133124"><ele>3.0</ele><time>2026-04-22T12:47:46Z</time></trkpt><trkpt lat="42.2617659335337" lon="3.0988392431312537"><ele>2.6666666666666665</ele><time>2026-04-22T12:47:47Z</time></trkpt><trkpt lat="42.26171015748169" lon="3.0985967092246294"><ele>2.333333333333333</ele><time>2026-04-22T12:47:48Z</time></trkpt><trkpt lat="42.261648516038264" lon="3.0983638021092714"><ele>2.0</ele><time>2026-04-22T12:47:49Z</time></trkpt><trkpt lat="42.26158314220398" lon="3.098126621552372"><ele>2.333333333333333</ele><time>2026-04-22T12:47:50Z</time></trkpt><trkpt lat="42.261527223533044" lon="3.0978920676738158"><ele>2.6666666666666665</ele><time>2026-04-22T12:47:51Z</time></trkpt><trkpt lat="42.261470443618926" lon="3.0976575139741094"><ele>3.0</ele><time>2026-04-22T12:47:52Z</time></trkpt><trkpt lat="42.26140316258756" lon="3.0974184472786797"><ele>3.0</ele><time>2026-04-22T12:47:53Z</time></trkpt><trkpt lat="42.26134366579408" lon="3.0971805941673276"><ele>3.0</ele><time>2026-04-22T12:47:54Z</time></trkpt><trkpt lat="42.26128814574222" lon="3.0969415574010704"><ele>3.0</ele><time>2026-04-22T12:47:55Z</time></trkpt><trkpt lat="42.26123447450916" lon="3.0967170128631736"><ele>3.333333333333333</ele><time>2026-04-22T12:47:56Z</time></trkpt><trkpt lat="42.261176112514974" lon="3.0964986692339043"><ele>3.6666666666666665</ele><time>2026-04-22T12:47:57Z</time></trkpt><trkpt lat="42.26111303665793" lon="3.096278361491157"><ele>4.0</ele><time>2026-04-22T12:47:58Z</time></trkpt><trkpt lat="42.26105781819627" lon="3.096057550246595"><ele>4.0</ele><time>2026-04-22T12:47:59Z</time></trkpt><trkpt lat="42.261002618159004" lon="3.0958431764712877"><ele>4.0</ele><time>2026-04-22T12:48:00Z</time></trkpt><trkpt lat="42.26089947268193" lon="3.0954498503151853"><ele>3.5</ele><time>2026-04-22T12:48:02Z</time></trkpt><trkpt lat="42.26084923117404" lon="3.095269237545871"><ele>3.0</ele><time>2026-04-22T12:48:03Z</time></trkpt><trkpt lat="42.26080394304174" lon="3.0950968419983536"><ele>2.5</ele><time>2026-04-22T12:48:04Z</time></trkpt><trkpt lat="42.260762828467875" lon="3.0949368514290314"><ele>2.0</ele><time>2026-04-22T12:48:05Z</time></trkpt><trkpt lat="42.26072697014203" lon="3.094780183597053"><ele>2.0</ele><time>2026-04-22T12:48:06Z</time></trkpt><trkpt lat="42.26069225722972" lon="3.0946405999575046"><ele>2.0</ele><time>2026-04-22T12:48:07Z</time></trkpt><trkpt lat="42.26066638958862" lon="3.0945176194373656"><ele>2.0</ele><time>2026-04-22T12:48:08Z</time></trkpt><trkpt lat="42.26064129230221" lon="3.0944032751224344"><ele>2.0</ele><time>2026-04-22T12:48:09Z</time></trkpt><trkpt lat="42.26062877498681" lon="3.0942922773697914"><ele>2.0</ele><time>2026-04-22T12:48:10Z</time></trkpt><trkpt lat="42.260612868039225" lon="3.094182922070995"><ele>2.1666666666666665</ele><time>2026-04-22T12:48:11Z</time></trkpt><trkpt lat="42.26065998164588" lon="3.0940792762072613"><ele>2.333333333333333</ele><time>2026-04-22T12:48:12Z</time></trkpt><trkpt lat="42.26068608732041" lon="3.0939669860824575"><ele>2.5</ele><time>2026-04-22T12:48:13Z</time></trkpt><trkpt lat="42.260690504612484" lon="3.093855016451624"><ele>2.6666666666666665</ele><time>2026-04-22T12:48:14Z</time></trkpt><trkpt lat="42.26065851023394" lon="3.0937509952745756"><ele>2.8333333333333335</ele><time>2026-04-22T12:48:15Z</time></trkpt><trkpt lat="42.26060483766079" lon="3.093657874584724"><ele>3.0</ele><time>2026-04-22T12:48:16Z</time></trkpt><trkpt lat="42.260529304260835" lon="3.093583176546863"><ele>3.0</ele><time>2026-04-22T12:48:17Z</time></trkpt><trkpt lat="42.26044504291027" lon="3.093545684654844"><ele>3.0</ele><time>2026-04-22T12:48:18Z</time></trkpt><trkpt lat="42.26039646790231" lon="3.093392706952334"><ele>3.0</ele><time>2026-04-22T12:48:19Z</time></trkpt><trkpt lat="42.26033359106868" lon="3.0932640217610117"><ele>3.0</ele><time>2026-04-22T12:48:20Z</time></trkpt><trkpt lat="42.26029105119506" lon="3.093105511096729"><ele>3.0</ele><time>2026-04-22T12:48:21Z</time></trkpt><trkpt lat="42.26023186046577" lon="3.092922233922472"><ele>3.0</ele><time>2026-04-22T12:48:22Z</time></trkpt><trkpt lat="42.26018300408322" lon="3.0927379250365368"><ele>3.0</ele><time>2026-04-22T12:48:23Z</time></trkpt><trkpt lat="42.260137802643555" lon="3.0925441646188996"><ele>3.0</ele><time>2026-04-22T12:48:24Z</time></trkpt><trkpt lat="42.26008849895615" lon="3.0923490324891856"><ele>3.333333333333333</ele><time>2026-04-22T12:48:25Z</time></trkpt><trkpt lat="42.260036169365854" lon="3.0921512831804465"><ele>3.6666666666666665</ele><time>2026-04-22T12:48:26Z</time></trkpt><trkpt lat="42.25997620286291" lon="3.0919405965135245"><ele>4.0</ele><time>2026-04-22T12:48:27Z</time></trkpt><trkpt lat="42.2599072539879" lon="3.0917281958913314"><ele>4.0</ele><time>2026-04-22T12:48:28Z</time></trkpt><trkpt lat="42.259833310470476" lon="3.0915091912658488"><ele>4.0</ele><time>2026-04-22T12:48:29Z</time></trkpt><trkpt lat="42.259753232434896" lon="3.091286231391843"><ele>4.0</ele><time>2026-04-22T12:48:30Z</time></trkpt><trkpt lat="42.25966002692505" lon="3.0910650140894775"><ele>4.0</ele><time>2026-04-22T12:48:31Z</time></trkpt><trkpt lat="42.25955720874345" lon="3.0908486412531624"><ele>4.0</ele><time>2026-04-22T12:48:32Z</time></trkpt><trkpt lat="42.2594523755435" lon="3.0906308804421068"><ele>4.0</ele><time>2026-04-22T12:48:33Z</time></trkpt><trkpt lat="42.259342793860284" lon="3.090422188518918"><ele>4.0</ele><time>2026-04-22T12:48:34Z</time></trkpt><trkpt lat="42.25921817800304" lon="3.0902147608490163"><ele>4.0</ele><time>2026-04-22T12:48:35Z</time></trkpt><trkpt lat="42.25909982258487" lon="3.090017271702057"><ele>4.0</ele><time>2026-04-22T12:48:36Z</time></trkpt><trkpt lat="42.258971827061444" lon="3.0898187574792453"><ele>4.0</ele><time>2026-04-22T12:48:37Z</time></trkpt><trkpt lat="42.258831713359406" lon="3.08963199771765"><ele>4.0</ele><time>2026-04-22T12:48:38Z</time></trkpt><trkpt lat="42.25868564683576" lon="3.08944818325218"><ele>4.0</ele><time>2026-04-22T12:48:39Z</time></trkpt><trkpt lat="42.25853199978265" lon="3.0892711636907655"><ele>4.0</ele><time>2026-04-22T12:48:40Z</time></trkpt><trkpt lat="42.25837593251246" lon="3.0890990169251085"><ele>4.0</ele><time>2026-04-22T12:48:41Z</time></trkpt><trkpt lat="42.258210505347336" lon="3.088933031922347"><ele>4.0</ele><time>2026-04-22T12:48:42Z</time></trkpt><trkpt lat="42.25804365328041" lon="3.088778218815957"><ele>5.0</ele><time>2026-04-22T12:48:43Z</time></trkpt><trkpt lat="42.25786880757092" lon="3.088632379257589"><ele>6.0</ele><time>2026-04-22T12:48:44Z</time></trkpt><trkpt lat="42.25768740740948" lon="3.088497849557649"><ele>7.0</ele><time>2026-04-22T12:48:45Z</time></trkpt><trkpt lat="42.257506052794156" lon="3.0883676938508384"><ele>6.666666666666667</ele><time>2026-04-22T12:48:46Z</time></trkpt><trkpt lat="42.2573235425318" lon="3.08824270927583"><ele>6.333333333333334</ele><time>2026-04-22T12:48:47Z</time></trkpt><trkpt lat="42.25713667151615" lon="3.0881112617920286"><ele>6.0</ele><time>2026-04-22T12:48:47.999Z</time></trkpt><trkpt lat="42.256950653870476" lon="3.0879828654017287"><ele>6.0</ele><time>2026-04-22T12:48:48.999Z</time></trkpt><trkpt lat="42.256762745234084" lon="3.0878506116303006"><ele>6.0</ele><time>2026-04-22T12:48:49.999Z</time></trkpt><trkpt lat="42.256578127242896" lon="3.087715855675184"><ele>6.0</ele><time>2026-04-22T12:48:50.999Z</time></trkpt><trkpt lat="42.25639561430785" lon="3.087586829748442"><ele>6.333333333333334</ele><time>2026-04-22T12:48:51.999Z</time></trkpt><trkpt lat="42.25621324867954" lon="3.087458825085602"><ele>6.666666666666667</ele><time>2026-04-22T12:48:52.999Z</time></trkpt><trkpt lat="42.256030742402906" lon="3.0873345871321463"><ele>7.0</ele><time>2026-04-22T12:48:53.999Z</time></trkpt><trkpt lat="42.25584740517302" lon="3.0872118717816535"><ele>7.0</ele><time>2026-04-22T12:48:54.999Z</time></trkpt><trkpt lat="42.25566690107995" lon="3.0870854435741544"><ele>7.0</ele><time>2026-04-22T12:48:55.999Z</time></trkpt><trkpt lat="42.255482939304855" lon="3.0869603544158135"><ele>7.0</ele><time>2026-04-22T12:48:56.999Z</time></trkpt><trkpt lat="42.25529756681019" lon="3.0868397526097513"><ele>6.666666666666667</ele><time>2026-04-22T12:48:57.999Z</time></trkpt><trkpt lat="42.25511463161984" lon="3.086715190754047"><ele>6.333333333333334</ele><time>2026-04-22T12:48:58.999Z</time></trkpt><trkpt lat="42.254933707710855" lon="3.08658909274939"><ele>6.0</ele><time>2026-04-22T12:48:59.999Z</time></trkpt><trkpt lat="42.25475577182163" lon="3.086465695206193"><ele>6.0</ele><time>2026-04-22T12:49:00.999Z</time></trkpt><trkpt lat="42.25457486470418" lon="3.0863477429821202"><ele>6.0</ele><time>2026-04-22T12:49:01.999Z</time></trkpt><trkpt lat="42.254396023203" lon="3.0862315972513477"><ele>6.0</ele><time>2026-04-22T12:49:03Z</time></trkpt><trkpt lat="42.25421905665507" lon="3.086114221632539"><ele>6.0</ele><time>2026-04-22T12:49:04Z</time></trkpt><trkpt lat="42.25404338069461" lon="3.0859971283991148"><ele>6.0</ele><time>2026-04-22T12:49:05Z</time></trkpt><trkpt lat="42.25387629867259" lon="3.085886000611575"><ele>6.0</ele><time>2026-04-22T12:49:06Z</time></trkpt><trkpt lat="42.253708599791516" lon="3.0857642729350516"><ele>5.333333333333333</ele><time>2026-04-22T12:49:07Z</time></trkpt><trkpt lat="42.253546011958" lon="3.0856244143244616"><ele>4.666666666666666</ele><time>2026-04-22T12:49:08Z</time></trkpt><trkpt lat="42.253392358452665" lon="3.0854647093690297"><ele>4.0</ele><time>2026-04-22T12:49:09Z</time></trkpt><trkpt lat="42.253246834458494" lon="3.085285406716356"><ele>4.666666666666666</ele><time>2026-04-22T12:49:10Z</time></trkpt><trkpt lat="42.25311590385087" lon="3.085092070033363"><ele>5.333333333333333</ele><time>2026-04-22T12:49:11Z</time></trkpt><trkpt lat="42.25298900416677" lon="3.084880924352121"><ele>6.0</ele><time>2026-04-22T12:49:12Z</time></trkpt><trkpt lat="42.2528819643012" lon="3.084656348742545"><ele>6.0</ele><time>2026-04-22T12:49:13Z</time></trkpt><trkpt lat="42.25277885881434" lon="3.0844155599447767"><ele>6.0</ele><time>2026-04-22T12:49:14Z</time></trkpt><trkpt lat="42.25269381452493" lon="3.0841578705620964"><ele>6.0</ele><time>2026-04-22T12:49:15Z</time></trkpt><trkpt lat="42.252617618944996" lon="3.0839001168424884"><ele>6.333333333333334</ele><time>2026-04-22T12:49:16Z</time></trkpt><trkpt lat="42.252532628983424" lon="3.0836415837116276"><ele>6.666666666666667</ele><time>2026-04-22T12:49:17Z</time></trkpt><trkpt lat="42.2524544616432" lon="3.08338681866249"><ele>7.0</ele><time>2026-04-22T12:49:18Z</time></trkpt><trkpt lat="42.2523755480462" lon="3.0831334049902948"><ele>7.0</ele><time>2026-04-22T12:49:19Z</time></trkpt><trkpt lat="42.25229724070328" lon="3.082887347052196"><ele>7.0</ele><time>2026-04-22T12:49:20Z</time></trkpt><trkpt lat="42.25222315186373" lon="3.082645425473388"><ele>7.0</ele><time>2026-04-22T12:49:21Z</time></trkpt><trkpt lat="42.25214586354993" lon="3.0824092579235716"><ele>7.666666666666667</ele><time>2026-04-22T12:49:22Z</time></trkpt><trkpt lat="42.252072060880856" lon="3.082180262071883"><ele>8.333333333333334</ele><time>2026-04-22T12:49:23Z</time></trkpt><trkpt lat="42.25200380485893" lon="3.0819567538801103"><ele>9.0</ele><time>2026-04-22T12:49:24Z</time></trkpt><trkpt lat="42.2519328083127" lon="3.081731499208303"><ele>8.666666666666666</ele><time>2026-04-22T12:49:25Z</time></trkpt><trkpt lat="42.25186850530071" lon="3.081496829931991"><ele>8.333333333333332</ele><time>2026-04-22T12:49:26Z</time></trkpt><trkpt lat="42.25180938892801" lon="3.0812586392203327"><ele>8.0</ele><time>2026-04-22T12:49:27Z</time></trkpt><trkpt lat="42.25175219349611" lon="3.081014977868654"><ele>7.666666666666666</ele><time>2026-04-22T12:49:28Z</time></trkpt><trkpt lat="42.25170244005629" lon="3.08076576455983"><ele>7.333333333333334</ele><time>2026-04-22T12:49:29Z</time></trkpt><trkpt lat="42.25165643207437" lon="3.0805181266994968"><ele>7.0</ele><time>2026-04-22T12:49:30Z</time></trkpt><trkpt lat="42.2516217391215" lon="3.08027592026084"><ele>7.0</ele><time>2026-04-22T12:49:31Z</time></trkpt><trkpt lat="42.25158729554259" lon="3.0800371232231063"><ele>7.0</ele><time>2026-04-22T12:49:32Z</time></trkpt><trkpt lat="42.2515646466532" lon="3.0798068966332273"><ele>7.0</ele><time>2026-04-22T12:49:33Z</time></trkpt><trkpt lat="42.251543414703946" lon="3.079581001941961"><ele>7.0</ele><time>2026-04-22T12:49:34Z</time></trkpt><trkpt lat="42.2515286572855" lon="3.079359099279013"><ele>7.0</ele><time>2026-04-22T12:49:35Z</time></trkpt><trkpt lat="42.25151534076266" lon="3.0791367861240966"><ele>7.0</ele><time>2026-04-22T12:49:36Z</time></trkpt><trkpt lat="42.251506391275335" lon="3.0789221788535777"><ele>7.333333333333334</ele><time>2026-04-22T12:49:37Z</time></trkpt><trkpt lat="42.251503111449026" lon="3.078716947902787"><ele>7.666666666666666</ele><time>2026-04-22T12:49:38Z</time></trkpt><trkpt lat="42.251496034892185" lon="3.07851271407596"><ele>8.0</ele><time>2026-04-22T12:49:39Z</time></trkpt><trkpt lat="42.25149124504987" lon="3.078312913652099"><ele>8.0</ele><time>2026-04-22T12:49:40Z</time></trkpt><trkpt lat="42.251488638460884" lon="3.0781162568900027"><ele>8.0</ele><time>2026-04-22T12:49:41Z</time></trkpt><trkpt lat="42.251486117150854" lon="3.077928868256872"><ele>8.0</ele><time>2026-04-22T12:49:42Z</time></trkpt><trkpt lat="42.25148405334697" lon="3.0777454877052524"><ele>8.0</ele><time>2026-04-22T12:49:43Z</time></trkpt><trkpt lat="42.25147872629579" lon="3.07756977430448"><ele>8.5</ele><time>2026-04-22T12:49:44Z</time></trkpt><trkpt lat="42.25147864659179" lon="3.0773978718634614"><ele>9.0</ele><time>2026-04-22T12:49:45Z</time></trkpt><trkpt lat="42.25147780844343" lon="3.0772353771857794"><ele>9.5</ele><time>2026-04-22T12:49:46Z</time></trkpt><trkpt lat="42.251473208506376" lon="3.0770878337093737"><ele>10.0</ele><time>2026-04-22T12:49:47Z</time></trkpt><trkpt lat="42.25147284559044" lon="3.0769523434096477"><ele>10.0</ele><time>2026-04-22T12:49:48Z</time></trkpt><trkpt lat="42.251478070348995" lon="3.0768393159350773"><ele>10.0</ele><time>2026-04-22T12:49:49Z</time></trkpt><trkpt lat="42.251495911905764" lon="3.0767461349749015"><ele>10.0</ele><time>2026-04-22T12:49:50Z</time></trkpt><trkpt lat="42.25150216200059" lon="3.076660858821854"><ele>10.0</ele><time>2026-04-22T12:49:51Z</time></trkpt><trkpt lat="42.251608852250186" lon="3.076544256702478"><ele>10.0</ele><time>2026-04-22T12:49:53Z</time></trkpt><trkpt lat="42.25165129004033" lon="3.076480518025016"><ele>10.0</ele><time>2026-04-22T12:49:54Z</time></trkpt><trkpt lat="42.25168691390046" lon="3.0764102410715464"><ele>9.666666666666668</ele><time>2026-04-22T12:49:55Z</time></trkpt><trkpt lat="42.2517158563394" lon="3.0763247939397007"><ele>9.333333333333334</ele><time>2026-04-22T12:49:56Z</time></trkpt><trkpt lat="42.25173532212657" lon="3.0762189895757066"><ele>9.0</ele><time>2026-04-22T12:49:57Z</time></trkpt><trkpt lat="42.25173686282985" lon="3.07610909238145"><ele>8.666666666666666</ele><time>2026-04-22T12:49:58Z</time></trkpt><trkpt lat="42.25170658890667" lon="3.0760051513060644"><ele>8.333333333333332</ele><time>2026-04-22T12:49:59Z</time></trkpt><trkpt lat="42.25170496508784" lon="3.075875237714196"><ele>8.0</ele><time>2026-04-22T12:50:00Z</time></trkpt><trkpt lat="42.25172429817495" lon="3.0757388915518016"><ele>8.0</ele><time>2026-04-22T12:50:01Z</time></trkpt><trkpt lat="42.2517718133766" lon="3.0756086896711063"><ele>8.0</ele><time>2026-04-22T12:50:02Z</time></trkpt><trkpt lat="42.25185980608507" lon="3.0755165015739854"><ele>8.0</ele><time>2026-04-22T12:50:03Z</time></trkpt><trkpt lat="42.25194542889843" lon="3.0754150339176047"><ele>8.0</ele><time>2026-04-22T12:50:04Z</time></trkpt><trkpt lat="42.25203292942498" lon="3.075300806548884"><ele>8.0</ele><time>2026-04-22T12:50:05Z</time></trkpt><trkpt lat="42.25213017374161" lon="3.075164072528725"><ele>8.0</ele><time>2026-04-22T12:50:06Z</time></trkpt><trkpt lat="42.252215027678325" lon="3.0750122056958693"><ele>8.0</ele><time>2026-04-22T12:50:07Z</time></trkpt><trkpt lat="42.25230018865738" lon="3.074855618791752"><ele>8.0</ele><time>2026-04-22T12:50:08Z</time></trkpt><trkpt lat="42.252381507917924" lon="3.0746922971373696"><ele>9.0</ele><time>2026-04-22T12:50:09Z</time></trkpt><trkpt lat="42.25247931075245" lon="3.0745220172113363"><ele>10.0</ele><time>2026-04-22T12:50:10Z</time></trkpt><trkpt lat="42.25258121437406" lon="3.0743420090375086"><ele>11.0</ele><time>2026-04-22T12:50:11Z</time></trkpt><trkpt lat="42.25268121362268" lon="3.074158921756166"><ele>10.333333333333332</ele><time>2026-04-22T12:50:12Z</time></trkpt><trkpt lat="42.25277959674044" lon="3.0739771157278555"><ele>9.666666666666666</ele><time>2026-04-22T12:50:13Z</time></trkpt><trkpt lat="42.25287156607524" lon="3.073802696318995"><ele>9.0</ele><time>2026-04-22T12:50:14Z</time></trkpt><trkpt lat="42.25297773288153" lon="3.0736174118990225"><ele>9.0</ele><time>2026-04-22T12:50:15Z</time></trkpt><trkpt lat="42.25308544947205" lon="3.0734282748275414"><ele>9.0</ele><time>2026-04-22T12:50:16Z</time></trkpt><trkpt lat="42.25318866933201" lon="3.0732435019091353"><ele>9.0</ele><time>2026-04-22T12:50:17Z</time></trkpt><trkpt lat="42.25329449894165" lon="3.0730479010809635"><ele>8.0</ele><time>2026-04-22T12:50:18Z</time></trkpt><trkpt lat="42.25340106321008" lon="3.0728532023631057"><ele>7.0</ele><time>2026-04-22T12:50:19Z</time></trkpt><trkpt lat="42.253510435975144" lon="3.0726576498972844"><ele>6.0</ele><time>2026-04-22T12:50:20Z</time></trkpt><trkpt lat="42.25361874389839" lon="3.072464577602104"><ele>6.666666666666666</ele><time>2026-04-22T12:50:21Z</time></trkpt><trkpt lat="42.25372760902426" lon="3.072269515117168"><ele>7.333333333333333</ele><time>2026-04-22T12:50:22Z</time></trkpt><trkpt lat="42.253832920352664" lon="3.0720774004529305"><ele>8.0</ele><time>2026-04-22T12:50:23Z</time></trkpt><trkpt lat="42.25393629040554" lon="3.071889724186684"><ele>7.666666666666666</ele><time>2026-04-22T12:50:24Z</time></trkpt><trkpt lat="42.25403751618348" lon="3.071695677163461"><ele>7.333333333333334</ele><time>2026-04-22T12:50:25Z</time></trkpt><trkpt lat="42.25412691738343" lon="3.071502578145215"><ele>7.0</ele><time>2026-04-22T12:50:26Z</time></trkpt><trkpt lat="42.254202076921345" lon="3.0712987956090636"><ele>7.0</ele><time>2026-04-22T12:50:27Z</time></trkpt><trkpt lat="42.254263989914946" lon="3.0710848232381727"><ele>7.0</ele><time>2026-04-22T12:50:28Z</time></trkpt><trkpt lat="42.25431468634876" lon="3.0708626698361225"><ele>7.0</ele><time>2026-04-22T12:50:29Z</time></trkpt><trkpt lat="42.25435747329234" lon="3.070639855317226"><ele>7.0</ele><time>2026-04-22T12:50:30Z</time></trkpt><trkpt lat="42.254406168035096" lon="3.0704162654334133"><ele>7.0</ele><time>2026-04-22T12:50:31Z</time></trkpt><trkpt lat="42.254453095095876" lon="3.0701915742086174"><ele>7.0</ele><time>2026-04-22T12:50:32Z</time></trkpt><trkpt lat="42.254503460825745" lon="3.069957201048893"><ele>7.333333333333334</ele><time>2026-04-22T12:50:33Z</time></trkpt><trkpt lat="42.25455303111907" lon="3.069718101496246"><ele>7.666666666666666</ele><time>2026-04-22T12:50:34Z</time></trkpt><trkpt lat="42.25460635909951" lon="3.0694686452311792"><ele>8.0</ele><time>2026-04-22T12:50:35Z</time></trkpt><trkpt lat="42.25465640596906" lon="3.0692143450854803"><ele>8.0</ele><time>2026-04-22T12:50:36Z</time></trkpt><trkpt lat="42.25471021586526" lon="3.068952537023351"><ele>8.0</ele><time>2026-04-22T12:50:37Z</time></trkpt><trkpt lat="42.254765459926" lon="3.068684749772629"><ele>8.0</ele><time>2026-04-22T12:50:38Z</time></trkpt><trkpt lat="42.25482443722368" lon="3.068408591909411"><ele>7.333333333333333</ele><time>2026-04-22T12:50:39Z</time></trkpt><trkpt lat="42.25489110638594" lon="3.068128173298022"><ele>6.666666666666666</ele><time>2026-04-22T12:50:40Z</time></trkpt><trkpt lat="42.254958234329585" lon="3.0678377730194484"><ele>6.0</ele><time>2026-04-22T12:50:41Z</time></trkpt><trkpt lat="42.25502822369516" lon="3.067551403819497"><ele>5.5</ele><time>2026-04-22T12:50:42Z</time></trkpt><trkpt lat="42.25509781288754" lon="3.067259415323371"><ele>5.0</ele><time>2026-04-22T12:50:43Z</time></trkpt><trkpt lat="42.255168292169614" lon="3.0669668958114373"><ele>5.0</ele><time>2026-04-22T12:50:44Z</time></trkpt><trkpt lat="42.25524819815667" lon="3.066668832956843"><ele>5.0</ele><time>2026-04-22T12:50:45Z</time></trkpt><trkpt lat="42.25533080138064" lon="3.0663710175535295"><ele>5.0</ele><time>2026-04-22T12:50:46Z</time></trkpt><trkpt lat="42.25548440743641" lon="3.0657927571857098"><ele>5.333333333333334</ele><time>2026-04-22T12:50:48Z</time></trkpt><trkpt lat="42.25555608325493" lon="3.0655095587083663"><ele>5.666666666666667</ele><time>2026-04-22T12:50:49Z</time></trkpt><trkpt lat="42.25562177232383" lon="3.0652203835304817"><ele>6.0</ele><time>2026-04-22T12:50:50Z</time></trkpt><trkpt lat="42.25568889753289" lon="3.064943115254304"><ele>6.0</ele><time>2026-04-22T12:50:51Z</time></trkpt><trkpt lat="42.25575430542699" lon="3.064663917472448"><ele>6.0</ele><time>2026-04-22T12:50:52Z</time></trkpt><trkpt lat="42.2558182739604" lon="3.0643892484814326"><ele>6.0</ele><time>2026-04-22T12:50:53Z</time></trkpt><trkpt lat="42.25588243885483" lon="3.064114420692518"><ele>6.0</ele><time>2026-04-22T12:50:54Z</time></trkpt><trkpt lat="42.25594765195896" lon="3.0638435973004916"><ele>6.0</ele><time>2026-04-22T12:50:55Z</time></trkpt><trkpt lat="42.25600861871075" lon="3.0635799246595345"><ele>6.0</ele><time>2026-04-22T12:50:56Z</time></trkpt><trkpt lat="42.25607071350747" lon="3.063319921170885"><ele>6.333333333333334</ele><time>2026-04-22T12:50:57Z</time></trkpt><trkpt lat="42.256127706493935" lon="3.063056068539603"><ele>6.666666666666667</ele><time>2026-04-22T12:50:58Z</time></trkpt><trkpt lat="42.25618390300947" lon="3.062799350362399"><ele>7.0</ele><time>2026-04-22T12:50:59Z</time></trkpt><trkpt lat="42.25624347973006" lon="3.0625405759853033"><ele>7.0</ele><time>2026-04-22T12:51:00Z</time></trkpt><trkpt lat="42.25630034800658" lon="3.062289088736236"><ele>7.0</ele><time>2026-04-22T12:51:01Z</time></trkpt><trkpt lat="42.256362995703576" lon="3.062032094570866"><ele>7.0</ele><time>2026-04-22T12:51:02Z</time></trkpt><trkpt lat="42.25642053132695" lon="3.0617773213474146"><ele>7.0</ele><time>2026-04-22T12:51:03Z</time></trkpt><trkpt lat="42.25647696306244" lon="3.061523762048007"><ele>7.0</ele><time>2026-04-22T12:51:04Z</time></trkpt><trkpt lat="42.256534654837516" lon="3.0612690859618716"><ele>7.0</ele><time>2026-04-22T12:51:05Z</time></trkpt><trkpt lat="42.25659264762459" lon="3.0610154753767143"><ele>7.0</ele><time>2026-04-22T12:51:06Z</time></trkpt><trkpt lat="42.256649857527286" lon="3.0607632857896503"><ele>7.0</ele><time>2026-04-22T12:51:07Z</time></trkpt><trkpt lat="42.256707509440496" lon="3.0605113338466023"><ele>7.0</ele><time>2026-04-22T12:51:08Z</time></trkpt><trkpt lat="42.25676492045661" lon="3.0602570206247637"><ele>7.0</ele><time>2026-04-22T12:51:09Z</time></trkpt><trkpt lat="42.256820429059864" lon="3.060005142828223"><ele>7.0</ele><time>2026-04-22T12:51:10Z</time></trkpt><trkpt lat="42.25687515767217" lon="3.059759100338436"><ele>7.0</ele><time>2026-04-22T12:51:11Z</time></trkpt><trkpt lat="42.25692746326846" lon="3.0595242086859944"><ele>7.0</ele><time>2026-04-22T12:51:12Z</time></trkpt><trkpt lat="42.256978353019356" lon="3.0593025678909473"><ele>7.0</ele><time>2026-04-22T12:51:13Z</time></trkpt><trkpt lat="42.25702993524795" lon="3.059083811791946"><ele>7.0</ele><time>2026-04-22T12:51:14Z</time></trkpt><trkpt lat="42.25707921285474" lon="3.0588724079014775"><ele>7.333333333333334</ele><time>2026-04-22T12:51:15Z</time></trkpt><trkpt lat="42.25712529232668" lon="3.058668107749007"><ele>7.666666666666666</ele><time>2026-04-22T12:51:16Z</time></trkpt><trkpt lat="42.25717146029641" lon="3.05847276232525"><ele>8.0</ele><time>2026-04-22T12:51:17Z</time></trkpt><trkpt lat="42.25721726717419" lon="3.0582880723713397"><ele>7.75</ele><time>2026-04-22T12:51:18Z</time></trkpt><trkpt lat="42.257260546929594" lon="3.0581125904891953"><ele>7.5</ele><time>2026-04-22T12:51:19Z</time></trkpt><trkpt lat="42.257300884759864" lon="3.057949481601474"><ele>7.25</ele><time>2026-04-22T12:51:20Z</time></trkpt><trkpt lat="42.25733433687717" lon="3.057803258959062"><ele>7.0</ele><time>2026-04-22T12:51:21Z</time></trkpt><trkpt lat="42.257363798453504" lon="3.057681174125795"><ele>7.0</ele><time>2026-04-22T12:51:22Z</time></trkpt><trkpt lat="42.25739887659052" lon="3.0575774299703196"><ele>6.999999999999999</ele><time>2026-04-22T12:51:23Z</time></trkpt><trkpt lat="42.25744971374979" lon="3.057483393301027"><ele>6.999999999999999</ele><time>2026-04-22T12:51:24Z</time></trkpt><trkpt lat="42.257601886407116" lon="3.0573967757909224"><ele>7.0</ele><time>2026-04-22T12:51:26Z</time></trkpt><trkpt lat="42.25767756678326" lon="3.0573360999953114"><ele>7.0</ele><time>2026-04-22T12:51:27Z</time></trkpt><trkpt lat="42.257729239961925" lon="3.0572613021798944"><ele>7.000000000000001</ele><time>2026-04-22T12:51:28Z</time></trkpt><trkpt lat="42.25776343532042" lon="3.0571616184465356"><ele>7.0</ele><time>2026-04-22T12:51:29Z</time></trkpt><trkpt lat="42.25778382813659" lon="3.057045487688759"><ele>7.0</ele><time>2026-04-22T12:51:30Z</time></trkpt><trkpt lat="42.25778741009638" lon="3.0569286702464593"><ele>7.0</ele><time>2026-04-22T12:51:31Z</time></trkpt><trkpt lat="42.25775651395624" lon="3.0568184302454897"><ele>7.000000000000001</ele><time>2026-04-22T12:51:32Z</time></trkpt><trkpt lat="42.25770975237389" lon="3.056710803789834"><ele>7.0</ele><time>2026-04-22T12:51:33Z</time></trkpt><trkpt lat="42.257674204413355" lon="3.0565873163462514"><ele>6.75</ele><time>2026-04-22T12:51:34Z</time></trkpt><trkpt lat="42.25765785812416" lon="3.0564467821809744"><ele>6.5</ele><time>2026-04-22T12:51:35Z</time></trkpt><trkpt lat="42.25766420862033" lon="3.056292058775094"><ele>6.25</ele><time>2026-04-22T12:51:36Z</time></trkpt><trkpt lat="42.25769464242227" lon="3.0561204410494316"><ele>6.0</ele><time>2026-04-22T12:51:37Z</time></trkpt><trkpt lat="42.25774397785737" lon="3.05595298994117"><ele>6.666666666666666</ele><time>2026-04-22T12:51:38Z</time></trkpt><trkpt lat="42.25778485640773" lon="3.0557716622011992"><ele>7.333333333333333</ele><time>2026-04-22T12:51:39Z</time></trkpt><trkpt lat="42.257829686693164" lon="3.055568469185861"><ele>8.0</ele><time>2026-04-22T12:51:40Z</time></trkpt><trkpt lat="42.25787804284711" lon="3.0553643189617326"><ele>8.0</ele><time>2026-04-22T12:51:41Z</time></trkpt><trkpt lat="42.25792440673611" lon="3.055164304222592"><ele>8.0</ele><time>2026-04-22T12:51:42Z</time></trkpt><trkpt lat="42.25797063291371" lon="3.0549473825293423"><ele>8.0</ele><time>2026-04-22T12:51:43Z</time></trkpt><trkpt lat="42.25802163980583" lon="3.0547247521110044"><ele>7.666666666666666</ele><time>2026-04-22T12:51:44Z</time></trkpt><trkpt lat="42.25807666544042" lon="3.054493931575332"><ele>7.333333333333334</ele><time>2026-04-22T12:51:45Z</time></trkpt><trkpt lat="42.2581339475648" lon="3.054268035426775"><ele>7.0</ele><time>2026-04-22T12:51:46Z</time></trkpt><trkpt lat="42.25818644884132" lon="3.0540396735468867"><ele>6.666666666666667</ele><time>2026-04-22T12:51:47Z</time></trkpt><trkpt lat="42.25823900286123" lon="3.0538061876276332"><ele>6.333333333333334</ele><time>2026-04-22T12:51:48Z</time></trkpt><trkpt lat="42.25829286340599" lon="3.0535671699813127"><ele>6.0</ele><time>2026-04-22T12:51:49Z</time></trkpt><trkpt lat="42.25834899091117" lon="3.0533311650823114"><ele>6.0</ele><time>2026-04-22T12:51:50Z</time></trkpt><trkpt lat="42.25840118879278" lon="3.053090427466387"><ele>6.0</ele><time>2026-04-22T12:51:51Z</time></trkpt><trkpt lat="42.25845159740849" lon="3.0528481622127175"><ele>6.0</ele><time>2026-04-22T12:51:52Z</time></trkpt><trkpt lat="42.258506364851485" lon="3.052601168438588"><ele>6.333333333333334</ele><time>2026-04-22T12:51:53Z</time></trkpt><trkpt lat="42.25856178610492" lon="3.0523597131217426"><ele>6.666666666666667</ele><time>2026-04-22T12:51:54Z</time></trkpt><trkpt lat="42.25862059578175" lon="3.052120414931352"><ele>7.0</ele><time>2026-04-22T12:51:55Z</time></trkpt><trkpt lat="42.25867334732347" lon="3.0518755315914348"><ele>7.0</ele><time>2026-04-22T12:51:56Z</time></trkpt><trkpt lat="42.258724519921415" lon="3.051628923141857"><ele>7.0</ele><time>2026-04-22T12:51:57Z</time></trkpt><trkpt lat="42.25878172356499" lon="3.051382696635969"><ele>7.0</ele><time>2026-04-22T12:51:58Z</time></trkpt><trkpt lat="42.2588355698914" lon="3.0511346621076787"><ele>7.333333333333334</ele><time>2026-04-22T12:51:59Z</time></trkpt><trkpt lat="42.25889075914969" lon="3.050885944065752"><ele>7.666666666666666</ele><time>2026-04-22T12:52:00Z</time></trkpt><trkpt lat="42.25894458055003" lon="3.050637296086057"><ele>8.0</ele><time>2026-04-22T12:52:01Z</time></trkpt><trkpt lat="42.25899973876628" lon="3.0503886824549515"><ele>8.0</ele><time>2026-04-22T12:52:02Z</time></trkpt><trkpt lat="42.259056925501305" lon="3.050134738720121"><ele>8.0</ele><time>2026-04-22T12:52:03Z</time></trkpt><trkpt lat="42.259109293215005" lon="3.0498847330939287"><ele>8.0</ele><time>2026-04-22T12:52:04Z</time></trkpt><trkpt lat="42.25915985866191" lon="3.0496316419243072"><ele>8.0</ele><time>2026-04-22T12:52:05Z</time></trkpt><trkpt lat="42.25921400612642" lon="3.0493768863975355"><ele>8.0</ele><time>2026-04-22T12:52:06Z</time></trkpt><trkpt lat="42.25926623305095" lon="3.049121201572888"><ele>8.0</ele><time>2026-04-22T12:52:07Z</time></trkpt><trkpt lat="42.25931639999043" lon="3.048864954991216"><ele>8.0</ele><time>2026-04-22T12:52:08Z</time></trkpt><trkpt lat="42.25935899761566" lon="3.048609760686111"><ele>8.0</ele><time>2026-04-22T12:52:09Z</time></trkpt><trkpt lat="42.25940777873635" lon="3.0483541535812178"><ele>8.0</ele><time>2026-04-22T12:52:10Z</time></trkpt><trkpt lat="42.2594558443012" lon="3.048098936374476"><ele>7.666666666666666</ele><time>2026-04-22T12:52:11Z</time></trkpt><trkpt lat="42.25950364970593" lon="3.047843921923193"><ele>7.333333333333334</ele><time>2026-04-22T12:52:12Z</time></trkpt><trkpt lat="42.25955428893672" lon="3.047586050391397"><ele>7.0</ele><time>2026-04-22T12:52:13Z</time></trkpt><trkpt lat="42.25960550713887" lon="3.0473293446133005"><ele>7.0</ele><time>2026-04-22T12:52:14Z</time></trkpt><trkpt lat="42.25965830192922" lon="3.0470742493372374"><ele>7.0</ele><time>2026-04-22T12:52:15Z</time></trkpt><trkpt lat="42.259709225601945" lon="3.046818582519846"><ele>7.0</ele><time>2026-04-22T12:52:16Z</time></trkpt><trkpt lat="42.259762350046586" lon="3.046565032701179"><ele>7.333333333333334</ele><time>2026-04-22T12:52:17Z</time></trkpt><trkpt lat="42.25981597265069" lon="3.0463114493535297"><ele>7.666666666666666</ele><time>2026-04-22T12:52:18Z</time></trkpt><trkpt lat="42.259870710526826" lon="3.046054744693706"><ele>8.0</ele><time>2026-04-22T12:52:19Z</time></trkpt><trkpt lat="42.25992712379246" lon="3.0458012032110418"><ele>7.666666666666666</ele><time>2026-04-22T12:52:20Z</time></trkpt><trkpt lat="42.259984446986515" lon="3.0455510164590787"><ele>7.333333333333334</ele><time>2026-04-22T12:52:21Z</time></trkpt><trkpt lat="42.2600433945169" lon="3.045294788252436"><ele>7.0</ele><time>2026-04-22T12:52:22Z</time></trkpt><trkpt lat="42.26009670784047" lon="3.0450439586958256"><ele>7.333333333333334</ele><time>2026-04-22T12:52:23Z</time></trkpt><trkpt lat="42.26015155739667" lon="3.044788532492133"><ele>7.666666666666666</ele><time>2026-04-22T12:52:24Z</time></trkpt><trkpt lat="42.26020558050968" lon="3.044536163666083"><ele>8.0</ele><time>2026-04-22T12:52:25Z</time></trkpt><trkpt lat="42.260261457303805" lon="3.0442815596749386"><ele>7.333333333333333</ele><time>2026-04-22T12:52:26Z</time></trkpt><trkpt lat="42.260317443185286" lon="3.0440298353328408"><ele>6.666666666666666</ele><time>2026-04-22T12:52:27Z</time></trkpt><trkpt lat="42.26037448183465" lon="3.0437794128463462"><ele>6.0</ele><time>2026-04-22T12:52:28Z</time></trkpt><trkpt lat="42.26042879966166" lon="3.043526639056971"><ele>6.333333333333334</ele><time>2026-04-22T12:52:29Z</time></trkpt><trkpt lat="42.26048626208892" lon="3.0432767811592147"><ele>6.666666666666667</ele><time>2026-04-22T12:52:30Z</time></trkpt><trkpt lat="42.26054155492715" lon="3.0430289473650407"><ele>7.0</ele><time>2026-04-22T12:52:31Z</time></trkpt><trkpt lat="42.26059522776033" lon="3.042782033681509"><ele>7.333333333333334</ele><time>2026-04-22T12:52:32Z</time></trkpt><trkpt lat="42.26065206892459" lon="3.042531437954567"><ele>7.666666666666666</ele><time>2026-04-22T12:52:33Z</time></trkpt><trkpt lat="42.26070730599575" lon="3.0422850875208716"><ele>8.0</ele><time>2026-04-22T12:52:34Z</time></trkpt><trkpt lat="42.260764391842" lon="3.0420373884399527"><ele>8.0</ele><time>2026-04-22T12:52:35Z</time></trkpt><trkpt lat="42.26082337109256" lon="3.04178754395076"><ele>8.0</ele><time>2026-04-22T12:52:36Z</time></trkpt><trkpt lat="42.260882525151786" lon="3.04153631662735"><ele>8.0</ele><time>2026-04-22T12:52:37Z</time></trkpt><trkpt lat="42.26094181209832" lon="3.0412833940981465"><ele>8.0</ele><time>2026-04-22T12:52:38Z</time></trkpt><trkpt lat="42.261001278451005" lon="3.041032453415507"><ele>8.0</ele><time>2026-04-22T12:52:39Z</time></trkpt><trkpt lat="42.26106478513028" lon="3.0407810752386135"><ele>8.0</ele><time>2026-04-22T12:52:40Z</time></trkpt><trkpt lat="42.26111966948815" lon="3.0405303149164644"><ele>7.666666666666666</ele><time>2026-04-22T12:52:41Z</time></trkpt><trkpt lat="42.2611776807041" lon="3.0402829517986283"><ele>7.333333333333334</ele><time>2026-04-22T12:52:42Z</time></trkpt><trkpt lat="42.26123398234705" lon="3.0400338788301733"><ele>7.0</ele><time>2026-04-22T12:52:43Z</time></trkpt><trkpt lat="42.26129042713135" lon="3.039786073367073"><ele>7.0</ele><time>2026-04-22T12:52:44Z</time></trkpt><trkpt lat="42.26135115846016" lon="3.039540106773784"><ele>7.0</ele><time>2026-04-22T12:52:45Z</time></trkpt><trkpt lat="42.26141127702257" lon="3.0393063881286495"><ele>7.0</ele><time>2026-04-22T12:52:46Z</time></trkpt><trkpt lat="42.26146867998522" lon="3.0390848651479536"><ele>7.666666666666667</ele><time>2026-04-22T12:52:47Z</time></trkpt><trkpt lat="42.261527025321605" lon="3.038876326449864"><ele>8.333333333333334</ele><time>2026-04-22T12:52:48Z</time></trkpt><trkpt lat="42.26158154058502" lon="3.0386760084129047"><ele>9.0</ele><time>2026-04-22T12:52:49Z</time></trkpt><trkpt lat="42.26162811305371" lon="3.0384895351079235"><ele>9.0</ele><time>2026-04-22T12:52:50Z</time></trkpt><trkpt lat="42.26167566213397" lon="3.0383091697755233"><ele>9.0</ele><time>2026-04-22T12:52:51Z</time></trkpt><trkpt lat="42.26172152841331" lon="3.0381389426885104"><ele>9.0</ele><time>2026-04-22T12:52:52Z</time></trkpt><trkpt lat="42.261767023162264" lon="3.037972633195786"><ele>9.0</ele><time>2026-04-22T12:52:53Z</time></trkpt><trkpt lat="42.2618074343756" lon="3.037823360106209"><ele>8.8</ele><time>2026-04-22T12:52:54Z</time></trkpt><trkpt lat="42.261848859407536" lon="3.0376857704207287"><ele>8.600000000000001</ele><time>2026-04-22T12:52:55Z</time></trkpt><trkpt lat="42.26188687807894" lon="3.037560366246129"><ele>8.4</ele><time>2026-04-22T12:52:56Z</time></trkpt><trkpt lat="42.26192245795912" lon="3.0374436069601733"><ele>8.200000000000001</ele><time>2026-04-22T12:52:57Z</time></trkpt><trkpt lat="42.26195558485516" lon="3.037339012579314"><ele>8.0</ele><time>2026-04-22T12:52:58Z</time></trkpt><trkpt lat="42.26200519283512" lon="3.0372474183205163"><ele>7.999999999999999</ele><time>2026-04-22T12:52:59Z</time></trkpt><trkpt lat="42.262077328925024" lon="3.037181596386416"><ele>8.0</ele><time>2026-04-22T12:53:00Z</time></trkpt><trkpt lat="42.26216039690442" lon="3.0371414321862744"><ele>8.0</ele><time>2026-04-22T12:53:01Z</time></trkpt><trkpt lat="42.26223943494164" lon="3.0371051546773216"><ele>8.0</ele><time>2026-04-22T12:53:02Z</time></trkpt><trkpt lat="42.26230911521869" lon="3.03705302700841"><ele>7.999999999999999</ele><time>2026-04-22T12:53:03Z</time></trkpt><trkpt lat="42.26236962186337" lon="3.036975363115186"><ele>8.0</ele><time>2026-04-22T12:53:04Z</time></trkpt><trkpt lat="42.26242380916635" lon="3.036878702826795"><ele>8.0</ele><time>2026-04-22T12:53:05Z</time></trkpt><trkpt lat="42.262456218486534" lon="3.036767011024787"><ele>8.0</ele><time>2026-04-22T12:53:05.999Z</time></trkpt><trkpt lat="42.26248584575863" lon="3.036638412011646"><ele>8.0</ele><time>2026-04-22T12:53:06.999Z</time></trkpt><trkpt lat="42.262520252892536" lon="3.036507944983368"><ele>8.0</ele><time>2026-04-22T12:53:07.999Z</time></trkpt><trkpt lat="42.262575112638245" lon="3.03638899120905"><ele>8.0</ele><time>2026-04-22T12:53:08.999Z</time></trkpt><trkpt lat="42.262648691373116" lon="3.036287148261341"><ele>8.0</ele><time>2026-04-22T12:53:09.999Z</time></trkpt><trkpt lat="42.26273807558945" lon="3.0361923407474247"><ele>8.0</ele><time>2026-04-22T12:53:10.999Z</time></trkpt><trkpt lat="42.26282919245844" lon="3.036109171264007"><ele>8.0</ele><time>2026-04-22T12:53:11.999Z</time></trkpt><trkpt lat="42.262926979068" lon="3.0360153876102203"><ele>8.0</ele><time>2026-04-22T12:53:12.999Z</time></trkpt><trkpt lat="42.2630276892582" lon="3.0359191454237076"><ele>8.0</ele><time>2026-04-22T12:53:14Z</time></trkpt><trkpt lat="42.26313591370317" lon="3.035812230232444"><ele>8.0</ele><time>2026-04-22T12:53:15Z</time></trkpt><trkpt lat="42.26324467012653" lon="3.035695045246263"><ele>8.0</ele><time>2026-04-22T12:53:16Z</time></trkpt><trkpt lat="42.26335674301254" lon="3.035558758363126"><ele>8.0</ele><time>2026-04-22T12:53:17Z</time></trkpt><trkpt lat="42.2634767975446" lon="3.035413803020903"><ele>8.0</ele><time>2026-04-22T12:53:18Z</time></trkpt><trkpt lat="42.26360035281322" lon="3.0352664727098047"><ele>8.0</ele><time>2026-04-22T12:53:19Z</time></trkpt><trkpt lat="42.263732853898844" lon="3.0351104495192667"><ele>8.0</ele><time>2026-04-22T12:53:20Z</time></trkpt><trkpt lat="42.263869669511024" lon="3.034945771269541"><ele>8.333333333333332</ele><time>2026-04-22T12:53:21Z</time></trkpt><trkpt lat="42.26400669432238" lon="3.0347718175052627"><ele>8.666666666666666</ele><time>2026-04-22T12:53:22Z</time></trkpt><trkpt lat="42.264143489638165" lon="3.03458437745155"><ele>9.0</ele><time>2026-04-22T12:53:23Z</time></trkpt><trkpt lat="42.26428313044959" lon="3.034388658707098"><ele>9.0</ele><time>2026-04-22T12:53:24Z</time></trkpt><trkpt lat="42.2644241137551" lon="3.03418217051224"><ele>9.0</ele><time>2026-04-22T12:53:25Z</time></trkpt><trkpt lat="42.26456822003007" lon="3.0339649498570775"><ele>9.0</ele><time>2026-04-22T12:53:26Z</time></trkpt><trkpt lat="42.26471375382968" lon="3.033741378503815"><ele>9.0</ele><time>2026-04-22T12:53:27Z</time></trkpt><trkpt lat="42.264856758084214" lon="3.0335178867884283"><ele>9.0</ele><time>2026-04-22T12:53:28Z</time></trkpt><trkpt lat="42.264996142934116" lon="3.0332879654728666"><ele>9.0</ele><time>2026-04-22T12:53:29Z</time></trkpt><trkpt lat="42.265135816435354" lon="3.0330490683112488"><ele>8.666666666666666</ele><time>2026-04-22T12:53:30Z</time></trkpt><trkpt lat="42.26526727132654" lon="3.032806428341998"><ele>8.333333333333332</ele><time>2026-04-22T12:53:31Z</time></trkpt><trkpt lat="42.26538522903749" lon="3.0325630327943016"><ele>8.0</ele><time>2026-04-22T12:53:32Z</time></trkpt><trkpt lat="42.26550176018116" lon="3.032313781156286"><ele>8.0</ele><time>2026-04-22T12:53:33Z</time></trkpt><trkpt lat="42.265616773263446" lon="3.032057595484592"><ele>8.0</ele><time>2026-04-22T12:53:34Z</time></trkpt><trkpt lat="42.26572675101988" lon="3.031800355040412"><ele>8.0</ele><time>2026-04-22T12:53:35Z</time></trkpt><trkpt lat="42.265829393279574" lon="3.031541565641398"><ele>8.333333333333332</ele><time>2026-04-22T12:53:36Z</time></trkpt><trkpt lat="42.265924243689994" lon="3.031279786585299"><ele>8.666666666666666</ele><time>2026-04-22T12:53:37Z</time></trkpt><trkpt lat="42.26601947597248" lon="3.031015793663398"><ele>9.0</ele><time>2026-04-22T12:53:38Z</time></trkpt><trkpt lat="42.2661111203845" lon="3.0307481338467697"><ele>9.0</ele><time>2026-04-22T12:53:39Z</time></trkpt><trkpt lat="42.266197713497746" lon="3.030483090080685"><ele>9.0</ele><time>2026-04-22T12:53:40Z</time></trkpt><trkpt lat="42.26628830824787" lon="3.0302175773063333"><ele>9.0</ele><time>2026-04-22T12:53:41Z</time></trkpt><trkpt lat="42.266379554721226" lon="3.0299513414185304"><ele>9.0</ele><time>2026-04-22T12:53:42Z</time></trkpt><trkpt lat="42.266471063987645" lon="3.0296827248026914"><ele>9.0</ele><time>2026-04-22T12:53:43Z</time></trkpt><trkpt lat="42.26655924807842" lon="3.0294144667514384"><ele>9.0</ele><time>2026-04-22T12:53:44Z</time></trkpt><trkpt lat="42.26665267362193" lon="3.02914705669348"><ele>9.333333333333334</ele><time>2026-04-22T12:53:45Z</time></trkpt><trkpt lat="42.266745879982125" lon="3.028878942710293"><ele>9.666666666666668</ele><time>2026-04-22T12:53:46Z</time></trkpt><trkpt lat="42.26683716232552" lon="3.028611230700739"><ele>10.0</ele><time>2026-04-22T12:53:47Z</time></trkpt><trkpt lat="42.26692750798258" lon="3.028343733851243"><ele>9.666666666666668</ele><time>2026-04-22T12:53:48Z</time></trkpt><trkpt lat="42.267021929490184" lon="3.0280768545560455"><ele>9.333333333333334</ele><time>2026-04-22T12:53:49Z</time></trkpt><trkpt lat="42.26711492007636" lon="3.0278091016938387"><ele>9.0</ele><time>2026-04-22T12:53:50Z</time></trkpt><trkpt lat="42.26720840819546" lon="3.0275364460864242"><ele>9.0</ele><time>2026-04-22T12:53:51Z</time></trkpt><trkpt lat="42.26730078849872" lon="3.0272615512898295"><ele>9.0</ele><time>2026-04-22T12:53:52Z</time></trkpt><trkpt lat="42.267397348217635" lon="3.0269843423904397"><ele>9.0</ele><time>2026-04-22T12:53:53Z</time></trkpt><trkpt lat="42.267495745339524" lon="3.0267102192831024"><ele>9.0</ele><time>2026-04-22T12:53:54Z</time></trkpt><trkpt lat="42.26759254596574" lon="3.0264285071402184"><ele>10.0</ele><time>2026-04-22T12:53:55Z</time></trkpt><trkpt lat="42.26768972450085" lon="3.026146714299153"><ele>11.0</ele><time>2026-04-22T12:53:56Z</time></trkpt><trkpt lat="42.26778850940104" lon="3.0258642727443514"><ele>10.5</ele><time>2026-04-22T12:53:57Z</time></trkpt><trkpt lat="42.267885141839265" lon="3.0255786234806052"><ele>10.0</ele><time>2026-04-22T12:53:58Z</time></trkpt><trkpt lat="42.26798301871076" lon="3.0252945502075392"><ele>10.0</ele><time>2026-04-22T12:53:59Z</time></trkpt><trkpt lat="42.26808173126188" lon="3.0250157219958687"><ele>10.0</ele><time>2026-04-22T12:54:00Z</time></trkpt><trkpt lat="42.26818398441892" lon="3.024731439458932"><ele>10.5</ele><time>2026-04-22T12:54:01.001Z</time></trkpt><trkpt lat="42.268284834688885" lon="3.024446037436362"><ele>11.0</ele><time>2026-04-22T12:54:02Z</time></trkpt><trkpt lat="42.26838357135403" lon="3.024161723938622"><ele>12.0</ele><time>2026-04-22T12:54:03Z</time></trkpt><trkpt lat="42.268479465067124" lon="3.0238762636947087"><ele>13.0</ele><time>2026-04-22T12:54:04Z</time></trkpt><trkpt lat="42.268578205097434" lon="3.0235909957875613"><ele>13.0</ele><time>2026-04-22T12:54:05Z</time></trkpt><trkpt lat="42.268673047398366" lon="3.0233103904813743"><ele>13.0</ele><time>2026-04-22T12:54:06Z</time></trkpt><trkpt lat="42.268771888775134" lon="3.0230268350401266"><ele>13.0</ele><time>2026-04-22T12:54:07Z</time></trkpt><trkpt lat="42.26886700984995" lon="3.022742672179151"><ele>13.0</ele><time>2026-04-22T12:54:08Z</time></trkpt><trkpt lat="42.26896674300129" lon="3.0224596190357547"><ele>12.0</ele><time>2026-04-22T12:54:09Z</time></trkpt><trkpt lat="42.26906416035022" lon="3.0221749944221603"><ele>11.0</ele><time>2026-04-22T12:54:10Z</time></trkpt><trkpt lat="42.26916200523946" lon="3.021895167909628"><ele>11.5</ele><time>2026-04-22T12:54:11Z</time></trkpt><trkpt lat="42.269257975171286" lon="3.021617233487067"><ele>12.0</ele><time>2026-04-22T12:54:12Z</time></trkpt><trkpt lat="42.26935264285432" lon="3.0213368894008816"><ele>12.0</ele><time>2026-04-22T12:54:13Z</time></trkpt><trkpt lat="42.26944382327274" lon="3.02105663099844"><ele>12.0</ele><time>2026-04-22T12:54:14Z</time></trkpt><trkpt lat="42.26952916900174" lon="3.0207732294905165"><ele>12.0</ele><time>2026-04-22T12:54:15Z</time></trkpt><trkpt lat="42.26960672266036" lon="3.0204867192473763"><ele>12.0</ele><time>2026-04-22T12:54:16Z</time></trkpt><trkpt lat="42.26967787140851" lon="3.0201953540895836"><ele>12.0</ele><time>2026-04-22T12:54:17Z</time></trkpt><trkpt lat="42.269742812911865" lon="3.0199028549269946"><ele>12.0</ele><time>2026-04-22T12:54:18Z</time></trkpt><trkpt lat="42.26979491537018" lon="3.019607146113773"><ele>12.0</ele><time>2026-04-22T12:54:19Z</time></trkpt><trkpt lat="42.26983800247522" lon="3.0193085186980593"><ele>12.0</ele><time>2026-04-22T12:54:20Z</time></trkpt><trkpt lat="42.26987043985784" lon="3.019010344904473"><ele>12.0</ele><time>2026-04-22T12:54:21Z</time></trkpt><trkpt lat="42.26989346603718" lon="3.0187048170207693"><ele>12.5</ele><time>2026-04-22T12:54:22Z</time></trkpt><trkpt lat="42.26990917624021" lon="3.018396967027494"><ele>13.0</ele><time>2026-04-22T12:54:23Z</time></trkpt><trkpt lat="42.26991331724746" lon="3.0180949667531767"><ele>13.0</ele><time>2026-04-22T12:54:24Z</time></trkpt><trkpt lat="42.269913389697386" lon="3.017787248477508"><ele>13.0</ele><time>2026-04-22T12:54:25Z</time></trkpt><trkpt lat="42.269902617389825" lon="3.017481142002363"><ele>13.0</ele><time>2026-04-22T12:54:26Z</time></trkpt><trkpt lat="42.26987911138642" lon="3.017176019606712"><ele>13.0</ele><time>2026-04-22T12:54:27Z</time></trkpt><trkpt lat="42.26984920620165" lon="3.016873412121682"><ele>13.0</ele><time>2026-04-22T12:54:28Z</time></trkpt><trkpt lat="42.269808924759495" lon="3.016570212075687"><ele>13.0</ele><time>2026-04-22T12:54:29Z</time></trkpt><trkpt lat="42.26976572716159" lon="3.016263806870897"><ele>13.0</ele><time>2026-04-22T12:54:30Z</time></trkpt><trkpt lat="42.26971882703288" lon="3.0159634842651877"><ele>13.0</ele><time>2026-04-22T12:54:31Z</time></trkpt><trkpt lat="42.26967284025114" lon="3.015657846330169"><ele>13.5</ele><time>2026-04-22T12:54:32Z</time></trkpt><trkpt lat="42.26962657962039" lon="3.0153546834233778"><ele>14.0</ele><time>2026-04-22T12:54:33Z</time></trkpt><trkpt lat="42.26958075781915" lon="3.0150533067669305"><ele>13.5</ele><time>2026-04-22T12:54:34Z</time></trkpt><trkpt lat="42.26953618223097" lon="3.0147506239709694"><ele>13.0</ele><time>2026-04-22T12:54:35Z</time></trkpt><trkpt lat="42.269490117637254" lon="3.014451078906755"><ele>13.0</ele><time>2026-04-22T12:54:36Z</time></trkpt><trkpt lat="42.26944521027439" lon="3.014145466863948"><ele>13.0</ele><time>2026-04-22T12:54:37Z</time></trkpt><trkpt lat="42.26940079142513" lon="3.0138433983205952"><ele>13.0</ele><time>2026-04-22T12:54:38Z</time></trkpt><trkpt lat="42.26935716914016" lon="3.013542682734927"><ele>13.0</ele><time>2026-04-22T12:54:39Z</time></trkpt><trkpt lat="42.26931134160917" lon="3.0132412989243202"><ele>13.5</ele><time>2026-04-22T12:54:40Z</time></trkpt><trkpt lat="42.26926731420272" lon="3.0129407319168724"><ele>14.0</ele><time>2026-04-22T12:54:41Z</time></trkpt><trkpt lat="42.269224108940065" lon="3.0126395605970124"><ele>14.333333333333334</ele><time>2026-04-22T12:54:42Z</time></trkpt><trkpt lat="42.26917956784534" lon="3.012344770110199"><ele>14.666666666666668</ele><time>2026-04-22T12:54:43Z</time></trkpt><trkpt lat="42.269135821519875" lon="3.012059985456359"><ele>15.0</ele><time>2026-04-22T12:54:44Z</time></trkpt><trkpt lat="42.2690934221178" lon="3.0117806235231632"><ele>15.333333333333332</ele><time>2026-04-22T12:54:45Z</time></trkpt><trkpt lat="42.26905467964088" lon="3.0115111167968953"><ele>15.666666666666666</ele><time>2026-04-22T12:54:46Z</time></trkpt><trkpt lat="42.26901218384213" lon="3.011243231508431"><ele>16.0</ele><time>2026-04-22T12:54:47Z</time></trkpt><trkpt lat="42.268972770144785" lon="3.0109836490531587"><ele>15.666666666666666</ele><time>2026-04-22T12:54:48Z</time></trkpt><trkpt lat="42.268935904346435" lon="3.010729948966728"><ele>15.333333333333332</ele><time>2026-04-22T12:54:49Z</time></trkpt><trkpt lat="42.26890097654912" lon="3.0104817224128992"><ele>15.0</ele><time>2026-04-22T12:54:50Z</time></trkpt><trkpt lat="42.2688716348472" lon="3.0102405582825824"><ele>15.0</ele><time>2026-04-22T12:54:51Z</time></trkpt><trkpt lat="42.26884818288364" lon="3.0100048267298907"><ele>15.0</ele><time>2026-04-22T12:54:52Z</time></trkpt><trkpt lat="42.2688261280417" lon="3.009768344795867"><ele>15.0</ele><time>2026-04-22T12:54:53Z</time></trkpt><trkpt lat="42.26881009460978" lon="3.00953152186709"><ele>15.666666666666668</ele><time>2026-04-22T12:54:54Z</time></trkpt><trkpt lat="42.26879891424057" lon="3.009301162334266"><ele>16.333333333333336</ele><time>2026-04-22T12:54:55Z</time></trkpt><trkpt lat="42.268790142825175" lon="3.0090760406461077"><ele>17.0</ele><time>2026-04-22T12:54:56Z</time></trkpt><trkpt lat="42.268781571310164" lon="3.008854974579962"><ele>17.0</ele><time>2026-04-22T12:54:57Z</time></trkpt><trkpt lat="42.26877179977587" lon="3.0086448152374197"><ele>17.0</ele><time>2026-04-22T12:54:58Z</time></trkpt><trkpt lat="42.26876385752229" lon="3.008450456779279"><ele>17.0</ele><time>2026-04-22T12:54:59Z</time></trkpt><trkpt lat="42.26875627124489" lon="3.008281817322448"><ele>17.0</ele><time>2026-04-22T12:55:00Z</time></trkpt><trkpt lat="42.268749204065756" lon="3.0081257437694635"><ele>17.0</ele><time>2026-04-22T12:55:01Z</time></trkpt><trkpt lat="42.2687485555612" lon="3.0079919676865807"><ele>17.0</ele><time>2026-04-22T12:55:02Z</time></trkpt><trkpt lat="42.26876303213492" lon="3.0078664244083417"><ele>17.0</ele><time>2026-04-22T12:55:03Z</time></trkpt><trkpt lat="42.26880184389299" lon="3.007754510841541"><ele>17.0</ele><time>2026-04-22T12:55:04Z</time></trkpt><trkpt lat="42.268858070834085" lon="3.0076491311344924"><ele>17.0</ele><time>2026-04-22T12:55:05Z</time></trkpt><trkpt lat="42.26889482222787" lon="3.0075441924949655"><ele>17.2</ele><time>2026-04-22T12:55:06Z</time></trkpt><trkpt lat="42.26889803169714" lon="3.007429818728472"><ele>17.4</ele><time>2026-04-22T12:55:07Z</time></trkpt><trkpt lat="42.268866769160105" lon="3.0073179562446577"><ele>17.6</ele><time>2026-04-22T12:55:08Z</time></trkpt><trkpt lat="42.26880586216742" lon="3.0072296979900774"><ele>17.8</ele><time>2026-04-22T12:55:09Z</time></trkpt><trkpt lat="42.26874114760383" lon="3.007122499745952"><ele>18.0</ele><time>2026-04-22T12:55:10Z</time></trkpt><trkpt lat="42.2686920404882" lon="3.0069903142052943"><ele>18.0</ele><time>2026-04-22T12:55:11Z</time></trkpt><trkpt lat="42.26865074317169" lon="3.0068265103780742"><ele>18.0</ele><time>2026-04-22T12:55:12Z</time></trkpt><trkpt lat="42.26862557997669" lon="3.00664712320967"><ele>18.0</ele><time>2026-04-22T12:55:13Z</time></trkpt><trkpt lat="42.26859768768839" lon="3.0064577686538843"><ele>18.0</ele><time>2026-04-22T12:55:14Z</time></trkpt><trkpt lat="42.2685634753494" lon="3.0062507560871365"><ele>18.0</ele><time>2026-04-22T12:55:15Z</time></trkpt><trkpt lat="42.2685253812394" lon="3.006052306420841"><ele>18.0</ele><time>2026-04-22T12:55:16Z</time></trkpt><trkpt lat="42.26848040334268" lon="3.00584303552676"><ele>18.0</ele><time>2026-04-22T12:55:17Z</time></trkpt><trkpt lat="42.26843207510938" lon="3.0056236645210097"><ele>17.666666666666668</ele><time>2026-04-22T12:55:18Z</time></trkpt><trkpt lat="42.268381048755835" lon="3.005400106463288"><ele>17.333333333333336</ele><time>2026-04-22T12:55:19Z</time></trkpt><trkpt lat="42.268327032015044" lon="3.005170829912014"><ele>17.0</ele><time>2026-04-22T12:55:20Z</time></trkpt><trkpt lat="42.26827139649574" lon="3.004938368452283"><ele>17.0</ele><time>2026-04-22T12:55:21Z</time></trkpt><trkpt lat="42.26821859252499" lon="3.004699107395312"><ele>17.0</ele><time>2026-04-22T12:55:22Z</time></trkpt><trkpt lat="42.268162726954756" lon="3.004465319409747"><ele>17.0</ele><time>2026-04-22T12:55:23Z</time></trkpt><trkpt lat="42.268108947951184" lon="3.004227910209173"><ele>17.5</ele><time>2026-04-22T12:55:24Z</time></trkpt><trkpt lat="42.268006607229054" lon="3.0037655446910088"><ele>18.0</ele><time>2026-04-22T12:55:26Z</time></trkpt><trkpt lat="42.26795889447296" lon="3.0035403774563503"><ele>19.0</ele><time>2026-04-22T12:55:27Z</time></trkpt><trkpt lat="42.26791613640134" lon="3.0033109799339273"><ele>20.0</ele><time>2026-04-22T12:55:28Z</time></trkpt><trkpt lat="42.267876093192996" lon="3.003085636682315"><ele>21.0</ele><time>2026-04-22T12:55:29Z</time></trkpt><trkpt lat="42.267837334717484" lon="3.002859643217199"><ele>21.0</ele><time>2026-04-22T12:55:30Z</time></trkpt><trkpt lat="42.26780144084811" lon="3.0026365806917243"><ele>21.0</ele><time>2026-04-22T12:55:31Z</time></trkpt><trkpt lat="42.267769085572894" lon="3.0024139423680998"><ele>21.0</ele><time>2026-04-22T12:55:32Z</time></trkpt><trkpt lat="42.267741794449734" lon="3.00219432035127"><ele>19.666666666666668</ele><time>2026-04-22T12:55:33Z</time></trkpt><trkpt lat="42.2677175094629" lon="3.001974933937015"><ele>18.333333333333336</ele><time>2026-04-22T12:55:34Z</time></trkpt><trkpt lat="42.26770051046563" lon="3.0017610247001607"><ele>17.0</ele><time>2026-04-22T12:55:35Z</time></trkpt><trkpt lat="42.267684736438035" lon="3.0015480014710123"><ele>15.666666666666668</ele><time>2026-04-22T12:55:36Z</time></trkpt><trkpt lat="42.2676746499481" lon="3.0013407197426614"><ele>14.333333333333332</ele><time>2026-04-22T12:55:37Z</time></trkpt><trkpt lat="42.26766741106414" lon="3.001135113103586"><ele>13.0</ele><time>2026-04-22T12:55:38Z</time></trkpt><trkpt lat="42.267662183938754" lon="3.0009368198955566"><ele>13.25</ele><time>2026-04-22T12:55:39Z</time></trkpt><trkpt lat="42.26765496299446" lon="3.000737688011661"><ele>13.5</ele><time>2026-04-22T12:55:40Z</time></trkpt><trkpt lat="42.26764815934405" lon="3.0005423666172932"><ele>13.75</ele><time>2026-04-22T12:55:41Z</time></trkpt><trkpt lat="42.26764078320204" lon="3.0003653492847255"><ele>14.0</ele><time>2026-04-22T12:55:42Z</time></trkpt><trkpt lat="42.26763116834813" lon="3.0001983083888506"><ele>14.0</ele><time>2026-04-22T12:55:43Z</time></trkpt><trkpt lat="42.26762389513283" lon="3.000043797948948"><ele>13.999999999999998</ele><time>2026-04-22T12:55:44Z</time></trkpt><trkpt lat="42.26761652467753" lon="2.9999060498486254"><ele>13.999999999999998</ele><time>2026-04-22T12:55:45Z</time></trkpt><trkpt lat="42.267613821075635" lon="2.999778943583645"><ele>14.0</ele><time>2026-04-22T12:55:46Z</time></trkpt><trkpt lat="42.26761820435771" lon="2.9996678645013586"><ele>14.0</ele><time>2026-04-22T12:55:47Z</time></trkpt><trkpt lat="42.26763247567445" lon="2.999571982322782"><ele>14.000000000000002</ele><time>2026-04-22T12:55:48Z</time></trkpt><trkpt lat="42.2676490274419" lon="2.999481723380861"><ele>14.0</ele><time>2026-04-22T12:55:49Z</time></trkpt><trkpt lat="42.26767767440844" lon="2.9993878113587704"><ele>14.0</ele><time>2026-04-22T12:55:50Z</time></trkpt><trkpt lat="42.26771436142886" lon="2.9992921789156903"><ele>14.0</ele><time>2026-04-22T12:55:51Z</time></trkpt><trkpt lat="42.267754539031486" lon="2.9991922057270655"><ele>14.000000000000002</ele><time>2026-04-22T12:55:52Z</time></trkpt><trkpt lat="42.26777306315676" lon="2.9990932701390314"><ele>14.0</ele><time>2026-04-22T12:55:53Z</time></trkpt><trkpt lat="42.267768846763815" lon="2.9989854447754762"><ele>14.333333333333334</ele><time>2026-04-22T12:55:54Z</time></trkpt><trkpt lat="42.267743181205816" lon="2.9988883343456325"><ele>14.666666666666668</ele><time>2026-04-22T12:55:55Z</time></trkpt><trkpt lat="42.2676980328917" lon="2.998798956298296"><ele>15.0</ele><time>2026-04-22T12:55:56Z</time></trkpt><trkpt lat="42.26764856394372" lon="2.9987049926113976"><ele>15.333333333333332</ele><time>2026-04-22T12:55:57Z</time></trkpt><trkpt lat="42.26760752331982" lon="2.998595272120428"><ele>15.666666666666666</ele><time>2026-04-22T12:55:58Z</time></trkpt><trkpt lat="42.26757371773951" lon="2.9984706291176257"><ele>16.0</ele><time>2026-04-22T12:55:59Z</time></trkpt><trkpt lat="42.267554943784305" lon="2.9983346116670146"><ele>16.0</ele><time>2026-04-22T12:56:00Z</time></trkpt><trkpt lat="42.267546714517984" lon="2.998189516670218"><ele>16.0</ele><time>2026-04-22T12:56:01Z</time></trkpt><trkpt lat="42.26753800676628" lon="2.9980273125187664"><ele>16.0</ele><time>2026-04-22T12:56:02Z</time></trkpt><trkpt lat="42.26753468392604" lon="2.997876440961105"><ele>16.0</ele><time>2026-04-22T12:56:03Z</time></trkpt><trkpt lat="42.26753326946714" lon="2.997728915089603"><ele>16.0</ele><time>2026-04-22T12:56:04Z</time></trkpt><trkpt lat="42.267534337483696" lon="2.997587464352078"><ele>16.400000000000002</ele><time>2026-04-22T12:56:05Z</time></trkpt><trkpt lat="42.26752992974099" lon="2.9974469537490873"><ele>16.8</ele><time>2026-04-22T12:56:06Z</time></trkpt><trkpt lat="42.2675227269515" lon="2.9973012165491055"><ele>17.200000000000003</ele><time>2026-04-22T12:56:07Z</time></trkpt><trkpt lat="42.26752005458446" lon="2.9971564325224302"><ele>17.6</ele><time>2026-04-22T12:56:08Z</time></trkpt><trkpt lat="42.26751513361317" lon="2.997013861609007"><ele>18.0</ele><time>2026-04-22T12:56:09Z</time></trkpt><trkpt lat="42.26750984858554" lon="2.99687296361916"><ele>18.0</ele><time>2026-04-22T12:56:10Z</time></trkpt><trkpt lat="42.26750622032285" lon="2.996731221732824"><ele>18.0</ele><time>2026-04-22T12:56:11Z</time></trkpt><trkpt lat="42.26750254795944" lon="2.996588497827361"><ele>18.0</ele><time>2026-04-22T12:56:12Z</time></trkpt><trkpt lat="42.26749501132944" lon="2.996443906123088"><ele>18.0</ele><time>2026-04-22T12:56:13Z</time></trkpt><trkpt lat="42.267490130949476" lon="2.9962947590659486"><ele>18.0</ele><time>2026-04-22T12:56:14Z</time></trkpt><trkpt lat="42.267488608095924" lon="2.9961462417991163"><ele>18.2</ele><time>2026-04-22T12:56:15Z</time></trkpt><trkpt lat="42.267482963732576" lon="2.995997312025141"><ele>18.4</ele><time>2026-04-22T12:56:16Z</time></trkpt><trkpt lat="42.267478212314735" lon="2.995845192494994"><ele>18.599999999999998</ele><time>2026-04-22T12:56:17Z</time></trkpt><trkpt lat="42.26747016898242" lon="2.995695261020055"><ele>18.8</ele><time>2026-04-22T12:56:18Z</time></trkpt><trkpt lat="42.2674623644407" lon="2.9955454110000312"><ele>19.0</ele><time>2026-04-22T12:56:19Z</time></trkpt><trkpt lat="42.267456833417945" lon="2.9953942998641687"><ele>19.0</ele><time>2026-04-22T12:56:20Z</time></trkpt><trkpt lat="42.26744744642821" lon="2.995242062091219"><ele>19.0</ele><time>2026-04-22T12:56:21Z</time></trkpt><trkpt lat="42.26744280176487" lon="2.9950948950106078"><ele>19.0</ele><time>2026-04-22T12:56:22Z</time></trkpt><trkpt lat="42.26743776369784" lon="2.994943199683441"><ele>19.0</ele><time>2026-04-22T12:56:23Z</time></trkpt><trkpt lat="42.26743166966919" lon="2.994793719906201"><ele>19.0</ele><time>2026-04-22T12:56:24Z</time></trkpt><trkpt lat="42.26742363643048" lon="2.994642592056615"><ele>19.0</ele><time>2026-04-22T12:56:25Z</time></trkpt><trkpt lat="42.26741529609413" lon="2.994492007128505"><ele>19.0</ele><time>2026-04-22T12:56:26Z</time></trkpt><trkpt lat="42.26741110327339" lon="2.994341279814158"><ele>19.0</ele><time>2026-04-22T12:56:27Z</time></trkpt><trkpt lat="42.26740735411565" lon="2.994192748284039"><ele>19.0</ele><time>2026-04-22T12:56:28Z</time></trkpt><trkpt lat="42.26740162554794" lon="2.9940411448005575"><ele>19.0</ele><time>2026-04-22T12:56:29Z</time></trkpt><trkpt lat="42.26739863014788" lon="2.9938905724030276"><ele>19.0</ele><time>2026-04-22T12:56:30Z</time></trkpt><trkpt lat="42.26739581714682" lon="2.993740842621541"><ele>19.0</ele><time>2026-04-22T12:56:31Z</time></trkpt><trkpt lat="42.26739001569535" lon="2.993588556413313"><ele>19.0</ele><time>2026-04-22T12:56:32Z</time></trkpt><trkpt lat="42.26738193080753" lon="2.99343594504895"><ele>19.0</ele><time>2026-04-22T12:56:33Z</time></trkpt><trkpt lat="42.26737799187306" lon="2.993283304002729"><ele>18.75</ele><time>2026-04-22T12:56:34Z</time></trkpt><trkpt lat="42.267371309216806" lon="2.993129431976345"><ele>18.5</ele><time>2026-04-22T12:56:35Z</time></trkpt><trkpt lat="42.26736502073116" lon="2.99297643078326"><ele>18.25</ele><time>2026-04-22T12:56:36Z</time></trkpt><trkpt lat="42.26736002143085" lon="2.992824001430665"><ele>18.0</ele><time>2026-04-22T12:56:37Z</time></trkpt><trkpt lat="42.2673525414081" lon="2.9926710116041395"><ele>18.0</ele><time>2026-04-22T12:56:38Z</time></trkpt><trkpt lat="42.26734525835975" lon="2.9925181115647437"><ele>18.0</ele><time>2026-04-22T12:56:39Z</time></trkpt><trkpt lat="42.26733777961445" lon="2.9923653147682656"><ele>18.0</ele><time>2026-04-22T12:56:40Z</time></trkpt><trkpt lat="42.2673320040589" lon="2.9922150084031776"><ele>18.0</ele><time>2026-04-22T12:56:41Z</time></trkpt><trkpt lat="42.267325851789685" lon="2.992063662158502"><ele>18.0</ele><time>2026-04-22T12:56:42Z</time></trkpt><trkpt lat="42.26731987833511" lon="2.991913697374011"><ele>18.0</ele><time>2026-04-22T12:56:43Z</time></trkpt><trkpt lat="42.26731222935724" lon="2.9917598345574246"><ele>18.0</ele><time>2026-04-22T12:56:44Z</time></trkpt><trkpt lat="42.26730594567881" lon="2.991607481876031"><ele>18.0</ele><time>2026-04-22T12:56:45Z</time></trkpt><trkpt lat="42.26730032563412" lon="2.9914552881206102"><ele>18.0</ele><time>2026-04-22T12:56:46Z</time></trkpt><trkpt lat="42.26729502905433" lon="2.991303517596787"><ele>18.0</ele><time>2026-04-22T12:56:47Z</time></trkpt><trkpt lat="42.26729211240587" lon="2.991149929975978"><ele>18.0</ele><time>2026-04-22T12:56:48Z</time></trkpt><trkpt lat="42.26728813129407" lon="2.9909956355299805"><ele>18.0</ele><time>2026-04-22T12:56:49Z</time></trkpt><trkpt lat="42.26728473263168" lon="2.9908406307100686"><ele>18.25</ele><time>2026-04-22T12:56:50Z</time></trkpt><trkpt lat="42.26728136116133" lon="2.990682874857562"><ele>18.5</ele><time>2026-04-22T12:56:51Z</time></trkpt><trkpt lat="42.26727762509558" lon="2.9905275154478916"><ele>18.75</ele><time>2026-04-22T12:56:52Z</time></trkpt><trkpt lat="42.267274185640076" lon="2.9903727248638443"><ele>19.0</ele><time>2026-04-22T12:56:53Z</time></trkpt><trkpt lat="42.26727126948786" lon="2.9902186322204813"><ele>19.0</ele><time>2026-04-22T12:56:54Z</time></trkpt><trkpt lat="42.2672670013029" lon="2.9900650757156484"><ele>19.0</ele><time>2026-04-22T12:56:55Z</time></trkpt><trkpt lat="42.26726554744109" lon="2.9899137338196353"><ele>19.0</ele><time>2026-04-22T12:56:56Z</time></trkpt><trkpt lat="42.26727219212571" lon="2.9897604663085895"><ele>19.0</ele><time>2026-04-22T12:56:57Z</time></trkpt><trkpt lat="42.26729273826801" lon="2.9896130706064303"><ele>19.0</ele><time>2026-04-22T12:56:58Z</time></trkpt><trkpt lat="42.26732816730338" lon="2.9894619744533797"><ele>19.0</ele><time>2026-04-22T12:56:59Z</time></trkpt><trkpt lat="42.26738070088041" lon="2.9893128820618413"><ele>19.0</ele><time>2026-04-22T12:57:00Z</time></trkpt><trkpt lat="42.26745149332922" lon="2.9891681504060386"><ele>19.0</ele><time>2026-04-22T12:57:01Z</time></trkpt><trkpt lat="42.26754234706014" lon="2.989029742547713"><ele>19.0</ele><time>2026-04-22T12:57:02Z</time></trkpt><trkpt lat="42.26764443616689" lon="2.988907730002939"><ele>19.0</ele><time>2026-04-22T12:57:03Z</time></trkpt><trkpt lat="42.267757929305915" lon="2.9887974148829857"><ele>19.0</ele><time>2026-04-22T12:57:04Z</time></trkpt><trkpt lat="42.267880670833385" lon="2.988701328538698"><ele>19.0</ele><time>2026-04-22T12:57:05Z</time></trkpt><trkpt lat="42.26801797847894" lon="2.9886304118331966"><ele>18.333333333333332</ele><time>2026-04-22T12:57:06Z</time></trkpt><trkpt lat="42.268156943184145" lon="2.9885791028988486"><ele>17.666666666666668</ele><time>2026-04-22T12:57:07Z</time></trkpt><trkpt lat="42.268297894271846" lon="2.9885336754150065"><ele>17.0</ele><time>2026-04-22T12:57:08Z</time></trkpt><trkpt lat="42.26845689362741" lon="2.9884790700400496"><ele>17.0</ele><time>2026-04-22T12:57:09Z</time></trkpt><trkpt lat="42.26861887402263" lon="2.988426175072986"><ele>17.0</ele><time>2026-04-22T12:57:10Z</time></trkpt><trkpt lat="42.26878740470482" lon="2.9883682239822296"><ele>17.0</ele><time>2026-04-22T12:57:11Z</time></trkpt><trkpt lat="42.26896244220103" lon="2.988303415550575"><ele>17.333333333333336</ele><time>2026-04-22T12:57:12Z</time></trkpt><trkpt lat="42.26914374003318" lon="2.9882335483348115"><ele>17.666666666666668</ele><time>2026-04-22T12:57:13Z</time></trkpt><trkpt lat="42.26933550486002" lon="2.9881579443907165"><ele>18.0</ele><time>2026-04-22T12:57:14Z</time></trkpt><trkpt lat="42.26953085876226" lon="2.9880821510523408"><ele>18.0</ele><time>2026-04-22T12:57:15Z</time></trkpt><trkpt lat="42.269735259824564" lon="2.9880023567588885"><ele>18.0</ele><time>2026-04-22T12:57:16Z</time></trkpt><trkpt lat="42.26993247696612" lon="2.9879212050216597"><ele>18.0</ele><time>2026-04-22T12:57:17Z</time></trkpt><trkpt lat="42.27012923406955" lon="2.9878373618385563"><ele>17.666666666666668</ele><time>2026-04-22T12:57:18Z</time></trkpt><trkpt lat="42.270324284984575" lon="2.9877541888806816"><ele>17.333333333333336</ele><time>2026-04-22T12:57:19Z</time></trkpt><trkpt lat="42.27051253007173" lon="2.9876639021964917"><ele>17.0</ele><time>2026-04-22T12:57:20Z</time></trkpt><trkpt lat="42.27069617882025" lon="2.9875712599288566"><ele>17.0</ele><time>2026-04-22T12:57:21Z</time></trkpt><trkpt lat="42.27088031590361" lon="2.98747434002033"><ele>17.0</ele><time>2026-04-22T12:57:22Z</time></trkpt><trkpt lat="42.271062804408736" lon="2.987371399762223"><ele>17.0</ele><time>2026-04-22T12:57:23Z</time></trkpt><trkpt lat="42.27124291760562" lon="2.98725879444532"><ele>17.0</ele><time>2026-04-22T12:57:24Z</time></trkpt><trkpt lat="42.2714204647431" lon="2.987147119456464"><ele>17.0</ele><time>2026-04-22T12:57:25Z</time></trkpt><trkpt lat="42.271590055389105" lon="2.9870287163469773"><ele>17.0</ele><time>2026-04-22T12:57:26Z</time></trkpt><trkpt lat="42.27176392244335" lon="2.9869063884709925"><ele>17.0</ele><time>2026-04-22T12:57:27Z</time></trkpt><trkpt lat="42.27193175214733" lon="2.9867785282542676"><ele>17.0</ele><time>2026-04-22T12:57:28Z</time></trkpt><trkpt lat="42.27210493783955" lon="2.9866503373492574"><ele>17.0</ele><time>2026-04-22T12:57:29Z</time></trkpt><trkpt lat="42.272271373554524" lon="2.9865165647777685"><ele>17.0</ele><time>2026-04-22T12:57:30Z</time></trkpt><trkpt lat="42.27243468830115" lon="2.986381676957831"><ele>17.0</ele><time>2026-04-22T12:57:31Z</time></trkpt><trkpt lat="42.27259713860809" lon="2.9862383836459228"><ele>17.0</ele><time>2026-04-22T12:57:32Z</time></trkpt><trkpt lat="42.272756412469704" lon="2.9860919999796995"><ele>17.0</ele><time>2026-04-22T12:57:33Z</time></trkpt><trkpt lat="42.27291379435212" lon="2.985938439718086"><ele>17.0</ele><time>2026-04-22T12:57:34Z</time></trkpt><trkpt lat="42.27307109325254" lon="2.985776687272414"><ele>17.0</ele><time>2026-04-22T12:57:35Z</time></trkpt><trkpt lat="42.27322228604694" lon="2.985618836987442"><ele>17.333333333333336</ele><time>2026-04-22T12:57:36Z</time></trkpt><trkpt lat="42.273375178717174" lon="2.985456540388343"><ele>17.666666666666668</ele><time>2026-04-22T12:57:37Z</time></trkpt><trkpt lat="42.27352698999501" lon="2.985287590473681"><ele>18.0</ele><time>2026-04-22T12:57:38Z</time></trkpt><trkpt lat="42.273676402157534" lon="2.985119543044478"><ele>18.0</ele><time>2026-04-22T12:57:39Z</time></trkpt><trkpt lat="42.2738154403719" lon="2.9849441145217894"><ele>18.0</ele><time>2026-04-22T12:57:40Z</time></trkpt><trkpt lat="42.27395877561951" lon="2.984766043903392"><ele>18.0</ele><time>2026-04-22T12:57:41Z</time></trkpt><trkpt lat="42.274098188259686" lon="2.9845849042918986"><ele>18.0</ele><time>2026-04-22T12:57:42Z</time></trkpt><trkpt lat="42.27423097211478" lon="2.9844002951961266"><ele>18.0</ele><time>2026-04-22T12:57:43Z</time></trkpt><trkpt lat="42.27436559508956" lon="2.984210252451235"><ele>18.0</ele><time>2026-04-22T12:57:44Z</time></trkpt><trkpt lat="42.274496493398495" lon="2.9840150403999917"><ele>18.0</ele><time>2026-04-22T12:57:45Z</time></trkpt><trkpt lat="42.274625723388894" lon="2.9838155998555203"><ele>18.0</ele><time>2026-04-22T12:57:46Z</time></trkpt><trkpt lat="42.27475066034829" lon="2.983616844983362"><ele>18.0</ele><time>2026-04-22T12:57:47Z</time></trkpt><trkpt lat="42.27487450773235" lon="2.9834170512479927"><ele>18.666666666666668</ele><time>2026-04-22T12:57:48Z</time></trkpt><trkpt lat="42.274996571186676" lon="2.9832063535186903"><ele>19.333333333333336</ele><time>2026-04-22T12:57:49Z</time></trkpt><trkpt lat="42.27511531749314" lon="2.9829948791187886"><ele>20.0</ele><time>2026-04-22T12:57:50Z</time></trkpt><trkpt lat="42.275232923960964" lon="2.9827751698883267"><ele>20.0</ele><time>2026-04-22T12:57:51Z</time></trkpt><trkpt lat="42.27535234685634" lon="2.982552999584909"><ele>20.0</ele><time>2026-04-22T12:57:52Z</time></trkpt><trkpt lat="42.27546367048227" lon="2.982332762778137"><ele>20.0</ele><time>2026-04-22T12:57:53Z</time></trkpt><trkpt lat="42.2755753832556" lon="2.982110804143659"><ele>19.666666666666668</ele><time>2026-04-22T12:57:54Z</time></trkpt><trkpt lat="42.27568515489746" lon="2.9818884182281806"><ele>19.333333333333332</ele><time>2026-04-22T12:57:55Z</time></trkpt><trkpt lat="42.27579456413905" lon="2.9816624369508693"><ele>19.0</ele><time>2026-04-22T12:57:56Z</time></trkpt><trkpt lat="42.27590049075953" lon="2.981433950082323"><ele>19.0</ele><time>2026-04-22T12:57:57Z</time></trkpt><trkpt lat="42.276005754837875" lon="2.9812061257345395"><ele>19.0</ele><time>2026-04-22T12:57:58Z</time></trkpt><trkpt lat="42.276105919042585" lon="2.9809784887613215"><ele>19.0</ele><time>2026-04-22T12:57:59Z</time></trkpt><trkpt lat="42.27620703832971" lon="2.9807483654308617"><ele>19.0</ele><time>2026-04-22T12:58:00Z</time></trkpt><trkpt lat="42.27630870505818" lon="2.980520037062078"><ele>19.0</ele><time>2026-04-22T12:58:01Z</time></trkpt><trkpt lat="42.27641177873111" lon="2.9802891052827447"><ele>19.0</ele><time>2026-04-22T12:58:02Z</time></trkpt><trkpt lat="42.276508170097785" lon="2.9800594577036357"><ele>18.0</ele><time>2026-04-22T12:58:03Z</time></trkpt><trkpt lat="42.27660424934457" lon="2.97982626397011"><ele>17.0</ele><time>2026-04-22T12:58:04Z</time></trkpt><trkpt lat="42.27670145144354" lon="2.97959657512455"><ele>16.0</ele><time>2026-04-22T12:58:05Z</time></trkpt><trkpt lat="42.276799624408135" lon="2.9793668555207167"><ele>16.0</ele><time>2026-04-22T12:58:06Z</time></trkpt><trkpt lat="42.27689888628793" lon="2.9791391317020004"><ele>16.0</ele><time>2026-04-22T12:58:07Z</time></trkpt><trkpt lat="42.27700260983564" lon="2.9789106487426555"><ele>16.0</ele><time>2026-04-22T12:58:08Z</time></trkpt><trkpt lat="42.277105559534945" lon="2.978682764183441"><ele>16.0</ele><time>2026-04-22T12:58:09Z</time></trkpt><trkpt lat="42.27720337567949" lon="2.97845832938632"><ele>16.0</ele><time>2026-04-22T12:58:10Z</time></trkpt><trkpt lat="42.27730465796844" lon="2.9782312510402313"><ele>16.0</ele><time>2026-04-22T12:58:11Z</time></trkpt><trkpt lat="42.27740864179122" lon="2.978005068753977"><ele>16.333333333333332</ele><time>2026-04-22T12:58:12Z</time></trkpt><trkpt lat="42.27751070324606" lon="2.9777782912230855"><ele>16.666666666666668</ele><time>2026-04-22T12:58:13Z</time></trkpt><trkpt lat="42.27761016582944" lon="2.9775542792524523"><ele>17.0</ele><time>2026-04-22T12:58:14Z</time></trkpt><trkpt lat="42.277712334442235" lon="2.9773309074459804"><ele>17.0</ele><time>2026-04-22T12:58:15Z</time></trkpt><trkpt lat="42.27781578746931" lon="2.9771075449709548"><ele>17.0</ele><time>2026-04-22T12:58:16Z</time></trkpt><trkpt lat="42.277918418707785" lon="2.9768839863142817"><ele>17.0</ele><time>2026-04-22T12:58:17Z</time></trkpt><trkpt lat="42.27802290421646" lon="2.9766596691238556"><ele>16.333333333333336</ele><time>2026-04-22T12:58:18Z</time></trkpt><trkpt lat="42.27812654933388" lon="2.9764401069983935"><ele>15.666666666666668</ele><time>2026-04-22T12:58:19Z</time></trkpt><trkpt lat="42.278229556274184" lon="2.9762232349398903"><ele>15.0</ele><time>2026-04-22T12:58:20Z</time></trkpt><trkpt lat="42.27833290181952" lon="2.976005331360433"><ele>15.0</ele><time>2026-04-22T12:58:21Z</time></trkpt><trkpt lat="42.27843668604024" lon="2.9757861881478536"><ele>15.0</ele><time>2026-04-22T12:58:22Z</time></trkpt><trkpt lat="42.278541536932515" lon="2.9755693348500603"><ele>15.0</ele><time>2026-04-22T12:58:23Z</time></trkpt><trkpt lat="42.278647126933656" lon="2.9753536132795855"><ele>15.0</ele><time>2026-04-22T12:58:24Z</time></trkpt><trkpt lat="42.27875370678688" lon="2.975138431591136"><ele>15.0</ele><time>2026-04-22T12:58:25Z</time></trkpt><trkpt lat="42.278860293640015" lon="2.9749238574912704"><ele>15.0</ele><time>2026-04-22T12:58:26Z</time></trkpt><trkpt lat="42.27896824907173" lon="2.9747094872952444"><ele>15.666666666666668</ele><time>2026-04-22T12:58:27Z</time></trkpt><trkpt lat="42.279075330545425" lon="2.974495179272268"><ele>16.333333333333336</ele><time>2026-04-22T12:58:28Z</time></trkpt><trkpt lat="42.27918410998917" lon="2.974284799842975"><ele>17.0</ele><time>2026-04-22T12:58:29Z</time></trkpt><trkpt lat="42.27929764007726" lon="2.9740743414964412"><ele>18.0</ele><time>2026-04-22T12:58:30Z</time></trkpt><trkpt lat="42.27940672347907" lon="2.973867621766871"><ele>19.0</ele><time>2026-04-22T12:58:31Z</time></trkpt><trkpt lat="42.27951922115153" lon="2.973657905674098"><ele>20.0</ele><time>2026-04-22T12:58:32Z</time></trkpt><trkpt lat="42.279628213537165" lon="2.9734537600836086"><ele>19.666666666666668</ele><time>2026-04-22T12:58:33Z</time></trkpt><trkpt lat="42.279736391459174" lon="2.97324696184485"><ele>19.333333333333332</ele><time>2026-04-22T12:58:34Z</time></trkpt><trkpt lat="42.27984638317182" lon="2.9730420719369195"><ele>19.0</ele><time>2026-04-22T12:58:35Z</time></trkpt><trkpt lat="42.279953669998015" lon="2.9728381019963477"><ele>19.666666666666664</ele><time>2026-04-22T12:58:36Z</time></trkpt><trkpt lat="42.28006958811674" lon="2.9726278550993497"><ele>20.333333333333332</ele><time>2026-04-22T12:58:37Z</time></trkpt><trkpt lat="42.28017887537139" lon="2.972423466274338"><ele>21.0</ele><time>2026-04-22T12:58:38Z</time></trkpt><trkpt lat="42.2802908931907" lon="2.9722192950702793"><ele>21.0</ele><time>2026-04-22T12:58:39Z</time></trkpt><trkpt lat="42.280403408115404" lon="2.972016095161602"><ele>21.0</ele><time>2026-04-22T12:58:40Z</time></trkpt><trkpt lat="42.280518017762645" lon="2.971818545129948"><ele>21.0</ele><time>2026-04-22T12:58:41Z</time></trkpt><trkpt lat="42.28062736732562" lon="2.971622237274901"><ele>21.0</ele><time>2026-04-22T12:58:42Z</time></trkpt><trkpt lat="42.28085810707422" lon="2.9712271221885262"><ele>21.0</ele><time>2026-04-22T12:58:44Z</time></trkpt><trkpt lat="42.280973689082295" lon="2.971029970872627"><ele>21.666666666666668</ele><time>2026-04-22T12:58:45Z</time></trkpt><trkpt lat="42.28108984579296" lon="2.970832715301171"><ele>22.333333333333336</ele><time>2026-04-22T12:58:46Z</time></trkpt><trkpt lat="42.28120593358974" lon="2.970638866693986"><ele>23.0</ele><time>2026-04-22T12:58:47Z</time></trkpt><trkpt lat="42.281321430371555" lon="2.9704439124540114"><ele>22.666666666666668</ele><time>2026-04-22T12:58:48Z</time></trkpt><trkpt lat="42.28144160262418" lon="2.970251766200685"><ele>22.333333333333332</ele><time>2026-04-22T12:58:49Z</time></trkpt><trkpt lat="42.2815624346031" lon="2.970058353938267"><ele>22.0</ele><time>2026-04-22T12:58:50Z</time></trkpt><trkpt lat="42.281681831020165" lon="2.9698626101359165"><ele>21.666666666666664</ele><time>2026-04-22T12:58:51Z</time></trkpt><trkpt lat="42.28180548615409" lon="2.9696672392560535"><ele>21.333333333333332</ele><time>2026-04-22T12:58:52Z</time></trkpt><trkpt lat="42.28192598847352" lon="2.9694728835602198"><ele>21.0</ele><time>2026-04-22T12:58:53Z</time></trkpt><trkpt lat="42.28205320576234" lon="2.969271876126102"><ele>21.0</ele><time>2026-04-22T12:58:54Z</time></trkpt><trkpt lat="42.2821763764609" lon="2.9690725176314015"><ele>21.0</ele><time>2026-04-22T12:58:55Z</time></trkpt><trkpt lat="42.28229943197614" lon="2.968876384093136"><ele>21.0</ele><time>2026-04-22T12:58:56Z</time></trkpt><trkpt lat="42.28242506426676" lon="2.96867329888934"><ele>21.0</ele><time>2026-04-22T12:58:57Z</time></trkpt><trkpt lat="42.28255382922332" lon="2.9684728615991913"><ele>21.0</ele><time>2026-04-22T12:58:58Z</time></trkpt><trkpt lat="42.282679729426555" lon="2.9682731442595633"><ele>21.0</ele><time>2026-04-22T12:58:59Z</time></trkpt><trkpt lat="42.2828056329198" lon="2.9680715336144297"><ele>21.0</ele><time>2026-04-22T12:59:00Z</time></trkpt><trkpt lat="42.28293352330235" lon="2.9678716608784526"><ele>21.0</ele><time>2026-04-22T12:59:01Z</time></trkpt><trkpt lat="42.283054044774616" lon="2.967675194596989"><ele>21.0</ele><time>2026-04-22T12:59:02Z</time></trkpt><trkpt lat="42.283184869266975" lon="2.967474676120691"><ele>21.666666666666668</ele><time>2026-04-22T12:59:03Z</time></trkpt><trkpt lat="42.28331181757762" lon="2.9672733785332004"><ele>22.333333333333336</ele><time>2026-04-22T12:59:04Z</time></trkpt><trkpt lat="42.283440022848616" lon="2.967072190506361"><ele>23.0</ele><time>2026-04-22T12:59:05Z</time></trkpt><trkpt lat="42.28356471114909" lon="2.9668735673772453"><ele>23.0</ele><time>2026-04-22T12:59:06Z</time></trkpt><trkpt lat="42.28368526568175" lon="2.9666723181142647"><ele>23.0</ele><time>2026-04-22T12:59:07Z</time></trkpt><trkpt lat="42.28381033588352" lon="2.966475716604288"><ele>23.0</ele><time>2026-04-22T12:59:08Z</time></trkpt><trkpt lat="42.283938863836084" lon="2.9662753300199487"><ele>23.0</ele><time>2026-04-22T12:59:09Z</time></trkpt><trkpt lat="42.284062403950706" lon="2.9660790800584036"><ele>23.0</ele><time>2026-04-22T12:59:10Z</time></trkpt><trkpt lat="42.2841873182904" lon="2.96588046915571"><ele>23.0</ele><time>2026-04-22T12:59:11Z</time></trkpt><trkpt lat="42.28430875139811" lon="2.965683835236951"><ele>23.333333333333336</ele><time>2026-04-22T12:59:12Z</time></trkpt><trkpt lat="42.28443368473773" lon="2.965480778812216"><ele>23.666666666666668</ele><time>2026-04-22T12:59:13Z</time></trkpt><trkpt lat="42.28455538610223" lon="2.965280078887702"><ele>24.0</ele><time>2026-04-22T12:59:14Z</time></trkpt><trkpt lat="42.28467567929304" lon="2.965078297864281"><ele>23.666666666666668</ele><time>2026-04-22T12:59:15Z</time></trkpt><trkpt lat="42.284795824704005" lon="2.9648762950471856"><ele>23.333333333333336</ele><time>2026-04-22T12:59:16Z</time></trkpt><trkpt lat="42.284915416357954" lon="2.9646734164202706"><ele>23.0</ele><time>2026-04-22T12:59:17Z</time></trkpt><trkpt lat="42.28502893439775" lon="2.9644691995348276"><ele>23.0</ele><time>2026-04-22T12:59:18Z</time></trkpt><trkpt lat="42.285146352151195" lon="2.9642623865787705"><ele>23.0</ele><time>2026-04-22T12:59:19Z</time></trkpt><trkpt lat="42.285264512414365" lon="2.964054847295274"><ele>23.0</ele><time>2026-04-22T12:59:20Z</time></trkpt><trkpt lat="42.285497592252746" lon="2.9636375407836497"><ele>23.0</ele><time>2026-04-22T12:59:22Z</time></trkpt><trkpt lat="42.285613199066404" lon="2.9634296447405006"><ele>23.0</ele><time>2026-04-22T12:59:23Z</time></trkpt><trkpt lat="42.285728131280635" lon="2.963219905943643"><ele>23.0</ele><time>2026-04-22T12:59:24Z</time></trkpt><trkpt lat="42.28584205863439" lon="2.963008484704015"><ele>24.0</ele><time>2026-04-22T12:59:25Z</time></trkpt><trkpt lat="42.28595074932173" lon="2.9627986812630387"><ele>25.0</ele><time>2026-04-22T12:59:26Z</time></trkpt><trkpt lat="42.2860616181884" lon="2.9625834541209177"><ele>26.0</ele><time>2026-04-22T12:59:27Z</time></trkpt><trkpt lat="42.28617285171265" lon="2.9623679715267413"><ele>26.0</ele><time>2026-04-22T12:59:28Z</time></trkpt><trkpt lat="42.286283417181785" lon="2.9621535661990563"><ele>26.0</ele><time>2026-04-22T12:59:29Z</time></trkpt><trkpt lat="42.28639840395115" lon="2.9619411045484236"><ele>26.0</ele><time>2026-04-22T12:59:30Z</time></trkpt><trkpt lat="42.28651177523493" lon="2.9617259399991056"><ele>25.666666666666664</ele><time>2026-04-22T12:59:31Z</time></trkpt><trkpt lat="42.28662198585553" lon="2.9615120720410846"><ele>25.333333333333336</ele><time>2026-04-22T12:59:32Z</time></trkpt><trkpt lat="42.28673209229683" lon="2.961293833392752"><ele>25.0</ele><time>2026-04-22T12:59:33Z</time></trkpt><trkpt lat="42.286841373693" lon="2.9610777012075897"><ele>25.0</ele><time>2026-04-22T12:59:34Z</time></trkpt><trkpt lat="42.28694955371664" lon="2.9608609904026726"><ele>25.0</ele><time>2026-04-22T12:59:35Z</time></trkpt><trkpt lat="42.287058813715504" lon="2.9606464458546244"><ele>25.0</ele><time>2026-04-22T12:59:36Z</time></trkpt><trkpt lat="42.28716712815143" lon="2.9604279601517125"><ele>25.333333333333336</ele><time>2026-04-22T12:59:37Z</time></trkpt><trkpt lat="42.28726909051261" lon="2.9602105802325975"><ele>25.666666666666664</ele><time>2026-04-22T12:59:38Z</time></trkpt><trkpt lat="42.28737609659213" lon="2.9599940863071437"><ele>26.0</ele><time>2026-04-22T12:59:39Z</time></trkpt><trkpt lat="42.28748342039412" lon="2.9597746451853486"><ele>26.0</ele><time>2026-04-22T12:59:40Z</time></trkpt><trkpt lat="42.28758866277469" lon="2.9595500979187404"><ele>26.0</ele><time>2026-04-22T12:59:41Z</time></trkpt><trkpt lat="42.28768970267437" lon="2.9593253518742126"><ele>26.0</ele><time>2026-04-22T12:59:42Z</time></trkpt><trkpt lat="42.28779241640383" lon="2.9590999389535373"><ele>26.333333333333332</ele><time>2026-04-22T12:59:43Z</time></trkpt><trkpt lat="42.28789363374443" lon="2.958877038054837"><ele>26.666666666666664</ele><time>2026-04-22T12:59:44Z</time></trkpt><trkpt lat="42.28799671438046" lon="2.958649402183174"><ele>27.0</ele><time>2026-04-22T12:59:45Z</time></trkpt><trkpt lat="42.28810054701785" lon="2.958423071750684"><ele>27.0</ele><time>2026-04-22T12:59:46Z</time></trkpt><trkpt lat="42.288201057709024" lon="2.9581950708520712"><ele>27.0</ele><time>2026-04-22T12:59:47Z</time></trkpt><trkpt lat="42.28829921064557" lon="2.9579680635985564"><ele>27.0</ele><time>2026-04-22T12:59:48Z</time></trkpt><trkpt lat="42.28839696196568" lon="2.9577403461874385"><ele>27.333333333333336</ele><time>2026-04-22T12:59:49Z</time></trkpt><trkpt lat="42.28849601828292" lon="2.957510832166778"><ele>27.666666666666668</ele><time>2026-04-22T12:59:50Z</time></trkpt><trkpt lat="42.28859262218885" lon="2.957279276737844"><ele>28.0</ele><time>2026-04-22T12:59:51Z</time></trkpt><trkpt lat="42.28869055244594" lon="2.957046400592173"><ele>28.0</ele><time>2026-04-22T12:59:52Z</time></trkpt><trkpt lat="42.28878762492804" lon="2.9568162565280436"><ele>28.0</ele><time>2026-04-22T12:59:53Z</time></trkpt><trkpt lat="42.28888552944115" lon="2.9565834466679934"><ele>28.0</ele><time>2026-04-22T12:59:54Z</time></trkpt><trkpt lat="42.288983098250746" lon="2.9563501427047796"><ele>28.0</ele><time>2026-04-22T12:59:55Z</time></trkpt><trkpt lat="42.289078560875545" lon="2.9561155130562553"><ele>28.0</ele><time>2026-04-22T12:59:56Z</time></trkpt><trkpt lat="42.28917140877283" lon="2.9558811484610477"><ele>28.0</ele><time>2026-04-22T12:59:57Z</time></trkpt><trkpt lat="42.28926425815059" lon="2.955646009277657"><ele>28.5</ele><time>2026-04-22T12:59:58Z</time></trkpt><trkpt lat="42.28946103252684" lon="2.955168206247459"><ele>29.0</ele><time>2026-04-22T13:00:00Z</time></trkpt><trkpt lat="42.2897315584517" lon="2.9544638749239542"><ele>29.5</ele><time>2026-04-22T13:00:03Z</time></trkpt><trkpt lat="42.28990820706104" lon="2.9539924766895864"><ele>30.0</ele><time>2026-04-22T13:00:05Z</time></trkpt><trkpt lat="42.28999405021781" lon="2.953755589421921"><ele>30.0</ele><time>2026-04-22T13:00:06Z</time></trkpt><trkpt lat="42.29007379435583" lon="2.953520143044599"><ele>30.0</ele><time>2026-04-22T13:00:07Z</time></trkpt><trkpt lat="42.290161581912585" lon="2.953288582739163"><ele>30.0</ele><time>2026-04-22T13:00:08Z</time></trkpt><trkpt lat="42.290244796839076" lon="2.9530500195729865"><ele>30.333333333333336</ele><time>2026-04-22T13:00:09Z</time></trkpt><trkpt lat="42.2903279150032" lon="2.9528101914676084"><ele>30.666666666666668</ele><time>2026-04-22T13:00:10Z</time></trkpt><trkpt lat="42.29040788685208" lon="2.9525729705957136"><ele>31.0</ele><time>2026-04-22T13:00:11Z</time></trkpt><trkpt lat="42.29049376552308" lon="2.9523348144016026"><ele>31.333333333333336</ele><time>2026-04-22T13:00:12Z</time></trkpt><trkpt lat="42.290575201569446" lon="2.9520927232979868"><ele>31.666666666666664</ele><time>2026-04-22T13:00:13Z</time></trkpt><trkpt lat="42.29065190933122" lon="2.951855175052639"><ele>32.0</ele><time>2026-04-22T13:00:14Z</time></trkpt><trkpt lat="42.290728406957165" lon="2.9516187354237324"><ele>33.0</ele><time>2026-04-22T13:00:15Z</time></trkpt><trkpt lat="42.290807054912875" lon="2.95137691970721"><ele>34.0</ele><time>2026-04-22T13:00:16Z</time></trkpt><trkpt lat="42.290963804709925" lon="2.950894770868145"><ele>33.66666666666667</ele><time>2026-04-22T13:00:18Z</time></trkpt><trkpt lat="42.291041287985394" lon="2.950657079169824"><ele>33.333333333333336</ele><time>2026-04-22T13:00:19Z</time></trkpt><trkpt lat="42.29111600012245" lon="2.95041506592771"><ele>33.0</ele><time>2026-04-22T13:00:20Z</time></trkpt><trkpt lat="42.29120036875906" lon="2.9501736204143953"><ele>33.0</ele><time>2026-04-22T13:00:21Z</time></trkpt><trkpt lat="42.29128730132693" lon="2.949930786465621"><ele>33.0</ele><time>2026-04-22T13:00:22Z</time></trkpt><trkpt lat="42.291363922293506" lon="2.949687542529173"><ele>33.0</ele><time>2026-04-22T13:00:23Z</time></trkpt><trkpt lat="42.291446196084856" lon="2.949442314802478"><ele>34.0</ele><time>2026-04-22T13:00:24Z</time></trkpt><trkpt lat="42.29152743354087" lon="2.94919831275625"><ele>35.0</ele><time>2026-04-22T13:00:25Z</time></trkpt><trkpt lat="42.291586797008776" lon="2.9489490542169303"><ele>36.0</ele><time>2026-04-22T13:00:26Z</time></trkpt><trkpt lat="42.29167119381578" lon="2.948707698783634"><ele>36.0</ele><time>2026-04-22T13:00:27Z</time></trkpt><trkpt lat="42.291748215862945" lon="2.9484620526802465"><ele>36.0</ele><time>2026-04-22T13:00:28Z</time></trkpt><trkpt lat="42.29183467195518" lon="2.9482252833120093"><ele>36.0</ele><time>2026-04-22T13:00:29Z</time></trkpt><trkpt lat="42.2919207013148" lon="2.947982843594554"><ele>37.0</ele><time>2026-04-22T13:00:30Z</time></trkpt><trkpt lat="42.29210091054604" lon="2.9475058467598787"><ele>38.0</ele><time>2026-04-22T13:00:32Z</time></trkpt><trkpt lat="42.29219438689738" lon="2.9472707457790945"><ele>37.666666666666664</ele><time>2026-04-22T13:00:33Z</time></trkpt><trkpt lat="42.29228811175413" lon="2.947036179200552"><ele>37.333333333333336</ele><time>2026-04-22T13:00:34Z</time></trkpt><trkpt lat="42.292384948197515" lon="2.946801780080999"><ele>37.0</ele><time>2026-04-22T13:00:35Z</time></trkpt><trkpt lat="42.29248748495593" lon="2.946572847040636"><ele>37.0</ele><time>2026-04-22T13:00:36Z</time></trkpt><trkpt lat="42.292592047309235" lon="2.946348978577932"><ele>37.0</ele><time>2026-04-22T13:00:37Z</time></trkpt><trkpt lat="42.29270141635434" lon="2.9461269327320316"><ele>37.0</ele><time>2026-04-22T13:00:38Z</time></trkpt><trkpt lat="42.29280849275573" lon="2.9459074572219444"><ele>38.0</ele><time>2026-04-22T13:00:39Z</time></trkpt><trkpt lat="42.2929184040545" lon="2.9456863819041597"><ele>39.0</ele><time>2026-04-22T13:00:40Z</time></trkpt><trkpt lat="42.293034299094565" lon="2.9454722589490903"><ele>40.0</ele><time>2026-04-22T13:00:41Z</time></trkpt><trkpt lat="42.2931577784457" lon="2.945274954980429"><ele>40.0</ele><time>2026-04-22T13:00:42Z</time></trkpt><trkpt lat="42.29327836670605" lon="2.945072296852318"><ele>40.0</ele><time>2026-04-22T13:00:43Z</time></trkpt><trkpt lat="42.29340071426681" lon="2.944870513338143"><ele>40.0</ele><time>2026-04-22T13:00:44Z</time></trkpt><trkpt lat="42.293520397241586" lon="2.9446746643553947"><ele>40.0</ele><time>2026-04-22T13:00:45Z</time></trkpt><trkpt lat="42.29376584255029" lon="2.9443114467668177"><ele>40.0</ele><time>2026-04-22T13:00:47Z</time></trkpt><trkpt lat="42.29387973594388" lon="2.9441568161359646"><ele>40.75</ele><time>2026-04-22T13:00:48Z</time></trkpt><trkpt lat="42.293989481002654" lon="2.944008408476563"><ele>41.5</ele><time>2026-04-22T13:00:49Z</time></trkpt><trkpt lat="42.29409261273539" lon="2.9438806975680603"><ele>42.25</ele><time>2026-04-22T13:00:50Z</time></trkpt><trkpt lat="42.29418931505393" lon="2.943760455780396"><ele>43.0</ele><time>2026-04-22T13:00:51Z</time></trkpt><trkpt lat="42.29428435128401" lon="2.9436462343669745"><ele>43.0</ele><time>2026-04-22T13:00:52Z</time></trkpt><trkpt lat="42.294382592702554" lon="2.9435428418246503"><ele>43.0</ele><time>2026-04-22T13:00:53Z</time></trkpt><trkpt lat="42.294462589941745" lon="2.943430881041423"><ele>43.0</ele><time>2026-04-22T13:00:54Z</time></trkpt><trkpt lat="42.29455407020033" lon="2.943324646048093"><ele>43.0</ele><time>2026-04-22T13:00:55Z</time></trkpt><trkpt lat="42.29465017154646" lon="2.94322194214129"><ele>43.25</ele><time>2026-04-22T13:00:56Z</time></trkpt><trkpt lat="42.294737751268585" lon="2.9431230689062495"><ele>43.5</ele><time>2026-04-22T13:00:57Z</time></trkpt><trkpt lat="42.29483180245508" lon="2.943024647049499"><ele>43.75</ele><time>2026-04-22T13:00:58Z</time></trkpt><trkpt lat="42.29491795976242" lon="2.942928134723653"><ele>44.0</ele><time>2026-04-22T13:00:59Z</time></trkpt><trkpt lat="42.29501442572689" lon="2.9428361725179997"><ele>43.5</ele><time>2026-04-22T13:01:00Z</time></trkpt><trkpt lat="42.295110894244885" lon="2.9427571429843744"><ele>43.0</ele><time>2026-04-22T13:01:01Z</time></trkpt><trkpt lat="42.29521620068848" lon="2.9426843510999654"><ele>42.5</ele><time>2026-04-22T13:01:02Z</time></trkpt><trkpt lat="42.29532574925617" lon="2.942619110119706"><ele>42.0</ele><time>2026-04-22T13:01:03Z</time></trkpt><trkpt lat="42.295436318467566" lon="2.942558186833727"><ele>42.0</ele><time>2026-04-22T13:01:04Z</time></trkpt><trkpt lat="42.29555328345005" lon="2.942495869621589"><ele>42.0</ele><time>2026-04-22T13:01:05Z</time></trkpt><trkpt lat="42.29567846038113" lon="2.942438504121601"><ele>42.0</ele><time>2026-04-22T13:01:06Z</time></trkpt><trkpt lat="42.29580102464558" lon="2.942379658665274"><ele>42.0</ele><time>2026-04-22T13:01:07Z</time></trkpt><trkpt lat="42.29592624777231" lon="2.9423218148512795"><ele>42.0</ele><time>2026-04-22T13:01:08Z</time></trkpt><trkpt lat="42.29605113261731" lon="2.942273032055876"><ele>42.0</ele><time>2026-04-22T13:01:09Z</time></trkpt><trkpt lat="42.29618112517988" lon="2.9422344658613175"><ele>42.0</ele><time>2026-04-22T13:01:10Z</time></trkpt><trkpt lat="42.29631001963131" lon="2.9422054018133026"><ele>42.0</ele><time>2026-04-22T13:01:11Z</time></trkpt><trkpt lat="42.296446515751114" lon="2.9421732958535594"><ele>41.75</ele><time>2026-04-22T13:01:12Z</time></trkpt><trkpt lat="42.296584536111986" lon="2.942138641291439"><ele>41.5</ele><time>2026-04-22T13:01:13Z</time></trkpt><trkpt lat="42.296727495162756" lon="2.942107704412575"><ele>41.25</ele><time>2026-04-22T13:01:14Z</time></trkpt><trkpt lat="42.29686429887131" lon="2.942062526107035"><ele>41.0</ele><time>2026-04-22T13:01:15Z</time></trkpt><trkpt lat="42.29701196272943" lon="2.9419944501911437"><ele>41.0</ele><time>2026-04-22T13:01:16Z</time></trkpt><trkpt lat="42.29715018441204" lon="2.9419303248983657"><ele>41.0</ele><time>2026-04-22T13:01:17Z</time></trkpt><trkpt lat="42.297291871616075" lon="2.941875879742631"><ele>41.0</ele><time>2026-04-22T13:01:18Z</time></trkpt><trkpt lat="42.29743224334449" lon="2.941818462613003"><ele>41.0</ele><time>2026-04-22T13:01:19Z</time></trkpt><trkpt lat="42.2975767183805" lon="2.9417553308872098"><ele>41.666666666666664</ele><time>2026-04-22T13:01:20Z</time></trkpt><trkpt lat="42.29771795291676" lon="2.9416973605685564"><ele>42.333333333333336</ele><time>2026-04-22T13:01:21Z</time></trkpt><trkpt lat="42.29788889850938" lon="2.9415876750484182"><ele>43.0</ele><time>2026-04-22T13:01:22Z</time></trkpt><trkpt lat="42.29805358957248" lon="2.9415348268799377"><ele>42.333333333333336</ele><time>2026-04-22T13:01:23Z</time></trkpt><trkpt lat="42.29819404240232" lon="2.9414664917533244"><ele>41.666666666666664</ele><time>2026-04-22T13:01:24Z</time></trkpt><trkpt lat="42.29833901650268" lon="2.9414092976930784"><ele>41.0</ele><time>2026-04-22T13:01:25Z</time></trkpt><trkpt lat="42.2984915407869" lon="2.9413501339841486"><ele>41.0</ele><time>2026-04-22T13:01:26Z</time></trkpt><trkpt lat="42.298638470810616" lon="2.941304858571316"><ele>41.0</ele><time>2026-04-22T13:01:27Z</time></trkpt><trkpt lat="42.29878081463849" lon="2.941269002875349"><ele>41.0</ele><time>2026-04-22T13:01:28Z</time></trkpt><trkpt lat="42.29891513261112" lon="2.9412186944809755"><ele>41.0</ele><time>2026-04-22T13:01:29Z</time></trkpt><trkpt lat="42.29904844275678" lon="2.9411671256882888"><ele>40.75</ele><time>2026-04-22T13:01:30Z</time></trkpt><trkpt lat="42.2991794132202" lon="2.9411122177295934"><ele>40.5</ele><time>2026-04-22T13:01:31Z</time></trkpt><trkpt lat="42.29930359713162" lon="2.941049949950181"><ele>40.25</ele><time>2026-04-22T13:01:32Z</time></trkpt><trkpt lat="42.29942389593662" lon="2.9409853635023406"><ele>40.0</ele><time>2026-04-22T13:01:33Z</time></trkpt><trkpt lat="42.29954244463213" lon="2.940927084124688"><ele>40.25</ele><time>2026-04-22T13:01:34Z</time></trkpt><trkpt lat="42.299660851696025" lon="2.9408621982406262"><ele>40.5</ele><time>2026-04-22T13:01:35Z</time></trkpt><trkpt lat="42.2997777823574" lon="2.9408022886003753"><ele>40.75</ele><time>2026-04-22T13:01:36Z</time></trkpt><trkpt lat="42.29988359496391" lon="2.9407485981093258"><ele>41.0</ele><time>2026-04-22T13:01:37Z</time></trkpt><trkpt lat="42.299986591065256" lon="2.940696780725017"><ele>41.0</ele><time>2026-04-22T13:01:38Z</time></trkpt><trkpt lat="42.30008331816347" lon="2.9406470830901106"><ele>41.0</ele><time>2026-04-22T13:01:39Z</time></trkpt><trkpt lat="42.30017257470099" lon="2.9406016878312924"><ele>41.0</ele><time>2026-04-22T13:01:40Z</time></trkpt><trkpt lat="42.300247465709425" lon="2.9405576867333236"><ele>41.0</ele><time>2026-04-22T13:01:41Z</time></trkpt><trkpt lat="42.30031821673921" lon="2.940519071404403"><ele>41.0</ele><time>2026-04-22T13:01:42Z</time></trkpt><trkpt lat="42.3003927309191" lon="2.940477019309273"><ele>41.0</ele><time>2026-04-22T13:01:44Z</time></trkpt><trkpt lat="42.30049269215313" lon="2.9404842906172357"><ele>41.199999999999996</ele><time>2026-04-22T13:01:51Z</time></trkpt><trkpt lat="42.30059472609107" lon="2.940592679208655"><ele>41.4</ele><time>2026-04-22T13:01:53Z</time></trkpt><trkpt lat="42.30062374108888" lon="2.9406734081042853"><ele>41.6</ele><time>2026-04-22T13:01:54Z</time></trkpt><trkpt lat="42.30063448274469" lon="2.940786679171608"><ele>41.8</ele><time>2026-04-22T13:01:55Z</time></trkpt><trkpt lat="42.30066586758016" lon="2.940888563662652"><ele>42.0</ele><time>2026-04-22T13:01:56Z</time></trkpt><trkpt lat="42.30069533549728" lon="2.9410032355347413"><ele>42.0</ele><time>2026-04-22T13:01:57Z</time></trkpt><trkpt lat="42.300714612916366" lon="2.9411196626988536"><ele>42.0</ele><time>2026-04-22T13:01:58Z</time></trkpt><trkpt lat="42.30073150866508" lon="2.9412454148092695"><ele>42.0</ele><time>2026-04-22T13:01:59Z</time></trkpt><trkpt lat="42.300737446505465" lon="2.941371310495439"><ele>42.0</ele><time>2026-04-22T13:02:00Z</time></trkpt><trkpt lat="42.300734217557704" lon="2.941505631478353"><ele>42.0</ele><time>2026-04-22T13:02:01Z</time></trkpt><trkpt lat="42.30071682187411" lon="2.941651332257088"><ele>42.0</ele><time>2026-04-22T13:02:02Z</time></trkpt><trkpt lat="42.30068800760025" lon="2.9417861238751764"><ele>42.0</ele><time>2026-04-22T13:02:03Z</time></trkpt><trkpt lat="42.30065304281351" lon="2.9419255216319224"><ele>42.0</ele><time>2026-04-22T13:02:04Z</time></trkpt><trkpt lat="42.30060309450582" lon="2.9420668180151814"><ele>42.0</ele><time>2026-04-22T13:02:05Z</time></trkpt><trkpt lat="42.30054132980734" lon="2.9422000962101755"><ele>42.0</ele><time>2026-04-22T13:02:06Z</time></trkpt><trkpt lat="42.30047490006198" lon="2.9423337069124873"><ele>42.25</ele><time>2026-04-22T13:02:07Z</time></trkpt><trkpt lat="42.30039926170822" lon="2.942469797483398"><ele>42.5</ele><time>2026-04-22T13:02:08Z</time></trkpt><trkpt lat="42.30033198255388" lon="2.942604806731813"><ele>42.75</ele><time>2026-04-22T13:02:09Z</time></trkpt><trkpt lat="42.30026383831723" lon="2.942736060837714"><ele>43.0</ele><time>2026-04-22T13:02:10Z</time></trkpt><trkpt lat="42.30019301199195" lon="2.9428679902179757"><ele>43.75</ele><time>2026-04-22T13:02:11Z</time></trkpt><trkpt lat="42.30012466035233" lon="2.9429987828861464"><ele>44.5</ele><time>2026-04-22T13:02:12Z</time></trkpt><trkpt lat="42.30004970424153" lon="2.9431260365051766"><ele>45.25</ele><time>2026-04-22T13:02:13Z</time></trkpt><trkpt lat="42.299972302122534" lon="2.9432523715388417"><ele>46.0</ele><time>2026-04-22T13:02:14Z</time></trkpt><trkpt lat="42.29988985368966" lon="2.9433735145675124"><ele>45.0</ele><time>2026-04-22T13:02:15Z</time></trkpt><trkpt lat="42.299800681685824" lon="2.9434848904528534"><ele>44.0</ele><time>2026-04-22T13:02:16Z</time></trkpt><trkpt lat="42.29970230311698" lon="2.9435912955255263"><ele>43.0</ele><time>2026-04-22T13:02:17Z</time></trkpt><trkpt lat="42.29960349783034" lon="2.9436958131921642"><ele>42.0</ele><time>2026-04-22T13:02:18Z</time></trkpt><trkpt lat="42.29949429661687" lon="2.943792946399475"><ele>42.0</ele><time>2026-04-22T13:02:19Z</time></trkpt><trkpt lat="42.299384342172836" lon="2.943888192785273"><ele>42.0</ele><time>2026-04-22T13:02:20Z</time></trkpt><trkpt lat="42.2992708072892" lon="2.9439748816733773"><ele>42.0</ele><time>2026-04-22T13:02:21Z</time></trkpt><trkpt lat="42.29915417912732" lon="2.9440537660157085"><ele>42.0</ele><time>2026-04-22T13:02:22Z</time></trkpt><trkpt lat="42.299028945214765" lon="2.9441201659879144"><ele>42.0</ele><time>2026-04-22T13:02:23Z</time></trkpt><trkpt lat="42.2989037863777" lon="2.944171941880581"><ele>42.0</ele><time>2026-04-22T13:02:24Z</time></trkpt><trkpt lat="42.29877647988771" lon="2.944213654266309"><ele>42.0</ele><time>2026-04-22T13:02:25Z</time></trkpt><trkpt lat="42.29865032222458" lon="2.9442313553699155"><ele>42.0</ele><time>2026-04-22T13:02:26Z</time></trkpt><trkpt lat="42.29852405554623" lon="2.9442301680787506"><ele>42.0</ele><time>2026-04-22T13:02:27Z</time></trkpt><trkpt lat="42.29839966514672" lon="2.9442183564241335"><ele>42.0</ele><time>2026-04-22T13:02:28Z</time></trkpt><trkpt lat="42.298285108338554" lon="2.944191765777675"><ele>42.0</ele><time>2026-04-22T13:02:29Z</time></trkpt><trkpt lat="42.29817383322162" lon="2.94413939087618"><ele>42.0</ele><time>2026-04-22T13:02:30Z</time></trkpt><trkpt lat="42.29806718319192" lon="2.9440536069970715"><ele>41.75</ele><time>2026-04-22T13:02:31Z</time></trkpt><trkpt lat="42.297972570924756" lon="2.943948469819424"><ele>41.5</ele><time>2026-04-22T13:02:32Z</time></trkpt><trkpt lat="42.29789105791385" lon="2.9438341012347067"><ele>41.25</ele><time>2026-04-22T13:02:33Z</time></trkpt><trkpt lat="42.297828279785875" lon="2.943703791884764"><ele>41.0</ele><time>2026-04-22T13:02:34Z</time></trkpt><trkpt lat="42.297800102560124" lon="2.9435507872426054"><ele>41.0</ele><time>2026-04-22T13:02:35Z</time></trkpt><trkpt lat="42.29778674778992" lon="2.9434005092076854"><ele>41.0</ele><time>2026-04-22T13:02:36Z</time></trkpt><trkpt lat="42.297791742843614" lon="2.9432515639647665"><ele>41.0</ele><time>2026-04-22T13:02:37Z</time></trkpt><trkpt lat="42.29781495627402" lon="2.943113813126703"><ele>41.0</ele><time>2026-04-22T13:02:38Z</time></trkpt><trkpt lat="42.29787035269699" lon="2.9429794999999417"><ele>41.0</ele><time>2026-04-22T13:02:39Z</time></trkpt><trkpt lat="42.29793207641544" lon="2.9428631828096585"><ele>41.0</ele><time>2026-04-22T13:02:40Z</time></trkpt><trkpt lat="42.2980015230937" lon="2.9427627995669075"><ele>41.0</ele><time>2026-04-22T13:02:41Z</time></trkpt><trkpt lat="42.29808280429311" lon="2.9426926625837098"><ele>41.0</ele><time>2026-04-22T13:02:42Z</time></trkpt><trkpt lat="42.29819556880521" lon="2.9426461691780337"><ele>41.0</ele><time>2026-04-22T13:02:43Z</time></trkpt><trkpt lat="42.298307121444694" lon="2.9426340755785194"><ele>41.0</ele><time>2026-04-22T13:02:44Z</time></trkpt><trkpt lat="42.29841662335874" lon="2.9426592984346995"><ele>41.5</ele><time>2026-04-22T13:02:45Z</time></trkpt><trkpt lat="42.29852379996967" lon="2.942714710403759"><ele>42.0</ele><time>2026-04-22T13:02:46Z</time></trkpt><trkpt lat="42.29862204007728" lon="2.9427835540445493"><ele>42.5</ele><time>2026-04-22T13:02:47Z</time></trkpt><trkpt lat="42.29874198874014" lon="2.9428553669776436"><ele>43.0</ele><time>2026-04-22T13:02:48Z</time></trkpt><trkpt lat="42.29886400748351" lon="2.9429330281455277"><ele>43.0</ele><time>2026-04-22T13:02:49Z</time></trkpt><trkpt lat="42.298986894535474" lon="2.943009451078907"><ele>43.0</ele><time>2026-04-22T13:02:50Z</time></trkpt><trkpt lat="42.29911972218276" lon="2.943082583840139"><ele>43.0</ele><time>2026-04-22T13:02:51Z</time></trkpt><trkpt lat="42.29925761679116" lon="2.943159145461823"><ele>43.0</ele><time>2026-04-22T13:02:52Z</time></trkpt><trkpt lat="42.29940034873011" lon="2.9432401663749848"><ele>43.0</ele><time>2026-04-22T13:02:53Z</time></trkpt><trkpt lat="42.29955076888179" lon="2.9433226748352457"><ele>43.0</ele><time>2026-04-22T13:02:54Z</time></trkpt><trkpt lat="42.29970360252789" lon="2.9434119279799558"><ele>43.0</ele><time>2026-04-22T13:02:55Z</time></trkpt><trkpt lat="42.29985932546997" lon="2.9435047541193584"><ele>42.333333333333336</ele><time>2026-04-22T13:02:56Z</time></trkpt><trkpt lat="42.300014023971066" lon="2.9435990797080898"><ele>41.666666666666664</ele><time>2026-04-22T13:02:57Z</time></trkpt><trkpt lat="42.30017325100495" lon="2.9436939581377306"><ele>41.0</ele><time>2026-04-22T13:02:58Z</time></trkpt><trkpt lat="42.30034441522941" lon="2.9437989027977984"><ele>41.0</ele><time>2026-04-22T13:02:59Z</time></trkpt><trkpt lat="42.30051178238541" lon="2.9439017391793216"><ele>41.0</ele><time>2026-04-22T13:03:00Z</time></trkpt><trkpt lat="42.30068236814734" lon="2.9440057154115777"><ele>41.0</ele><time>2026-04-22T13:03:01Z</time></trkpt><trkpt lat="42.300854899692894" lon="2.9441062523668147"><ele>40.0</ele><time>2026-04-22T13:03:02Z</time></trkpt><trkpt lat="42.30102744372002" lon="2.944204239101142"><ele>39.0</ele><time>2026-04-22T13:03:03Z</time></trkpt><trkpt lat="42.30120525914193" lon="2.9443038558270884"><ele>38.0</ele><time>2026-04-22T13:03:04Z</time></trkpt><trkpt lat="42.301392641685425" lon="2.9444084488506115"><ele>36.666666666666664</ele><time>2026-04-22T13:03:05Z</time></trkpt><trkpt lat="42.301577963763634" lon="2.94450803840287"><ele>35.333333333333336</ele><time>2026-04-22T13:03:06Z</time></trkpt><trkpt lat="42.301771024185655" lon="2.9446071470959354"><ele>34.0</ele><time>2026-04-22T13:03:07Z</time></trkpt><trkpt lat="42.30197008423288" lon="2.94470875788716"><ele>34.0</ele><time>2026-04-22T13:03:08Z</time></trkpt><trkpt lat="42.302171869802734" lon="2.9448042588606995"><ele>34.0</ele><time>2026-04-22T13:03:09Z</time></trkpt><trkpt lat="42.30237107815969" lon="2.9448962247185597"><ele>34.0</ele><time>2026-04-22T13:03:10Z</time></trkpt><trkpt lat="42.30258062820352" lon="2.944985032726412"><ele>33.5</ele><time>2026-04-22T13:03:11Z</time></trkpt><trkpt lat="42.30280253722388" lon="2.9450864591643704"><ele>33.0</ele><time>2026-04-22T13:03:12Z</time></trkpt><trkpt lat="42.30301789790418" lon="2.945171396797821"><ele>32.5</ele><time>2026-04-22T13:03:13Z</time></trkpt><trkpt lat="42.30325138714981" lon="2.9452533221195476"><ele>32.0</ele><time>2026-04-22T13:03:14Z</time></trkpt><trkpt lat="42.303490212947175" lon="2.9453343953099225"><ele>32.0</ele><time>2026-04-22T13:03:15Z</time></trkpt><trkpt lat="42.30373563062574" lon="2.945411695021404"><ele>32.0</ele><time>2026-04-22T13:03:16Z</time></trkpt><trkpt lat="42.303987647835626" lon="2.9455032545839837"><ele>32.5</ele><time>2026-04-22T13:03:17Z</time></trkpt><trkpt lat="42.30424164735925" lon="2.945577954733936"><ele>33.0</ele><time>2026-04-22T13:03:18Z</time></trkpt><trkpt lat="42.30449853635407" lon="2.9456537278595274"><ele>33.5</ele><time>2026-04-22T13:03:19Z</time></trkpt><trkpt lat="42.30475751936627" lon="2.9457194895014664"><ele>34.0</ele><time>2026-04-22T13:03:20Z</time></trkpt><trkpt lat="42.30502791187285" lon="2.9457832507157975"><ele>34.0</ele><time>2026-04-22T13:03:21Z</time></trkpt><trkpt lat="42.3052872481568" lon="2.9458580701805905"><ele>34.0</ele><time>2026-04-22T13:03:22Z</time></trkpt><trkpt lat="42.305544593911634" lon="2.9459192484010033"><ele>34.5</ele><time>2026-04-22T13:03:23Z</time></trkpt><trkpt lat="42.30580868466187" lon="2.945970966015808"><ele>35.0</ele><time>2026-04-22T13:03:24Z</time></trkpt><trkpt lat="42.3060764462938" lon="2.9460153722025133"><ele>35.0</ele><time>2026-04-22T13:03:25Z</time></trkpt><trkpt lat="42.306348926567324" lon="2.9460593878111445"><ele>35.0</ele><time>2026-04-22T13:03:26Z</time></trkpt><trkpt lat="42.30662261777926" lon="2.9460957949433646"><ele>36.0</ele><time>2026-04-22T13:03:27Z</time></trkpt><trkpt lat="42.306894735406445" lon="2.9461260670989167"><ele>37.0</ele><time>2026-04-22T13:03:28Z</time></trkpt><trkpt lat="42.30717171365603" lon="2.9461491622457854"><ele>37.0</ele><time>2026-04-22T13:03:29Z</time></trkpt><trkpt lat="42.30744673008338" lon="2.946164321982326"><ele>37.0</ele><time>2026-04-22T13:03:30Z</time></trkpt><trkpt lat="42.30771908731012" lon="2.9461756070966425"><ele>37.0</ele><time>2026-04-22T13:03:31Z</time></trkpt><trkpt lat="42.30799898436311" lon="2.946186284506619"><ele>37.0</ele><time>2026-04-22T13:03:32Z</time></trkpt><trkpt lat="42.308278415436895" lon="2.946186795705949"><ele>37.0</ele><time>2026-04-22T13:03:33Z</time></trkpt><trkpt lat="42.30855773915132" lon="2.946185351287237"><ele>37.0</ele><time>2026-04-22T13:03:34Z</time></trkpt><trkpt lat="42.30883613738955" lon="2.9461700242149327"><ele>37.0</ele><time>2026-04-22T13:03:35Z</time></trkpt><trkpt lat="42.3091148447633" lon="2.9461493690355494"><ele>37.0</ele><time>2026-04-22T13:03:36Z</time></trkpt><trkpt lat="42.30939272982959" lon="2.9461259270364413"><ele>37.0</ele><time>2026-04-22T13:03:37Z</time></trkpt><trkpt lat="42.309675413600004" lon="2.946096620722424"><ele>37.0</ele><time>2026-04-22T13:03:38Z</time></trkpt><trkpt lat="42.309959636120695" lon="2.946061561389207"><ele>37.0</ele><time>2026-04-22T13:03:39Z</time></trkpt><trkpt lat="42.3102427506572" lon="2.946021500948404"><ele>37.0</ele><time>2026-04-22T13:03:40Z</time></trkpt><trkpt lat="42.310526297845" lon="2.9459688719947175"><ele>37.0</ele><time>2026-04-22T13:03:41Z</time></trkpt><trkpt lat="42.31081140207725" lon="2.945913764127685"><ele>37.0</ele><time>2026-04-22T13:03:42Z</time></trkpt><trkpt lat="42.31109329968028" lon="2.945855623610192"><ele>37.5</ele><time>2026-04-22T13:03:43Z</time></trkpt><trkpt lat="42.31137666971487" lon="2.9457930761691538"><ele>38.0</ele><time>2026-04-22T13:03:44Z</time></trkpt><trkpt lat="42.311657541884045" lon="2.9457247150742725"><ele>38.0</ele><time>2026-04-22T13:03:45Z</time></trkpt><trkpt lat="42.31194588767109" lon="2.9456601803333897"><ele>38.0</ele><time>2026-04-22T13:03:46Z</time></trkpt><trkpt lat="42.312236943871135" lon="2.9455911636971615"><ele>37.0</ele><time>2026-04-22T13:03:47Z</time></trkpt><trkpt lat="42.31251930120986" lon="2.945514400521002"><ele>36.0</ele><time>2026-04-22T13:03:48Z</time></trkpt><trkpt lat="42.31279622532603" lon="2.9454321202095266"><ele>36.5</ele><time>2026-04-22T13:03:49Z</time></trkpt><trkpt lat="42.31307311678006" lon="2.9453440345369732"><ele>37.0</ele><time>2026-04-22T13:03:50Z</time></trkpt><trkpt lat="42.31336222092372" lon="2.9452523254866314"><ele>37.0</ele><time>2026-04-22T13:03:51Z</time></trkpt><trkpt lat="42.31364148423867" lon="2.945155033483991"><ele>37.0</ele><time>2026-04-22T13:03:52Z</time></trkpt><trkpt lat="42.313918736001455" lon="2.9450533301177675"><ele>37.5</ele><time>2026-04-22T13:03:53Z</time></trkpt><trkpt lat="42.314195194378826" lon="2.9449491353187467"><ele>38.0</ele><time>2026-04-22T13:03:54Z</time></trkpt><trkpt lat="42.31446817879889" lon="2.9448404305703817"><ele>39.5</ele><time>2026-04-22T13:03:55Z</time></trkpt><trkpt lat="42.314744082519894" lon="2.944731272552107"><ele>41.0</ele><time>2026-04-22T13:03:56Z</time></trkpt><trkpt lat="42.31501389415621" lon="2.9446137472556133"><ele>41.0</ele><time>2026-04-22T13:03:57Z</time></trkpt><trkpt lat="42.31528585298108" lon="2.944498206671353"><ele>41.0</ele><time>2026-04-22T13:03:58Z</time></trkpt><trkpt lat="42.31555704826557" lon="2.944383083780293"><ele>41.5</ele><time>2026-04-22T13:03:59Z</time></trkpt><trkpt lat="42.31583440084713" lon="2.9442718131951304"><ele>42.0</ele><time>2026-04-22T13:04:00Z</time></trkpt><trkpt lat="42.31610385793206" lon="2.9441509950851805"><ele>42.0</ele><time>2026-04-22T13:04:01Z</time></trkpt><trkpt lat="42.316375702969246" lon="2.9440284705655007"><ele>42.0</ele><time>2026-04-22T13:04:02Z</time></trkpt><trkpt lat="42.31664884826413" lon="2.943900619967997"><ele>41.5</ele><time>2026-04-22T13:04:03Z</time></trkpt><trkpt lat="42.31691771007948" lon="2.9437720946975316"><ele>41.0</ele><time>2026-04-22T13:04:04Z</time></trkpt><trkpt lat="42.3171858768996" lon="2.94363988514859"><ele>41.0</ele><time>2026-04-22T13:04:05Z</time></trkpt><trkpt lat="42.31745715738995" lon="2.9435082434520043"><ele>41.0</ele><time>2026-04-22T13:04:06Z</time></trkpt><trkpt lat="42.317725600930295" lon="2.9433749856157827"><ele>41.0</ele><time>2026-04-22T13:04:07Z</time></trkpt><trkpt lat="42.31799266516553" lon="2.9432343154451606"><ele>41.0</ele><time>2026-04-22T13:04:08Z</time></trkpt><trkpt lat="42.318257764890994" lon="2.9430924096156055"><ele>40.5</ele><time>2026-04-22T13:04:09Z</time></trkpt><trkpt lat="42.31852482462216" lon="2.94294384065438"><ele>40.0</ele><time>2026-04-22T13:04:10Z</time></trkpt><trkpt lat="42.31879126367765" lon="2.9427956974029956"><ele>40.0</ele><time>2026-04-22T13:04:11Z</time></trkpt><trkpt lat="42.31906083492708" lon="2.94264187695242"><ele>40.0</ele><time>2026-04-22T13:04:12Z</time></trkpt><trkpt lat="42.319327204837414" lon="2.942489258941229"><ele>40.5</ele><time>2026-04-22T13:04:13Z</time></trkpt><trkpt lat="42.31959447353623" lon="2.942332482322634"><ele>41.0</ele><time>2026-04-22T13:04:14Z</time></trkpt><trkpt lat="42.31985892882508" lon="2.942172352038487"><ele>41.0</ele><time>2026-04-22T13:04:15Z</time></trkpt><trkpt lat="42.320126849083465" lon="2.942011183672761"><ele>41.0</ele><time>2026-04-22T13:04:16Z</time></trkpt><trkpt lat="42.32039457696345" lon="2.941849765101514"><ele>42.0</ele><time>2026-04-22T13:04:17Z</time></trkpt><trkpt lat="42.32066047475484" lon="2.9416833640223268"><ele>43.0</ele><time>2026-04-22T13:04:18Z</time></trkpt><trkpt lat="42.32093036349949" lon="2.9415166999482825"><ele>43.0</ele><time>2026-04-22T13:04:19Z</time></trkpt><trkpt lat="42.32119460705388" lon="2.9413419818979105"><ele>43.0</ele><time>2026-04-22T13:04:20Z</time></trkpt><trkpt lat="42.32145994864435" lon="2.941164741441715"><ele>42.5</ele><time>2026-04-22T13:04:21Z</time></trkpt><trkpt lat="42.32172187830821" lon="2.9409857360973275"><ele>42.0</ele><time>2026-04-22T13:04:22Z</time></trkpt><trkpt lat="42.321978678345296" lon="2.9408003939219354"><ele>42.0</ele><time>2026-04-22T13:04:23Z</time></trkpt><trkpt lat="42.32223868041615" lon="2.9406098156486284"><ele>42.0</ele><time>2026-04-22T13:04:24Z</time></trkpt><trkpt lat="42.322497692517366" lon="2.940419859437764"><ele>42.0</ele><time>2026-04-22T13:04:25Z</time></trkpt><trkpt lat="42.32275973091054" lon="2.940230413974783"><ele>42.0</ele><time>2026-04-22T13:04:26Z</time></trkpt><trkpt lat="42.323022123174276" lon="2.940041176542269"><ele>41.5</ele><time>2026-04-22T13:04:27Z</time></trkpt><trkpt lat="42.3232861778944" lon="2.9398477175413227"><ele>41.0</ele><time>2026-04-22T13:04:28Z</time></trkpt><trkpt lat="42.32354802784053" lon="2.939653713347369"><ele>41.0</ele><time>2026-04-22T13:04:29Z</time></trkpt><trkpt lat="42.323812478757525" lon="2.9394636865338772"><ele>41.0</ele><time>2026-04-22T13:04:30Z</time></trkpt><trkpt lat="42.32407691858654" lon="2.9392703409310297"><ele>40.5</ele><time>2026-04-22T13:04:31Z</time></trkpt><trkpt lat="42.32433481815681" lon="2.9390753677082837"><ele>40.0</ele><time>2026-04-22T13:04:32Z</time></trkpt><trkpt lat="42.32458948616849" lon="2.9388770050255437"><ele>40.0</ele><time>2026-04-22T13:04:33Z</time></trkpt><trkpt lat="42.32484417817634" lon="2.938669689080283"><ele>40.0</ele><time>2026-04-22T13:04:34Z</time></trkpt><trkpt lat="42.32509498517112" lon="2.93846172147558"><ele>39.5</ele><time>2026-04-22T13:04:35Z</time></trkpt><trkpt lat="42.325344279852324" lon="2.9382496953633983"><ele>39.0</ele><time>2026-04-22T13:04:36Z</time></trkpt><trkpt lat="42.32559185313356" lon="2.938038217313832"><ele>39.0</ele><time>2026-04-22T13:04:37Z</time></trkpt><trkpt lat="42.325837238153504" lon="2.9378215065487536"><ele>39.0</ele><time>2026-04-22T13:04:38Z</time></trkpt><trkpt lat="42.32608393708979" lon="2.9376076089117182"><ele>39.5</ele><time>2026-04-22T13:04:39Z</time></trkpt><trkpt lat="42.32632882059427" lon="2.937389505266485"><ele>40.0</ele><time>2026-04-22T13:04:40Z</time></trkpt><trkpt lat="42.32657208843507" lon="2.9371717198200913"><ele>40.0</ele><time>2026-04-22T13:04:41Z</time></trkpt><trkpt lat="42.326815700342756" lon="2.9369499868654794"><ele>40.0</ele><time>2026-04-22T13:04:42Z</time></trkpt><trkpt lat="42.327055257753635" lon="2.9367324921988525"><ele>40.0</ele><time>2026-04-22T13:04:43Z</time></trkpt><trkpt lat="42.32729302115767" lon="2.9365120938392932"><ele>40.0</ele><time>2026-04-22T13:04:44Z</time></trkpt><trkpt lat="42.32753315689635" lon="2.936291090325021"><ele>40.0</ele><time>2026-04-22T13:04:45Z</time></trkpt><trkpt lat="42.32776572278394" lon="2.9360673984146315"><ele>40.0</ele><time>2026-04-22T13:04:46Z</time></trkpt><trkpt lat="42.327998205375955" lon="2.935844056835448"><ele>40.5</ele><time>2026-04-22T13:04:47Z</time></trkpt><trkpt lat="42.32822820210812" lon="2.935616374854943"><ele>41.0</ele><time>2026-04-22T13:04:48Z</time></trkpt><trkpt lat="42.32845919781782" lon="2.935387500755279"><ele>41.0</ele><time>2026-04-22T13:04:49Z</time></trkpt><trkpt lat="42.328688927800286" lon="2.935156366512612"><ele>41.0</ele><time>2026-04-22T13:04:50Z</time></trkpt><trkpt lat="42.328915617896754" lon="2.934925173354775"><ele>40.5</ele><time>2026-04-22T13:04:51Z</time></trkpt><trkpt lat="42.32913962507164" lon="2.9346879518419873"><ele>40.0</ele><time>2026-04-22T13:04:52Z</time></trkpt><trkpt lat="42.32936105251044" lon="2.93444703325726"><ele>40.5</ele><time>2026-04-22T13:04:53Z</time></trkpt><trkpt lat="42.329586098462826" lon="2.9342074706622654"><ele>41.0</ele><time>2026-04-22T13:04:54Z</time></trkpt><trkpt lat="42.32980922751903" lon="2.9339653071423877"><ele>41.5</ele><time>2026-04-22T13:04:55Z</time></trkpt><trkpt lat="42.33003426294157" lon="2.9337220572952165"><ele>42.0</ele><time>2026-04-22T13:04:56Z</time></trkpt><trkpt lat="42.330258351230924" lon="2.933472600801559"><ele>42.0</ele><time>2026-04-22T13:04:57Z</time></trkpt><trkpt lat="42.330483242461035" lon="2.933222750276509"><ele>42.0</ele><time>2026-04-22T13:04:58Z</time></trkpt><trkpt lat="42.33070776439233" lon="2.932971973962624"><ele>42.0</ele><time>2026-04-22T13:04:59Z</time></trkpt><trkpt lat="42.33092885752138" lon="2.932720464306399"><ele>42.0</ele><time>2026-04-22T13:05:00Z</time></trkpt><trkpt lat="42.33114901994564" lon="2.9324652176843733"><ele>42.0</ele><time>2026-04-22T13:05:01Z</time></trkpt><trkpt lat="42.33136422546107" lon="2.932210088630815"><ele>42.0</ele><time>2026-04-22T13:05:02Z</time></trkpt><trkpt lat="42.33157870742467" lon="2.9319503382579755"><ele>42.0</ele><time>2026-04-22T13:05:03Z</time></trkpt><trkpt lat="42.33179193270733" lon="2.9316890544767737"><ele>42.0</ele><time>2026-04-22T13:05:04Z</time></trkpt><trkpt lat="42.332002231326875" lon="2.931425810432982"><ele>42.0</ele><time>2026-04-22T13:05:05Z</time></trkpt><trkpt lat="42.332217835146515" lon="2.9311609579745874"><ele>42.0</ele><time>2026-04-22T13:05:06Z</time></trkpt><trkpt lat="42.3324296973226" lon="2.93089041176855"><ele>43.0</ele><time>2026-04-22T13:05:07Z</time></trkpt><trkpt lat="42.332641772337084" lon="2.9306184547549883"><ele>44.0</ele><time>2026-04-22T13:05:08Z</time></trkpt><trkpt lat="42.33285157920477" lon="2.9303440204535907"><ele>44.0</ele><time>2026-04-22T13:05:09Z</time></trkpt><trkpt lat="42.3330642708935" lon="2.93006767243498"><ele>44.0</ele><time>2026-04-22T13:05:10Z</time></trkpt><trkpt lat="42.33327268753991" lon="2.929789382778119"><ele>44.0</ele><time>2026-04-22T13:05:11Z</time></trkpt><trkpt lat="42.333484836315776" lon="2.929507711203403"><ele>44.0</ele><time>2026-04-22T13:05:12Z</time></trkpt><trkpt lat="42.33369564076841" lon="2.9292241799477527"><ele>44.0</ele><time>2026-04-22T13:05:13Z</time></trkpt><trkpt lat="42.3339042609807" lon="2.928941442342075"><ele>44.0</ele><time>2026-04-22T13:05:14Z</time></trkpt><trkpt lat="42.33411155757188" lon="2.9286577616701623"><ele>43.5</ele><time>2026-04-22T13:05:15Z</time></trkpt><trkpt lat="42.33431831218698" lon="2.92836998980306"><ele>43.0</ele><time>2026-04-22T13:05:16Z</time></trkpt><trkpt lat="42.33453165039582" lon="2.9280822580361168"><ele>42.5</ele><time>2026-04-22T13:05:17Z</time></trkpt><trkpt lat="42.33474306264749" lon="2.927787548036356"><ele>42.0</ele><time>2026-04-22T13:05:18Z</time></trkpt><trkpt lat="42.33495468751612" lon="2.927491473979075"><ele>43.0</ele><time>2026-04-22T13:05:19Z</time></trkpt><trkpt lat="42.335164682969165" lon="2.927197761534874"><ele>44.0</ele><time>2026-04-22T13:05:20Z</time></trkpt><trkpt lat="42.33537319013974" lon="2.926906620200493"><ele>44.0</ele><time>2026-04-22T13:05:21Z</time></trkpt><trkpt lat="42.33558746586222" lon="2.926613845194204"><ele>44.0</ele><time>2026-04-22T13:05:22Z</time></trkpt><trkpt lat="42.33580131111705" lon="2.9263254350610404"><ele>44.0</ele><time>2026-04-22T13:05:23Z</time></trkpt><trkpt lat="42.33601279553295" lon="2.926036746883364"><ele>44.0</ele><time>2026-04-22T13:05:24Z</time></trkpt><trkpt lat="42.33644034548196" lon="2.9254625539243433"><ele>45.0</ele><time>2026-04-22T13:05:26Z</time></trkpt><trkpt lat="42.336654316963354" lon="2.9251753020179523"><ele>46.0</ele><time>2026-04-22T13:05:27Z</time></trkpt><trkpt lat="42.33686734148092" lon="2.9248900690342996"><ele>46.0</ele><time>2026-04-22T13:05:28Z</time></trkpt><trkpt lat="42.33708630320542" lon="2.9246070267148987"><ele>46.0</ele><time>2026-04-22T13:05:29Z</time></trkpt><trkpt lat="42.337314251453996" lon="2.9243303775829954"><ele>45.5</ele><time>2026-04-22T13:05:30Z</time></trkpt><trkpt lat="42.33753935121117" lon="2.924056734072851"><ele>45.0</ele><time>2026-04-22T13:05:31Z</time></trkpt><trkpt lat="42.337765541497845" lon="2.9237877012998106"><ele>45.0</ele><time>2026-04-22T13:05:32Z</time></trkpt><trkpt lat="42.337995326387244" lon="2.9235233228559236"><ele>45.0</ele><time>2026-04-22T13:05:33Z</time></trkpt><trkpt lat="42.338226131348364" lon="2.9232632015920483"><ele>45.5</ele><time>2026-04-22T13:05:34Z</time></trkpt><trkpt lat="42.33846453463688" lon="2.923010127963994"><ele>46.0</ele><time>2026-04-22T13:05:35Z</time></trkpt><trkpt lat="42.33870155522389" lon="2.922760393283491"><ele>48.0</ele><time>2026-04-22T13:05:36Z</time></trkpt><trkpt lat="42.339176893365" lon="2.922267135446898"><ele>48.0</ele><time>2026-04-22T13:05:38Z</time></trkpt><trkpt lat="42.33941550880569" lon="2.922019036105863"><ele>48.0</ele><time>2026-04-22T13:05:39Z</time></trkpt><trkpt lat="42.33965547757451" lon="2.921777642027918"><ele>47.5</ele><time>2026-04-22T13:05:40Z</time></trkpt><trkpt lat="42.339894808416204" lon="2.921539013947211"><ele>47.0</ele><time>2026-04-22T13:05:41Z</time></trkpt><trkpt lat="42.34013590006749" lon="2.9213046327260876"><ele>47.0</ele><time>2026-04-22T13:05:42Z</time></trkpt><trkpt lat="42.340379032217434" lon="2.921072961850157"><ele>47.0</ele><time>2026-04-22T13:05:43Z</time></trkpt><trkpt lat="42.34062517368252" lon="2.920844096318264"><ele>47.5</ele><time>2026-04-22T13:05:44Z</time></trkpt><trkpt lat="42.34087423084103" lon="2.9206225669620443"><ele>48.0</ele><time>2026-04-22T13:05:45Z</time></trkpt><trkpt lat="42.34112383016115" lon="2.9204072551045765"><ele>49.0</ele><time>2026-04-22T13:05:46Z</time></trkpt><trkpt lat="42.34162587375655" lon="2.9199858693217267"><ele>49.0</ele><time>2026-04-22T13:05:48Z</time></trkpt><trkpt lat="42.34187682341538" lon="2.919775829937048"><ele>49.0</ele><time>2026-04-22T13:05:49Z</time></trkpt><trkpt lat="42.342130551744525" lon="2.919570215401546"><ele>49.0</ele><time>2026-04-22T13:05:50Z</time></trkpt><trkpt lat="42.342384216616225" lon="2.9193681376709804"><ele>49.0</ele><time>2026-04-22T13:05:51Z</time></trkpt><trkpt lat="42.34263644583602" lon="2.9191644639012986"><ele>49.0</ele><time>2026-04-22T13:05:52Z</time></trkpt><trkpt lat="42.34288781307054" lon="2.9189622656168126"><ele>49.0</ele><time>2026-04-22T13:05:53Z</time></trkpt><trkpt lat="42.34313787295332" lon="2.9187571165717796"><ele>50.0</ele><time>2026-04-22T13:05:54Z</time></trkpt><trkpt lat="42.343390100994625" lon="2.918550784835771"><ele>51.0</ele><time>2026-04-22T13:05:55Z</time></trkpt><trkpt lat="42.34364116435521" lon="2.918345941532772"><ele>56.5</ele><time>2026-04-22T13:05:56Z</time></trkpt><trkpt lat="42.34389339416906" lon="2.918141548516209"><ele>62.0</ele><time>2026-04-22T13:05:57Z</time></trkpt><trkpt lat="42.34414353044536" lon="2.917932762321001"><ele>62.0</ele><time>2026-04-22T13:05:58Z</time></trkpt><trkpt lat="42.34439234429767" lon="2.917725720898486"><ele>62.0</ele><time>2026-04-22T13:05:59Z</time></trkpt><trkpt lat="42.34463834525596" lon="2.9175150856832053"><ele>61.5</ele><time>2026-04-22T13:06:00Z</time></trkpt><trkpt lat="42.344886157676314" lon="2.9173052898078207"><ele>61.0</ele><time>2026-04-22T13:06:01Z</time></trkpt><trkpt lat="42.345129251174285" lon="2.917096347142323"><ele>61.0</ele><time>2026-04-22T13:06:02Z</time></trkpt><trkpt lat="42.345370290371235" lon="2.9168758829696664"><ele>61.0</ele><time>2026-04-22T13:06:03Z</time></trkpt><trkpt lat="42.34561071140432" lon="2.916653477591675"><ele>60.0</ele><time>2026-04-22T13:06:04Z</time></trkpt><trkpt lat="42.34584822127792" lon="2.9164277869675073"><ele>59.0</ele><time>2026-04-22T13:06:05Z</time></trkpt><trkpt lat="42.34608310439868" lon="2.91619293098941"><ele>59.0</ele><time>2026-04-22T13:06:06Z</time></trkpt><trkpt lat="42.34631519355003" lon="2.915957411617809"><ele>59.0</ele><time>2026-04-22T13:06:07Z</time></trkpt><trkpt lat="42.34654780319338" lon="2.915724609238936"><ele>58.0</ele><time>2026-04-22T13:06:08Z</time></trkpt><trkpt lat="42.346776032433645" lon="2.915484414428114"><ele>57.0</ele><time>2026-04-22T13:06:09Z</time></trkpt><trkpt lat="42.34700316330155" lon="2.9152393066890823"><ele>60.0</ele><time>2026-04-22T13:06:10Z</time></trkpt><trkpt lat="42.347223994231676" lon="2.914984796168751"><ele>63.0</ele><time>2026-04-22T13:06:11Z</time></trkpt><trkpt lat="42.34744344455557" lon="2.9147277018771827"><ele>63.0</ele><time>2026-04-22T13:06:12Z</time></trkpt><trkpt lat="42.34766119908453" lon="2.9144709213793565"><ele>63.0</ele><time>2026-04-22T13:06:13Z</time></trkpt><trkpt lat="42.347876921719205" lon="2.914209201276347"><ele>58.0</ele><time>2026-04-22T13:06:14Z</time></trkpt><trkpt lat="42.34809246831731" lon="2.9139443557190305"><ele>53.0</ele><time>2026-04-22T13:06:15Z</time></trkpt><trkpt lat="42.348303706071576" lon="2.913676828156708"><ele>53.0</ele><time>2026-04-22T13:06:16Z</time></trkpt><trkpt lat="42.3485099125023" lon="2.9134020019884197"><ele>53.0</ele><time>2026-04-22T13:06:17Z</time></trkpt><trkpt lat="42.34871572796665" lon="2.91312563786684"><ele>52.5</ele><time>2026-04-22T13:06:18Z</time></trkpt><trkpt lat="42.34892047059944" lon="2.9128460376113026"><ele>52.0</ele><time>2026-04-22T13:06:19Z</time></trkpt><trkpt lat="42.34912230151125" lon="2.9125607693456987"><ele>51.5</ele><time>2026-04-22T13:06:20Z</time></trkpt><trkpt lat="42.34932042449002" lon="2.9122730849610954"><ele>51.0</ele><time>2026-04-22T13:06:21Z</time></trkpt><trkpt lat="42.34951326714078" lon="2.9119827829950444"><ele>51.5</ele><time>2026-04-22T13:06:22Z</time></trkpt><trkpt lat="42.34970357067909" lon="2.9116904393043193"><ele>52.0</ele><time>2026-04-22T13:06:23Z</time></trkpt><trkpt lat="42.34988813629613" lon="2.911395023732038"><ele>52.0</ele><time>2026-04-22T13:06:24Z</time></trkpt><trkpt lat="42.35007203344385" lon="2.911097945524963"><ele>52.0</ele><time>2026-04-22T13:06:25Z</time></trkpt><trkpt lat="42.35025018348475" lon="2.910799004128194"><ele>51.0</ele><time>2026-04-22T13:06:26Z</time></trkpt><trkpt lat="42.35042770788072" lon="2.9104977628023674"><ele>50.0</ele><time>2026-04-22T13:06:27Z</time></trkpt><trkpt lat="42.35060366313909" lon="2.910196175190457"><ele>52.5</ele><time>2026-04-22T13:06:28Z</time></trkpt><trkpt lat="42.35078013185495" lon="2.90989798268367"><ele>55.0</ele><time>2026-04-22T13:06:29Z</time></trkpt><trkpt lat="42.35113677897918" lon="2.9093075017464827"><ele>55.5</ele><time>2026-04-22T13:06:31Z</time></trkpt><trkpt lat="42.35131338440874" lon="2.90901369504801"><ele>56.0</ele><time>2026-04-22T13:06:32Z</time></trkpt><trkpt lat="42.35148664682144" lon="2.908713498208739"><ele>56.0</ele><time>2026-04-22T13:06:33Z</time></trkpt><trkpt lat="42.35165491549661" lon="2.9084135464817065"><ele>56.0</ele><time>2026-04-22T13:06:34Z</time></trkpt><trkpt lat="42.35182143706253" lon="2.9081133636154677"><ele>56.0</ele><time>2026-04-22T13:06:35Z</time></trkpt><trkpt lat="42.35198898234096" lon="2.9078177338584865"><ele>56.0</ele><time>2026-04-22T13:06:36Z</time></trkpt><trkpt lat="42.352157461041784" lon="2.907525041255707"><ele>56.5</ele><time>2026-04-22T13:06:37Z</time></trkpt><trkpt lat="42.35232765295997" lon="2.9072369702637033"><ele>57.0</ele><time>2026-04-22T13:06:38Z</time></trkpt><trkpt lat="42.35250396382986" lon="2.906953828595762"><ele>57.5</ele><time>2026-04-22T13:06:39Z</time></trkpt><trkpt lat="42.35268061208558" lon="2.906672512354577"><ele>58.0</ele><time>2026-04-22T13:06:40Z</time></trkpt><trkpt lat="42.35286528154765" lon="2.9063992092926756"><ele>57.5</ele><time>2026-04-22T13:06:41Z</time></trkpt><trkpt lat="42.35305332414034" lon="2.9061319585249006"><ele>57.0</ele><time>2026-04-22T13:06:42Z</time></trkpt><trkpt lat="42.35324607616067" lon="2.9058706233748324"><ele>58.0</ele><time>2026-04-22T13:06:43Z</time></trkpt><trkpt lat="42.35344519892132" lon="2.9056165491456527"><ele>59.0</ele><time>2026-04-22T13:06:44Z</time></trkpt><trkpt lat="42.353648444541506" lon="2.9053685883570295"><ele>59.0</ele><time>2026-04-22T13:06:45Z</time></trkpt><trkpt lat="42.353857646175356" lon="2.905125585083502"><ele>59.0</ele><time>2026-04-22T13:06:46Z</time></trkpt><trkpt lat="42.354070010971135" lon="2.9048925929574327"><ele>59.5</ele><time>2026-04-22T13:06:47Z</time></trkpt><trkpt lat="42.354288031393665" lon="2.904662696150656"><ele>60.0</ele><time>2026-04-22T13:06:48Z</time></trkpt><trkpt lat="42.354508307792784" lon="2.9044388756196375"><ele>60.5</ele><time>2026-04-22T13:06:49Z</time></trkpt><trkpt lat="42.35472729674155" lon="2.904220903405222"><ele>61.0</ele><time>2026-04-22T13:06:50Z</time></trkpt><trkpt lat="42.3549518470061" lon="2.9040136297288406"><ele>61.0</ele><time>2026-04-22T13:06:51Z</time></trkpt><trkpt lat="42.35517897685245" lon="2.903809833651502"><ele>61.0</ele><time>2026-04-22T13:06:52Z</time></trkpt><trkpt lat="42.355413172838894" lon="2.903614267240073"><ele>61.0</ele><time>2026-04-22T13:06:53Z</time></trkpt><trkpt lat="42.35565101691689" lon="2.9034261142423334"><ele>61.0</ele><time>2026-04-22T13:06:54Z</time></trkpt><trkpt lat="42.355894756753216" lon="2.9032451160041446"><ele>61.0</ele><time>2026-04-22T13:06:55Z</time></trkpt><trkpt lat="42.35614134723881" lon="2.903070630109222"><ele>61.0</ele><time>2026-04-22T13:06:56Z</time></trkpt><trkpt lat="42.35638914813778" lon="2.9029009860408284"><ele>61.0</ele><time>2026-04-22T13:06:57Z</time></trkpt><trkpt lat="42.356642859252155" lon="2.9027345356037184"><ele>61.0</ele><time>2026-04-22T13:06:58Z</time></trkpt><trkpt lat="42.35689603871829" lon="2.902571121548121"><ele>60.5</ele><time>2026-04-22T13:06:59Z</time></trkpt><trkpt lat="42.35714902555229" lon="2.902407467234449"><ele>60.0</ele><time>2026-04-22T13:07:00Z</time></trkpt><trkpt lat="42.3574037928056" lon="2.9022453073335237"><ele>61.0</ele><time>2026-04-22T13:07:01Z</time></trkpt><trkpt lat="42.35765723015904" lon="2.9020840995372357"><ele>62.0</ele><time>2026-04-22T13:07:02Z</time></trkpt><trkpt lat="42.3579059225371" lon="2.901913433589988"><ele>62.0</ele><time>2026-04-22T13:07:03Z</time></trkpt><trkpt lat="42.358154809408134" lon="2.9017345205531577"><ele>62.0</ele><time>2026-04-22T13:07:04Z</time></trkpt><trkpt lat="42.35840040634184" lon="2.901552833769331"><ele>62.0</ele><time>2026-04-22T13:07:05Z</time></trkpt><trkpt lat="42.35864525134158" lon="2.901363452585506"><ele>62.0</ele><time>2026-04-22T13:07:06Z</time></trkpt><trkpt lat="42.35888566396535" lon="2.901166465281722"><ele>61.0</ele><time>2026-04-22T13:07:07Z</time></trkpt><trkpt lat="42.359126598735905" lon="2.9009647337134368"><ele>60.0</ele><time>2026-04-22T13:07:08Z</time></trkpt><trkpt lat="42.35935905257707" lon="2.900756281792494"><ele>61.0</ele><time>2026-04-22T13:07:09Z</time></trkpt><trkpt lat="42.35981316800009" lon="2.9003230288422626"><ele>61.0</ele><time>2026-04-22T13:07:11Z</time></trkpt><trkpt lat="42.36003778310694" lon="2.9000930249951393"><ele>61.0</ele><time>2026-04-22T13:07:12Z</time></trkpt><trkpt lat="42.36025840834962" lon="2.899856675762922"><ele>61.0</ele><time>2026-04-22T13:07:13Z</time></trkpt><trkpt lat="42.360475622401815" lon="2.899609107560764"><ele>61.0</ele><time>2026-04-22T13:07:14Z</time></trkpt><trkpt lat="42.36068477213047" lon="2.8993533136483434"><ele>62.0</ele><time>2026-04-22T13:07:15Z</time></trkpt><trkpt lat="42.360890483586196" lon="2.8990844138076013"><ele>63.0</ele><time>2026-04-22T13:07:16Z</time></trkpt><trkpt lat="42.3610909682611" lon="2.898808105027149"><ele>63.0</ele><time>2026-04-22T13:07:17Z</time></trkpt><trkpt lat="42.361286296800785" lon="2.898535372817248"><ele>63.0</ele><time>2026-04-22T13:07:18Z</time></trkpt><trkpt lat="42.36147859259052" lon="2.898258206231336"><ele>65.0</ele><time>2026-04-22T13:07:19Z</time></trkpt><trkpt lat="42.36184495759219" lon="2.897686923392373"><ele>69.0</ele><time>2026-04-22T13:07:21Z</time></trkpt><trkpt lat="42.36201989142174" lon="2.8974005387252366"><ele>73.0</ele><time>2026-04-22T13:07:22Z</time></trkpt><trkpt lat="42.362185506092175" lon="2.8971105289969765"><ele>70.0</ele><time>2026-04-22T13:07:23Z</time></trkpt><trkpt lat="42.36235196102806" lon="2.8968171528632602"><ele>67.0</ele><time>2026-04-22T13:07:24Z</time></trkpt><trkpt lat="42.36251885655227" lon="2.8965253769456285"><ele>67.0</ele><time>2026-04-22T13:07:25Z</time></trkpt><trkpt lat="42.36268283590252" lon="2.896233401450219"><ele>67.0</ele><time>2026-04-22T13:07:26Z</time></trkpt><trkpt lat="42.36284967315607" lon="2.895949762703483"><ele>65.5</ele><time>2026-04-22T13:07:27Z</time></trkpt><trkpt lat="42.36302076722342" lon="2.8956720462678693"><ele>64.0</ele><time>2026-04-22T13:07:28Z</time></trkpt><trkpt lat="42.36319240058121" lon="2.8953987371867904"><ele>64.0</ele><time>2026-04-22T13:07:29Z</time></trkpt><trkpt lat="42.36336806762755" lon="2.8951273456005664"><ele>64.0</ele><time>2026-04-22T13:07:30Z</time></trkpt><trkpt lat="42.36354045849903" lon="2.894859478847203"><ele>66.0</ele><time>2026-04-22T13:07:31Z</time></trkpt><trkpt lat="42.363715667326595" lon="2.8945980491667718"><ele>68.0</ele><time>2026-04-22T13:07:32Z</time></trkpt><trkpt lat="42.36388759033587" lon="2.8943408062837657"><ele>70.5</ele><time>2026-04-22T13:07:33Z</time></trkpt><trkpt lat="42.36406449058524" lon="2.8940899888210865"><ele>73.0</ele><time>2026-04-22T13:07:34Z</time></trkpt><trkpt lat="42.36424644707973" lon="2.893848920081072"><ele>73.0</ele><time>2026-04-22T13:07:35Z</time></trkpt><trkpt lat="42.3644288809795" lon="2.8936173187124443"><ele>73.0</ele><time>2026-04-22T13:07:36Z</time></trkpt><trkpt lat="42.364617412005174" lon="2.893393368559408"><ele>73.5</ele><time>2026-04-22T13:07:37Z</time></trkpt><trkpt lat="42.3648063486093" lon="2.8931776495816273"><ele>74.0</ele><time>2026-04-22T13:07:38Z</time></trkpt><trkpt lat="42.36499917840004" lon="2.892972501408733"><ele>74.0</ele><time>2026-04-22T13:07:39Z</time></trkpt><trkpt lat="42.365194836567646" lon="2.892774211899298"><ele>74.0</ele><time>2026-04-22T13:07:40Z</time></trkpt><trkpt lat="42.365390371889596" lon="2.8925839419354156"><ele>74.5</ele><time>2026-04-22T13:07:41Z</time></trkpt><trkpt lat="42.365588894357764" lon="2.8923992517591275"><ele>75.0</ele><time>2026-04-22T13:07:42Z</time></trkpt><trkpt lat="42.365787147236354" lon="2.892218139880945"><ele>75.0</ele><time>2026-04-22T13:07:43Z</time></trkpt><trkpt lat="42.365990609522655" lon="2.8920459140321464"><ele>75.0</ele><time>2026-04-22T13:07:44Z</time></trkpt><trkpt lat="42.3661989648095" lon="2.8918843189068926"><ele>76.0</ele><time>2026-04-22T13:07:45Z</time></trkpt><trkpt lat="42.36641492121356" lon="2.891728521946852"><ele>77.0</ele><time>2026-04-22T13:07:46Z</time></trkpt><trkpt lat="42.366630813953485" lon="2.8915824354818396"><ele>77.0</ele><time>2026-04-22T13:07:47Z</time></trkpt><trkpt lat="42.36685295351888" lon="2.891445995946032"><ele>77.0</ele><time>2026-04-22T13:07:48Z</time></trkpt><trkpt lat="42.367079694867584" lon="2.891314134437532"><ele>78.0</ele><time>2026-04-22T13:07:49Z</time></trkpt><trkpt lat="42.36730513890342" lon="2.8911892309561353"><ele>79.0</ele><time>2026-04-22T13:07:50Z</time></trkpt><trkpt lat="42.36753353755148" lon="2.8910716092860955"><ele>79.0</ele><time>2026-04-22T13:07:51Z</time></trkpt><trkpt lat="42.36776588375279" lon="2.890962779346981"><ele>79.0</ele><time>2026-04-22T13:07:52Z</time></trkpt><trkpt lat="42.368001377967104" lon="2.890862295884109"><ele>80.5</ele><time>2026-04-22T13:07:53Z</time></trkpt><trkpt lat="42.36824147697471" lon="2.890763994599608"><ele>82.0</ele><time>2026-04-22T13:07:54Z</time></trkpt><trkpt lat="42.36848440497637" lon="2.8906760690666577"><ele>82.0</ele><time>2026-04-22T13:07:55Z</time></trkpt><trkpt lat="42.368731472589765" lon="2.890597737466842"><ele>82.0</ele><time>2026-04-22T13:07:56Z</time></trkpt><trkpt lat="42.368975325541896" lon="2.890529994934326"><ele>82.5</ele><time>2026-04-22T13:07:57Z</time></trkpt><trkpt lat="42.369219460219654" lon="2.8904712753884136"><ele>83.0</ele><time>2026-04-22T13:07:58Z</time></trkpt><trkpt lat="42.36946444980297" lon="2.8904181523001067"><ele>87.0</ele><time>2026-04-22T13:07:59Z</time></trkpt><trkpt lat="42.369710633438125" lon="2.890366299357541"><ele>91.0</ele><time>2026-04-22T13:08:00Z</time></trkpt><trkpt lat="42.369956163911915" lon="2.890311261559004"><ele>91.0</ele><time>2026-04-22T13:08:01Z</time></trkpt><trkpt lat="42.37020311176746" lon="2.8902603657814656"><ele>91.0</ele><time>2026-04-22T13:08:02Z</time></trkpt><trkpt lat="42.37044496189051" lon="2.8902003572467008"><ele>90.0</ele><time>2026-04-22T13:08:03Z</time></trkpt><trkpt lat="42.370685183152375" lon="2.890135783904003"><ele>89.0</ele><time>2026-04-22T13:08:04Z</time></trkpt><trkpt lat="42.37092879975107" lon="2.8900662662082506"><ele>89.0</ele><time>2026-04-22T13:08:05Z</time></trkpt><trkpt lat="42.37116975133781" lon="2.8899920402183286"><ele>89.0</ele><time>2026-04-22T13:08:06Z</time></trkpt><trkpt lat="42.37141391705993" lon="2.889915237633296"><ele>90.0</ele><time>2026-04-22T13:08:07Z</time></trkpt><trkpt lat="42.37165600714312" lon="2.8898299307104205"><ele>91.0</ele><time>2026-04-22T13:08:08Z</time></trkpt><trkpt lat="42.37189906678768" lon="2.8897315887346613"><ele>91.0</ele><time>2026-04-22T13:08:09Z</time></trkpt><trkpt lat="42.37213901628042" lon="2.8896250341084513"><ele>91.0</ele><time>2026-04-22T13:08:10Z</time></trkpt><trkpt lat="42.3723737641842" lon="2.8895056819756695"><ele>91.5</ele><time>2026-04-22T13:08:11Z</time></trkpt><trkpt lat="42.37260883463769" lon="2.88937948313714"><ele>92.0</ele><time>2026-04-22T13:08:12Z</time></trkpt><trkpt lat="42.372841564184284" lon="2.8892461894911876"><ele>93.0</ele><time>2026-04-22T13:08:13Z</time></trkpt><trkpt lat="42.37306862863017" lon="2.889104739696658"><ele>94.0</ele><time>2026-04-22T13:08:14Z</time></trkpt><trkpt lat="42.37329233444327" lon="2.8889584509137407"><ele>94.0</ele><time>2026-04-22T13:08:15Z</time></trkpt><trkpt lat="42.373520344120706" lon="2.888805801212007"><ele>94.0</ele><time>2026-04-22T13:08:16Z</time></trkpt><trkpt lat="42.3737446542955" lon="2.8886420672293878"><ele>93.0</ele><time>2026-04-22T13:08:17Z</time></trkpt><trkpt lat="42.37397032128211" lon="2.8884752191564615"><ele>92.0</ele><time>2026-04-22T13:08:18Z</time></trkpt><trkpt lat="42.37419731345464" lon="2.888306900970006"><ele>90.0</ele><time>2026-04-22T13:08:19Z</time></trkpt><trkpt lat="42.37442603126428" lon="2.8881323610109795"><ele>88.0</ele><time>2026-04-22T13:08:20Z</time></trkpt><trkpt lat="42.374653733174654" lon="2.8879577197409994"><ele>88.0</ele><time>2026-04-22T13:08:21Z</time></trkpt><trkpt lat="42.374886314170766" lon="2.8877883704176264"><ele>88.0</ele><time>2026-04-22T13:08:22Z</time></trkpt><trkpt lat="42.37535999962339" lon="2.8874669081179296"><ele>85.0</ele><time>2026-04-22T13:08:24Z</time></trkpt><trkpt lat="42.375604555986044" lon="2.887319622216666"><ele>82.0</ele><time>2026-04-22T13:08:25Z</time></trkpt><trkpt lat="42.37585258555445" lon="2.887178283363557"><ele>82.0</ele><time>2026-04-22T13:08:26Z</time></trkpt><trkpt lat="42.376106084218556" lon="2.8870488928823757"><ele>82.0</ele><time>2026-04-22T13:08:27Z</time></trkpt><trkpt lat="42.37636249864646" lon="2.886929336572869"><ele>82.0</ele><time>2026-04-22T13:08:28Z</time></trkpt><trkpt lat="42.37662305739907" lon="2.886823195305438"><ele>82.0</ele><time>2026-04-22T13:08:29Z</time></trkpt><trkpt lat="42.37688419654177" lon="2.8867235970412075"><ele>81.5</ele><time>2026-04-22T13:08:30Z</time></trkpt><trkpt lat="42.37715050337392" lon="2.886631157472064"><ele>81.0</ele><time>2026-04-22T13:08:31Z</time></trkpt><trkpt lat="42.37741309288099" lon="2.886550505207019"><ele>81.0</ele><time>2026-04-22T13:08:32Z</time></trkpt><trkpt lat="42.3776834085406" lon="2.8864794434862118"><ele>81.0</ele><time>2026-04-22T13:08:33Z</time></trkpt><trkpt lat="42.37795191696" lon="2.8864169576476657"><ele>80.5</ele><time>2026-04-22T13:08:34Z</time></trkpt><trkpt lat="42.37822794291678" lon="2.88636711856933"><ele>80.0</ele><time>2026-04-22T13:08:35Z</time></trkpt><trkpt lat="42.37849823349656" lon="2.886327203018994"><ele>80.0</ele><time>2026-04-22T13:08:36Z</time></trkpt><trkpt lat="42.378768003343005" lon="2.886296462251017"><ele>80.0</ele><time>2026-04-22T13:08:37Z</time></trkpt><trkpt lat="42.379033761839764" lon="2.886273676374297"><ele>81.0</ele><time>2026-04-22T13:08:38Z</time></trkpt><trkpt lat="42.379301597860064" lon="2.886249930520599"><ele>82.0</ele><time>2026-04-22T13:08:39Z</time></trkpt><trkpt lat="42.37956697094364" lon="2.8862253882019275"><ele>81.5</ele><time>2026-04-22T13:08:40Z</time></trkpt><trkpt lat="42.379834861137134" lon="2.8861975414012"><ele>81.0</ele><time>2026-04-22T13:08:41Z</time></trkpt><trkpt lat="42.38009981739644" lon="2.8861724203334895"><ele>79.0</ele><time>2026-04-22T13:08:42Z</time></trkpt><trkpt lat="42.38062901028687" lon="2.886105127777911"><ele>79.0</ele><time>2026-04-22T13:08:44Z</time></trkpt><trkpt lat="42.380894009669795" lon="2.886065249184958"><ele>79.0</ele><time>2026-04-22T13:08:45Z</time></trkpt><trkpt lat="42.381159318784185" lon="2.886014243556696"><ele>81.0</ele><time>2026-04-22T13:08:46Z</time></trkpt><trkpt lat="42.381425254043414" lon="2.885953291625078"><ele>83.0</ele><time>2026-04-22T13:08:47Z</time></trkpt><trkpt lat="42.38168662081058" lon="2.885886910720825"><ele>84.0</ele><time>2026-04-22T13:08:48Z</time></trkpt><trkpt lat="42.381947340503935" lon="2.885812187149217"><ele>85.0</ele><time>2026-04-22T13:08:49Z</time></trkpt><trkpt lat="42.38220690658554" lon="2.885731466806043"><ele>85.0</ele><time>2026-04-22T13:08:50Z</time></trkpt><trkpt lat="42.38246765691803" lon="2.885640573781791"><ele>85.0</ele><time>2026-04-22T13:08:51Z</time></trkpt><trkpt lat="42.38272620285757" lon="2.8855406839789883"><ele>85.0</ele><time>2026-04-22T13:08:52Z</time></trkpt><trkpt lat="42.38298562021856" lon="2.8854299482199575"><ele>85.0</ele><time>2026-04-22T13:08:53Z</time></trkpt><trkpt lat="42.3832470939459" lon="2.885312670128739"><ele>84.5</ele><time>2026-04-22T13:08:54Z</time></trkpt><trkpt lat="42.38350559357173" lon="2.885180545328631"><ele>84.0</ele><time>2026-04-22T13:08:55Z</time></trkpt><trkpt lat="42.38376156883154" lon="2.885034979694401"><ele>81.5</ele><time>2026-04-22T13:08:56Z</time></trkpt><trkpt lat="42.384011985036466" lon="2.884881561549216"><ele>79.0</ele><time>2026-04-22T13:08:57Z</time></trkpt><trkpt lat="42.38426743079023" lon="2.8847217669277923"><ele>79.0</ele><time>2026-04-22T13:08:58Z</time></trkpt><trkpt lat="42.38452350564819" lon="2.8845566260476594"><ele>79.0</ele><time>2026-04-22T13:08:59Z</time></trkpt><trkpt lat="42.38477997101102" lon="2.8843857870808947"><ele>78.5</ele><time>2026-04-22T13:09:00Z</time></trkpt><trkpt lat="42.38502987175309" lon="2.884212594011632"><ele>78.0</ele><time>2026-04-22T13:09:01Z</time></trkpt><trkpt lat="42.38528461000415" lon="2.8840378648996987"><ele>77.5</ele><time>2026-04-22T13:09:02Z</time></trkpt><trkpt lat="42.38554019420902" lon="2.8838676422899696"><ele>77.0</ele><time>2026-04-22T13:09:03Z</time></trkpt><trkpt lat="42.38580041188861" lon="2.8836978490882417"><ele>77.0</ele><time>2026-04-22T13:09:04Z</time></trkpt><trkpt lat="42.38605749127378" lon="2.883532867336085"><ele>77.0</ele><time>2026-04-22T13:09:05Z</time></trkpt><trkpt lat="42.3863274103847" lon="2.8833774614667584"><ele>77.5</ele><time>2026-04-22T13:09:06Z</time></trkpt><trkpt lat="42.38659415753742" lon="2.883225369223624"><ele>78.0</ele><time>2026-04-22T13:09:07Z</time></trkpt><trkpt lat="42.38686493524364" lon="2.8830860927452626"><ele>78.0</ele><time>2026-04-22T13:09:08Z</time></trkpt><trkpt lat="42.387142197942644" lon="2.88295888257449"><ele>78.0</ele><time>2026-04-22T13:09:09Z</time></trkpt><trkpt lat="42.38741897949365" lon="2.8828423325475896"><ele>78.0</ele><time>2026-04-22T13:09:10Z</time></trkpt><trkpt lat="42.38769889786691" lon="2.882732703364474"><ele>78.0</ele><time>2026-04-22T13:09:11Z</time></trkpt><trkpt lat="42.38797999670524" lon="2.8826312473154845"><ele>80.5</ele><time>2026-04-22T13:09:12Z</time></trkpt><trkpt lat="42.38825587115128" lon="2.8825374888985795"><ele>83.0</ele><time>2026-04-22T13:09:13Z</time></trkpt><trkpt lat="42.388531874963846" lon="2.8824554848113304"><ele>83.0</ele><time>2026-04-22T13:09:14Z</time></trkpt><trkpt lat="42.38880856056126" lon="2.8823788605242258"><ele>83.0</ele><time>2026-04-22T13:09:15Z</time></trkpt><trkpt lat="42.38908330185829" lon="2.8823041471773903"><ele>81.5</ele><time>2026-04-22T13:09:16Z</time></trkpt><trkpt lat="42.389355807781634" lon="2.882225283285498"><ele>80.0</ele><time>2026-04-22T13:09:17Z</time></trkpt><trkpt lat="42.38962091884438" lon="2.8821404943318916"><ele>80.5</ele><time>2026-04-22T13:09:18Z</time></trkpt><trkpt lat="42.3898865936103" lon="2.8820471784531443"><ele>81.0</ele><time>2026-04-22T13:09:19Z</time></trkpt><trkpt lat="42.390148074151945" lon="2.881943330208817"><ele>81.0</ele><time>2026-04-22T13:09:20Z</time></trkpt><trkpt lat="42.39040471270848" lon="2.8818305110964264"><ele>81.0</ele><time>2026-04-22T13:09:21Z</time></trkpt><trkpt lat="42.39065803973133" lon="2.8817111350254963"><ele>82.0</ele><time>2026-04-22T13:09:22Z</time></trkpt><trkpt lat="42.390908322810645" lon="2.8815848953214953"><ele>83.0</ele><time>2026-04-22T13:09:23Z</time></trkpt><trkpt lat="42.3911533766128" lon="2.881447804734665"><ele>82.5</ele><time>2026-04-22T13:09:24Z</time></trkpt><trkpt lat="42.391387628882676" lon="2.8813052640362455"><ele>82.0</ele><time>2026-04-22T13:09:25Z</time></trkpt><trkpt lat="42.39161846666677" lon="2.881160710793451"><ele>82.0</ele><time>2026-04-22T13:09:26Z</time></trkpt><trkpt lat="42.39183950891429" lon="2.881009786639995"><ele>82.0</ele><time>2026-04-22T13:09:27Z</time></trkpt><trkpt lat="42.39205691098855" lon="2.8808576114003523"><ele>83.0</ele><time>2026-04-22T13:09:28Z</time></trkpt><trkpt lat="42.39227648417248" lon="2.880697336112501"><ele>84.0</ele><time>2026-04-22T13:09:29Z</time></trkpt><trkpt lat="42.3924879437175" lon="2.8805379732866045"><ele>84.0</ele><time>2026-04-22T13:09:30Z</time></trkpt><trkpt lat="42.392695567734634" lon="2.8803751964233255"><ele>84.0</ele><time>2026-04-22T13:09:31Z</time></trkpt><trkpt lat="42.392905737869874" lon="2.880211717366872"><ele>84.5</ele><time>2026-04-22T13:09:32Z</time></trkpt><trkpt lat="42.39311431071549" lon="2.880047955552915"><ele>85.0</ele><time>2026-04-22T13:09:33Z</time></trkpt><trkpt lat="42.393322609597426" lon="2.879885766315969"><ele>85.0</ele><time>2026-04-22T13:09:34Z</time></trkpt><trkpt lat="42.39353289326235" lon="2.879724261193183"><ele>85.0</ele><time>2026-04-22T13:09:35Z</time></trkpt><trkpt lat="42.39373616071718" lon="2.879563387497745"><ele>86.5</ele><time>2026-04-22T13:09:36Z</time></trkpt><trkpt lat="42.39394460377335" lon="2.8794117898443785"><ele>88.0</ele><time>2026-04-22T13:09:37Z</time></trkpt><trkpt lat="42.39415592380107" lon="2.879271346603989"><ele>87.5</ele><time>2026-04-22T13:09:38Z</time></trkpt><trkpt lat="42.394367530944" lon="2.8791375228111784"><ele>87.0</ele><time>2026-04-22T13:09:39Z</time></trkpt><trkpt lat="42.39458042428967" lon="2.879003587954635"><ele>87.5</ele><time>2026-04-22T13:09:40Z</time></trkpt><trkpt lat="42.39479729216044" lon="2.878873117245801"><ele>88.0</ele><time>2026-04-22T13:09:41Z</time></trkpt><trkpt lat="42.395014443151574" lon="2.878747970461444"><ele>88.0</ele><time>2026-04-22T13:09:42Z</time></trkpt><trkpt lat="42.3952385724943" lon="2.878627483459551"><ele>88.0</ele><time>2026-04-22T13:09:43Z</time></trkpt><trkpt lat="42.39546111349347" lon="2.8785076003364267"><ele>90.5</ele><time>2026-04-22T13:09:44Z</time></trkpt><trkpt lat="42.39568670450169" lon="2.8783981253597903"><ele>93.0</ele><time>2026-04-22T13:09:45Z</time></trkpt><trkpt lat="42.39591909177585" lon="2.87829799617456"><ele>93.0</ele><time>2026-04-22T13:09:46Z</time></trkpt><trkpt lat="42.39615168391848" lon="2.8781988917391312"><ele>93.0</ele><time>2026-04-22T13:09:47Z</time></trkpt><trkpt lat="42.39638976746895" lon="2.878108875277667"><ele>95.0</ele><time>2026-04-22T13:09:48Z</time></trkpt><trkpt lat="42.39662390821565" lon="2.878023556914677"><ele>97.0</ele><time>2026-04-22T13:09:49Z</time></trkpt><trkpt lat="42.396856684687805" lon="2.877936659643685"><ele>97.0</ele><time>2026-04-22T13:09:50Z</time></trkpt><trkpt lat="42.39708436443551" lon="2.8778484187294646"><ele>97.0</ele><time>2026-04-22T13:09:51Z</time></trkpt><trkpt lat="42.39729967809668" lon="2.877761359007226"><ele>97.33333333333334</ele><time>2026-04-22T13:09:52Z</time></trkpt><trkpt lat="42.39751218762643" lon="2.8776813901430534"><ele>97.66666666666666</ele><time>2026-04-22T13:09:53Z</time></trkpt><trkpt lat="42.397721492514584" lon="2.877604822069121"><ele>98.0</ele><time>2026-04-22T13:09:54Z</time></trkpt><trkpt lat="42.397929657372785" lon="2.8775256864338714"><ele>97.33333333333333</ele><time>2026-04-22T13:09:55Z</time></trkpt><trkpt lat="42.39813814782818" lon="2.877448063428794"><ele>96.66666666666666</ele><time>2026-04-22T13:09:56Z</time></trkpt><trkpt lat="42.39834645798693" lon="2.8773736128843983"><ele>96.0</ele><time>2026-04-22T13:09:57Z</time></trkpt><trkpt lat="42.398549818658424" lon="2.8773001437395793"><ele>96.0</ele><time>2026-04-22T13:09:58Z</time></trkpt><trkpt lat="42.39874542286569" lon="2.8772282647881013"><ele>96.0</ele><time>2026-04-22T13:09:59Z</time></trkpt><trkpt lat="42.3989339769747" lon="2.8771553976916713"><ele>96.0</ele><time>2026-04-22T13:10:00Z</time></trkpt><trkpt lat="42.39911279471992" lon="2.877086759374593"><ele>94.0</ele><time>2026-04-22T13:10:01Z</time></trkpt><trkpt lat="42.399293889339475" lon="2.8770229595863115"><ele>92.0</ele><time>2026-04-22T13:10:02Z</time></trkpt><trkpt lat="42.39947358979456" lon="2.8769502051883293"><ele>90.0</ele><time>2026-04-22T13:10:03Z</time></trkpt><trkpt lat="42.399655516964785" lon="2.8768688107196194"><ele>89.66666666666667</ele><time>2026-04-22T13:10:04Z</time></trkpt><trkpt lat="42.39983268922769" lon="2.8767804367228895"><ele>89.33333333333334</ele><time>2026-04-22T13:10:05Z</time></trkpt><trkpt lat="42.40001647556236" lon="2.876686231292374"><ele>89.0</ele><time>2026-04-22T13:10:06Z</time></trkpt><trkpt lat="42.40019598496169" lon="2.87659157861783"><ele>90.0</ele><time>2026-04-22T13:10:07Z</time></trkpt><trkpt lat="42.40037313306536" lon="2.8764932927349545"><ele>91.0</ele><time>2026-04-22T13:10:08Z</time></trkpt><trkpt lat="42.400547699978155" lon="2.876401933074397"><ele>92.0</ele><time>2026-04-22T13:10:09Z</time></trkpt><trkpt lat="42.40071481367646" lon="2.8763028774414563"><ele>92.0</ele><time>2026-04-22T13:10:10Z</time></trkpt><trkpt lat="42.400881050247754" lon="2.8762155723905827"><ele>92.0</ele><time>2026-04-22T13:10:11Z</time></trkpt><trkpt lat="42.40104168240999" lon="2.876124597258635"><ele>92.0</ele><time>2026-04-22T13:10:12Z</time></trkpt><trkpt lat="42.401200445293306" lon="2.8760298137191955"><ele>91.33333333333334</ele><time>2026-04-22T13:10:13Z</time></trkpt><trkpt lat="42.40135699866492" lon="2.8759397040942285"><ele>90.66666666666667</ele><time>2026-04-22T13:10:14Z</time></trkpt><trkpt lat="42.40151578660216" lon="2.8758497029420007"><ele>90.0</ele><time>2026-04-22T13:10:15Z</time></trkpt><trkpt lat="42.40167554785199" lon="2.8757586318543766"><ele>91.33333333333333</ele><time>2026-04-22T13:10:16Z</time></trkpt><trkpt lat="42.40183608577635" lon="2.8756645596104997"><ele>92.66666666666666</ele><time>2026-04-22T13:10:17Z</time></trkpt><trkpt lat="42.40198787944181" lon="2.875573642493576"><ele>94.0</ele><time>2026-04-22T13:10:18Z</time></trkpt><trkpt lat="42.40213548445887" lon="2.8754849857950804"><ele>94.0</ele><time>2026-04-22T13:10:19Z</time></trkpt><trkpt lat="42.402282692543004" lon="2.8753943700223976"><ele>94.0</ele><time>2026-04-22T13:10:20Z</time></trkpt><trkpt lat="42.40242258766052" lon="2.875305918627519"><ele>94.0</ele><time>2026-04-22T13:10:21Z</time></trkpt><trkpt lat="42.40256121880969" lon="2.875221940368484"><ele>94.0</ele><time>2026-04-22T13:10:22Z</time></trkpt><trkpt lat="42.402694917683846" lon="2.875140622544138"><ele>94.0</ele><time>2026-04-22T13:10:23Z</time></trkpt><trkpt lat="42.40282377151149" lon="2.875060012252504"><ele>94.0</ele><time>2026-04-22T13:10:24Z</time></trkpt><trkpt lat="42.40295454161558" lon="2.874977924173606"><ele>94.0</ele><time>2026-04-22T13:10:25Z</time></trkpt><trkpt lat="42.40308160269076" lon="2.8749002014262315"><ele>94.25</ele><time>2026-04-22T13:10:26Z</time></trkpt><trkpt lat="42.40321093348344" lon="2.874826601934861"><ele>94.5</ele><time>2026-04-22T13:10:27Z</time></trkpt><trkpt lat="42.403339645245396" lon="2.874763997612657"><ele>94.75</ele><time>2026-04-22T13:10:28Z</time></trkpt><trkpt lat="42.40347050956275" lon="2.8747170084901774"><ele>95.0</ele><time>2026-04-22T13:10:29Z</time></trkpt><trkpt lat="42.40360239058172" lon="2.8746801930305286"><ele>95.0</ele><time>2026-04-22T13:10:30Z</time></trkpt><trkpt lat="42.40373811446237" lon="2.874660785396313"><ele>95.0</ele><time>2026-04-22T13:10:31Z</time></trkpt><trkpt lat="42.403872098693476" lon="2.874660736793919"><ele>95.0</ele><time>2026-04-22T13:10:32Z</time></trkpt><trkpt lat="42.40399698887757" lon="2.874681742914798"><ele>95.0</ele><time>2026-04-22T13:10:33Z</time></trkpt><trkpt lat="42.404119450185036" lon="2.874721936045156"><ele>94.75</ele><time>2026-04-22T13:10:34Z</time></trkpt><trkpt lat="42.40423756850954" lon="2.874771389649372"><ele>94.5</ele><time>2026-04-22T13:10:35Z</time></trkpt><trkpt lat="42.40435563483864" lon="2.8748343616748415"><ele>94.25</ele><time>2026-04-22T13:10:36Z</time></trkpt><trkpt lat="42.40447226047442" lon="2.874902693250036"><ele>94.0</ele><time>2026-04-22T13:10:37Z</time></trkpt><trkpt lat="42.40458688480303" lon="2.8749674297909653"><ele>94.33333333333333</ele><time>2026-04-22T13:10:38Z</time></trkpt><trkpt lat="42.40482673722936" lon="2.87509367333147"><ele>94.66666666666667</ele><time>2026-04-22T13:10:40Z</time></trkpt><trkpt lat="42.40494724123414" lon="2.875152357646833"><ele>95.0</ele><time>2026-04-22T13:10:41Z</time></trkpt><trkpt lat="42.40506991531043" lon="2.8752055550408677"><ele>95.0</ele><time>2026-04-22T13:10:42Z</time></trkpt><trkpt lat="42.40519725455963" lon="2.875248815636794"><ele>95.0</ele><time>2026-04-22T13:10:43Z</time></trkpt><trkpt lat="42.405327707224544" lon="2.8752801067180718"><ele>95.0</ele><time>2026-04-22T13:10:44Z</time></trkpt><trkpt lat="42.40546349321883" lon="2.87530711998462"><ele>95.0</ele><time>2026-04-22T13:10:45Z</time></trkpt><trkpt lat="42.40560605537657" lon="2.875323066564584"><ele>95.5</ele><time>2026-04-22T13:10:46Z</time></trkpt><trkpt lat="42.40574803500109" lon="2.875324344587568"><ele>96.0</ele><time>2026-04-22T13:10:47Z</time></trkpt><trkpt lat="42.40588695012213" lon="2.8753093048245444"><ele>96.5</ele><time>2026-04-22T13:10:48Z</time></trkpt><trkpt lat="42.406028610734104" lon="2.8752871050947886"><ele>97.0</ele><time>2026-04-22T13:10:49Z</time></trkpt><trkpt lat="42.40617551616759" lon="2.8752559162437596"><ele>97.0</ele><time>2026-04-22T13:10:50Z</time></trkpt><trkpt lat="42.406316241009485" lon="2.8752070542868755"><ele>97.0</ele><time>2026-04-22T13:10:51Z</time></trkpt><trkpt lat="42.40645012565017" lon="2.875147440883021"><ele>97.0</ele><time>2026-04-22T13:10:52Z</time></trkpt><trkpt lat="42.40658100165246" lon="2.8750779832779676"><ele>97.0</ele><time>2026-04-22T13:10:53Z</time></trkpt><trkpt lat="42.40670683307771" lon="2.8749995285232033"><ele>97.25</ele><time>2026-04-22T13:10:54Z</time></trkpt><trkpt lat="42.406825048728535" lon="2.874912640404866"><ele>97.5</ele><time>2026-04-22T13:10:55Z</time></trkpt><trkpt lat="42.40694554434287" lon="2.874814796349878"><ele>97.75</ele><time>2026-04-22T13:10:56Z</time></trkpt><trkpt lat="42.407049983977814" lon="2.8747051259712273"><ele>98.0</ele><time>2026-04-22T13:10:57Z</time></trkpt><trkpt lat="42.40715104498709" lon="2.8745905607123095"><ele>98.0</ele><time>2026-04-22T13:10:58Z</time></trkpt><trkpt lat="42.4072461645663" lon="2.8744677081644423"><ele>98.0</ele><time>2026-04-22T13:10:59Z</time></trkpt><trkpt lat="42.40733612656295" lon="2.874343867856544"><ele>98.0</ele><time>2026-04-22T13:11:00Z</time></trkpt><trkpt lat="42.407416807237745" lon="2.87421674264332"><ele>98.0</ele><time>2026-04-22T13:11:01Z</time></trkpt><trkpt lat="42.407492776021094" lon="2.8740900528424653"><ele>98.4</ele><time>2026-04-22T13:11:02Z</time></trkpt><trkpt lat="42.40756466816898" lon="2.873968363139905"><ele>98.80000000000001</ele><time>2026-04-22T13:11:03Z</time></trkpt><trkpt lat="42.40763378202814" lon="2.8738547981262315"><ele>99.2</ele><time>2026-04-22T13:11:04Z</time></trkpt><trkpt lat="42.40769894513187" lon="2.873751473225379"><ele>99.6</ele><time>2026-04-22T13:11:05Z</time></trkpt><trkpt lat="42.40776090171972" lon="2.873653885729612"><ele>100.0</ele><time>2026-04-22T13:11:06Z</time></trkpt><trkpt lat="42.407821152226866" lon="2.8735689415832413"><ele>100.00000000000001</ele><time>2026-04-22T13:11:07Z</time></trkpt><trkpt lat="42.40788447994522" lon="2.8734959499327557"><ele>100.0</ele><time>2026-04-22T13:11:08Z</time></trkpt><trkpt lat="42.407948174670096" lon="2.8734438241022855"><ele>100.0</ele><time>2026-04-22T13:11:09Z</time></trkpt><trkpt lat="42.40801792271009" lon="2.8734106399437906"><ele>100.0</ele><time>2026-04-22T13:11:10Z</time></trkpt><trkpt lat="42.408089209730406" lon="2.8733986815814734"><ele>100.00000000000001</ele><time>2026-04-22T13:11:11Z</time></trkpt><trkpt lat="42.40817109244345" lon="2.87340816010616"><ele>100.0</ele><time>2026-04-22T13:11:12Z</time></trkpt><trkpt lat="42.40825027532413" lon="2.8734474270260413"><ele>100.25</ele><time>2026-04-22T13:11:13Z</time></trkpt><trkpt lat="42.40831684146969" lon="2.8735139077078977"><ele>100.5</ele><time>2026-04-22T13:11:14Z</time></trkpt><trkpt lat="42.408374118510814" lon="2.873606083965701"><ele>100.75</ele><time>2026-04-22T13:11:15Z</time></trkpt><trkpt lat="42.40841078002363" lon="2.8737186056012134"><ele>101.0</ele><time>2026-04-22T13:11:16Z</time></trkpt><trkpt lat="42.40843533674152" lon="2.8739792815820713"><ele>101.0</ele><time>2026-04-22T13:11:18Z</time></trkpt><trkpt lat="42.40842452558559" lon="2.874129495752726"><ele>101.0</ele><time>2026-04-22T13:11:19Z</time></trkpt><trkpt lat="42.40840147818556" lon="2.8742888968523954"><ele>101.0</ele><time>2026-04-22T13:11:20Z</time></trkpt><trkpt lat="42.408371661731515" lon="2.8744595970777413"><ele>101.0</ele><time>2026-04-22T13:11:21Z</time></trkpt><trkpt lat="42.40833061327426" lon="2.874633649407232"><ele>100.66666666666666</ele><time>2026-04-22T13:11:22Z</time></trkpt><trkpt lat="42.40821410269472" lon="2.8749778573350837"><ele>100.33333333333334</ele><time>2026-04-22T13:11:24Z</time></trkpt><trkpt lat="42.408145826099734" lon="2.8751508000689285"><ele>100.0</ele><time>2026-04-22T13:11:25Z</time></trkpt><trkpt lat="42.40806775071842" lon="2.875319606228736"><ele>100.0</ele><time>2026-04-22T13:11:26Z</time></trkpt><trkpt lat="42.407991183209674" lon="2.8754820589051415"><ele>100.0</ele><time>2026-04-22T13:11:27Z</time></trkpt><trkpt lat="42.4079026080667" lon="2.8756409594476815"><ele>100.0</ele><time>2026-04-22T13:11:28Z</time></trkpt><trkpt lat="42.40781220010826" lon="2.87579918140447"><ele>100.0</ele><time>2026-04-22T13:11:29Z</time></trkpt><trkpt lat="42.40771650542735" lon="2.8759379564407617"><ele>100.25</ele><time>2026-04-22T13:11:30Z</time></trkpt><trkpt lat="42.40760755268513" lon="2.876066242719555"><ele>100.5</ele><time>2026-04-22T13:11:31Z</time></trkpt><trkpt lat="42.40749777216691" lon="2.876190262259447"><ele>100.75</ele><time>2026-04-22T13:11:32Z</time></trkpt><trkpt lat="42.407394416351416" lon="2.876311600112205"><ele>101.0</ele><time>2026-04-22T13:11:33Z</time></trkpt><trkpt lat="42.40729562930854" lon="2.8764384345612646"><ele>101.0</ele><time>2026-04-22T13:11:34Z</time></trkpt><trkpt lat="42.407210267823835" lon="2.8765719441272304"><ele>101.0</ele><time>2026-04-22T13:11:35.001Z</time></trkpt><trkpt lat="42.407135039329056" lon="2.876714708938975"><ele>101.0</ele><time>2026-04-22T13:11:36Z</time></trkpt><trkpt lat="42.407073924001544" lon="2.876862462956698"><ele>101.0</ele><time>2026-04-22T13:11:37Z</time></trkpt><trkpt lat="42.407030556955725" lon="2.8770083909574997"><ele>101.0</ele><time>2026-04-22T13:11:38Z</time></trkpt><trkpt lat="42.407013201141325" lon="2.877148344260029"><ele>101.0</ele><time>2026-04-22T13:11:39Z</time></trkpt><trkpt lat="42.407003509146186" lon="2.8772922003693573"><ele>101.0</ele><time>2026-04-22T13:11:40Z</time></trkpt><trkpt lat="42.4070018842858" lon="2.8774392734426404"><ele>101.0</ele><time>2026-04-22T13:11:41Z</time></trkpt><trkpt lat="42.40701057909528" lon="2.8775885445426006"><ele>101.0</ele><time>2026-04-22T13:11:42Z</time></trkpt><trkpt lat="42.407019971624" lon="2.8777308183858397"><ele>101.19999999999999</ele><time>2026-04-22T13:11:43Z</time></trkpt><trkpt lat="42.40704176708427" lon="2.8778688669121415"><ele>101.39999999999999</ele><time>2026-04-22T13:11:44Z</time></trkpt><trkpt lat="42.407080528840645" lon="2.8780092000882735"><ele>101.6</ele><time>2026-04-22T13:11:45Z</time></trkpt><trkpt lat="42.40712930655086" lon="2.878138472323431"><ele>101.8</ele><time>2026-04-22T13:11:46Z</time></trkpt><trkpt lat="42.407185318916284" lon="2.8782633342813497"><ele>102.0</ele><time>2026-04-22T13:11:47Z</time></trkpt><trkpt lat="42.40725224438638" lon="2.8783802127283313"><ele>103.5</ele><time>2026-04-22T13:11:48Z</time></trkpt><trkpt lat="42.40732954710986" lon="2.8784955593246004"><ele>105.0</ele><time>2026-04-22T13:11:49Z</time></trkpt><trkpt lat="42.40741156418822" lon="2.8785976809564175"><ele>106.5</ele><time>2026-04-22T13:11:50Z</time></trkpt><trkpt lat="42.407504965134144" lon="2.8786847080870537"><ele>108.0</ele><time>2026-04-22T13:11:51Z</time></trkpt><trkpt lat="42.407606232490075" lon="2.8787591972269375"><ele>108.0</ele><time>2026-04-22T13:11:52Z</time></trkpt><trkpt lat="42.40771514575384" lon="2.8788074553916347"><ele>108.00000000000001</ele><time>2026-04-22T13:11:53Z</time></trkpt><trkpt lat="42.40782710224483" lon="2.8788132394750274"><ele>108.00000000000001</ele><time>2026-04-22T13:11:54Z</time></trkpt><trkpt lat="42.40793528013652" lon="2.8787857933602687"><ele>108.0</ele><time>2026-04-22T13:11:55Z</time></trkpt><trkpt lat="42.40803442716804" lon="2.878721612945782"><ele>108.0</ele><time>2026-04-22T13:11:56Z</time></trkpt><trkpt lat="42.40811783982858" lon="2.878625991429197"><ele>108.4</ele><time>2026-04-22T13:11:57Z</time></trkpt><trkpt lat="42.408182028087644" lon="2.8785047492894362"><ele>108.80000000000001</ele><time>2026-04-22T13:11:58Z</time></trkpt><trkpt lat="42.40821920178147" lon="2.8783648599437672"><ele>109.2</ele><time>2026-04-22T13:11:59Z</time></trkpt><trkpt lat="42.40824432645285" lon="2.8782158666225164"><ele>109.6</ele><time>2026-04-22T13:12:00Z</time></trkpt><trkpt lat="42.408266540645" lon="2.878066540151725"><ele>110.0</ele><time>2026-04-22T13:12:01Z</time></trkpt><trkpt lat="42.40829830533555" lon="2.877919673317333"><ele>109.0</ele><time>2026-04-22T13:12:02Z</time></trkpt><trkpt lat="42.408346941891224" lon="2.877776543331132"><ele>108.0</ele><time>2026-04-22T13:12:03Z</time></trkpt><trkpt lat="42.40841467696927" lon="2.877649102834106"><ele>107.0</ele><time>2026-04-22T13:12:04Z</time></trkpt><trkpt lat="42.408506826921226" lon="2.877546715925844"><ele>106.0</ele><time>2026-04-22T13:12:05Z</time></trkpt><trkpt lat="42.40861029986049" lon="2.8774632595572487"><ele>105.5</ele><time>2026-04-22T13:12:06Z</time></trkpt><trkpt lat="42.408720318719055" lon="2.8774010452298513"><ele>105.0</ele><time>2026-04-22T13:12:07Z</time></trkpt><trkpt lat="42.40883871135801" lon="2.8773579019289373"><ele>104.5</ele><time>2026-04-22T13:12:08Z</time></trkpt><trkpt lat="42.40896002710082" lon="2.8773182121178182"><ele>104.0</ele><time>2026-04-22T13:12:09Z</time></trkpt><trkpt lat="42.409085087524595" lon="2.877278521028933"><ele>104.0</ele><time>2026-04-22T13:12:10Z</time></trkpt><trkpt lat="42.40921064498019" lon="2.8772372093052856"><ele>104.0</ele><time>2026-04-22T13:12:11Z</time></trkpt><trkpt lat="42.409339528903224" lon="2.877192715986565"><ele>104.0</ele><time>2026-04-22T13:12:12Z</time></trkpt><trkpt lat="42.409461305072995" lon="2.8771470069627463"><ele>104.0</ele><time>2026-04-22T13:12:13Z</time></trkpt><trkpt lat="42.40958762798705" lon="2.8771035260375255"><ele>104.5</ele><time>2026-04-22T13:12:14Z</time></trkpt><trkpt lat="42.40971196749188" lon="2.8770618632837506"><ele>105.0</ele><time>2026-04-22T13:12:15Z</time></trkpt><trkpt lat="42.40982783054567" lon="2.877017665541715"><ele>105.5</ele><time>2026-04-22T13:12:16Z</time></trkpt><trkpt lat="42.409948090649465" lon="2.87697324871366"><ele>106.0</ele><time>2026-04-22T13:12:17Z</time></trkpt><trkpt lat="42.4100688833667" lon="2.8769313420680866"><ele>106.0</ele><time>2026-04-22T13:12:18Z</time></trkpt><trkpt lat="42.41018114861723" lon="2.8768918015580067"><ele>106.0</ele><time>2026-04-22T13:12:19Z</time></trkpt><trkpt lat="42.410300287660576" lon="2.8768541916396986"><ele>106.0</ele><time>2026-04-22T13:12:20Z</time></trkpt><trkpt lat="42.41041621356118" lon="2.876818184081018"><ele>106.0</ele><time>2026-04-22T13:12:21Z</time></trkpt><trkpt lat="42.410530683463875" lon="2.8767820918277027"><ele>106.4</ele><time>2026-04-22T13:12:22Z</time></trkpt><trkpt lat="42.410639900676216" lon="2.8767431033785282"><ele>106.8</ele><time>2026-04-22T13:12:23Z</time></trkpt><trkpt lat="42.41074636372387" lon="2.876707022368966"><ele>107.20000000000002</ele><time>2026-04-22T13:12:24Z</time></trkpt><trkpt lat="42.410848336862074" lon="2.876671149197454"><ele>107.60000000000001</ele><time>2026-04-22T13:12:25Z</time></trkpt><trkpt lat="42.41094280750913" lon="2.876640102440266"><ele>108.0</ele><time>2026-04-22T13:12:26Z</time></trkpt><trkpt lat="42.411024828251634" lon="2.8766225958461873"><ele>108.0</ele><time>2026-04-22T13:12:27Z</time></trkpt><trkpt lat="42.411100671603165" lon="2.876635169174828"><ele>108.0</ele><time>2026-04-22T13:12:29Z</time></trkpt><trkpt lat="42.41116195740933" lon="2.876658253878518"><ele>108.0</ele><time>2026-04-22T13:12:31Z</time></trkpt><trkpt lat="42.411269454302406" lon="2.876699242053235"><ele>108.0</ele><time>2026-04-22T13:12:33Z</time></trkpt><trkpt lat="42.41134040270194" lon="2.876686256782857"><ele>108.0</ele><time>2026-04-22T13:12:34Z</time></trkpt><trkpt lat="42.411414020518876" lon="2.8766518895566864"><ele>108.0</ele><time>2026-04-22T13:12:35Z</time></trkpt><trkpt lat="42.41147315951072" lon="2.8765906050428494"><ele>108.4</ele><time>2026-04-22T13:12:36Z</time></trkpt><trkpt lat="42.41152194067972" lon="2.8765035838163215"><ele>108.80000000000001</ele><time>2026-04-22T13:12:37Z</time></trkpt><trkpt lat="42.411569895697895" lon="2.8764072303609307"><ele>109.2</ele><time>2026-04-22T13:12:38Z</time></trkpt><trkpt lat="42.41162422833865" lon="2.876305285867286"><ele>109.6</ele><time>2026-04-22T13:12:39Z</time></trkpt><trkpt lat="42.41169534059554" lon="2.8762113207191455"><ele>110.0</ele><time>2026-04-22T13:12:40Z</time></trkpt><trkpt lat="42.41177605870132" lon="2.8761196453403035"><ele>110.0</ele><time>2026-04-22T13:12:41Z</time></trkpt><trkpt lat="42.41186448099393" lon="2.876033625124906"><ele>110.0</ele><time>2026-04-22T13:12:42Z</time></trkpt><trkpt lat="42.41195301091447" lon="2.875941843270786"><ele>110.0</ele><time>2026-04-22T13:12:43Z</time></trkpt><trkpt lat="42.4120352437633" lon="2.8758510204103533"><ele>110.0</ele><time>2026-04-22T13:12:44Z</time></trkpt><trkpt lat="42.41211527499216" lon="2.875755089381487"><ele>110.0</ele><time>2026-04-22T13:12:45Z</time></trkpt><trkpt lat="42.41218842936597" lon="2.8756583296872598"><ele>109.66666666666666</ele><time>2026-04-22T13:12:46Z</time></trkpt><trkpt lat="42.41225842236852" lon="2.8755674537977134"><ele>109.33333333333333</ele><time>2026-04-22T13:12:47Z</time></trkpt><trkpt lat="42.41232214136952" lon="2.875480369637837"><ele>109.0</ele><time>2026-04-22T13:12:48Z</time></trkpt><trkpt lat="42.41238401822473" lon="2.875394027527639"><ele>108.66666666666666</ele><time>2026-04-22T13:12:49Z</time></trkpt><trkpt lat="42.412443622436804" lon="2.8753158603285542"><ele>108.33333333333333</ele><time>2026-04-22T13:12:50Z</time></trkpt><trkpt lat="42.41250287303402" lon="2.875235782444994"><ele>108.0</ele><time>2026-04-22T13:12:51Z</time></trkpt><trkpt lat="42.41256154996228" lon="2.875153888766703"><ele>107.5</ele><time>2026-04-22T13:12:52Z</time></trkpt><trkpt lat="42.41262008207927" lon="2.8750791367307427"><ele>107.0</ele><time>2026-04-22T13:12:53Z</time></trkpt><trkpt lat="42.41268312451686" lon="2.875001896053273"><ele>106.5</ele><time>2026-04-22T13:12:54Z</time></trkpt><trkpt lat="42.412745033529305" lon="2.8749241355765456"><ele>106.0</ele><time>2026-04-22T13:12:55Z</time></trkpt><trkpt lat="42.4128097170244" lon="2.8748428322884743"><ele>105.5</ele><time>2026-04-22T13:12:56Z</time></trkpt><trkpt lat="42.41287089562744" lon="2.8747623149712447"><ele>105.0</ele><time>2026-04-22T13:12:57Z</time></trkpt><trkpt lat="42.41293499970841" lon="2.874678713497102"><ele>105.6</ele><time>2026-04-22T13:12:58Z</time></trkpt><trkpt lat="42.41305775773627" lon="2.8745186102812585"><ele>106.2</ele><time>2026-04-22T13:13:00Z</time></trkpt><trkpt lat="42.413111244654345" lon="2.874449017384235"><ele>106.80000000000001</ele><time>2026-04-22T13:13:01Z</time></trkpt><trkpt lat="42.413166442364385" lon="2.8743821540686456"><ele>107.4</ele><time>2026-04-22T13:13:02Z</time></trkpt><trkpt lat="42.41321984481146" lon="2.874326793781982"><ele>108.0</ele><time>2026-04-22T13:13:03Z</time></trkpt><trkpt lat="42.4132801349237" lon="2.8742858757112457"><ele>107.57142857142857</ele><time>2026-04-22T13:13:04Z</time></trkpt><trkpt lat="42.413342565403106" lon="2.8742706447867667"><ele>107.14285714285714</ele><time>2026-04-22T13:13:05Z</time></trkpt><trkpt lat="42.41341166265929" lon="2.874271302271279"><ele>106.71428571428572</ele><time>2026-04-22T13:13:06Z</time></trkpt><trkpt lat="42.41348359381499" lon="2.874263049453469"><ele>106.28571428571428</ele><time>2026-04-22T13:13:07Z</time></trkpt><trkpt lat="42.41355112718404" lon="2.874229878780417"><ele>105.85714285714286</ele><time>2026-04-22T13:13:08Z</time></trkpt><trkpt lat="42.413605640045795" lon="2.874168055864179"><ele>105.42857142857143</ele><time>2026-04-22T13:13:09Z</time></trkpt><trkpt lat="42.41363595215432" lon="2.8740870282455973"><ele>105.0</ele><time>2026-04-22T13:13:10Z</time></trkpt><trkpt lat="42.41365282137152" lon="2.8739893877974"><ele>105.0</ele><time>2026-04-22T13:13:11Z</time></trkpt><trkpt lat="42.41365696739569" lon="2.8738890409984417"><ele>105.0</ele><time>2026-04-22T13:13:12Z</time></trkpt><trkpt lat="42.41367200756898" lon="2.8737827636120805"><ele>105.0</ele><time>2026-04-22T13:13:13Z</time></trkpt><trkpt lat="42.41370492787187" lon="2.873679407657058"><ele>105.0</ele><time>2026-04-22T13:13:14Z</time></trkpt><trkpt lat="42.413756746888524" lon="2.873588755999071"><ele>105.0</ele><time>2026-04-22T13:13:15Z</time></trkpt><trkpt lat="42.41382209228947" lon="2.8735065290811272"><ele>105.0</ele><time>2026-04-22T13:13:16Z</time></trkpt><trkpt lat="42.4138897982534" lon="2.873421259870878"><ele>104.6</ele><time>2026-04-22T13:13:17Z</time></trkpt><trkpt lat="42.41395756295333" lon="2.873331247731833"><ele>104.2</ele><time>2026-04-22T13:13:18Z</time></trkpt><trkpt lat="42.414030173442114" lon="2.873241711747544"><ele>103.80000000000001</ele><time>2026-04-22T13:13:19Z</time></trkpt><trkpt lat="42.4141016112566" lon="2.873150507336116"><ele>103.4</ele><time>2026-04-22T13:13:20Z</time></trkpt><trkpt lat="42.4141779503121" lon="2.873058075693245"><ele>103.0</ele><time>2026-04-22T13:13:21Z</time></trkpt><trkpt lat="42.41424727748121" lon="2.8729655181478733"><ele>103.00000000000001</ele><time>2026-04-22T13:13:22Z</time></trkpt><trkpt lat="42.414313829686954" lon="2.8728759202703618"><ele>103.0</ele><time>2026-04-22T13:13:23Z</time></trkpt><trkpt lat="42.41437517375929" lon="2.8727952821616793"><ele>103.0</ele><time>2026-04-22T13:13:24Z</time></trkpt><trkpt lat="42.41443428037853" lon="2.8727191768644356"><ele>103.0</ele><time>2026-04-22T13:13:25Z</time></trkpt><trkpt lat="42.41448783162043" lon="2.87264869479063"><ele>103.00000000000001</ele><time>2026-04-22T13:13:26Z</time></trkpt><trkpt lat="42.4145479870867" lon="2.8725721902099877"><ele>103.0</ele><time>2026-04-22T13:13:27Z</time></trkpt><trkpt lat="42.41460482485642" lon="2.872503231241686"><ele>103.50000000000001</ele><time>2026-04-22T13:13:28Z</time></trkpt><trkpt lat="42.41466647087381" lon="2.8724373594334915"><ele>104.0</ele><time>2026-04-22T13:13:29Z</time></trkpt><trkpt lat="42.414733377759035" lon="2.8723794759747"><ele>104.5</ele><time>2026-04-22T13:13:30Z</time></trkpt><trkpt lat="42.414814794916445" lon="2.872323022078306"><ele>105.0</ele><time>2026-04-22T13:13:31Z</time></trkpt><trkpt lat="42.41489699710278" lon="2.8722757719638023"><ele>105.50000000000001</ele><time>2026-04-22T13:13:32Z</time></trkpt><trkpt lat="42.41498384126273" lon="2.872233378985798"><ele>106.0</ele><time>2026-04-22T13:13:33Z</time></trkpt><trkpt lat="42.415073647703096" lon="2.8721938981192"><ele>106.0</ele><time>2026-04-22T13:13:34Z</time></trkpt><trkpt lat="42.41516673478629" lon="2.872157479911409"><ele>106.0</ele><time>2026-04-22T13:13:35Z</time></trkpt><trkpt lat="42.415257823326066" lon="2.8721217171324533"><ele>106.0</ele><time>2026-04-22T13:13:36Z</time></trkpt><trkpt lat="42.415352187665995" lon="2.872090228105221"><ele>106.0</ele><time>2026-04-22T13:13:37Z</time></trkpt><trkpt lat="42.41545235452849" lon="2.872062546733437"><ele>106.0</ele><time>2026-04-22T13:13:38Z</time></trkpt><trkpt lat="42.41555946202278" lon="2.8720393228798433"><ele>106.19999999999999</ele><time>2026-04-22T13:13:39Z</time></trkpt><trkpt lat="42.41566447002098" lon="2.872016510085413"><ele>106.39999999999999</ele><time>2026-04-22T13:13:40Z</time></trkpt><trkpt lat="42.4157622914087" lon="2.871996523188949"><ele>106.6</ele><time>2026-04-22T13:13:41Z</time></trkpt><trkpt lat="42.41585500023133" lon="2.8719817643645587"><ele>106.8</ele><time>2026-04-22T13:13:42Z</time></trkpt><trkpt lat="42.41594985178887" lon="2.8719668318718146"><ele>107.0</ele><time>2026-04-22T13:13:43Z</time></trkpt><trkpt lat="42.416041161101916" lon="2.871944627408986"><ele>106.99999999999999</ele><time>2026-04-22T13:13:44Z</time></trkpt><trkpt lat="42.416127779904066" lon="2.871926981006325"><ele>107.0</ele><time>2026-04-22T13:13:45Z</time></trkpt><trkpt lat="42.41621448709969" lon="2.87191245454879"><ele>107.0</ele><time>2026-04-22T13:13:46Z</time></trkpt><trkpt lat="42.41630068736119" lon="2.8718944100834847"><ele>107.0</ele><time>2026-04-22T13:13:47Z</time></trkpt><trkpt lat="42.41637911366926" lon="2.871877857532919"><ele>106.99999999999999</ele><time>2026-04-22T13:13:48Z</time></trkpt><trkpt lat="42.416455259676844" lon="2.871864794955896"><ele>107.0</ele><time>2026-04-22T13:13:49Z</time></trkpt><trkpt lat="42.416532722757424" lon="2.8718468551235237"><ele>107.16666666666666</ele><time>2026-04-22T13:13:50Z</time></trkpt><trkpt lat="42.41661111167389" lon="2.871829828431328"><ele>107.33333333333333</ele><time>2026-04-22T13:13:51Z</time></trkpt><trkpt lat="42.41668729990355" lon="2.8718125667875847"><ele>107.5</ele><time>2026-04-22T13:13:52Z</time></trkpt><trkpt lat="42.41676497836621" lon="2.8717964463720853"><ele>107.66666666666666</ele><time>2026-04-22T13:13:53Z</time></trkpt><trkpt lat="42.41684141584772" lon="2.8717799812431815"><ele>107.83333333333333</ele><time>2026-04-22T13:13:54Z</time></trkpt><trkpt lat="42.4169233974603" lon="2.8717647492019283"><ele>108.0</ele><time>2026-04-22T13:13:55Z</time></trkpt><trkpt lat="42.41700384662838" lon="2.871747151703632"><ele>108.66666666666667</ele><time>2026-04-22T13:13:56Z</time></trkpt><trkpt lat="42.417083594538845" lon="2.8717285160479435"><ele>109.33333333333334</ele><time>2026-04-22T13:13:57Z</time></trkpt><trkpt lat="42.417161290238795" lon="2.8717097899949566"><ele>110.0</ele><time>2026-04-22T13:13:58Z</time></trkpt><trkpt lat="42.417241123918416" lon="2.8716872192254836"><ele>110.66666666666667</ele><time>2026-04-22T13:13:59Z</time></trkpt><trkpt lat="42.41731893422456" lon="2.8716649707211435"><ele>111.33333333333334</ele><time>2026-04-22T13:14:00Z</time></trkpt><trkpt lat="42.41739676058932" lon="2.871645778057493"><ele>112.0</ele><time>2026-04-22T13:14:01Z</time></trkpt><trkpt lat="42.417475810561896" lon="2.8716235726202357"><ele>112.00000000000001</ele><time>2026-04-22T13:14:02Z</time></trkpt><trkpt lat="42.41755865230841" lon="2.8716024550468338"><ele>112.0</ele><time>2026-04-22T13:14:03Z</time></trkpt><trkpt lat="42.41764076690672" lon="2.871582568486253"><ele>112.0</ele><time>2026-04-22T13:14:04Z</time></trkpt><trkpt lat="42.41772522541213" lon="2.871560303407276"><ele>112.0</ele><time>2026-04-22T13:14:05Z</time></trkpt><trkpt lat="42.41780673830771" lon="2.8715383212694565"><ele>112.00000000000001</ele><time>2026-04-22T13:14:06Z</time></trkpt><trkpt lat="42.41788860185763" lon="2.871516933115051"><ele>112.0</ele><time>2026-04-22T13:14:07Z</time></trkpt><trkpt lat="42.41797402875243" lon="2.871496269540301"><ele>112.0</ele><time>2026-04-22T13:14:08Z</time></trkpt><trkpt lat="42.41805818044021" lon="2.8714732666574925"><ele>111.99999999999999</ele><time>2026-04-22T13:14:09Z</time></trkpt><trkpt lat="42.41814597800381" lon="2.8714488054054126"><ele>111.99999999999999</ele><time>2026-04-22T13:14:10Z</time></trkpt><trkpt lat="42.41823239735697" lon="2.871426413959939"><ele>112.0</ele><time>2026-04-22T13:14:11Z</time></trkpt><trkpt lat="42.41832905448589" lon="2.871402320937067"><ele>112.0</ele><time>2026-04-22T13:14:12Z</time></trkpt><trkpt lat="42.418423650825716" lon="2.871375683491691"><ele>112.0</ele><time>2026-04-22T13:14:12.999Z</time></trkpt><trkpt lat="42.41851962083918" lon="2.871349677528105"><ele>111.99999999999999</ele><time>2026-04-22T13:14:13.999Z</time></trkpt><trkpt lat="42.418613623364195" lon="2.8713255594270892"><ele>111.99999999999999</ele><time>2026-04-22T13:14:14.998Z</time></trkpt><trkpt lat="42.41870648846292" lon="2.8713005232915707"><ele>112.0</ele><time>2026-04-22T13:14:15.998Z</time></trkpt><trkpt lat="42.41880236503119" lon="2.871277655977516"><ele>112.0</ele><time>2026-04-22T13:14:16.998Z</time></trkpt><trkpt lat="42.41889510489327" lon="2.871250864619335"><ele>112.16666666666667</ele><time>2026-04-22T13:14:17.997Z</time></trkpt><trkpt lat="42.41898847175858" lon="2.871225317680293"><ele>112.33333333333334</ele><time>2026-04-22T13:14:18.997Z</time></trkpt><trkpt lat="42.419082883082744" lon="2.8712005011301374"><ele>112.5</ele><time>2026-04-22T13:14:19.997Z</time></trkpt><trkpt lat="42.41917110708986" lon="2.8711782712050553"><ele>112.66666666666666</ele><time>2026-04-22T13:14:20.997Z</time></trkpt><trkpt lat="42.4192566387842" lon="2.871159985841696"><ele>112.83333333333333</ele><time>2026-04-22T13:14:21.997Z</time></trkpt><trkpt lat="42.41933494857876" lon="2.8711402092402976"><ele>113.0</ele><time>2026-04-22T13:14:22.996Z</time></trkpt><trkpt lat="42.41940554583187" lon="2.871121676304939"><ele>112.99999999999999</ele><time>2026-04-22T13:14:23.996Z</time></trkpt><trkpt lat="42.41947309949739" lon="2.8711073930049635"><ele>113.0</ele><time>2026-04-22T13:14:24.996Z</time></trkpt><trkpt lat="42.41958355780703" lon="2.8710819085059236"><ele>113.0</ele><time>2026-04-22T13:14:26.996Z</time></trkpt><trkpt lat="42.4196661834293" lon="2.871063206986164"><ele>113.0</ele><time>2026-04-22T13:14:28.995Z</time></trkpt><trkpt lat="42.41973487672575" lon="2.871045369599354"><ele>112.99999999999999</ele><time>2026-04-22T13:14:32.995Z</time></trkpt><trkpt lat="42.419846583332856" lon="2.8710189143023626"><ele>113.0</ele><time>2026-04-22T13:14:36.994Z</time></trkpt><trkpt lat="42.41995416679237" lon="2.870996522784256"><ele>113.33333333333333</ele><time>2026-04-22T13:14:38.994Z</time></trkpt><trkpt lat="42.42003265461029" lon="2.8709793423589156"><ele>113.66666666666666</ele><time>2026-04-22T13:14:39.994Z</time></trkpt><trkpt lat="42.420117786074805" lon="2.870961001319164"><ele>114.0</ele><time>2026-04-22T13:14:40.994Z</time></trkpt><trkpt lat="42.420194719118" lon="2.870944052101779"><ele>114.33333333333334</ele><time>2026-04-22T13:14:41.994Z</time></trkpt><trkpt lat="42.4202816420699" lon="2.870924797164637"><ele>114.66666666666667</ele><time>2026-04-22T13:14:42.994Z</time></trkpt><trkpt lat="42.42037179833989" lon="2.8709075280783956"><ele>115.0</ele><time>2026-04-22T13:14:43.994Z</time></trkpt><trkpt lat="42.42047150501209" lon="2.870886033917261"><ele>115.0</ele><time>2026-04-22T13:14:44.994Z</time></trkpt><trkpt lat="42.42056937987747" lon="2.8708666766931996"><ele>115.0</ele><time>2026-04-22T13:14:45.994Z</time></trkpt><trkpt lat="42.420665474639584" lon="2.870844531321316"><ele>115.0</ele><time>2026-04-22T13:14:46.994Z</time></trkpt><trkpt lat="42.420767834580204" lon="2.8708245358130333"><ele>115.0</ele><time>2026-04-22T13:14:47.994Z</time></trkpt><trkpt lat="42.42086868190065" lon="2.870803971371001"><ele>115.0</ele><time>2026-04-22T13:14:48.994Z</time></trkpt><trkpt lat="42.420975680937005" lon="2.870781153006603"><ele>115.0</ele><time>2026-04-22T13:14:49.994Z</time></trkpt><trkpt lat="42.42107833385401" lon="2.8707620317294653"><ele>115.0</ele><time>2026-04-22T13:14:50.994Z</time></trkpt><trkpt lat="42.42118588441307" lon="2.8707451488272553"><ele>115.0</ele><time>2026-04-22T13:14:51.994Z</time></trkpt><trkpt lat="42.4213930595358" lon="2.8707030664070743"><ele>115.0</ele><time>2026-04-22T13:14:53.994Z</time></trkpt><trkpt lat="42.42149411179351" lon="2.870684604796078"><ele>115.2</ele><time>2026-04-22T13:14:54.994Z</time></trkpt><trkpt lat="42.42159549888918" lon="2.8706645086046048"><ele>115.4</ele><time>2026-04-22T13:14:55.994Z</time></trkpt><trkpt lat="42.42169804271104" lon="2.870640029310978"><ele>115.6</ele><time>2026-04-22T13:14:56.994Z</time></trkpt><trkpt lat="42.42179662892628" lon="2.870616360971907"><ele>115.8</ele><time>2026-04-22T13:14:57.994Z</time></trkpt><trkpt lat="42.42189942783362" lon="2.870594632842231"><ele>116.0</ele><time>2026-04-22T13:14:58.993Z</time></trkpt><trkpt lat="42.42199912407" lon="2.8705644228832603"><ele>116.0</ele><time>2026-04-22T13:14:59.993Z</time></trkpt><trkpt lat="42.422097907416635" lon="2.870538141511844"><ele>116.0</ele><time>2026-04-22T13:15:00.993Z</time></trkpt><trkpt lat="42.42219734077186" lon="2.8705121422962705"><ele>116.0</ele><time>2026-04-22T13:15:01.993Z</time></trkpt><trkpt lat="42.42229145927185" lon="2.870479722362234"><ele>116.0</ele><time>2026-04-22T13:15:02.993Z</time></trkpt><trkpt lat="42.422385111809916" lon="2.8704453598512454"><ele>116.0</ele><time>2026-04-22T13:15:03.993Z</time></trkpt><trkpt lat="42.42247533168067" lon="2.870408105010892"><ele>116.19999999999999</ele><time>2026-04-22T13:15:04.993Z</time></trkpt><trkpt lat="42.42256426819114" lon="2.8703708128750187"><ele>116.39999999999999</ele><time>2026-04-22T13:15:05.993Z</time></trkpt><trkpt lat="42.42265554923374" lon="2.8703264857906325"><ele>116.6</ele><time>2026-04-22T13:15:06.993Z</time></trkpt><trkpt lat="42.42273769735392" lon="2.870283617756763"><ele>116.8</ele><time>2026-04-22T13:15:07.993Z</time></trkpt><trkpt lat="42.42281776380892" lon="2.8702376338204107"><ele>117.0</ele><time>2026-04-22T13:15:08.993Z</time></trkpt><trkpt lat="42.42290002810472" lon="2.870192021358707"><ele>117.0</ele><time>2026-04-22T13:15:09.993Z</time></trkpt><trkpt lat="42.42297638593305" lon="2.870144925493625"><ele>117.0</ele><time>2026-04-22T13:15:10.993Z</time></trkpt><trkpt lat="42.42305382325428" lon="2.8700962847119302"><ele>117.0</ele><time>2026-04-22T13:15:11.993Z</time></trkpt><trkpt lat="42.423124384400175" lon="2.8700504386760683"><ele>117.0</ele><time>2026-04-22T13:15:12.993Z</time></trkpt><trkpt lat="42.42319853977956" lon="2.8700014408307473"><ele>117.0</ele><time>2026-04-22T13:15:13.993Z</time></trkpt><trkpt lat="42.42327925656654" lon="2.8699517600273605"><ele>117.0</ele><time>2026-04-22T13:15:14.993Z</time></trkpt><trkpt lat="42.42335896065268" lon="2.8699042657472402"><ele>117.0</ele><time>2026-04-22T13:15:15.993Z</time></trkpt><trkpt lat="42.42343105556385" lon="2.869858735519335"><ele>117.0</ele><time>2026-04-22T13:15:16.993Z</time></trkpt><trkpt lat="42.423502902099024" lon="2.8698128108535834"><ele>117.0</ele><time>2026-04-22T13:15:17.993Z</time></trkpt><trkpt lat="42.42357245498991" lon="2.86976805798815"><ele>117.0</ele><time>2026-04-22T13:15:18.993Z</time></trkpt><trkpt lat="42.42364063716161" lon="2.869722801319798"><ele>117.0</ele><time>2026-04-22T13:15:19.993Z</time></trkpt><trkpt lat="42.4237152030998" lon="2.869679651365245"><ele>117.0</ele><time>2026-04-22T13:15:20.993Z</time></trkpt><trkpt lat="42.423785624231115" lon="2.869636135249759"><ele>117.16666666666667</ele><time>2026-04-22T13:15:21.993Z</time></trkpt><trkpt lat="42.423858852898775" lon="2.8695924535026727"><ele>117.33333333333334</ele><time>2026-04-22T13:15:22.993Z</time></trkpt><trkpt lat="42.423925304385556" lon="2.869550278912675"><ele>117.5</ele><time>2026-04-22T13:15:23.993Z</time></trkpt><trkpt lat="42.42399215052477" lon="2.86950379440673"><ele>117.66666666666667</ele><time>2026-04-22T13:15:24.993Z</time></trkpt><trkpt lat="42.42406282037612" lon="2.86945984457873"><ele>117.83333333333334</ele><time>2026-04-22T13:15:25.993Z</time></trkpt><trkpt lat="42.42413464370413" lon="2.8694153601306356"><ele>118.0</ele><time>2026-04-22T13:15:26.993Z</time></trkpt><trkpt lat="42.424205217537136" lon="2.869369609162637"><ele>118.00000000000001</ele><time>2026-04-22T13:15:27.993Z</time></trkpt><trkpt lat="42.42427846601069" lon="2.86932465075731"><ele>118.0</ele><time>2026-04-22T13:15:28.993Z</time></trkpt><trkpt lat="42.424350963566475" lon="2.869279283304754"><ele>118.0</ele><time>2026-04-22T13:15:29.993Z</time></trkpt><trkpt lat="42.424424186932896" lon="2.869234780598661"><ele>118.0</ele><time>2026-04-22T13:15:30.993Z</time></trkpt><trkpt lat="42.424500477441974" lon="2.8691921247204064"><ele>118.00000000000001</ele><time>2026-04-22T13:15:31.993Z</time></trkpt><trkpt lat="42.42457399056099" lon="2.8691495820915285"><ele>118.0</ele><time>2026-04-22T13:15:32.993Z</time></trkpt><trkpt lat="42.42464537673984" lon="2.8691039243625958"><ele>118.50000000000001</ele><time>2026-04-22T13:15:33.993Z</time></trkpt><trkpt lat="42.424714004214" lon="2.8690607763825775"><ele>119.0</ele><time>2026-04-22T13:15:34.993Z</time></trkpt><trkpt lat="42.42478427342162" lon="2.8690169562984615"><ele>119.5</ele><time>2026-04-22T13:15:35.993Z</time></trkpt><trkpt lat="42.42485608446394" lon="2.8689730041433803"><ele>120.0</ele><time>2026-04-22T13:15:36.993Z</time></trkpt><trkpt lat="42.42493019450239" lon="2.8689285491700307"><ele>120.50000000000001</ele><time>2026-04-22T13:15:37.993Z</time></trkpt><trkpt lat="42.425000830135055" lon="2.8688822549686916"><ele>121.0</ele><time>2026-04-22T13:15:38.993Z</time></trkpt><trkpt lat="42.42507275014831" lon="2.8688373088059125"><ele>121.00000000000001</ele><time>2026-04-22T13:15:39.993Z</time></trkpt><trkpt lat="42.42514585456473" lon="2.868795629034289"><ele>121.0</ele><time>2026-04-22T13:15:40.993Z</time></trkpt><trkpt lat="42.42521714751812" lon="2.8687552777048784"><ele>121.0</ele><time>2026-04-22T13:15:41.993Z</time></trkpt><trkpt lat="42.425287466225754" lon="2.868715743194664"><ele>121.0</ele><time>2026-04-22T13:15:42.993Z</time></trkpt><trkpt lat="42.425351025794455" lon="2.8686807206082663"><ele>121.00000000000001</ele><time>2026-04-22T13:15:43.993Z</time></trkpt><trkpt lat="42.42541195457088" lon="2.8686529359999433"><ele>121.0</ele><time>2026-04-22T13:15:44.993Z</time></trkpt><trkpt lat="42.42552833372094" lon="2.868629524031167"><ele>121.28571428571428</ele><time>2026-04-22T13:15:46.993Z</time></trkpt><trkpt lat="42.42564186489284" lon="2.86864968858711"><ele>121.57142857142856</ele><time>2026-04-22T13:15:48.993Z</time></trkpt><trkpt lat="42.425699221876755" lon="2.8686853397626115"><ele>121.85714285714286</ele><time>2026-04-22T13:15:49.993Z</time></trkpt><trkpt lat="42.425754962508925" lon="2.8687320090991895"><ele>122.14285714285714</ele><time>2026-04-22T13:15:50.993Z</time></trkpt><trkpt lat="42.42581798684243" lon="2.868771041149075"><ele>122.42857142857143</ele><time>2026-04-22T13:15:51.993Z</time></trkpt><trkpt lat="42.42588146201026" lon="2.8687862761424743"><ele>122.71428571428572</ele><time>2026-04-22T13:15:52.993Z</time></trkpt><trkpt lat="42.425946253956916" lon="2.8687880385345053"><ele>123.00000000000001</ele><time>2026-04-22T13:15:53.993Z</time></trkpt><trkpt lat="42.426029409970354" lon="2.8687252544125714"><ele>123.00000000000001</ele><time>2026-04-22T13:15:55.993Z</time></trkpt><trkpt lat="42.42607261401727" lon="2.868653606145522"><ele>123.0</ele><time>2026-04-22T13:16:24.999Z</time></trkpt><trkpt lat="42.42612747826254" lon="2.8685940662603"><ele>123.00000000000001</ele><time>2026-04-22T13:16:35.999Z</time></trkpt><trkpt lat="42.42619382243729" lon="2.8685284272176443"><ele>123.00000000000001</ele><time>2026-04-22T13:16:40Z</time></trkpt><trkpt lat="42.42627319885203" lon="2.868484155018654"><ele>123.0</ele><time>2026-04-22T13:16:43Z</time></trkpt><trkpt lat="42.42635038824068" lon="2.868470293784172"><ele>123.00000000000001</ele><time>2026-04-22T13:16:45Z</time></trkpt><trkpt lat="42.4264135603307" lon="2.8684716765548632"><ele>123.00000000000001</ele><time>2026-04-22T13:16:47Z</time></trkpt><trkpt lat="42.42648428449883" lon="2.868477244747542"><ele>123.66666666666667</ele><time>2026-04-22T13:16:50Z</time></trkpt><trkpt lat="42.42657049442552" lon="2.868483970250773"><ele>124.33333333333334</ele><time>2026-04-22T13:16:53Z</time></trkpt><trkpt lat="42.42665382801314" lon="2.86849357996543"><ele>125.0</ele><time>2026-04-22T13:16:55Z</time></trkpt><trkpt lat="42.426730864283954" lon="2.8684982441333937"><ele>125.66666666666667</ele><time>2026-04-22T13:16:57Z</time></trkpt><trkpt lat="42.42681317187751" lon="2.868504916455006"><ele>126.33333333333334</ele><time>2026-04-22T13:17:00Z</time></trkpt><trkpt lat="42.42688002065078" lon="2.8685106517961514"><ele>127.0</ele><time>2026-04-22T13:17:03Z</time></trkpt><trkpt lat="42.42694810461158" lon="2.8685171405901775"><ele>127.00000000000001</ele><time>2026-04-22T13:17:05Z</time></trkpt><trkpt lat="42.42702501250977" lon="2.8685266606349273"><ele>127.0</ele><time>2026-04-22T13:17:07Z</time></trkpt><trkpt lat="42.42711827910277" lon="2.868528557442904"><ele>127.0</ele><time>2026-04-22T13:17:09Z</time></trkpt><trkpt lat="42.427231931168684" lon="2.86852713136453"><ele>127.0</ele><time>2026-04-22T13:17:11Z</time></trkpt><trkpt lat="42.427298922549376" lon="2.868525609325915"><ele>127.00000000000001</ele><time>2026-04-22T13:17:12Z</time></trkpt><trkpt lat="42.427363327120354" lon="2.8685199235610526"><ele>127.0</ele><time>2026-04-22T13:17:13Z</time></trkpt><trkpt lat="42.427432147293025" lon="2.868516272509799"><ele>127.42857142857143</ele><time>2026-04-22T13:17:14Z</time></trkpt><trkpt lat="42.427504718453264" lon="2.868509085347746"><ele>127.85714285714286</ele><time>2026-04-22T13:17:15Z</time></trkpt><trkpt lat="42.42757695613697" lon="2.8684995317257513"><ele>128.28571428571428</ele><time>2026-04-22T13:17:16Z</time></trkpt><trkpt lat="42.427654445873195" lon="2.8684869273329427"><ele>128.71428571428572</ele><time>2026-04-22T13:17:17Z</time></trkpt><trkpt lat="42.42773009828984" lon="2.8684725983450625"><ele>129.14285714285714</ele><time>2026-04-22T13:17:18Z</time></trkpt><trkpt lat="42.42779867297335" lon="2.868452190113675"><ele>129.57142857142858</ele><time>2026-04-22T13:17:19Z</time></trkpt><trkpt lat="42.42786043711847" lon="2.8684292005854304"><ele>130.0</ele><time>2026-04-22T13:17:20Z</time></trkpt><trkpt lat="42.4279472086372" lon="2.868390917249024"><ele>130.16666666666669</ele><time>2026-04-22T13:17:22Z</time></trkpt><trkpt lat="42.428013100731796" lon="2.8683592236384303"><ele>130.33333333333334</ele><time>2026-04-22T13:17:26Z</time></trkpt><trkpt lat="42.42807633155338" lon="2.868330418180197"><ele>130.5</ele><time>2026-04-22T13:17:30Z</time></trkpt><trkpt lat="42.42815154360306" lon="2.8682957190011984"><ele>130.66666666666666</ele><time>2026-04-22T13:17:33Z</time></trkpt><trkpt lat="42.428248108928436" lon="2.868264713894495"><ele>130.83333333333331</ele><time>2026-04-22T13:17:35Z</time></trkpt><trkpt lat="42.428312741818544" lon="2.868239481318573"><ele>131.0</ele><time>2026-04-22T13:17:36Z</time></trkpt><trkpt lat="42.42838920044467" lon="2.8682033925761985"><ele>131.0</ele><time>2026-04-22T13:17:37Z</time></trkpt><trkpt lat="42.42847370809861" lon="2.8681669410683974"><ele>131.0</ele><time>2026-04-22T13:17:38Z</time></trkpt><trkpt lat="42.428554940840364" lon="2.868133718118608"><ele>131.0</ele><time>2026-04-22T13:17:39Z</time></trkpt><trkpt lat="42.42864144151516" lon="2.8680953781440293"><ele>131.0</ele><time>2026-04-22T13:17:40Z</time></trkpt><trkpt lat="42.42873042282469" lon="2.8680556685881125"><ele>131.0</ele><time>2026-04-22T13:17:41Z</time></trkpt><trkpt lat="42.428813407235296" lon="2.8680155778695715"><ele>131.0</ele><time>2026-04-22T13:17:42Z</time></trkpt><trkpt lat="42.42889318676691" lon="2.8679821688643665"><ele>131.5</ele><time>2026-04-22T13:17:43Z</time></trkpt><trkpt lat="42.42896739418569" lon="2.8679490016930638"><ele>132.0</ele><time>2026-04-22T13:17:44Z</time></trkpt><trkpt lat="42.42904103543625" lon="2.86792432893715"><ele>132.5</ele><time>2026-04-22T13:17:45Z</time></trkpt><trkpt lat="42.4291199857122" lon="2.867917240626212"><ele>133.0</ele><time>2026-04-22T13:17:46Z</time></trkpt><trkpt lat="42.42919820788607" lon="2.867919973012108"><ele>133.5</ele><time>2026-04-22T13:17:47Z</time></trkpt><trkpt lat="42.429282083857906" lon="2.867931395613735"><ele>134.0</ele><time>2026-04-22T13:17:48Z</time></trkpt><trkpt lat="42.42936957658449" lon="2.8679354987726486"><ele>134.0</ele><time>2026-04-22T13:17:49Z</time></trkpt><trkpt lat="42.429459645872164" lon="2.867930891977638"><ele>134.0</ele><time>2026-04-22T13:17:50Z</time></trkpt><trkpt lat="42.42954671789515" lon="2.86791745236394"><ele>134.0</ele><time>2026-04-22T13:17:51Z</time></trkpt><trkpt lat="42.42963846886704" lon="2.8678889442975914"><ele>134.0</ele><time>2026-04-22T13:17:52Z</time></trkpt><trkpt lat="42.42972200985183" lon="2.867846297436779"><ele>134.0</ele><time>2026-04-22T13:17:53Z</time></trkpt><trkpt lat="42.42980239703846" lon="2.867798386166705"><ele>134.0</ele><time>2026-04-22T13:17:54Z</time></trkpt><trkpt lat="42.42988062601076" lon="2.867750393096471"><ele>134.16666666666666</ele><time>2026-04-22T13:17:55Z</time></trkpt><trkpt lat="42.42996136417912" lon="2.867706840444176"><ele>134.33333333333331</ele><time>2026-04-22T13:17:56Z</time></trkpt><trkpt lat="42.43004251082824" lon="2.867666379942859"><ele>134.5</ele><time>2026-04-22T13:17:57Z</time></trkpt><trkpt lat="42.43011947096275" lon="2.867630986109776"><ele>134.66666666666666</ele><time>2026-04-22T13:17:58Z</time></trkpt><trkpt lat="42.43019668848431" lon="2.867598977648828"><ele>134.83333333333334</ele><time>2026-04-22T13:17:59Z</time></trkpt><trkpt lat="42.43026749748832" lon="2.867565227925774"><ele>135.0</ele><time>2026-04-22T13:18:00Z</time></trkpt><trkpt lat="42.430327986040545" lon="2.867520268121643"><ele>135.0</ele><time>2026-04-22T13:18:01Z</time></trkpt><trkpt lat="42.43037456486456" lon="2.867457175661229"><ele>135.0</ele><time>2026-04-22T13:18:02Z</time></trkpt><trkpt lat="42.43040482246262" lon="2.8673752125662078"><ele>135.0</ele><time>2026-04-22T13:18:03Z</time></trkpt><trkpt lat="42.430408554849706" lon="2.867286733503948"><ele>135.0</ele><time>2026-04-22T13:18:04Z</time></trkpt><trkpt lat="42.430391488577406" lon="2.8672032969745995"><ele>135.0</ele><time>2026-04-22T13:18:05Z</time></trkpt><trkpt lat="42.43031414281149" lon="2.867075630670879"><ele>135.0</ele><time>2026-04-22T13:18:07Z</time></trkpt><trkpt lat="42.43019630411658" lon="2.867023221923359"><ele>135.0</ele><time>2026-04-22T13:18:09Z</time></trkpt><trkpt lat="42.4301234790143" lon="2.867031297499588"><ele>135.0</ele><time>2026-04-22T13:18:10Z</time></trkpt><trkpt lat="42.43004599995831" lon="2.8670554497120966"><ele>135.0</ele><time>2026-04-22T13:18:11Z</time></trkpt><trkpt lat="42.42996563577575" lon="2.867080069975303"><ele>135.0</ele><time>2026-04-22T13:18:12Z</time></trkpt><trkpt lat="42.42988673980715" lon="2.867110981990722"><ele>135.0</ele><time>2026-04-22T13:18:13Z</time></trkpt><trkpt lat="42.42980751452375" lon="2.8671407737502097"><ele>135.0</ele><time>2026-04-22T13:18:14Z</time></trkpt><trkpt lat="42.42973449404811" lon="2.8671713008628457"><ele>135.0</ele><time>2026-04-22T13:18:15Z</time></trkpt><trkpt lat="42.429660054651364" lon="2.86719874706166"><ele>135.0</ele><time>2026-04-22T13:18:16Z</time></trkpt><trkpt lat="42.429572682151885" lon="2.867228487527547"><ele>135.0</ele><time>2026-04-22T13:18:17Z</time></trkpt><trkpt lat="42.42947641630273" lon="2.867264842171625"><ele>135.0</ele><time>2026-04-22T13:18:18Z</time></trkpt><trkpt lat="42.42937997857157" lon="2.867313089012803"><ele>135.0</ele><time>2026-04-22T13:18:19Z</time></trkpt><trkpt lat="42.42929759941893" lon="2.86738874880455"><ele>134.83333333333334</ele><time>2026-04-22T13:18:20Z</time></trkpt><trkpt lat="42.429233449948185" lon="2.8674806055295576"><ele>134.66666666666666</ele><time>2026-04-22T13:18:21Z</time></trkpt><trkpt lat="42.42917388079953" lon="2.8675587195239776"><ele>134.5</ele><time>2026-04-22T13:18:22Z</time></trkpt><trkpt lat="42.42912460943888" lon="2.867620636955896"><ele>134.33333333333331</ele><time>2026-04-22T13:18:23Z</time></trkpt><trkpt lat="42.429020799772296" lon="2.8676618773693874"><ele>134.16666666666666</ele><time>2026-04-22T13:18:25Z</time></trkpt><trkpt lat="42.42898397356509" lon="2.8675436661005596"><ele>134.0</ele><time>2026-04-22T13:18:27Z</time></trkpt><trkpt lat="42.42896954737054" lon="2.8674520273918507"><ele>133.66666666666666</ele><time>2026-04-22T13:18:28Z</time></trkpt><trkpt lat="42.42894849445773" lon="2.867345156436005"><ele>133.33333333333331</ele><time>2026-04-22T13:18:29Z</time></trkpt><trkpt lat="42.428923544359584" lon="2.8672413570381705"><ele>133.0</ele><time>2026-04-22T13:18:30Z</time></trkpt><trkpt lat="42.428896246076654" lon="2.867126306780258"><ele>132.66666666666666</ele><time>2026-04-22T13:18:31Z</time></trkpt><trkpt lat="42.428866234174386" lon="2.867003408957635"><ele>132.33333333333334</ele><time>2026-04-22T13:18:32Z</time></trkpt><trkpt lat="42.428835743316" lon="2.866882214696298"><ele>132.0</ele><time>2026-04-22T13:18:33Z</time></trkpt><trkpt lat="42.42880431868052" lon="2.866766035177545"><ele>131.28571428571428</ele><time>2026-04-22T13:18:34Z</time></trkpt><trkpt lat="42.42877692321343" lon="2.8666555930504565"><ele>130.57142857142858</ele><time>2026-04-22T13:18:35Z</time></trkpt><trkpt lat="42.42875083173022" lon="2.866549737702773"><ele>129.85714285714286</ele><time>2026-04-22T13:18:36Z</time></trkpt><trkpt lat="42.42872705712459" lon="2.8664506974406794"><ele>129.14285714285714</ele><time>2026-04-22T13:18:37Z</time></trkpt><trkpt lat="42.42870623197824" lon="2.8663574267870247"><ele>128.42857142857142</ele><time>2026-04-22T13:18:38Z</time></trkpt><trkpt lat="42.42869010966945" lon="2.8662737693000766"><ele>127.71428571428572</ele><time>2026-04-22T13:18:39Z</time></trkpt><trkpt lat="42.42866890196256" lon="2.866192147367157"><ele>127.0</ele><time>2026-04-22T13:18:40Z</time></trkpt><trkpt lat="42.42863834221416" lon="2.8660761651648876"><ele>127.0</ele><time>2026-04-22T13:18:42Z</time></trkpt><trkpt lat="42.428612625132" lon="2.865967575717277"><ele>127.0</ele><time>2026-04-22T13:18:45Z</time></trkpt><trkpt lat="42.42854920974569" lon="2.865951724217978"><ele>127.0</ele><time>2026-04-22T13:18:50Z</time></trkpt><trkpt lat="42.428493853863195" lon="2.8659929127582084"><ele>127.0</ele><time>2026-04-22T13:22:01Z</time></trkpt><trkpt lat="42.42844271841305" lon="2.8660585549025432"><ele>127.0</ele><time>2026-04-22T13:24:52Z</time></trkpt><trkpt lat="42.4283985408031" lon="2.8661221993307624"><ele>127.0</ele><time>2026-04-22T13:27:26Z</time></trkpt><trkpt lat="42.428335892501394" lon="2.866205768777225"><ele>127.0</ele><time>2026-04-22T13:34:49Z</time></trkpt><trkpt lat="42.42834738942641" lon="2.8662962989053904"><ele>127.00000000000001</ele><time>2026-04-22T13:34:53Z</time></trkpt><trkpt lat="42.428421400988185" lon="2.8663621651319273"><ele>127.0</ele><time>2026-04-22T13:34:56Z</time></trkpt><trkpt lat="42.42849787218436" lon="2.8664101422319517"><ele>127.0</ele><time>2026-04-22T13:34:59Z</time></trkpt><trkpt lat="42.42856179785728" lon="2.8664444298972356"><ele>127.0</ele><time>2026-04-22T13:35:02Z</time></trkpt><trkpt lat="42.428637678163845" lon="2.866471532150006"><ele>127.00000000000001</ele><time>2026-04-22T13:35:06Z</time></trkpt><trkpt lat="42.428707003386904" lon="2.866529789984265"><ele>127.0</ele><time>2026-04-22T13:35:10Z</time></trkpt><trkpt lat="42.42873853162125" lon="2.8666101163338307"><ele>127.0</ele><time>2026-04-22T13:35:11Z</time></trkpt><trkpt lat="42.42877218074661" lon="2.8667346058683294"><ele>127.0</ele><time>2026-04-22T13:35:13Z</time></trkpt><trkpt lat="42.42881230196268" lon="2.8668894402130225"><ele>127.0</ele><time>2026-04-22T13:35:15Z</time></trkpt><trkpt lat="42.42885240794512" lon="2.8670468978056074"><ele>127.0</ele><time>2026-04-22T13:35:17Z</time></trkpt><trkpt lat="42.42889169403388" lon="2.867200554449742"><ele>128.0</ele><time>2026-04-22T13:35:19Z</time></trkpt><trkpt lat="42.42893063591182" lon="2.867346281397654"><ele>129.0</ele><time>2026-04-22T13:35:21Z</time></trkpt><trkpt lat="42.428964394285245" lon="2.867479271432439"><ele>130.0</ele><time>2026-04-22T13:35:23Z</time></trkpt><trkpt lat="42.42897842492058" lon="2.867596710639564"><ele>131.0</ele><time>2026-04-22T13:35:25Z</time></trkpt><trkpt lat="42.428983160615026" lon="2.867689979955192"><ele>132.0</ele><time>2026-04-22T13:35:27Z</time></trkpt><trkpt lat="42.42896210767454" lon="2.8678083849895777"><ele>131.85714285714286</ele><time>2026-04-22T13:35:30Z</time></trkpt><trkpt lat="42.428903288444666" lon="2.867843682602353"><ele>131.71428571428572</ele><time>2026-04-22T13:35:31Z</time></trkpt><trkpt lat="42.4288465405212" lon="2.8678837277716998"><ele>131.57142857142858</ele><time>2026-04-22T13:35:32Z</time></trkpt><trkpt lat="42.42877627814235" lon="2.8679235755959755"><ele>131.42857142857144</ele><time>2026-04-22T13:35:33Z</time></trkpt><trkpt lat="42.42869704879698" lon="2.867953291148782"><ele>131.2857142857143</ele><time>2026-04-22T13:35:34Z</time></trkpt><trkpt lat="42.42862131320643" lon="2.8679879200995564"><ele>131.14285714285714</ele><time>2026-04-22T13:35:35Z</time></trkpt><trkpt lat="42.42855112271828" lon="2.8680187781196453"><ele>131.0</ele><time>2026-04-22T13:35:36Z</time></trkpt><trkpt lat="42.42848579292288" lon="2.8680513282524163"><ele>131.0</ele><time>2026-04-22T13:35:37Z</time></trkpt><trkpt lat="42.428374078053025" lon="2.868097708888131"><ele>131.0</ele><time>2026-04-22T13:35:39Z</time></trkpt><trkpt lat="42.428300041164036" lon="2.868127299781365"><ele>131.0</ele><time>2026-04-22T13:35:41Z</time></trkpt><trkpt lat="42.42821787008179" lon="2.868146755281653"><ele>131.0</ele><time>2026-04-22T13:37:36Z</time></trkpt><trkpt lat="42.42812703032543" lon="2.868196019729203"><ele>131.0</ele><time>2026-04-22T13:37:39Z</time></trkpt><trkpt lat="42.428119105227246" lon="2.8683035987266425"><ele>131.0</ele><time>2026-04-22T13:37:42Z</time></trkpt><trkpt lat="42.42821321363728" lon="2.86835498155442"><ele>131.0</ele><time>2026-04-22T13:37:45Z</time></trkpt><trkpt lat="42.428315785392535" lon="2.868298117469734"><ele>131.0</ele><time>2026-04-22T13:37:47Z</time></trkpt><trkpt lat="42.428408269034314" lon="2.868260066512835"><ele>131.0</ele><time>2026-04-22T13:37:49Z</time></trkpt><trkpt lat="42.428519756062656" lon="2.8682130701483324"><ele>131.0</ele><time>2026-04-22T13:37:51Z</time></trkpt><trkpt lat="42.42862828284035" lon="2.86817969078203"><ele>131.0</ele><time>2026-04-22T13:37:53Z</time></trkpt><trkpt lat="42.42872413757134" lon="2.8681453409165245"><ele>131.0</ele><time>2026-04-22T13:37:55Z</time></trkpt><trkpt lat="42.428796588397134" lon="2.868105491058237"><ele>131.0</ele><time>2026-04-22T13:37:57Z</time></trkpt><trkpt lat="42.42885270660779" lon="2.8680450724379485"><ele>131.0</ele><time>2026-04-22T13:38:00Z</time></trkpt><trkpt lat="42.42889768840789" lon="2.8679485276537062"><ele>131.0</ele><time>2026-04-22T13:38:05Z</time></trkpt><trkpt lat="42.42901100657848" lon="2.867907848451519"><ele>131.5</ele><time>2026-04-22T13:38:07Z</time></trkpt><trkpt lat="42.42908472199858" lon="2.867897220170109"><ele>132.0</ele><time>2026-04-22T13:38:08Z</time></trkpt><trkpt lat="42.429166814385766" lon="2.867898531181453"><ele>132.5</ele><time>2026-04-22T13:38:09Z</time></trkpt><trkpt lat="42.429261930906314" lon="2.867906713076307"><ele>133.0</ele><time>2026-04-22T13:38:10Z</time></trkpt><trkpt lat="42.429353124786566" lon="2.8679201802558953"><ele>133.5</ele><time>2026-04-22T13:38:11Z</time></trkpt><trkpt lat="42.4294449453527" lon="2.8679314135947647"><ele>134.0</ele><time>2026-04-22T13:38:12Z</time></trkpt><trkpt lat="42.42953644059487" lon="2.8679346237423173"><ele>134.0</ele><time>2026-04-22T13:38:13Z</time></trkpt><trkpt lat="42.42963386687914" lon="2.867918526587892"><ele>134.0</ele><time>2026-04-22T13:38:14Z</time></trkpt><trkpt lat="42.42971469186647" lon="2.8678836727700077"><ele>134.0</ele><time>2026-04-22T13:38:15Z</time></trkpt><trkpt lat="42.429796607563745" lon="2.8678412565241826"><ele>134.0</ele><time>2026-04-22T13:38:16Z</time></trkpt><trkpt lat="42.429875552462676" lon="2.8678007326550836"><ele>134.0</ele><time>2026-04-22T13:38:17Z</time></trkpt><trkpt lat="42.4299539836423" lon="2.8677639572407716"><ele>134.0</ele><time>2026-04-22T13:38:18Z</time></trkpt><trkpt lat="42.430035111603736" lon="2.8677312031451483"><ele>134.16666666666666</ele><time>2026-04-22T13:38:19Z</time></trkpt><trkpt lat="42.43011872930673" lon="2.8676930290829774"><ele>134.33333333333331</ele><time>2026-04-22T13:38:20Z</time></trkpt><trkpt lat="42.430203765294316" lon="2.8676543703649586"><ele>134.5</ele><time>2026-04-22T13:38:21Z</time></trkpt><trkpt lat="42.43028744779347" lon="2.8676204631319147"><ele>134.66666666666666</ele><time>2026-04-22T13:38:22Z</time></trkpt><trkpt lat="42.430368773650166" lon="2.8675781045951916"><ele>134.83333333333334</ele><time>2026-04-22T13:38:23Z</time></trkpt><trkpt lat="42.43045168063207" lon="2.867527909845513"><ele>135.0</ele><time>2026-04-22T13:38:24Z</time></trkpt><trkpt lat="42.430526965134064" lon="2.8674574161181585"><ele>135.4</ele><time>2026-04-22T13:38:25Z</time></trkpt><trkpt lat="42.43059947740418" lon="2.8673723985230124"><ele>135.8</ele><time>2026-04-22T13:38:26Z</time></trkpt><trkpt lat="42.430671831528684" lon="2.867281430820046"><ele>136.2</ele><time>2026-04-22T13:38:27Z</time></trkpt><trkpt lat="42.43074830030168" lon="2.867191085177324"><ele>136.6</ele><time>2026-04-22T13:38:28Z</time></trkpt><trkpt lat="42.43082961262556" lon="2.8671060060026563"><ele>137.0</ele><time>2026-04-22T13:38:29Z</time></trkpt><trkpt lat="42.430916965158424" lon="2.8670375532542094"><ele>137.0</ele><time>2026-04-22T13:38:30Z</time></trkpt><trkpt lat="42.43100935774319" lon="2.866979978151009"><ele>137.0</ele><time>2026-04-22T13:38:31Z</time></trkpt><trkpt lat="42.43110846553836" lon="2.866938007687271"><ele>137.0</ele><time>2026-04-22T13:38:32Z</time></trkpt><trkpt lat="42.43120750498433" lon="2.866894280139702"><ele>137.0</ele><time>2026-04-22T13:38:33Z</time></trkpt><trkpt lat="42.43131192928776" lon="2.866850098272119"><ele>137.0</ele><time>2026-04-22T13:38:34Z</time></trkpt><trkpt lat="42.431416839477784" lon="2.866805166135938"><ele>137.79999999999998</ele><time>2026-04-22T13:38:35Z</time></trkpt><trkpt lat="42.43152329877937" lon="2.8667599392999352"><ele>138.6</ele><time>2026-04-22T13:38:36Z</time></trkpt><trkpt lat="42.4316310419332" lon="2.8667136667193067"><ele>139.39999999999998</ele><time>2026-04-22T13:38:37Z</time></trkpt><trkpt lat="42.43173517425882" lon="2.866666268506456"><ele>140.2</ele><time>2026-04-22T13:38:38Z</time></trkpt><trkpt lat="42.43184303731818" lon="2.866617535240558"><ele>141.0</ele><time>2026-04-22T13:38:39Z</time></trkpt><trkpt lat="42.431952301670165" lon="2.866569789070729"><ele>141.0</ele><time>2026-04-22T13:38:40Z</time></trkpt><trkpt lat="42.43205804864122" lon="2.866519673252155"><ele>141.0</ele><time>2026-04-22T13:38:41Z</time></trkpt><trkpt lat="42.43216250601637" lon="2.8664735697000685"><ele>141.0</ele><time>2026-04-22T13:38:42Z</time></trkpt><trkpt lat="42.43226057128034" lon="2.866425002665746"><ele>141.0</ele><time>2026-04-22T13:38:43Z</time></trkpt><trkpt lat="42.432363897524475" lon="2.866382048959223"><ele>141.0</ele><time>2026-04-22T13:38:44Z</time></trkpt><trkpt lat="42.43246193116018" lon="2.866343173690423"><ele>142.0</ele><time>2026-04-22T13:38:45Z</time></trkpt><trkpt lat="42.43255681109309" lon="2.866309633466865"><ele>143.0</ele><time>2026-04-22T13:38:46Z</time></trkpt><trkpt lat="42.43265086181434" lon="2.866283274955153"><ele>144.0</ele><time>2026-04-22T13:38:47Z</time></trkpt><trkpt lat="42.432741206010114" lon="2.8662646096570517"><ele>145.0</ele><time>2026-04-22T13:38:48Z</time></trkpt><trkpt lat="42.43282579875844" lon="2.8662495454133636"><ele>146.0</ele><time>2026-04-22T13:38:49Z</time></trkpt><trkpt lat="42.43291183175988" lon="2.8662364138242"><ele>147.33333333333331</ele><time>2026-04-22T13:38:50Z</time></trkpt><trkpt lat="42.43299779712479" lon="2.866229868189865"><ele>148.66666666666666</ele><time>2026-04-22T13:38:51Z</time></trkpt><trkpt lat="42.433083509019355" lon="2.8662284556987077"><ele>150.0</ele><time>2026-04-22T13:38:52Z</time></trkpt><trkpt lat="42.43317034479154" lon="2.866243584720394"><ele>151.33333333333334</ele><time>2026-04-22T13:38:53Z</time></trkpt><trkpt lat="42.43324998807635" lon="2.866282613253304"><ele>152.66666666666669</ele><time>2026-04-22T13:38:54Z</time></trkpt><trkpt lat="42.433322229798506" lon="2.8663389502438372"><ele>154.0</ele><time>2026-04-22T13:38:55Z</time></trkpt><trkpt lat="42.433394309329074" lon="2.8663982612767147"><ele>154.0</ele><time>2026-04-22T13:38:56Z</time></trkpt><trkpt lat="42.43347672800431" lon="2.8664368013320893"><ele>154.0</ele><time>2026-04-22T13:38:57Z</time></trkpt><trkpt lat="42.43356736059371" lon="2.866437205837635"><ele>154.0</ele><time>2026-04-22T13:38:58Z</time></trkpt><trkpt lat="42.43365496008178" lon="2.8663901112501726"><ele>154.0</ele><time>2026-04-22T13:38:59Z</time></trkpt><trkpt lat="42.433727796349196" lon="2.8663141117610107"><ele>154.0</ele><time>2026-04-22T13:39:00Z</time></trkpt><trkpt lat="42.43378051206514" lon="2.8662114353544985"><ele>154.4</ele><time>2026-04-22T13:39:01Z</time></trkpt><trkpt lat="42.433832078254056" lon="2.8661054463961975"><ele>154.8</ele><time>2026-04-22T13:39:02Z</time></trkpt><trkpt lat="42.43386364992869" lon="2.865993621589517"><ele>155.2</ele><time>2026-04-22T13:39:03Z</time></trkpt><trkpt lat="42.433902239962215" lon="2.865881583609813"><ele>155.6</ele><time>2026-04-22T13:39:04Z</time></trkpt><trkpt lat="42.433953473988815" lon="2.8657701127042494"><ele>156.0</ele><time>2026-04-22T13:39:05Z</time></trkpt><trkpt lat="42.4340328124958" lon="2.8656577254087674"><ele>156.0</ele><time>2026-04-22T13:39:06Z</time></trkpt><trkpt lat="42.434112230729504" lon="2.8655703677962094"><ele>156.0</ele><time>2026-04-22T13:39:07Z</time></trkpt><trkpt lat="42.43421557224375" lon="2.8654988520316373"><ele>156.0</ele><time>2026-04-22T13:39:08Z</time></trkpt><trkpt lat="42.434325505694574" lon="2.8654466486214134"><ele>156.0</ele><time>2026-04-22T13:39:09Z</time></trkpt><trkpt lat="42.4344439524101" lon="2.865395562835711"><ele>156.0</ele><time>2026-04-22T13:39:10Z</time></trkpt><trkpt lat="42.434573907153" lon="2.865345244015658"><ele>156.0</ele><time>2026-04-22T13:39:11Z</time></trkpt><trkpt lat="42.434703793977384" lon="2.8653027051247815"><ele>156.0</ele><time>2026-04-22T13:39:12Z</time></trkpt><trkpt lat="42.43483031836648" lon="2.8652683159918806"><ele>156.0</ele><time>2026-04-22T13:39:13Z</time></trkpt><trkpt lat="42.43496337376" lon="2.8652418167116904"><ele>158.0</ele><time>2026-04-22T13:39:14Z</time></trkpt><trkpt lat="42.43510147266677" lon="2.865227131051432"><ele>160.0</ele><time>2026-04-22T13:39:15Z</time></trkpt><trkpt lat="42.43524212422752" lon="2.8652197429536486"><ele>162.0</ele><time>2026-04-22T13:39:16Z</time></trkpt><trkpt lat="42.435384325788604" lon="2.865213366987698"><ele>164.0</ele><time>2026-04-22T13:39:17Z</time></trkpt><trkpt lat="42.435530423788755" lon="2.865206065402804"><ele>165.66666666666666</ele><time>2026-04-22T13:39:18Z</time></trkpt><trkpt lat="42.4356861580445" lon="2.865195884610962"><ele>167.33333333333334</ele><time>2026-04-22T13:39:19Z</time></trkpt><trkpt lat="42.435841335606455" lon="2.8651866082264847"><ele>169.0</ele><time>2026-04-22T13:39:20Z</time></trkpt><trkpt lat="42.43599935681334" lon="2.865177620776708"><ele>169.0</ele><time>2026-04-22T13:39:21Z</time></trkpt><trkpt lat="42.43615855802189" lon="2.8651679783201387"><ele>169.0</ele><time>2026-04-22T13:39:22Z</time></trkpt><trkpt lat="42.4363187358346" lon="2.865161426385935"><ele>169.0</ele><time>2026-04-22T13:39:23Z</time></trkpt><trkpt lat="42.436482718976016" lon="2.865152215978757"><ele>169.33333333333334</ele><time>2026-04-22T13:39:24Z</time></trkpt><trkpt lat="42.43665429848191" lon="2.8651440395175247"><ele>169.66666666666666</ele><time>2026-04-22T13:39:25Z</time></trkpt><trkpt lat="42.43682244829913" lon="2.865137118288046"><ele>170.0</ele><time>2026-04-22T13:39:26Z</time></trkpt><trkpt lat="42.43698889813539" lon="2.865142189878237"><ele>170.0</ele><time>2026-04-22T13:39:27Z</time></trkpt><trkpt lat="42.43716077192383" lon="2.8651619123510272"><ele>170.0</ele><time>2026-04-22T13:39:28Z</time></trkpt><trkpt lat="42.43732775298736" lon="2.8651977501588"><ele>170.0</ele><time>2026-04-22T13:39:29Z</time></trkpt><trkpt lat="42.43749787128392" lon="2.8652374850976106"><ele>170.0</ele><time>2026-04-22T13:39:30Z</time></trkpt><trkpt lat="42.43766726439031" lon="2.8652747416281628"><ele>170.0</ele><time>2026-04-22T13:39:31Z</time></trkpt><trkpt lat="42.43784049530582" lon="2.865314572479461"><ele>170.0</ele><time>2026-04-22T13:39:32Z</time></trkpt><trkpt lat="42.438010427299005" lon="2.8653501370989884"><ele>170.0</ele><time>2026-04-22T13:39:33Z</time></trkpt><trkpt lat="42.43817719895002" lon="2.8653752470460003"><ele>170.0</ele><time>2026-04-22T13:39:34.001Z</time></trkpt><trkpt lat="42.43834389821262" lon="2.8654414210609978"><ele>170.0</ele><time>2026-04-22T13:39:35.001Z</time></trkpt><trkpt lat="42.438512782088566" lon="2.865489154525839"><ele>170.0</ele><time>2026-04-22T13:39:36.001Z</time></trkpt><trkpt lat="42.43868459273384" lon="2.865528569550682"><ele>170.0</ele><time>2026-04-22T13:39:37.001Z</time></trkpt><trkpt lat="42.438854547544054" lon="2.8655649726592562"><ele>170.0</ele><time>2026-04-22T13:39:38.001Z</time></trkpt><trkpt lat="42.439019656094466" lon="2.865610058685433"><ele>168.66666666666666</ele><time>2026-04-22T13:39:39.001Z</time></trkpt><trkpt lat="42.439189642502924" lon="2.865652189137577"><ele>167.33333333333334</ele><time>2026-04-22T13:39:40.001Z</time></trkpt><trkpt lat="42.439353261168954" lon="2.865689721675596"><ele>166.0</ele><time>2026-04-22T13:39:41.001Z</time></trkpt><trkpt lat="42.439521232355624" lon="2.8657273974959465"><ele>165.33333333333334</ele><time>2026-04-22T13:39:42.001Z</time></trkpt><trkpt lat="42.439686111423015" lon="2.865766858901578"><ele>164.66666666666666</ele><time>2026-04-22T13:39:43.001Z</time></trkpt><trkpt lat="42.439851244491734" lon="2.865805018822606"><ele>164.0</ele><time>2026-04-22T13:39:44.001Z</time></trkpt><trkpt lat="42.44001435686388" lon="2.8658427153900083"><ele>164.0</ele><time>2026-04-22T13:39:45.001Z</time></trkpt><trkpt lat="42.44017770492258" lon="2.8658829996408466"><ele>164.0</ele><time>2026-04-22T13:39:46.001Z</time></trkpt><trkpt lat="42.4403437708076" lon="2.8659234932182094"><ele>164.0</ele><time>2026-04-22T13:39:47.001Z</time></trkpt><trkpt lat="42.44050458484537" lon="2.8659639997963193"><ele>167.66666666666666</ele><time>2026-04-22T13:39:48.001Z</time></trkpt><trkpt lat="42.4406715691799" lon="2.8660053593204493"><ele>171.33333333333334</ele><time>2026-04-22T13:39:49.001Z</time></trkpt><trkpt lat="42.44083672318695" lon="2.866043956383609"><ele>175.0</ele><time>2026-04-22T13:39:50.001Z</time></trkpt><trkpt lat="42.44099914725566" lon="2.866081512416563"><ele>175.0</ele><time>2026-04-22T13:39:51.001Z</time></trkpt><trkpt lat="42.44116088030446" lon="2.8661199874493644"><ele>175.0</ele><time>2026-04-22T13:39:52.001Z</time></trkpt><trkpt lat="42.44132195696385" lon="2.866161275903184"><ele>175.0</ele><time>2026-04-22T13:39:53.001Z</time></trkpt><trkpt lat="42.44148579808432" lon="2.866201210294717"><ele>175.0</ele><time>2026-04-22T13:39:54.001Z</time></trkpt><trkpt lat="42.44164662397247" lon="2.8662394827367104"><ele>175.0</ele><time>2026-04-22T13:39:55.001Z</time></trkpt><trkpt lat="42.44181139190253" lon="2.866277496332679"><ele>175.0</ele><time>2026-04-22T13:39:56.001Z</time></trkpt><trkpt lat="42.44197244482916" lon="2.866314741071285"><ele>176.0</ele><time>2026-04-22T13:39:57.001Z</time></trkpt><trkpt lat="42.442135295631964" lon="2.8663528812472374"><ele>177.0</ele><time>2026-04-22T13:39:58.001Z</time></trkpt><trkpt lat="42.442299375081" lon="2.8663912936554214"><ele>178.0</ele><time>2026-04-22T13:39:59.001Z</time></trkpt><trkpt lat="42.44246300998834" lon="2.866430066608937"><ele>178.0</ele><time>2026-04-22T13:40:00.001Z</time></trkpt><trkpt lat="42.44262791756536" lon="2.8664667670988098"><ele>178.0</ele><time>2026-04-22T13:40:01.001Z</time></trkpt><trkpt lat="42.442792804769205" lon="2.8665068519642496"><ele>178.0</ele><time>2026-04-22T13:40:02.001Z</time></trkpt><trkpt lat="42.442955552005415" lon="2.8665455192740987"><ele>179.33333333333334</ele><time>2026-04-22T13:40:03.001Z</time></trkpt><trkpt lat="42.44311853647059" lon="2.86658349590826"><ele>180.66666666666666</ele><time>2026-04-22T13:40:04.001Z</time></trkpt><trkpt lat="42.44327971302448" lon="2.866621061864555"><ele>182.0</ele><time>2026-04-22T13:40:05.001Z</time></trkpt><trkpt lat="42.4434442984962" lon="2.8666613459353485"><ele>182.0</ele><time>2026-04-22T13:40:06.001Z</time></trkpt><trkpt lat="42.44360683164577" lon="2.8666985664999465"><ele>182.0</ele><time>2026-04-22T13:40:07.001Z</time></trkpt><trkpt lat="42.44377414194853" lon="2.8667420716188725"><ele>182.0</ele><time>2026-04-22T13:40:08.001Z</time></trkpt><trkpt lat="42.44394493629221" lon="2.866784069630725"><ele>184.33333333333331</ele><time>2026-04-22T13:40:09.001Z</time></trkpt><trkpt lat="42.44411182951741" lon="2.866823844674988"><ele>186.66666666666666</ele><time>2026-04-22T13:40:10.001Z</time></trkpt><trkpt lat="42.44427549524014" lon="2.8668627493552203"><ele>189.0</ele><time>2026-04-22T13:40:11.001Z</time></trkpt><trkpt lat="42.44444221797292" lon="2.866900047030241"><ele>189.0</ele><time>2026-04-22T13:40:12.001Z</time></trkpt><trkpt lat="42.44461125626184" lon="2.866933397984903"><ele>189.0</ele><time>2026-04-22T13:40:13.001Z</time></trkpt><trkpt lat="42.444785642498346" lon="2.866959480097424"><ele>189.0</ele><time>2026-04-22T13:40:14.001Z</time></trkpt><trkpt lat="42.44495929697033" lon="2.8669690549000344"><ele>188.66666666666666</ele><time>2026-04-22T13:40:15.001Z</time></trkpt><trkpt lat="42.44514056711345" lon="2.8669690700913577"><ele>188.33333333333331</ele><time>2026-04-22T13:40:16.001Z</time></trkpt><trkpt lat="42.44532109855867" lon="2.8669479890440153"><ele>188.0</ele><time>2026-04-22T13:40:17.001Z</time></trkpt><trkpt lat="42.44549655854831" lon="2.8669127376229055"><ele>187.0</ele><time>2026-04-22T13:40:18.001Z</time></trkpt><trkpt lat="42.445672905526386" lon="2.8668608439087095"><ele>186.0</ele><time>2026-04-22T13:40:19.001Z</time></trkpt><trkpt lat="42.44584819906306" lon="2.866796740815658"><ele>185.0</ele><time>2026-04-22T13:40:20.001Z</time></trkpt><trkpt lat="42.446016333614686" lon="2.866716043452972"><ele>185.0</ele><time>2026-04-22T13:40:21.001Z</time></trkpt><trkpt lat="42.44618586609449" lon="2.866626510306723"><ele>185.0</ele><time>2026-04-22T13:40:22.001Z</time></trkpt><trkpt lat="42.44635786643919" lon="2.86653829853686"><ele>185.0</ele><time>2026-04-22T13:40:23.001Z</time></trkpt><trkpt lat="42.446526833011625" lon="2.866453312681001"><ele>188.33333333333331</ele><time>2026-04-22T13:40:24.001Z</time></trkpt><trkpt lat="42.446692333331505" lon="2.8663663811507285"><ele>191.66666666666666</ele><time>2026-04-22T13:40:25.001Z</time></trkpt><trkpt lat="42.446855725467245" lon="2.866282552251899"><ele>195.0</ele><time>2026-04-22T13:40:26.001Z</time></trkpt><trkpt lat="42.44702093410865" lon="2.866203056977486"><ele>197.0</ele><time>2026-04-22T13:40:27.001Z</time></trkpt><trkpt lat="42.44718745300797" lon="2.866126779275244"><ele>199.0</ele><time>2026-04-22T13:40:28.001Z</time></trkpt><trkpt lat="42.447355993314915" lon="2.866054892701375"><ele>201.0</ele><time>2026-04-22T13:40:29.001Z</time></trkpt><trkpt lat="42.44752724799976" lon="2.8659934190145475"><ele>199.0</ele><time>2026-04-22T13:40:30.001Z</time></trkpt><trkpt lat="42.4477016378213" lon="2.8659427632364527"><ele>197.0</ele><time>2026-04-22T13:40:31.001Z</time></trkpt><trkpt lat="42.44787886513557" lon="2.8659049539709733"><ele>195.0</ele><time>2026-04-22T13:40:32.001Z</time></trkpt><trkpt lat="42.44805475197122" lon="2.865878515365589"><ele>195.0</ele><time>2026-04-22T13:40:33.001Z</time></trkpt><trkpt lat="42.44823243595428" lon="2.865860367264973"><ele>195.0</ele><time>2026-04-22T13:40:34.001Z</time></trkpt><trkpt lat="42.44840990175862" lon="2.8658446280174674"><ele>195.0</ele><time>2026-04-22T13:40:35.001Z</time></trkpt><trkpt lat="42.44858922564154" lon="2.8658399820636764"><ele>195.0</ele><time>2026-04-22T13:40:36.001Z</time></trkpt><trkpt lat="42.448768169964424" lon="2.865846598314643"><ele>195.0</ele><time>2026-04-22T13:40:37.001Z</time></trkpt><trkpt lat="42.44894950537879" lon="2.865860529562212"><ele>195.0</ele><time>2026-04-22T13:40:38.001Z</time></trkpt><trkpt lat="42.44912956651389" lon="2.8658858727338403"><ele>195.33333333333331</ele><time>2026-04-22T13:40:39.001Z</time></trkpt><trkpt lat="42.44930401195085" lon="2.865920834613083"><ele>195.66666666666666</ele><time>2026-04-22T13:40:40.001Z</time></trkpt><trkpt lat="42.44948240648794" lon="2.8659651387353526"><ele>196.0</ele><time>2026-04-22T13:40:41.001Z</time></trkpt><trkpt lat="42.44965724984965" lon="2.866018215182495"><ele>196.66666666666666</ele><time>2026-04-22T13:40:42.001Z</time></trkpt><trkpt lat="42.44983054542725" lon="2.866090322651993"><ele>197.33333333333331</ele><time>2026-04-22T13:40:43.001Z</time></trkpt><trkpt lat="42.44999840551459" lon="2.866164994136346"><ele>198.0</ele><time>2026-04-22T13:40:44.001Z</time></trkpt><trkpt lat="42.450160572568684" lon="2.8662521779045758"><ele>198.0</ele><time>2026-04-22T13:40:45.001Z</time></trkpt><trkpt lat="42.45032268436026" lon="2.866348267581941"><ele>198.0</ele><time>2026-04-22T13:40:46.001Z</time></trkpt><trkpt lat="42.45047012198009" lon="2.8664328740333413"><ele>198.0</ele><time>2026-04-22T13:40:47.001Z</time></trkpt><trkpt lat="42.45061741347542" lon="2.8665049806289367"><ele>201.0</ele><time>2026-04-22T13:40:48.001Z</time></trkpt><trkpt lat="42.45076550365711" lon="2.866554944348881"><ele>204.0</ele><time>2026-04-22T13:40:49.001Z</time></trkpt><trkpt lat="42.45106293098654" lon="2.8665965433371574"><ele>204.0</ele><time>2026-04-22T13:40:51.001Z</time></trkpt><trkpt lat="42.45120945728373" lon="2.866590086672786"><ele>204.0</ele><time>2026-04-22T13:40:52.001Z</time></trkpt><trkpt lat="42.45135945894367" lon="2.8665735653435904"><ele>204.0</ele><time>2026-04-22T13:40:53.001Z</time></trkpt><trkpt lat="42.451506181078784" lon="2.866545972091516"><ele>204.0</ele><time>2026-04-22T13:40:54.001Z</time></trkpt><trkpt lat="42.45165624409239" lon="2.8665103453716645"><ele>204.5</ele><time>2026-04-22T13:40:55.001Z</time></trkpt><trkpt lat="42.45179939103898" lon="2.8664555059041827"><ele>205.0</ele><time>2026-04-22T13:40:56.001Z</time></trkpt><trkpt lat="42.451930694769175" lon="2.866384994346803"><ele>205.5</ele><time>2026-04-22T13:40:57.001Z</time></trkpt><trkpt lat="42.452060679707486" lon="2.8662919849433894"><ele>206.0</ele><time>2026-04-22T13:40:58.001Z</time></trkpt><trkpt lat="42.45218591999666" lon="2.86618666320203"><ele>206.0</ele><time>2026-04-22T13:40:59.001Z</time></trkpt><trkpt lat="42.45230846510052" lon="2.8660655279741936"><ele>206.0</ele><time>2026-04-22T13:41:00.001Z</time></trkpt><trkpt lat="42.452420196742864" lon="2.86593162305422"><ele>206.0</ele><time>2026-04-22T13:41:01.001Z</time></trkpt><trkpt lat="42.45252835987913" lon="2.8657808157943916"><ele>209.0</ele><time>2026-04-22T13:41:02.001Z</time></trkpt><trkpt lat="42.45263706672525" lon="2.865634705112239"><ele>212.0</ele><time>2026-04-22T13:41:03.001Z</time></trkpt><trkpt lat="42.45275709132448" lon="2.865508714254227"><ele>215.0</ele><time>2026-04-22T13:41:04.001Z</time></trkpt><trkpt lat="42.452888383729814" lon="2.8653968511110013"><ele>212.66666666666669</ele><time>2026-04-22T13:41:05.001Z</time></trkpt><trkpt lat="42.45302958710722" lon="2.865303921957286"><ele>210.33333333333331</ele><time>2026-04-22T13:41:06.001Z</time></trkpt><trkpt lat="42.45317529135539" lon="2.8652257220353796"><ele>208.0</ele><time>2026-04-22T13:41:07.001Z</time></trkpt><trkpt lat="42.45332377251737" lon="2.865161640134351"><ele>208.0</ele><time>2026-04-22T13:41:08.001Z</time></trkpt><trkpt lat="42.453479219884045" lon="2.8651184835592263"><ele>208.0</ele><time>2026-04-22T13:41:09.001Z</time></trkpt><trkpt lat="42.45363999131704" lon="2.865094413688644"><ele>208.0</ele><time>2026-04-22T13:41:10.001Z</time></trkpt><trkpt lat="42.45379838094711" lon="2.8650878372468163"><ele>213.66666666666666</ele><time>2026-04-22T13:41:11.001Z</time></trkpt><trkpt lat="42.453958836880076" lon="2.8650860327402503"><ele>219.33333333333331</ele><time>2026-04-22T13:41:12.001Z</time></trkpt><trkpt lat="42.45411450635922" lon="2.8650836996226015"><ele>225.0</ele><time>2026-04-22T13:41:13.001Z</time></trkpt><trkpt lat="42.45427118987144" lon="2.86508158200685"><ele>225.0</ele><time>2026-04-22T13:41:14.001Z</time></trkpt><trkpt lat="42.45443183701188" lon="2.865081508463086"><ele>225.0</ele><time>2026-04-22T13:41:15.001Z</time></trkpt><trkpt lat="42.45458816986637" lon="2.865080325665266"><ele>225.0</ele><time>2026-04-22T13:41:16.001Z</time></trkpt><trkpt lat="42.45474575151582" lon="2.8650779502939066"><ele>226.33333333333331</ele><time>2026-04-22T13:41:17.001Z</time></trkpt><trkpt lat="42.45490384947875" lon="2.865074746813676"><ele>227.66666666666666</ele><time>2026-04-22T13:41:18.001Z</time></trkpt><trkpt lat="42.45505983345663" lon="2.8650702386705142"><ele>229.0</ele><time>2026-04-22T13:41:19.001Z</time></trkpt><trkpt lat="42.455208264727965" lon="2.8650670789061494"><ele>229.0</ele><time>2026-04-22T13:41:20.001Z</time></trkpt><trkpt lat="42.455350693622684" lon="2.8650655455865177"><ele>229.0</ele><time>2026-04-22T13:41:21.001Z</time></trkpt><trkpt lat="42.455492068950505" lon="2.865057499771093"><ele>229.0</ele><time>2026-04-22T13:41:22.001Z</time></trkpt><trkpt lat="42.455638689995666" lon="2.8650477332148623"><ele>229.0</ele><time>2026-04-22T13:41:23.001Z</time></trkpt><trkpt lat="42.455782498589045" lon="2.865041287482749"><ele>229.25</ele><time>2026-04-22T13:41:24.001Z</time></trkpt><trkpt lat="42.45592639687079" lon="2.8650336453099654"><ele>229.5</ele><time>2026-04-22T13:41:25.001Z</time></trkpt><trkpt lat="42.456068077495836" lon="2.865028809955001"><ele>229.75</ele><time>2026-04-22T13:41:26.001Z</time></trkpt><trkpt lat="42.45620868569872" lon="2.8650250812704945"><ele>230.0</ele><time>2026-04-22T13:41:27.001Z</time></trkpt><trkpt lat="42.456349298749245" lon="2.8650166487825786"><ele>231.5</ele><time>2026-04-22T13:41:28.001Z</time></trkpt><trkpt lat="42.45648718321529" lon="2.8650019827349045"><ele>233.0</ele><time>2026-04-22T13:41:29.001Z</time></trkpt><trkpt lat="42.45662206683579" lon="2.864982924866019"><ele>234.5</ele><time>2026-04-22T13:41:30.001Z</time></trkpt><trkpt lat="42.4567567397404" lon="2.864959150189653"><ele>236.0</ele><time>2026-04-22T13:41:31.001Z</time></trkpt><trkpt lat="42.45688390634923" lon="2.86493159284195"><ele>236.0</ele><time>2026-04-22T13:41:32.001Z</time></trkpt><trkpt lat="42.45701271802718" lon="2.8649030938613556"><ele>236.0</ele><time>2026-04-22T13:41:33.001Z</time></trkpt><trkpt lat="42.457134375436844" lon="2.864870371871288"><ele>236.0</ele><time>2026-04-22T13:41:34.001Z</time></trkpt><trkpt lat="42.45725318181748" lon="2.8648409659994574"><ele>236.0</ele><time>2026-04-22T13:41:35.001Z</time></trkpt><trkpt lat="42.45736803049235" lon="2.864810006482598"><ele>238.20000000000002</ele><time>2026-04-22T13:41:36.001Z</time></trkpt><trkpt lat="42.45747720275454" lon="2.8647830213802776"><ele>240.40000000000003</ele><time>2026-04-22T13:41:37.001Z</time></trkpt><trkpt lat="42.45757925321977" lon="2.8647569391083003"><ele>242.6</ele><time>2026-04-22T13:41:38.001Z</time></trkpt><trkpt lat="42.45768304321717" lon="2.8647293627000265"><ele>244.8</ele><time>2026-04-22T13:41:39.001Z</time></trkpt><trkpt lat="42.45778669646535" lon="2.864704601473636"><ele>247.0</ele><time>2026-04-22T13:41:40.001Z</time></trkpt><trkpt lat="42.45788711031722" lon="2.864677880209556"><ele>249.6</ele><time>2026-04-22T13:41:41.001Z</time></trkpt><trkpt lat="42.45798907110608" lon="2.8646530485990875"><ele>252.2</ele><time>2026-04-22T13:41:42.001Z</time></trkpt><trkpt lat="42.4580901902199" lon="2.8646291813109697"><ele>254.8</ele><time>2026-04-22T13:41:43.001Z</time></trkpt><trkpt lat="42.458182643683095" lon="2.8646045461311718"><ele>257.4</ele><time>2026-04-22T13:41:44.001Z</time></trkpt><trkpt lat="42.45826818501144" lon="2.8645791598731805"><ele>260.0</ele><time>2026-04-22T13:41:45.001Z</time></trkpt><trkpt lat="42.458350869555" lon="2.864546374444323"><ele>260.0</ele><time>2026-04-22T13:41:46.001Z</time></trkpt><trkpt lat="42.458432365171085" lon="2.8645106470348676"><ele>260.0</ele><time>2026-04-22T13:41:47.001Z</time></trkpt><trkpt lat="42.45850578186897" lon="2.86446092258954"><ele>260.0</ele><time>2026-04-22T13:41:48.001Z</time></trkpt><trkpt lat="42.458577833465036" lon="2.8644091055196066"><ele>260.0</ele><time>2026-04-22T13:41:49.001Z</time></trkpt><trkpt lat="42.45864630358223" lon="2.864355125242501"><ele>260.0</ele><time>2026-04-22T13:41:50.001Z</time></trkpt><trkpt lat="42.45871284466099" lon="2.864303785967957"><ele>260.0</ele><time>2026-04-22T13:41:51.001Z</time></trkpt><trkpt lat="42.45877782966598" lon="2.8642566869676473"><ele>258.0</ele><time>2026-04-22T13:41:52.001Z</time></trkpt><trkpt lat="42.458841693702155" lon="2.864225827512722"><ele>256.0</ele><time>2026-04-22T13:41:53.001Z</time></trkpt><trkpt lat="42.458966555667196" lon="2.8641863880197045"><ele>254.0</ele><time>2026-04-22T13:41:55.001Z</time></trkpt><trkpt lat="42.45908504551786" lon="2.864158118299879"><ele>252.0</ele><time>2026-04-22T13:41:57.001Z</time></trkpt><trkpt lat="42.4592066725542" lon="2.8641301250358047"><ele>250.0</ele><time>2026-04-22T13:41:59.001Z</time></trkpt><trkpt lat="42.459325153391376" lon="2.864131946100933"><ele>249.99999999999997</ele><time>2026-04-22T13:42:01.001Z</time></trkpt><trkpt lat="42.459388827677856" lon="2.8641389382195666"><ele>250.0</ele><time>2026-04-22T13:42:02.001Z</time></trkpt><trkpt lat="42.45950612027504" lon="2.864152691690206"><ele>250.0</ele><time>2026-04-22T13:42:04.001Z</time></trkpt><trkpt lat="42.4595825549766" lon="2.8641597794651026"><ele>250.0</ele><time>2026-04-22T13:42:06.001Z</time></trkpt><trkpt lat="42.4596627937829" lon="2.8641639391612648"><ele>249.99999999999997</ele><time>2026-04-22T13:42:09.001Z</time></trkpt><trkpt lat="42.45973068803919" lon="2.8641681254358167"><ele>250.0</ele><time>2026-04-22T13:42:14.001Z</time></trkpt><trkpt lat="42.459797287219075" lon="2.8641646303269264"><ele>250.33333333333331</ele><time>2026-04-22T13:42:20.001Z</time></trkpt><trkpt lat="42.45986654228422" lon="2.86416199562127"><ele>250.66666666666666</ele><time>2026-04-22T13:42:28.001Z</time></trkpt><trkpt lat="42.45993676560451" lon="2.8641605331877726"><ele>251.0</ele><time>2026-04-22T13:42:32.001Z</time></trkpt><trkpt lat="42.460009223888726" lon="2.8641620444692495"><ele>251.33333333333331</ele><time>2026-04-22T13:42:38.001Z</time></trkpt><trkpt lat="42.460079473025196" lon="2.8641744041919988"><ele>251.66666666666666</ele><time>2026-04-22T13:42:42.001Z</time></trkpt><trkpt lat="42.46018030430932" lon="2.8641650840990227"><ele>252.0</ele><time>2026-04-22T13:42:45.001Z</time></trkpt><trkpt lat="42.460260174132586" lon="2.864161515884936"><ele>252.0</ele><time>2026-04-22T13:42:47.001Z</time></trkpt><trkpt lat="42.46034695987748" lon="2.8641580455581432"><ele>252.0</ele><time>2026-04-22T13:42:49.001Z</time></trkpt><trkpt lat="42.460453880491485" lon="2.864148672842067"><ele>252.0</ele><time>2026-04-22T13:42:51.001Z</time></trkpt><trkpt lat="42.46055375411072" lon="2.8641471993894396"><ele>252.0</ele><time>2026-04-22T13:42:53.001Z</time></trkpt><trkpt lat="42.46065185893147" lon="2.8641403462556863"><ele>252.0</ele><time>2026-04-22T13:42:55.001Z</time></trkpt><trkpt lat="42.46074758412136" lon="2.8641281649126658"><ele>253.8</ele><time>2026-04-22T13:42:57.001Z</time></trkpt><trkpt lat="42.460848288607615" lon="2.864119909406766"><ele>255.6</ele><time>2026-04-22T13:42:59.001Z</time></trkpt><trkpt lat="42.46095000487479" lon="2.8641045122604383"><ele>257.40000000000003</ele><time>2026-04-22T13:43:01.001Z</time></trkpt><trkpt lat="42.461045080366624" lon="2.8640827513272"><ele>259.2</ele><time>2026-04-22T13:43:03.001Z</time></trkpt><trkpt lat="42.46113191642694" lon="2.8640619406113124"><ele>261.0</ele><time>2026-04-22T13:43:05.001Z</time></trkpt><trkpt lat="42.46121597605904" lon="2.8640342431361527"><ele>262.40000000000003</ele><time>2026-04-22T13:43:07.001Z</time></trkpt><trkpt lat="42.46130215620686" lon="2.864014515116068"><ele>263.8</ele><time>2026-04-22T13:43:09.001Z</time></trkpt><trkpt lat="42.461392852583536" lon="2.8639952247867657"><ele>265.20000000000005</ele><time>2026-04-22T13:43:11.001Z</time></trkpt><trkpt lat="42.46148544392568" lon="2.863973261192983"><ele>266.6</ele><time>2026-04-22T13:43:13.001Z</time></trkpt><trkpt lat="42.46158121968212" lon="2.863940916930627"><ele>268.0</ele><time>2026-04-22T13:43:15.001Z</time></trkpt><trkpt lat="42.461678687046366" lon="2.8639060459757717"><ele>268.0</ele><time>2026-04-22T13:43:17.001Z</time></trkpt><trkpt lat="42.461782477969486" lon="2.8638768113909485"><ele>268.0</ele><time>2026-04-22T13:43:19.001Z</time></trkpt><trkpt lat="42.461881659496655" lon="2.863857034355191"><ele>268.0</ele><time>2026-04-22T13:43:21.001Z</time></trkpt><trkpt lat="42.46195305691721" lon="2.8638354630345466"><ele>268.0</ele><time>2026-04-22T13:43:23.001Z</time></trkpt><trkpt lat="42.46203667670637" lon="2.8638065223040265"><ele>268.0</ele><time>2026-04-22T13:43:26.001Z</time></trkpt><trkpt lat="42.462121626255495" lon="2.8637680748411047"><ele>268.8333333333333</ele><time>2026-04-22T13:43:29.001Z</time></trkpt><trkpt lat="42.462210893602624" lon="2.8637427234154615"><ele>269.66666666666663</ele><time>2026-04-22T13:43:32.001Z</time></trkpt><trkpt lat="42.46229769072111" lon="2.8637148041274965"><ele>270.5</ele><time>2026-04-22T13:43:35.001Z</time></trkpt><trkpt lat="42.46236295045231" lon="2.863705156156012"><ele>271.3333333333333</ele><time>2026-04-22T13:43:37.001Z</time></trkpt><trkpt lat="42.462447437969296" lon="2.8636915989806786"><ele>272.1666666666667</ele><time>2026-04-22T13:43:40.001Z</time></trkpt><trkpt lat="42.462523532274545" lon="2.863665676167451"><ele>273.0</ele><time>2026-04-22T13:43:43.001Z</time></trkpt><trkpt lat="42.46259662034231" lon="2.863643105471245"><ele>273.0</ele><time>2026-04-22T13:43:46.001Z</time></trkpt><trkpt lat="42.462656883523145" lon="2.863613840329383"><ele>273.0</ele><time>2026-04-22T13:43:50.001Z</time></trkpt><trkpt lat="42.46272990842942" lon="2.86358789378032"><ele>273.0</ele><time>2026-04-22T13:43:52.001Z</time></trkpt><trkpt lat="42.462817478512015" lon="2.8635686290051585"><ele>273.0</ele><time>2026-04-22T13:43:54.001Z</time></trkpt><trkpt lat="42.46289583434764" lon="2.8635474608496896"><ele>273.0</ele><time>2026-04-22T13:43:56Z</time></trkpt><trkpt lat="42.46296718454391" lon="2.8635298140658563"><ele>273.0</ele><time>2026-04-22T13:43:58Z</time></trkpt><trkpt lat="42.46303793207937" lon="2.863516527267804"><ele>273.8333333333333</ele><time>2026-04-22T13:44:00Z</time></trkpt><trkpt lat="42.46311707195523" lon="2.863488095394333"><ele>274.6666666666667</ele><time>2026-04-22T13:44:03Z</time></trkpt><trkpt lat="42.46320858247145" lon="2.8635031323495355"><ele>275.5</ele><time>2026-04-22T13:44:45Z</time></trkpt><trkpt lat="42.463280578309494" lon="2.863481369041135"><ele>276.33333333333337</ele><time>2026-04-22T13:44:48Z</time></trkpt><trkpt lat="42.463350255533896" lon="2.863463041453769"><ele>277.1666666666667</ele><time>2026-04-22T13:44:52Z</time></trkpt><trkpt lat="42.46341820929663" lon="2.8634447587731846"><ele>278.0</ele><time>2026-04-22T13:44:55Z</time></trkpt><trkpt lat="42.463482000345245" lon="2.8634264096181687"><ele>278.0</ele><time>2026-04-22T13:44:57Z</time></trkpt><trkpt lat="42.46356299075122" lon="2.863406557744794"><ele>278.0</ele><time>2026-04-22T13:44:59Z</time></trkpt><trkpt lat="42.463656962983215" lon="2.863375317142887"><ele>278.0</ele><time>2026-04-22T13:45:01Z</time></trkpt><trkpt lat="42.46374687743239" lon="2.863338364790514"><ele>278.0</ele><time>2026-04-22T13:45:03Z</time></trkpt><trkpt lat="42.46385487028648" lon="2.8632975564424075"><ele>278.0</ele><time>2026-04-22T13:45:05Z</time></trkpt><trkpt lat="42.463963189578614" lon="2.8632618667648035"><ele>278.8</ele><time>2026-04-22T13:45:07Z</time></trkpt><trkpt lat="42.46407173172058" lon="2.8632289237265898"><ele>279.6</ele><time>2026-04-22T13:45:09Z</time></trkpt><trkpt lat="42.46417615502803" lon="2.863200751394905"><ele>280.4</ele><time>2026-04-22T13:45:11Z</time></trkpt><trkpt lat="42.46427632787979" lon="2.8631676893673874"><ele>281.2</ele><time>2026-04-22T13:45:13Z</time></trkpt><trkpt lat="42.46437453510608" lon="2.8631440555081267"><ele>282.0</ele><time>2026-04-22T13:45:15Z</time></trkpt><trkpt lat="42.46446161539875" lon="2.8631428584605962"><ele>282.0</ele><time>2026-04-22T13:45:17Z</time></trkpt><trkpt lat="42.46455564327088" lon="2.86315787747012"><ele>282.0</ele><time>2026-04-22T13:45:19Z</time></trkpt><trkpt lat="42.46466572939625" lon="2.8631766550452604"><ele>282.0</ele><time>2026-04-22T13:45:21Z</time></trkpt><trkpt lat="42.46478977465138" lon="2.863196708136727"><ele>282.0</ele><time>2026-04-22T13:45:23Z</time></trkpt><trkpt lat="42.46489669245002" lon="2.86320294786957"><ele>282.0</ele><time>2026-04-22T13:45:25Z</time></trkpt><trkpt lat="42.46498231059847" lon="2.8632313696317775"><ele>282.57142857142856</ele><time>2026-04-22T13:45:27Z</time></trkpt><trkpt lat="42.46506208345479" lon="2.8632211400485175"><ele>283.1428571428571</ele><time>2026-04-22T13:45:29Z</time></trkpt><trkpt lat="42.46513387715545" lon="2.8632192285272837"><ele>283.71428571428567</ele><time>2026-04-22T13:45:31Z</time></trkpt><trkpt lat="42.46520113099852" lon="2.8632219434851574"><ele>284.2857142857143</ele><time>2026-04-22T13:45:33Z</time></trkpt><trkpt lat="42.46526855326242" lon="2.863220859861022"><ele>284.85714285714283</ele><time>2026-04-22T13:45:35Z</time></trkpt><trkpt lat="42.46533255419397" lon="2.8632135059653483"><ele>285.4285714285714</ele><time>2026-04-22T13:45:37Z</time></trkpt><trkpt lat="42.465404341497745" lon="2.863210212947523"><ele>286.0</ele><time>2026-04-22T13:45:39Z</time></trkpt><trkpt lat="42.465525122762344" lon="2.863216409967658"><ele>285.99999999999994</ele><time>2026-04-22T13:45:41Z</time></trkpt><trkpt lat="42.46558901288841" lon="2.863218203005069"><ele>286.0</ele><time>2026-04-22T13:45:42Z</time></trkpt><trkpt lat="42.46565427046693" lon="2.863216377450535"><ele>286.0</ele><time>2026-04-22T13:45:43Z</time></trkpt><trkpt lat="42.46571801236239" lon="2.863207189398672"><ele>286.0</ele><time>2026-04-22T13:45:44Z</time></trkpt><trkpt lat="42.46578435027991" lon="2.8631879272391125"><ele>286.0</ele><time>2026-04-22T13:45:45Z</time></trkpt><trkpt lat="42.46585303789256" lon="2.8631629596909027"><ele>285.99999999999994</ele><time>2026-04-22T13:45:46Z</time></trkpt><trkpt lat="42.46592432763494" lon="2.86312826486428"><ele>286.0</ele><time>2026-04-22T13:45:47Z</time></trkpt><trkpt lat="42.46599639439223" lon="2.8630857442184454"><ele>286.0</ele><time>2026-04-22T13:45:48Z</time></trkpt><trkpt lat="42.46606451845886" lon="2.8630401977593056"><ele>286.0</ele><time>2026-04-22T13:45:49Z</time></trkpt><trkpt lat="42.46613397549984" lon="2.8629909064734047"><ele>286.0</ele><time>2026-04-22T13:45:50Z</time></trkpt><trkpt lat="42.46620589402218" lon="2.8629370051224114"><ele>286.0</ele><time>2026-04-22T13:45:51Z</time></trkpt><trkpt lat="42.466283072882426" lon="2.8628655254300215"><ele>286.0</ele><time>2026-04-22T13:45:52Z</time></trkpt><trkpt lat="42.46636593965581" lon="2.8627929400754084"><ele>286.0</ele><time>2026-04-22T13:45:53Z</time></trkpt><trkpt lat="42.46645300479619" lon="2.8627180175122424"><ele>285.0</ele><time>2026-04-22T13:45:54Z</time></trkpt><trkpt lat="42.466543375806" lon="2.86265875514358"><ele>284.0</ele><time>2026-04-22T13:45:55Z</time></trkpt><trkpt lat="42.466643413310265" lon="2.8626103370458953"><ele>283.0</ele><time>2026-04-22T13:45:56Z</time></trkpt><trkpt lat="42.4667468602847" lon="2.862564195587405"><ele>282.0</ele><time>2026-04-22T13:45:57Z</time></trkpt><trkpt lat="42.46685120077006" lon="2.8625232346305802"><ele>281.0</ele><time>2026-04-22T13:45:58Z</time></trkpt><trkpt lat="42.46695146739561" lon="2.8624797652326706"><ele>281.0</ele><time>2026-04-22T13:45:59Z</time></trkpt><trkpt lat="42.4670480583201" lon="2.862431916004086"><ele>281.0</ele><time>2026-04-22T13:46:00Z</time></trkpt><trkpt lat="42.46714123370924" lon="2.862371589010912"><ele>281.0</ele><time>2026-04-22T13:46:01Z</time></trkpt><trkpt lat="42.46722886360395" lon="2.862297485332925"><ele>281.0</ele><time>2026-04-22T13:46:02Z</time></trkpt><trkpt lat="42.46731198292143" lon="2.8622097806676443"><ele>281.0</ele><time>2026-04-22T13:46:03Z</time></trkpt><trkpt lat="42.467395409711074" lon="2.8621079776183636"><ele>280.75</ele><time>2026-04-22T13:46:04Z</time></trkpt><trkpt lat="42.46747668952613" lon="2.861994557148286"><ele>280.5</ele><time>2026-04-22T13:46:05Z</time></trkpt><trkpt lat="42.46755355418236" lon="2.861872993902172"><ele>280.25</ele><time>2026-04-22T13:46:06Z</time></trkpt><trkpt lat="42.467634992937974" lon="2.861746141880604"><ele>280.0</ele><time>2026-04-22T13:46:07Z</time></trkpt><trkpt lat="42.46772219293385" lon="2.861639555397976"><ele>280.0</ele><time>2026-04-22T13:46:08Z</time></trkpt><trkpt lat="42.46781770357521" lon="2.861542262092643"><ele>280.0</ele><time>2026-04-22T13:46:09Z</time></trkpt><trkpt lat="42.46791933627058" lon="2.8614506518013747"><ele>280.0</ele><time>2026-04-22T13:46:10Z</time></trkpt><trkpt lat="42.468024938127826" lon="2.8613612852798673"><ele>280.0</ele><time>2026-04-22T13:46:11Z</time></trkpt><trkpt lat="42.4681302349433" lon="2.861269081324358"><ele>276.5</ele><time>2026-04-22T13:46:12Z</time></trkpt><trkpt lat="42.468224457570074" lon="2.8611630608840875"><ele>273.0</ele><time>2026-04-22T13:46:13Z</time></trkpt><trkpt lat="42.46831175323283" lon="2.8610468594871206"><ele>269.5</ele><time>2026-04-22T13:46:14Z</time></trkpt><trkpt lat="42.468387762334665" lon="2.8609155981507968"><ele>266.0</ele><time>2026-04-22T13:46:15Z</time></trkpt><trkpt lat="42.46845320126722" lon="2.860768670095913"><ele>266.0</ele><time>2026-04-22T13:46:16Z</time></trkpt><trkpt lat="42.46851185399829" lon="2.860607482599738"><ele>266.0</ele><time>2026-04-22T13:46:17Z</time></trkpt><trkpt lat="42.46855558105907" lon="2.8604460472683244"><ele>266.0</ele><time>2026-04-22T13:46:18Z</time></trkpt><trkpt lat="42.468584513211276" lon="2.8602818327350885"><ele>266.0</ele><time>2026-04-22T13:46:19Z</time></trkpt><trkpt lat="42.46859975361401" lon="2.8601131142515066"><ele>268.0</ele><time>2026-04-22T13:46:20Z</time></trkpt><trkpt lat="42.46860806500844" lon="2.859944922883779"><ele>270.0</ele><time>2026-04-22T13:46:21Z</time></trkpt><trkpt lat="42.468614469386964" lon="2.859772703766665"><ele>272.0</ele><time>2026-04-22T13:46:22Z</time></trkpt><trkpt lat="42.46861907234672" lon="2.85959578269026"><ele>274.0</ele><time>2026-04-22T13:46:23Z</time></trkpt><trkpt lat="42.46862801627634" lon="2.8594181375219265"><ele>274.25</ele><time>2026-04-22T13:46:24Z</time></trkpt><trkpt lat="42.46864239499135" lon="2.8592407102390487"><ele>274.5</ele><time>2026-04-22T13:46:25Z</time></trkpt><trkpt lat="42.46867108031328" lon="2.859069079628874"><ele>274.75</ele><time>2026-04-22T13:46:26Z</time></trkpt><trkpt lat="42.46871212617698" lon="2.858905166086878"><ele>275.0</ele><time>2026-04-22T13:46:27Z</time></trkpt><trkpt lat="42.468766533682135" lon="2.8587473351294346"><ele>268.75</ele><time>2026-04-22T13:46:28Z</time></trkpt><trkpt lat="42.46883828297343" lon="2.858598291099772"><ele>262.5</ele><time>2026-04-22T13:46:29Z</time></trkpt><trkpt lat="42.46891902193008" lon="2.8584469274682234"><ele>256.25</ele><time>2026-04-22T13:46:30Z</time></trkpt><trkpt lat="42.469008331659964" lon="2.8582996754119314"><ele>250.0</ele><time>2026-04-22T13:46:31Z</time></trkpt><trkpt lat="42.46910692505435" lon="2.8581696459695394"><ele>250.0</ele><time>2026-04-22T13:46:32Z</time></trkpt><trkpt lat="42.46922053231834" lon="2.8580541381217"><ele>250.0</ele><time>2026-04-22T13:46:33Z</time></trkpt><trkpt lat="42.469344647852374" lon="2.8579544997694803"><ele>250.0</ele><time>2026-04-22T13:46:34Z</time></trkpt><trkpt lat="42.4694737274728" lon="2.8578713463581007"><ele>250.0</ele><time>2026-04-22T13:46:35Z</time></trkpt><trkpt lat="42.469601529719526" lon="2.857810984010708"><ele>245.5</ele><time>2026-04-22T13:46:36Z</time></trkpt><trkpt lat="42.46973019853456" lon="2.8577662228447718"><ele>241.0</ele><time>2026-04-22T13:46:37Z</time></trkpt><trkpt lat="42.469870987625136" lon="2.8577426289291763"><ele>236.5</ele><time>2026-04-22T13:46:38Z</time></trkpt><trkpt lat="42.47001267837659" lon="2.857735571471254"><ele>232.0</ele><time>2026-04-22T13:46:39Z</time></trkpt><trkpt lat="42.4701490999865" lon="2.8577320447999277"><ele>232.0</ele><time>2026-04-22T13:46:40Z</time></trkpt><trkpt lat="42.470289173677536" lon="2.85772508242606"><ele>232.0</ele><time>2026-04-22T13:46:41Z</time></trkpt><trkpt lat="42.47042770029526" lon="2.857718017735659"><ele>232.0</ele><time>2026-04-22T13:46:42Z</time></trkpt><trkpt lat="42.47056502499233" lon="2.8577122872747442"><ele>232.0</ele><time>2026-04-22T13:46:43Z</time></trkpt><trkpt lat="42.47069880581081" lon="2.857706704218135"><ele>232.25</ele><time>2026-04-22T13:46:44Z</time></trkpt><trkpt lat="42.470824044799535" lon="2.857704747340503"><ele>232.5</ele><time>2026-04-22T13:46:45Z</time></trkpt><trkpt lat="42.47094936332783" lon="2.857698527262972"><ele>232.75</ele><time>2026-04-22T13:46:46Z</time></trkpt><trkpt lat="42.47107334604623" lon="2.8576927382901234"><ele>233.0</ele><time>2026-04-22T13:46:47Z</time></trkpt><trkpt lat="42.471193326981286" lon="2.857700975695093"><ele>236.5</ele><time>2026-04-22T13:46:48Z</time></trkpt><trkpt lat="42.47130360691009" lon="2.8577348061875236"><ele>240.0</ele><time>2026-04-22T13:46:49Z</time></trkpt><trkpt lat="42.47140279642156" lon="2.857792478957355"><ele>243.5</ele><time>2026-04-22T13:46:50Z</time></trkpt><trkpt lat="42.47150690737748" lon="2.857863119497865"><ele>247.0</ele><time>2026-04-22T13:46:51Z</time></trkpt><trkpt lat="42.471616902921774" lon="2.8579249260703947"><ele>247.0</ele><time>2026-04-22T13:46:52Z</time></trkpt><trkpt lat="42.47173257781521" lon="2.857966001327582"><ele>247.0</ele><time>2026-04-22T13:46:53Z</time></trkpt><trkpt lat="42.471846074972454" lon="2.857984510072958"><ele>247.0</ele><time>2026-04-22T13:46:54Z</time></trkpt><trkpt lat="42.471964973388026" lon="2.8579776466632314"><ele>247.0</ele><time>2026-04-22T13:46:55Z</time></trkpt><trkpt lat="42.472073865752066" lon="2.8579320392217165"><ele>247.75</ele><time>2026-04-22T13:46:56Z</time></trkpt><trkpt lat="42.472182063452756" lon="2.8578599546080667"><ele>248.5</ele><time>2026-04-22T13:46:57Z</time></trkpt><trkpt lat="42.47228338320057" lon="2.8577635038607614"><ele>249.25</ele><time>2026-04-22T13:46:58Z</time></trkpt><trkpt lat="42.4723957707669" lon="2.8576601141226963"><ele>250.0</ele><time>2026-04-22T13:46:59Z</time></trkpt><trkpt lat="42.47250979897799" lon="2.857552574112242"><ele>250.0</ele><time>2026-04-22T13:47:00Z</time></trkpt><trkpt lat="42.47261297335595" lon="2.8574492539136513"><ele>250.0</ele><time>2026-04-22T13:47:01Z</time></trkpt><trkpt lat="42.47272555652156" lon="2.857345658399379"><ele>250.0</ele><time>2026-04-22T13:47:02Z</time></trkpt><trkpt lat="42.47283608571693" lon="2.85723920644234"><ele>250.0</ele><time>2026-04-22T13:47:03Z</time></trkpt><trkpt lat="42.472943982087" lon="2.8571261383697317"><ele>252.75</ele><time>2026-04-22T13:47:04Z</time></trkpt><trkpt lat="42.47304712566785" lon="2.8570125377935613"><ele>255.5</ele><time>2026-04-22T13:47:05Z</time></trkpt><trkpt lat="42.473143285143244" lon="2.8568906523468978"><ele>258.25</ele><time>2026-04-22T13:47:06Z</time></trkpt><trkpt lat="42.47322722199757" lon="2.856756592725622"><ele>261.0</ele><time>2026-04-22T13:47:07Z</time></trkpt><trkpt lat="42.473295056393106" lon="2.8566146546641558"><ele>255.5</ele><time>2026-04-22T13:47:08Z</time></trkpt><trkpt lat="42.47334874555481" lon="2.8564581765175263"><ele>250.0</ele><time>2026-04-22T13:47:09Z</time></trkpt><trkpt lat="42.473383164585194" lon="2.8562863399824363"><ele>244.5</ele><time>2026-04-22T13:47:10Z</time></trkpt><trkpt lat="42.473393177032996" lon="2.8561055602556276"><ele>239.0</ele><time>2026-04-22T13:47:11Z</time></trkpt><trkpt lat="42.473393012114634" lon="2.855922506562512"><ele>237.25</ele><time>2026-04-22T13:47:12Z</time></trkpt><trkpt lat="42.473393882602984" lon="2.855739979145711"><ele>235.5</ele><time>2026-04-22T13:47:13Z</time></trkpt><trkpt lat="42.47339487306018" lon="2.8555561338108246"><ele>233.75</ele><time>2026-04-22T13:47:14Z</time></trkpt><trkpt lat="42.47338929554387" lon="2.855371190573346"><ele>232.0</ele><time>2026-04-22T13:47:15Z</time></trkpt><trkpt lat="42.47337210751806" lon="2.855194090027102"><ele>232.75</ele><time>2026-04-22T13:47:16Z</time></trkpt><trkpt lat="42.47333274628974" lon="2.8550197388211913"><ele>233.5</ele><time>2026-04-22T13:47:17Z</time></trkpt><trkpt lat="42.47327160168619" lon="2.8548558702507876"><ele>234.25</ele><time>2026-04-22T13:47:18Z</time></trkpt><trkpt lat="42.47319339867039" lon="2.854702567224574"><ele>235.0</ele><time>2026-04-22T13:47:19Z</time></trkpt><trkpt lat="42.47309900606025" lon="2.854566608876454"><ele>235.0</ele><time>2026-04-22T13:47:20Z</time></trkpt><trkpt lat="42.47299091685872" lon="2.8544513280401107"><ele>235.0</ele><time>2026-04-22T13:47:21Z</time></trkpt><trkpt lat="42.47287447102548" lon="2.8543599009425122"><ele>235.0</ele><time>2026-04-22T13:47:22Z</time></trkpt><trkpt lat="42.472744140723584" lon="2.854301102716005"><ele>235.0</ele><time>2026-04-22T13:47:23Z</time></trkpt><trkpt lat="42.47260352825078" lon="2.854259805838431"><ele>233.5</ele><time>2026-04-22T13:47:24Z</time></trkpt><trkpt lat="42.472467080732386" lon="2.8542246288391304"><ele>232.0</ele><time>2026-04-22T13:47:25Z</time></trkpt><trkpt lat="42.472329855659076" lon="2.8541885098955526"><ele>230.5</ele><time>2026-04-22T13:47:26Z</time></trkpt><trkpt lat="42.47220069555039" lon="2.8541348661466683"><ele>229.0</ele><time>2026-04-22T13:47:27Z</time></trkpt><trkpt lat="42.4720789283111" lon="2.854052784238712"><ele>226.5</ele><time>2026-04-22T13:47:28Z</time></trkpt><trkpt lat="42.471964704675" lon="2.8539263442624816"><ele>224.0</ele><time>2026-04-22T13:47:29Z</time></trkpt><trkpt lat="42.471878631546346" lon="2.8537849117341465"><ele>221.5</ele><time>2026-04-22T13:47:30Z</time></trkpt><trkpt lat="42.47182183310825" lon="2.853615353645309"><ele>219.0</ele><time>2026-04-22T13:47:31Z</time></trkpt><trkpt lat="42.47179449036658" lon="2.8534323337020724"><ele>219.0</ele><time>2026-04-22T13:47:32Z</time></trkpt><trkpt lat="42.47180130774749" lon="2.853230582679403"><ele>219.0</ele><time>2026-04-22T13:47:33Z</time></trkpt><trkpt lat="42.47184261418761" lon="2.853041571856355"><ele>219.0</ele><time>2026-04-22T13:47:34Z</time></trkpt><trkpt lat="42.47191125919392" lon="2.852869761326293"><ele>219.0</ele><time>2026-04-22T13:47:35Z</time></trkpt><trkpt lat="42.47201829327877" lon="2.852713356073929"><ele>218.0</ele><time>2026-04-22T13:47:36Z</time></trkpt><trkpt lat="42.47214338915224" lon="2.8526067889633904"><ele>217.0</ele><time>2026-04-22T13:47:37Z</time></trkpt><trkpt lat="42.472282061278094" lon="2.8525378905867234"><ele>216.0</ele><time>2026-04-22T13:47:38Z</time></trkpt><trkpt lat="42.47243110163269" lon="2.852512504879771"><ele>215.0</ele><time>2026-04-22T13:47:39Z</time></trkpt><trkpt lat="42.472586117473504" lon="2.8525427790559372"><ele>215.0</ele><time>2026-04-22T13:47:40Z</time></trkpt><trkpt lat="42.47273005083841" lon="2.8526102458370173"><ele>215.0</ele><time>2026-04-22T13:47:41Z</time></trkpt><trkpt lat="42.47287039263439" lon="2.8526926719850403"><ele>215.0</ele><time>2026-04-22T13:47:42Z</time></trkpt><trkpt lat="42.473007020876935" lon="2.852765641131451"><ele>223.66666666666669</ele><time>2026-04-22T13:47:43Z</time></trkpt><trkpt lat="42.473297780338065" lon="2.85283226500298"><ele>232.33333333333331</ele><time>2026-04-22T13:47:45Z</time></trkpt><trkpt lat="42.47344633730791" lon="2.852804655797547"><ele>241.0</ele><time>2026-04-22T13:47:46Z</time></trkpt><trkpt lat="42.473586736325736" lon="2.852739912140977"><ele>237.0</ele><time>2026-04-22T13:47:47Z</time></trkpt><trkpt lat="42.47381435962198" lon="2.8525270952118333"><ele>233.0</ele><time>2026-04-22T13:47:49Z</time></trkpt><trkpt lat="42.47388773672351" lon="2.8523783178714726"><ele>229.0</ele><time>2026-04-22T13:47:50Z</time></trkpt><trkpt lat="42.47394397534712" lon="2.8522104236306376"><ele>229.0</ele><time>2026-04-22T13:47:51Z</time></trkpt><trkpt lat="42.473973371164256" lon="2.8520276660626163"><ele>229.0</ele><time>2026-04-22T13:47:52Z</time></trkpt><trkpt lat="42.47399172104061" lon="2.851849518596469"><ele>229.0</ele><time>2026-04-22T13:47:53Z</time></trkpt><trkpt lat="42.4740096790812" lon="2.8516682125092188"><ele>229.0</ele><time>2026-04-22T13:47:54Z</time></trkpt><trkpt lat="42.474022884539174" lon="2.8514868153318886"><ele>224.66666666666666</ele><time>2026-04-22T13:47:55Z</time></trkpt><trkpt lat="42.47403895771511" lon="2.8513077038517314"><ele>220.33333333333331</ele><time>2026-04-22T13:47:56Z</time></trkpt><trkpt lat="42.474064883591254" lon="2.8509457359829358"><ele>216.0</ele><time>2026-04-22T13:47:58Z</time></trkpt><trkpt lat="42.4740790918937" lon="2.8507629507832797"><ele>213.75</ele><time>2026-04-22T13:47:59Z</time></trkpt><trkpt lat="42.474096377216" lon="2.850582254070811"><ele>211.5</ele><time>2026-04-22T13:48:00Z</time></trkpt><trkpt lat="42.4741076305955" lon="2.8503981471079776"><ele>209.25</ele><time>2026-04-22T13:48:01Z</time></trkpt><trkpt lat="42.474125896709154" lon="2.850216952174947"><ele>207.0</ele><time>2026-04-22T13:48:02Z</time></trkpt><trkpt lat="42.47414943667698" lon="2.850040294474174"><ele>205.5</ele><time>2026-04-22T13:48:03Z</time></trkpt><trkpt lat="42.47417839141641" lon="2.849860053480573"><ele>204.0</ele><time>2026-04-22T13:48:04Z</time></trkpt><trkpt lat="42.47421383581011" lon="2.849683382804028"><ele>202.5</ele><time>2026-04-22T13:48:05Z</time></trkpt><trkpt lat="42.474255679609065" lon="2.84951144447333"><ele>201.0</ele><time>2026-04-22T13:48:06Z</time></trkpt><trkpt lat="42.474294211224596" lon="2.8493360870931133"><ele>200.5</ele><time>2026-04-22T13:48:07Z</time></trkpt><trkpt lat="42.474323705844995" lon="2.8491576281084257"><ele>200.0</ele><time>2026-04-22T13:48:08Z</time></trkpt><trkpt lat="42.4743170673025" lon="2.8489812417556415"><ele>199.5</ele><time>2026-04-22T13:48:09Z</time></trkpt><trkpt lat="42.47428371019222" lon="2.8488129394561015"><ele>199.0</ele><time>2026-04-22T13:48:10Z</time></trkpt><trkpt lat="42.47424440934264" lon="2.848637768499098"><ele>199.0</ele><time>2026-04-22T13:48:11Z</time></trkpt><trkpt lat="42.47422771771894" lon="2.848467633340845"><ele>199.0</ele><time>2026-04-22T13:48:12Z</time></trkpt><trkpt lat="42.4742259642442" lon="2.8482900447809762"><ele>199.0</ele><time>2026-04-22T13:48:13Z</time></trkpt><trkpt lat="42.47424000914548" lon="2.8481113869089354"><ele>199.0</ele><time>2026-04-22T13:48:14Z</time></trkpt><trkpt lat="42.47428009155886" lon="2.8479450458348414"><ele>198.75</ele><time>2026-04-22T13:48:15Z</time></trkpt><trkpt lat="42.47435098539572" lon="2.847794762561615"><ele>198.5</ele><time>2026-04-22T13:48:16Z</time></trkpt><trkpt lat="42.47444461932245" lon="2.8476733746592706"><ele>198.25</ele><time>2026-04-22T13:48:17Z</time></trkpt><trkpt lat="42.474557084367426" lon="2.8475737878553207"><ele>198.0</ele><time>2026-04-22T13:48:18Z</time></trkpt><trkpt lat="42.4746808904473" lon="2.847489787683062"><ele>198.0</ele><time>2026-04-22T13:48:19Z</time></trkpt><trkpt lat="42.47481884757341" lon="2.8474154338594047"><ele>198.0</ele><time>2026-04-22T13:48:20Z</time></trkpt><trkpt lat="42.47497037226992" lon="2.847338592380055"><ele>198.0</ele><time>2026-04-22T13:48:21Z</time></trkpt><trkpt lat="42.47511669210664" lon="2.8472651998754293"><ele>198.0</ele><time>2026-04-22T13:48:22Z</time></trkpt><trkpt lat="42.47527304541146" lon="2.8471906198882766"><ele>198.0</ele><time>2026-04-22T13:48:23Z</time></trkpt><trkpt lat="42.47543654574479" lon="2.8471134994721146"><ele>198.0</ele><time>2026-04-22T13:48:24Z</time></trkpt><trkpt lat="42.4755908019432" lon="2.8470350382061436"><ele>202.33333333333331</ele><time>2026-04-22T13:48:25Z</time></trkpt><trkpt lat="42.475745013772986" lon="2.8469626868768643"><ele>206.66666666666666</ele><time>2026-04-22T13:48:26Z</time></trkpt><trkpt lat="42.47589762771398" lon="2.8468899208421927"><ele>211.0</ele><time>2026-04-22T13:48:27Z</time></trkpt><trkpt lat="42.47605121761455" lon="2.846821220453724"><ele>207.33333333333331</ele><time>2026-04-22T13:48:28Z</time></trkpt><trkpt lat="42.47620331321704" lon="2.846745590014663"><ele>203.66666666666669</ele><time>2026-04-22T13:48:29Z</time></trkpt><trkpt lat="42.476341498117485" lon="2.846643126658883"><ele>200.0</ele><time>2026-04-22T13:48:30Z</time></trkpt><trkpt lat="42.47646342877072" lon="2.846515547584656"><ele>200.0</ele><time>2026-04-22T13:48:31Z</time></trkpt><trkpt lat="42.4765757234075" lon="2.8463720410440962"><ele>200.0</ele><time>2026-04-22T13:48:32Z</time></trkpt><trkpt lat="42.476831875501794" lon="2.846142341652195"><ele>200.0</ele><time>2026-04-22T13:48:34Z</time></trkpt><trkpt lat="42.47697212305925" lon="2.8460752923756405"><ele>200.0</ele><time>2026-04-22T13:48:35Z</time></trkpt><trkpt lat="42.477123759561714" lon="2.846040002305902"><ele>200.0</ele><time>2026-04-22T13:48:36Z</time></trkpt><trkpt lat="42.47727417300199" lon="2.8460393466573026"><ele>200.5</ele><time>2026-04-22T13:48:37Z</time></trkpt><trkpt lat="42.47741987109043" lon="2.846074926239301"><ele>201.0</ele><time>2026-04-22T13:48:38Z</time></trkpt><trkpt lat="42.47755163695763" lon="2.84615893444849"><ele>201.5</ele><time>2026-04-22T13:48:39Z</time></trkpt><trkpt lat="42.47766632749521" lon="2.8462671478672696"><ele>202.0</ele><time>2026-04-22T13:48:40Z</time></trkpt><trkpt lat="42.47777510432998" lon="2.8463795844094255"><ele>202.0</ele><time>2026-04-22T13:48:41Z</time></trkpt><trkpt lat="42.47789635508727" lon="2.8464741688333643"><ele>202.0</ele><time>2026-04-22T13:48:42Z</time></trkpt><trkpt lat="42.478036687525204" lon="2.8465171004201366"><ele>202.0</ele><time>2026-04-22T13:48:43Z</time></trkpt><trkpt lat="42.47817587216137" lon="2.8465200339440253"><ele>202.0</ele><time>2026-04-22T13:48:44Z</time></trkpt><trkpt lat="42.47831386265318" lon="2.846474418157927"><ele>202.0</ele><time>2026-04-22T13:48:45Z</time></trkpt><trkpt lat="42.47845481232982" lon="2.8463912692447564"><ele>202.0</ele><time>2026-04-22T13:48:46Z</time></trkpt><trkpt lat="42.478564656349285" lon="2.8462827992320094"><ele>202.0</ele><time>2026-04-22T13:48:47Z</time></trkpt><trkpt lat="42.47865954263819" lon="2.8461471198653134"><ele>202.0</ele><time>2026-04-22T13:48:48Z</time></trkpt><trkpt lat="42.478731250988794" lon="2.845999569628666"><ele>205.0</ele><time>2026-04-22T13:48:49Z</time></trkpt><trkpt lat="42.47881200110325" lon="2.845491968246051"><ele>208.0</ele><time>2026-04-22T13:48:52Z</time></trkpt><trkpt lat="42.478814903801684" lon="2.8453159859101174"><ele>208.0</ele><time>2026-04-22T13:48:53Z</time></trkpt><trkpt lat="42.47881869499706" lon="2.845141672588766"><ele>208.0</ele><time>2026-04-22T13:48:54Z</time></trkpt><trkpt lat="42.478825575888784" lon="2.8449688768709716"><ele>208.0</ele><time>2026-04-22T13:48:55Z</time></trkpt><trkpt lat="42.47883539691765" lon="2.8447977741854693"><ele>208.0</ele><time>2026-04-22T13:48:56Z</time></trkpt><trkpt lat="42.47884909769801" lon="2.8446304423215585"><ele>206.5</ele><time>2026-04-22T13:48:57Z</time></trkpt><trkpt lat="42.478875667119965" lon="2.8444675122939644"><ele>205.0</ele><time>2026-04-22T13:48:58Z</time></trkpt><trkpt lat="42.478911439109396" lon="2.8443062292955856"><ele>203.5</ele><time>2026-04-22T13:48:59Z</time></trkpt><trkpt lat="42.478961814916424" lon="2.8441471043167543"><ele>202.0</ele><time>2026-04-22T13:49:00Z</time></trkpt><trkpt lat="42.47902776391448" lon="2.843993671164983"><ele>198.25</ele><time>2026-04-22T13:49:01Z</time></trkpt><trkpt lat="42.47909953040438" lon="2.8438444842730033"><ele>194.5</ele><time>2026-04-22T13:49:02Z</time></trkpt><trkpt lat="42.47918208849497" lon="2.843685594893776"><ele>190.75</ele><time>2026-04-22T13:49:03Z</time></trkpt><trkpt lat="42.47926330410404" lon="2.8435274342218544"><ele>187.0</ele><time>2026-04-22T13:49:04Z</time></trkpt><trkpt lat="42.479348121119685" lon="2.843372436574676"><ele>188.75</ele><time>2026-04-22T13:49:05Z</time></trkpt><trkpt lat="42.47942990129065" lon="2.84321676044594"><ele>190.5</ele><time>2026-04-22T13:49:06Z</time></trkpt><trkpt lat="42.479509489067716" lon="2.8430658792530763"><ele>192.25</ele><time>2026-04-22T13:49:07Z</time></trkpt><trkpt lat="42.47958980662663" lon="2.8429185517425872"><ele>194.0</ele><time>2026-04-22T13:49:08Z</time></trkpt><trkpt lat="42.479685126689375" lon="2.8427897422230686"><ele>194.0</ele><time>2026-04-22T13:49:09Z</time></trkpt><trkpt lat="42.47980220810366" lon="2.8426930968153177"><ele>194.0</ele><time>2026-04-22T13:49:10Z</time></trkpt><trkpt lat="42.47993924055995" lon="2.8426386409515887"><ele>194.0</ele><time>2026-04-22T13:49:11Z</time></trkpt><trkpt lat="42.48007541602902" lon="2.842620044204831"><ele>194.0</ele><time>2026-04-22T13:49:12Z</time></trkpt><trkpt lat="42.4802132481022" lon="2.8426340502788134"><ele>194.0</ele><time>2026-04-22T13:49:13Z</time></trkpt><trkpt lat="42.48034153306883" lon="2.842678316795616"><ele>194.0</ele><time>2026-04-22T13:49:14Z</time></trkpt><trkpt lat="42.48046693151326" lon="2.8427309806776697"><ele>194.0</ele><time>2026-04-22T13:49:15Z</time></trkpt><trkpt lat="42.48059020970846" lon="2.8427660291784087"><ele>194.0</ele><time>2026-04-22T13:49:16Z</time></trkpt><trkpt lat="42.48072450461141" lon="2.842775285393272"><ele>195.0</ele><time>2026-04-22T13:49:17Z</time></trkpt><trkpt lat="42.480861978486104" lon="2.8427464062397494"><ele>196.0</ele><time>2026-04-22T13:49:18Z</time></trkpt><trkpt lat="42.48099400215877" lon="2.84267872313198"><ele>197.0</ele><time>2026-04-22T13:49:19Z</time></trkpt><trkpt lat="42.48111927289356" lon="2.8425757597124663"><ele>198.0</ele><time>2026-04-22T13:49:20Z</time></trkpt><trkpt lat="42.481234367716034" lon="2.8424493146429275"><ele>195.33333333333334</ele><time>2026-04-22T13:49:21Z</time></trkpt><trkpt lat="42.48134757602897" lon="2.8423083066916366"><ele>192.66666666666669</ele><time>2026-04-22T13:49:22Z</time></trkpt><trkpt lat="42.4814586946698" lon="2.8421621895126425"><ele>190.0</ele><time>2026-04-22T13:49:23Z</time></trkpt><trkpt lat="42.48156864602062" lon="2.8420219247508425"><ele>190.0</ele><time>2026-04-22T13:49:24Z</time></trkpt><trkpt lat="42.481686907146795" lon="2.8418896969232548"><ele>190.0</ele><time>2026-04-22T13:49:25Z</time></trkpt><trkpt lat="42.48180599823714" lon="2.8417622017963913"><ele>190.0</ele><time>2026-04-22T13:49:26Z</time></trkpt><trkpt lat="42.481931365024515" lon="2.8416426407196607"><ele>189.33333333333334</ele><time>2026-04-22T13:49:27Z</time></trkpt><trkpt lat="42.48205990270689" lon="2.8415267902877894"><ele>188.66666666666666</ele><time>2026-04-22T13:49:28Z</time></trkpt><trkpt lat="42.48218561853984" lon="2.84141588943288"><ele>188.0</ele><time>2026-04-22T13:49:29Z</time></trkpt><trkpt lat="42.482560622893345" lon="2.841104599198808"><ele>182.0</ele><time>2026-04-22T13:49:32Z</time></trkpt><trkpt lat="42.482912059093884" lon="2.840783026091494"><ele>176.0</ele><time>2026-04-22T13:49:35Z</time></trkpt><trkpt lat="42.48302237271875" lon="2.840674549312446"><ele>176.0</ele><time>2026-04-22T13:49:36Z</time></trkpt><trkpt lat="42.48313525289732" lon="2.840569881827447"><ele>176.0</ele><time>2026-04-22T13:49:37Z</time></trkpt><trkpt lat="42.483246799715054" lon="2.840467967381037"><ele>176.0</ele><time>2026-04-22T13:49:38Z</time></trkpt><trkpt lat="42.483357867585525" lon="2.8403577957846253"><ele>176.0</ele><time>2026-04-22T13:49:39Z</time></trkpt><trkpt lat="42.48347049564753" lon="2.8402497367742487"><ele>176.0</ele><time>2026-04-22T13:49:40Z</time></trkpt><trkpt lat="42.4835783117635" lon="2.8401395288313807"><ele>176.0</ele><time>2026-04-22T13:49:41Z</time></trkpt><trkpt lat="42.483783750601056" lon="2.8399148251791875"><ele>176.0</ele><time>2026-04-22T13:49:43Z</time></trkpt><trkpt lat="42.48387572329442" lon="2.839786208490227"><ele>175.25</ele><time>2026-04-22T13:49:44Z</time></trkpt><trkpt lat="42.48394292555361" lon="2.83964220452008"><ele>174.5</ele><time>2026-04-22T13:49:45Z</time></trkpt><trkpt lat="42.4839911404126" lon="2.839478632954375"><ele>173.75</ele><time>2026-04-22T13:49:46Z</time></trkpt><trkpt lat="42.4840051535346" lon="2.8393040407879337"><ele>173.0</ele><time>2026-04-22T13:49:47Z</time></trkpt><trkpt lat="42.48399507083968" lon="2.8391273601342903"><ele>170.25</ele><time>2026-04-22T13:49:48Z</time></trkpt><trkpt lat="42.48398198006672" lon="2.8389495176824213"><ele>167.5</ele><time>2026-04-22T13:49:49Z</time></trkpt><trkpt lat="42.483978797677864" lon="2.8387741328491654"><ele>164.75</ele><time>2026-04-22T13:49:50Z</time></trkpt><trkpt lat="42.483986348367885" lon="2.838593023571165"><ele>162.0</ele><time>2026-04-22T13:49:51Z</time></trkpt><trkpt lat="42.483989099343816" lon="2.8384169749300745"><ele>159.5</ele><time>2026-04-22T13:49:52Z</time></trkpt><trkpt lat="42.483996746458246" lon="2.8382426146103503"><ele>157.0</ele><time>2026-04-22T13:49:53Z</time></trkpt><trkpt lat="42.48401071815591" lon="2.838069944212992"><ele>154.5</ele><time>2026-04-22T13:49:54Z</time></trkpt><trkpt lat="42.48402680872119" lon="2.8378947912181034"><ele>152.0</ele><time>2026-04-22T13:49:55Z</time></trkpt><trkpt lat="42.48404744712042" lon="2.8377197153178275"><ele>150.25</ele><time>2026-04-22T13:49:56Z</time></trkpt><trkpt lat="42.48407498178273" lon="2.8375397628700614"><ele>148.5</ele><time>2026-04-22T13:49:57Z</time></trkpt><trkpt lat="42.484107976177384" lon="2.837358343784739"><ele>146.75</ele><time>2026-04-22T13:49:58Z</time></trkpt><trkpt lat="42.48414568480184" lon="2.8371759689492335"><ele>145.0</ele><time>2026-04-22T13:49:59Z</time></trkpt><trkpt lat="42.4841867844168" lon="2.836991473386337"><ele>145.0</ele><time>2026-04-22T13:50:00Z</time></trkpt><trkpt lat="42.48422827786056" lon="2.836808046189804"><ele>145.0</ele><time>2026-04-22T13:50:01Z</time></trkpt><trkpt lat="42.4842815147684" lon="2.836637354512332"><ele>145.0</ele><time>2026-04-22T13:50:02Z</time></trkpt><trkpt lat="42.48436086630884" lon="2.83648852606233"><ele>145.0</ele><time>2026-04-22T13:50:03Z</time></trkpt><trkpt lat="42.48446079869529" lon="2.8363615730524123"><ele>144.0</ele><time>2026-04-22T13:50:04Z</time></trkpt><trkpt lat="42.48457694969362" lon="2.8362672835516887"><ele>143.0</ele><time>2026-04-22T13:50:05Z</time></trkpt><trkpt lat="42.48470931938664" lon="2.8362031770838563"><ele>142.0</ele><time>2026-04-22T13:50:06Z</time></trkpt><trkpt lat="42.48484608592047" lon="2.8361762188705457"><ele>141.0</ele><time>2026-04-22T13:50:07Z</time></trkpt><trkpt lat="42.48498686692907" lon="2.836192444405887"><ele>139.33333333333334</ele><time>2026-04-22T13:50:08Z</time></trkpt><trkpt lat="42.485241945242045" lon="2.836303980576306"><ele>137.66666666666669</ele><time>2026-04-22T13:50:10Z</time></trkpt><trkpt lat="42.485362866465955" lon="2.836391678401221"><ele>136.0</ele><time>2026-04-22T13:50:11Z</time></trkpt><trkpt lat="42.48547926260449" lon="2.836477439350549"><ele>136.0</ele><time>2026-04-22T13:50:12Z</time></trkpt><trkpt lat="42.48559457997251" lon="2.836556188794019"><ele>136.0</ele><time>2026-04-22T13:50:13Z</time></trkpt><trkpt lat="42.485711627975455" lon="2.8366393282593005"><ele>136.0</ele><time>2026-04-22T13:50:14Z</time></trkpt><trkpt lat="42.4858256566272" lon="2.8367177575341183"><ele>136.0</ele><time>2026-04-22T13:50:15Z</time></trkpt><trkpt lat="42.485933740946166" lon="2.8367959742786293"><ele>136.75</ele><time>2026-04-22T13:50:16Z</time></trkpt><trkpt lat="42.48604358012056" lon="2.8368763874051144"><ele>137.5</ele><time>2026-04-22T13:50:17Z</time></trkpt><trkpt lat="42.486155867582944" lon="2.8369538909998284"><ele>138.25</ele><time>2026-04-22T13:50:18Z</time></trkpt><trkpt lat="42.48628010848904" lon="2.8370316045724615"><ele>139.0</ele><time>2026-04-22T13:50:19Z</time></trkpt><trkpt lat="42.48640731807784" lon="2.837098409915975"><ele>139.0</ele><time>2026-04-22T13:50:20Z</time></trkpt><trkpt lat="42.48653182298297" lon="2.8371652022639546"><ele>139.0</ele><time>2026-04-22T13:50:21Z</time></trkpt><trkpt lat="42.48666004053399" lon="2.8372236309926397"><ele>139.0</ele><time>2026-04-22T13:50:22Z</time></trkpt><trkpt lat="42.48678911326126" lon="2.8372671103505303"><ele>139.0</ele><time>2026-04-22T13:50:23Z</time></trkpt><trkpt lat="42.48692616886382" lon="2.837297652181455"><ele>139.0</ele><time>2026-04-22T13:50:24Z</time></trkpt><trkpt lat="42.48706505796816" lon="2.8373169280406128"><ele>139.0</ele><time>2026-04-22T13:50:25Z</time></trkpt><trkpt lat="42.48720568853875" lon="2.837320523042118"><ele>139.0</ele><time>2026-04-22T13:50:26Z</time></trkpt><trkpt lat="42.487346924017395" lon="2.837313762218132"><ele>139.0</ele><time>2026-04-22T13:50:27Z</time></trkpt><trkpt lat="42.487494297114814" lon="2.8372963520206445"><ele>142.33333333333334</ele><time>2026-04-22T13:50:28Z</time></trkpt><trkpt lat="42.48764258381466" lon="2.83726986265855"><ele>145.66666666666666</ele><time>2026-04-22T13:50:29Z</time></trkpt><trkpt lat="42.48778855552799" lon="2.8372273963409684"><ele>149.0</ele><time>2026-04-22T13:50:30Z</time></trkpt><trkpt lat="42.48793503018558" lon="2.8371675605134516"><ele>149.0</ele><time>2026-04-22T13:50:31Z</time></trkpt><trkpt lat="42.488074148354386" lon="2.8370899053317036"><ele>149.0</ele><time>2026-04-22T13:50:32Z</time></trkpt><trkpt lat="42.488207822791956" lon="2.8370065580431008"><ele>149.0</ele><time>2026-04-22T13:50:33Z</time></trkpt><trkpt lat="42.48834040487002" lon="2.8369068178156605"><ele>149.0</ele><time>2026-04-22T13:50:34Z</time></trkpt><trkpt lat="42.488470744482676" lon="2.8368028123827997"><ele>145.0</ele><time>2026-04-22T13:50:35Z</time></trkpt><trkpt lat="42.48859196245944" lon="2.8366710580349417"><ele>141.0</ele><time>2026-04-22T13:50:36Z</time></trkpt><trkpt lat="42.488710771808556" lon="2.8365278408798167"><ele>137.0</ele><time>2026-04-22T13:50:37Z</time></trkpt><trkpt lat="42.48882513513557" lon="2.836373908592606"><ele>136.66666666666666</ele><time>2026-04-22T13:50:38Z</time></trkpt><trkpt lat="42.488941934683616" lon="2.8362135205953036"><ele>136.33333333333334</ele><time>2026-04-22T13:50:39Z</time></trkpt><trkpt lat="42.489047728223404" lon="2.8360389752093838"><ele>136.0</ele><time>2026-04-22T13:50:40Z</time></trkpt><trkpt lat="42.489152669220154" lon="2.83585937357385"><ele>134.33333333333334</ele><time>2026-04-22T13:50:41Z</time></trkpt><trkpt lat="42.4892532900666" lon="2.835672076184235"><ele>132.66666666666666</ele><time>2026-04-22T13:50:42Z</time></trkpt><trkpt lat="42.489357485968505" lon="2.8354867618349693"><ele>131.0</ele><time>2026-04-22T13:50:43Z</time></trkpt><trkpt lat="42.48945954336886" lon="2.835303958107098"><ele>129.33333333333331</ele><time>2026-04-22T13:50:44Z</time></trkpt><trkpt lat="42.489557092815566" lon="2.835120780595131"><ele>127.66666666666666</ele><time>2026-04-22T13:50:45Z</time></trkpt><trkpt lat="42.48965691354458" lon="2.834948336513731"><ele>126.0</ele><time>2026-04-22T13:50:46Z</time></trkpt><trkpt lat="42.48975052751664" lon="2.834778042772561"><ele>129.66666666666666</ele><time>2026-04-22T13:50:47Z</time></trkpt><trkpt lat="42.48984702251961" lon="2.834605199290046"><ele>133.33333333333331</ele><time>2026-04-22T13:50:48Z</time></trkpt><trkpt lat="42.48994280565683" lon="2.8344296048756044"><ele>137.0</ele><time>2026-04-22T13:50:49Z</time></trkpt><trkpt lat="42.49004091338952" lon="2.8342530181781402"><ele>137.0</ele><time>2026-04-22T13:50:50Z</time></trkpt><trkpt lat="42.4901394748499" lon="2.8340761409258426"><ele>137.0</ele><time>2026-04-22T13:50:51Z</time></trkpt><trkpt lat="42.49023479658335" lon="2.833896550934566"><ele>137.0</ele><time>2026-04-22T13:50:52Z</time></trkpt><trkpt lat="42.490336446209575" lon="2.8337150966675178"><ele>139.0</ele><time>2026-04-22T13:50:53Z</time></trkpt><trkpt lat="42.490433274378894" lon="2.833528650378727"><ele>141.0</ele><time>2026-04-22T13:50:54Z</time></trkpt><trkpt lat="42.490537172446544" lon="2.8333526768738224"><ele>143.0</ele><time>2026-04-22T13:50:55Z</time></trkpt><trkpt lat="42.4906373647171" lon="2.8331751924899344"><ele>143.0</ele><time>2026-04-22T13:50:56Z</time></trkpt><trkpt lat="42.49083607553057" lon="2.8328274192477427"><ele>143.0</ele><time>2026-04-22T13:50:58Z</time></trkpt><trkpt lat="42.49094142782985" lon="2.8326550396313555"><ele>143.33333333333331</ele><time>2026-04-22T13:50:59Z</time></trkpt><trkpt lat="42.491050251572446" lon="2.8324900038593923"><ele>143.66666666666666</ele><time>2026-04-22T13:51:00Z</time></trkpt><trkpt lat="42.4911593117771" lon="2.8323271531651706"><ele>144.0</ele><time>2026-04-22T13:51:01Z</time></trkpt><trkpt lat="42.491268602222284" lon="2.8321592374131837"><ele>144.0</ele><time>2026-04-22T13:51:02Z</time></trkpt><trkpt lat="42.49137558940642" lon="2.831989958235431"><ele>144.0</ele><time>2026-04-22T13:51:03Z</time></trkpt><trkpt lat="42.49148297640402" lon="2.8318127797624846"><ele>144.0</ele><time>2026-04-22T13:51:04Z</time></trkpt><trkpt lat="42.49158736151869" lon="2.8316318860377625"><ele>141.0</ele><time>2026-04-22T13:51:05Z</time></trkpt><trkpt lat="42.49168738359912" lon="2.8314471700337815"><ele>138.0</ele><time>2026-04-22T13:51:06Z</time></trkpt><trkpt lat="42.49178495948793" lon="2.83126171594758"><ele>135.0</ele><time>2026-04-22T13:51:07Z</time></trkpt><trkpt lat="42.4918846186916" lon="2.8310720616120486"><ele>133.0</ele><time>2026-04-22T13:51:08Z</time></trkpt><trkpt lat="42.4919895120237" lon="2.8308894902429667"><ele>131.0</ele><time>2026-04-22T13:51:09Z</time></trkpt><trkpt lat="42.49220284889635" lon="2.8305289407014658"><ele>131.66666666666666</ele><time>2026-04-22T13:51:11Z</time></trkpt><trkpt lat="42.492308437871095" lon="2.8303416820045144"><ele>132.33333333333334</ele><time>2026-04-22T13:51:12Z</time></trkpt><trkpt lat="42.49241259343165" lon="2.830156160526803"><ele>133.0</ele><time>2026-04-22T13:51:13Z</time></trkpt><trkpt lat="42.492524599409975" lon="2.8299710370212887"><ele>133.0</ele><time>2026-04-22T13:51:14Z</time></trkpt><trkpt lat="42.49263968204345" lon="2.8297871093472486"><ele>133.0</ele><time>2026-04-22T13:51:15Z</time></trkpt><trkpt lat="42.49275671412342" lon="2.8296152296310533"><ele>133.0</ele><time>2026-04-22T13:51:16Z</time></trkpt><trkpt lat="42.492879624539164" lon="2.8294513551306233"><ele>132.33333333333334</ele><time>2026-04-22T13:51:17Z</time></trkpt><trkpt lat="42.49300338867855" lon="2.8292893293953636"><ele>131.66666666666666</ele><time>2026-04-22T13:51:18Z</time></trkpt><trkpt lat="42.49312923782564" lon="2.8291305026938085"><ele>131.0</ele><time>2026-04-22T13:51:19Z</time></trkpt><trkpt lat="42.49325118120413" lon="2.8289716063198753"><ele>131.0</ele><time>2026-04-22T13:51:20Z</time></trkpt><trkpt lat="42.49337290199549" lon="2.828814071346738"><ele>131.0</ele><time>2026-04-22T13:51:21Z</time></trkpt><trkpt lat="42.49349670988391" lon="2.8286593093337915"><ele>131.0</ele><time>2026-04-22T13:51:22Z</time></trkpt><trkpt lat="42.49361527705362" lon="2.828508221495567"><ele>130.0</ele><time>2026-04-22T13:51:23Z</time></trkpt><trkpt lat="42.49373821158205" lon="2.82835713731333"><ele>129.0</ele><time>2026-04-22T13:51:24Z</time></trkpt><trkpt lat="42.49386147079481" lon="2.8282119787104323"><ele>128.0</ele><time>2026-04-22T13:51:25Z</time></trkpt><trkpt lat="42.493984950934696" lon="2.8280649144225376"><ele>128.0</ele><time>2026-04-22T13:51:26Z</time></trkpt><trkpt lat="42.49410796473912" lon="2.8279186592143404"><ele>128.0</ele><time>2026-04-22T13:51:27Z</time></trkpt><trkpt lat="42.494228553919484" lon="2.8277681680114277"><ele>128.0</ele><time>2026-04-22T13:51:28Z</time></trkpt><trkpt lat="42.494349619553155" lon="2.827620518430797"><ele>126.0</ele><time>2026-04-22T13:51:29Z</time></trkpt><trkpt lat="42.49446786037085" lon="2.8274633229975294"><ele>124.0</ele><time>2026-04-22T13:51:30Z</time></trkpt><trkpt lat="42.494692072474315" lon="2.8271320487539033"><ele>124.0</ele><time>2026-04-22T13:51:32Z</time></trkpt><trkpt lat="42.494798165937695" lon="2.8269560890623655"><ele>124.0</ele><time>2026-04-22T13:51:33Z</time></trkpt><trkpt lat="42.49489793861754" lon="2.826768209655092"><ele>124.0</ele><time>2026-04-22T13:51:34Z</time></trkpt><trkpt lat="42.495061349343" lon="2.826357236038772"><ele>123.33333333333334</ele><time>2026-04-22T13:51:36Z</time></trkpt><trkpt lat="42.49512671964553" lon="2.826140527854776"><ele>122.66666666666666</ele><time>2026-04-22T13:51:37Z</time></trkpt><trkpt lat="42.49518748932536" lon="2.825920912356346"><ele>122.0</ele><time>2026-04-22T13:51:38Z</time></trkpt><trkpt lat="42.49525042685518" lon="2.8256992194573716"><ele>123.0</ele><time>2026-04-22T13:51:39Z</time></trkpt><trkpt lat="42.495309331730226" lon="2.8254741314823377"><ele>124.0</ele><time>2026-04-22T13:51:40Z</time></trkpt><trkpt lat="42.49536772626008" lon="2.825250776042011"><ele>125.0</ele><time>2026-04-22T13:51:41Z</time></trkpt><trkpt lat="42.49542736494011" lon="2.8250299152393357"><ele>125.0</ele><time>2026-04-22T13:51:42Z</time></trkpt><trkpt lat="42.49548522257919" lon="2.8248109666886676"><ele>125.0</ele><time>2026-04-22T13:51:43Z</time></trkpt><trkpt lat="42.49553952974031" lon="2.8245910658634594"><ele>125.0</ele><time>2026-04-22T13:51:44Z</time></trkpt><trkpt lat="42.495600111743954" lon="2.8243746510450496"><ele>123.33333333333333</ele><time>2026-04-22T13:51:45Z</time></trkpt><trkpt lat="42.495657445875864" lon="2.824156073929469"><ele>121.66666666666666</ele><time>2026-04-22T13:51:46Z</time></trkpt><trkpt lat="42.49572189406175" lon="2.8239380788718482"><ele>120.0</ele><time>2026-04-22T13:51:47Z</time></trkpt><trkpt lat="42.49590555646788" lon="2.823536421932972"><ele>120.66666666666666</ele><time>2026-04-22T13:51:49Z</time></trkpt><trkpt lat="42.496016913551465" lon="2.823354186906839"><ele>121.33333333333333</ele><time>2026-04-22T13:51:50Z</time></trkpt><trkpt lat="42.49611788073261" lon="2.823162411230806"><ele>122.0</ele><time>2026-04-22T13:51:51Z</time></trkpt><trkpt lat="42.49634645398795" lon="2.822788183822042"><ele>119.0</ele><time>2026-04-22T13:51:53Z</time></trkpt><trkpt lat="42.496457454433965" lon="2.8226033812713376"><ele>116.0</ele><time>2026-04-22T13:51:54Z</time></trkpt><trkpt lat="42.496573245618976" lon="2.8224343312498936"><ele>113.0</ele><time>2026-04-22T13:51:55Z</time></trkpt><trkpt lat="42.496684852429894" lon="2.822279945290067"><ele>113.0</ele><time>2026-04-22T13:51:56Z</time></trkpt><trkpt lat="42.49680630366532" lon="2.8221301782384285"><ele>113.0</ele><time>2026-04-22T13:51:57Z</time></trkpt><trkpt lat="42.496929935147" lon="2.8219822542390984"><ele>113.0</ele><time>2026-04-22T13:51:58Z</time></trkpt><trkpt lat="42.49705771542344" lon="2.8218327359612063"><ele>112.33333333333333</ele><time>2026-04-22T13:51:59Z</time></trkpt><trkpt lat="42.4971966944172" lon="2.82169524815553"><ele>111.66666666666666</ele><time>2026-04-22T13:52:00Z</time></trkpt><trkpt lat="42.49733535237137" lon="2.821563793406686"><ele>111.0</ele><time>2026-04-22T13:52:01Z</time></trkpt><trkpt lat="42.49747468957208" lon="2.8214448519326143"><ele>111.0</ele><time>2026-04-22T13:52:02Z</time></trkpt><trkpt lat="42.49762037143142" lon="2.821339186006548"><ele>111.0</ele><time>2026-04-22T13:52:03Z</time></trkpt><trkpt lat="42.4977679631805" lon="2.821229609226642"><ele>111.0</ele><time>2026-04-22T13:52:04Z</time></trkpt><trkpt lat="42.49791731135894" lon="2.821129104006267"><ele>111.0</ele><time>2026-04-22T13:52:05Z</time></trkpt><trkpt lat="42.49822394222641" lon="2.820935276925894"><ele>111.0</ele><time>2026-04-22T13:52:07Z</time></trkpt><trkpt lat="42.49838079491334" lon="2.820846154663158"><ele>111.0</ele><time>2026-04-22T13:52:08Z</time></trkpt><trkpt lat="42.49854490169324" lon="2.820767563624936"><ele>111.0</ele><time>2026-04-22T13:52:09Z</time></trkpt><trkpt lat="42.49870754302808" lon="2.8207015646606757"><ele>111.0</ele><time>2026-04-22T13:52:10Z</time></trkpt><trkpt lat="42.49886541026878" lon="2.820650567996842"><ele>112.66666666666666</ele><time>2026-04-22T13:52:11Z</time></trkpt><trkpt lat="42.49903321592861" lon="2.8206160729822543"><ele>114.33333333333333</ele><time>2026-04-22T13:52:12Z</time></trkpt><trkpt lat="42.49919562922564" lon="2.820589463531997"><ele>116.0</ele><time>2026-04-22T13:52:13Z</time></trkpt><trkpt lat="42.49936114603652" lon="2.8205741313337374"><ele>116.0</ele><time>2026-04-22T13:52:14Z</time></trkpt><trkpt lat="42.49952457843698" lon="2.820569922605055"><ele>116.0</ele><time>2026-04-22T13:52:15Z</time></trkpt><trkpt lat="42.49968472411835" lon="2.820577714480881"><ele>116.0</ele><time>2026-04-22T13:52:16Z</time></trkpt><trkpt lat="42.499841568146635" lon="2.8206141790333734"><ele>115.25</ele><time>2026-04-22T13:52:17Z</time></trkpt><trkpt lat="42.49998642868358" lon="2.820656242405356"><ele>114.5</ele><time>2026-04-22T13:52:18Z</time></trkpt><trkpt lat="42.500120924704476" lon="2.820702412614815"><ele>113.75</ele><time>2026-04-22T13:52:19Z</time></trkpt><trkpt lat="42.500251661897686" lon="2.820755508167068"><ele>113.0</ele><time>2026-04-22T13:52:20Z</time></trkpt><trkpt lat="42.50036624318139" lon="2.820799355956185"><ele>112.0</ele><time>2026-04-22T13:52:21Z</time></trkpt><trkpt lat="42.5004732646514" lon="2.8208585779083735"><ele>111.00000000000001</ele><time>2026-04-22T13:52:22Z</time></trkpt><trkpt lat="42.50056781581174" lon="2.82090732807387"><ele>110.00000000000001</ele><time>2026-04-22T13:52:23Z</time></trkpt><trkpt lat="42.500650747653246" lon="2.8209539462334106"><ele>109.0</ele><time>2026-04-22T13:52:24Z</time></trkpt><trkpt lat="42.50072025383736" lon="2.821019696096047"><ele>108.0</ele><time>2026-04-22T13:52:25Z</time></trkpt><trkpt lat="42.50079275890403" lon="2.8210984460550237"><ele>108.0</ele><time>2026-04-22T13:52:26Z</time></trkpt><trkpt lat="42.500873803053274" lon="2.821168604206342"><ele>108.0</ele><time>2026-04-22T13:52:27Z</time></trkpt><trkpt lat="42.50097477592429" lon="2.82124938641455"><ele>108.0</ele><time>2026-04-22T13:52:28Z</time></trkpt><trkpt lat="42.50107540630913" lon="2.821349919072516"><ele>108.0</ele><time>2026-04-22T13:52:29Z</time></trkpt><trkpt lat="42.50117622276419" lon="2.8214671798717244"><ele>106.25</ele><time>2026-04-22T13:52:30Z</time></trkpt><trkpt lat="42.50127117854458" lon="2.8215904457262937"><ele>104.5</ele><time>2026-04-22T13:52:31Z</time></trkpt><trkpt lat="42.50137016291899" lon="2.8217236220888586"><ele>102.75</ele><time>2026-04-22T13:52:32Z</time></trkpt><trkpt lat="42.50146045285464" lon="2.8218687369790136"><ele>101.0</ele><time>2026-04-22T13:52:33Z</time></trkpt><trkpt lat="42.50154635716641" lon="2.822022932130309"><ele>101.0</ele><time>2026-04-22T13:52:34Z</time></trkpt><trkpt lat="42.50162913162898" lon="2.822186482348138"><ele>101.0</ele><time>2026-04-22T13:52:35Z</time></trkpt><trkpt lat="42.50170556099084" lon="2.8223490714669572"><ele>101.0</ele><time>2026-04-22T13:52:36Z</time></trkpt><trkpt lat="42.50178317934526" lon="2.8225068321062645"><ele>101.0</ele><time>2026-04-22T13:52:37Z</time></trkpt><trkpt lat="42.50186319441848" lon="2.822665994862254"><ele>103.25</ele><time>2026-04-22T13:52:38Z</time></trkpt><trkpt lat="42.501943128588046" lon="2.8228114853266657"><ele>105.5</ele><time>2026-04-22T13:52:39Z</time></trkpt><trkpt lat="42.502034236723354" lon="2.822951074950803"><ele>107.75</ele><time>2026-04-22T13:52:40Z</time></trkpt><trkpt lat="42.50213019338069" lon="2.8230826442568886"><ele>110.0</ele><time>2026-04-22T13:52:41Z</time></trkpt><trkpt lat="42.502239314351314" lon="2.82320909320568"><ele>110.0</ele><time>2026-04-22T13:52:42Z</time></trkpt><trkpt lat="42.502353209730906" lon="2.823323113335803"><ele>110.0</ele><time>2026-04-22T13:52:43Z</time></trkpt><trkpt lat="42.50247805839365" lon="2.8234347124495156"><ele>110.0</ele><time>2026-04-22T13:52:44Z</time></trkpt><trkpt lat="42.502602896417876" lon="2.8235449929397767"><ele>110.0</ele><time>2026-04-22T13:52:45Z</time></trkpt><trkpt lat="42.502740001042625" lon="2.823647153579384"><ele>110.0</ele><time>2026-04-22T13:52:46Z</time></trkpt><trkpt lat="42.502879790564194" lon="2.823743865509595"><ele>110.0</ele><time>2026-04-22T13:52:47Z</time></trkpt><trkpt lat="42.503007735378645" lon="2.8238453643772092"><ele>110.0</ele><time>2026-04-22T13:52:48Z</time></trkpt><trkpt lat="42.50313960430136" lon="2.823941441835102"><ele>108.25</ele><time>2026-04-22T13:52:49Z</time></trkpt><trkpt lat="42.50327211181237" lon="2.824029618830013"><ele>106.5</ele><time>2026-04-22T13:52:50Z</time></trkpt><trkpt lat="42.50341002871109" lon="2.82410189867084"><ele>104.75</ele><time>2026-04-22T13:52:51Z</time></trkpt><trkpt lat="42.50355533389675" lon="2.8241519663781363"><ele>103.0</ele><time>2026-04-22T13:52:52Z</time></trkpt><trkpt lat="42.503702432497825" lon="2.824190990551859"><ele>101.75</ele><time>2026-04-22T13:52:53Z</time></trkpt><trkpt lat="42.50384523838814" lon="2.824224308875828"><ele>100.5</ele><time>2026-04-22T13:52:54Z</time></trkpt><trkpt lat="42.50398756974223" lon="2.824246364084126"><ele>99.25</ele><time>2026-04-22T13:52:55Z</time></trkpt><trkpt lat="42.504125138661166" lon="2.824254850964432"><ele>98.0</ele><time>2026-04-22T13:52:56Z</time></trkpt><trkpt lat="42.504258338942826" lon="2.8242312940517724"><ele>98.0</ele><time>2026-04-22T13:52:57Z</time></trkpt><trkpt lat="42.504385120256636" lon="2.824180777849192"><ele>98.0</ele><time>2026-04-22T13:52:58Z</time></trkpt><trkpt lat="42.50451865644233" lon="2.824094708959694"><ele>98.0</ele><time>2026-04-22T13:52:59Z</time></trkpt><trkpt lat="42.50464486620475" lon="2.823990245865319"><ele>98.0</ele><time>2026-04-22T13:53:00Z</time></trkpt><trkpt lat="42.504767397184125" lon="2.8238826325948656"><ele>99.5</ele><time>2026-04-22T13:53:01Z</time></trkpt><trkpt lat="42.50489487934267" lon="2.823778338624606"><ele>101.0</ele><time>2026-04-22T13:53:02Z</time></trkpt><trkpt lat="42.5050195596782" lon="2.8236879812306706"><ele>102.5</ele><time>2026-04-22T13:53:03Z</time></trkpt><trkpt lat="42.505148878993495" lon="2.823616615491741"><ele>104.0</ele><time>2026-04-22T13:53:04Z</time></trkpt><trkpt lat="42.50528115010089" lon="2.8235565374419314"><ele>102.33333333333333</ele><time>2026-04-22T13:53:05Z</time></trkpt><trkpt lat="42.50542223254563" lon="2.8235118984676215"><ele>100.66666666666666</ele><time>2026-04-22T13:53:06Z</time></trkpt><trkpt lat="42.505578314456756" lon="2.8234747562792943"><ele>99.0</ele><time>2026-04-22T13:53:07Z</time></trkpt><trkpt lat="42.50573595745045" lon="2.82347593882142"><ele>99.0</ele><time>2026-04-22T13:53:08Z</time></trkpt><trkpt lat="42.50586973437998" lon="2.823490804939999"><ele>99.0</ele><time>2026-04-22T13:53:09Z</time></trkpt><trkpt lat="42.50601055036112" lon="2.8235255748951764"><ele>99.0</ele><time>2026-04-22T13:53:10Z</time></trkpt><trkpt lat="42.50614623757794" lon="2.823570189094965"><ele>99.0</ele><time>2026-04-22T13:53:11Z</time></trkpt><trkpt lat="42.50641499019164" lon="2.823655880319857"><ele>98.5</ele><time>2026-04-22T13:53:13Z</time></trkpt><trkpt lat="42.506547367917925" lon="2.823718995894175"><ele>98.0</ele><time>2026-04-22T13:53:14Z</time></trkpt><trkpt lat="42.506688900481585" lon="2.8237775258835263"><ele>97.5</ele><time>2026-04-22T13:53:15Z</time></trkpt><trkpt lat="42.50681823478244" lon="2.82385418818516"><ele>97.0</ele><time>2026-04-22T13:53:16Z</time></trkpt><trkpt lat="42.50694281245226" lon="2.8239463263270324"><ele>97.0</ele><time>2026-04-22T13:53:17Z</time></trkpt><trkpt lat="42.50705367773204" lon="2.824050227064629"><ele>97.0</ele><time>2026-04-22T13:53:18Z</time></trkpt><trkpt lat="42.50716191371575" lon="2.824176476187903"><ele>97.0</ele><time>2026-04-22T13:53:19Z</time></trkpt><trkpt lat="42.50725188471835" lon="2.8243196566204527"><ele>97.0</ele><time>2026-04-22T13:53:20Z</time></trkpt><trkpt lat="42.50733037643329" lon="2.8244743583447285"><ele>97.75</ele><time>2026-04-22T13:53:21Z</time></trkpt><trkpt lat="42.50741556797745" lon="2.8246343463344674"><ele>98.5</ele><time>2026-04-22T13:53:22Z</time></trkpt><trkpt lat="42.507510434054275" lon="2.8247842024865677"><ele>99.25</ele><time>2026-04-22T13:53:23Z</time></trkpt><trkpt lat="42.5076149166195" lon="2.824911756476244"><ele>100.0</ele><time>2026-04-22T13:53:24Z</time></trkpt><trkpt lat="42.50772592731546" lon="2.8250206847547026"><ele>100.0</ele><time>2026-04-22T13:53:25Z</time></trkpt><trkpt lat="42.50785175450936" lon="2.8251051260137134"><ele>100.0</ele><time>2026-04-22T13:53:26Z</time></trkpt><trkpt lat="42.50797958285358" lon="2.8251688987983186"><ele>100.0</ele><time>2026-04-22T13:53:27Z</time></trkpt><trkpt lat="42.5081067428656" lon="2.8252221991228716"><ele>100.0</ele><time>2026-04-22T13:53:28Z</time></trkpt><trkpt lat="42.50823077407396" lon="2.825280045425442"><ele>100.75</ele><time>2026-04-22T13:53:29Z</time></trkpt><trkpt lat="42.50835233342328" lon="2.825357101466916"><ele>101.5</ele><time>2026-04-22T13:53:30Z</time></trkpt><trkpt lat="42.50846587455695" lon="2.8254630142273105"><ele>102.25</ele><time>2026-04-22T13:53:31Z</time></trkpt><trkpt lat="42.50856542981194" lon="2.82559466488704"><ele>103.0</ele><time>2026-04-22T13:53:32Z</time></trkpt><trkpt lat="42.50865959002769" lon="2.8257331757495314"><ele>100.5</ele><time>2026-04-22T13:53:33Z</time></trkpt><trkpt lat="42.508746185636085" lon="2.8258682722414035"><ele>98.0</ele><time>2026-04-22T13:53:34Z</time></trkpt><trkpt lat="42.508823999246935" lon="2.8259993676378383"><ele>95.5</ele><time>2026-04-22T13:53:35Z</time></trkpt><trkpt lat="42.50890069247935" lon="2.8261341316309117"><ele>93.0</ele><time>2026-04-22T13:53:36Z</time></trkpt><trkpt lat="42.508977839033726" lon="2.826262766832383"><ele>93.0</ele><time>2026-04-22T13:53:37Z</time></trkpt><trkpt lat="42.50905590810965" lon="2.826392798238747"><ele>93.0</ele><time>2026-04-22T13:53:38Z</time></trkpt><trkpt lat="42.50913011817066" lon="2.8265225684380333"><ele>93.0</ele><time>2026-04-22T13:53:39Z</time></trkpt><trkpt lat="42.50920482692997" lon="2.826651187969499"><ele>93.0</ele><time>2026-04-22T13:53:40Z</time></trkpt><trkpt lat="42.50928580283228" lon="2.826774434890961"><ele>93.0</ele><time>2026-04-22T13:53:41Z</time></trkpt><trkpt lat="42.50938316003898" lon="2.826885851907119"><ele>93.0</ele><time>2026-04-22T13:53:42Z</time></trkpt><trkpt lat="42.5094779363648" lon="2.826987285996123"><ele>93.0</ele><time>2026-04-22T13:53:43Z</time></trkpt><trkpt lat="42.50958646352644" lon="2.8270875029740483"><ele>93.0</ele><time>2026-04-22T13:53:44Z</time></trkpt><trkpt lat="42.509682870808085" lon="2.8271763120406197"><ele>92.5</ele><time>2026-04-22T13:53:45Z</time></trkpt><trkpt lat="42.50978508557655" lon="2.827274368563322"><ele>92.0</ele><time>2026-04-22T13:53:46Z</time></trkpt><trkpt lat="42.509882952538156" lon="2.8273604581576497"><ele>91.5</ele><time>2026-04-22T13:53:47Z</time></trkpt><trkpt lat="42.50997586597736" lon="2.8274464620602098"><ele>91.0</ele><time>2026-04-22T13:53:48Z</time></trkpt><trkpt lat="42.51006618404137" lon="2.8275284285893973"><ele>91.0</ele><time>2026-04-22T13:53:49Z</time></trkpt><trkpt lat="42.51014779827182" lon="2.8276102272669843"><ele>91.0</ele><time>2026-04-22T13:53:50Z</time></trkpt><trkpt lat="42.510232308095695" lon="2.8276942069659325"><ele>91.0</ele><time>2026-04-22T13:53:51Z</time></trkpt><trkpt lat="42.510322210913515" lon="2.8277769044334518"><ele>91.0</ele><time>2026-04-22T13:53:52Z</time></trkpt><trkpt lat="42.51040924118503" lon="2.8278627968436583"><ele>91.0</ele><time>2026-04-22T13:53:53Z</time></trkpt><trkpt lat="42.51050055558923" lon="2.8279455676077623"><ele>91.19999999999999</ele><time>2026-04-22T13:53:54Z</time></trkpt><trkpt lat="42.510589085869306" lon="2.8280272766180388"><ele>91.39999999999999</ele><time>2026-04-22T13:53:55Z</time></trkpt><trkpt lat="42.51067883848672" lon="2.828108526512498"><ele>91.6</ele><time>2026-04-22T13:53:56Z</time></trkpt><trkpt lat="42.5107729899501" lon="2.8281965301001972"><ele>91.8</ele><time>2026-04-22T13:53:57Z</time></trkpt><trkpt lat="42.51086790462082" lon="2.8282860254687816"><ele>92.0</ele><time>2026-04-22T13:53:58Z</time></trkpt><trkpt lat="42.51096127408784" lon="2.8283725920440674"><ele>92.0</ele><time>2026-04-22T13:53:59Z</time></trkpt><trkpt lat="42.51105933897992" lon="2.828462403029486"><ele>92.0</ele><time>2026-04-22T13:54:00Z</time></trkpt><trkpt lat="42.51115291688593" lon="2.8285522671371064"><ele>92.0</ele><time>2026-04-22T13:54:01Z</time></trkpt><trkpt lat="42.511243959861254" lon="2.828640053273655"><ele>92.0</ele><time>2026-04-22T13:54:02Z</time></trkpt><trkpt lat="42.51133480335356" lon="2.828727297881052"><ele>92.6</ele><time>2026-04-22T13:54:03Z</time></trkpt><trkpt lat="42.51142589982417" lon="2.82880551212227"><ele>93.19999999999999</ele><time>2026-04-22T13:54:04Z</time></trkpt><trkpt lat="42.51152030208321" lon="2.8288787506079998"><ele>93.8</ele><time>2026-04-22T13:54:05Z</time></trkpt><trkpt lat="42.51161842687707" lon="2.828946643112583"><ele>94.4</ele><time>2026-04-22T13:54:06Z</time></trkpt><trkpt lat="42.51172239864291" lon="2.8290058996162273"><ele>95.0</ele><time>2026-04-22T13:54:07Z</time></trkpt><trkpt lat="42.51182432590972" lon="2.829063921675617"><ele>95.0</ele><time>2026-04-22T13:54:08Z</time></trkpt><trkpt lat="42.511926906231885" lon="2.829115812186653"><ele>95.0</ele><time>2026-04-22T13:54:09Z</time></trkpt><trkpt lat="42.51202654826831" lon="2.8291653843023723"><ele>95.0</ele><time>2026-04-22T13:54:10Z</time></trkpt><trkpt lat="42.512135930403055" lon="2.8292138797564577"><ele>95.0</ele><time>2026-04-22T13:54:11Z</time></trkpt><trkpt lat="42.51224171556409" lon="2.8292669387637943"><ele>95.0</ele><time>2026-04-22T13:54:12Z</time></trkpt><trkpt lat="42.512344898649864" lon="2.829318864846344"><ele>94.8</ele><time>2026-04-22T13:54:13Z</time></trkpt><trkpt lat="42.51245257772012" lon="2.8293704386710323"><ele>94.6</ele><time>2026-04-22T13:54:14Z</time></trkpt><trkpt lat="42.51255509433862" lon="2.829420952714085"><ele>94.4</ele><time>2026-04-22T13:54:15Z</time></trkpt><trkpt lat="42.51266076476044" lon="2.829471946543798"><ele>94.2</ele><time>2026-04-22T13:54:16Z</time></trkpt><trkpt lat="42.51276462127654" lon="2.829524679635213"><ele>94.0</ele><time>2026-04-22T13:54:17Z</time></trkpt><trkpt lat="42.51286615827644" lon="2.8295751075789286"><ele>93.4</ele><time>2026-04-22T13:54:18Z</time></trkpt><trkpt lat="42.51297041013187" lon="2.829628871305132"><ele>92.80000000000001</ele><time>2026-04-22T13:54:19Z</time></trkpt><trkpt lat="42.51307018929737" lon="2.8296805898038886"><ele>92.19999999999999</ele><time>2026-04-22T13:54:20Z</time></trkpt><trkpt lat="42.513166193866134" lon="2.8297325316462505"><ele>91.6</ele><time>2026-04-22T13:54:21Z</time></trkpt><trkpt lat="42.513258003318256" lon="2.829783520526092"><ele>91.0</ele><time>2026-04-22T13:54:22Z</time></trkpt><trkpt lat="42.51335402713904" lon="2.8298310429057003"><ele>91.0</ele><time>2026-04-22T13:54:23Z</time></trkpt><trkpt lat="42.513455938380645" lon="2.8298838091164904"><ele>91.0</ele><time>2026-04-22T13:54:24Z</time></trkpt><trkpt lat="42.51355673193436" lon="2.829934725220331"><ele>91.0</ele><time>2026-04-22T13:54:25Z</time></trkpt><trkpt lat="42.51365616337694" lon="2.8299842365003163"><ele>91.0</ele><time>2026-04-22T13:54:26Z</time></trkpt><trkpt lat="42.5137418525194" lon="2.83003302868831"><ele>91.0</ele><time>2026-04-22T13:54:27Z</time></trkpt><trkpt lat="42.51380510249079" lon="2.8300986809849067"><ele>90.83333333333333</ele><time>2026-04-22T13:54:28Z</time></trkpt><trkpt lat="42.51385308283152" lon="2.8301803497435487"><ele>90.66666666666666</ele><time>2026-04-22T13:54:29Z</time></trkpt><trkpt lat="42.51390247759321" lon="2.8302607197936234"><ele>90.5</ele><time>2026-04-22T13:54:30Z</time></trkpt><trkpt lat="42.51396832938967" lon="2.8303099245032324"><ele>90.33333333333333</ele><time>2026-04-22T13:54:31Z</time></trkpt><trkpt lat="42.51404916420836" lon="2.8303250219104834"><ele>90.16666666666667</ele><time>2026-04-22T13:54:32Z</time></trkpt><trkpt lat="42.514126062593625" lon="2.8303021971451057"><ele>90.0</ele><time>2026-04-22T13:54:33Z</time></trkpt><trkpt lat="42.51431109903154" lon="2.8303183386208612"><ele>90.0</ele><time>2026-04-22T13:54:35Z</time></trkpt><trkpt lat="42.51441410187868" lon="2.830366255565927"><ele>90.0</ele><time>2026-04-22T13:54:36Z</time></trkpt><trkpt lat="42.5145237554356" lon="2.8304243873373025"><ele>90.0</ele><time>2026-04-22T13:54:37Z</time></trkpt><trkpt lat="42.51463110070545" lon="2.8304852948620787"><ele>90.0</ele><time>2026-04-22T13:54:38Z</time></trkpt><trkpt lat="42.51473863450688" lon="2.83053968420642"><ele>89.6</ele><time>2026-04-22T13:54:39Z</time></trkpt><trkpt lat="42.514845749097276" lon="2.8305964426844605"><ele>89.2</ele><time>2026-04-22T13:54:40Z</time></trkpt><trkpt lat="42.514946538593755" lon="2.8306548063884542"><ele>88.80000000000001</ele><time>2026-04-22T13:54:41Z</time></trkpt><trkpt lat="42.515052061590175" lon="2.8307105664361316"><ele>88.4</ele><time>2026-04-22T13:54:42Z</time></trkpt><trkpt lat="42.515152690025914" lon="2.830764784369508"><ele>88.0</ele><time>2026-04-22T13:54:43Z</time></trkpt><trkpt lat="42.51525728257756" lon="2.830827365189854"><ele>88.0</ele><time>2026-04-22T13:54:44Z</time></trkpt><trkpt lat="42.515363499051105" lon="2.8308871008164695"><ele>88.0</ele><time>2026-04-22T13:54:45Z</time></trkpt><trkpt lat="42.515480280194375" lon="2.830953344601584"><ele>88.0</ele><time>2026-04-22T13:54:46Z</time></trkpt><trkpt lat="42.51561617016281" lon="2.8310109627442093"><ele>88.0</ele><time>2026-04-22T13:54:47Z</time></trkpt><trkpt lat="42.51574926076005" lon="2.831084892799909"><ele>87.75</ele><time>2026-04-22T13:54:48Z</time></trkpt><trkpt lat="42.515886395529776" lon="2.8311715830957005"><ele>87.5</ele><time>2026-04-22T13:54:49Z</time></trkpt><trkpt lat="42.51600653095011" lon="2.8312593616833635"><ele>87.25</ele><time>2026-04-22T13:54:50Z</time></trkpt><trkpt lat="42.516132248876104" lon="2.831346117962743"><ele>87.0</ele><time>2026-04-22T13:54:51Z</time></trkpt><trkpt lat="42.516250027089924" lon="2.8314356959423512"><ele>85.25</ele><time>2026-04-22T13:54:52Z</time></trkpt><trkpt lat="42.516371803577144" lon="2.831524398271982"><ele>83.5</ele><time>2026-04-22T13:54:53Z</time></trkpt><trkpt lat="42.516490321214164" lon="2.831610329226363"><ele>81.75</ele><time>2026-04-22T13:54:54Z</time></trkpt><trkpt lat="42.516610347596945" lon="2.8316973711507947"><ele>80.0</ele><time>2026-04-22T13:54:55Z</time></trkpt><trkpt lat="42.51672968725786" lon="2.8317773367992403"><ele>79.5</ele><time>2026-04-22T13:54:56Z</time></trkpt><trkpt lat="42.51685241657598" lon="2.8318464111451953"><ele>79.0</ele><time>2026-04-22T13:54:57Z</time></trkpt><trkpt lat="42.51696901113963" lon="2.831902948250513"><ele>78.5</ele><time>2026-04-22T13:54:58Z</time></trkpt><trkpt lat="42.517068626091735" lon="2.831954706950774"><ele>78.0</ele><time>2026-04-22T13:54:59Z</time></trkpt><trkpt lat="42.51715843488182" lon="2.8320036273873725"><ele>77.2</ele><time>2026-04-22T13:55:00Z</time></trkpt><trkpt lat="42.51724158960846" lon="2.8320797488996687"><ele>76.4</ele><time>2026-04-22T13:55:01Z</time></trkpt><trkpt lat="42.517310750408804" lon="2.8321805063324685"><ele>75.60000000000001</ele><time>2026-04-22T13:55:02Z</time></trkpt><trkpt lat="42.51736931056232" lon="2.832312533513013"><ele>74.8</ele><time>2026-04-22T13:55:03Z</time></trkpt><trkpt lat="42.517407190075595" lon="2.8324510531361202"><ele>74.0</ele><time>2026-04-22T13:55:04Z</time></trkpt><trkpt lat="42.51741591177124" lon="2.8326006579991105"><ele>74.0</ele><time>2026-04-22T13:55:05Z</time></trkpt><trkpt lat="42.51741353955733" lon="2.8327511981577054"><ele>74.0</ele><time>2026-04-22T13:55:06Z</time></trkpt><trkpt lat="42.517393618373" lon="2.8328994428239676"><ele>74.0</ele><time>2026-04-22T13:55:07Z</time></trkpt><trkpt lat="42.5173545730849" lon="2.8330397802367866"><ele>74.0</ele><time>2026-04-22T13:55:08Z</time></trkpt><trkpt lat="42.517294176711474" lon="2.833167016515427"><ele>74.0</ele><time>2026-04-22T13:55:09Z</time></trkpt><trkpt lat="42.51721922063661" lon="2.8332727597755634"><ele>74.0</ele><time>2026-04-22T13:55:10Z</time></trkpt><trkpt lat="42.51712175578458" lon="2.833317632409943"><ele>74.0</ele><time>2026-04-22T13:55:11Z</time></trkpt><trkpt lat="42.517037017318685" lon="2.8332928160340476"><ele>74.0</ele><time>2026-04-22T13:55:12Z</time></trkpt><trkpt lat="42.51695776404499" lon="2.8332117017097613"><ele>74.0</ele><time>2026-04-22T13:55:13Z</time></trkpt><trkpt lat="42.51688812548132" lon="2.83311310424062"><ele>74.0</ele><time>2026-04-22T13:55:14Z</time></trkpt><trkpt lat="42.51684530504215" lon="2.8329854629663753"><ele>75.0</ele><time>2026-04-22T13:55:15Z</time></trkpt><trkpt lat="42.51683145360034" lon="2.8328335699808744"><ele>76.0</ele><time>2026-04-22T13:55:16Z</time></trkpt><trkpt lat="42.51685159203985" lon="2.8326600375660376"><ele>77.0</ele><time>2026-04-22T13:55:17Z</time></trkpt><trkpt lat="42.516878401369866" lon="2.8324702089323606"><ele>78.0</ele><time>2026-04-22T13:55:18Z</time></trkpt><trkpt lat="42.51690595324448" lon="2.8322752715343187"><ele>78.0</ele><time>2026-04-22T13:55:19Z</time></trkpt><trkpt lat="42.516941208614895" lon="2.8320691871059878"><ele>78.0</ele><time>2026-04-22T13:55:20Z</time></trkpt><trkpt lat="42.51698799981638" lon="2.8318580693443014"><ele>78.0</ele><time>2026-04-22T13:55:21Z</time></trkpt><trkpt lat="42.517045137680626" lon="2.831657189267421"><ele>77.0</ele><time>2026-04-22T13:55:22Z</time></trkpt><trkpt lat="42.517100507232946" lon="2.831448652492289"><ele>76.0</ele><time>2026-04-22T13:55:23Z</time></trkpt><trkpt lat="42.51715358955402" lon="2.8312212196220794"><ele>75.0</ele><time>2026-04-22T13:55:24Z</time></trkpt><trkpt lat="42.51721396325058" lon="2.831008345808794"><ele>75.0</ele><time>2026-04-22T13:55:25Z</time></trkpt><trkpt lat="42.51726101411704" lon="2.8307883655706623"><ele>75.0</ele><time>2026-04-22T13:55:26Z</time></trkpt><trkpt lat="42.51732005107177" lon="2.8305573733987712"><ele>75.0</ele><time>2026-04-22T13:55:27Z</time></trkpt><trkpt lat="42.517380903566746" lon="2.830333269834146"><ele>74.66666666666667</ele><time>2026-04-22T13:55:28Z</time></trkpt><trkpt lat="42.51744213903168" lon="2.8301205855755924"><ele>74.33333333333334</ele><time>2026-04-22T13:55:29Z</time></trkpt><trkpt lat="42.51750712563261" lon="2.8299037081040406"><ele>74.0</ele><time>2026-04-22T13:55:30Z</time></trkpt><trkpt lat="42.517567609244" lon="2.8296988795006537"><ele>74.0</ele><time>2026-04-22T13:55:31Z</time></trkpt><trkpt lat="42.51763708665373" lon="2.8295045446775418"><ele>74.0</ele><time>2026-04-22T13:55:32Z</time></trkpt><trkpt lat="42.51771389325743" lon="2.8293202003134366"><ele>74.0</ele><time>2026-04-22T13:55:33Z</time></trkpt><trkpt lat="42.51779793079321" lon="2.8291516835890547"><ele>73.5</ele><time>2026-04-22T13:55:34Z</time></trkpt><trkpt lat="42.51790773037492" lon="2.829001223358494"><ele>73.0</ele><time>2026-04-22T13:55:35Z</time></trkpt><trkpt lat="42.5180084638626" lon="2.8288811213791116"><ele>72.5</ele><time>2026-04-22T13:55:36Z</time></trkpt><trkpt lat="42.518103503662594" lon="2.82875187827975"><ele>72.0</ele><time>2026-04-22T13:55:37Z</time></trkpt><trkpt lat="42.518199443168264" lon="2.828638402980368"><ele>72.0</ele><time>2026-04-22T13:55:38Z</time></trkpt><trkpt lat="42.518297730388774" lon="2.828521743853541"><ele>72.0</ele><time>2026-04-22T13:55:39Z</time></trkpt><trkpt lat="42.51839775180878" lon="2.82839878960864"><ele>72.0</ele><time>2026-04-22T13:55:40Z</time></trkpt><trkpt lat="42.51850158600581" lon="2.8282774543471656"><ele>72.0</ele><time>2026-04-22T13:55:41Z</time></trkpt><trkpt lat="42.51870008923155" lon="2.8280297392694886"><ele>72.75</ele><time>2026-04-22T13:55:43Z</time></trkpt><trkpt lat="42.51880490486008" lon="2.827898801547018"><ele>73.5</ele><time>2026-04-22T13:55:44Z</time></trkpt><trkpt lat="42.51891138390795" lon="2.8277610940740163"><ele>74.25</ele><time>2026-04-22T13:55:45Z</time></trkpt><trkpt lat="42.51902802778204" lon="2.8276200995030347"><ele>75.0</ele><time>2026-04-22T13:55:46Z</time></trkpt><trkpt lat="42.519143388060215" lon="2.827476674519446"><ele>75.0</ele><time>2026-04-22T13:55:47Z</time></trkpt><trkpt lat="42.51926058043032" lon="2.8273320339062846"><ele>75.0</ele><time>2026-04-22T13:55:48Z</time></trkpt><trkpt lat="42.51937298056556" lon="2.827193276665015"><ele>75.0</ele><time>2026-04-22T13:55:49Z</time></trkpt><trkpt lat="42.51948078003721" lon="2.827045366910157"><ele>77.0</ele><time>2026-04-22T13:55:50Z</time></trkpt><trkpt lat="42.519584411798476" lon="2.8268968666718077"><ele>79.0</ele><time>2026-04-22T13:55:51Z</time></trkpt><trkpt lat="42.519685075801924" lon="2.826735582834936"><ele>81.0</ele><time>2026-04-22T13:55:52Z</time></trkpt><trkpt lat="42.519776214970136" lon="2.826560515627454"><ele>81.0</ele><time>2026-04-22T13:55:53Z</time></trkpt><trkpt lat="42.51986316546986" lon="2.826370059135018"><ele>81.0</ele><time>2026-04-22T13:55:54Z</time></trkpt><trkpt lat="42.51993702192769" lon="2.826167204508976"><ele>81.0</ele><time>2026-04-22T13:55:55Z</time></trkpt><trkpt lat="42.520000420959775" lon="2.82595560361029"><ele>81.33333333333333</ele><time>2026-04-22T13:55:56Z</time></trkpt><trkpt lat="42.52005277329811" lon="2.825746939893692"><ele>81.66666666666666</ele><time>2026-04-22T13:55:57Z</time></trkpt><trkpt lat="42.52008738131289" lon="2.8255254693406866"><ele>82.0</ele><time>2026-04-22T13:55:58Z</time></trkpt><trkpt lat="42.52010993358037" lon="2.8253123194800964"><ele>82.33333333333333</ele><time>2026-04-22T13:55:59Z</time></trkpt><trkpt lat="42.52011959716979" lon="2.8250938246340898"><ele>82.66666666666667</ele><time>2026-04-22T13:56:00Z</time></trkpt><trkpt lat="42.5201249514758" lon="2.8248828481618493"><ele>83.0</ele><time>2026-04-22T13:56:01Z</time></trkpt><trkpt lat="42.52011943556897" lon="2.824677404068242"><ele>83.0</ele><time>2026-04-22T13:56:02Z</time></trkpt><trkpt lat="42.52011439477149" lon="2.8244899024481267"><ele>83.0</ele><time>2026-04-22T13:56:03Z</time></trkpt><trkpt lat="42.5201148028447" lon="2.824303879378914"><ele>83.0</ele><time>2026-04-22T13:56:04Z</time></trkpt><trkpt lat="42.520113079356626" lon="2.8241238505507176"><ele>83.0</ele><time>2026-04-22T13:56:05Z</time></trkpt><trkpt lat="42.52011216745105" lon="2.823949623028984"><ele>82.75</ele><time>2026-04-22T13:56:06Z</time></trkpt><trkpt lat="42.520109726965416" lon="2.8237829262306784"><ele>82.5</ele><time>2026-04-22T13:56:07Z</time></trkpt><trkpt lat="42.5201132274766" lon="2.82361772927139"><ele>82.25</ele><time>2026-04-22T13:56:08Z</time></trkpt><trkpt lat="42.52013475715479" lon="2.8234657293028143"><ele>82.0</ele><time>2026-04-22T13:56:09Z</time></trkpt><trkpt lat="42.52016541156424" lon="2.823316794790269"><ele>82.8</ele><time>2026-04-22T13:56:10Z</time></trkpt><trkpt lat="42.52020767982395" lon="2.8231757121346313"><ele>83.6</ele><time>2026-04-22T13:56:11Z</time></trkpt><trkpt lat="42.5202559539611" lon="2.82304300433144"><ele>84.39999999999999</ele><time>2026-04-22T13:56:12Z</time></trkpt><trkpt lat="42.52030827019805" lon="2.8229296600587115"><ele>85.19999999999999</ele><time>2026-04-22T13:56:13Z</time></trkpt><trkpt lat="42.520366062659505" lon="2.8228207826532943"><ele>86.0</ele><time>2026-04-22T13:56:14Z</time></trkpt><trkpt lat="42.520428022817896" lon="2.822729346078478"><ele>87.0</ele><time>2026-04-22T13:56:15Z</time></trkpt><trkpt lat="42.52048935995209" lon="2.8226567686237254"><ele>88.0</ele><time>2026-04-22T13:56:16Z</time></trkpt><trkpt lat="42.52054502706414" lon="2.822601110356689"><ele>89.0</ele><time>2026-04-22T13:56:17Z</time></trkpt><trkpt lat="42.52060969664953" lon="2.8225526111560892"><ele>90.0</ele><time>2026-04-22T13:56:19Z</time></trkpt><trkpt lat="42.52067730498556" lon="2.822518649939326"><ele>91.0</ele><time>2026-04-22T13:56:23Z</time></trkpt><trkpt lat="42.520773803635045" lon="2.8225266000198976"><ele>92.0</ele><time>2026-04-22T13:56:25Z</time></trkpt><trkpt lat="42.520981627909606" lon="2.8226298893703707"><ele>92.16666666666667</ele><time>2026-04-22T13:56:28Z</time></trkpt><trkpt lat="42.52105590694094" lon="2.8226191503089946"><ele>92.33333333333334</ele><time>2026-04-22T13:56:29Z</time></trkpt><trkpt lat="42.52111929122054" lon="2.822578313719262"><ele>92.5</ele><time>2026-04-22T13:56:30Z</time></trkpt><trkpt lat="42.52117760455621" lon="2.822522470432629"><ele>92.66666666666667</ele><time>2026-04-22T13:56:31Z</time></trkpt><trkpt lat="42.521228570629106" lon="2.822396218715328"><ele>92.83333333333333</ele><time>2026-04-22T13:56:33Z</time></trkpt><trkpt lat="42.52125004703571" lon="2.822278273916349"><ele>93.0</ele><time>2026-04-22T13:56:35Z</time></trkpt><trkpt lat="42.5212380286683" lon="2.8221569622018503"><ele>93.0</ele><time>2026-04-22T13:56:37Z</time></trkpt><trkpt lat="42.52117487776276" lon="2.8220232810716173"><ele>93.0</ele><time>2026-04-22T13:56:39Z</time></trkpt><trkpt lat="42.52107952902208" lon="2.8219351825052064"><ele>93.0</ele><time>2026-04-22T13:56:41Z</time></trkpt><trkpt lat="42.52101967141341" lon="2.8218938123880437"><ele>93.0</ele><time>2026-04-22T13:56:42Z</time></trkpt><trkpt lat="42.52096079910141" lon="2.821849024417549"><ele>93.0</ele><time>2026-04-22T13:56:43Z</time></trkpt><trkpt lat="42.52090322989779" lon="2.821780214075963"><ele>93.0</ele><time>2026-04-22T13:56:44Z</time></trkpt><trkpt lat="42.520791339719544" lon="2.8215820492006944"><ele>93.0</ele><time>2026-04-22T13:56:46Z</time></trkpt><trkpt lat="42.520735404741025" lon="2.8214646256946256"><ele>93.0</ele><time>2026-04-22T13:56:47Z</time></trkpt><trkpt lat="42.52068370359729" lon="2.8213329831459"><ele>93.0</ele><time>2026-04-22T13:56:48Z</time></trkpt><trkpt lat="42.52061962643024" lon="2.821010548687297"><ele>93.25</ele><time>2026-04-22T13:56:50Z</time></trkpt><trkpt lat="42.520611829137906" lon="2.8208473518062496"><ele>93.5</ele><time>2026-04-22T13:56:51Z</time></trkpt><trkpt lat="42.5206142045999" lon="2.820688751990397"><ele>93.75</ele><time>2026-04-22T13:56:52Z</time></trkpt><trkpt lat="42.52062574618872" lon="2.82053770314616"><ele>94.0</ele><time>2026-04-22T13:56:53Z</time></trkpt><trkpt lat="42.520643571572734" lon="2.8203817308827475"><ele>94.0</ele><time>2026-04-22T13:56:54Z</time></trkpt><trkpt lat="42.520665806048456" lon="2.820224653844385"><ele>94.0</ele><time>2026-04-22T13:56:55Z</time></trkpt><trkpt lat="42.52068776154324" lon="2.8200639569179775"><ele>94.0</ele><time>2026-04-22T13:56:56Z</time></trkpt><trkpt lat="42.520720012594325" lon="2.8199037627466943"><ele>94.0</ele><time>2026-04-22T13:56:57Z</time></trkpt><trkpt lat="42.520758679423366" lon="2.819747748244121"><ele>94.0</ele><time>2026-04-22T13:56:58Z</time></trkpt><trkpt lat="42.520804792611656" lon="2.819581689306291"><ele>94.0</ele><time>2026-04-22T13:56:59Z</time></trkpt><trkpt lat="42.520851058865894" lon="2.81940414311167"><ele>94.0</ele><time>2026-04-22T13:57:00Z</time></trkpt><trkpt lat="42.52089837826875" lon="2.8192335563847104"><ele>94.0</ele><time>2026-04-22T13:57:01Z</time></trkpt><trkpt lat="42.520941362241935" lon="2.819067742872959"><ele>93.5</ele><time>2026-04-22T13:57:02Z</time></trkpt><trkpt lat="42.520984067252876" lon="2.818905754633399"><ele>93.0</ele><time>2026-04-22T13:57:03Z</time></trkpt><trkpt lat="42.521028136806606" lon="2.818755731007503"><ele>92.5</ele><time>2026-04-22T13:57:04Z</time></trkpt><trkpt lat="42.52106666772127" lon="2.8186128874319083"><ele>92.0</ele><time>2026-04-22T13:57:05Z</time></trkpt><trkpt lat="42.52110723949645" lon="2.8184755983629577"><ele>92.19999999999999</ele><time>2026-04-22T13:57:06Z</time></trkpt><trkpt lat="42.52114781478183" lon="2.8183416129283785"><ele>92.4</ele><time>2026-04-22T13:57:07Z</time></trkpt><trkpt lat="42.52118658359436" lon="2.8182089087186717"><ele>92.6</ele><time>2026-04-22T13:57:08Z</time></trkpt><trkpt lat="42.521224725972836" lon="2.818077990269972"><ele>92.80000000000001</ele><time>2026-04-22T13:57:09Z</time></trkpt><trkpt lat="42.52126028603244" lon="2.817961450307696"><ele>93.0</ele><time>2026-04-22T13:57:10Z</time></trkpt><trkpt lat="42.521292398860105" lon="2.8178530167282805"><ele>93.00000000000001</ele><time>2026-04-22T13:57:11Z</time></trkpt><trkpt lat="42.52132155257786" lon="2.817752550481074"><ele>93.0</ele><time>2026-04-22T13:57:12Z</time></trkpt><trkpt lat="42.521351212063806" lon="2.817652989486736"><ele>93.0</ele><time>2026-04-22T13:57:13Z</time></trkpt><trkpt lat="42.52139282811675" lon="2.817574548444967"><ele>93.0</ele><time>2026-04-22T13:57:14Z</time></trkpt><trkpt lat="42.5214482862223" lon="2.81752645696705"><ele>93.0</ele><time>2026-04-22T13:57:15Z</time></trkpt><trkpt lat="42.521515345249654" lon="2.81749168473063"><ele>93.00000000000001</ele><time>2026-04-22T13:57:16Z</time></trkpt><trkpt lat="42.5215818793083" lon="2.8174579355812726"><ele>93.0</ele><time>2026-04-22T13:57:17Z</time></trkpt><trkpt lat="42.52163941904808" lon="2.817398060582494"><ele>92.83333333333333</ele><time>2026-04-22T13:57:18Z</time></trkpt><trkpt lat="42.5216832939794" lon="2.8173343396612776"><ele>92.66666666666667</ele><time>2026-04-22T13:57:19Z</time></trkpt><trkpt lat="42.52172800144442" lon="2.8171730651698934"><ele>92.5</ele><time>2026-04-22T13:57:21Z</time></trkpt><trkpt lat="42.52171927816461" lon="2.8170765932329274"><ele>92.33333333333334</ele><time>2026-04-22T13:57:22Z</time></trkpt><trkpt lat="42.52168555248845" lon="2.8169742454318456"><ele>92.16666666666667</ele><time>2026-04-22T13:57:23Z</time></trkpt><trkpt lat="42.52164688906795" lon="2.8168801259502483"><ele>92.0</ele><time>2026-04-22T13:57:24Z</time></trkpt><trkpt lat="42.521623822386374" lon="2.816774475699649"><ele>92.0</ele><time>2026-04-22T13:57:25Z</time></trkpt><trkpt lat="42.52162892149542" lon="2.8166570238595066"><ele>92.0</ele><time>2026-04-22T13:57:26Z</time></trkpt><trkpt lat="42.521651734181916" lon="2.816536789151424"><ele>92.0</ele><time>2026-04-22T13:57:27Z</time></trkpt><trkpt lat="42.521692277679946" lon="2.8163973001791156"><ele>92.0</ele><time>2026-04-22T13:57:28Z</time></trkpt><trkpt lat="42.521730947811896" lon="2.816248400851195"><ele>92.0</ele><time>2026-04-22T13:57:29Z</time></trkpt><trkpt lat="42.52177935362273" lon="2.816086369703098"><ele>90.0</ele><time>2026-04-22T13:57:30Z</time></trkpt><trkpt lat="42.52183303785876" lon="2.815908232274753"><ele>88.0</ele><time>2026-04-22T13:57:31Z</time></trkpt><trkpt lat="42.52187741401687" lon="2.815727648407225"><ele>86.0</ele><time>2026-04-22T13:57:32Z</time></trkpt><trkpt lat="42.521931296525196" lon="2.815550682713392"><ele>84.0</ele><time>2026-04-22T13:57:33Z</time></trkpt><trkpt lat="42.52197708257711" lon="2.815376631469856"><ele>84.0</ele><time>2026-04-22T13:57:34Z</time></trkpt><trkpt lat="42.522017235881194" lon="2.8152045117148106"><ele>84.0</ele><time>2026-04-22T13:57:35Z</time></trkpt><trkpt lat="42.522061684713556" lon="2.8150231647218855"><ele>84.0</ele><time>2026-04-22T13:57:36Z</time></trkpt><trkpt lat="42.5221050136935" lon="2.8148372953805523"><ele>84.0</ele><time>2026-04-22T13:57:37Z</time></trkpt><trkpt lat="42.522149871956984" lon="2.8146493182980525"><ele>86.25</ele><time>2026-04-22T13:57:38Z</time></trkpt><trkpt lat="42.522195743943115" lon="2.814460135015651"><ele>88.5</ele><time>2026-04-22T13:57:39Z</time></trkpt><trkpt lat="42.52224002877863" lon="2.814270256101858"><ele>90.75</ele><time>2026-04-22T13:57:40Z</time></trkpt><trkpt lat="42.52227834273574" lon="2.81407353904728"><ele>93.0</ele><time>2026-04-22T13:57:41Z</time></trkpt><trkpt lat="42.52231825587966" lon="2.813879597904627"><ele>93.0</ele><time>2026-04-22T13:57:42Z</time></trkpt><trkpt lat="42.52235786907815" lon="2.813685837339554"><ele>93.0</ele><time>2026-04-22T13:57:43Z</time></trkpt><trkpt lat="42.52239296832076" lon="2.813490994600864"><ele>93.0</ele><time>2026-04-22T13:57:44Z</time></trkpt><trkpt lat="42.522426417106374" lon="2.8132902884091915"><ele>93.0</ele><time>2026-04-22T13:57:45Z</time></trkpt><trkpt lat="42.52247487580583" lon="2.8128895134990244"><ele>92.66666666666667</ele><time>2026-04-22T13:57:47Z</time></trkpt><trkpt lat="42.52248570342653" lon="2.8126825372922264"><ele>92.33333333333334</ele><time>2026-04-22T13:57:48Z</time></trkpt><trkpt lat="42.522491704442054" lon="2.812472680962855"><ele>92.0</ele><time>2026-04-22T13:57:49Z</time></trkpt><trkpt lat="42.52249448331982" lon="2.8122569923464753"><ele>92.0</ele><time>2026-04-22T13:57:50Z</time></trkpt><trkpt lat="42.52248834689725" lon="2.812046914618513"><ele>92.0</ele><time>2026-04-22T13:57:51Z</time></trkpt><trkpt lat="42.52248262521107" lon="2.8118459891673906"><ele>92.0</ele><time>2026-04-22T13:57:52Z</time></trkpt><trkpt lat="42.52246430881505" lon="2.811645537163145"><ele>92.0</ele><time>2026-04-22T13:57:53Z</time></trkpt><trkpt lat="42.522442261115984" lon="2.811446301461971"><ele>92.0</ele><time>2026-04-22T13:57:54Z</time></trkpt><trkpt lat="42.52241757786883" lon="2.811240347963309"><ele>92.0</ele><time>2026-04-22T13:57:55Z</time></trkpt><trkpt lat="42.52239091352876" lon="2.8110574696686825"><ele>92.0</ele><time>2026-04-22T13:57:56Z</time></trkpt><trkpt lat="42.52236049682254" lon="2.81087983785456"><ele>92.33333333333334</ele><time>2026-04-22T13:57:57Z</time></trkpt><trkpt lat="42.52229572111445" lon="2.8105316761041377"><ele>92.66666666666667</ele><time>2026-04-22T13:57:59Z</time></trkpt><trkpt lat="42.5222619074631" lon="2.8103570794265256"><ele>93.0</ele><time>2026-04-22T13:58:00Z</time></trkpt><trkpt lat="42.52222403294532" lon="2.8101704117714155"><ele>92.66666666666667</ele><time>2026-04-22T13:58:01Z</time></trkpt><trkpt lat="42.52213549933413" lon="2.8098007633111184"><ele>92.33333333333334</ele><time>2026-04-22T13:58:03Z</time></trkpt><trkpt lat="42.52207815806912" lon="2.809606265146481"><ele>92.0</ele><time>2026-04-22T13:58:04Z</time></trkpt><trkpt lat="42.5220162397259" lon="2.8094221032032416"><ele>90.33333333333334</ele><time>2026-04-22T13:58:05Z</time></trkpt><trkpt lat="42.52194849315069" lon="2.8092341182184333"><ele>88.66666666666667</ele><time>2026-04-22T13:58:06Z</time></trkpt><trkpt lat="42.521878410951146" lon="2.809050595292945"><ele>87.0</ele><time>2026-04-22T13:58:07Z</time></trkpt><trkpt lat="42.521804097951346" lon="2.8088626639145935"><ele>87.0</ele><time>2026-04-22T13:58:08Z</time></trkpt><trkpt lat="42.52172822367803" lon="2.808679495889375"><ele>87.0</ele><time>2026-04-22T13:58:09Z</time></trkpt><trkpt lat="42.52165241584028" lon="2.808503575601491"><ele>87.0</ele><time>2026-04-22T13:58:10Z</time></trkpt><trkpt lat="42.521578539244025" lon="2.808324030760802"><ele>87.66666666666667</ele><time>2026-04-22T13:58:11Z</time></trkpt><trkpt lat="42.52143601591074" lon="2.8079821609192126"><ele>88.33333333333334</ele><time>2026-04-22T13:58:13Z</time></trkpt><trkpt lat="42.52136901545247" lon="2.8078206262806265"><ele>89.0</ele><time>2026-04-22T13:58:14Z</time></trkpt><trkpt lat="42.521301598785676" lon="2.8076604018699016"><ele>89.25</ele><time>2026-04-22T13:58:15Z</time></trkpt><trkpt lat="42.5212370035619" lon="2.807503247436098"><ele>89.5</ele><time>2026-04-22T13:58:16Z</time></trkpt><trkpt lat="42.52117560837211" lon="2.807346768521704"><ele>89.75</ele><time>2026-04-22T13:58:17Z</time></trkpt><trkpt lat="42.521118019955054" lon="2.807195230670694"><ele>90.0</ele><time>2026-04-22T13:58:18Z</time></trkpt><trkpt lat="42.521063881765045" lon="2.807053816238603"><ele>90.0</ele><time>2026-04-22T13:58:19Z</time></trkpt><trkpt lat="42.52101790267998" lon="2.8069234396768046"><ele>90.0</ele><time>2026-04-22T13:58:20Z</time></trkpt><trkpt lat="42.520976058097006" lon="2.8068144103755133"><ele>90.0</ele><time>2026-04-22T13:58:21Z</time></trkpt><trkpt lat="42.52093509371601" lon="2.8067068652865266"><ele>90.0</ele><time>2026-04-22T13:58:22Z</time></trkpt><trkpt lat="42.52089792239151" lon="2.8066063611229226"><ele>90.0</ele><time>2026-04-22T13:58:23Z</time></trkpt><trkpt lat="42.52087755496439" lon="2.8065039219535977"><ele>90.0</ele><time>2026-04-22T13:58:24Z</time></trkpt><trkpt lat="42.5208786822674" lon="2.8063860010326986"><ele>90.0</ele><time>2026-04-22T13:58:25Z</time></trkpt><trkpt lat="42.52091661535456" lon="2.80629471168452"><ele>90.0</ele><time>2026-04-22T13:58:26Z</time></trkpt><trkpt lat="42.52098724259276" lon="2.8062335123282613"><ele>90.0</ele><time>2026-04-22T13:58:27Z</time></trkpt><trkpt lat="42.52107904622486" lon="2.8061996591937532"><ele>90.0</ele><time>2026-04-22T13:58:28Z</time></trkpt><trkpt lat="42.52117786785111" lon="2.8061885774997903"><ele>90.0</ele><time>2026-04-22T13:58:29Z</time></trkpt><trkpt lat="42.52128252010508" lon="2.8061708016152362"><ele>90.5</ele><time>2026-04-22T13:58:30Z</time></trkpt><trkpt lat="42.52139347329055" lon="2.806152491772447"><ele>91.0</ele><time>2026-04-22T13:58:31Z</time></trkpt><trkpt lat="42.521517182784336" lon="2.806128858650369"><ele>91.5</ele><time>2026-04-22T13:58:32Z</time></trkpt><trkpt lat="42.52163889858169" lon="2.806113880547565"><ele>92.0</ele><time>2026-04-22T13:58:33Z</time></trkpt><trkpt lat="42.52176680506513" lon="2.8061000823800053"><ele>92.0</ele><time>2026-04-22T13:58:34Z</time></trkpt><trkpt lat="42.52191474296255" lon="2.8060818126096554"><ele>92.0</ele><time>2026-04-22T13:58:35Z</time></trkpt><trkpt lat="42.522066025105055" lon="2.80606708136082"><ele>92.0</ele><time>2026-04-22T13:58:36Z</time></trkpt><trkpt lat="42.5222299992574" lon="2.8060525386412007"><ele>93.0</ele><time>2026-04-22T13:58:37Z</time></trkpt><trkpt lat="42.522382958018056" lon="2.8060413122965593"><ele>94.0</ele><time>2026-04-22T13:58:38Z</time></trkpt><trkpt lat="42.522535680021115" lon="2.8060175312706055"><ele>95.0</ele><time>2026-04-22T13:58:39Z</time></trkpt><trkpt lat="42.522695040516844" lon="2.8059946062522467"><ele>96.33333333333334</ele><time>2026-04-22T13:58:40Z</time></trkpt><trkpt lat="42.52285706331805" lon="2.805973411210432"><ele>97.66666666666667</ele><time>2026-04-22T13:58:41Z</time></trkpt><trkpt lat="42.523022395684606" lon="2.8059565959295165"><ele>99.0</ele><time>2026-04-22T13:58:42Z</time></trkpt><trkpt lat="42.523188218135594" lon="2.8059383688129116"><ele>101.33333333333334</ele><time>2026-04-22T13:58:43Z</time></trkpt><trkpt lat="42.52336098533108" lon="2.805927128580384"><ele>103.66666666666667</ele><time>2026-04-22T13:58:44Z</time></trkpt><trkpt lat="42.523528305604756" lon="2.8059184688129473"><ele>106.0</ele><time>2026-04-22T13:58:45Z</time></trkpt><trkpt lat="42.523691553633434" lon="2.8059179900371696"><ele>105.75</ele><time>2026-04-22T13:58:46Z</time></trkpt><trkpt lat="42.52384073006726" lon="2.8059194517423087"><ele>105.5</ele><time>2026-04-22T13:58:47Z</time></trkpt><trkpt lat="42.523988602846394" lon="2.805923996415896"><ele>105.25</ele><time>2026-04-22T13:58:48Z</time></trkpt><trkpt lat="42.52413767652913" lon="2.805934293508543"><ele>105.0</ele><time>2026-04-22T13:58:49Z</time></trkpt><trkpt lat="42.52427876423337" lon="2.8059456296108096"><ele>105.0</ele><time>2026-04-22T13:58:50Z</time></trkpt><trkpt lat="42.5244138883045" lon="2.8059683495672796"><ele>105.0</ele><time>2026-04-22T13:58:51Z</time></trkpt><trkpt lat="42.52454495415186" lon="2.805988236693541"><ele>105.0</ele><time>2026-04-22T13:58:52Z</time></trkpt><trkpt lat="42.524665159541684" lon="2.806017080707405"><ele>105.0</ele><time>2026-04-22T13:58:53Z</time></trkpt><trkpt lat="42.52478098007832" lon="2.8060499725288395"><ele>106.0</ele><time>2026-04-22T13:58:54Z</time></trkpt><trkpt lat="42.5248882505709" lon="2.8060937078996635"><ele>107.0</ele><time>2026-04-22T13:58:55Z</time></trkpt><trkpt lat="42.524989109307015" lon="2.8061494220972194"><ele>108.0</ele><time>2026-04-22T13:58:56Z</time></trkpt><trkpt lat="42.52507642851396" lon="2.806216953636024"><ele>109.0</ele><time>2026-04-22T13:58:57Z</time></trkpt><trkpt lat="42.525141114286846" lon="2.806315751301462"><ele>110.0</ele><time>2026-04-22T13:58:58Z</time></trkpt><trkpt lat="42.52519555627851" lon="2.8064108990261287"><ele>110.0</ele><time>2026-04-22T13:58:59Z</time></trkpt><trkpt lat="42.52526551426669" lon="2.8064903181099714"><ele>110.0</ele><time>2026-04-22T13:59:00Z</time></trkpt><trkpt lat="42.525353688314276" lon="2.8065285760969925"><ele>110.0</ele><time>2026-04-22T13:59:01Z</time></trkpt><trkpt lat="42.52545526839632" lon="2.8065238214347215"><ele>110.0</ele><time>2026-04-22T13:59:02Z</time></trkpt><trkpt lat="42.52554557928729" lon="2.806477636104149"><ele>110.0</ele><time>2026-04-22T13:59:03Z</time></trkpt><trkpt lat="42.52563845055828" lon="2.8064269630939442"><ele>111.0</ele><time>2026-04-22T13:59:04Z</time></trkpt><trkpt lat="42.52574339204906" lon="2.8064089512374615"><ele>112.0</ele><time>2026-04-22T13:59:05Z</time></trkpt><trkpt lat="42.525852562279276" lon="2.8064316455183156"><ele>113.0</ele><time>2026-04-22T13:59:06Z</time></trkpt><trkpt lat="42.525947750392874" lon="2.8064803670575764"><ele>114.0</ele><time>2026-04-22T13:59:07Z</time></trkpt><trkpt lat="42.52604968495067" lon="2.806534818611557"><ele>115.0</ele><time>2026-04-22T13:59:08Z</time></trkpt><trkpt lat="42.52616138099882" lon="2.806598617632437"><ele>116.0</ele><time>2026-04-22T13:59:09Z</time></trkpt><trkpt lat="42.52626527731792" lon="2.806666233310815"><ele>117.0</ele><time>2026-04-22T13:59:10Z</time></trkpt><trkpt lat="42.52636535954338" lon="2.806731073647246"><ele>118.0</ele><time>2026-04-22T13:59:11Z</time></trkpt><trkpt lat="42.526470186963465" lon="2.806797582604164"><ele>119.0</ele><time>2026-04-22T13:59:12Z</time></trkpt><trkpt lat="42.52658237749058" lon="2.806872944044127"><ele>119.0</ele><time>2026-04-22T13:59:13Z</time></trkpt><trkpt lat="42.526690599329406" lon="2.806955789341549"><ele>119.0</ele><time>2026-04-22T13:59:14Z</time></trkpt><trkpt lat="42.52680288488789" lon="2.807045899454495"><ele>119.0</ele><time>2026-04-22T13:59:15Z</time></trkpt><trkpt lat="42.526922823737365" lon="2.807139845719104"><ele>119.0</ele><time>2026-04-22T13:59:16Z</time></trkpt><trkpt lat="42.527042878858865" lon="2.807244454189021"><ele>124.0</ele><time>2026-04-22T13:59:17Z</time></trkpt><trkpt lat="42.52716613062597" lon="2.807355665802499"><ele>129.0</ele><time>2026-04-22T13:59:18Z</time></trkpt><trkpt lat="42.527291946525985" lon="2.807474555271793"><ele>134.0</ele><time>2026-04-22T13:59:19Z</time></trkpt><trkpt lat="42.52741674629513" lon="2.8076022757367003"><ele>136.66666666666666</ele><time>2026-04-22T13:59:20Z</time></trkpt><trkpt lat="42.527546539498054" lon="2.807733616157343"><ele>139.33333333333334</ele><time>2026-04-22T13:59:21Z</time></trkpt><trkpt lat="42.527675424850734" lon="2.807874976976775"><ele>142.0</ele><time>2026-04-22T13:59:22Z</time></trkpt><trkpt lat="42.52780533736885" lon="2.808025069157442"><ele>139.0</ele><time>2026-04-22T13:59:23Z</time></trkpt><trkpt lat="42.52793518624251" lon="2.8081801849096752"><ele>136.0</ele><time>2026-04-22T13:59:24Z</time></trkpt><trkpt lat="42.52806968084648" lon="2.8083477212285137"><ele>133.0</ele><time>2026-04-22T13:59:25Z</time></trkpt><trkpt lat="42.52820102195583" lon="2.8085199689521514"><ele>132.33333333333334</ele><time>2026-04-22T13:59:26Z</time></trkpt><trkpt lat="42.52833062516363" lon="2.8086988116018086"><ele>131.66666666666666</ele><time>2026-04-22T13:59:27Z</time></trkpt><trkpt lat="42.52845455830597" lon="2.808881712924048"><ele>131.0</ele><time>2026-04-22T13:59:28Z</time></trkpt><trkpt lat="42.52857569417496" lon="2.80907566341589"><ele>131.0</ele><time>2026-04-22T13:59:29Z</time></trkpt><trkpt lat="42.52869516473453" lon="2.809280457401076"><ele>131.0</ele><time>2026-04-22T13:59:30Z</time></trkpt><trkpt lat="42.52881166896132" lon="2.809494018110783"><ele>131.0</ele><time>2026-04-22T13:59:31Z</time></trkpt><trkpt lat="42.52892312529624" lon="2.809713923260423"><ele>131.0</ele><time>2026-04-22T13:59:32Z</time></trkpt><trkpt lat="42.529028221576525" lon="2.8099460743442544"><ele>131.0</ele><time>2026-04-22T13:59:33Z</time></trkpt><trkpt lat="42.52913417491429" lon="2.8101797912026267"><ele>131.0</ele><time>2026-04-22T13:59:34Z</time></trkpt><trkpt lat="42.529230852831446" lon="2.8104165273382224"><ele>129.33333333333331</ele><time>2026-04-22T13:59:35Z</time></trkpt><trkpt lat="42.52932188877435" lon="2.8106596995494924"><ele>127.66666666666666</ele><time>2026-04-22T13:59:36Z</time></trkpt><trkpt lat="42.52940732931903" lon="2.810905825470261"><ele>126.0</ele><time>2026-04-22T13:59:37Z</time></trkpt><trkpt lat="42.52956236780764" lon="2.811411920637788"><ele>126.0</ele><time>2026-04-22T13:59:39Z</time></trkpt><trkpt lat="42.52962716053534" lon="2.8116686392050343"><ele>126.0</ele><time>2026-04-22T13:59:40Z</time></trkpt><trkpt lat="42.52968694805371" lon="2.8119320716223624"><ele>126.0</ele><time>2026-04-22T13:59:41Z</time></trkpt><trkpt lat="42.52974123158419" lon="2.8121976144571312"><ele>123.33333333333334</ele><time>2026-04-22T13:59:42Z</time></trkpt><trkpt lat="42.52978801100332" lon="2.8124682251459427"><ele>120.66666666666667</ele><time>2026-04-22T13:59:43Z</time></trkpt><trkpt lat="42.52983017760934" lon="2.812743175882937"><ele>118.0</ele><time>2026-04-22T13:59:44Z</time></trkpt><trkpt lat="42.529867764138885" lon="2.813013485031065"><ele>118.0</ele><time>2026-04-22T13:59:45Z</time></trkpt><trkpt lat="42.5299050552086" lon="2.8132826640963597"><ele>118.0</ele><time>2026-04-22T13:59:46Z</time></trkpt><trkpt lat="42.529944000846854" lon="2.81355397338544"><ele>118.0</ele><time>2026-04-22T13:59:47Z</time></trkpt><trkpt lat="42.529989066941724" lon="2.813823347477052"><ele>118.5</ele><time>2026-04-22T13:59:48Z</time></trkpt><trkpt lat="42.53003151395119" lon="2.8140831309723944"><ele>119.0</ele><time>2026-04-22T13:59:49Z</time></trkpt><trkpt lat="42.53012971305485" lon="2.8146053737768204"><ele>118.0</ele><time>2026-04-22T13:59:51Z</time></trkpt><trkpt lat="42.530187835244845" lon="2.8148606761456056"><ele>117.0</ele><time>2026-04-22T13:59:52Z</time></trkpt><trkpt lat="42.53024624102794" lon="2.8151192131251155"><ele>116.0</ele><time>2026-04-22T13:59:53Z</time></trkpt><trkpt lat="42.530310689993975" lon="2.8153725598909363"><ele>116.0</ele><time>2026-04-22T13:59:54Z</time></trkpt><trkpt lat="42.53037828232478" lon="2.8156276008053847"><ele>116.0</ele><time>2026-04-22T13:59:55Z</time></trkpt><trkpt lat="42.53052096206677" lon="2.816132664330125"><ele>116.0</ele><time>2026-04-22T13:59:57Z</time></trkpt><trkpt lat="42.53060096878026" lon="2.8163820450527264"><ele>116.0</ele><time>2026-04-22T13:59:58Z</time></trkpt><trkpt lat="42.53068218615491" lon="2.816627682310029"><ele>116.0</ele><time>2026-04-22T13:59:59Z</time></trkpt><trkpt lat="42.5307700103505" lon="2.816867537955681"><ele>114.66666666666666</ele><time>2026-04-22T14:00:00Z</time></trkpt><trkpt lat="42.53086021499336" lon="2.8171070965047202"><ele>113.33333333333334</ele><time>2026-04-22T14:00:01Z</time></trkpt><trkpt lat="42.530953380262886" lon="2.8173463895254933"><ele>112.0</ele><time>2026-04-22T14:00:02Z</time></trkpt><trkpt lat="42.531052565673185" lon="2.8175818914073014"><ele>110.33333333333334</ele><time>2026-04-22T14:00:03Z</time></trkpt><trkpt lat="42.53115322713449" lon="2.817812477291844"><ele>108.66666666666666</ele><time>2026-04-22T14:00:04Z</time></trkpt><trkpt lat="42.531256978392825" lon="2.818044686642628"><ele>107.0</ele><time>2026-04-22T14:00:05Z</time></trkpt><trkpt lat="42.53136680682318" lon="2.818272749391554"><ele>106.5</ele><time>2026-04-22T14:00:06Z</time></trkpt><trkpt lat="42.53147635672442" lon="2.8185000240215823"><ele>106.0</ele><time>2026-04-22T14:00:07Z</time></trkpt><trkpt lat="42.53171674945088" lon="2.8189432085458503"><ele>106.0</ele><time>2026-04-22T14:00:09Z</time></trkpt><trkpt lat="42.53184053366106" lon="2.8191625674364316"><ele>106.0</ele><time>2026-04-22T14:00:10Z</time></trkpt><trkpt lat="42.531966245260605" lon="2.8193732608129403"><ele>106.0</ele><time>2026-04-22T14:00:11Z</time></trkpt><trkpt lat="42.532233114148426" lon="2.819786195117483"><ele>105.66666666666667</ele><time>2026-04-22T14:00:13Z</time></trkpt><trkpt lat="42.532377234487925" lon="2.8199933956696066"><ele>105.33333333333334</ele><time>2026-04-22T14:00:14Z</time></trkpt><trkpt lat="42.532516880345014" lon="2.820193061358105"><ele>105.0</ele><time>2026-04-22T14:00:15Z</time></trkpt><trkpt lat="42.532653625464185" lon="2.8203974260507074"><ele>104.33333333333334</ele><time>2026-04-22T14:00:16Z</time></trkpt><trkpt lat="42.53279036067511" lon="2.8206060595480293"><ele>103.66666666666667</ele><time>2026-04-22T14:00:17Z</time></trkpt><trkpt lat="42.532925090773105" lon="2.8208088138118543"><ele>103.0</ele><time>2026-04-22T14:00:18Z</time></trkpt><trkpt lat="42.53305644903825" lon="2.821025640391084"><ele>101.33333333333334</ele><time>2026-04-22T14:00:19Z</time></trkpt><trkpt lat="42.53317902822012" lon="2.8212475391350336"><ele>99.66666666666666</ele><time>2026-04-22T14:00:20Z</time></trkpt><trkpt lat="42.53330139815332" lon="2.8214741855557794"><ele>98.0</ele><time>2026-04-22T14:00:21Z</time></trkpt><trkpt lat="42.5334186008475" lon="2.821703605121445"><ele>97.0</ele><time>2026-04-22T14:00:22Z</time></trkpt><trkpt lat="42.533530386223475" lon="2.8219361833827428"><ele>96.0</ele><time>2026-04-22T14:00:23Z</time></trkpt><trkpt lat="42.533639207513616" lon="2.8221753247544346"><ele>95.0</ele><time>2026-04-22T14:00:24Z</time></trkpt><trkpt lat="42.533845651253124" lon="2.822663125057075"><ele>95.0</ele><time>2026-04-22T14:00:26Z</time></trkpt><trkpt lat="42.53394321175274" lon="2.822912920792901"><ele>95.0</ele><time>2026-04-22T14:00:27Z</time></trkpt><trkpt lat="42.53402726315214" lon="2.8231665999708206"><ele>95.0</ele><time>2026-04-22T14:00:28Z</time></trkpt><trkpt lat="42.53410460420718" lon="2.8234268286322526"><ele>93.66666666666667</ele><time>2026-04-22T14:00:29Z</time></trkpt><trkpt lat="42.53418571412346" lon="2.823687818328471"><ele>92.33333333333333</ele><time>2026-04-22T14:00:30Z</time></trkpt><trkpt lat="42.534262468183094" lon="2.8239481801864894"><ele>91.0</ele><time>2026-04-22T14:00:31Z</time></trkpt><trkpt lat="42.53434728983103" lon="2.824212754414453"><ele>90.5</ele><time>2026-04-22T14:00:32Z</time></trkpt><trkpt lat="42.53451160601549" lon="2.8247236173105104"><ele>90.0</ele><time>2026-04-22T14:00:34Z</time></trkpt><trkpt lat="42.5345959270544" lon="2.824986360441038"><ele>89.0</ele><time>2026-04-22T14:00:35Z</time></trkpt><trkpt lat="42.53467391253378" lon="2.825240520011912"><ele>88.0</ele><time>2026-04-22T14:00:36Z</time></trkpt><trkpt lat="42.53475299956063" lon="2.8254927262421403"><ele>87.0</ele><time>2026-04-22T14:00:37Z</time></trkpt><trkpt lat="42.53483574810393" lon="2.8257469273198335"><ele>88.66666666666667</ele><time>2026-04-22T14:00:38Z</time></trkpt><trkpt lat="42.534913569913215" lon="2.826002569159182"><ele>90.33333333333334</ele><time>2026-04-22T14:00:39Z</time></trkpt><trkpt lat="42.53499064372148" lon="2.826250852474707"><ele>92.0</ele><time>2026-04-22T14:00:40Z</time></trkpt><trkpt lat="42.53506733706546" lon="2.826499073623983"><ele>92.0</ele><time>2026-04-22T14:00:41Z</time></trkpt><trkpt lat="42.5351437186992" lon="2.8267490034735006"><ele>92.0</ele><time>2026-04-22T14:00:42Z</time></trkpt><trkpt lat="42.535222460858336" lon="2.8269976693196828"><ele>92.0</ele><time>2026-04-22T14:00:43Z</time></trkpt><trkpt lat="42.535300928849814" lon="2.827243188344846"><ele>94.33333333333334</ele><time>2026-04-22T14:00:44Z</time></trkpt><trkpt lat="42.535376585430456" lon="2.8274828154353284"><ele>96.66666666666667</ele><time>2026-04-22T14:00:45Z</time></trkpt><trkpt lat="42.535453158972835" lon="2.827726501429294"><ele>99.0</ele><time>2026-04-22T14:00:46Z</time></trkpt><trkpt lat="42.535527905647776" lon="2.8279719497877096"><ele>101.0</ele><time>2026-04-22T14:00:47Z</time></trkpt><trkpt lat="42.53559718207364" lon="2.8282204930906154"><ele>103.0</ele><time>2026-04-22T14:00:48Z</time></trkpt><trkpt lat="42.535662886193904" lon="2.8284702310066003"><ele>105.0</ele><time>2026-04-22T14:00:49Z</time></trkpt><trkpt lat="42.5357241998948" lon="2.8287235934779"><ele>105.33333333333334</ele><time>2026-04-22T14:00:50Z</time></trkpt><trkpt lat="42.53578472720391" lon="2.8289795114680585"><ele>105.66666666666667</ele><time>2026-04-22T14:00:51Z</time></trkpt><trkpt lat="42.53583919659354" lon="2.8292382936291527"><ele>106.0</ele><time>2026-04-22T14:00:52Z</time></trkpt><trkpt lat="42.535889531518976" lon="2.8295028626636896"><ele>106.5</ele><time>2026-04-22T14:00:53Z</time></trkpt><trkpt lat="42.535981383548766" lon="2.8300441481030765"><ele>107.0</ele><time>2026-04-22T14:00:55Z</time></trkpt><trkpt lat="42.536026397172016" lon="2.8303207221668276"><ele>107.33333333333333</ele><time>2026-04-22T14:00:56Z</time></trkpt><trkpt lat="42.536072555048264" lon="2.830605259389331"><ele>107.66666666666666</ele><time>2026-04-22T14:00:57Z</time></trkpt><trkpt lat="42.53611838432694" lon="2.830885954566416"><ele>108.0</ele><time>2026-04-22T14:00:58Z</time></trkpt><trkpt lat="42.5361660615704" lon="2.831167664255998"><ele>108.0</ele><time>2026-04-22T14:00:59Z</time></trkpt><trkpt lat="42.53621768927373" lon="2.8314538068994506"><ele>108.0</ele><time>2026-04-22T14:01:00Z</time></trkpt><trkpt lat="42.5362637540653" lon="2.8317368346180167"><ele>108.0</ele><time>2026-04-22T14:01:01Z</time></trkpt><trkpt lat="42.53635811511958" lon="2.8323092496822313"><ele>110.0</ele><time>2026-04-22T14:01:03Z</time></trkpt><trkpt lat="42.536406196750605" lon="2.8325914964264074"><ele>112.0</ele><time>2026-04-22T14:01:04Z</time></trkpt><trkpt lat="42.53645279411893" lon="2.8328725147991736"><ele>114.0</ele><time>2026-04-22T14:01:05Z</time></trkpt><trkpt lat="42.53649751483458" lon="2.8331533828509423"><ele>114.0</ele><time>2026-04-22T14:01:06Z</time></trkpt><trkpt lat="42.53654488462653" lon="2.8334349673211814"><ele>114.0</ele><time>2026-04-22T14:01:07Z</time></trkpt><trkpt lat="42.53663764041333" lon="2.833991814998715"><ele>111.66666666666666</ele><time>2026-04-22T14:01:09Z</time></trkpt><trkpt lat="42.53669050039719" lon="2.8342784789471285"><ele>109.33333333333333</ele><time>2026-04-22T14:01:10Z</time></trkpt><trkpt lat="42.53673614288631" lon="2.834555420191815"><ele>107.0</ele><time>2026-04-22T14:01:11Z</time></trkpt><trkpt lat="42.53678922058889" lon="2.8348352566595394"><ele>105.33333333333333</ele><time>2026-04-22T14:01:12Z</time></trkpt><trkpt lat="42.53685032424723" lon="2.835108118024737"><ele>103.66666666666666</ele><time>2026-04-22T14:01:13Z</time></trkpt><trkpt lat="42.53691506488188" lon="2.8353827339825504"><ele>102.0</ele><time>2026-04-22T14:01:14Z</time></trkpt><trkpt lat="42.536982240541164" lon="2.835653159923913"><ele>102.0</ele><time>2026-04-22T14:01:15Z</time></trkpt><trkpt lat="42.53705458526936" lon="2.8359233292309765"><ele>102.0</ele><time>2026-04-22T14:01:16Z</time></trkpt><trkpt lat="42.53712964164145" lon="2.836192091677874"><ele>102.0</ele><time>2026-04-22T14:01:17Z</time></trkpt><trkpt lat="42.537213704127765" lon="2.83645725353137"><ele>98.0</ele><time>2026-04-22T14:01:18Z</time></trkpt><trkpt lat="42.537381361594626" lon="2.8369799715074255"><ele>94.0</ele><time>2026-04-22T14:01:20Z</time></trkpt><trkpt lat="42.53747385304042" lon="2.837233624379677"><ele>94.0</ele><time>2026-04-22T14:01:21Z</time></trkpt><trkpt lat="42.53756924866414" lon="2.8374847531851706"><ele>94.0</ele><time>2026-04-22T14:01:22Z</time></trkpt><trkpt lat="42.537670564953125" lon="2.8377389906094064"><ele>94.0</ele><time>2026-04-22T14:01:23Z</time></trkpt><trkpt lat="42.537776709491155" lon="2.837987574343324"><ele>93.33333333333333</ele><time>2026-04-22T14:01:24Z</time></trkpt><trkpt lat="42.53788283697309" lon="2.8382347726457504"><ele>92.66666666666667</ele><time>2026-04-22T14:01:25Z</time></trkpt><trkpt lat="42.5379970371824" lon="2.8384797145959544"><ele>92.0</ele><time>2026-04-22T14:01:26Z</time></trkpt><trkpt lat="42.538113700587814" lon="2.8387266269747826"><ele>92.0</ele><time>2026-04-22T14:01:27Z</time></trkpt><trkpt lat="42.53823614288141" lon="2.838967417734753"><ele>92.0</ele><time>2026-04-22T14:01:28Z</time></trkpt><trkpt lat="42.53836089354495" lon="2.839201880452702"><ele>92.0</ele><time>2026-04-22T14:01:29Z</time></trkpt><trkpt lat="42.53848708792772" lon="2.8394302741825523"><ele>91.0</ele><time>2026-04-22T14:01:30Z</time></trkpt><trkpt lat="42.53861925734015" lon="2.8396592936121556"><ele>90.0</ele><time>2026-04-22T14:01:31Z</time></trkpt><trkpt lat="42.53875137246319" lon="2.839884293051605"><ele>89.0</ele><time>2026-04-22T14:01:32Z</time></trkpt><trkpt lat="42.53889070063201" lon="2.840102400276194"><ele>88.33333333333334</ele><time>2026-04-22T14:01:33Z</time></trkpt><trkpt lat="42.539027945633904" lon="2.8403190615804554"><ele>87.66666666666667</ele><time>2026-04-22T14:01:34Z</time></trkpt><trkpt lat="42.539167449492524" lon="2.840537844079941"><ele>87.0</ele><time>2026-04-22T14:01:35Z</time></trkpt><trkpt lat="42.53930109739474" lon="2.840760998395691"><ele>86.33333333333333</ele><time>2026-04-22T14:01:36Z</time></trkpt><trkpt lat="42.53943884357167" lon="2.840983936559304"><ele>85.66666666666666</ele><time>2026-04-22T14:01:37Z</time></trkpt><trkpt lat="42.53957664307128" lon="2.841202274813581"><ele>85.0</ele><time>2026-04-22T14:01:38Z</time></trkpt><trkpt lat="42.53970998032093" lon="2.8414194739824192"><ele>85.5</ele><time>2026-04-22T14:01:39Z</time></trkpt><trkpt lat="42.53998646344135" lon="2.8418658981494493"><ele>86.0</ele><time>2026-04-22T14:01:41Z</time></trkpt><trkpt lat="42.54012582094391" lon="2.842083117317387"><ele>86.0</ele><time>2026-04-22T14:01:42Z</time></trkpt><trkpt lat="42.54026219458862" lon="2.8423028210523977"><ele>86.0</ele><time>2026-04-22T14:01:43Z</time></trkpt><trkpt lat="42.54040924044028" lon="2.8425138387257753"><ele>86.0</ele><time>2026-04-22T14:01:44Z</time></trkpt><trkpt lat="42.540555298444175" lon="2.842726561073424"><ele>88.0</ele><time>2026-04-22T14:01:45Z</time></trkpt><trkpt lat="42.540709342567126" lon="2.8429289853823776"><ele>90.0</ele><time>2026-04-22T14:01:46Z</time></trkpt><trkpt lat="42.541040809983585" lon="2.8433020923174483"><ele>89.33333333333333</ele><time>2026-04-22T14:01:48Z</time></trkpt><trkpt lat="42.541213204565246" lon="2.8434893093464053"><ele>88.66666666666666</ele><time>2026-04-22T14:01:49Z</time></trkpt><trkpt lat="42.54138812991868" lon="2.843672143275238"><ele>88.0</ele><time>2026-04-22T14:01:50Z</time></trkpt><trkpt lat="42.5417327355846" lon="2.8440354256044897"><ele>88.0</ele><time>2026-04-22T14:01:52Z</time></trkpt><trkpt lat="42.54190004663038" lon="2.8442173598031206"><ele>88.0</ele><time>2026-04-22T14:01:53Z</time></trkpt><trkpt lat="42.54207120529107" lon="2.8444016143411686"><ele>88.0</ele><time>2026-04-22T14:01:54Z</time></trkpt><trkpt lat="42.5422336688579" lon="2.8445844259250537"><ele>88.33333333333333</ele><time>2026-04-22T14:01:55Z</time></trkpt><trkpt lat="42.5423914766513" lon="2.8447789984369414"><ele>88.66666666666667</ele><time>2026-04-22T14:01:56Z</time></trkpt><trkpt lat="42.54253858522164" lon="2.844981348496597"><ele>89.0</ele><time>2026-04-22T14:01:57Z</time></trkpt><trkpt lat="42.54267739876135" lon="2.8451973262011534"><ele>89.0</ele><time>2026-04-22T14:01:58Z</time></trkpt><trkpt lat="42.542804366272144" lon="2.845423294604346"><ele>89.0</ele><time>2026-04-22T14:01:59Z</time></trkpt><trkpt lat="42.54292370296351" lon="2.8456614166943806"><ele>89.0</ele><time>2026-04-22T14:02:00Z</time></trkpt><trkpt lat="42.543033322027306" lon="2.8459087574285022"><ele>89.0</ele><time>2026-04-22T14:02:01Z</time></trkpt><trkpt lat="42.54313785573965" lon="2.846163016192108"><ele>89.0</ele><time>2026-04-22T14:02:02Z</time></trkpt><trkpt lat="42.54331474290246" lon="2.846691179215372"><ele>88.33333333333334</ele><time>2026-04-22T14:02:04Z</time></trkpt><trkpt lat="42.54339835530815" lon="2.846960079396256"><ele>87.66666666666667</ele><time>2026-04-22T14:02:05Z</time></trkpt><trkpt lat="42.54348260808265" lon="2.8472224493719893"><ele>87.0</ele><time>2026-04-22T14:02:06Z</time></trkpt><trkpt lat="42.543564824404505" lon="2.8474900339231755"><ele>87.5</ele><time>2026-04-22T14:02:07.017Z</time></trkpt><trkpt lat="42.5436466966085" lon="2.8477526770772"><ele>88.0</ele><time>2026-04-22T14:02:08.026Z</time></trkpt><trkpt lat="42.54380699912525" lon="2.8482539568543315"><ele>86.66666666666666</ele><time>2026-04-22T14:02:10Z</time></trkpt><trkpt lat="42.54389428692974" lon="2.8485100888456727"><ele>85.33333333333333</ele><time>2026-04-22T14:02:11Z</time></trkpt><trkpt lat="42.543973122803266" lon="2.8487518194404386"><ele>84.0</ele><time>2026-04-22T14:02:12Z</time></trkpt><trkpt lat="42.54404270941371" lon="2.8489776890755736"><ele>84.0</ele><time>2026-04-22T14:02:13Z</time></trkpt><trkpt lat="42.54411034318057" lon="2.8491833278125895"><ele>84.0</ele><time>2026-04-22T14:02:14Z</time></trkpt><trkpt lat="42.54417014244254" lon="2.849372532719769"><ele>84.0</ele><time>2026-04-22T14:02:15Z</time></trkpt><trkpt lat="42.54422467716739" lon="2.849546079585025"><ele>83.6</ele><time>2026-04-22T14:02:16Z</time></trkpt><trkpt lat="42.54427295549639" lon="2.849708172871457"><ele>83.2</ele><time>2026-04-22T14:02:17Z</time></trkpt><trkpt lat="42.544317048038415" lon="2.8498550248938104"><ele>82.8</ele><time>2026-04-22T14:02:18Z</time></trkpt><trkpt lat="42.54435207604101" lon="2.8499868596891513"><ele>82.39999999999999</ele><time>2026-04-22T14:02:19Z</time></trkpt><trkpt lat="42.544379589519544" lon="2.850108763134956"><ele>82.0</ele><time>2026-04-22T14:02:20Z</time></trkpt><trkpt lat="42.54440040241125" lon="2.8502136703422623"><ele>81.85714285714285</ele><time>2026-04-22T14:02:21Z</time></trkpt><trkpt lat="42.54441595463562" lon="2.8503004926381745"><ele>81.71428571428571</ele><time>2026-04-22T14:02:22Z</time></trkpt><trkpt lat="42.544421263128065" lon="2.850399066457892"><ele>81.57142857142857</ele><time>2026-04-22T14:02:23Z</time></trkpt><trkpt lat="42.54440158222213" lon="2.8504917981750966"><ele>81.42857142857142</ele><time>2026-04-22T14:02:24Z</time></trkpt><trkpt lat="42.5443686331436" lon="2.850582889803958"><ele>81.28571428571428</ele><time>2026-04-22T14:02:25Z</time></trkpt><trkpt lat="42.54434794193941" lon="2.850683203992144"><ele>81.14285714285714</ele><time>2026-04-22T14:02:26Z</time></trkpt><trkpt lat="42.54434935542385" lon="2.8507947253214603"><ele>81.0</ele><time>2026-04-22T14:02:27Z</time></trkpt><trkpt lat="42.54438284695178" lon="2.8509047847960396"><ele>80.8</ele><time>2026-04-22T14:02:28Z</time></trkpt><trkpt lat="42.54451039443871" lon="2.851052731536284"><ele>80.6</ele><time>2026-04-22T14:02:30Z</time></trkpt><trkpt lat="42.54459635131586" lon="2.851078675614887"><ele>80.4</ele><time>2026-04-22T14:02:31Z</time></trkpt><trkpt lat="42.54468569991643" lon="2.851076431366837"><ele>80.2</ele><time>2026-04-22T14:02:32Z</time></trkpt><trkpt lat="42.54477326754998" lon="2.8510746289249407"><ele>80.0</ele><time>2026-04-22T14:02:33Z</time></trkpt><trkpt lat="42.544855940479266" lon="2.8511068274307823"><ele>80.0</ele><time>2026-04-22T14:02:34Z</time></trkpt><trkpt lat="42.54493731178762" lon="2.851177260090682"><ele>80.0</ele><time>2026-04-22T14:02:35Z</time></trkpt><trkpt lat="42.545009212834685" lon="2.851275772626736"><ele>80.0</ele><time>2026-04-22T14:02:36Z</time></trkpt><trkpt lat="42.545087103628255" lon="2.8513792339907074"><ele>80.0</ele><time>2026-04-22T14:02:37Z</time></trkpt><trkpt lat="42.54517126841887" lon="2.8514756560270804"><ele>80.0</ele><time>2026-04-22T14:02:38Z</time></trkpt><trkpt lat="42.54526196290581" lon="2.851582871300992"><ele>80.0</ele><time>2026-04-22T14:02:39Z</time></trkpt><trkpt lat="42.54536201590079" lon="2.8517032788236305"><ele>80.0</ele><time>2026-04-22T14:02:40Z</time></trkpt><trkpt lat="42.5454664484675" lon="2.8518378327325267"><ele>80.0</ele><time>2026-04-22T14:02:41Z</time></trkpt><trkpt lat="42.54556945648624" lon="2.8519638752159353"><ele>80.0</ele><time>2026-04-22T14:02:42Z</time></trkpt><trkpt lat="42.545678082528525" lon="2.8520975023200728"><ele>79.66666666666667</ele><time>2026-04-22T14:02:43Z</time></trkpt><trkpt lat="42.54579325715459" lon="2.852239853673134"><ele>79.33333333333333</ele><time>2026-04-22T14:02:44Z</time></trkpt><trkpt lat="42.54591038037686" lon="2.8523803778485823"><ele>79.0</ele><time>2026-04-22T14:02:45Z</time></trkpt><trkpt lat="42.546030930038626" lon="2.8525330333022407"><ele>78.66666666666666</ele><time>2026-04-22T14:02:46Z</time></trkpt><trkpt lat="42.54615295087713" lon="2.8526860662525815"><ele>78.33333333333333</ele><time>2026-04-22T14:02:47.001Z</time></trkpt><trkpt lat="42.54627855979021" lon="2.8528442550452984"><ele>78.0</ele><time>2026-04-22T14:02:48.001Z</time></trkpt><trkpt lat="42.54640736551217" lon="2.8530113191779307"><ele>78.0</ele><time>2026-04-22T14:02:49.001Z</time></trkpt><trkpt lat="42.54653651586523" lon="2.853175988017093"><ele>78.0</ele><time>2026-04-22T14:02:50.001Z</time></trkpt><trkpt lat="42.54666738377448" lon="2.853338712553626"><ele>78.0</ele><time>2026-04-22T14:02:51.001Z</time></trkpt><trkpt lat="42.5468002830992" lon="2.853505349756923"><ele>78.33333333333333</ele><time>2026-04-22T14:02:52.001Z</time></trkpt><trkpt lat="42.54693448989844" lon="2.853671771894763"><ele>78.66666666666666</ele><time>2026-04-22T14:02:53.001Z</time></trkpt><trkpt lat="42.54707413753127" lon="2.853834463678869"><ele>79.0</ele><time>2026-04-22T14:02:54.001Z</time></trkpt><trkpt lat="42.54722005558121" lon="2.8539966959531595"><ele>79.0</ele><time>2026-04-22T14:02:55.001Z</time></trkpt><trkpt lat="42.54737627179869" lon="2.854156107484483"><ele>79.0</ele><time>2026-04-22T14:02:56.001Z</time></trkpt><trkpt lat="42.547534109865836" lon="2.8543101482728654"><ele>79.0</ele><time>2026-04-22T14:02:57.001Z</time></trkpt><trkpt lat="42.547693186492566" lon="2.8544572460810937"><ele>78.66666666666666</ele><time>2026-04-22T14:02:58.001Z</time></trkpt><trkpt lat="42.54785429996" lon="2.854609904545673"><ele>78.33333333333333</ele><time>2026-04-22T14:02:59.001Z</time></trkpt><trkpt lat="42.5480165645042" lon="2.8547625661274623"><ele>78.0</ele><time>2026-04-22T14:03:00.001Z</time></trkpt><trkpt lat="42.54817856973362" lon="2.8549128828835837"><ele>78.0</ele><time>2026-04-22T14:03:01.001Z</time></trkpt><trkpt lat="42.54834270271077" lon="2.8550669862213023"><ele>78.0</ele><time>2026-04-22T14:03:02.001Z</time></trkpt><trkpt lat="42.548509683441495" lon="2.8552242475919054"><ele>78.0</ele><time>2026-04-22T14:03:03.001Z</time></trkpt><trkpt lat="42.54867454111523" lon="2.855380188203326"><ele>77.5</ele><time>2026-04-22T14:03:04.001Z</time></trkpt><trkpt lat="42.54901057162777" lon="2.8556957044404063"><ele>77.0</ele><time>2026-04-22T14:03:06.001Z</time></trkpt><trkpt lat="42.54918080443948" lon="2.855856988192137"><ele>77.0</ele><time>2026-04-22T14:03:07.001Z</time></trkpt><trkpt lat="42.54935411408599" lon="2.856020476678993"><ele>77.0</ele><time>2026-04-22T14:03:08.001Z</time></trkpt><trkpt lat="42.54969938322187" lon="2.856346776157401"><ele>77.0</ele><time>2026-04-22T14:03:10.001Z</time></trkpt><trkpt lat="42.549870702901224" lon="2.8565078627121454"><ele>77.0</ele><time>2026-04-22T14:03:11.001Z</time></trkpt><trkpt lat="42.55004543121033" lon="2.8566696760375447"><ele>77.0</ele><time>2026-04-22T14:03:12.001Z</time></trkpt><trkpt lat="42.55039888292834" lon="2.8570014825695744"><ele>77.0</ele><time>2026-04-22T14:03:14.001Z</time></trkpt><trkpt lat="42.55057062296792" lon="2.8571616226457097"><ele>77.0</ele><time>2026-04-22T14:03:15.001Z</time></trkpt><trkpt lat="42.550740394433" lon="2.8573216155338783"><ele>77.0</ele><time>2026-04-22T14:03:16.001Z</time></trkpt><trkpt lat="42.5509091411918" lon="2.857479587894388"><ele>76.66666666666667</ele><time>2026-04-22T14:03:17.001Z</time></trkpt><trkpt lat="42.55107571927902" lon="2.857640336962407"><ele>76.33333333333333</ele><time>2026-04-22T14:03:18.001Z</time></trkpt><trkpt lat="42.55124456886032" lon="2.8577966989512764"><ele>76.0</ele><time>2026-04-22T14:03:19.001Z</time></trkpt><trkpt lat="42.55140885786499" lon="2.8579549051725914"><ele>78.0</ele><time>2026-04-22T14:03:20.001Z</time></trkpt><trkpt lat="42.5517372040778" lon="2.858273647618894"><ele>80.0</ele><time>2026-04-22T14:03:22.001Z</time></trkpt><trkpt lat="42.55189888897243" lon="2.85843029078502"><ele>79.66666666666667</ele><time>2026-04-22T14:03:23.001Z</time></trkpt><trkpt lat="42.552058021161024" lon="2.8585846067396545"><ele>79.33333333333333</ele><time>2026-04-22T14:03:24.001Z</time></trkpt><trkpt lat="42.55222035410804" lon="2.858731602124407"><ele>79.0</ele><time>2026-04-22T14:03:25.001Z</time></trkpt><trkpt lat="42.55239072322273" lon="2.8588624191192418"><ele>79.0</ele><time>2026-04-22T14:03:26.001Z</time></trkpt><trkpt lat="42.55256795485529" lon="2.858970552250101"><ele>79.0</ele><time>2026-04-22T14:03:27.001Z</time></trkpt><trkpt lat="42.552744403014735" lon="2.8590594350638736"><ele>79.0</ele><time>2026-04-22T14:03:28.001Z</time></trkpt><trkpt lat="42.55292875543072" lon="2.859136170352881"><ele>80.0</ele><time>2026-04-22T14:03:29.001Z</time></trkpt><trkpt lat="42.553114627895575" lon="2.8591883659292194"><ele>81.0</ele><time>2026-04-22T14:03:30.001Z</time></trkpt><trkpt lat="42.55348930035945" lon="2.8592245683283077"><ele>81.0</ele><time>2026-04-22T14:03:32.001Z</time></trkpt><trkpt lat="42.553677683722" lon="2.8592078282694082"><ele>81.0</ele><time>2026-04-22T14:03:33.001Z</time></trkpt><trkpt lat="42.553863518071395" lon="2.859174529154589"><ele>81.0</ele><time>2026-04-22T14:03:34.001Z</time></trkpt><trkpt lat="42.55404511787857" lon="2.8591195531273774"><ele>80.5</ele><time>2026-04-22T14:03:35.001Z</time></trkpt><trkpt lat="42.554224907200805" lon="2.8590455740666774"><ele>80.0</ele><time>2026-04-22T14:03:36.001Z</time></trkpt><trkpt lat="42.554565191944675" lon="2.8588430947446124"><ele>80.0</ele><time>2026-04-22T14:03:38.001Z</time></trkpt><trkpt lat="42.55472420219812" lon="2.8587145100312608"><ele>80.0</ele><time>2026-04-22T14:03:39.001Z</time></trkpt><trkpt lat="42.55488448238396" lon="2.8585803320554883"><ele>80.0</ele><time>2026-04-22T14:03:40.001Z</time></trkpt><trkpt lat="42.55519554677867" lon="2.858289628440913"><ele>80.0</ele><time>2026-04-22T14:03:42.001Z</time></trkpt><trkpt lat="42.55535479169284" lon="2.8581400435153044"><ele>80.0</ele><time>2026-04-22T14:03:43.001Z</time></trkpt><trkpt lat="42.555510369186045" lon="2.8579905870760993"><ele>80.0</ele><time>2026-04-22T14:03:44.001Z</time></trkpt><trkpt lat="42.55582633715297" lon="2.8576934402378367"><ele>79.0</ele><time>2026-04-22T14:03:46.001Z</time></trkpt><trkpt lat="42.555981852374586" lon="2.857548950280444"><ele>78.0</ele><time>2026-04-22T14:03:47.001Z</time></trkpt><trkpt lat="42.55613258740154" lon="2.8574023684149994"><ele>77.0</ele><time>2026-04-22T14:03:48.001Z</time></trkpt><trkpt lat="42.556292435199424" lon="2.857253543115579"><ele>79.0</ele><time>2026-04-22T14:03:49.001Z</time></trkpt><trkpt lat="42.55644691810852" lon="2.8571058233518003"><ele>81.0</ele><time>2026-04-22T14:03:50.001Z</time></trkpt><trkpt lat="42.55660610545325" lon="2.856955569912089"><ele>83.0</ele><time>2026-04-22T14:03:51.001Z</time></trkpt><trkpt lat="42.5567701578222" lon="2.8568078798485703"><ele>83.0</ele><time>2026-04-22T14:03:52.001Z</time></trkpt><trkpt lat="42.55693572951637" lon="2.8566588779557285"><ele>83.0</ele><time>2026-04-22T14:03:53.001Z</time></trkpt><trkpt lat="42.5570979712527" lon="2.8565100436313076"><ele>83.0</ele><time>2026-04-22T14:03:54.001Z</time></trkpt><trkpt lat="42.55726399070853" lon="2.8563587960194146"><ele>84.33333333333334</ele><time>2026-04-22T14:03:55.001Z</time></trkpt><trkpt lat="42.5574301926549" lon="2.8562041364702795"><ele>85.66666666666667</ele><time>2026-04-22T14:03:56.001Z</time></trkpt><trkpt lat="42.557594174093126" lon="2.856051893494178"><ele>87.0</ele><time>2026-04-22T14:03:57.001Z</time></trkpt><trkpt lat="42.557928325326564" lon="2.8557319675181034"><ele>87.33333333333333</ele><time>2026-04-22T14:03:59.001Z</time></trkpt><trkpt lat="42.55810077480271" lon="2.8555693403905127"><ele>87.66666666666666</ele><time>2026-04-22T14:04:00.001Z</time></trkpt><trkpt lat="42.55826637526648" lon="2.8554041664487606"><ele>88.0</ele><time>2026-04-22T14:04:01.001Z</time></trkpt><trkpt lat="42.5584231928475" lon="2.8552418370426307"><ele>87.0</ele><time>2026-04-22T14:04:02.001Z</time></trkpt><trkpt lat="42.558583733385355" lon="2.8550820204518046"><ele>86.0</ele><time>2026-04-22T14:04:03.001Z</time></trkpt><trkpt lat="42.55889649300987" lon="2.854753674958928"><ele>86.0</ele><time>2026-04-22T14:04:05.001Z</time></trkpt><trkpt lat="42.55904119647379" lon="2.8545683094880054"><ele>86.0</ele><time>2026-04-22T14:04:06.001Z</time></trkpt><trkpt lat="42.55917455350946" lon="2.8543757405400685"><ele>86.0</ele><time>2026-04-22T14:04:07.001Z</time></trkpt><trkpt lat="42.5594315206332" lon="2.8539755463944383"><ele>86.0</ele><time>2026-04-22T14:04:09.001Z</time></trkpt><trkpt lat="42.55956178858518" lon="2.8537736758922514"><ele>86.0</ele><time>2026-04-22T14:04:10.001Z</time></trkpt><trkpt lat="42.55969125867144" lon="2.853575168161763"><ele>86.0</ele><time>2026-04-22T14:04:11.001Z</time></trkpt><trkpt lat="42.559821325685675" lon="2.853382323622036"><ele>86.0</ele><time>2026-04-22T14:04:12.001Z</time></trkpt><trkpt lat="42.559950663396236" lon="2.853192497347511"><ele>86.0</ele><time>2026-04-22T14:04:13.001Z</time></trkpt><trkpt lat="42.5602363085769" lon="2.8528398653235136"><ele>86.33333333333334</ele><time>2026-04-22T14:04:15.001Z</time></trkpt><trkpt lat="42.5603890930222" lon="2.852685342457621"><ele>86.66666666666667</ele><time>2026-04-22T14:04:16.001Z</time></trkpt><trkpt lat="42.5605533123237" lon="2.85254372062822"><ele>87.0</ele><time>2026-04-22T14:04:17.001Z</time></trkpt><trkpt lat="42.5607254521585" lon="2.8524137556987332"><ele>87.0</ele><time>2026-04-22T14:04:18.001Z</time></trkpt><trkpt lat="42.56108700684197" lon="2.8521961861837912"><ele>87.0</ele><time>2026-04-22T14:04:20.001Z</time></trkpt><trkpt lat="42.561272355004796" lon="2.8521079621602463"><ele>85.33333333333333</ele><time>2026-04-22T14:04:21.001Z</time></trkpt><trkpt lat="42.56146123075886" lon="2.8520372189444765"><ele>83.66666666666666</ele><time>2026-04-22T14:04:22.001Z</time></trkpt><trkpt lat="42.56165706307133" lon="2.8519834395961245"><ele>82.0</ele><time>2026-04-22T14:04:23.001Z</time></trkpt><trkpt lat="42.5618539854473" lon="2.8519476696140136"><ele>81.33333333333333</ele><time>2026-04-22T14:04:24.001Z</time></trkpt><trkpt lat="42.56205190357215" lon="2.8519236802330994"><ele>80.66666666666667</ele><time>2026-04-22T14:04:25.001Z</time></trkpt><trkpt lat="42.56225577194509" lon="2.8519037476202187"><ele>80.0</ele><time>2026-04-22T14:04:26.001Z</time></trkpt><trkpt lat="42.56245775885584" lon="2.8518836628710282"><ele>80.0</ele><time>2026-04-22T14:04:27.001Z</time></trkpt><trkpt lat="42.56266148738838" lon="2.851866404892895"><ele>80.0</ele><time>2026-04-22T14:04:28.001Z</time></trkpt><trkpt lat="42.56286398407592" lon="2.851846811862412"><ele>80.0</ele><time>2026-04-22T14:04:29.001Z</time></trkpt><trkpt lat="42.563067060093395" lon="2.851829238889504"><ele>82.66666666666667</ele><time>2026-04-22T14:04:30.001Z</time></trkpt><trkpt lat="42.56326985799646" lon="2.851808784270414"><ele>85.33333333333333</ele><time>2026-04-22T14:04:31.001Z</time></trkpt><trkpt lat="42.56347037655809" lon="2.851789339457497"><ele>88.0</ele><time>2026-04-22T14:04:32.001Z</time></trkpt><trkpt lat="42.56367147622516" lon="2.85177072945166"><ele>89.0</ele><time>2026-04-22T14:04:33.001Z</time></trkpt><trkpt lat="42.56386935561305" lon="2.8517505295074757"><ele>90.0</ele><time>2026-04-22T14:04:34.001Z</time></trkpt><trkpt lat="42.56406822871282" lon="2.8517270938554695"><ele>91.0</ele><time>2026-04-22T14:04:35.001Z</time></trkpt><trkpt lat="42.564267109027796" lon="2.851704116482565"><ele>92.0</ele><time>2026-04-22T14:04:36.001Z</time></trkpt><trkpt lat="42.56465976186928" lon="2.8516597067802296"><ele>93.0</ele><time>2026-04-22T14:04:38.001Z</time></trkpt><trkpt lat="42.56485767968595" lon="2.851639627066113"><ele>93.0</ele><time>2026-04-22T14:04:39.001Z</time></trkpt><trkpt lat="42.56505610114443" lon="2.8516184920162733"><ele>93.0</ele><time>2026-04-22T14:04:40.001Z</time></trkpt><trkpt lat="42.56545653677448" lon="2.8515785704239884"><ele>93.0</ele><time>2026-04-22T14:04:42.001Z</time></trkpt><trkpt lat="42.565655649750006" lon="2.8515601292975283"><ele>93.0</ele><time>2026-04-22T14:04:43.001Z</time></trkpt><trkpt lat="42.56585451081459" lon="2.8515369203362"><ele>93.0</ele><time>2026-04-22T14:04:44Z</time></trkpt><trkpt lat="42.566054486586125" lon="2.8515168940871525"><ele>93.33333333333333</ele><time>2026-04-22T14:04:45Z</time></trkpt><trkpt lat="42.5662524088653" lon="2.8514950033704083"><ele>93.66666666666666</ele><time>2026-04-22T14:04:46Z</time></trkpt><trkpt lat="42.56645295123343" lon="2.8514755864356176"><ele>94.0</ele><time>2026-04-22T14:04:47Z</time></trkpt><trkpt lat="42.56665313573044" lon="2.8514543423061873"><ele>94.0</ele><time>2026-04-22T14:04:48Z</time></trkpt><trkpt lat="42.566852535401864" lon="2.8514336387686674"><ele>94.0</ele><time>2026-04-22T14:04:49Z</time></trkpt><trkpt lat="42.56705046223109" lon="2.8514146558805584"><ele>94.0</ele><time>2026-04-22T14:04:50Z</time></trkpt><trkpt lat="42.5672501039513" lon="2.851395967736789"><ele>95.0</ele><time>2026-04-22T14:04:51Z</time></trkpt><trkpt lat="42.5676515965901" lon="2.851349744449202"><ele>96.0</ele><time>2026-04-22T14:04:53Z</time></trkpt><trkpt lat="42.567851779026036" lon="2.851332093680063"><ele>95.66666666666667</ele><time>2026-04-22T14:04:54Z</time></trkpt><trkpt lat="42.56805531846765" lon="2.851314698585768"><ele>95.33333333333334</ele><time>2026-04-22T14:04:55Z</time></trkpt><trkpt lat="42.56825791782084" lon="2.851295400155082"><ele>95.0</ele><time>2026-04-22T14:04:56Z</time></trkpt><trkpt lat="42.568459872543194" lon="2.851275182761154"><ele>95.0</ele><time>2026-04-22T14:04:57Z</time></trkpt><trkpt lat="42.568659487014074" lon="2.851257564729461"><ele>95.0</ele><time>2026-04-22T14:04:58Z</time></trkpt><trkpt lat="42.56886177769288" lon="2.8512376626585545"><ele>95.0</ele><time>2026-04-22T14:04:59Z</time></trkpt><trkpt lat="42.569064627226204" lon="2.851216935286443"><ele>95.0</ele><time>2026-04-22T14:05:00Z</time></trkpt><trkpt lat="42.56926583626965" lon="2.8511967605021846"><ele>95.0</ele><time>2026-04-22T14:05:01Z</time></trkpt><trkpt lat="42.56946959924021" lon="2.8511776539562907"><ele>95.0</ele><time>2026-04-22T14:05:02Z</time></trkpt><trkpt lat="42.56966774682554" lon="2.851154639981713"><ele>96.5</ele><time>2026-04-22T14:05:03Z</time></trkpt><trkpt lat="42.57006389712039" lon="2.8511171939525966"><ele>98.0</ele><time>2026-04-22T14:05:05Z</time></trkpt><trkpt lat="42.57026339772322" lon="2.851094737518645"><ele>97.66666666666666</ele><time>2026-04-22T14:05:06Z</time></trkpt><trkpt lat="42.5704618599642" lon="2.851073607787237"><ele>97.33333333333334</ele><time>2026-04-22T14:05:07Z</time></trkpt><trkpt lat="42.570658138346516" lon="2.851056792600748"><ele>97.0</ele><time>2026-04-22T14:05:08Z</time></trkpt><trkpt lat="42.570849450872494" lon="2.851030565715376"><ele>97.0</ele><time>2026-04-22T14:05:09Z</time></trkpt><trkpt lat="42.57103682042191" lon="2.851010215909774"><ele>97.0</ele><time>2026-04-22T14:05:10Z</time></trkpt><trkpt lat="42.571216702658425" lon="2.8509890594455998"><ele>97.0</ele><time>2026-04-22T14:05:11Z</time></trkpt><trkpt lat="42.571386711453144" lon="2.8509752675141815"><ele>97.0</ele><time>2026-04-22T14:05:12Z</time></trkpt><trkpt lat="42.5715521117494" lon="2.850966366725069"><ele>97.0</ele><time>2026-04-22T14:05:13Z</time></trkpt><trkpt lat="42.57170853409745" lon="2.850952195536885"><ele>97.0</ele><time>2026-04-22T14:05:14Z</time></trkpt><trkpt lat="42.571860901023776" lon="2.850936749189736"><ele>97.5</ele><time>2026-04-22T14:05:15Z</time></trkpt><trkpt lat="42.57200429690535" lon="2.8509209600947307"><ele>98.0</ele><time>2026-04-22T14:05:16Z</time></trkpt><trkpt lat="42.572135741696265" lon="2.8509103345366653"><ele>98.5</ele><time>2026-04-22T14:05:17Z</time></trkpt><trkpt lat="42.5722588870748" lon="2.850902139427979"><ele>99.0</ele><time>2026-04-22T14:05:18Z</time></trkpt><trkpt lat="42.57237474456736" lon="2.8508927140878324"><ele>99.0</ele><time>2026-04-22T14:05:19Z</time></trkpt><trkpt lat="42.57248576976198" lon="2.850879078804799"><ele>99.0</ele><time>2026-04-22T14:05:20Z</time></trkpt><trkpt lat="42.57258751230939" lon="2.8508723285122426"><ele>99.0</ele><time>2026-04-22T14:05:21Z</time></trkpt><trkpt lat="42.57267755222046" lon="2.850866804659019"><ele>99.0</ele><time>2026-04-22T14:05:22Z</time></trkpt><trkpt lat="42.57274848204814" lon="2.8508694476934657"><ele>99.0</ele><time>2026-04-22T14:05:23Z</time></trkpt><trkpt lat="42.57282502874271" lon="2.8508863725271336"><ele>99.4</ele><time>2026-04-22T14:05:25Z</time></trkpt><trkpt lat="42.57288660591547" lon="2.8509462749094006"><ele>99.80000000000001</ele><time>2026-04-22T14:05:27Z</time></trkpt><trkpt lat="42.57299581297221" lon="2.851025187662627"><ele>100.19999999999999</ele><time>2026-04-22T14:05:29Z</time></trkpt><trkpt lat="42.57306182825314" lon="2.8510358341150073"><ele>100.6</ele><time>2026-04-22T14:05:30Z</time></trkpt><trkpt lat="42.573184954975794" lon="2.85102040152532"><ele>101.0</ele><time>2026-04-22T14:05:32Z</time></trkpt><trkpt lat="42.573243175190115" lon="2.850938226561603"><ele>101.0</ele><time>2026-04-22T14:05:33Z</time></trkpt><trkpt lat="42.57330710097829" lon="2.850853523372848"><ele>101.0</ele><time>2026-04-22T14:05:34Z</time></trkpt><trkpt lat="42.57338290996306" lon="2.850809468673785"><ele>101.0</ele><time>2026-04-22T14:05:35Z</time></trkpt><trkpt lat="42.573476679700754" lon="2.8507916472677923"><ele>101.0</ele><time>2026-04-22T14:05:36Z</time></trkpt><trkpt lat="42.57358189614739" lon="2.8507783491198504"><ele>101.0</ele><time>2026-04-22T14:05:37Z</time></trkpt><trkpt lat="42.57369093341373" lon="2.8507625724289483"><ele>101.25</ele><time>2026-04-22T14:05:38Z</time></trkpt><trkpt lat="42.57381155647065" lon="2.850750612848098"><ele>101.5</ele><time>2026-04-22T14:05:39Z</time></trkpt><trkpt lat="42.57394220592217" lon="2.8507334711935006"><ele>101.75</ele><time>2026-04-22T14:05:40Z</time></trkpt><trkpt lat="42.57408644787399" lon="2.850713892200039"><ele>102.0</ele><time>2026-04-22T14:05:41Z</time></trkpt><trkpt lat="42.574239113374844" lon="2.850705584623624"><ele>102.0</ele><time>2026-04-22T14:05:42Z</time></trkpt><trkpt lat="42.57439249997266" lon="2.8506903658549465"><ele>102.0</ele><time>2026-04-22T14:05:43Z</time></trkpt><trkpt lat="42.57454669745469" lon="2.850672561388864"><ele>102.0</ele><time>2026-04-22T14:05:44Z</time></trkpt><trkpt lat="42.57470747951904" lon="2.8506570466226235"><ele>101.0</ele><time>2026-04-22T14:05:45Z</time></trkpt><trkpt lat="42.57487727145871" lon="2.8506368662208477"><ele>100.0</ele><time>2026-04-22T14:05:46Z</time></trkpt><trkpt lat="42.57505379889473" lon="2.850620088710406"><ele>99.0</ele><time>2026-04-22T14:05:47Z</time></trkpt><trkpt lat="42.57523022495415" lon="2.850606058445676"><ele>99.33333333333334</ele><time>2026-04-22T14:05:48Z</time></trkpt><trkpt lat="42.57540352979334" lon="2.850585776326441"><ele>99.66666666666667</ele><time>2026-04-22T14:05:49Z</time></trkpt><trkpt lat="42.57557952001631" lon="2.850572548622455"><ele>100.0</ele><time>2026-04-22T14:05:50Z</time></trkpt><trkpt lat="42.57576419861409" lon="2.8505555299780494"><ele>100.0</ele><time>2026-04-22T14:05:51Z</time></trkpt><trkpt lat="42.57594653679305" lon="2.8505403058329293"><ele>100.0</ele><time>2026-04-22T14:05:52Z</time></trkpt><trkpt lat="42.57631332292649" lon="2.8505271178707496"><ele>100.0</ele><time>2026-04-22T14:05:54Z</time></trkpt><trkpt lat="42.576499477547564" lon="2.850528496490008"><ele>100.0</ele><time>2026-04-22T14:05:55Z</time></trkpt><trkpt lat="42.5766907134414" lon="2.850529946903187"><ele>100.0</ele><time>2026-04-22T14:05:56Z</time></trkpt><trkpt lat="42.576877776604675" lon="2.850536539262195"><ele>99.0</ele><time>2026-04-22T14:05:57Z</time></trkpt><trkpt lat="42.577072655236385" lon="2.8505375351984537"><ele>98.0</ele><time>2026-04-22T14:05:58Z</time></trkpt><trkpt lat="42.57726744896113" lon="2.8505337198543166"><ele>97.0</ele><time>2026-04-22T14:05:59Z</time></trkpt><trkpt lat="42.577465097610556" lon="2.8505313478654655"><ele>97.0</ele><time>2026-04-22T14:06:00Z</time></trkpt><trkpt lat="42.57766406719053" lon="2.85052499682267"><ele>97.0</ele><time>2026-04-22T14:06:01Z</time></trkpt><trkpt lat="42.57786176544811" lon="2.8505188508442796"><ele>97.0</ele><time>2026-04-22T14:06:02Z</time></trkpt><trkpt lat="42.57805927514652" lon="2.850512416709381"><ele>95.5</ele><time>2026-04-22T14:06:03Z</time></trkpt><trkpt lat="42.57826194521905" lon="2.8505063753368938"><ele>94.0</ele><time>2026-04-22T14:06:04Z</time></trkpt><trkpt lat="42.57866490683691" lon="2.850495444582098"><ele>92.66666666666666</ele><time>2026-04-22T14:06:06Z</time></trkpt><trkpt lat="42.57886270441377" lon="2.850491935043081"><ele>91.33333333333333</ele><time>2026-04-22T14:06:07Z</time></trkpt><trkpt lat="42.57906471516568" lon="2.8504876820512033"><ele>90.0</ele><time>2026-04-22T14:06:08Z</time></trkpt><trkpt lat="42.57926285193426" lon="2.8504846954758514"><ele>90.0</ele><time>2026-04-22T14:06:09Z</time></trkpt><trkpt lat="42.57946020126059" lon="2.850482199709485"><ele>90.0</ele><time>2026-04-22T14:06:10Z</time></trkpt><trkpt lat="42.5796606647919" lon="2.8504771012635106"><ele>90.0</ele><time>2026-04-22T14:06:11Z</time></trkpt><trkpt lat="42.579857453895116" lon="2.850474205232888"><ele>89.33333333333333</ele><time>2026-04-22T14:06:12Z</time></trkpt><trkpt lat="42.58006017002719" lon="2.8504726896831354"><ele>88.66666666666666</ele><time>2026-04-22T14:06:13Z</time></trkpt><trkpt lat="42.58025571069196" lon="2.8504642941294573"><ele>88.0</ele><time>2026-04-22T14:06:14Z</time></trkpt><trkpt lat="42.580453884468994" lon="2.8504573913384665"><ele>88.0</ele><time>2026-04-22T14:06:15Z</time></trkpt><trkpt lat="42.580854564926796" lon="2.850449137209473"><ele>88.0</ele><time>2026-04-22T14:06:17Z</time></trkpt><trkpt lat="42.58105303260533" lon="2.85044872235888"><ele>88.0</ele><time>2026-04-22T14:06:18Z</time></trkpt><trkpt lat="42.58124614605726" lon="2.85044345179239"><ele>88.0</ele><time>2026-04-22T14:06:19Z</time></trkpt><trkpt lat="42.58144783542496" lon="2.8504353751785234"><ele>88.0</ele><time>2026-04-22T14:06:20Z</time></trkpt><trkpt lat="42.58164213512846" lon="2.850432932092202"><ele>88.0</ele><time>2026-04-22T14:06:21Z</time></trkpt><trkpt lat="42.581836046223586" lon="2.850426768543423"><ele>88.0</ele><time>2026-04-22T14:06:22Z</time></trkpt><trkpt lat="42.582032895617786" lon="2.8504202066469415"><ele>88.0</ele><time>2026-04-22T14:06:23Z</time></trkpt><trkpt lat="42.582228755238106" lon="2.8504137810115866"><ele>88.33333333333333</ele><time>2026-04-22T14:06:24Z</time></trkpt><trkpt lat="42.58242727260344" lon="2.8504123590404427"><ele>88.66666666666667</ele><time>2026-04-22T14:06:25Z</time></trkpt><trkpt lat="42.582624816054036" lon="2.850411690256483"><ele>89.0</ele><time>2026-04-22T14:06:26Z</time></trkpt><trkpt lat="42.58282118061321" lon="2.850407045651467"><ele>89.33333333333334</ele><time>2026-04-22T14:06:27Z</time></trkpt><trkpt lat="42.583021560400354" lon="2.850404924427845"><ele>89.66666666666667</ele><time>2026-04-22T14:06:28Z</time></trkpt><trkpt lat="42.58321709106196" lon="2.8503993062684354"><ele>90.0</ele><time>2026-04-22T14:06:29Z</time></trkpt><trkpt lat="42.58341313862552" lon="2.850394986938752"><ele>90.0</ele><time>2026-04-22T14:06:30Z</time></trkpt><trkpt lat="42.58360886220382" lon="2.850386274881818"><ele>90.0</ele><time>2026-04-22T14:06:31Z</time></trkpt><trkpt lat="42.583805746057415" lon="2.8503818225410886"><ele>90.0</ele><time>2026-04-22T14:06:32Z</time></trkpt><trkpt lat="42.58399940047141" lon="2.8503759877502532"><ele>91.0</ele><time>2026-04-22T14:06:33Z</time></trkpt><trkpt lat="42.58419450129847" lon="2.8503710013745023"><ele>92.0</ele><time>2026-04-22T14:06:34Z</time></trkpt><trkpt lat="42.584387384614374" lon="2.850371717609242"><ele>93.0</ele><time>2026-04-22T14:06:35Z</time></trkpt><trkpt lat="42.58458148560767" lon="2.850370580886857"><ele>93.66666666666667</ele><time>2026-04-22T14:06:36Z</time></trkpt><trkpt lat="42.58477504996725" lon="2.8503718394628157"><ele>94.33333333333334</ele><time>2026-04-22T14:06:37Z</time></trkpt><trkpt lat="42.58497141702265" lon="2.850378020160474"><ele>95.0</ele><time>2026-04-22T14:06:38Z</time></trkpt><trkpt lat="42.58516549904463" lon="2.8503952559984875"><ele>92.5</ele><time>2026-04-22T14:06:39Z</time></trkpt><trkpt lat="42.58554980757583" lon="2.8504456430552896"><ele>90.0</ele><time>2026-04-22T14:06:41Z</time></trkpt><trkpt lat="42.5857358809954" lon="2.850491655382733"><ele>90.0</ele><time>2026-04-22T14:06:42Z</time></trkpt><trkpt lat="42.58592050272179" lon="2.8505522329870265"><ele>90.0</ele><time>2026-04-22T14:06:43Z</time></trkpt><trkpt lat="42.58609863968899" lon="2.8506169430810337"><ele>90.0</ele><time>2026-04-22T14:06:44Z</time></trkpt><trkpt lat="42.586271735616734" lon="2.8506847868040146"><ele>88.66666666666667</ele><time>2026-04-22T14:06:45Z</time></trkpt><trkpt lat="42.58644090055339" lon="2.850753433026523"><ele>87.33333333333334</ele><time>2026-04-22T14:06:46Z</time></trkpt><trkpt lat="42.586604652699826" lon="2.8508250033019027"><ele>86.0</ele><time>2026-04-22T14:06:47Z</time></trkpt><trkpt lat="42.5867662711819" lon="2.8508925151300324"><ele>85.33333333333334</ele><time>2026-04-22T14:06:48Z</time></trkpt><trkpt lat="42.58692708208433" lon="2.8509600369136674"><ele>84.66666666666667</ele><time>2026-04-22T14:06:49Z</time></trkpt><trkpt lat="42.58708470702996" lon="2.8510252266897345"><ele>84.0</ele><time>2026-04-22T14:06:50Z</time></trkpt><trkpt lat="42.58723787039595" lon="2.8510904793002907"><ele>83.33333333333333</ele><time>2026-04-22T14:06:51Z</time></trkpt><trkpt lat="42.587385702982374" lon="2.851150813679235"><ele>82.66666666666666</ele><time>2026-04-22T14:06:52Z</time></trkpt><trkpt lat="42.58753292116377" lon="2.851213198945293"><ele>82.0</ele><time>2026-04-22T14:06:53Z</time></trkpt><trkpt lat="42.58767610303239" lon="2.851272930809501"><ele>82.0</ele><time>2026-04-22T14:06:54Z</time></trkpt><trkpt lat="42.5878149687297" lon="2.8513336977593564"><ele>82.0</ele><time>2026-04-22T14:06:55Z</time></trkpt><trkpt lat="42.587952386676" lon="2.851388968953281"><ele>82.0</ele><time>2026-04-22T14:06:56Z</time></trkpt><trkpt lat="42.58808800357794" lon="2.851444884840529"><ele>82.0</ele><time>2026-04-22T14:06:57Z</time></trkpt><trkpt lat="42.588217359883785" lon="2.8514982898005132"><ele>82.0</ele><time>2026-04-22T14:06:58Z</time></trkpt><trkpt lat="42.58834298924733" lon="2.851549496255768"><ele>82.0</ele><time>2026-04-22T14:06:59Z</time></trkpt><trkpt lat="42.58846313526597" lon="2.8515994648204472"><ele>82.0</ele><time>2026-04-22T14:07:00Z</time></trkpt><trkpt lat="42.58857578561503" lon="2.8516436095341544"><ele>82.0</ele><time>2026-04-22T14:07:01Z</time></trkpt><trkpt lat="42.58867555614728" lon="2.8516817886001444"><ele>81.83333333333333</ele><time>2026-04-22T14:07:02Z</time></trkpt><trkpt lat="42.58876293669946" lon="2.8517193630807616"><ele>81.66666666666666</ele><time>2026-04-22T14:07:03Z</time></trkpt><trkpt lat="42.58883973088682" lon="2.85174909086905"><ele>81.5</ele><time>2026-04-22T14:07:04Z</time></trkpt><trkpt lat="42.588912330139316" lon="2.851773096144859"><ele>81.33333333333333</ele><time>2026-04-22T14:07:05Z</time></trkpt><trkpt lat="42.58897830631973" lon="2.8518038281327955"><ele>81.16666666666667</ele><time>2026-04-22T14:07:06Z</time></trkpt><trkpt lat="42.589095676761104" lon="2.8518444110799637"><ele>81.0</ele><time>2026-04-22T14:07:08Z</time></trkpt><trkpt lat="42.58915728824484" lon="2.8518748614641014"><ele>81.0</ele><time>2026-04-22T14:07:09Z</time></trkpt><trkpt lat="42.589217770769054" lon="2.85191307677339"><ele>81.0</ele><time>2026-04-22T14:07:10Z</time></trkpt><trkpt lat="42.58927311039166" lon="2.8519572132162754"><ele>81.0</ele><time>2026-04-22T14:07:11Z</time></trkpt><trkpt lat="42.589325222012675" lon="2.852027454849495"><ele>81.0</ele><time>2026-04-22T14:07:12Z</time></trkpt><trkpt lat="42.58936572488291" lon="2.8521119352681454"><ele>81.0</ele><time>2026-04-22T14:07:13Z</time></trkpt><trkpt lat="42.589424303897935" lon="2.8521814457958325"><ele>81.0</ele><time>2026-04-22T14:07:14Z</time></trkpt><trkpt lat="42.58949355169431" lon="2.852221810827045"><ele>81.0</ele><time>2026-04-22T14:07:15Z</time></trkpt><trkpt lat="42.58956980850988" lon="2.852220763754534"><ele>81.19999999999999</ele><time>2026-04-22T14:07:16Z</time></trkpt><trkpt lat="42.58964332729815" lon="2.852200573813676"><ele>81.39999999999999</ele><time>2026-04-22T14:07:17Z</time></trkpt><trkpt lat="42.589710314760346" lon="2.852174091754184"><ele>81.6</ele><time>2026-04-22T14:07:18Z</time></trkpt><trkpt lat="42.58978382922185" lon="2.8521643694034418"><ele>81.8</ele><time>2026-04-22T14:07:19Z</time></trkpt><trkpt lat="42.58993453018836" lon="2.852209340123622"><ele>82.0</ele><time>2026-04-22T14:07:21Z</time></trkpt><trkpt lat="42.59001934047077" lon="2.852244892886335"><ele>82.0</ele><time>2026-04-22T14:07:22Z</time></trkpt><trkpt lat="42.59011288298864" lon="2.8522821912098855"><ele>82.0</ele><time>2026-04-22T14:07:23Z</time></trkpt><trkpt lat="42.59021372207686" lon="2.8523280802597486"><ele>82.0</ele><time>2026-04-22T14:07:24Z</time></trkpt><trkpt lat="42.59032290458251" lon="2.852379292770807"><ele>82.0</ele><time>2026-04-22T14:07:25Z</time></trkpt><trkpt lat="42.590437665415344" lon="2.8524281583104605"><ele>82.0</ele><time>2026-04-22T14:07:26Z</time></trkpt><trkpt lat="42.59055162504627" lon="2.8524760813434797"><ele>81.25</ele><time>2026-04-22T14:07:27Z</time></trkpt><trkpt lat="42.590665542477446" lon="2.8525212819717756"><ele>80.5</ele><time>2026-04-22T14:07:28Z</time></trkpt><trkpt lat="42.59078299995991" lon="2.8525739375154164"><ele>79.75</ele><time>2026-04-22T14:07:29Z</time></trkpt><trkpt lat="42.590906014449246" lon="2.852630599554103"><ele>79.0</ele><time>2026-04-22T14:07:30Z</time></trkpt><trkpt lat="42.591030985485226" lon="2.8526865188166783"><ele>79.0</ele><time>2026-04-22T14:07:31Z</time></trkpt><trkpt lat="42.591157030324034" lon="2.852743629196622"><ele>79.0</ele><time>2026-04-22T14:07:32Z</time></trkpt><trkpt lat="42.59128665165519" lon="2.852805317310811"><ele>79.0</ele><time>2026-04-22T14:07:33Z</time></trkpt><trkpt lat="42.59141938479383" lon="2.852863570003983"><ele>79.0</ele><time>2026-04-22T14:07:34Z</time></trkpt><trkpt lat="42.591560870898654" lon="2.852930022454571"><ele>77.0</ele><time>2026-04-22T14:07:35Z</time></trkpt><trkpt lat="42.591866085431356" lon="2.8530684502622776"><ele>75.0</ele><time>2026-04-22T14:07:37Z</time></trkpt><trkpt lat="42.592019928451684" lon="2.8531376793114953"><ele>74.33333333333333</ele><time>2026-04-22T14:07:38Z</time></trkpt><trkpt lat="42.59217791591593" lon="2.8532101553499305"><ele>73.66666666666666</ele><time>2026-04-22T14:07:39Z</time></trkpt><trkpt lat="42.59234070832594" lon="2.8532808115984514"><ele>73.0</ele><time>2026-04-22T14:07:40Z</time></trkpt><trkpt lat="42.592504062483" lon="2.8533511129913913"><ele>73.0</ele><time>2026-04-22T14:07:41Z</time></trkpt><trkpt lat="42.59266900587315" lon="2.853423374230773"><ele>73.0</ele><time>2026-04-22T14:07:42Z</time></trkpt><trkpt lat="42.592834665196484" lon="2.853499039261444"><ele>73.0</ele><time>2026-04-22T14:07:43Z</time></trkpt><trkpt lat="42.593002699029874" lon="2.85357597278151"><ele>72.33333333333333</ele><time>2026-04-22T14:07:44Z</time></trkpt><trkpt lat="42.59317230838583" lon="2.8536506639747654"><ele>71.66666666666667</ele><time>2026-04-22T14:07:45Z</time></trkpt><trkpt lat="42.593341425766916" lon="2.853724288931395"><ele>71.0</ele><time>2026-04-22T14:07:46Z</time></trkpt><trkpt lat="42.59350669420319" lon="2.853798605959977"><ele>70.0</ele><time>2026-04-22T14:07:47Z</time></trkpt><trkpt lat="42.59367540895341" lon="2.8538764732585804"><ele>69.0</ele><time>2026-04-22T14:07:48Z</time></trkpt><trkpt lat="42.593845833559115" lon="2.85395570218941"><ele>68.0</ele><time>2026-04-22T14:07:49Z</time></trkpt><trkpt lat="42.594022137955896" lon="2.8540375931193367"><ele>68.0</ele><time>2026-04-22T14:07:50Z</time></trkpt><trkpt lat="42.59419956576211" lon="2.854123509564656"><ele>68.0</ele><time>2026-04-22T14:07:51Z</time></trkpt><trkpt lat="42.594377533088874" lon="2.854205612585583"><ele>68.0</ele><time>2026-04-22T14:07:52Z</time></trkpt><trkpt lat="42.59455434859503" lon="2.8542872582046455"><ele>67.66666666666667</ele><time>2026-04-22T14:07:53Z</time></trkpt><trkpt lat="42.594730625169205" lon="2.8543677304398813"><ele>67.33333333333333</ele><time>2026-04-22T14:07:54Z</time></trkpt><trkpt lat="42.59490625800814" lon="2.8544460612126934"><ele>67.0</ele><time>2026-04-22T14:07:55Z</time></trkpt><trkpt lat="42.595082362596834" lon="2.854526058688367"><ele>67.0</ele><time>2026-04-22T14:07:56Z</time></trkpt><trkpt lat="42.595260257872404" lon="2.8546050975694115"><ele>67.0</ele><time>2026-04-22T14:07:57Z</time></trkpt><trkpt lat="42.59543669609629" lon="2.8546870915076816"><ele>67.0</ele><time>2026-04-22T14:07:58Z</time></trkpt><trkpt lat="42.59561194339398" lon="2.8547730091211805"><ele>67.0</ele><time>2026-04-22T14:07:59Z</time></trkpt><trkpt lat="42.595783130283365" lon="2.8548647825352464"><ele>67.0</ele><time>2026-04-22T14:08:00Z</time></trkpt><trkpt lat="42.595954782877435" lon="2.8549603990439176"><ele>67.0</ele><time>2026-04-22T14:08:01Z</time></trkpt><trkpt lat="42.59612613546878" lon="2.855054350020531"><ele>67.33333333333333</ele><time>2026-04-22T14:08:02Z</time></trkpt><trkpt lat="42.59629848359095" lon="2.8551452281879497"><ele>67.66666666666667</ele><time>2026-04-22T14:08:03Z</time></trkpt><trkpt lat="42.59647178293711" lon="2.855235850997937"><ele>68.0</ele><time>2026-04-22T14:08:04Z</time></trkpt><trkpt lat="42.596646417649055" lon="2.855322508962109"><ele>68.0</ele><time>2026-04-22T14:08:05Z</time></trkpt><trkpt lat="42.59682079627191" lon="2.8554091473944467"><ele>68.0</ele><time>2026-04-22T14:08:06Z</time></trkpt><trkpt lat="42.596994989798894" lon="2.8554981646937745"><ele>68.0</ele><time>2026-04-22T14:08:07Z</time></trkpt><trkpt lat="42.59716889626347" lon="2.8555816370443434"><ele>67.33333333333334</ele><time>2026-04-22T14:08:08Z</time></trkpt><trkpt lat="42.597341888563484" lon="2.855666023454876"><ele>66.66666666666667</ele><time>2026-04-22T14:08:09Z</time></trkpt><trkpt lat="42.59751405137807" lon="2.855750634469702"><ele>66.0</ele><time>2026-04-22T14:08:10Z</time></trkpt><trkpt lat="42.59768621436746" lon="2.855830161027776"><ele>65.0</ele><time>2026-04-22T14:08:11Z</time></trkpt><trkpt lat="42.59785562767709" lon="2.855911745365035"><ele>64.0</ele><time>2026-04-22T14:08:12Z</time></trkpt><trkpt lat="42.59802636054843" lon="2.855993820308052"><ele>63.0</ele><time>2026-04-22T14:08:13Z</time></trkpt><trkpt lat="42.598197960286626" lon="2.8560726530655742"><ele>63.0</ele><time>2026-04-22T14:08:14Z</time></trkpt><trkpt lat="42.59837158238719" lon="2.856149806637122"><ele>63.0</ele><time>2026-04-22T14:08:15Z</time></trkpt><trkpt lat="42.59854705586042" lon="2.8562285982146443"><ele>63.0</ele><time>2026-04-22T14:08:16Z</time></trkpt><trkpt lat="42.59872255212816" lon="2.856307495746576"><ele>63.0</ele><time>2026-04-22T14:08:17Z</time></trkpt><trkpt lat="42.59890214934675" lon="2.856389939658027"><ele>63.0</ele><time>2026-04-22T14:08:18Z</time></trkpt><trkpt lat="42.599079278798364" lon="2.856474633107401"><ele>63.0</ele><time>2026-04-22T14:08:19Z</time></trkpt><trkpt lat="42.59944035895622" lon="2.8566403063462924"><ele>63.33333333333333</ele><time>2026-04-22T14:08:21Z</time></trkpt><trkpt lat="42.59962032122565" lon="2.8567237766217874"><ele>63.666666666666664</ele><time>2026-04-22T14:08:22Z</time></trkpt><trkpt lat="42.599801080083765" lon="2.856807550983314"><ele>64.0</ele><time>2026-04-22T14:08:23Z</time></trkpt><trkpt lat="42.599985235796204" lon="2.8568921752296825"><ele>64.0</ele><time>2026-04-22T14:08:24Z</time></trkpt><trkpt lat="42.60016746249467" lon="2.8569770551002174"><ele>64.0</ele><time>2026-04-22T14:08:25Z</time></trkpt><trkpt lat="42.60034882912919" lon="2.857060880995011"><ele>64.0</ele><time>2026-04-22T14:08:26Z</time></trkpt><trkpt lat="42.600530741131976" lon="2.8571451826338383"><ele>63.666666666666664</ele><time>2026-04-22T14:08:27Z</time></trkpt><trkpt lat="42.60071246199518" lon="2.8572274193341087"><ele>63.33333333333333</ele><time>2026-04-22T14:08:28Z</time></trkpt><trkpt lat="42.60089628917404" lon="2.857309793045233"><ele>63.0</ele><time>2026-04-22T14:08:29Z</time></trkpt><trkpt lat="42.60108191015815" lon="2.8573873844583244"><ele>63.0</ele><time>2026-04-22T14:08:30Z</time></trkpt><trkpt lat="42.60126850202566" lon="2.857460508194166"><ele>63.0</ele><time>2026-04-22T14:08:31Z</time></trkpt><trkpt lat="42.601455352599245" lon="2.8575283157183544"><ele>63.0</ele><time>2026-04-22T14:08:32Z</time></trkpt><trkpt lat="42.60164148937364" lon="2.8575946255707"><ele>63.0</ele><time>2026-04-22T14:08:33Z</time></trkpt><trkpt lat="42.601829239771206" lon="2.8576567162310784"><ele>63.0</ele><time>2026-04-22T14:08:34Z</time></trkpt><trkpt lat="42.60201725357494" lon="2.8577139298825505"><ele>63.0</ele><time>2026-04-22T14:08:35Z</time></trkpt><trkpt lat="42.60220397199182" lon="2.857763256596211"><ele>63.33333333333333</ele><time>2026-04-22T14:08:36Z</time></trkpt><trkpt lat="42.60239321811433" lon="2.857807221288797"><ele>63.666666666666664</ele><time>2026-04-22T14:08:37Z</time></trkpt><trkpt lat="42.602579960781874" lon="2.857850646276136"><ele>64.0</ele><time>2026-04-22T14:08:38Z</time></trkpt><trkpt lat="42.602765472505304" lon="2.8578905786146245"><ele>66.0</ele><time>2026-04-22T14:08:39Z</time></trkpt><trkpt lat="42.602947035058605" lon="2.85793270349112"><ele>68.0</ele><time>2026-04-22T14:08:40Z</time></trkpt><trkpt lat="42.60313462153679" lon="2.857977103178903"><ele>70.0</ele><time>2026-04-22T14:08:41Z</time></trkpt><trkpt lat="42.60331400761212" lon="2.8580212151522093"><ele>70.0</ele><time>2026-04-22T14:08:42Z</time></trkpt><trkpt lat="42.603486199649275" lon="2.85806554839317"><ele>70.0</ele><time>2026-04-22T14:08:43Z</time></trkpt><trkpt lat="42.603656682410445" lon="2.858116369786684"><ele>70.0</ele><time>2026-04-22T14:08:44Z</time></trkpt><trkpt lat="42.60382195318819" lon="2.8581785473198877"><ele>66.5</ele><time>2026-04-22T14:08:45Z</time></trkpt><trkpt lat="42.60414596325471" lon="2.858346757978082"><ele>63.0</ele><time>2026-04-22T14:08:47Z</time></trkpt><trkpt lat="42.60430158478696" lon="2.858444927378817"><ele>63.66666666666667</ele><time>2026-04-22T14:08:48Z</time></trkpt><trkpt lat="42.60445516392434" lon="2.8585411365619096"><ele>64.33333333333334</ele><time>2026-04-22T14:08:49Z</time></trkpt><trkpt lat="42.604608233362185" lon="2.8586367943265723"><ele>65.0</ele><time>2026-04-22T14:08:50Z</time></trkpt><trkpt lat="42.60475506034553" lon="2.8587260319468517"><ele>65.0</ele><time>2026-04-22T14:08:51Z</time></trkpt><trkpt lat="42.60490380668058" lon="2.8588143695568085"><ele>65.0</ele><time>2026-04-22T14:08:52Z</time></trkpt><trkpt lat="42.60505293045016" lon="2.858904213892661"><ele>65.0</ele><time>2026-04-22T14:08:53Z</time></trkpt><trkpt lat="42.605196906188816" lon="2.8589954378766"><ele>65.33333333333334</ele><time>2026-04-22T14:08:54Z</time></trkpt><trkpt lat="42.60534248287742" lon="2.8590820450624306"><ele>65.66666666666667</ele><time>2026-04-22T14:08:55Z</time></trkpt><trkpt lat="42.60549194216098" lon="2.8591670347443303"><ele>66.0</ele><time>2026-04-22T14:08:56Z</time></trkpt><trkpt lat="42.605779038718154" lon="2.859336832073338"><ele>66.0</ele><time>2026-04-22T14:08:58Z</time></trkpt><trkpt lat="42.60591943366444" lon="2.859419665198052"><ele>66.0</ele><time>2026-04-22T14:08:59Z</time></trkpt><trkpt lat="42.60605748681759" lon="2.859503143744971"><ele>66.0</ele><time>2026-04-22T14:09:00Z</time></trkpt><trkpt lat="42.606195992238256" lon="2.85958374180371"><ele>65.5</ele><time>2026-04-22T14:09:01Z</time></trkpt><trkpt lat="42.606330765032034" lon="2.859664197467817"><ele>65.0</ele><time>2026-04-22T14:09:02Z</time></trkpt><trkpt lat="42.60646371274231" lon="2.8597443419728026"><ele>64.5</ele><time>2026-04-22T14:09:03Z</time></trkpt><trkpt lat="42.6066010113705" lon="2.8598272757563983"><ele>64.0</ele><time>2026-04-22T14:09:04Z</time></trkpt><trkpt lat="42.606742847250075" lon="2.859908759340567"><ele>64.0</ele><time>2026-04-22T14:09:05Z</time></trkpt><trkpt lat="42.60688231393286" lon="2.8599906232368912"><ele>64.0</ele><time>2026-04-22T14:09:06Z</time></trkpt><trkpt lat="42.607017909185416" lon="2.8600748007160903"><ele>64.0</ele><time>2026-04-22T14:09:07Z</time></trkpt><trkpt lat="42.60715153047872" lon="2.8601560598186677"><ele>64.0</ele><time>2026-04-22T14:09:08Z</time></trkpt><trkpt lat="42.607277079919264" lon="2.8602328012446496"><ele>64.0</ele><time>2026-04-22T14:09:09Z</time></trkpt><trkpt lat="42.60740121251709" lon="2.860307354001143"><ele>64.0</ele><time>2026-04-22T14:09:10Z</time></trkpt><trkpt lat="42.60752355025252" lon="2.8603816543093266"><ele>64.0</ele><time>2026-04-22T14:09:11Z</time></trkpt><trkpt lat="42.607649702307775" lon="2.860449056118689"><ele>64.0</ele><time>2026-04-22T14:09:12Z</time></trkpt><trkpt lat="42.607873343522066" lon="2.8605618695889756"><ele>64.0</ele><time>2026-04-22T14:09:14Z</time></trkpt><trkpt lat="42.60796371093387" lon="2.860605129688611"><ele>64.0</ele><time>2026-04-22T14:09:15Z</time></trkpt><trkpt lat="42.6080518306748" lon="2.860654810788248"><ele>64.0</ele><time>2026-04-22T14:09:16Z</time></trkpt><trkpt lat="42.608140271771944" lon="2.8606974773421747"><ele>64.0</ele><time>2026-04-22T14:09:17Z</time></trkpt><trkpt lat="42.60823294632914" lon="2.860740697190531"><ele>64.0</ele><time>2026-04-22T14:09:18Z</time></trkpt><trkpt lat="42.60832840953533" lon="2.860786757968497"><ele>64.0</ele><time>2026-04-22T14:09:19Z</time></trkpt><trkpt lat="42.60843285224068" lon="2.860836148963404"><ele>64.0</ele><time>2026-04-22T14:09:20Z</time></trkpt><trkpt lat="42.60853845735383" lon="2.860884226384067"><ele>64.0</ele><time>2026-04-22T14:09:21Z</time></trkpt><trkpt lat="42.60865156758189" lon="2.860935224726267"><ele>64.0</ele><time>2026-04-22T14:09:22Z</time></trkpt><trkpt lat="42.608770033665714" lon="2.86098856211449"><ele>63.75</ele><time>2026-04-22T14:09:23Z</time></trkpt><trkpt lat="42.608894069818774" lon="2.861043052748201"><ele>63.5</ele><time>2026-04-22T14:09:24Z</time></trkpt><trkpt lat="42.609020655994904" lon="2.861101709291961"><ele>63.25</ele><time>2026-04-22T14:09:25Z</time></trkpt><trkpt lat="42.609153876565806" lon="2.8611592275878595"><ele>63.0</ele><time>2026-04-22T14:09:26Z</time></trkpt><trkpt lat="42.609293161197314" lon="2.8612183025918925"><ele>63.0</ele><time>2026-04-22T14:09:27Z</time></trkpt><trkpt lat="42.609437872143836" lon="2.8612847402196"><ele>63.0</ele><time>2026-04-22T14:09:28Z</time></trkpt><trkpt lat="42.60958656505652" lon="2.8613500054151975"><ele>63.0</ele><time>2026-04-22T14:09:29Z</time></trkpt><trkpt lat="42.60974345572917" lon="2.8614230864399204"><ele>62.33333333333333</ele><time>2026-04-22T14:09:30Z</time></trkpt><trkpt lat="42.60990240608964" lon="2.8614983848233537"><ele>61.666666666666664</ele><time>2026-04-22T14:09:31Z</time></trkpt><trkpt lat="42.610065382842265" lon="2.8615695455645396"><ele>61.0</ele><time>2026-04-22T14:09:32Z</time></trkpt><trkpt lat="42.61023588765317" lon="2.861647676441937"><ele>60.666666666666664</ele><time>2026-04-22T14:09:33Z</time></trkpt><trkpt lat="42.61041078887091" lon="2.861724474206246"><ele>60.33333333333333</ele><time>2026-04-22T14:09:34Z</time></trkpt><trkpt lat="42.61059067555478" lon="2.8618030689137655"><ele>60.0</ele><time>2026-04-22T14:09:35Z</time></trkpt><trkpt lat="42.61077155006222" lon="2.8618857586034974"><ele>60.0</ele><time>2026-04-22T14:09:36Z</time></trkpt><trkpt lat="42.61095387355188" lon="2.861968798124082"><ele>60.0</ele><time>2026-04-22T14:09:37Z</time></trkpt><trkpt lat="42.61113651319574" lon="2.8620534679526144"><ele>60.0</ele><time>2026-04-22T14:09:38Z</time></trkpt><trkpt lat="42.61132273017035" lon="2.862138753735023"><ele>59.5</ele><time>2026-04-22T14:09:39Z</time></trkpt><trkpt lat="42.61169710449327" lon="2.8623118020333416"><ele>59.0</ele><time>2026-04-22T14:09:41Z</time></trkpt><trkpt lat="42.611883000208394" lon="2.8623954477419082"><ele>59.0</ele><time>2026-04-22T14:09:42Z</time></trkpt><trkpt lat="42.61207044163405" lon="2.8624828690916995"><ele>59.0</ele><time>2026-04-22T14:09:43Z</time></trkpt><trkpt lat="42.612256475080535" lon="2.8625704071580578"><ele>59.0</ele><time>2026-04-22T14:09:44Z</time></trkpt><trkpt lat="42.61244278450751" lon="2.8626523221328117"><ele>59.0</ele><time>2026-04-22T14:09:45Z</time></trkpt><trkpt lat="42.61262832402184" lon="2.8627381456002814"><ele>59.0</ele><time>2026-04-22T14:09:46Z</time></trkpt><trkpt lat="42.6128197583183" lon="2.8628243426186697"><ele>59.0</ele><time>2026-04-22T14:09:47Z</time></trkpt><trkpt lat="42.61300932778377" lon="2.8629124133131514"><ele>59.333333333333336</ele><time>2026-04-22T14:09:48Z</time></trkpt><trkpt lat="42.613194915985154" lon="2.8630048537240347"><ele>59.66666666666667</ele><time>2026-04-22T14:09:49Z</time></trkpt><trkpt lat="42.6133853253002" lon="2.8630922803085173"><ele>60.0</ele><time>2026-04-22T14:09:50Z</time></trkpt><trkpt lat="42.61357915053119" lon="2.8631828917630164"><ele>60.33333333333333</ele><time>2026-04-22T14:09:51Z</time></trkpt><trkpt lat="42.61377080124788" lon="2.8632685641750832"><ele>60.666666666666664</ele><time>2026-04-22T14:09:52Z</time></trkpt><trkpt lat="42.61396452476765" lon="2.863353497216557"><ele>61.0</ele><time>2026-04-22T14:09:53Z</time></trkpt><trkpt lat="42.61415720215048" lon="2.8634406931401153"><ele>60.0</ele><time>2026-04-22T14:09:54Z</time></trkpt><trkpt lat="42.614347879403475" lon="2.8635349727754895"><ele>59.0</ele><time>2026-04-22T14:09:55Z</time></trkpt><trkpt lat="42.614536064730075" lon="2.8636218024135394"><ele>58.0</ele><time>2026-04-22T14:09:56Z</time></trkpt><trkpt lat="42.614730390689644" lon="2.8637062369213644"><ele>58.0</ele><time>2026-04-22T14:09:57Z</time></trkpt><trkpt lat="42.61492329303032" lon="2.863790256989118"><ele>58.0</ele><time>2026-04-22T14:09:58Z</time></trkpt><trkpt lat="42.61511186288366" lon="2.8638756924912716"><ele>58.0</ele><time>2026-04-22T14:09:59Z</time></trkpt><trkpt lat="42.615303054869514" lon="2.86396366213974"><ele>57.666666666666664</ele><time>2026-04-22T14:10:00Z</time></trkpt><trkpt lat="42.61549396417676" lon="2.864052105960834"><ele>57.33333333333333</ele><time>2026-04-22T14:10:01Z</time></trkpt><trkpt lat="42.6156856857781" lon="2.864148651115151"><ele>57.0</ele><time>2026-04-22T14:10:02Z</time></trkpt><trkpt lat="42.615872807158595" lon="2.8642376026380814"><ele>57.0</ele><time>2026-04-22T14:10:03Z</time></trkpt><trkpt lat="42.616064494944986" lon="2.8643290760137017"><ele>57.0</ele><time>2026-04-22T14:10:04Z</time></trkpt><trkpt lat="42.616258109418865" lon="2.8644177841937424"><ele>57.0</ele><time>2026-04-22T14:10:05Z</time></trkpt><trkpt lat="42.61644987314521" lon="2.8645063241340094"><ele>56.0</ele><time>2026-04-22T14:10:06Z</time></trkpt><trkpt lat="42.616640841611016" lon="2.8645943158643457"><ele>55.0</ele><time>2026-04-22T14:10:07Z</time></trkpt><trkpt lat="42.61682519008765" lon="2.864676051894252"><ele>54.0</ele><time>2026-04-22T14:10:08Z</time></trkpt><trkpt lat="42.61702452864339" lon="2.864766031671926"><ele>54.0</ele><time>2026-04-22T14:10:09Z</time></trkpt><trkpt lat="42.61722021282171" lon="2.8648507044581164"><ele>54.0</ele><time>2026-04-22T14:10:10Z</time></trkpt><trkpt lat="42.61741065336159" lon="2.8649343219774708"><ele>54.0</ele><time>2026-04-22T14:10:11Z</time></trkpt><trkpt lat="42.61760165852535" lon="2.865015367420943"><ele>54.0</ele><time>2026-04-22T14:10:12Z</time></trkpt><trkpt lat="42.61779080930592" lon="2.8650999479889694"><ele>54.0</ele><time>2026-04-22T14:10:13Z</time></trkpt><trkpt lat="42.61797951100653" lon="2.865184918350222"><ele>54.0</ele><time>2026-04-22T14:10:14Z</time></trkpt><trkpt lat="42.61816830387204" lon="2.8652713424339464"><ele>53.0</ele><time>2026-04-22T14:10:15Z</time></trkpt><trkpt lat="42.61835491470605" lon="2.86535871829811"><ele>52.0</ele><time>2026-04-22T14:10:16Z</time></trkpt><trkpt lat="42.618542358137006" lon="2.8654446256674024"><ele>51.0</ele><time>2026-04-22T14:10:17Z</time></trkpt><trkpt lat="42.61873251115028" lon="2.86552503208638"><ele>51.0</ele><time>2026-04-22T14:10:18Z</time></trkpt><trkpt lat="42.618921886558155" lon="2.865607175642685"><ele>51.0</ele><time>2026-04-22T14:10:19Z</time></trkpt><trkpt lat="42.619111180499495" lon="2.86569072160115"><ele>51.0</ele><time>2026-04-22T14:10:20Z</time></trkpt><trkpt lat="42.61929793639053" lon="2.86577515435363"><ele>51.0</ele><time>2026-04-22T14:10:21Z</time></trkpt><trkpt lat="42.619480674082034" lon="2.8658590642686246"><ele>51.0</ele><time>2026-04-22T14:10:22Z</time></trkpt><trkpt lat="42.61966412729262" lon="2.865939916186161"><ele>51.0</ele><time>2026-04-22T14:10:23Z</time></trkpt><trkpt lat="42.61984566194142" lon="2.86602292359449"><ele>50.66666666666667</ele><time>2026-04-22T14:10:24Z</time></trkpt><trkpt lat="42.62002354599331" lon="2.866106934572556"><ele>50.333333333333336</ele><time>2026-04-22T14:10:25Z</time></trkpt><trkpt lat="42.62020479900273" lon="2.8661893139312244"><ele>50.0</ele><time>2026-04-22T14:10:26Z</time></trkpt><trkpt lat="42.62038304290106" lon="2.866269899003314"><ele>50.0</ele><time>2026-04-22T14:10:27Z</time></trkpt><trkpt lat="42.62055983311537" lon="2.8663498112342096"><ele>50.0</ele><time>2026-04-22T14:10:28Z</time></trkpt><trkpt lat="42.62073718478443" lon="2.86643156551348"><ele>50.0</ele><time>2026-04-22T14:10:29Z</time></trkpt><trkpt lat="42.62091396448189" lon="2.86651241197687"><ele>50.0</ele><time>2026-04-22T14:10:30Z</time></trkpt><trkpt lat="42.621089833820584" lon="2.8665937545118956"><ele>50.0</ele><time>2026-04-22T14:10:31Z</time></trkpt><trkpt lat="42.621265281859024" lon="2.8666718823746042"><ele>50.0</ele><time>2026-04-22T14:10:32Z</time></trkpt><trkpt lat="42.621439009537134" lon="2.866749771794455"><ele>49.66666666666667</ele><time>2026-04-22T14:10:33Z</time></trkpt><trkpt lat="42.62161233014563" lon="2.866826249948727"><ele>49.33333333333333</ele><time>2026-04-22T14:10:34Z</time></trkpt><trkpt lat="42.6217822316957" lon="2.8669003606882444"><ele>49.0</ele><time>2026-04-22T14:10:35Z</time></trkpt><trkpt lat="42.62195494138469" lon="2.8669760155817077"><ele>50.0</ele><time>2026-04-22T14:10:36Z</time></trkpt><trkpt lat="42.62212532854825" lon="2.8670542631554086"><ele>51.0</ele><time>2026-04-22T14:10:37Z</time></trkpt><trkpt lat="42.62229330629665" lon="2.8671327830747386"><ele>52.0</ele><time>2026-04-22T14:10:38Z</time></trkpt><trkpt lat="42.62262918614935" lon="2.8672869923248396"><ele>52.0</ele><time>2026-04-22T14:10:40Z</time></trkpt><trkpt lat="42.622796843851745" lon="2.867364212828797"><ele>52.0</ele><time>2026-04-22T14:10:41Z</time></trkpt><trkpt lat="42.62296150394203" lon="2.8674382835822114"><ele>52.0</ele><time>2026-04-22T14:10:42Z</time></trkpt><trkpt lat="42.62313052308148" lon="2.86751511341584"><ele>52.0</ele><time>2026-04-22T14:10:43Z</time></trkpt><trkpt lat="42.62329741908093" lon="2.8675903201184094"><ele>52.0</ele><time>2026-04-22T14:10:44Z</time></trkpt><trkpt lat="42.62363316089331" lon="2.867740024536265"><ele>51.33333333333333</ele><time>2026-04-22T14:10:46Z</time></trkpt><trkpt lat="42.62380330623166" lon="2.867815925861742"><ele>50.66666666666667</ele><time>2026-04-22T14:10:47Z</time></trkpt><trkpt lat="42.62397175771958" lon="2.867893692220488"><ele>50.0</ele><time>2026-04-22T14:10:48Z</time></trkpt><trkpt lat="42.62414455148173" lon="2.8679694522944454"><ele>50.0</ele><time>2026-04-22T14:10:49Z</time></trkpt><trkpt lat="42.62431725109969" lon="2.8680466274591567"><ele>50.0</ele><time>2026-04-22T14:10:50Z</time></trkpt><trkpt lat="42.624670480653855" lon="2.8682083470559667"><ele>50.0</ele><time>2026-04-22T14:10:52Z</time></trkpt><trkpt lat="42.62484525137556" lon="2.868287461999792"><ele>50.0</ele><time>2026-04-22T14:10:53Z</time></trkpt><trkpt lat="42.62501979805223" lon="2.8683697286069627"><ele>50.0</ele><time>2026-04-22T14:10:54Z</time></trkpt><trkpt lat="42.625194935641204" lon="2.8684528770460886"><ele>50.66666666666667</ele><time>2026-04-22T14:10:55Z</time></trkpt><trkpt lat="42.62536624498041" lon="2.868533977371153"><ele>51.33333333333333</ele><time>2026-04-22T14:10:56Z</time></trkpt><trkpt lat="42.6255365807322" lon="2.8686141473699536"><ele>52.0</ele><time>2026-04-22T14:10:57Z</time></trkpt><trkpt lat="42.6257039624573" lon="2.8686962657661117"><ele>52.0</ele><time>2026-04-22T14:10:58Z</time></trkpt><trkpt lat="42.625874657643735" lon="2.868773329272992"><ele>52.0</ele><time>2026-04-22T14:10:59Z</time></trkpt><trkpt lat="42.626200755444636" lon="2.8689251845074497"><ele>51.666666666666664</ele><time>2026-04-22T14:11:01Z</time></trkpt><trkpt lat="42.626367767957035" lon="2.8689990194497437"><ele>51.33333333333333</ele><time>2026-04-22T14:11:02Z</time></trkpt><trkpt lat="42.62652855815384" lon="2.869074787097855"><ele>51.0</ele><time>2026-04-22T14:11:03Z</time></trkpt><trkpt lat="42.62668964760487" lon="2.8691493254675975"><ele>51.0</ele><time>2026-04-22T14:11:04Z</time></trkpt><trkpt lat="42.62685054765702" lon="2.8692230306427713"><ele>51.0</ele><time>2026-04-22T14:11:05Z</time></trkpt><trkpt lat="42.627016607425084" lon="2.869295283064085"><ele>51.0</ele><time>2026-04-22T14:11:06Z</time></trkpt><trkpt lat="42.62717870009185" lon="2.8693698596596575"><ele>49.5</ele><time>2026-04-22T14:11:07Z</time></trkpt><trkpt lat="42.627510792756084" lon="2.869525042499484"><ele>48.0</ele><time>2026-04-22T14:11:09Z</time></trkpt><trkpt lat="42.62767141298063" lon="2.869603962993345"><ele>48.33333333333333</ele><time>2026-04-22T14:11:10Z</time></trkpt><trkpt lat="42.62783169151683" lon="2.8696785230128095"><ele>48.666666666666664</ele><time>2026-04-22T14:11:11Z</time></trkpt><trkpt lat="42.62799474734614" lon="2.869753996266741"><ele>49.0</ele><time>2026-04-22T14:11:12Z</time></trkpt><trkpt lat="42.62815733767016" lon="2.8698263962619976"><ele>49.0</ele><time>2026-04-22T14:11:13Z</time></trkpt><trkpt lat="42.628312652850674" lon="2.869900649902582"><ele>49.0</ele><time>2026-04-22T14:11:14Z</time></trkpt><trkpt lat="42.62846427659787" lon="2.8699692896096387"><ele>49.0</ele><time>2026-04-22T14:11:15Z</time></trkpt><trkpt lat="42.62861036622129" lon="2.8700364950452073"><ele>49.0</ele><time>2026-04-22T14:11:16Z</time></trkpt><trkpt lat="42.628753465306374" lon="2.870102986219759"><ele>49.0</ele><time>2026-04-22T14:11:17Z</time></trkpt><trkpt lat="42.62889288606853" lon="2.8701666495527878"><ele>49.0</ele><time>2026-04-22T14:11:18Z</time></trkpt><trkpt lat="42.6290298845621" lon="2.8702311163254994"><ele>49.0</ele><time>2026-04-22T14:11:19Z</time></trkpt><trkpt lat="42.62916232628473" lon="2.8702962525369435"><ele>49.0</ele><time>2026-04-22T14:11:20Z</time></trkpt><trkpt lat="42.62929317626385" lon="2.870360867088539"><ele>49.0</ele><time>2026-04-22T14:11:21Z</time></trkpt><trkpt lat="42.62954057770631" lon="2.870489926546863"><ele>49.0</ele><time>2026-04-22T14:11:23Z</time></trkpt><trkpt lat="42.629662196880794" lon="2.8705559731674355"><ele>49.0</ele><time>2026-04-22T14:11:24Z</time></trkpt><trkpt lat="42.62978237575757" lon="2.870615558846054"><ele>49.0</ele><time>2026-04-22T14:11:25Z</time></trkpt><trkpt lat="42.62989679519964" lon="2.8706689246596584"><ele>49.0</ele><time>2026-04-22T14:11:26Z</time></trkpt><trkpt lat="42.62999121955069" lon="2.8707149788818844"><ele>49.0</ele><time>2026-04-22T14:11:27Z</time></trkpt><trkpt lat="42.63006226250082" lon="2.870747451278516"><ele>49.0</ele><time>2026-04-22T14:11:28Z</time></trkpt><trkpt lat="42.6301718450607" lon="2.870804696295175"><ele>49.400000000000006</ele><time>2026-04-22T14:11:30Z</time></trkpt><trkpt lat="42.63032716720177" lon="2.8709020688838813"><ele>49.8</ele><time>2026-04-22T14:11:33Z</time></trkpt><trkpt lat="42.63037907224638" lon="2.8709553405047785"><ele>50.2</ele><time>2026-04-22T14:11:34Z</time></trkpt><trkpt lat="42.63042840944305" lon="2.8710283041592826"><ele>50.599999999999994</ele><time>2026-04-22T14:11:35Z</time></trkpt><trkpt lat="42.63047322423851" lon="2.8711022362446283"><ele>51.0</ele><time>2026-04-22T14:11:36Z</time></trkpt><trkpt lat="42.63056977121844" lon="2.871175901322464"><ele>50.199999999999996</ele><time>2026-04-22T14:11:38Z</time></trkpt><trkpt lat="42.630678682478255" lon="2.8711638635221566"><ele>49.4</ele><time>2026-04-22T14:11:40Z</time></trkpt><trkpt lat="42.63074827597117" lon="2.87112605304617"><ele>48.6</ele><time>2026-04-22T14:11:41Z</time></trkpt><trkpt lat="42.63082511633695" lon="2.871114266388122"><ele>47.8</ele><time>2026-04-22T14:11:42Z</time></trkpt><trkpt lat="42.6309834788071" lon="2.871170427028641"><ele>47.0</ele><time>2026-04-22T14:11:44Z</time></trkpt><trkpt lat="42.6310705547079" lon="2.8712114396998145"><ele>46.5</ele><time>2026-04-22T14:11:45Z</time></trkpt><trkpt lat="42.631170237257436" lon="2.8712532344738184"><ele>46.0</ele><time>2026-04-22T14:11:46Z</time></trkpt><trkpt lat="42.6312869664294" lon="2.8712995104113403"><ele>45.5</ele><time>2026-04-22T14:11:47Z</time></trkpt><trkpt lat="42.6314021904091" lon="2.87134931508542"><ele>45.0</ele><time>2026-04-22T14:11:48Z</time></trkpt><trkpt lat="42.63164578878591" lon="2.871442970645934"><ele>45.0</ele><time>2026-04-22T14:11:50Z</time></trkpt><trkpt lat="42.63177739707945" lon="2.871497993920148"><ele>45.0</ele><time>2026-04-22T14:11:51Z</time></trkpt><trkpt lat="42.631906632568636" lon="2.8715521409610614"><ele>45.0</ele><time>2026-04-22T14:11:52Z</time></trkpt><trkpt lat="42.63203948224049" lon="2.8716108797679514"><ele>45.0</ele><time>2026-04-22T14:11:53Z</time></trkpt><trkpt lat="42.6321730758222" lon="2.8716710532676224"><ele>45.25</ele><time>2026-04-22T14:11:54Z</time></trkpt><trkpt lat="42.632308489147526" lon="2.8717335237563457"><ele>45.5</ele><time>2026-04-22T14:11:55Z</time></trkpt><trkpt lat="42.63244722329956" lon="2.871795053155556"><ele>45.75</ele><time>2026-04-22T14:11:56Z</time></trkpt><trkpt lat="42.63258713028153" lon="2.871859656516428"><ele>46.0</ele><time>2026-04-22T14:11:57Z</time></trkpt><trkpt lat="42.632729266482755" lon="2.871925339510484"><ele>46.333333333333336</ele><time>2026-04-22T14:11:58Z</time></trkpt><trkpt lat="42.63287568762764" lon="2.871993030278478"><ele>46.666666666666664</ele><time>2026-04-22T14:11:59Z</time></trkpt><trkpt lat="42.633025495859776" lon="2.872059666854028"><ele>47.0</ele><time>2026-04-22T14:12:00Z</time></trkpt><trkpt lat="42.63317697921154" lon="2.8721288301486174"><ele>47.0</ele><time>2026-04-22T14:12:01Z</time></trkpt><trkpt lat="42.6333265439868" lon="2.872195218394672"><ele>47.0</ele><time>2026-04-22T14:12:02Z</time></trkpt><trkpt lat="42.63346840307267" lon="2.8722616986797784"><ele>47.0</ele><time>2026-04-22T14:12:03Z</time></trkpt><trkpt lat="42.633601809253065" lon="2.872325896071967"><ele>47.0</ele><time>2026-04-22T14:12:04Z</time></trkpt><trkpt lat="42.63374108684802" lon="2.872387233498908"><ele>46.75</ele><time>2026-04-22T14:12:05Z</time></trkpt><trkpt lat="42.63387637626216" lon="2.8724479331948403"><ele>46.5</ele><time>2026-04-22T14:12:06Z</time></trkpt><trkpt lat="42.63401602651344" lon="2.872511100926821"><ele>46.25</ele><time>2026-04-22T14:12:07Z</time></trkpt><trkpt lat="42.63415727296276" lon="2.8725739157385832"><ele>46.0</ele><time>2026-04-22T14:12:08Z</time></trkpt><trkpt lat="42.63429314222512" lon="2.8726392713476723"><ele>46.0</ele><time>2026-04-22T14:12:09Z</time></trkpt><trkpt lat="42.634429826858884" lon="2.872703505048905"><ele>46.0</ele><time>2026-04-22T14:12:10Z</time></trkpt><trkpt lat="42.63456606920212" lon="2.8727670914357226"><ele>46.0</ele><time>2026-04-22T14:12:11Z</time></trkpt><trkpt lat="42.63483239310973" lon="2.872889133770254"><ele>46.25</ele><time>2026-04-22T14:12:13Z</time></trkpt><trkpt lat="42.63496334319284" lon="2.872949732214978"><ele>46.5</ele><time>2026-04-22T14:12:14Z</time></trkpt><trkpt lat="42.63509945086782" lon="2.873010867398009"><ele>46.75</ele><time>2026-04-22T14:12:15Z</time></trkpt><trkpt lat="42.635235707409535" lon="2.8730769667567015"><ele>47.0</ele><time>2026-04-22T14:12:16Z</time></trkpt><trkpt lat="42.63537676148764" lon="2.8731447137960617"><ele>47.33333333333333</ele><time>2026-04-22T14:12:17Z</time></trkpt><trkpt lat="42.635518230112424" lon="2.8732113657916774"><ele>47.666666666666664</ele><time>2026-04-22T14:12:18Z</time></trkpt><trkpt lat="42.6356640945014" lon="2.8732813108980886"><ele>48.0</ele><time>2026-04-22T14:12:19Z</time></trkpt><trkpt lat="42.635969825631676" lon="2.8734261924632896"><ele>47.333333333333336</ele><time>2026-04-22T14:12:21Z</time></trkpt><trkpt lat="42.63611892972493" lon="2.8734968329350856"><ele>46.66666666666667</ele><time>2026-04-22T14:12:22Z</time></trkpt><trkpt lat="42.63626105004666" lon="2.873569564236118"><ele>46.0</ele><time>2026-04-22T14:12:23Z</time></trkpt><trkpt lat="42.63640264339567" lon="2.87364152956395"><ele>45.333333333333336</ele><time>2026-04-22T14:12:24Z</time></trkpt><trkpt lat="42.63654508868009" lon="2.8737125808432147"><ele>44.666666666666664</ele><time>2026-04-22T14:12:25Z</time></trkpt><trkpt lat="42.636689360399515" lon="2.873785010845731"><ele>44.0</ele><time>2026-04-22T14:12:26Z</time></trkpt><trkpt lat="42.63683278350812" lon="2.8738559578241047"><ele>43.666666666666664</ele><time>2026-04-22T14:12:27Z</time></trkpt><trkpt lat="42.63697485952394" lon="2.8739249117582615"><ele>43.333333333333336</ele><time>2026-04-22T14:12:28Z</time></trkpt><trkpt lat="42.63711745114304" lon="2.873993435176943"><ele>43.0</ele><time>2026-04-22T14:12:29Z</time></trkpt><trkpt lat="42.63725969943879" lon="2.874068000852548"><ele>43.0</ele><time>2026-04-22T14:12:30Z</time></trkpt><trkpt lat="42.63740293227085" lon="2.874140719901498"><ele>43.0</ele><time>2026-04-22T14:12:31Z</time></trkpt><trkpt lat="42.63754713530152" lon="2.874211580718536"><ele>43.0</ele><time>2026-04-22T14:12:32Z</time></trkpt><trkpt lat="42.637689452165944" lon="2.8742795315247758"><ele>42.66666666666667</ele><time>2026-04-22T14:12:33Z</time></trkpt><trkpt lat="42.637833276867674" lon="2.8743453823776686"><ele>42.333333333333336</ele><time>2026-04-22T14:12:34Z</time></trkpt><trkpt lat="42.63797743956472" lon="2.874409727499043"><ele>42.0</ele><time>2026-04-22T14:12:35Z</time></trkpt><trkpt lat="42.638117896848016" lon="2.8744722252700083"><ele>42.0</ele><time>2026-04-22T14:12:36Z</time></trkpt><trkpt lat="42.63825995187159" lon="2.874538385066227"><ele>42.0</ele><time>2026-04-22T14:12:37Z</time></trkpt><trkpt lat="42.63840317459018" lon="2.8746036762889915"><ele>42.0</ele><time>2026-04-22T14:12:38Z</time></trkpt><trkpt lat="42.63868755513309" lon="2.874733649336468"><ele>42.333333333333336</ele><time>2026-04-22T14:12:40Z</time></trkpt><trkpt lat="42.6388300871692" lon="2.8747989102576645"><ele>42.66666666666667</ele><time>2026-04-22T14:12:41Z</time></trkpt><trkpt lat="42.63897331783386" lon="2.874864515548724"><ele>43.0</ele><time>2026-04-22T14:12:42Z</time></trkpt><trkpt lat="42.639119514992785" lon="2.874929645443549"><ele>43.0</ele><time>2026-04-22T14:12:43Z</time></trkpt><trkpt lat="42.63926724255097" lon="2.8749935685169503"><ele>43.0</ele><time>2026-04-22T14:12:44Z</time></trkpt><trkpt lat="42.639413112029146" lon="2.8750614091738753"><ele>43.0</ele><time>2026-04-22T14:12:45Z</time></trkpt><trkpt lat="42.63955802341076" lon="2.8751259214272573"><ele>42.0</ele><time>2026-04-22T14:12:46Z</time></trkpt><trkpt lat="42.63969933177767" lon="2.875192617470556"><ele>41.0</ele><time>2026-04-22T14:12:47Z</time></trkpt><trkpt lat="42.63983348181316" lon="2.875255193128816"><ele>40.0</ele><time>2026-04-22T14:12:48Z</time></trkpt><trkpt lat="42.63996414195968" lon="2.8753175973704854"><ele>39.0</ele><time>2026-04-22T14:12:49Z</time></trkpt><trkpt lat="42.64009435408102" lon="2.8753775737590574"><ele>39.0</ele><time>2026-04-22T14:12:50Z</time></trkpt><trkpt lat="42.64021670038215" lon="2.875439929517572"><ele>39.0</ele><time>2026-04-22T14:12:51Z</time></trkpt><trkpt lat="42.6403400906198" lon="2.875499290242638"><ele>39.0</ele><time>2026-04-22T14:12:52Z</time></trkpt><trkpt lat="42.64045753727397" lon="2.875561148809922"><ele>39.0</ele><time>2026-04-22T14:12:53Z</time></trkpt><trkpt lat="42.640578839164874" lon="2.875624900462496"><ele>39.6</ele><time>2026-04-22T14:12:54Z</time></trkpt><trkpt lat="42.64068697345971" lon="2.8756801157414573"><ele>40.2</ele><time>2026-04-22T14:12:55Z</time></trkpt><trkpt lat="42.64079287881186" lon="2.8757342000097825"><ele>40.800000000000004</ele><time>2026-04-22T14:12:56Z</time></trkpt><trkpt lat="42.64089016735602" lon="2.8757813783295627"><ele>41.4</ele><time>2026-04-22T14:12:57Z</time></trkpt><trkpt lat="42.640981117159356" lon="2.8758228344355206"><ele>42.0</ele><time>2026-04-22T14:12:58Z</time></trkpt><trkpt lat="42.641059117197734" lon="2.875858932093927"><ele>41.833333333333336</ele><time>2026-04-22T14:12:59Z</time></trkpt><trkpt lat="42.64119184058545" lon="2.8759530771814394"><ele>41.666666666666664</ele><time>2026-04-22T14:13:01Z</time></trkpt><trkpt lat="42.64123278629076" lon="2.8760293188550157"><ele>41.5</ele><time>2026-04-22T14:13:02Z</time></trkpt><trkpt lat="42.64126463470648" lon="2.8761224339991833"><ele>41.33333333333333</ele><time>2026-04-22T14:13:03Z</time></trkpt><trkpt lat="42.641305984625966" lon="2.87620673063471"><ele>41.166666666666664</ele><time>2026-04-22T14:13:04Z</time></trkpt><trkpt lat="42.641360412557944" lon="2.8762727666453585"><ele>41.0</ele><time>2026-04-22T14:13:05Z</time></trkpt><trkpt lat="42.64141674456849" lon="2.876336939980546"><ele>41.0</ele><time>2026-04-22T14:13:06Z</time></trkpt><trkpt lat="42.64145999060535" lon="2.8764151004232112"><ele>41.0</ele><time>2026-04-22T14:13:07Z</time></trkpt><trkpt lat="42.64149152615326" lon="2.8765002039443326"><ele>41.0</ele><time>2026-04-22T14:13:08Z</time></trkpt><trkpt lat="42.64152263941789" lon="2.876575474213042"><ele>41.0</ele><time>2026-04-22T14:13:09Z</time></trkpt><trkpt lat="42.641565879936614" lon="2.8766481142466214"><ele>41.0</ele><time>2026-04-22T14:13:10Z</time></trkpt><trkpt lat="42.64167908771607" lon="2.8767674003963735"><ele>41.0</ele><time>2026-04-22T14:13:12Z</time></trkpt><trkpt lat="42.6417309468645" lon="2.876834583533103"><ele>40.857142857142854</ele><time>2026-04-22T14:13:13Z</time></trkpt><trkpt lat="42.64177929673422" lon="2.876907476849429"><ele>40.714285714285715</ele><time>2026-04-22T14:13:14Z</time></trkpt><trkpt lat="42.64181607278337" lon="2.8769935684299828"><ele>40.57142857142857</ele><time>2026-04-22T14:13:15Z</time></trkpt><trkpt lat="42.641837345117615" lon="2.87708941613465"><ele>40.42857142857143</ele><time>2026-04-22T14:13:16Z</time></trkpt><trkpt lat="42.64185272764375" lon="2.8771799976320698"><ele>40.285714285714285</ele><time>2026-04-22T14:13:17Z</time></trkpt><trkpt lat="42.64186833847492" lon="2.8772744518836584"><ele>40.14285714285714</ele><time>2026-04-22T14:13:18Z</time></trkpt><trkpt lat="42.64188178608245" lon="2.877371269635231"><ele>40.0</ele><time>2026-04-22T14:13:19Z</time></trkpt><trkpt lat="42.64190122613953" lon="2.877466188052292"><ele>40.0</ele><time>2026-04-22T14:13:20Z</time></trkpt><trkpt lat="42.641921579683626" lon="2.8775613059563256"><ele>40.0</ele><time>2026-04-22T14:13:21Z</time></trkpt><trkpt lat="42.641945660580625" lon="2.8776574910284545"><ele>40.0</ele><time>2026-04-22T14:13:22Z</time></trkpt><trkpt lat="42.641967824313056" lon="2.8777519206427136"><ele>40.0</ele><time>2026-04-22T14:13:23Z</time></trkpt><trkpt lat="42.64199139588257" lon="2.877847058739518"><ele>40.0</ele><time>2026-04-22T14:13:24Z</time></trkpt><trkpt lat="42.64201143742779" lon="2.877941355289252"><ele>40.0</ele><time>2026-04-22T14:13:25Z</time></trkpt><trkpt lat="42.642034173930725" lon="2.8780324372283475"><ele>40.0</ele><time>2026-04-22T14:13:26Z</time></trkpt><trkpt lat="42.64205773101691" lon="2.8781235637277334"><ele>40.0</ele><time>2026-04-22T14:13:27Z</time></trkpt><trkpt lat="42.642082997930636" lon="2.878215931035519"><ele>40.0</ele><time>2026-04-22T14:13:28Z</time></trkpt><trkpt lat="42.64210930192601" lon="2.878303128047704"><ele>40.0</ele><time>2026-04-22T14:13:29Z</time></trkpt><trkpt lat="42.64213706771229" lon="2.8783939708834265"><ele>40.0</ele><time>2026-04-22T14:13:30Z</time></trkpt><trkpt lat="42.64216193538317" lon="2.878476257201116"><ele>40.0</ele><time>2026-04-22T14:13:31Z</time></trkpt><trkpt lat="42.64219347730495" lon="2.8785619993049"><ele>40.0</ele><time>2026-04-22T14:13:32Z</time></trkpt><trkpt lat="42.64222530581782" lon="2.8786383154041686"><ele>40.0</ele><time>2026-04-22T14:13:33Z</time></trkpt><trkpt lat="42.6422513541348" lon="2.8787168165977666"><ele>39.5</ele><time>2026-04-22T14:13:34Z</time></trkpt><trkpt lat="42.64227981921599" lon="2.8787976393511894"><ele>39.0</ele><time>2026-04-22T14:13:35Z</time></trkpt><trkpt lat="42.642306094263695" lon="2.8788789516560724"><ele>38.5</ele><time>2026-04-22T14:13:36Z</time></trkpt><trkpt lat="42.6423252739511" lon="2.8789618481675134"><ele>38.0</ele><time>2026-04-22T14:13:37Z</time></trkpt><trkpt lat="42.64231884654516" lon="2.8791262131918294"><ele>37.5</ele><time>2026-04-22T14:13:39Z</time></trkpt><trkpt lat="42.642248816590104" lon="2.879261208166305"><ele>37.0</ele><time>2026-04-22T14:13:41Z</time></trkpt><trkpt lat="42.64213167760962" lon="2.8792910394550693"><ele>37.0</ele><time>2026-04-22T14:13:43Z</time></trkpt><trkpt lat="42.64204662722625" lon="2.8791802549614784"><ele>37.0</ele><time>2026-04-22T14:13:45Z</time></trkpt><trkpt lat="42.64201812387794" lon="2.8791023302738368"><ele>37.0</ele><time>2026-04-22T14:13:46Z</time></trkpt><trkpt lat="42.641988401972725" lon="2.8790149636502993"><ele>37.0</ele><time>2026-04-22T14:13:47Z</time></trkpt><trkpt lat="42.641951390219496" lon="2.8789283527631357"><ele>37.0</ele><time>2026-04-22T14:13:48Z</time></trkpt><trkpt lat="42.64188682911452" lon="2.8787362924842657"><ele>37.16666666666667</ele><time>2026-04-22T14:13:50Z</time></trkpt><trkpt lat="42.64185659001018" lon="2.8786443180590404"><ele>37.333333333333336</ele><time>2026-04-22T14:13:51Z</time></trkpt><trkpt lat="42.641818621492234" lon="2.878506482098732"><ele>37.5</ele><time>2026-04-22T14:13:53Z</time></trkpt><trkpt lat="42.64177979093969" lon="2.8784306994955053"><ele>37.666666666666664</ele><time>2026-04-22T14:13:59Z</time></trkpt><trkpt lat="42.64174080467727" lon="2.878317884130291"><ele>37.83333333333333</ele><time>2026-04-22T14:14:02Z</time></trkpt><trkpt lat="42.641715494273825" lon="2.878185643545837"><ele>38.0</ele><time>2026-04-22T14:14:04Z</time></trkpt><trkpt lat="42.641703775454374" lon="2.878097563297419"><ele>38.199999999999996</ele><time>2026-04-22T14:14:05Z</time></trkpt><trkpt lat="42.64167366283906" lon="2.8779224397904586"><ele>38.4</ele><time>2026-04-22T14:14:07Z</time></trkpt><trkpt lat="42.641652919052625" lon="2.8777798344552283"><ele>38.599999999999994</ele><time>2026-04-22T14:14:09Z</time></trkpt><trkpt lat="42.641589809096565" lon="2.8777049773702346"><ele>38.8</ele><time>2026-04-22T14:14:11Z</time></trkpt><trkpt lat="42.6415096474015" lon="2.8777298184781523"><ele>39.0</ele><time>2026-04-22T14:14:13Z</time></trkpt><trkpt lat="42.641412844272196" lon="2.877864740541086"><ele>39.0</ele><time>2026-04-22T14:14:16Z</time></trkpt><trkpt lat="42.64136338703778" lon="2.877931001729599"><ele>39.0</ele><time>2026-04-22T14:14:18Z</time></trkpt><trkpt lat="42.641255653576174" lon="2.8779031361984746"><ele>39.0</ele><time>2026-04-22T14:14:21Z</time></trkpt><trkpt lat="42.641171964865265" lon="2.8777852412370177"><ele>39.0</ele><time>2026-04-22T14:14:23Z</time></trkpt><trkpt lat="42.64108750321317" lon="2.877665713300445"><ele>39.0</ele><time>2026-04-22T14:14:25Z</time></trkpt><trkpt lat="42.64099903971895" lon="2.8775578528650616"><ele>39.2</ele><time>2026-04-22T14:14:27Z</time></trkpt><trkpt lat="42.640923302408225" lon="2.8774553093701978"><ele>39.4</ele><time>2026-04-22T14:14:29Z</time></trkpt><trkpt lat="42.640868607597234" lon="2.877334291959126"><ele>39.6</ele><time>2026-04-22T14:14:31Z</time></trkpt><trkpt lat="42.640890498424376" lon="2.877182557393483"><ele>39.8</ele><time>2026-04-22T14:14:33Z</time></trkpt><trkpt lat="42.640929780481486" lon="2.877105802493239"><ele>40.0</ele><time>2026-04-22T14:14:34Z</time></trkpt><trkpt lat="42.64097546177136" lon="2.877043824929172"><ele>40.0</ele><time>2026-04-22T14:14:35Z</time></trkpt><trkpt lat="42.64108274540922" lon="2.87685829924814"><ele>40.0</ele><time>2026-04-22T14:14:38Z</time></trkpt><trkpt lat="42.64112605968997" lon="2.8767435456805965"><ele>40.0</ele><time>2026-04-22T14:14:40Z</time></trkpt><trkpt lat="42.64109029955682" lon="2.876641315199169"><ele>40.0</ele><time>2026-04-22T14:14:42Z</time></trkpt><trkpt lat="42.64102305074168" lon="2.8765610054675586"><ele>40.0</ele><time>2026-04-22T14:14:44Z</time></trkpt><trkpt lat="42.6409506319335" lon="2.876471973096653"><ele>40.333333333333336</ele><time>2026-04-22T14:14:46Z</time></trkpt><trkpt lat="42.64088283377617" lon="2.8763912530558584"><ele>40.66666666666667</ele><time>2026-04-22T14:14:48Z</time></trkpt><trkpt lat="42.640811564412815" lon="2.8763115431272333"><ele>41.0</ele><time>2026-04-22T14:14:50Z</time></trkpt><trkpt lat="42.64076125712992" lon="2.8762556150372394"><ele>41.333333333333336</ele><time>2026-04-22T14:14:52Z</time></trkpt><trkpt lat="42.640787195778195" lon="2.8761698696291798"><ele>41.666666666666664</ele><time>2026-04-22T14:14:55Z</time></trkpt><trkpt lat="42.640838212782064" lon="2.8760912204890476"><ele>42.0</ele><time>2026-04-22T14:14:58Z</time></trkpt><trkpt lat="42.64087075414488" lon="2.8760061070730822"><ele>42.0</ele><time>2026-04-22T14:15:01Z</time></trkpt><trkpt lat="42.64087075414488" lon="2.8760061070730822"><ele>42.0</ele><time>2026-04-22T14:15:01Z</time></trkpt><trkpt lat="42.64087075414488" lon="2.8760061070730822"><ele>42.0</ele><time>2026-04-22T14:15:01Z</time></trkpt><trkpt lat="42.64087075414488" lon="2.8760061070730822"><ele>42.0</ele><time>2026-04-22T14:15:01Z</time></trkpt><trkpt lat="42.64087075414488" lon="2.8760061070730822"><ele>42.0</ele><time>2026-04-22T14:15:01Z</time></trkpt><trkpt lat="42.64087075414488" lon="2.8760061070730822"><ele>42.0</ele><time>2026-04-22T14:15:01Z</time></trkpt><trkpt lat="42.64087075414488" lon="2.8760061070730822"><ele>42.0</ele><time>2026-04-22T14:15:01Z</time></trkpt><trkpt lat="42.64087075414488" lon="2.8760061070730822"><ele>42.0</ele><time>2026-04-22T14:15:01Z</time></trkpt><trkpt lat="42.64087075414488" lon="2.8760061070730822"><ele>42.0</ele><time>2026-04-22T14:15:01Z</time></trkpt><trkpt lat="42.64087075414488" lon="2.8760061070730822"><ele>42.0</ele><time>2026-04-22T14:15:01Z</time></trkpt><trkpt lat="42.64087075414488" lon="2.8760061070730822"><ele>42.0</ele><time>2026-04-22T14:15:01Z</time></trkpt><trkpt lat="42.64087075414488" lon="2.8760061070730822"><ele>42.0</ele><time>2026-04-22T14:15:01Z</time></trkpt><trkpt lat="42.64087075414488" lon="2.8760061070730822"><ele>42.0</ele><time>2026-04-22T14:15:01Z</time></trkpt><trkpt lat="42.64087075414488" lon="2.8760061070730822"><ele>42.0</ele><time>2026-04-22T14:15:01Z</time></trkpt><trkpt lat="42.64087075414488" lon="2.8760061070730822"><ele>42.0</ele><time>2026-04-22T14:15:01Z</time></trkpt><trkpt lat="42.64087075414488" lon="2.8760061070730822"><ele>42.0</ele><time>2026-04-22T14:15:01Z</time></trkpt><trkpt lat="42.64087075414488" lon="2.8760061070730822"><ele>42.0</ele><time>2026-04-22T14:15:01Z</time></trkpt><trkpt lat="42.64087075414488" lon="2.8760061070730822"><ele>42.0</ele><time>2026-04-22T14:15:01Z</time></trkpt><trkpt lat="42.64087075414488" lon="2.8760061070730822"><ele>42.0</ele><time>2026-04-22T14:15:01Z</time></trkpt><trkpt lat="42.64087075414488" lon="2.8760061070730822"><ele>42.0</ele><time>2026-04-22T14:15:01Z</time></trkpt><trkpt lat="42.64087075414488" lon="2.8760061070730822"><ele>42.0</ele><time>2026-04-22T14:15:01Z</time></trkpt><trkpt lat="42.64087075414488" lon="2.8760061070730822"><ele>42.0</ele><time>2026-04-22T14:15:01Z</time></trkpt><trkpt lat="42.64087075414488" lon="2.8760061070730822"><ele>42.0</ele><time>2026-04-22T14:15:01Z</time></trkpt><trkpt lat="42.64087075414488" lon="2.8760061070730822"><ele>42.0</ele><time>2026-04-22T14:15:01Z</time></trkpt><trkpt lat="42.64087075414488" lon="2.8760061070730822"><ele>42.0</ele><time>2026-04-22T14:15:01Z</time></trkpt><trkpt lat="42.64087075414488" lon="2.8760061070730822"><ele>42.0</ele><time>2026-04-22T14:15:01Z</time></trkpt><trkpt lat="42.64087075414488" lon="2.8760061070730822"><ele>42.0</ele><time>2026-04-22T14:15:01Z</time></trkpt><trkpt lat="42.64087075414488" lon="2.8760061070730822"><ele>42.0</ele><time>2026-04-22T14:15:01Z</time></trkpt><trkpt lat="42.64087075414488" lon="2.8760061070730822"><ele>42.0</ele><time>2026-04-22T14:15:01Z</time></trkpt><trkpt lat="42.64087075414488" lon="2.8760061070730822"><ele>42.0</ele><time>2026-04-22T14:15:01Z</time></trkpt><trkpt lat="42.64087075414488" lon="2.8760061070730822"><ele>42.0</ele><time>2026-04-22T14:15:01Z</time></trkpt><trkpt lat="42.64087075414488" lon="2.8760061070730822"><ele>42.0</ele><time>2026-04-22T14:15:01Z</time></trkpt><trkpt lat="42.64087075414488" lon="2.8760061070730822"><ele>42.0</ele><time>2026-04-22T14:15:01Z</time></trkpt><trkpt lat="42.64087075414488" lon="2.8760061070730822"><ele>42.0</ele><time>2026-04-22T14:15:01Z</time></trkpt><trkpt lat="42.64087075414488" lon="2.8760061070730822"><ele>42.0</ele><time>2026-04-22T14:15:01Z</time></trkpt><trkpt lat="42.64087075414488" lon="2.8760061070730822"><ele>42.0</ele><time>2026-04-22T14:15:01Z</time></trkpt><trkpt lat="42.64087075414488" lon="2.8760061070730822"><ele>42.0</ele><time>2026-04-22T14:15:01Z</time></trkpt><trkpt lat="42.64087075414488" lon="2.8760061070730822"><ele>42.0</ele><time>2026-04-22T14:15:01Z</time></trkpt><trkpt lat="42.64087075414488" lon="2.8760061070730822"><ele>42.0</ele><time>2026-04-22T14:15:01Z</time></trkpt><trkpt lat="42.64087075414488" lon="2.8760061070730822"><ele>42.0</ele><time>2026-04-22T14:15:01Z</time></trkpt><trkpt lat="42.64087075414488" lon="2.8760061070730822"><ele>42.0</ele><time>2026-04-22T14:15:01Z</time></trkpt><trkpt lat="42.64087075414488" lon="2.8760061070730822"><ele>42.0</ele><time>2026-04-22T14:15:01Z</time></trkpt><trkpt lat="42.64087075414488" lon="2.8760061070730822"><ele>42.0</ele><time>2026-04-22T14:15:01Z</time></trkpt><trkpt lat="42.64087075414488" lon="2.8760061070730822"><ele>42.0</ele><time>2026-04-22T14:15:01Z</time></trkpt><trkpt lat="42.64087075414488" lon="2.8760061070730822"><ele>42.0</ele><time>2026-04-22T14:15:01Z</time></trkpt><trkpt lat="42.64087075414488" lon="2.8760061070730822"><ele>42.0</ele><time>2026-04-22T14:15:01Z</time></trkpt><trkpt lat="42.64087075414488" lon="2.8760061070730822"><ele>42.0</ele><time>2026-04-22T14:15:01Z</time></trkpt><trkpt lat="42.64087075414488" lon="2.8760061070730822"><ele>42.0</ele><time>2026-04-22T14:15:01Z</time></trkpt><trkpt lat="42.64087075414488" lon="2.8760061070730822"><ele>42.0</ele><time>2026-04-22T14:15:01Z</time></trkpt><trkpt lat="42.64087075414488" lon="2.8760061070730822"><ele>42.0</ele><time>2026-04-22T14:15:01Z</time></trkpt><trkpt lat="42.64087075414488" lon="2.8760061070730822"><ele>42.0</ele><time>2026-04-22T14:15:01Z</time></trkpt><trkpt lat="42.64087075414488" lon="2.8760061070730822"><ele>42.0</ele><time>2026-04-22T14:15:01Z</time></trkpt></trkseg></trk></gpx>